<?xml version='1.0' encoding='UTF-8'?><gpx version="1.1" creator="JPX - https://github.com/jenetics/jpx" xmlns="http://www.topografix.com/GPX/1/1"><trk><trkseg><trkpt lat="43.547728" lon="10.532056"><ele>104.4</ele><time>2026-05-03T12:04:41.574Z</time></trkpt><trkpt lat="43.5476504" lon="10.5320933"><ele>102.8</ele><time>2026-05-03T12:04:42.573Z</time></trkpt><trkpt lat="43.5475523" lon="10.532138"><ele>101.2</ele><time>2026-05-03T12:04:43.574Z</time></trkpt><trkpt lat="43.5474456" lon="10.5322002"><ele>99.60000000000001</ele><time>2026-05-03T12:04:44.573Z</time></trkpt><trkpt lat="43.547336" lon="10.5322671"><ele>98.0</ele><time>2026-05-03T12:04:45.574Z</time></trkpt><trkpt lat="43.5472152" lon="10.5323251"><ele>98.0</ele><time>2026-05-03T12:04:46.574Z</time></trkpt><trkpt lat="43.547088" lon="10.5323735"><ele>98.0</ele><time>2026-05-03T12:04:47.574Z</time></trkpt><trkpt lat="43.5469609" lon="10.5323943"><ele>98.0</ele><time>2026-05-03T12:04:48.573Z</time></trkpt><trkpt lat="43.5468397" lon="10.5323802"><ele>98.0</ele><time>2026-05-03T12:04:49.573Z</time></trkpt><trkpt lat="43.5467225" lon="10.5323291"><ele>97.5</ele><time>2026-05-03T12:04:50.573Z</time></trkpt><trkpt lat="43.5466143" lon="10.5322286"><ele>97.0</ele><time>2026-05-03T12:04:51.574Z</time></trkpt><trkpt lat="43.5465157" lon="10.5320835"><ele>96.5</ele><time>2026-05-03T12:04:52.574Z</time></trkpt><trkpt lat="43.5464078" lon="10.5319214"><ele>96.0</ele><time>2026-05-03T12:04:53.574Z</time></trkpt><trkpt lat="43.5462996" lon="10.531739"><ele>93.66666666666667</ele><time>2026-05-03T12:04:54.574Z</time></trkpt><trkpt lat="43.5461891" lon="10.5315529"><ele>91.33333333333334</ele><time>2026-05-03T12:04:55.574Z</time></trkpt><trkpt lat="43.5460856" lon="10.5313686"><ele>89.0</ele><time>2026-05-03T12:04:56.573Z</time></trkpt><trkpt lat="43.5459761" lon="10.5311995"><ele>89.0</ele><time>2026-05-03T12:04:57.574Z</time></trkpt><trkpt lat="43.5458671" lon="10.5310395"><ele>89.0</ele><time>2026-05-03T12:04:58.574Z</time></trkpt><trkpt lat="43.545766" lon="10.5308792"><ele>89.0</ele><time>2026-05-03T12:04:59.575Z</time></trkpt><trkpt lat="43.5456684" lon="10.5307226"><ele>89.0</ele><time>2026-05-03T12:05:00.574Z</time></trkpt><trkpt lat="43.5455799" lon="10.5305564"><ele>89.0</ele><time>2026-05-03T12:05:01.574Z</time></trkpt><trkpt lat="43.5454969" lon="10.5303951"><ele>89.0</ele><time>2026-05-03T12:05:02.574Z</time></trkpt><trkpt lat="43.5454098" lon="10.5302461"><ele>89.0</ele><time>2026-05-03T12:05:03.574Z</time></trkpt><trkpt lat="43.5453061" lon="10.5301226"><ele>84.75</ele><time>2026-05-03T12:05:04.575Z</time></trkpt><trkpt lat="43.5451938" lon="10.5300268"><ele>80.5</ele><time>2026-05-03T12:05:05.574Z</time></trkpt><trkpt lat="43.5450807" lon="10.5299466"><ele>76.25</ele><time>2026-05-03T12:05:06.574Z</time></trkpt><trkpt lat="43.5449801" lon="10.529868"><ele>72.0</ele><time>2026-05-03T12:05:07.574Z</time></trkpt><trkpt lat="43.5448973" lon="10.5297624"><ele>72.0</ele><time>2026-05-03T12:05:08.573Z</time></trkpt><trkpt lat="43.5448339" lon="10.5296382"><ele>72.0</ele><time>2026-05-03T12:05:09.573Z</time></trkpt><trkpt lat="43.5447907" lon="10.5294791"><ele>72.0</ele><time>2026-05-03T12:05:10.574Z</time></trkpt><trkpt lat="43.5447516" lon="10.5293101"><ele>72.0</ele><time>2026-05-03T12:05:11.573Z</time></trkpt><trkpt lat="43.5447231" lon="10.5291269"><ele>73.75</ele><time>2026-05-03T12:05:12.574Z</time></trkpt><trkpt lat="43.5447033" lon="10.5289278"><ele>75.5</ele><time>2026-05-03T12:05:13.574Z</time></trkpt><trkpt lat="43.544697" lon="10.5287321"><ele>77.25</ele><time>2026-05-03T12:05:14.574Z</time></trkpt><trkpt lat="43.5447102" lon="10.528543"><ele>79.0</ele><time>2026-05-03T12:05:15.574Z</time></trkpt><trkpt lat="43.5447303" lon="10.52836"><ele>79.0</ele><time>2026-05-03T12:05:16.574Z</time></trkpt><trkpt lat="43.5447411" lon="10.5281821"><ele>79.0</ele><time>2026-05-03T12:05:17.574Z</time></trkpt><trkpt lat="43.5447344" lon="10.5280096"><ele>79.0</ele><time>2026-05-03T12:05:18.574Z</time></trkpt><trkpt lat="43.5447147" lon="10.5278494"><ele>79.0</ele><time>2026-05-03T12:05:19.575Z</time></trkpt><trkpt lat="43.5446755" lon="10.5276931"><ele>76.25</ele><time>2026-05-03T12:05:20.575Z</time></trkpt><trkpt lat="43.5446468" lon="10.5275382"><ele>73.5</ele><time>2026-05-03T12:05:21.572Z</time></trkpt><trkpt lat="43.54464" lon="10.5273804"><ele>70.75</ele><time>2026-05-03T12:05:22.574Z</time></trkpt><trkpt lat="43.5446605" lon="10.527229"><ele>68.0</ele><time>2026-05-03T12:05:23.573Z</time></trkpt><trkpt lat="43.5447158" lon="10.5270878"><ele>64.25</ele><time>2026-05-03T12:05:24.574Z</time></trkpt><trkpt lat="43.5447949" lon="10.5269706"><ele>60.5</ele><time>2026-05-03T12:05:25.573Z</time></trkpt><trkpt lat="43.5448895" lon="10.5268709"><ele>56.75</ele><time>2026-05-03T12:05:26.573Z</time></trkpt><trkpt lat="43.5449873" lon="10.5267798"><ele>53.0</ele><time>2026-05-03T12:05:27.573Z</time></trkpt><trkpt lat="43.5450796" lon="10.5266732"><ele>53.0</ele><time>2026-05-03T12:05:28.572Z</time></trkpt><trkpt lat="43.5451614" lon="10.5265474"><ele>53.0</ele><time>2026-05-03T12:05:29.574Z</time></trkpt><trkpt lat="43.5452376" lon="10.5264043"><ele>53.0</ele><time>2026-05-03T12:05:30.574Z</time></trkpt><trkpt lat="43.5453161" lon="10.5262635"><ele>53.0</ele><time>2026-05-03T12:05:31.573Z</time></trkpt><trkpt lat="43.5453932" lon="10.5261109"><ele>53.75</ele><time>2026-05-03T12:05:32.574Z</time></trkpt><trkpt lat="43.5454669" lon="10.5259571"><ele>54.5</ele><time>2026-05-03T12:05:33.572Z</time></trkpt><trkpt lat="43.5455437" lon="10.5258117"><ele>55.25</ele><time>2026-05-03T12:05:34.575Z</time></trkpt><trkpt lat="43.5456132" lon="10.52567"><ele>56.0</ele><time>2026-05-03T12:05:35.573Z</time></trkpt><trkpt lat="43.545672" lon="10.525523"><ele>51.75</ele><time>2026-05-03T12:05:36.573Z</time></trkpt><trkpt lat="43.5457116" lon="10.5253628"><ele>47.5</ele><time>2026-05-03T12:05:37.572Z</time></trkpt><trkpt lat="43.5457267" lon="10.5252088"><ele>43.25</ele><time>2026-05-03T12:05:38.573Z</time></trkpt><trkpt lat="43.5456992" lon="10.5250571"><ele>39.0</ele><time>2026-05-03T12:05:39.574Z</time></trkpt><trkpt lat="43.5456542" lon="10.5249179"><ele>39.0</ele><time>2026-05-03T12:05:40.573Z</time></trkpt><trkpt lat="43.5455816" lon="10.5248105"><ele>39.0</ele><time>2026-05-03T12:05:41.573Z</time></trkpt><trkpt lat="43.5454854" lon="10.5247375"><ele>39.0</ele><time>2026-05-03T12:05:42.574Z</time></trkpt><trkpt lat="43.5453757" lon="10.5246955"><ele>39.0</ele><time>2026-05-03T12:05:43.573Z</time></trkpt><trkpt lat="43.5452631" lon="10.524683"><ele>39.0</ele><time>2026-05-03T12:05:44.573Z</time></trkpt><trkpt lat="43.5451473" lon="10.5247131"><ele>38.75</ele><time>2026-05-03T12:05:45.572Z</time></trkpt><trkpt lat="43.5450298" lon="10.5247715"><ele>38.5</ele><time>2026-05-03T12:05:46.573Z</time></trkpt><trkpt lat="43.5449188" lon="10.5248414"><ele>38.25</ele><time>2026-05-03T12:05:47.574Z</time></trkpt><trkpt lat="43.5448068" lon="10.5249169"><ele>38.0</ele><time>2026-05-03T12:05:48.573Z</time></trkpt><trkpt lat="43.5446948" lon="10.5249891"><ele>38.0</ele><time>2026-05-03T12:05:49.572Z</time></trkpt><trkpt lat="43.5445844" lon="10.5250564"><ele>38.0</ele><time>2026-05-03T12:05:50.574Z</time></trkpt><trkpt lat="43.5444863" lon="10.5251161"><ele>38.0</ele><time>2026-05-03T12:05:51.573Z</time></trkpt><trkpt lat="43.5443926" lon="10.5251731"><ele>38.0</ele><time>2026-05-03T12:05:52.574Z</time></trkpt><trkpt lat="43.5443061" lon="10.5252262"><ele>38.0</ele><time>2026-05-03T12:05:53.573Z</time></trkpt><trkpt lat="43.5442325" lon="10.5252697"><ele>38.0</ele><time>2026-05-03T12:05:54.574Z</time></trkpt><trkpt lat="43.5441728" lon="10.5253071"><ele>38.0</ele><time>2026-05-03T12:05:55.573Z</time></trkpt><trkpt lat="43.5440907" lon="10.5253538"><ele>38.0</ele><time>2026-05-03T12:05:57.574Z</time></trkpt><trkpt lat="43.5440187" lon="10.5253851"><ele>38.0</ele><time>2026-05-03T12:06:01.573Z</time></trkpt><trkpt lat="43.543945" lon="10.5254159"><ele>38.0</ele><time>2026-05-03T12:06:06.573Z</time></trkpt><trkpt lat="43.5438886" lon="10.5254933"><ele>38.0</ele><time>2026-05-03T12:06:11.573Z</time></trkpt><trkpt lat="43.5438881" lon="10.5256751"><ele>38.42857142857142</ele><time>2026-05-03T12:06:13.573Z</time></trkpt><trkpt lat="43.5438987" lon="10.5257672"><ele>38.85714285714286</ele><time>2026-05-03T12:06:14.573Z</time></trkpt><trkpt lat="43.5439103" lon="10.5258569"><ele>39.285714285714285</ele><time>2026-05-03T12:06:15.574Z</time></trkpt><trkpt lat="43.543921" lon="10.5259432"><ele>39.71428571428571</ele><time>2026-05-03T12:06:16.573Z</time></trkpt><trkpt lat="43.5439297" lon="10.5260427"><ele>40.14285714285714</ele><time>2026-05-03T12:06:17.573Z</time></trkpt><trkpt lat="43.5439263" lon="10.5261462"><ele>40.57142857142857</ele><time>2026-05-03T12:06:18.573Z</time></trkpt><trkpt lat="43.5439102" lon="10.5262467"><ele>41.0</ele><time>2026-05-03T12:06:19.572Z</time></trkpt><trkpt lat="43.5438973" lon="10.5263454"><ele>41.199999999999996</ele><time>2026-05-03T12:06:20.573Z</time></trkpt><trkpt lat="43.5439054" lon="10.5264472"><ele>41.4</ele><time>2026-05-03T12:06:21.574Z</time></trkpt><trkpt lat="43.5439401" lon="10.5265587"><ele>41.6</ele><time>2026-05-03T12:06:22.574Z</time></trkpt><trkpt lat="43.5439863" lon="10.5266889"><ele>41.8</ele><time>2026-05-03T12:06:23.573Z</time></trkpt><trkpt lat="43.5440198" lon="10.5268602"><ele>42.0</ele><time>2026-05-03T12:06:24.574Z</time></trkpt><trkpt lat="43.5440466" lon="10.5270476"><ele>43.0</ele><time>2026-05-03T12:06:25.573Z</time></trkpt><trkpt lat="43.5440679" lon="10.5272686"><ele>44.0</ele><time>2026-05-03T12:06:26.574Z</time></trkpt><trkpt lat="43.5440922" lon="10.5275061"><ele>45.0</ele><time>2026-05-03T12:06:27.572Z</time></trkpt><trkpt lat="43.5441155" lon="10.5277559"><ele>46.0</ele><time>2026-05-03T12:06:28.573Z</time></trkpt><trkpt lat="43.5441371" lon="10.5280202"><ele>47.0</ele><time>2026-05-03T12:06:29.573Z</time></trkpt><trkpt lat="43.5441509" lon="10.5282709"><ele>48.0</ele><time>2026-05-03T12:06:30.572Z</time></trkpt><trkpt lat="43.5441685" lon="10.5285072"><ele>48.33333333333333</ele><time>2026-05-03T12:06:31.573Z</time></trkpt><trkpt lat="43.5441797" lon="10.5287291"><ele>48.666666666666664</ele><time>2026-05-03T12:06:32.573Z</time></trkpt><trkpt lat="43.5441742" lon="10.5289677"><ele>49.0</ele><time>2026-05-03T12:06:33.574Z</time></trkpt><trkpt lat="43.5441378" lon="10.5292109"><ele>49.0</ele><time>2026-05-03T12:06:34.572Z</time></trkpt><trkpt lat="43.5440974" lon="10.5294611"><ele>49.0</ele><time>2026-05-03T12:06:35.572Z</time></trkpt><trkpt lat="43.5440428" lon="10.5297163"><ele>49.0</ele><time>2026-05-03T12:06:36.573Z</time></trkpt><trkpt lat="43.5439865" lon="10.5299936"><ele>48.666666666666664</ele><time>2026-05-03T12:06:37.573Z</time></trkpt><trkpt lat="43.543938" lon="10.5302867"><ele>48.33333333333333</ele><time>2026-05-03T12:06:38.573Z</time></trkpt><trkpt lat="43.5438851" lon="10.5305843"><ele>48.0</ele><time>2026-05-03T12:06:39.573Z</time></trkpt><trkpt lat="43.5438286" lon="10.5308964"><ele>49.5</ele><time>2026-05-03T12:06:40.573Z</time></trkpt><trkpt lat="43.5437711" lon="10.5311998"><ele>51.0</ele><time>2026-05-03T12:06:41.575Z</time></trkpt><trkpt lat="43.543718" lon="10.5315223"><ele>49.5</ele><time>2026-05-03T12:06:42.573Z</time></trkpt><trkpt lat="43.5436594" lon="10.5318346"><ele>48.0</ele><time>2026-05-03T12:06:43.572Z</time></trkpt><trkpt lat="43.5435962" lon="10.5321535"><ele>48.0</ele><time>2026-05-03T12:06:44.574Z</time></trkpt><trkpt lat="43.5435354" lon="10.5324614"><ele>48.0</ele><time>2026-05-03T12:06:45.573Z</time></trkpt><trkpt lat="43.5434723" lon="10.5327672"><ele>50.0</ele><time>2026-05-03T12:06:46.573Z</time></trkpt><trkpt lat="43.5433978" lon="10.533059"><ele>52.0</ele><time>2026-05-03T12:06:47.572Z</time></trkpt><trkpt lat="43.5433067" lon="10.5333433"><ele>52.0</ele><time>2026-05-03T12:06:48.573Z</time></trkpt><trkpt lat="43.5431852" lon="10.5336066"><ele>52.0</ele><time>2026-05-03T12:06:49.572Z</time></trkpt><trkpt lat="43.543038" lon="10.5338486"><ele>51.0</ele><time>2026-05-03T12:06:50.573Z</time></trkpt><trkpt lat="43.5428733" lon="10.5340793"><ele>50.0</ele><time>2026-05-03T12:06:51.574Z</time></trkpt><trkpt lat="43.5426983" lon="10.534302"><ele>50.0</ele><time>2026-05-03T12:06:52.573Z</time></trkpt><trkpt lat="43.5425155" lon="10.5345253"><ele>50.0</ele><time>2026-05-03T12:06:53.572Z</time></trkpt><trkpt lat="43.5423408" lon="10.5347506"><ele>49.5</ele><time>2026-05-03T12:06:54.573Z</time></trkpt><trkpt lat="43.5421644" lon="10.534978"><ele>49.0</ele><time>2026-05-03T12:06:55.573Z</time></trkpt><trkpt lat="43.541981" lon="10.5351908"><ele>49.0</ele><time>2026-05-03T12:06:56.572Z</time></trkpt><trkpt lat="43.5417865" lon="10.5353831"><ele>49.0</ele><time>2026-05-03T12:06:57.574Z</time></trkpt><trkpt lat="43.5415777" lon="10.5355502"><ele>48.5</ele><time>2026-05-03T12:06:58.573Z</time></trkpt><trkpt lat="43.5413676" lon="10.5357042"><ele>48.0</ele><time>2026-05-03T12:06:59.574Z</time></trkpt><trkpt lat="43.5411549" lon="10.535852"><ele>48.0</ele><time>2026-05-03T12:07:00.572Z</time></trkpt><trkpt lat="43.5409439" lon="10.5359923"><ele>48.0</ele><time>2026-05-03T12:07:01.573Z</time></trkpt><trkpt lat="43.5407346" lon="10.536137"><ele>50.0</ele><time>2026-05-03T12:07:02.573Z</time></trkpt><trkpt lat="43.540519" lon="10.5362857"><ele>52.0</ele><time>2026-05-03T12:07:03.572Z</time></trkpt><trkpt lat="43.5403215" lon="10.5364241"><ele>52.0</ele><time>2026-05-03T12:07:04.572Z</time></trkpt><trkpt lat="43.5401139" lon="10.5365735"><ele>52.0</ele><time>2026-05-03T12:07:05.574Z</time></trkpt><trkpt lat="43.539908" lon="10.5367298"><ele>52.0</ele><time>2026-05-03T12:07:06.573Z</time></trkpt><trkpt lat="43.5397063" lon="10.5368868"><ele>52.0</ele><time>2026-05-03T12:07:07.575Z</time></trkpt><trkpt lat="43.5395025" lon="10.5370533"><ele>52.5</ele><time>2026-05-03T12:07:08.573Z</time></trkpt><trkpt lat="43.5393092" lon="10.5372249"><ele>53.0</ele><time>2026-05-03T12:07:09.573Z</time></trkpt><trkpt lat="43.5391155" lon="10.5374016"><ele>53.0</ele><time>2026-05-03T12:07:10.573Z</time></trkpt><trkpt lat="43.5389233" lon="10.5375797"><ele>53.0</ele><time>2026-05-03T12:07:11.573Z</time></trkpt><trkpt lat="43.5387373" lon="10.5377472"><ele>54.5</ele><time>2026-05-03T12:07:12.575Z</time></trkpt><trkpt lat="43.5385397" lon="10.5378968"><ele>56.0</ele><time>2026-05-03T12:07:13.572Z</time></trkpt><trkpt lat="43.5383342" lon="10.5380242"><ele>56.0</ele><time>2026-05-03T12:07:14.573Z</time></trkpt><trkpt lat="43.538122" lon="10.5381182"><ele>56.0</ele><time>2026-05-03T12:07:15.572Z</time></trkpt><trkpt lat="43.537906" lon="10.5381823"><ele>56.0</ele><time>2026-05-03T12:07:16.573Z</time></trkpt><trkpt lat="43.537687" lon="10.5382364"><ele>56.5</ele><time>2026-05-03T12:07:17.574Z</time></trkpt><trkpt lat="43.5374633" lon="10.53828"><ele>57.0</ele><time>2026-05-03T12:07:18.572Z</time></trkpt><trkpt lat="43.5372368" lon="10.5383175"><ele>58.5</ele><time>2026-05-03T12:07:19.573Z</time></trkpt><trkpt lat="43.5370115" lon="10.5383432"><ele>60.0</ele><time>2026-05-03T12:07:20.573Z</time></trkpt><trkpt lat="43.5367865" lon="10.5383655"><ele>60.0</ele><time>2026-05-03T12:07:21.573Z</time></trkpt><trkpt lat="43.5365577" lon="10.5383864"><ele>60.0</ele><time>2026-05-03T12:07:22.573Z</time></trkpt><trkpt lat="43.5363322" lon="10.5384109"><ele>60.5</ele><time>2026-05-03T12:07:23.573Z</time></trkpt><trkpt lat="43.5361028" lon="10.5384319"><ele>61.0</ele><time>2026-05-03T12:07:24.573Z</time></trkpt><trkpt lat="43.5358718" lon="10.538458"><ele>61.0</ele><time>2026-05-03T12:07:25.575Z</time></trkpt><trkpt lat="43.5356394" lon="10.5384838"><ele>61.0</ele><time>2026-05-03T12:07:26.574Z</time></trkpt><trkpt lat="43.5354038" lon="10.5385114"><ele>62.5</ele><time>2026-05-03T12:07:27.572Z</time></trkpt><trkpt lat="43.5351705" lon="10.5385385"><ele>64.0</ele><time>2026-05-03T12:07:28.573Z</time></trkpt><trkpt lat="43.5349364" lon="10.5385683"><ele>64.0</ele><time>2026-05-03T12:07:29.573Z</time></trkpt><trkpt lat="43.534706" lon="10.5385927"><ele>64.0</ele><time>2026-05-03T12:07:30.573Z</time></trkpt><trkpt lat="43.5344757" lon="10.5386177"><ele>65.0</ele><time>2026-05-03T12:07:31.573Z</time></trkpt><trkpt lat="43.5342469" lon="10.538658"><ele>66.0</ele><time>2026-05-03T12:07:32.574Z</time></trkpt><trkpt lat="43.5340277" lon="10.5387162"><ele>68.5</ele><time>2026-05-03T12:07:33.573Z</time></trkpt><trkpt lat="43.5338047" lon="10.5387951"><ele>71.0</ele><time>2026-05-03T12:07:34.574Z</time></trkpt><trkpt lat="43.5335881" lon="10.5389005"><ele>71.5</ele><time>2026-05-03T12:07:35.572Z</time></trkpt><trkpt lat="43.533374" lon="10.5390232"><ele>72.0</ele><time>2026-05-03T12:07:36.573Z</time></trkpt><trkpt lat="43.5331572" lon="10.539156"><ele>72.0</ele><time>2026-05-03T12:07:37.573Z</time></trkpt><trkpt lat="43.532949" lon="10.5392845"><ele>72.0</ele><time>2026-05-03T12:07:38.574Z</time></trkpt><trkpt lat="43.5327391" lon="10.5394094"><ele>72.5</ele><time>2026-05-03T12:07:39.573Z</time></trkpt><trkpt lat="43.5325287" lon="10.5395347"><ele>73.0</ele><time>2026-05-03T12:07:40.574Z</time></trkpt><trkpt lat="43.5323156" lon="10.5396614"><ele>73.0</ele><time>2026-05-03T12:07:41.573Z</time></trkpt><trkpt lat="43.532107" lon="10.5397891"><ele>73.0</ele><time>2026-05-03T12:07:42.574Z</time></trkpt><trkpt lat="43.5319002" lon="10.5399153"><ele>72.66666666666666</ele><time>2026-05-03T12:07:43.572Z</time></trkpt><trkpt lat="43.5316944" lon="10.5400339"><ele>72.33333333333333</ele><time>2026-05-03T12:07:44.574Z</time></trkpt><trkpt lat="43.5314877" lon="10.5401527"><ele>72.0</ele><time>2026-05-03T12:07:45.573Z</time></trkpt><trkpt lat="43.5312859" lon="10.5402613"><ele>72.0</ele><time>2026-05-03T12:07:46.573Z</time></trkpt><trkpt lat="43.5310965" lon="10.5403751"><ele>72.0</ele><time>2026-05-03T12:07:47.574Z</time></trkpt><trkpt lat="43.5309096" lon="10.5404741"><ele>72.0</ele><time>2026-05-03T12:07:48.573Z</time></trkpt><trkpt lat="43.5307382" lon="10.5405498"><ele>72.0</ele><time>2026-05-03T12:07:49.573Z</time></trkpt><trkpt lat="43.5305737" lon="10.5405706"><ele>72.0</ele><time>2026-05-03T12:07:50.573Z</time></trkpt><trkpt lat="43.5304256" lon="10.5405569"><ele>72.0</ele><time>2026-05-03T12:07:51.574Z</time></trkpt><trkpt lat="43.5302788" lon="10.5405257"><ele>73.5</ele><time>2026-05-03T12:07:52.573Z</time></trkpt><trkpt lat="43.5301396" lon="10.5405309"><ele>75.0</ele><time>2026-05-03T12:07:53.573Z</time></trkpt><trkpt lat="43.5300057" lon="10.5406066"><ele>76.5</ele><time>2026-05-03T12:07:54.573Z</time></trkpt><trkpt lat="43.5298826" lon="10.5407158"><ele>78.0</ele><time>2026-05-03T12:07:55.573Z</time></trkpt><trkpt lat="43.5297501" lon="10.5408553"><ele>78.0</ele><time>2026-05-03T12:07:56.573Z</time></trkpt><trkpt lat="43.5296134" lon="10.5409962"><ele>78.0</ele><time>2026-05-03T12:07:57.573Z</time></trkpt><trkpt lat="43.5294805" lon="10.5411293"><ele>78.0</ele><time>2026-05-03T12:07:58.574Z</time></trkpt><trkpt lat="43.5293476" lon="10.5412596"><ele>78.75</ele><time>2026-05-03T12:07:59.572Z</time></trkpt><trkpt lat="43.5292382" lon="10.5413973"><ele>79.5</ele><time>2026-05-03T12:08:00.572Z</time></trkpt><trkpt lat="43.5291496" lon="10.5415521"><ele>80.25</ele><time>2026-05-03T12:08:01.573Z</time></trkpt><trkpt lat="43.5290921" lon="10.5417324"><ele>81.0</ele><time>2026-05-03T12:08:02.573Z</time></trkpt><trkpt lat="43.5290572" lon="10.5419423"><ele>82.33333333333333</ele><time>2026-05-03T12:08:03.573Z</time></trkpt><trkpt lat="43.5290485" lon="10.5421567"><ele>83.66666666666666</ele><time>2026-05-03T12:08:04.573Z</time></trkpt><trkpt lat="43.5290495" lon="10.5423957"><ele>85.0</ele><time>2026-05-03T12:08:05.573Z</time></trkpt><trkpt lat="43.5290518" lon="10.5426542"><ele>85.66666666666666</ele><time>2026-05-03T12:08:06.572Z</time></trkpt><trkpt lat="43.5290471" lon="10.5429283"><ele>86.33333333333333</ele><time>2026-05-03T12:08:07.573Z</time></trkpt><trkpt lat="43.5290355" lon="10.5432068"><ele>87.0</ele><time>2026-05-03T12:08:08.573Z</time></trkpt><trkpt lat="43.5290058" lon="10.5434766"><ele>88.0</ele><time>2026-05-03T12:08:09.573Z</time></trkpt><trkpt lat="43.5289659" lon="10.5437348"><ele>89.0</ele><time>2026-05-03T12:08:10.574Z</time></trkpt><trkpt lat="43.5289278" lon="10.5439803"><ele>90.0</ele><time>2026-05-03T12:08:11.573Z</time></trkpt><trkpt lat="43.5288772" lon="10.5442177"><ele>90.0</ele><time>2026-05-03T12:08:12.573Z</time></trkpt><trkpt lat="43.5288" lon="10.5444336"><ele>90.0</ele><time>2026-05-03T12:08:13.572Z</time></trkpt><trkpt lat="43.528698" lon="10.544633"><ele>90.0</ele><time>2026-05-03T12:08:14.573Z</time></trkpt><trkpt lat="43.5285847" lon="10.5448279"><ele>90.33333333333333</ele><time>2026-05-03T12:08:15.575Z</time></trkpt><trkpt lat="43.5284503" lon="10.5450265"><ele>90.66666666666666</ele><time>2026-05-03T12:08:16.573Z</time></trkpt><trkpt lat="43.5283222" lon="10.5452326"><ele>91.0</ele><time>2026-05-03T12:08:17.574Z</time></trkpt><trkpt lat="43.528191" lon="10.5454407"><ele>91.0</ele><time>2026-05-03T12:08:18.572Z</time></trkpt><trkpt lat="43.5280698" lon="10.545655"><ele>91.0</ele><time>2026-05-03T12:08:19.573Z</time></trkpt><trkpt lat="43.5279643" lon="10.5458751"><ele>91.0</ele><time>2026-05-03T12:08:20.573Z</time></trkpt><trkpt lat="43.527875" lon="10.5461023"><ele>94.66666666666666</ele><time>2026-05-03T12:08:21.572Z</time></trkpt><trkpt lat="43.5277983" lon="10.5463329"><ele>98.33333333333333</ele><time>2026-05-03T12:08:22.573Z</time></trkpt><trkpt lat="43.5277325" lon="10.546559"><ele>102.0</ele><time>2026-05-03T12:08:23.572Z</time></trkpt><trkpt lat="43.5276769" lon="10.5467674"><ele>102.0</ele><time>2026-05-03T12:08:24.573Z</time></trkpt><trkpt lat="43.5276324" lon="10.5469595"><ele>102.0</ele><time>2026-05-03T12:08:25.572Z</time></trkpt><trkpt lat="43.5276134" lon="10.5471397"><ele>102.0</ele><time>2026-05-03T12:08:26.574Z</time></trkpt><trkpt lat="43.5276962" lon="10.5474668"><ele>102.33333333333334</ele><time>2026-05-03T12:08:28.574Z</time></trkpt><trkpt lat="43.5277884" lon="10.5476085"><ele>102.66666666666667</ele><time>2026-05-03T12:08:29.572Z</time></trkpt><trkpt lat="43.527911" lon="10.5477346"><ele>103.0</ele><time>2026-05-03T12:08:30.572Z</time></trkpt><trkpt lat="43.528048" lon="10.5478678"><ele>103.33333333333334</ele><time>2026-05-03T12:08:31.573Z</time></trkpt><trkpt lat="43.5281719" lon="10.5480069"><ele>103.66666666666666</ele><time>2026-05-03T12:08:32.573Z</time></trkpt><trkpt lat="43.5282864" lon="10.5481761"><ele>104.0</ele><time>2026-05-03T12:08:33.573Z</time></trkpt><trkpt lat="43.5283869" lon="10.5483785"><ele>104.0</ele><time>2026-05-03T12:08:34.573Z</time></trkpt><trkpt lat="43.5284862" lon="10.5485945"><ele>104.0</ele><time>2026-05-03T12:08:35.574Z</time></trkpt><trkpt lat="43.5285911" lon="10.5488198"><ele>104.0</ele><time>2026-05-03T12:08:36.573Z</time></trkpt><trkpt lat="43.5286976" lon="10.5490518"><ele>102.33333333333333</ele><time>2026-05-03T12:08:37.573Z</time></trkpt><trkpt lat="43.5287986" lon="10.5492927"><ele>100.66666666666666</ele><time>2026-05-03T12:08:38.574Z</time></trkpt><trkpt lat="43.5288894" lon="10.5495288"><ele>99.0</ele><time>2026-05-03T12:08:39.573Z</time></trkpt><trkpt lat="43.5289695" lon="10.5497484"><ele>99.0</ele><time>2026-05-03T12:08:40.573Z</time></trkpt><trkpt lat="43.5290345" lon="10.5499499"><ele>99.0</ele><time>2026-05-03T12:08:41.573Z</time></trkpt><trkpt lat="43.5290847" lon="10.5501307"><ele>99.0</ele><time>2026-05-03T12:08:42.574Z</time></trkpt><trkpt lat="43.529107" lon="10.5503124"><ele>99.0</ele><time>2026-05-03T12:08:43.573Z</time></trkpt><trkpt lat="43.5290943" lon="10.5504693"><ele>99.2</ele><time>2026-05-03T12:08:44.573Z</time></trkpt><trkpt lat="43.5290429" lon="10.5505864"><ele>99.4</ele><time>2026-05-03T12:08:45.572Z</time></trkpt><trkpt lat="43.528965" lon="10.5506632"><ele>99.6</ele><time>2026-05-03T12:08:46.573Z</time></trkpt><trkpt lat="43.5288648" lon="10.5506928"><ele>99.8</ele><time>2026-05-03T12:08:47.572Z</time></trkpt><trkpt lat="43.5287433" lon="10.5506952"><ele>100.0</ele><time>2026-05-03T12:08:48.573Z</time></trkpt><trkpt lat="43.5286116" lon="10.5506699"><ele>101.0</ele><time>2026-05-03T12:08:49.574Z</time></trkpt><trkpt lat="43.528488" lon="10.5506431"><ele>102.0</ele><time>2026-05-03T12:08:50.573Z</time></trkpt><trkpt lat="43.5283736" lon="10.5506467"><ele>103.0</ele><time>2026-05-03T12:08:51.573Z</time></trkpt><trkpt lat="43.5282649" lon="10.5506957"><ele>104.0</ele><time>2026-05-03T12:08:52.573Z</time></trkpt><trkpt lat="43.5281668" lon="10.5507735"><ele>104.0</ele><time>2026-05-03T12:08:53.573Z</time></trkpt><trkpt lat="43.5281112" lon="10.5509453"><ele>104.0</ele><time>2026-05-03T12:08:54.573Z</time></trkpt><trkpt lat="43.5280851" lon="10.5511123"><ele>104.0</ele><time>2026-05-03T12:08:55.573Z</time></trkpt><trkpt lat="43.5280913" lon="10.5512841"><ele>104.0</ele><time>2026-05-03T12:08:56.573Z</time></trkpt><trkpt lat="43.528142" lon="10.551456"><ele>103.0</ele><time>2026-05-03T12:08:57.573Z</time></trkpt><trkpt lat="43.5282108" lon="10.5516432"><ele>102.0</ele><time>2026-05-03T12:08:58.572Z</time></trkpt><trkpt lat="43.5282819" lon="10.5518359"><ele>101.0</ele><time>2026-05-03T12:08:59.573Z</time></trkpt><trkpt lat="43.5283408" lon="10.5520158"><ele>100.75</ele><time>2026-05-03T12:09:00.573Z</time></trkpt><trkpt lat="43.5283675" lon="10.5521955"><ele>100.5</ele><time>2026-05-03T12:09:01.574Z</time></trkpt><trkpt lat="43.528354" lon="10.5523712"><ele>100.25</ele><time>2026-05-03T12:09:02.573Z</time></trkpt><trkpt lat="43.5283008" lon="10.552543"><ele>100.0</ele><time>2026-05-03T12:09:03.573Z</time></trkpt><trkpt lat="43.5282125" lon="10.5527005"><ele>100.0</ele><time>2026-05-03T12:09:04.573Z</time></trkpt><trkpt lat="43.528099" lon="10.5528304"><ele>100.0</ele><time>2026-05-03T12:09:05.573Z</time></trkpt><trkpt lat="43.5279664" lon="10.5529214"><ele>100.0</ele><time>2026-05-03T12:09:06.572Z</time></trkpt><trkpt lat="43.5278131" lon="10.5529651"><ele>100.25</ele><time>2026-05-03T12:09:07.574Z</time></trkpt><trkpt lat="43.5276643" lon="10.5529694"><ele>100.5</ele><time>2026-05-03T12:09:08.572Z</time></trkpt><trkpt lat="43.5275217" lon="10.5529649"><ele>100.75</ele><time>2026-05-03T12:09:09.573Z</time></trkpt><trkpt lat="43.5273763" lon="10.5529976"><ele>101.0</ele><time>2026-05-03T12:09:10.574Z</time></trkpt><trkpt lat="43.5272378" lon="10.553071"><ele>101.0</ele><time>2026-05-03T12:09:11.573Z</time></trkpt><trkpt lat="43.5271055" lon="10.5531762"><ele>101.0</ele><time>2026-05-03T12:09:12.574Z</time></trkpt><trkpt lat="43.5269786" lon="10.5533066"><ele>101.0</ele><time>2026-05-03T12:09:13.572Z</time></trkpt><trkpt lat="43.5268517" lon="10.5534161"><ele>102.0</ele><time>2026-05-03T12:09:14.573Z</time></trkpt><trkpt lat="43.5267226" lon="10.553487"><ele>103.0</ele><time>2026-05-03T12:09:15.572Z</time></trkpt><trkpt lat="43.5265834" lon="10.5535413"><ele>104.0</ele><time>2026-05-03T12:09:16.573Z</time></trkpt><trkpt lat="43.5264316" lon="10.5534832"><ele>105.0</ele><time>2026-05-03T12:09:17.573Z</time></trkpt><trkpt lat="43.5262689" lon="10.553437"><ele>104.33333333333334</ele><time>2026-05-03T12:09:18.572Z</time></trkpt><trkpt lat="43.5260968" lon="10.5534097"><ele>103.66666666666667</ele><time>2026-05-03T12:09:19.572Z</time></trkpt><trkpt lat="43.5259199" lon="10.5534009"><ele>103.0</ele><time>2026-05-03T12:09:20.572Z</time></trkpt><trkpt lat="43.5257352" lon="10.5534102"><ele>103.0</ele><time>2026-05-03T12:09:21.574Z</time></trkpt><trkpt lat="43.5255594" lon="10.5534392"><ele>103.0</ele><time>2026-05-03T12:09:22.573Z</time></trkpt><trkpt lat="43.5253989" lon="10.5534706"><ele>103.0</ele><time>2026-05-03T12:09:23.573Z</time></trkpt><trkpt lat="43.5252548" lon="10.5535009"><ele>101.5</ele><time>2026-05-03T12:09:24.573Z</time></trkpt><trkpt lat="43.5251278" lon="10.5535423"><ele>100.0</ele><time>2026-05-03T12:09:25.573Z</time></trkpt><trkpt lat="43.5250208" lon="10.5536003"><ele>98.5</ele><time>2026-05-03T12:09:26.573Z</time></trkpt><trkpt lat="43.5249359" lon="10.5536871"><ele>97.0</ele><time>2026-05-03T12:09:27.573Z</time></trkpt><trkpt lat="43.5248771" lon="10.553803"><ele>96.25</ele><time>2026-05-03T12:09:28.573Z</time></trkpt><trkpt lat="43.5248451" lon="10.5539497"><ele>95.5</ele><time>2026-05-03T12:09:29.573Z</time></trkpt><trkpt lat="43.524841" lon="10.55412"><ele>94.75</ele><time>2026-05-03T12:09:30.573Z</time></trkpt><trkpt lat="43.5248434" lon="10.5543155"><ele>94.0</ele><time>2026-05-03T12:09:31.573Z</time></trkpt><trkpt lat="43.5248231" lon="10.5545234"><ele>92.66666666666666</ele><time>2026-05-03T12:09:32.573Z</time></trkpt><trkpt lat="43.524774" lon="10.5547452"><ele>91.33333333333333</ele><time>2026-05-03T12:09:33.573Z</time></trkpt><trkpt lat="43.5247109" lon="10.5549662"><ele>90.0</ele><time>2026-05-03T12:09:34.573Z</time></trkpt><trkpt lat="43.52466" lon="10.5551767"><ele>89.75</ele><time>2026-05-03T12:09:35.573Z</time></trkpt><trkpt lat="43.5246405" lon="10.5553837"><ele>89.5</ele><time>2026-05-03T12:09:36.572Z</time></trkpt><trkpt lat="43.5246416" lon="10.5555854"><ele>89.25</ele><time>2026-05-03T12:09:37.573Z</time></trkpt><trkpt lat="43.5246287" lon="10.5557821"><ele>89.0</ele><time>2026-05-03T12:09:38.573Z</time></trkpt><trkpt lat="43.5245937" lon="10.5559758"><ele>91.0</ele><time>2026-05-03T12:09:39.573Z</time></trkpt><trkpt lat="43.5245541" lon="10.5561594"><ele>93.0</ele><time>2026-05-03T12:09:40.574Z</time></trkpt><trkpt lat="43.5245233" lon="10.5563317"><ele>95.0</ele><time>2026-05-03T12:09:41.574Z</time></trkpt><trkpt lat="43.5245017" lon="10.5564978"><ele>97.0</ele><time>2026-05-03T12:09:42.573Z</time></trkpt><trkpt lat="43.5244961" lon="10.5566517"><ele>97.0</ele><time>2026-05-03T12:09:43.572Z</time></trkpt><trkpt lat="43.5245141" lon="10.5567948"><ele>97.0</ele><time>2026-05-03T12:09:44.573Z</time></trkpt><trkpt lat="43.524552" lon="10.5569101"><ele>97.0</ele><time>2026-05-03T12:09:45.574Z</time></trkpt><trkpt lat="43.5246212" lon="10.5569987"><ele>97.0</ele><time>2026-05-03T12:09:46.573Z</time></trkpt><trkpt lat="43.5247158" lon="10.5570408"><ele>97.0</ele><time>2026-05-03T12:09:47.573Z</time></trkpt><trkpt lat="43.5248247" lon="10.5570332"><ele>95.5</ele><time>2026-05-03T12:09:48.573Z</time></trkpt><trkpt lat="43.5249256" lon="10.5569709"><ele>94.0</ele><time>2026-05-03T12:09:49.573Z</time></trkpt><trkpt lat="43.5250019" lon="10.5568618"><ele>92.5</ele><time>2026-05-03T12:09:50.573Z</time></trkpt><trkpt lat="43.5250537" lon="10.5567053"><ele>91.0</ele><time>2026-05-03T12:09:51.574Z</time></trkpt><trkpt lat="43.5250939" lon="10.5565217"><ele>91.0</ele><time>2026-05-03T12:09:52.573Z</time></trkpt><trkpt lat="43.5251463" lon="10.5563379"><ele>91.0</ele><time>2026-05-03T12:09:53.573Z</time></trkpt><trkpt lat="43.5252242" lon="10.556177"><ele>91.0</ele><time>2026-05-03T12:09:54.573Z</time></trkpt><trkpt lat="43.5253151" lon="10.5560552"><ele>91.0</ele><time>2026-05-03T12:09:55.572Z</time></trkpt><trkpt lat="43.5254292" lon="10.5559749"><ele>89.75</ele><time>2026-05-03T12:09:56.573Z</time></trkpt><trkpt lat="43.5255618" lon="10.5559383"><ele>88.5</ele><time>2026-05-03T12:09:57.573Z</time></trkpt><trkpt lat="43.5257029" lon="10.5559414"><ele>87.25</ele><time>2026-05-03T12:09:58.573Z</time></trkpt><trkpt lat="43.5258575" lon="10.5559928"><ele>86.0</ele><time>2026-05-03T12:09:59.574Z</time></trkpt><trkpt lat="43.5260052" lon="10.5560614"><ele>86.0</ele><time>2026-05-03T12:10:00.573Z</time></trkpt><trkpt lat="43.5261538" lon="10.5561295"><ele>86.0</ele><time>2026-05-03T12:10:01.573Z</time></trkpt><trkpt lat="43.5262992" lon="10.5561965"><ele>86.0</ele><time>2026-05-03T12:10:02.574Z</time></trkpt><trkpt lat="43.5264299" lon="10.5562578"><ele>86.0</ele><time>2026-05-03T12:10:03.573Z</time></trkpt><trkpt lat="43.5265497" lon="10.556325"><ele>86.0</ele><time>2026-05-03T12:10:04.573Z</time></trkpt><trkpt lat="43.5266536" lon="10.5564112"><ele>86.0</ele><time>2026-05-03T12:10:05.573Z</time></trkpt><trkpt lat="43.5267307" lon="10.5565198"><ele>86.0</ele><time>2026-05-03T12:10:06.573Z</time></trkpt><trkpt lat="43.5267861" lon="10.5566479"><ele>86.0</ele><time>2026-05-03T12:10:07.574Z</time></trkpt><trkpt lat="43.5268119" lon="10.5567872"><ele>86.0</ele><time>2026-05-03T12:10:08.571Z</time></trkpt><trkpt lat="43.5268154" lon="10.5569323"><ele>86.19999999999999</ele><time>2026-05-03T12:10:09.573Z</time></trkpt><trkpt lat="43.526809" lon="10.5570818"><ele>86.39999999999999</ele><time>2026-05-03T12:10:10.572Z</time></trkpt><trkpt lat="43.5267941" lon="10.5572273"><ele>86.6</ele><time>2026-05-03T12:10:11.573Z</time></trkpt><trkpt lat="43.5267788" lon="10.5573741"><ele>86.8</ele><time>2026-05-03T12:10:12.572Z</time></trkpt><trkpt lat="43.5267617" lon="10.5575132"><ele>87.0</ele><time>2026-05-03T12:10:13.573Z</time></trkpt><trkpt lat="43.5267498" lon="10.5576611"><ele>87.0</ele><time>2026-05-03T12:10:14.573Z</time></trkpt><trkpt lat="43.5267363" lon="10.5578121"><ele>87.0</ele><time>2026-05-03T12:10:15.572Z</time></trkpt><trkpt lat="43.5267227" lon="10.5579627"><ele>87.0</ele><time>2026-05-03T12:10:16.573Z</time></trkpt><trkpt lat="43.5267106" lon="10.5581191"><ele>87.0</ele><time>2026-05-03T12:10:17.573Z</time></trkpt><trkpt lat="43.5266948" lon="10.5582615"><ele>87.0</ele><time>2026-05-03T12:10:18.572Z</time></trkpt><trkpt lat="43.5266849" lon="10.558403"><ele>86.39999999999999</ele><time>2026-05-03T12:10:19.573Z</time></trkpt><trkpt lat="43.5266969" lon="10.558546"><ele>85.8</ele><time>2026-05-03T12:10:20.573Z</time></trkpt><trkpt lat="43.526732" lon="10.5586763"><ele>85.2</ele><time>2026-05-03T12:10:21.572Z</time></trkpt><trkpt lat="43.5267905" lon="10.5587798"><ele>84.6</ele><time>2026-05-03T12:10:22.573Z</time></trkpt><trkpt lat="43.5268776" lon="10.5588589"><ele>84.0</ele><time>2026-05-03T12:10:23.573Z</time></trkpt><trkpt lat="43.5269926" lon="10.5589231"><ele>82.66666666666667</ele><time>2026-05-03T12:10:24.573Z</time></trkpt><trkpt lat="43.5271313" lon="10.5590079"><ele>81.33333333333334</ele><time>2026-05-03T12:10:25.572Z</time></trkpt><trkpt lat="43.52728" lon="10.5591256"><ele>80.0</ele><time>2026-05-03T12:10:26.573Z</time></trkpt><trkpt lat="43.5274326" lon="10.5592383"><ele>80.0</ele><time>2026-05-03T12:10:27.573Z</time></trkpt><trkpt lat="43.5275952" lon="10.5593445"><ele>80.0</ele><time>2026-05-03T12:10:28.572Z</time></trkpt><trkpt lat="43.5277446" lon="10.5594676"><ele>80.0</ele><time>2026-05-03T12:10:29.573Z</time></trkpt><trkpt lat="43.5278679" lon="10.5596113"><ele>83.0</ele><time>2026-05-03T12:10:30.573Z</time></trkpt><trkpt lat="43.5279606" lon="10.5597969"><ele>86.0</ele><time>2026-05-03T12:10:31.573Z</time></trkpt><trkpt lat="43.5280513" lon="10.5600076"><ele>89.0</ele><time>2026-05-03T12:10:32.573Z</time></trkpt><trkpt lat="43.5281451" lon="10.5602177"><ele>88.0</ele><time>2026-05-03T12:10:33.573Z</time></trkpt><trkpt lat="43.5282489" lon="10.5604235"><ele>87.0</ele><time>2026-05-03T12:10:34.573Z</time></trkpt><trkpt lat="43.5283469" lon="10.5606102"><ele>86.0</ele><time>2026-05-03T12:10:35.573Z</time></trkpt><trkpt lat="43.5284503" lon="10.5607669"><ele>86.0</ele><time>2026-05-03T12:10:36.573Z</time></trkpt><trkpt lat="43.528569" lon="10.5608908"><ele>86.0</ele><time>2026-05-03T12:10:37.573Z</time></trkpt><trkpt lat="43.5287017" lon="10.5609858"><ele>86.0</ele><time>2026-05-03T12:10:38.572Z</time></trkpt><trkpt lat="43.5288332" lon="10.5610861"><ele>86.0</ele><time>2026-05-03T12:10:39.573Z</time></trkpt><trkpt lat="43.5289409" lon="10.5612197"><ele>88.66666666666667</ele><time>2026-05-03T12:10:40.572Z</time></trkpt><trkpt lat="43.5290283" lon="10.5613926"><ele>91.33333333333333</ele><time>2026-05-03T12:10:41.572Z</time></trkpt><trkpt lat="43.5291006" lon="10.5615933"><ele>94.0</ele><time>2026-05-03T12:10:42.572Z</time></trkpt><trkpt lat="43.5291658" lon="10.5618101"><ele>93.66666666666666</ele><time>2026-05-03T12:10:43.574Z</time></trkpt><trkpt lat="43.5292175" lon="10.5620325"><ele>93.33333333333333</ele><time>2026-05-03T12:10:44.573Z</time></trkpt><trkpt lat="43.5292604" lon="10.5622445"><ele>93.0</ele><time>2026-05-03T12:10:45.572Z</time></trkpt><trkpt lat="43.5293149" lon="10.5624326"><ele>93.0</ele><time>2026-05-03T12:10:46.572Z</time></trkpt><trkpt lat="43.52939" lon="10.5625865"><ele>93.0</ele><time>2026-05-03T12:10:47.571Z</time></trkpt><trkpt lat="43.5294903" lon="10.5627295"><ele>93.0</ele><time>2026-05-03T12:10:48.573Z</time></trkpt><trkpt lat="43.5296237" lon="10.5628584"><ele>93.0</ele><time>2026-05-03T12:10:49.573Z</time></trkpt><trkpt lat="43.5297702" lon="10.5629708"><ele>94.66666666666666</ele><time>2026-05-03T12:10:50.573Z</time></trkpt><trkpt lat="43.529927" lon="10.5630669"><ele>96.33333333333333</ele><time>2026-05-03T12:10:51.573Z</time></trkpt><trkpt lat="43.5300971" lon="10.5631523"><ele>98.0</ele><time>2026-05-03T12:10:52.573Z</time></trkpt><trkpt lat="43.5302775" lon="10.5632356"><ele>99.66666666666666</ele><time>2026-05-03T12:10:53.573Z</time></trkpt><trkpt lat="43.5304614" lon="10.5633241"><ele>101.33333333333334</ele><time>2026-05-03T12:10:54.573Z</time></trkpt><trkpt lat="43.5306421" lon="10.5634141"><ele>103.0</ele><time>2026-05-03T12:10:55.573Z</time></trkpt><trkpt lat="43.5308178" lon="10.5635156"><ele>103.0</ele><time>2026-05-03T12:10:56.571Z</time></trkpt><trkpt lat="43.530975" lon="10.5636508"><ele>103.0</ele><time>2026-05-03T12:10:57.572Z</time></trkpt><trkpt lat="43.5311167" lon="10.5638212"><ele>103.0</ele><time>2026-05-03T12:10:58.572Z</time></trkpt><trkpt lat="43.5312444" lon="10.5640314"><ele>104.0</ele><time>2026-05-03T12:10:59.573Z</time></trkpt><trkpt lat="43.531374" lon="10.5642724"><ele>105.0</ele><time>2026-05-03T12:11:00.572Z</time></trkpt><trkpt lat="43.5315175" lon="10.5645275"><ele>106.0</ele><time>2026-05-03T12:11:01.573Z</time></trkpt><trkpt lat="43.5316644" lon="10.5647884"><ele>107.0</ele><time>2026-05-03T12:11:02.572Z</time></trkpt><trkpt lat="43.5318124" lon="10.5650549"><ele>107.0</ele><time>2026-05-03T12:11:03.574Z</time></trkpt><trkpt lat="43.5319494" lon="10.5653064"><ele>107.0</ele><time>2026-05-03T12:11:04.573Z</time></trkpt><trkpt lat="43.5320752" lon="10.5655388"><ele>107.0</ele><time>2026-05-03T12:11:05.572Z</time></trkpt><trkpt lat="43.5321966" lon="10.5657578"><ele>108.66666666666666</ele><time>2026-05-03T12:11:06.573Z</time></trkpt><trkpt lat="43.5323159" lon="10.5659723"><ele>110.33333333333334</ele><time>2026-05-03T12:11:07.574Z</time></trkpt><trkpt lat="43.5324214" lon="10.5661991"><ele>112.0</ele><time>2026-05-03T12:11:08.572Z</time></trkpt><trkpt lat="43.5325005" lon="10.5664515"><ele>112.33333333333334</ele><time>2026-05-03T12:11:09.573Z</time></trkpt><trkpt lat="43.5325543" lon="10.5667214"><ele>112.66666666666666</ele><time>2026-05-03T12:11:10.572Z</time></trkpt><trkpt lat="43.5325836" lon="10.5669958"><ele>113.0</ele><time>2026-05-03T12:11:11.573Z</time></trkpt><trkpt lat="43.5325948" lon="10.567271"><ele>114.33333333333333</ele><time>2026-05-03T12:11:12.571Z</time></trkpt><trkpt lat="43.5325932" lon="10.5675369"><ele>115.66666666666666</ele><time>2026-05-03T12:11:13.574Z</time></trkpt><trkpt lat="43.5325702" lon="10.5677798"><ele>117.0</ele><time>2026-05-03T12:11:14.573Z</time></trkpt><trkpt lat="43.5325268" lon="10.5680012"><ele>118.0</ele><time>2026-05-03T12:11:15.572Z</time></trkpt><trkpt lat="43.5324551" lon="10.5681889"><ele>119.0</ele><time>2026-05-03T12:11:16.572Z</time></trkpt><trkpt lat="43.5323421" lon="10.5683486"><ele>120.0</ele><time>2026-05-03T12:11:17.573Z</time></trkpt><trkpt lat="43.5322172" lon="10.5684933"><ele>120.0</ele><time>2026-05-03T12:11:18.572Z</time></trkpt><trkpt lat="43.5320606" lon="10.5686302"><ele>120.0</ele><time>2026-05-03T12:11:19.572Z</time></trkpt><trkpt lat="43.5319077" lon="10.5687836"><ele>120.0</ele><time>2026-05-03T12:11:20.573Z</time></trkpt><trkpt lat="43.5317637" lon="10.5689244"><ele>122.75</ele><time>2026-05-03T12:11:21.573Z</time></trkpt><trkpt lat="43.5316309" lon="10.5690495"><ele>125.5</ele><time>2026-05-03T12:11:22.572Z</time></trkpt><trkpt lat="43.5315046" lon="10.5691496"><ele>128.25</ele><time>2026-05-03T12:11:23.572Z</time></trkpt><trkpt lat="43.5313779" lon="10.5692133"><ele>131.0</ele><time>2026-05-03T12:11:24.574Z</time></trkpt><trkpt lat="43.5312555" lon="10.5692236"><ele>132.25</ele><time>2026-05-03T12:11:25.573Z</time></trkpt><trkpt lat="43.5311442" lon="10.5691678"><ele>133.5</ele><time>2026-05-03T12:11:26.572Z</time></trkpt><trkpt lat="43.5310393" lon="10.5690621"><ele>134.75</ele><time>2026-05-03T12:11:27.573Z</time></trkpt><trkpt lat="43.5309431" lon="10.5689245"><ele>136.0</ele><time>2026-05-03T12:11:28.573Z</time></trkpt><trkpt lat="43.5308474" lon="10.5687793"><ele>135.75</ele><time>2026-05-03T12:11:29.573Z</time></trkpt><trkpt lat="43.530738" lon="10.5686616"><ele>135.5</ele><time>2026-05-03T12:11:30.572Z</time></trkpt><trkpt lat="43.5306245" lon="10.5685784"><ele>135.25</ele><time>2026-05-03T12:11:31.574Z</time></trkpt><trkpt lat="43.5305009" lon="10.5685249"><ele>135.0</ele><time>2026-05-03T12:11:32.573Z</time></trkpt><trkpt lat="43.5303769" lon="10.5685036"><ele>135.0</ele><time>2026-05-03T12:11:33.573Z</time></trkpt><trkpt lat="43.5302619" lon="10.5685158"><ele>135.0</ele><time>2026-05-03T12:11:34.574Z</time></trkpt><trkpt lat="43.5301552" lon="10.5685605"><ele>135.0</ele><time>2026-05-03T12:11:35.573Z</time></trkpt><trkpt lat="43.5300655" lon="10.5686224"><ele>135.0</ele><time>2026-05-03T12:11:36.573Z</time></trkpt><trkpt lat="43.5300017" lon="10.5687848"><ele>135.25</ele><time>2026-05-03T12:11:37.573Z</time></trkpt><trkpt lat="43.5299662" lon="10.5689483"><ele>135.5</ele><time>2026-05-03T12:11:38.573Z</time></trkpt><trkpt lat="43.5299604" lon="10.5691242"><ele>135.75</ele><time>2026-05-03T12:11:39.573Z</time></trkpt><trkpt lat="43.5299881" lon="10.5693138"><ele>136.0</ele><time>2026-05-03T12:11:40.571Z</time></trkpt><trkpt lat="43.5300431" lon="10.569523"><ele>136.66666666666669</ele><time>2026-05-03T12:11:41.571Z</time></trkpt><trkpt lat="43.5301072" lon="10.5697576"><ele>137.33333333333334</ele><time>2026-05-03T12:11:42.573Z</time></trkpt><trkpt lat="43.5301663" lon="10.5699861"><ele>138.0</ele><time>2026-05-03T12:11:43.573Z</time></trkpt><trkpt lat="43.5302217" lon="10.5701915"><ele>137.0</ele><time>2026-05-03T12:11:44.573Z</time></trkpt><trkpt lat="43.5302994" lon="10.5703743"><ele>136.0</ele><time>2026-05-03T12:11:45.573Z</time></trkpt><trkpt lat="43.5303948" lon="10.570522"><ele>135.0</ele><time>2026-05-03T12:11:46.572Z</time></trkpt><trkpt lat="43.530515" lon="10.5706297"><ele>134.0</ele><time>2026-05-03T12:11:47.573Z</time></trkpt><trkpt lat="43.5306434" lon="10.570718"><ele>137.33333333333331</ele><time>2026-05-03T12:11:48.573Z</time></trkpt><trkpt lat="43.5307872" lon="10.5707767"><ele>140.66666666666666</ele><time>2026-05-03T12:11:49.573Z</time></trkpt><trkpt lat="43.5309454" lon="10.5708158"><ele>144.0</ele><time>2026-05-03T12:11:50.572Z</time></trkpt><trkpt lat="43.5311137" lon="10.5708589"><ele>145.0</ele><time>2026-05-03T12:11:51.572Z</time></trkpt><trkpt lat="43.5312876" lon="10.5709267"><ele>146.0</ele><time>2026-05-03T12:11:52.572Z</time></trkpt><trkpt lat="43.5314576" lon="10.5710271"><ele>147.0</ele><time>2026-05-03T12:11:53.572Z</time></trkpt><trkpt lat="43.5316198" lon="10.571168"><ele>148.33333333333334</ele><time>2026-05-03T12:11:54.572Z</time></trkpt><trkpt lat="43.5317657" lon="10.5713385"><ele>149.66666666666669</ele><time>2026-05-03T12:11:55.573Z</time></trkpt><trkpt lat="43.5318899" lon="10.5715186"><ele>151.0</ele><time>2026-05-03T12:11:56.573Z</time></trkpt><trkpt lat="43.5319979" lon="10.5716923"><ele>150.75</ele><time>2026-05-03T12:11:57.573Z</time></trkpt><trkpt lat="43.5321036" lon="10.5718224"><ele>150.5</ele><time>2026-05-03T12:11:58.572Z</time></trkpt><trkpt lat="43.5322132" lon="10.5719159"><ele>150.25</ele><time>2026-05-03T12:11:59.572Z</time></trkpt><trkpt lat="43.5323451" lon="10.5719638"><ele>150.0</ele><time>2026-05-03T12:12:00.572Z</time></trkpt><trkpt lat="43.5324859" lon="10.5719669"><ele>150.0</ele><time>2026-05-03T12:12:01.572Z</time></trkpt><trkpt lat="43.5326364" lon="10.5719309"><ele>150.0</ele><time>2026-05-03T12:12:02.573Z</time></trkpt><trkpt lat="43.5328047" lon="10.571902"><ele>150.0</ele><time>2026-05-03T12:12:03.572Z</time></trkpt><trkpt lat="43.5329761" lon="10.5718982"><ele>150.0</ele><time>2026-05-03T12:12:04.573Z</time></trkpt><trkpt lat="43.5331441" lon="10.5719306"><ele>150.0</ele><time>2026-05-03T12:12:05.573Z</time></trkpt><trkpt lat="43.5333148" lon="10.571995"><ele>150.0</ele><time>2026-05-03T12:12:06.573Z</time></trkpt><trkpt lat="43.5334836" lon="10.572074"><ele>152.66666666666666</ele><time>2026-05-03T12:12:07.572Z</time></trkpt><trkpt lat="43.5336483" lon="10.572155"><ele>155.33333333333331</ele><time>2026-05-03T12:12:08.573Z</time></trkpt><trkpt lat="43.5337988" lon="10.5722408"><ele>158.0</ele><time>2026-05-03T12:12:09.573Z</time></trkpt><trkpt lat="43.5339297" lon="10.5723612"><ele>158.0</ele><time>2026-05-03T12:12:10.573Z</time></trkpt><trkpt lat="43.5340347" lon="10.5725175"><ele>158.0</ele><time>2026-05-03T12:12:11.573Z</time></trkpt><trkpt lat="43.5341291" lon="10.5726991"><ele>158.0</ele><time>2026-05-03T12:12:12.572Z</time></trkpt><trkpt lat="43.5342256" lon="10.5728632"><ele>160.75</ele><time>2026-05-03T12:12:13.572Z</time></trkpt><trkpt lat="43.5343214" lon="10.5730114"><ele>163.5</ele><time>2026-05-03T12:12:14.573Z</time></trkpt><trkpt lat="43.5344024" lon="10.5731531"><ele>166.25</ele><time>2026-05-03T12:12:15.573Z</time></trkpt><trkpt lat="43.5344628" lon="10.5733145"><ele>169.0</ele><time>2026-05-03T12:12:16.572Z</time></trkpt><trkpt lat="43.5344883" lon="10.573521"><ele>170.33333333333334</ele><time>2026-05-03T12:12:17.573Z</time></trkpt><trkpt lat="43.5345095" lon="10.5737454"><ele>171.66666666666666</ele><time>2026-05-03T12:12:18.574Z</time></trkpt><trkpt lat="43.5345068" lon="10.573979"><ele>173.0</ele><time>2026-05-03T12:12:19.572Z</time></trkpt><trkpt lat="43.5344972" lon="10.5741963"><ele>173.0</ele><time>2026-05-03T12:12:20.571Z</time></trkpt><trkpt lat="43.5344655" lon="10.5743919"><ele>173.0</ele><time>2026-05-03T12:12:21.573Z</time></trkpt><trkpt lat="43.5344028" lon="10.5745705"><ele>173.0</ele><time>2026-05-03T12:12:22.572Z</time></trkpt><trkpt lat="43.5343137" lon="10.5747403"><ele>173.0</ele><time>2026-05-03T12:12:23.573Z</time></trkpt><trkpt lat="43.5342097" lon="10.5749054"><ele>172.66666666666666</ele><time>2026-05-03T12:12:24.573Z</time></trkpt><trkpt lat="43.5341074" lon="10.5750798"><ele>172.33333333333334</ele><time>2026-05-03T12:12:25.573Z</time></trkpt><trkpt lat="43.5340317" lon="10.5752755"><ele>172.0</ele><time>2026-05-03T12:12:26.572Z</time></trkpt><trkpt lat="43.5339785" lon="10.5754841"><ele>172.0</ele><time>2026-05-03T12:12:27.573Z</time></trkpt><trkpt lat="43.5339527" lon="10.5757075"><ele>172.0</ele><time>2026-05-03T12:12:28.571Z</time></trkpt><trkpt lat="43.5339517" lon="10.5759333"><ele>172.0</ele><time>2026-05-03T12:12:29.573Z</time></trkpt><trkpt lat="43.5339882" lon="10.5761528"><ele>172.66666666666669</ele><time>2026-05-03T12:12:30.573Z</time></trkpt><trkpt lat="43.5340086" lon="10.5763753"><ele>173.33333333333334</ele><time>2026-05-03T12:12:31.572Z</time></trkpt><trkpt lat="43.5340123" lon="10.5765995"><ele>174.0</ele><time>2026-05-03T12:12:32.572Z</time></trkpt><trkpt lat="43.534002" lon="10.5768048"><ele>174.0</ele><time>2026-05-03T12:12:33.572Z</time></trkpt><trkpt lat="43.5339625" lon="10.5769864"><ele>174.0</ele><time>2026-05-03T12:12:34.572Z</time></trkpt><trkpt lat="43.5338835" lon="10.5771424"><ele>174.0</ele><time>2026-05-03T12:12:35.572Z</time></trkpt><trkpt lat="43.533784" lon="10.5772783"><ele>174.0</ele><time>2026-05-03T12:12:36.573Z</time></trkpt><trkpt lat="43.5337052" lon="10.5774257"><ele>175.25</ele><time>2026-05-03T12:12:37.572Z</time></trkpt><trkpt lat="43.5336646" lon="10.5775828"><ele>176.5</ele><time>2026-05-03T12:12:38.572Z</time></trkpt><trkpt lat="43.5336586" lon="10.5777552"><ele>177.75</ele><time>2026-05-03T12:12:39.573Z</time></trkpt><trkpt lat="43.5336892" lon="10.5779332"><ele>179.0</ele><time>2026-05-03T12:12:40.573Z</time></trkpt><trkpt lat="43.5337395" lon="10.5781264"><ele>179.0</ele><time>2026-05-03T12:12:41.571Z</time></trkpt><trkpt lat="43.533801" lon="10.5783275"><ele>179.0</ele><time>2026-05-03T12:12:42.572Z</time></trkpt><trkpt lat="43.533857" lon="10.5785428"><ele>179.0</ele><time>2026-05-03T12:12:43.572Z</time></trkpt><trkpt lat="43.5338978" lon="10.5787696"><ele>180.66666666666666</ele><time>2026-05-03T12:12:44.573Z</time></trkpt><trkpt lat="43.5339097" lon="10.5789978"><ele>182.33333333333334</ele><time>2026-05-03T12:12:45.572Z</time></trkpt><trkpt lat="43.5338949" lon="10.5792203"><ele>184.0</ele><time>2026-05-03T12:12:46.573Z</time></trkpt><trkpt lat="43.533865" lon="10.5794529"><ele>185.66666666666669</ele><time>2026-05-03T12:12:47.573Z</time></trkpt><trkpt lat="43.5338362" lon="10.5796866"><ele>187.33333333333334</ele><time>2026-05-03T12:12:48.573Z</time></trkpt><trkpt lat="43.5338064" lon="10.579921"><ele>189.0</ele><time>2026-05-03T12:12:49.572Z</time></trkpt><trkpt lat="43.5338909" lon="10.5801454"><ele>190.0</ele><time>2026-05-03T12:12:50.573Z</time></trkpt><trkpt lat="43.5339423" lon="10.5803669"><ele>191.0</ele><time>2026-05-03T12:12:51.573Z</time></trkpt><trkpt lat="43.5339906" lon="10.5805854"><ele>192.0</ele><time>2026-05-03T12:12:52.573Z</time></trkpt><trkpt lat="43.5340264" lon="10.5808084"><ele>192.0</ele><time>2026-05-03T12:12:53.573Z</time></trkpt><trkpt lat="43.5340296" lon="10.5810344"><ele>192.0</ele><time>2026-05-03T12:12:54.572Z</time></trkpt><trkpt lat="43.5340039" lon="10.5812529"><ele>192.0</ele><time>2026-05-03T12:12:55.572Z</time></trkpt><trkpt lat="43.5339533" lon="10.5814577"><ele>192.5</ele><time>2026-05-03T12:12:56.574Z</time></trkpt><trkpt lat="43.5338852" lon="10.5816484"><ele>193.0</ele><time>2026-05-03T12:12:57.572Z</time></trkpt><trkpt lat="43.5338341" lon="10.5818254"><ele>193.5</ele><time>2026-05-03T12:12:58.573Z</time></trkpt><trkpt lat="43.5338166" lon="10.5820064"><ele>194.0</ele><time>2026-05-03T12:12:59.571Z</time></trkpt><trkpt lat="43.5338335" lon="10.5821841"><ele>195.25</ele><time>2026-05-03T12:13:00.574Z</time></trkpt><trkpt lat="43.5338891" lon="10.5823513"><ele>196.5</ele><time>2026-05-03T12:13:01.574Z</time></trkpt><trkpt lat="43.5339737" lon="10.5825042"><ele>197.75</ele><time>2026-05-03T12:13:02.573Z</time></trkpt><trkpt lat="43.5340669" lon="10.5826266"><ele>199.0</ele><time>2026-05-03T12:13:03.573Z</time></trkpt><trkpt lat="43.5341581" lon="10.5827333"><ele>199.0</ele><time>2026-05-03T12:13:04.572Z</time></trkpt><trkpt lat="43.5342154" lon="10.5828353"><ele>199.0</ele><time>2026-05-03T12:13:05.573Z</time></trkpt><trkpt lat="43.5342416" lon="10.582941"><ele>199.0</ele><time>2026-05-03T12:13:06.573Z</time></trkpt><trkpt lat="43.5342346" lon="10.5830304"><ele>199.0</ele><time>2026-05-03T12:13:07.572Z</time></trkpt><trkpt lat="43.5341468" lon="10.5831674"><ele>199.0</ele><time>2026-05-03T12:13:09.572Z</time></trkpt><trkpt lat="43.5340656" lon="10.5832105"><ele>199.75</ele><time>2026-05-03T12:13:10.573Z</time></trkpt><trkpt lat="43.5339654" lon="10.5832417"><ele>200.5</ele><time>2026-05-03T12:13:11.573Z</time></trkpt><trkpt lat="43.5338547" lon="10.5832738"><ele>201.25</ele><time>2026-05-03T12:13:12.572Z</time></trkpt><trkpt lat="43.5337294" lon="10.5833163"><ele>202.0</ele><time>2026-05-03T12:13:13.573Z</time></trkpt><trkpt lat="43.5335878" lon="10.5833624"><ele>205.33333333333331</ele><time>2026-05-03T12:13:14.572Z</time></trkpt><trkpt lat="43.5334394" lon="10.5834104"><ele>208.66666666666669</ele><time>2026-05-03T12:13:15.572Z</time></trkpt><trkpt lat="43.5332775" lon="10.5834589"><ele>212.0</ele><time>2026-05-03T12:13:16.573Z</time></trkpt><trkpt lat="43.5331004" lon="10.5835128"><ele>212.0</ele><time>2026-05-03T12:13:17.572Z</time></trkpt><trkpt lat="43.5329216" lon="10.5835723"><ele>212.0</ele><time>2026-05-03T12:13:18.573Z</time></trkpt><trkpt lat="43.5327382" lon="10.5836294"><ele>212.0</ele><time>2026-05-03T12:13:19.572Z</time></trkpt><trkpt lat="43.5325499" lon="10.5836985"><ele>213.66666666666669</ele><time>2026-05-03T12:13:20.573Z</time></trkpt><trkpt lat="43.5323619" lon="10.5837632"><ele>215.33333333333331</ele><time>2026-05-03T12:13:21.573Z</time></trkpt><trkpt lat="43.5321751" lon="10.5838253"><ele>217.0</ele><time>2026-05-03T12:13:22.572Z</time></trkpt><trkpt lat="43.5319996" lon="10.5838804"><ele>219.25</ele><time>2026-05-03T12:13:23.572Z</time></trkpt><trkpt lat="43.5318386" lon="10.583929"><ele>221.5</ele><time>2026-05-03T12:13:24.572Z</time></trkpt><trkpt lat="43.5316895" lon="10.5839857"><ele>223.75</ele><time>2026-05-03T12:13:25.573Z</time></trkpt><trkpt lat="43.5315652" lon="10.5840285"><ele>226.0</ele><time>2026-05-03T12:13:26.573Z</time></trkpt><trkpt lat="43.5314547" lon="10.584061"><ele>226.0</ele><time>2026-05-03T12:13:27.572Z</time></trkpt><trkpt lat="43.5313539" lon="10.5840932"><ele>226.00000000000003</ele><time>2026-05-03T12:13:28.573Z</time></trkpt><trkpt lat="43.5312558" lon="10.584123"><ele>226.00000000000003</ele><time>2026-05-03T12:13:29.572Z</time></trkpt><trkpt lat="43.5311553" lon="10.5841507"><ele>226.0</ele><time>2026-05-03T12:13:30.572Z</time></trkpt><trkpt lat="43.5310538" lon="10.584177"><ele>226.0</ele><time>2026-05-03T12:13:31.572Z</time></trkpt><trkpt lat="43.5309495" lon="10.5842205"><ele>227.75</ele><time>2026-05-03T12:13:32.572Z</time></trkpt><trkpt lat="43.5308477" lon="10.5842746"><ele>229.5</ele><time>2026-05-03T12:13:33.571Z</time></trkpt><trkpt lat="43.5307431" lon="10.5843421"><ele>231.25</ele><time>2026-05-03T12:13:34.572Z</time></trkpt><trkpt lat="43.5306443" lon="10.5844238"><ele>233.0</ele><time>2026-05-03T12:13:35.573Z</time></trkpt><trkpt lat="43.5305468" lon="10.5845224"><ele>233.0</ele><time>2026-05-03T12:13:36.572Z</time></trkpt><trkpt lat="43.5304615" lon="10.5846349"><ele>233.0</ele><time>2026-05-03T12:13:37.574Z</time></trkpt><trkpt lat="43.5303881" lon="10.5847726"><ele>233.0</ele><time>2026-05-03T12:13:38.571Z</time></trkpt><trkpt lat="43.5303282" lon="10.5849342"><ele>233.0</ele><time>2026-05-03T12:13:39.572Z</time></trkpt><trkpt lat="43.5302759" lon="10.5851049"><ele>233.75</ele><time>2026-05-03T12:13:40.572Z</time></trkpt><trkpt lat="43.5302456" lon="10.5852788"><ele>234.5</ele><time>2026-05-03T12:13:41.572Z</time></trkpt><trkpt lat="43.5302245" lon="10.5854411"><ele>235.25</ele><time>2026-05-03T12:13:42.572Z</time></trkpt><trkpt lat="43.5302123" lon="10.5855998"><ele>236.0</ele><time>2026-05-03T12:13:43.574Z</time></trkpt><trkpt lat="43.5301861" lon="10.5857436"><ele>236.5</ele><time>2026-05-03T12:13:44.572Z</time></trkpt><trkpt lat="43.5301529" lon="10.5858999"><ele>237.0</ele><time>2026-05-03T12:13:45.571Z</time></trkpt><trkpt lat="43.5300971" lon="10.5860486"><ele>237.5</ele><time>2026-05-03T12:13:46.572Z</time></trkpt><trkpt lat="43.5300233" lon="10.5861899"><ele>238.0</ele><time>2026-05-03T12:13:47.572Z</time></trkpt><trkpt lat="43.5299278" lon="10.5863123"><ele>238.0</ele><time>2026-05-03T12:13:48.572Z</time></trkpt><trkpt lat="43.5298187" lon="10.5864089"><ele>238.0</ele><time>2026-05-03T12:13:49.574Z</time></trkpt><trkpt lat="43.5297006" lon="10.5864953"><ele>238.0</ele><time>2026-05-03T12:13:50.572Z</time></trkpt><trkpt lat="43.5295772" lon="10.5865763"><ele>238.0</ele><time>2026-05-03T12:13:51.571Z</time></trkpt><trkpt lat="43.5294483" lon="10.5866562"><ele>239.75</ele><time>2026-05-03T12:13:52.573Z</time></trkpt><trkpt lat="43.5293281" lon="10.5867333"><ele>241.5</ele><time>2026-05-03T12:13:53.574Z</time></trkpt><trkpt lat="43.529219" lon="10.5868019"><ele>243.25</ele><time>2026-05-03T12:13:54.573Z</time></trkpt><trkpt lat="43.5291123" lon="10.5868704"><ele>245.0</ele><time>2026-05-03T12:13:55.573Z</time></trkpt><trkpt lat="43.5290072" lon="10.5869492"><ele>243.75</ele><time>2026-05-03T12:13:56.573Z</time></trkpt><trkpt lat="43.5289132" lon="10.5870335"><ele>242.5</ele><time>2026-05-03T12:13:57.573Z</time></trkpt><trkpt lat="43.5288288" lon="10.5871399"><ele>241.25</ele><time>2026-05-03T12:13:58.573Z</time></trkpt><trkpt lat="43.5287582" lon="10.5872673"><ele>240.0</ele><time>2026-05-03T12:13:59.573Z</time></trkpt><trkpt lat="43.5287043" lon="10.5874029"><ele>243.25</ele><time>2026-05-03T12:14:00.573Z</time></trkpt><trkpt lat="43.5286673" lon="10.5875517"><ele>246.5</ele><time>2026-05-03T12:14:01.573Z</time></trkpt><trkpt lat="43.528652" lon="10.5877041"><ele>249.75</ele><time>2026-05-03T12:14:02.573Z</time></trkpt><trkpt lat="43.5286541" lon="10.587867"><ele>253.0</ele><time>2026-05-03T12:14:03.574Z</time></trkpt><trkpt lat="43.5286711" lon="10.5880196"><ele>253.0</ele><time>2026-05-03T12:14:04.571Z</time></trkpt><trkpt lat="43.5287003" lon="10.5881561"><ele>253.0</ele><time>2026-05-03T12:14:05.572Z</time></trkpt><trkpt lat="43.5287385" lon="10.5882957"><ele>253.0</ele><time>2026-05-03T12:14:06.572Z</time></trkpt><trkpt lat="43.528786" lon="10.5884365"><ele>253.0</ele><time>2026-05-03T12:14:07.571Z</time></trkpt><trkpt lat="43.5288299" lon="10.5885804"><ele>253.0</ele><time>2026-05-03T12:14:08.572Z</time></trkpt><trkpt lat="43.5288719" lon="10.5887206"><ele>253.66666666666666</ele><time>2026-05-03T12:14:09.573Z</time></trkpt><trkpt lat="43.5289247" lon="10.5888804"><ele>254.33333333333331</ele><time>2026-05-03T12:14:10.573Z</time></trkpt><trkpt lat="43.528985" lon="10.5890714"><ele>255.0</ele><time>2026-05-03T12:14:11.573Z</time></trkpt><trkpt lat="43.5290473" lon="10.5892946"><ele>254.33333333333331</ele><time>2026-05-03T12:14:12.572Z</time></trkpt><trkpt lat="43.5291147" lon="10.5895285"><ele>253.66666666666666</ele><time>2026-05-03T12:14:13.572Z</time></trkpt><trkpt lat="43.5291937" lon="10.5897722"><ele>253.0</ele><time>2026-05-03T12:14:14.573Z</time></trkpt><trkpt lat="43.5292813" lon="10.5900372"><ele>253.0</ele><time>2026-05-03T12:14:15.573Z</time></trkpt><trkpt lat="43.5293673" lon="10.5903004"><ele>253.0</ele><time>2026-05-03T12:14:16.574Z</time></trkpt><trkpt lat="43.5294538" lon="10.5905634"><ele>253.0</ele><time>2026-05-03T12:14:17.573Z</time></trkpt><trkpt lat="43.5295371" lon="10.590823"><ele>252.33333333333331</ele><time>2026-05-03T12:14:18.574Z</time></trkpt><trkpt lat="43.5296342" lon="10.5910873"><ele>251.66666666666669</ele><time>2026-05-03T12:14:19.573Z</time></trkpt><trkpt lat="43.5297091" lon="10.5913306"><ele>251.0</ele><time>2026-05-03T12:14:20.574Z</time></trkpt><trkpt lat="43.5297729" lon="10.591587"><ele>248.66666666666669</ele><time>2026-05-03T12:14:21.572Z</time></trkpt><trkpt lat="43.5298152" lon="10.5918473"><ele>246.33333333333331</ele><time>2026-05-03T12:14:22.572Z</time></trkpt><trkpt lat="43.529827" lon="10.5921156"><ele>244.0</ele><time>2026-05-03T12:14:23.573Z</time></trkpt><trkpt lat="43.5298267" lon="10.5923893"><ele>243.66666666666666</ele><time>2026-05-03T12:14:24.572Z</time></trkpt><trkpt lat="43.5298077" lon="10.5926845"><ele>243.33333333333331</ele><time>2026-05-03T12:14:25.573Z</time></trkpt><trkpt lat="43.5297886" lon="10.5930003"><ele>243.0</ele><time>2026-05-03T12:14:26.573Z</time></trkpt><trkpt lat="43.5297586" lon="10.5933121"><ele>241.0</ele><time>2026-05-03T12:14:27.572Z</time></trkpt><trkpt lat="43.5297214" lon="10.5936356"><ele>239.0</ele><time>2026-05-03T12:14:28.573Z</time></trkpt><trkpt lat="43.5296856" lon="10.5939549"><ele>239.0</ele><time>2026-05-03T12:14:29.573Z</time></trkpt><trkpt lat="43.5296495" lon="10.5942728"><ele>239.0</ele><time>2026-05-03T12:14:30.571Z</time></trkpt><trkpt lat="43.5296059" lon="10.5945785"><ele>239.0</ele><time>2026-05-03T12:14:31.573Z</time></trkpt><trkpt lat="43.5295589" lon="10.5948768"><ele>239.0</ele><time>2026-05-03T12:14:32.573Z</time></trkpt><trkpt lat="43.5294975" lon="10.5951605"><ele>239.0</ele><time>2026-05-03T12:14:33.571Z</time></trkpt><trkpt lat="43.5294282" lon="10.5954146"><ele>239.66666666666669</ele><time>2026-05-03T12:14:34.573Z</time></trkpt><trkpt lat="43.5293482" lon="10.595649"><ele>240.33333333333331</ele><time>2026-05-03T12:14:35.571Z</time></trkpt><trkpt lat="43.5292495" lon="10.5958732"><ele>241.0</ele><time>2026-05-03T12:14:36.573Z</time></trkpt><trkpt lat="43.5291356" lon="10.5960915"><ele>243.33333333333331</ele><time>2026-05-03T12:14:37.572Z</time></trkpt><trkpt lat="43.5290093" lon="10.5963077"><ele>245.66666666666669</ele><time>2026-05-03T12:14:38.572Z</time></trkpt><trkpt lat="43.5288727" lon="10.5965233"><ele>248.0</ele><time>2026-05-03T12:14:39.572Z</time></trkpt><trkpt lat="43.5287283" lon="10.5967379"><ele>249.66666666666669</ele><time>2026-05-03T12:14:40.572Z</time></trkpt><trkpt lat="43.528579" lon="10.5969542"><ele>251.33333333333331</ele><time>2026-05-03T12:14:41.572Z</time></trkpt><trkpt lat="43.5284405" lon="10.5971558"><ele>253.0</ele><time>2026-05-03T12:14:42.572Z</time></trkpt><trkpt lat="43.5283126" lon="10.5973499"><ele>254.0</ele><time>2026-05-03T12:14:43.572Z</time></trkpt><trkpt lat="43.528192" lon="10.5975279"><ele>255.0</ele><time>2026-05-03T12:14:44.572Z</time></trkpt><trkpt lat="43.5280769" lon="10.5976582"><ele>256.0</ele><time>2026-05-03T12:14:45.573Z</time></trkpt><trkpt lat="43.5279535" lon="10.597786"><ele>257.0</ele><time>2026-05-03T12:14:46.572Z</time></trkpt><trkpt lat="43.5278226" lon="10.5978896"><ele>258.0</ele><time>2026-05-03T12:14:47.574Z</time></trkpt><trkpt lat="43.5276837" lon="10.5980005"><ele>259.0</ele><time>2026-05-03T12:14:48.573Z</time></trkpt><trkpt lat="43.5275376" lon="10.5981017"><ele>259.0</ele><time>2026-05-03T12:14:49.573Z</time></trkpt><trkpt lat="43.5273898" lon="10.5981948"><ele>259.0</ele><time>2026-05-03T12:14:50.572Z</time></trkpt><trkpt lat="43.5272487" lon="10.5982798"><ele>259.0</ele><time>2026-05-03T12:14:51.574Z</time></trkpt><trkpt lat="43.5271172" lon="10.59834"><ele>260.5</ele><time>2026-05-03T12:14:52.573Z</time></trkpt><trkpt lat="43.5269873" lon="10.5983725"><ele>262.0</ele><time>2026-05-03T12:14:53.573Z</time></trkpt><trkpt lat="43.5268528" lon="10.5983637"><ele>263.5</ele><time>2026-05-03T12:14:54.572Z</time></trkpt><trkpt lat="43.5267149" lon="10.5983226"><ele>265.0</ele><time>2026-05-03T12:14:55.572Z</time></trkpt><trkpt lat="43.5265684" lon="10.5982609"><ele>265.0</ele><time>2026-05-03T12:14:56.574Z</time></trkpt><trkpt lat="43.5264152" lon="10.5981817"><ele>265.0</ele><time>2026-05-03T12:14:57.573Z</time></trkpt><trkpt lat="43.5262581" lon="10.5980822"><ele>265.0</ele><time>2026-05-03T12:14:58.572Z</time></trkpt><trkpt lat="43.5260903" lon="10.5979922"><ele>264.66666666666663</ele><time>2026-05-03T12:14:59.572Z</time></trkpt><trkpt lat="43.5259221" lon="10.5978976"><ele>264.3333333333333</ele><time>2026-05-03T12:15:00.573Z</time></trkpt><trkpt lat="43.5257514" lon="10.597794"><ele>264.0</ele><time>2026-05-03T12:15:01.573Z</time></trkpt><trkpt lat="43.5255926" lon="10.5976963"><ele>264.0</ele><time>2026-05-03T12:15:02.572Z</time></trkpt><trkpt lat="43.5254294" lon="10.5975962"><ele>264.0</ele><time>2026-05-03T12:15:03.573Z</time></trkpt><trkpt lat="43.5252687" lon="10.5975046"><ele>264.0</ele><time>2026-05-03T12:15:04.573Z</time></trkpt><trkpt lat="43.525116" lon="10.5974184"><ele>266.6666666666667</ele><time>2026-05-03T12:15:05.572Z</time></trkpt><trkpt lat="43.5249697" lon="10.5973595"><ele>269.33333333333337</ele><time>2026-05-03T12:15:06.571Z</time></trkpt><trkpt lat="43.5248225" lon="10.5973226"><ele>272.0</ele><time>2026-05-03T12:15:07.571Z</time></trkpt><trkpt lat="43.524668" lon="10.5973156"><ele>270.0</ele><time>2026-05-03T12:15:08.573Z</time></trkpt><trkpt lat="43.5245208" lon="10.5973574"><ele>268.0</ele><time>2026-05-03T12:15:09.572Z</time></trkpt><trkpt lat="43.5243891" lon="10.5974223"><ele>266.0</ele><time>2026-05-03T12:15:10.573Z</time></trkpt><trkpt lat="43.5242539" lon="10.5975333"><ele>264.0</ele><time>2026-05-03T12:15:11.573Z</time></trkpt><trkpt lat="43.524121" lon="10.5976765"><ele>267.6666666666667</ele><time>2026-05-03T12:15:12.572Z</time></trkpt><trkpt lat="43.5239864" lon="10.5978385"><ele>271.33333333333337</ele><time>2026-05-03T12:15:13.573Z</time></trkpt><trkpt lat="43.5238572" lon="10.5980075"><ele>275.0</ele><time>2026-05-03T12:15:14.574Z</time></trkpt><trkpt lat="43.5237379" lon="10.5981692"><ele>272.0</ele><time>2026-05-03T12:15:15.574Z</time></trkpt><trkpt lat="43.5236339" lon="10.5983508"><ele>269.0</ele><time>2026-05-03T12:15:16.572Z</time></trkpt><trkpt lat="43.5235457" lon="10.5985375"><ele>266.0</ele><time>2026-05-03T12:15:17.575Z</time></trkpt><trkpt lat="43.5234863" lon="10.5987506"><ele>266.0</ele><time>2026-05-03T12:15:18.572Z</time></trkpt><trkpt lat="43.5234435" lon="10.5989803"><ele>266.0</ele><time>2026-05-03T12:15:19.571Z</time></trkpt><trkpt lat="43.523389" lon="10.5992005"><ele>266.0</ele><time>2026-05-03T12:15:20.573Z</time></trkpt><trkpt lat="43.5233176" lon="10.5994156"><ele>269.6666666666667</ele><time>2026-05-03T12:15:21.573Z</time></trkpt><trkpt lat="43.5232146" lon="10.5996074"><ele>273.3333333333333</ele><time>2026-05-03T12:15:22.573Z</time></trkpt><trkpt lat="43.5230975" lon="10.5997773"><ele>277.0</ele><time>2026-05-03T12:15:23.573Z</time></trkpt><trkpt lat="43.5229746" lon="10.5999388"><ele>279.0</ele><time>2026-05-03T12:15:24.574Z</time></trkpt><trkpt lat="43.522851" lon="10.6001059"><ele>281.0</ele><time>2026-05-03T12:15:25.572Z</time></trkpt><trkpt lat="43.5227221" lon="10.6002662"><ele>283.0</ele><time>2026-05-03T12:15:26.572Z</time></trkpt><trkpt lat="43.5225942" lon="10.6004289"><ele>283.0</ele><time>2026-05-03T12:15:27.572Z</time></trkpt><trkpt lat="43.5224662" lon="10.6005839"><ele>283.0</ele><time>2026-05-03T12:15:28.572Z</time></trkpt><trkpt lat="43.5222393" lon="10.6008914"><ele>283.0</ele><time>2026-05-03T12:15:30.572Z</time></trkpt><trkpt lat="43.522138" lon="10.6010677"><ele>283.0</ele><time>2026-05-03T12:15:31.573Z</time></trkpt><trkpt lat="43.5220441" lon="10.6012631"><ele>283.0</ele><time>2026-05-03T12:15:32.571Z</time></trkpt><trkpt lat="43.5219416" lon="10.6014806"><ele>282.0</ele><time>2026-05-03T12:15:33.572Z</time></trkpt><trkpt lat="43.5218351" lon="10.6017025"><ele>281.0</ele><time>2026-05-03T12:15:34.573Z</time></trkpt><trkpt lat="43.5217254" lon="10.6019196"><ele>280.0</ele><time>2026-05-03T12:15:35.572Z</time></trkpt><trkpt lat="43.5216109" lon="10.6021349"><ele>277.66666666666663</ele><time>2026-05-03T12:15:36.571Z</time></trkpt><trkpt lat="43.5214843" lon="10.6023388"><ele>275.3333333333333</ele><time>2026-05-03T12:15:37.571Z</time></trkpt><trkpt lat="43.521344" lon="10.6025235"><ele>273.0</ele><time>2026-05-03T12:15:38.573Z</time></trkpt><trkpt lat="43.521197" lon="10.602695"><ele>269.6666666666667</ele><time>2026-05-03T12:15:39.572Z</time></trkpt><trkpt lat="43.5210356" lon="10.6028574"><ele>266.33333333333337</ele><time>2026-05-03T12:15:40.571Z</time></trkpt><trkpt lat="43.5208665" lon="10.6030058"><ele>263.0</ele><time>2026-05-03T12:15:41.573Z</time></trkpt><trkpt lat="43.5206961" lon="10.6031529"><ele>263.0</ele><time>2026-05-03T12:15:42.573Z</time></trkpt><trkpt lat="43.5205239" lon="10.6033043"><ele>263.0</ele><time>2026-05-03T12:15:43.573Z</time></trkpt><trkpt lat="43.520349" lon="10.6034609"><ele>263.0</ele><time>2026-05-03T12:15:44.572Z</time></trkpt><trkpt lat="43.5201729" lon="10.6036172"><ele>258.33333333333337</ele><time>2026-05-03T12:15:45.574Z</time></trkpt><trkpt lat="43.5199963" lon="10.6037733"><ele>253.66666666666669</ele><time>2026-05-03T12:15:46.572Z</time></trkpt><trkpt lat="43.5198163" lon="10.6039304"><ele>249.0</ele><time>2026-05-03T12:15:47.574Z</time></trkpt><trkpt lat="43.5196388" lon="10.6040943"><ele>248.33333333333331</ele><time>2026-05-03T12:15:48.572Z</time></trkpt><trkpt lat="43.5194581" lon="10.6042499"><ele>247.66666666666666</ele><time>2026-05-03T12:15:49.573Z</time></trkpt><trkpt lat="43.5192825" lon="10.6043997"><ele>247.0</ele><time>2026-05-03T12:15:50.574Z</time></trkpt><trkpt lat="43.5191057" lon="10.6045491"><ele>246.33333333333331</ele><time>2026-05-03T12:15:51.571Z</time></trkpt><trkpt lat="43.5189371" lon="10.604701"><ele>245.66666666666669</ele><time>2026-05-03T12:15:52.571Z</time></trkpt><trkpt lat="43.5187729" lon="10.6048629"><ele>245.0</ele><time>2026-05-03T12:15:53.572Z</time></trkpt><trkpt lat="43.5186051" lon="10.6050083"><ele>245.0</ele><time>2026-05-03T12:15:54.572Z</time></trkpt><trkpt lat="43.5184357" lon="10.6051447"><ele>245.0</ele><time>2026-05-03T12:15:55.573Z</time></trkpt><trkpt lat="43.51826" lon="10.6052604"><ele>245.0</ele><time>2026-05-03T12:15:56.573Z</time></trkpt><trkpt lat="43.5180811" lon="10.6053517"><ele>244.0</ele><time>2026-05-03T12:15:57.572Z</time></trkpt><trkpt lat="43.5178913" lon="10.6054269"><ele>243.0</ele><time>2026-05-03T12:15:58.572Z</time></trkpt><trkpt lat="43.5177021" lon="10.6054598"><ele>242.0</ele><time>2026-05-03T12:15:59.572Z</time></trkpt><trkpt lat="43.5174995" lon="10.6055096"><ele>242.0</ele><time>2026-05-03T12:16:00.572Z</time></trkpt><trkpt lat="43.5172957" lon="10.605553"><ele>242.0</ele><time>2026-05-03T12:16:01.571Z</time></trkpt><trkpt lat="43.517103" lon="10.6055844"><ele>242.0</ele><time>2026-05-03T12:16:02.573Z</time></trkpt><trkpt lat="43.516911" lon="10.6056095"><ele>242.66666666666669</ele><time>2026-05-03T12:16:03.572Z</time></trkpt><trkpt lat="43.5167147" lon="10.6056426"><ele>243.33333333333331</ele><time>2026-05-03T12:16:04.572Z</time></trkpt><trkpt lat="43.5165304" lon="10.6056981"><ele>244.0</ele><time>2026-05-03T12:16:05.571Z</time></trkpt><trkpt lat="43.5163555" lon="10.6057866"><ele>244.66666666666666</ele><time>2026-05-03T12:16:06.572Z</time></trkpt><trkpt lat="43.5161928" lon="10.6059131"><ele>245.33333333333331</ele><time>2026-05-03T12:16:07.572Z</time></trkpt><trkpt lat="43.5160397" lon="10.6060444"><ele>246.0</ele><time>2026-05-03T12:16:08.571Z</time></trkpt><trkpt lat="43.5158855" lon="10.6061674"><ele>246.33333333333331</ele><time>2026-05-03T12:16:09.573Z</time></trkpt><trkpt lat="43.5157274" lon="10.6063217"><ele>246.66666666666666</ele><time>2026-05-03T12:16:10.572Z</time></trkpt><trkpt lat="43.5155788" lon="10.606495"><ele>247.0</ele><time>2026-05-03T12:16:11.572Z</time></trkpt><trkpt lat="43.5154361" lon="10.6066756"><ele>248.33333333333331</ele><time>2026-05-03T12:16:12.572Z</time></trkpt><trkpt lat="43.515291" lon="10.6068722"><ele>249.66666666666669</ele><time>2026-05-03T12:16:13.572Z</time></trkpt><trkpt lat="43.5151322" lon="10.6070822"><ele>251.0</ele><time>2026-05-03T12:16:14.574Z</time></trkpt><trkpt lat="43.5149749" lon="10.6072842"><ele>252.33333333333334</ele><time>2026-05-03T12:16:15.571Z</time></trkpt><trkpt lat="43.5148179" lon="10.6074896"><ele>253.66666666666669</ele><time>2026-05-03T12:16:16.573Z</time></trkpt><trkpt lat="43.5146576" lon="10.6077087"><ele>255.0</ele><time>2026-05-03T12:16:17.572Z</time></trkpt><trkpt lat="43.5145003" lon="10.6079097"><ele>256.6666666666667</ele><time>2026-05-03T12:16:18.573Z</time></trkpt><trkpt lat="43.5143462" lon="10.6081195"><ele>258.33333333333337</ele><time>2026-05-03T12:16:19.572Z</time></trkpt><trkpt lat="43.5141907" lon="10.6083193"><ele>260.0</ele><time>2026-05-03T12:16:20.573Z</time></trkpt><trkpt lat="43.5140388" lon="10.6085239"><ele>259.0</ele><time>2026-05-03T12:16:21.572Z</time></trkpt><trkpt lat="43.5138797" lon="10.608726"><ele>258.0</ele><time>2026-05-03T12:16:22.573Z</time></trkpt><trkpt lat="43.513736" lon="10.6089201"><ele>257.0</ele><time>2026-05-03T12:16:23.572Z</time></trkpt><trkpt lat="43.5135912" lon="10.6091159"><ele>262.6666666666667</ele><time>2026-05-03T12:16:24.572Z</time></trkpt><trkpt lat="43.5134598" lon="10.6093069"><ele>268.3333333333333</ele><time>2026-05-03T12:16:25.573Z</time></trkpt><trkpt lat="43.5133573" lon="10.6095162"><ele>274.0</ele><time>2026-05-03T12:16:26.571Z</time></trkpt><trkpt lat="43.513279" lon="10.6097379"><ele>275.66666666666663</ele><time>2026-05-03T12:16:27.572Z</time></trkpt><trkpt lat="43.5132256" lon="10.6099797"><ele>277.3333333333333</ele><time>2026-05-03T12:16:28.572Z</time></trkpt><trkpt lat="43.5131975" lon="10.6102278"><ele>279.0</ele><time>2026-05-03T12:16:29.572Z</time></trkpt><trkpt lat="43.5131747" lon="10.6104959"><ele>280.0</ele><time>2026-05-03T12:16:30.573Z</time></trkpt><trkpt lat="43.5131452" lon="10.6107646"><ele>281.0</ele><time>2026-05-03T12:16:31.572Z</time></trkpt><trkpt lat="43.5131159" lon="10.6110265"><ele>282.0</ele><time>2026-05-03T12:16:32.572Z</time></trkpt><trkpt lat="43.5130795" lon="10.6112615"><ele>282.6666666666667</ele><time>2026-05-03T12:16:33.572Z</time></trkpt><trkpt lat="43.5130297" lon="10.6114779"><ele>283.33333333333337</ele><time>2026-05-03T12:16:34.573Z</time></trkpt><trkpt lat="43.512956" lon="10.611662"><ele>284.0</ele><time>2026-05-03T12:16:35.574Z</time></trkpt><trkpt lat="43.512862" lon="10.6118133"><ele>284.25</ele><time>2026-05-03T12:16:36.572Z</time></trkpt><trkpt lat="43.5127437" lon="10.6119307"><ele>284.5</ele><time>2026-05-03T12:16:37.574Z</time></trkpt><trkpt lat="43.5126084" lon="10.6120089"><ele>284.75</ele><time>2026-05-03T12:16:38.571Z</time></trkpt><trkpt lat="43.5124653" lon="10.6120523"><ele>285.0</ele><time>2026-05-03T12:16:39.573Z</time></trkpt><trkpt lat="43.5122977" lon="10.6120596"><ele>286.6666666666667</ele><time>2026-05-03T12:16:40.572Z</time></trkpt><trkpt lat="43.5121215" lon="10.612046"><ele>288.33333333333337</ele><time>2026-05-03T12:16:41.573Z</time></trkpt><trkpt lat="43.5119403" lon="10.6120178"><ele>290.0</ele><time>2026-05-03T12:16:42.572Z</time></trkpt><trkpt lat="43.5117572" lon="10.6119893"><ele>286.6666666666667</ele><time>2026-05-03T12:16:43.571Z</time></trkpt><trkpt lat="43.511578" lon="10.6119838"><ele>283.3333333333333</ele><time>2026-05-03T12:16:44.573Z</time></trkpt><trkpt lat="43.5113985" lon="10.6119982"><ele>280.0</ele><time>2026-05-03T12:16:45.571Z</time></trkpt><trkpt lat="43.5112284" lon="10.6120374"><ele>279.66666666666663</ele><time>2026-05-03T12:16:46.572Z</time></trkpt><trkpt lat="43.5110665" lon="10.6121077"><ele>279.3333333333333</ele><time>2026-05-03T12:16:47.572Z</time></trkpt><trkpt lat="43.5109116" lon="10.6122019"><ele>279.0</ele><time>2026-05-03T12:16:48.572Z</time></trkpt><trkpt lat="43.5107655" lon="10.6123213"><ele>279.0</ele><time>2026-05-03T12:16:49.571Z</time></trkpt><trkpt lat="43.5106254" lon="10.6124603"><ele>279.0</ele><time>2026-05-03T12:16:50.573Z</time></trkpt><trkpt lat="43.5104872" lon="10.6126054"><ele>279.0</ele><time>2026-05-03T12:16:51.572Z</time></trkpt><trkpt lat="43.5103454" lon="10.6127396"><ele>281.0</ele><time>2026-05-03T12:16:52.572Z</time></trkpt><trkpt lat="43.5102088" lon="10.6128929"><ele>283.0</ele><time>2026-05-03T12:16:53.572Z</time></trkpt><trkpt lat="43.5100829" lon="10.6130568"><ele>285.0</ele><time>2026-05-03T12:16:54.572Z</time></trkpt><trkpt lat="43.50997" lon="10.6132395"><ele>285.0</ele><time>2026-05-03T12:16:55.573Z</time></trkpt><trkpt lat="43.5098667" lon="10.6134459"><ele>285.0</ele><time>2026-05-03T12:16:56.572Z</time></trkpt><trkpt lat="43.5097837" lon="10.6136688"><ele>285.0</ele><time>2026-05-03T12:16:57.571Z</time></trkpt><trkpt lat="43.5096992" lon="10.6138909"><ele>284.0</ele><time>2026-05-03T12:16:58.574Z</time></trkpt><trkpt lat="43.5096217" lon="10.614114"><ele>283.0</ele><time>2026-05-03T12:16:59.572Z</time></trkpt><trkpt lat="43.5095312" lon="10.6143238"><ele>282.0</ele><time>2026-05-03T12:17:00.572Z</time></trkpt><trkpt lat="43.5094586" lon="10.6145508"><ele>286.6666666666667</ele><time>2026-05-03T12:17:01.573Z</time></trkpt><trkpt lat="43.5093908" lon="10.6147808"><ele>291.33333333333337</ele><time>2026-05-03T12:17:02.573Z</time></trkpt><trkpt lat="43.5093448" lon="10.6150211"><ele>296.0</ele><time>2026-05-03T12:17:03.573Z</time></trkpt><trkpt lat="43.5092944" lon="10.6152317"><ele>295.5</ele><time>2026-05-03T12:17:04.572Z</time></trkpt><trkpt lat="43.5092501" lon="10.6154342"><ele>295.0</ele><time>2026-05-03T12:17:05.573Z</time></trkpt><trkpt lat="43.509203" lon="10.6156104"><ele>294.5</ele><time>2026-05-03T12:17:06.571Z</time></trkpt><trkpt lat="43.5091548" lon="10.6157593"><ele>294.0</ele><time>2026-05-03T12:17:07.573Z</time></trkpt><trkpt lat="43.5091066" lon="10.6158816"><ele>294.0</ele><time>2026-05-03T12:17:08.572Z</time></trkpt><trkpt lat="43.5090713" lon="10.6159979"><ele>294.0</ele><time>2026-05-03T12:17:09.573Z</time></trkpt><trkpt lat="43.509042" lon="10.6161095"><ele>294.0</ele><time>2026-05-03T12:17:10.572Z</time></trkpt><trkpt lat="43.509065" lon="10.616229"><ele>294.0</ele><time>2026-05-03T12:17:11.573Z</time></trkpt><trkpt lat="43.509072" lon="10.6163397"><ele>294.0</ele><time>2026-05-03T12:17:12.571Z</time></trkpt><trkpt lat="43.5090844" lon="10.6164534"><ele>294.0</ele><time>2026-05-03T12:17:13.573Z</time></trkpt><trkpt lat="43.5091279" lon="10.6165654"><ele>293.5</ele><time>2026-05-03T12:17:14.571Z</time></trkpt><trkpt lat="43.5091988" lon="10.6166856"><ele>293.0</ele><time>2026-05-03T12:17:15.572Z</time></trkpt><trkpt lat="43.5092787" lon="10.6168309"><ele>292.5</ele><time>2026-05-03T12:17:16.573Z</time></trkpt><trkpt lat="43.5093587" lon="10.6169943"><ele>292.0</ele><time>2026-05-03T12:17:17.572Z</time></trkpt><trkpt lat="43.509443" lon="10.6171709"><ele>290.75</ele><time>2026-05-03T12:17:18.573Z</time></trkpt><trkpt lat="43.509534" lon="10.6173359"><ele>289.5</ele><time>2026-05-03T12:17:19.572Z</time></trkpt><trkpt lat="43.5096232" lon="10.617492"><ele>288.25</ele><time>2026-05-03T12:17:20.573Z</time></trkpt><trkpt lat="43.5097024" lon="10.6176289"><ele>287.0</ele><time>2026-05-03T12:17:21.571Z</time></trkpt><trkpt lat="43.5097745" lon="10.6177682"><ele>286.2</ele><time>2026-05-03T12:17:22.572Z</time></trkpt><trkpt lat="43.5098367" lon="10.6178949"><ele>285.4</ele><time>2026-05-03T12:17:23.571Z</time></trkpt><trkpt lat="43.5098889" lon="10.618022"><ele>284.6</ele><time>2026-05-03T12:17:24.572Z</time></trkpt><trkpt lat="43.5099345" lon="10.6181479"><ele>283.8</ele><time>2026-05-03T12:17:25.572Z</time></trkpt><trkpt lat="43.5099658" lon="10.6182628"><ele>283.0</ele><time>2026-05-03T12:17:26.574Z</time></trkpt><trkpt lat="43.510004" lon="10.6183698"><ele>283.0</ele><time>2026-05-03T12:17:27.573Z</time></trkpt><trkpt lat="43.5100593" lon="10.6184607"><ele>283.0</ele><time>2026-05-03T12:17:28.573Z</time></trkpt><trkpt lat="43.5101252" lon="10.6185196"><ele>283.0</ele><time>2026-05-03T12:17:29.572Z</time></trkpt><trkpt lat="43.5101915" lon="10.6185378"><ele>283.0</ele><time>2026-05-03T12:17:30.573Z</time></trkpt><trkpt lat="43.5102636" lon="10.6185264"><ele>283.0</ele><time>2026-05-03T12:17:31.571Z</time></trkpt><trkpt lat="43.5103414" lon="10.6184701"><ele>283.0</ele><time>2026-05-03T12:17:32.572Z</time></trkpt><trkpt lat="43.5104117" lon="10.6183928"><ele>281.0</ele><time>2026-05-03T12:17:33.573Z</time></trkpt><trkpt lat="43.5104899" lon="10.6183198"><ele>279.0</ele><time>2026-05-03T12:17:34.573Z</time></trkpt><trkpt lat="43.5105744" lon="10.618252"><ele>277.0</ele><time>2026-05-03T12:17:35.572Z</time></trkpt><trkpt lat="43.5106549" lon="10.6181992"><ele>275.0</ele><time>2026-05-03T12:17:36.572Z</time></trkpt><trkpt lat="43.5107499" lon="10.618162"><ele>273.0</ele><time>2026-05-03T12:17:37.573Z</time></trkpt><trkpt lat="43.5108561" lon="10.6181347"><ele>273.0</ele><time>2026-05-03T12:17:38.572Z</time></trkpt><trkpt lat="43.5109689" lon="10.6181473"><ele>273.0</ele><time>2026-05-03T12:17:39.572Z</time></trkpt><trkpt lat="43.5110923" lon="10.618167"><ele>273.0</ele><time>2026-05-03T12:17:40.571Z</time></trkpt><trkpt lat="43.5112249" lon="10.6181956"><ele>273.0</ele><time>2026-05-03T12:17:41.572Z</time></trkpt><trkpt lat="43.5113611" lon="10.6182266"><ele>270.75</ele><time>2026-05-03T12:17:42.571Z</time></trkpt><trkpt lat="43.5114889" lon="10.6182553"><ele>268.5</ele><time>2026-05-03T12:17:43.572Z</time></trkpt><trkpt lat="43.5116184" lon="10.6182941"><ele>266.25</ele><time>2026-05-03T12:17:44.571Z</time></trkpt><trkpt lat="43.5117401" lon="10.6183478"><ele>264.0</ele><time>2026-05-03T12:17:45.572Z</time></trkpt><trkpt lat="43.5118489" lon="10.6184233"><ele>264.0</ele><time>2026-05-03T12:17:46.572Z</time></trkpt><trkpt lat="43.5119438" lon="10.6185103"><ele>264.0</ele><time>2026-05-03T12:17:47.574Z</time></trkpt><trkpt lat="43.5120379" lon="10.618606"><ele>264.0</ele><time>2026-05-03T12:17:48.572Z</time></trkpt><trkpt lat="43.5121384" lon="10.6187026"><ele>264.0</ele><time>2026-05-03T12:17:49.573Z</time></trkpt><trkpt lat="43.5122426" lon="10.6187872"><ele>261.75</ele><time>2026-05-03T12:17:50.571Z</time></trkpt><trkpt lat="43.5123675" lon="10.6188653"><ele>259.5</ele><time>2026-05-03T12:17:51.572Z</time></trkpt><trkpt lat="43.5125023" lon="10.6189342"><ele>257.25</ele><time>2026-05-03T12:17:52.572Z</time></trkpt><trkpt lat="43.5126462" lon="10.6189991"><ele>255.0</ele><time>2026-05-03T12:17:53.572Z</time></trkpt><trkpt lat="43.5128008" lon="10.6190646"><ele>252.0</ele><time>2026-05-03T12:17:54.573Z</time></trkpt><trkpt lat="43.5129561" lon="10.619133"><ele>249.0</ele><time>2026-05-03T12:17:55.572Z</time></trkpt><trkpt lat="43.5131093" lon="10.6192099"><ele>246.0</ele><time>2026-05-03T12:17:56.571Z</time></trkpt><trkpt lat="43.5132675" lon="10.6192813"><ele>246.0</ele><time>2026-05-03T12:17:57.573Z</time></trkpt><trkpt lat="43.5134032" lon="10.6193539"><ele>246.0</ele><time>2026-05-03T12:17:58.572Z</time></trkpt><trkpt lat="43.5135362" lon="10.6194125"><ele>246.0</ele><time>2026-05-03T12:17:59.573Z</time></trkpt><trkpt lat="43.5136613" lon="10.6194673"><ele>246.0</ele><time>2026-05-03T12:18:00.572Z</time></trkpt><trkpt lat="43.5137761" lon="10.6195145"><ele>244.0</ele><time>2026-05-03T12:18:01.572Z</time></trkpt><trkpt lat="43.5138776" lon="10.6195621"><ele>242.00000000000003</ele><time>2026-05-03T12:18:02.571Z</time></trkpt><trkpt lat="43.5139684" lon="10.619617"><ele>240.00000000000003</ele><time>2026-05-03T12:18:03.571Z</time></trkpt><trkpt lat="43.5140411" lon="10.6197016"><ele>238.0</ele><time>2026-05-03T12:18:04.572Z</time></trkpt><trkpt lat="43.5140851" lon="10.6198083"><ele>236.0</ele><time>2026-05-03T12:18:05.573Z</time></trkpt><trkpt lat="43.5140956" lon="10.6199326"><ele>236.0</ele><time>2026-05-03T12:18:06.572Z</time></trkpt><trkpt lat="43.514077" lon="10.6200676"><ele>236.0</ele><time>2026-05-03T12:18:07.572Z</time></trkpt><trkpt lat="43.5140315" lon="10.6202047"><ele>236.0</ele><time>2026-05-03T12:18:08.572Z</time></trkpt><trkpt lat="43.5139589" lon="10.6203435"><ele>236.0</ele><time>2026-05-03T12:18:09.571Z</time></trkpt><trkpt lat="43.5138789" lon="10.6204745"><ele>235.5</ele><time>2026-05-03T12:18:10.571Z</time></trkpt><trkpt lat="43.5137868" lon="10.6206032"><ele>235.0</ele><time>2026-05-03T12:18:11.572Z</time></trkpt><trkpt lat="43.5136992" lon="10.6207127"><ele>234.5</ele><time>2026-05-03T12:18:12.573Z</time></trkpt><trkpt lat="43.513616" lon="10.620822"><ele>234.0</ele><time>2026-05-03T12:18:13.573Z</time></trkpt><trkpt lat="43.5135388" lon="10.6209287"><ele>234.0</ele><time>2026-05-03T12:18:14.573Z</time></trkpt><trkpt lat="43.5134807" lon="10.6210347"><ele>234.0</ele><time>2026-05-03T12:18:15.573Z</time></trkpt><trkpt lat="43.5134515" lon="10.6211499"><ele>234.0</ele><time>2026-05-03T12:18:16.573Z</time></trkpt><trkpt lat="43.5134648" lon="10.6212672"><ele>234.0</ele><time>2026-05-03T12:18:17.572Z</time></trkpt><trkpt lat="43.5135891" lon="10.6214703"><ele>232.0</ele><time>2026-05-03T12:18:19.572Z</time></trkpt><trkpt lat="43.5137011" lon="10.6215333"><ele>230.0</ele><time>2026-05-03T12:18:20.572Z</time></trkpt><trkpt lat="43.5138401" lon="10.6215756"><ele>228.0</ele><time>2026-05-03T12:18:21.572Z</time></trkpt><trkpt lat="43.51399" lon="10.6216338"><ele>226.0</ele><time>2026-05-03T12:18:22.572Z</time></trkpt><trkpt lat="43.5141396" lon="10.6217218"><ele>225.0</ele><time>2026-05-03T12:18:23.572Z</time></trkpt><trkpt lat="43.5142806" lon="10.6218286"><ele>224.0</ele><time>2026-05-03T12:18:24.573Z</time></trkpt><trkpt lat="43.514428" lon="10.6219261"><ele>223.0</ele><time>2026-05-03T12:18:25.573Z</time></trkpt><trkpt lat="43.5145802" lon="10.6220089"><ele>220.0</ele><time>2026-05-03T12:18:26.572Z</time></trkpt><trkpt lat="43.5147507" lon="10.6220583"><ele>217.0</ele><time>2026-05-03T12:18:27.573Z</time></trkpt><trkpt lat="43.5149225" lon="10.6221017"><ele>214.0</ele><time>2026-05-03T12:18:28.572Z</time></trkpt><trkpt lat="43.5150956" lon="10.6221298"><ele>211.0</ele><time>2026-05-03T12:18:29.573Z</time></trkpt><trkpt lat="43.5154485" lon="10.6221509"><ele>208.0</ele><time>2026-05-03T12:18:31.572Z</time></trkpt><trkpt lat="43.5156189" lon="10.6221502"><ele>208.0</ele><time>2026-05-03T12:18:32.572Z</time></trkpt><trkpt lat="43.5157866" lon="10.6221543"><ele>208.0</ele><time>2026-05-03T12:18:33.572Z</time></trkpt><trkpt lat="43.5159425" lon="10.6221744"><ele>208.0</ele><time>2026-05-03T12:18:34.572Z</time></trkpt><trkpt lat="43.5160942" lon="10.6222111"><ele>206.33333333333331</ele><time>2026-05-03T12:18:35.572Z</time></trkpt><trkpt lat="43.5162378" lon="10.6222786"><ele>204.66666666666669</ele><time>2026-05-03T12:18:36.573Z</time></trkpt><trkpt lat="43.5163719" lon="10.6223718"><ele>203.0</ele><time>2026-05-03T12:18:37.573Z</time></trkpt><trkpt lat="43.5164961" lon="10.622494"><ele>203.0</ele><time>2026-05-03T12:18:38.571Z</time></trkpt><trkpt lat="43.5166027" lon="10.6226455"><ele>203.0</ele><time>2026-05-03T12:18:39.572Z</time></trkpt><trkpt lat="43.5166951" lon="10.6228203"><ele>203.0</ele><time>2026-05-03T12:18:40.572Z</time></trkpt><trkpt lat="43.5167724" lon="10.6230116"><ele>202.66666666666669</ele><time>2026-05-03T12:18:41.572Z</time></trkpt><trkpt lat="43.5168358" lon="10.6232185"><ele>202.33333333333331</ele><time>2026-05-03T12:18:42.572Z</time></trkpt><trkpt lat="43.5168871" lon="10.623421"><ele>202.0</ele><time>2026-05-03T12:18:43.573Z</time></trkpt><trkpt lat="43.5169396" lon="10.6236128"><ele>201.75</ele><time>2026-05-03T12:18:44.572Z</time></trkpt><trkpt lat="43.5169987" lon="10.6237726"><ele>201.5</ele><time>2026-05-03T12:18:45.572Z</time></trkpt><trkpt lat="43.5170789" lon="10.623906"><ele>201.25</ele><time>2026-05-03T12:18:46.573Z</time></trkpt><trkpt lat="43.5171856" lon="10.6240053"><ele>201.0</ele><time>2026-05-03T12:18:47.571Z</time></trkpt><trkpt lat="43.5173074" lon="10.6240786"><ele>198.0</ele><time>2026-05-03T12:18:48.572Z</time></trkpt><trkpt lat="43.5174641" lon="10.6241311"><ele>195.0</ele><time>2026-05-03T12:18:49.572Z</time></trkpt><trkpt lat="43.5176291" lon="10.6241764"><ele>192.0</ele><time>2026-05-03T12:18:50.572Z</time></trkpt><trkpt lat="43.5178059" lon="10.6242201"><ele>188.0</ele><time>2026-05-03T12:18:51.571Z</time></trkpt><trkpt lat="43.5179881" lon="10.6242626"><ele>184.0</ele><time>2026-05-03T12:18:52.573Z</time></trkpt><trkpt lat="43.5181634" lon="10.6243043"><ele>180.0</ele><time>2026-05-03T12:18:53.571Z</time></trkpt><trkpt lat="43.5183393" lon="10.6243465"><ele>180.0</ele><time>2026-05-03T12:18:54.572Z</time></trkpt><trkpt lat="43.518509" lon="10.6243928"><ele>180.0</ele><time>2026-05-03T12:18:55.573Z</time></trkpt><trkpt lat="43.5186752" lon="10.6244366"><ele>180.0</ele><time>2026-05-03T12:18:56.572Z</time></trkpt><trkpt lat="43.518838" lon="10.6244708"><ele>178.0</ele><time>2026-05-03T12:18:57.574Z</time></trkpt><trkpt lat="43.5189935" lon="10.624506"><ele>176.0</ele><time>2026-05-03T12:18:58.572Z</time></trkpt><trkpt lat="43.5191189" lon="10.6245338"><ele>174.0</ele><time>2026-05-03T12:18:59.572Z</time></trkpt><trkpt lat="43.5192139" lon="10.6245656"><ele>172.0</ele><time>2026-05-03T12:19:00.572Z</time></trkpt><trkpt lat="43.5193043" lon="10.6246349"><ele>172.0</ele><time>2026-05-03T12:19:02.572Z</time></trkpt><trkpt lat="43.5193325" lon="10.6247558"><ele>172.0</ele><time>2026-05-03T12:19:04.571Z</time></trkpt><trkpt lat="43.5192652" lon="10.6249108"><ele>172.0</ele><time>2026-05-03T12:19:06.571Z</time></trkpt><trkpt lat="43.5191967" lon="10.6250108"><ele>172.0</ele><time>2026-05-03T12:19:07.571Z</time></trkpt><trkpt lat="43.5190992" lon="10.6251217"><ele>172.0</ele><time>2026-05-03T12:19:08.571Z</time></trkpt><trkpt lat="43.518992" lon="10.62524"><ele>171.0</ele><time>2026-05-03T12:19:09.573Z</time></trkpt><trkpt lat="43.5188739" lon="10.6253816"><ele>170.0</ele><time>2026-05-03T12:19:10.572Z</time></trkpt><trkpt lat="43.5187422" lon="10.6255582"><ele>169.0</ele><time>2026-05-03T12:19:11.574Z</time></trkpt><trkpt lat="43.5186252" lon="10.6257395"><ele>169.0</ele><time>2026-05-03T12:19:12.571Z</time></trkpt><trkpt lat="43.5185103" lon="10.6259517"><ele>169.0</ele><time>2026-05-03T12:19:13.574Z</time></trkpt><trkpt lat="43.5183944" lon="10.6261758"><ele>169.0</ele><time>2026-05-03T12:19:14.571Z</time></trkpt><trkpt lat="43.51829" lon="10.6263767"><ele>167.66666666666669</ele><time>2026-05-03T12:19:15.573Z</time></trkpt><trkpt lat="43.5181844" lon="10.6265726"><ele>166.33333333333334</ele><time>2026-05-03T12:19:16.571Z</time></trkpt><trkpt lat="43.5180819" lon="10.6267454"><ele>165.0</ele><time>2026-05-03T12:19:17.572Z</time></trkpt><trkpt lat="43.5179786" lon="10.6268839"><ele>163.5</ele><time>2026-05-03T12:19:18.572Z</time></trkpt><trkpt lat="43.5178658" lon="10.626955"><ele>162.0</ele><time>2026-05-03T12:19:19.572Z</time></trkpt><trkpt lat="43.517751" lon="10.6270096"><ele>160.5</ele><time>2026-05-03T12:19:20.572Z</time></trkpt><trkpt lat="43.5176507" lon="10.627089"><ele>159.0</ele><time>2026-05-03T12:19:21.572Z</time></trkpt><trkpt lat="43.5175506" lon="10.6272176"><ele>159.0</ele><time>2026-05-03T12:19:22.572Z</time></trkpt><trkpt lat="43.5174654" lon="10.6273714"><ele>159.0</ele><time>2026-05-03T12:19:23.573Z</time></trkpt><trkpt lat="43.5173823" lon="10.6275331"><ele>159.0</ele><time>2026-05-03T12:19:24.572Z</time></trkpt><trkpt lat="43.5172851" lon="10.627673"><ele>159.0</ele><time>2026-05-03T12:19:25.572Z</time></trkpt><trkpt lat="43.5171756" lon="10.6277825"><ele>158.0</ele><time>2026-05-03T12:19:26.572Z</time></trkpt><trkpt lat="43.5170567" lon="10.6278897"><ele>157.0</ele><time>2026-05-03T12:19:27.572Z</time></trkpt><trkpt lat="43.5169206" lon="10.6279867"><ele>156.0</ele><time>2026-05-03T12:19:28.574Z</time></trkpt><trkpt lat="43.5167788" lon="10.6280863"><ele>156.0</ele><time>2026-05-03T12:19:29.572Z</time></trkpt><trkpt lat="43.5166371" lon="10.6281972"><ele>156.0</ele><time>2026-05-03T12:19:30.572Z</time></trkpt><trkpt lat="43.5165067" lon="10.6283135"><ele>156.0</ele><time>2026-05-03T12:19:31.572Z</time></trkpt><trkpt lat="43.5163932" lon="10.6284304"><ele>156.0</ele><time>2026-05-03T12:19:32.572Z</time></trkpt><trkpt lat="43.5163024" lon="10.6285577"><ele>156.0</ele><time>2026-05-03T12:19:33.572Z</time></trkpt><trkpt lat="43.5162383" lon="10.6287"><ele>156.0</ele><time>2026-05-03T12:19:34.573Z</time></trkpt><trkpt lat="43.5161999" lon="10.6288529"><ele>156.0</ele><time>2026-05-03T12:19:35.572Z</time></trkpt><trkpt lat="43.5161892" lon="10.6290262"><ele>156.0</ele><time>2026-05-03T12:19:36.572Z</time></trkpt><trkpt lat="43.5161936" lon="10.6291887"><ele>156.0</ele><time>2026-05-03T12:19:37.571Z</time></trkpt><trkpt lat="43.5161795" lon="10.629336"><ele>156.0</ele><time>2026-05-03T12:19:38.572Z</time></trkpt><trkpt lat="43.5161361" lon="10.629473"><ele>156.0</ele><time>2026-05-03T12:19:39.571Z</time></trkpt><trkpt lat="43.5160629" lon="10.629609"><ele>153.75</ele><time>2026-05-03T12:19:40.571Z</time></trkpt><trkpt lat="43.5159813" lon="10.6297435"><ele>151.5</ele><time>2026-05-03T12:19:41.572Z</time></trkpt><trkpt lat="43.5158958" lon="10.6298693"><ele>149.25</ele><time>2026-05-03T12:19:42.572Z</time></trkpt><trkpt lat="43.5158041" lon="10.6299647"><ele>147.0</ele><time>2026-05-03T12:19:43.572Z</time></trkpt><trkpt lat="43.5156996" lon="10.6300111"><ele>147.0</ele><time>2026-05-03T12:19:44.573Z</time></trkpt><trkpt lat="43.5155993" lon="10.6300142"><ele>147.0</ele><time>2026-05-03T12:19:45.571Z</time></trkpt><trkpt lat="43.5154905" lon="10.6300047"><ele>147.0</ele><time>2026-05-03T12:19:46.572Z</time></trkpt><trkpt lat="43.5153896" lon="10.6300094"><ele>147.0</ele><time>2026-05-03T12:19:47.571Z</time></trkpt><trkpt lat="43.515291" lon="10.6300439"><ele>147.0</ele><time>2026-05-03T12:19:48.572Z</time></trkpt><trkpt lat="43.5152062" lon="10.6301204"><ele>148.0</ele><time>2026-05-03T12:19:49.571Z</time></trkpt><trkpt lat="43.5151501" lon="10.6302367"><ele>149.0</ele><time>2026-05-03T12:19:50.573Z</time></trkpt><trkpt lat="43.5151292" lon="10.6303943"><ele>150.0</ele><time>2026-05-03T12:19:51.573Z</time></trkpt><trkpt lat="43.5151377" lon="10.6305701"><ele>151.0</ele><time>2026-05-03T12:19:52.572Z</time></trkpt><trkpt lat="43.5151715" lon="10.6307342"><ele>149.4</ele><time>2026-05-03T12:19:53.572Z</time></trkpt><trkpt lat="43.5152115" lon="10.6308743"><ele>147.8</ele><time>2026-05-03T12:19:54.572Z</time></trkpt><trkpt lat="43.5152374" lon="10.6310212"><ele>146.20000000000002</ele><time>2026-05-03T12:19:55.573Z</time></trkpt><trkpt lat="43.5152267" lon="10.6311535"><ele>144.6</ele><time>2026-05-03T12:19:56.572Z</time></trkpt><trkpt lat="43.5151828" lon="10.6312695"><ele>143.0</ele><time>2026-05-03T12:19:57.572Z</time></trkpt><trkpt lat="43.5151168" lon="10.6313637"><ele>142.0</ele><time>2026-05-03T12:19:58.573Z</time></trkpt><trkpt lat="43.5150188" lon="10.6313528"><ele>141.0</ele><time>2026-05-03T12:19:59.572Z</time></trkpt><trkpt lat="43.5149111" lon="10.6313179"><ele>140.0</ele><time>2026-05-03T12:20:00.572Z</time></trkpt><trkpt lat="43.5147853" lon="10.6312611"><ele>139.0</ele><time>2026-05-03T12:20:01.572Z</time></trkpt><trkpt lat="43.5146515" lon="10.6311865"><ele>140.5</ele><time>2026-05-03T12:20:02.572Z</time></trkpt><trkpt lat="43.5145133" lon="10.6311212"><ele>142.0</ele><time>2026-05-03T12:20:03.573Z</time></trkpt><trkpt lat="43.5143757" lon="10.6310791"><ele>143.5</ele><time>2026-05-03T12:20:04.572Z</time></trkpt><trkpt lat="43.514232" lon="10.6310977"><ele>145.0</ele><time>2026-05-03T12:20:05.571Z</time></trkpt><trkpt lat="43.5140957" lon="10.6311516"><ele>141.33333333333334</ele><time>2026-05-03T12:20:06.572Z</time></trkpt><trkpt lat="43.5139471" lon="10.6312443"><ele>137.66666666666666</ele><time>2026-05-03T12:20:07.572Z</time></trkpt><trkpt lat="43.513798" lon="10.6313562"><ele>134.0</ele><time>2026-05-03T12:20:08.572Z</time></trkpt><trkpt lat="43.5136592" lon="10.631479"><ele>134.0</ele><time>2026-05-03T12:20:09.571Z</time></trkpt><trkpt lat="43.5135322" lon="10.6316117"><ele>134.0</ele><time>2026-05-03T12:20:10.573Z</time></trkpt><trkpt lat="43.5134183" lon="10.631733"><ele>134.0</ele><time>2026-05-03T12:20:11.573Z</time></trkpt><trkpt lat="43.5133039" lon="10.6318207"><ele>134.0</ele><time>2026-05-03T12:20:12.572Z</time></trkpt><trkpt lat="43.5131827" lon="10.6318728"><ele>134.0</ele><time>2026-05-03T12:20:13.572Z</time></trkpt><trkpt lat="43.5130668" lon="10.6318823"><ele>134.0</ele><time>2026-05-03T12:20:14.572Z</time></trkpt><trkpt lat="43.5129651" lon="10.6318327"><ele>134.0</ele><time>2026-05-03T12:20:15.574Z</time></trkpt><trkpt lat="43.5128757" lon="10.631752"><ele>134.0</ele><time>2026-05-03T12:20:16.572Z</time></trkpt><trkpt lat="43.5128056" lon="10.6316526"><ele>134.0</ele><time>2026-05-03T12:20:17.573Z</time></trkpt><trkpt lat="43.5127232" lon="10.6315828"><ele>133.25</ele><time>2026-05-03T12:20:18.571Z</time></trkpt><trkpt lat="43.512631" lon="10.6315526"><ele>132.5</ele><time>2026-05-03T12:20:19.572Z</time></trkpt><trkpt lat="43.5125263" lon="10.6315856"><ele>131.75</ele><time>2026-05-03T12:20:20.573Z</time></trkpt><trkpt lat="43.5124133" lon="10.6316572"><ele>131.0</ele><time>2026-05-03T12:20:21.572Z</time></trkpt><trkpt lat="43.5122868" lon="10.6317523"><ele>131.0</ele><time>2026-05-03T12:20:22.572Z</time></trkpt><trkpt lat="43.5121487" lon="10.6318514"><ele>131.0</ele><time>2026-05-03T12:20:23.573Z</time></trkpt><trkpt lat="43.5120161" lon="10.6319563"><ele>131.0</ele><time>2026-05-03T12:20:24.573Z</time></trkpt><trkpt lat="43.51188" lon="10.6320703"><ele>130.25</ele><time>2026-05-03T12:20:25.572Z</time></trkpt><trkpt lat="43.5117758" lon="10.6321851"><ele>129.5</ele><time>2026-05-03T12:20:26.572Z</time></trkpt><trkpt lat="43.51167" lon="10.6322865"><ele>128.75</ele><time>2026-05-03T12:20:27.573Z</time></trkpt><trkpt lat="43.5115537" lon="10.6323895"><ele>128.0</ele><time>2026-05-03T12:20:28.572Z</time></trkpt><trkpt lat="43.5114431" lon="10.6324801"><ele>128.0</ele><time>2026-05-03T12:20:29.572Z</time></trkpt><trkpt lat="43.5113476" lon="10.6325625"><ele>128.0</ele><time>2026-05-03T12:20:30.571Z</time></trkpt><trkpt lat="43.5112796" lon="10.6326711"><ele>128.0</ele><time>2026-05-03T12:20:31.571Z</time></trkpt><trkpt lat="43.5112332" lon="10.632809"><ele>128.0</ele><time>2026-05-03T12:20:32.573Z</time></trkpt><trkpt lat="43.5112226" lon="10.6329704"><ele>128.0</ele><time>2026-05-03T12:20:33.574Z</time></trkpt><trkpt lat="43.5112224" lon="10.6331518"><ele>128.0</ele><time>2026-05-03T12:20:34.572Z</time></trkpt><trkpt lat="43.5113043" lon="10.6333467"><ele>128.0</ele><time>2026-05-03T12:20:35.572Z</time></trkpt><trkpt lat="43.5113935" lon="10.6335417"><ele>128.0</ele><time>2026-05-03T12:20:36.572Z</time></trkpt><trkpt lat="43.5114973" lon="10.6337262"><ele>129.75</ele><time>2026-05-03T12:20:37.572Z</time></trkpt><trkpt lat="43.5115917" lon="10.6338945"><ele>131.5</ele><time>2026-05-03T12:20:38.571Z</time></trkpt><trkpt lat="43.5116654" lon="10.6340666"><ele>133.25</ele><time>2026-05-03T12:20:39.572Z</time></trkpt><trkpt lat="43.511715" lon="10.6342293"><ele>135.0</ele><time>2026-05-03T12:20:40.572Z</time></trkpt><trkpt lat="43.5117356" lon="10.6343832"><ele>135.75</ele><time>2026-05-03T12:20:41.572Z</time></trkpt><trkpt lat="43.5117227" lon="10.634524"><ele>136.5</ele><time>2026-05-03T12:20:42.572Z</time></trkpt><trkpt lat="43.5116824" lon="10.6346596"><ele>137.25</ele><time>2026-05-03T12:20:43.572Z</time></trkpt><trkpt lat="43.5115965" lon="10.6347762"><ele>138.0</ele><time>2026-05-03T12:20:44.571Z</time></trkpt><trkpt lat="43.5114768" lon="10.6348768"><ele>138.0</ele><time>2026-05-03T12:20:45.572Z</time></trkpt><trkpt lat="43.5113284" lon="10.6349691"><ele>138.0</ele><time>2026-05-03T12:20:46.572Z</time></trkpt><trkpt lat="43.5111679" lon="10.6350678"><ele>138.0</ele><time>2026-05-03T12:20:47.572Z</time></trkpt><trkpt lat="43.5110125" lon="10.6351605"><ele>138.75</ele><time>2026-05-03T12:20:48.572Z</time></trkpt><trkpt lat="43.5108633" lon="10.6352187"><ele>139.5</ele><time>2026-05-03T12:20:49.572Z</time></trkpt><trkpt lat="43.5107206" lon="10.6352318"><ele>140.25</ele><time>2026-05-03T12:20:50.572Z</time></trkpt><trkpt lat="43.5105717" lon="10.6352142"><ele>141.0</ele><time>2026-05-03T12:20:51.572Z</time></trkpt><trkpt lat="43.5104152" lon="10.6351731"><ele>140.33333333333334</ele><time>2026-05-03T12:20:52.572Z</time></trkpt><trkpt lat="43.5102447" lon="10.635108"><ele>139.66666666666669</ele><time>2026-05-03T12:20:53.574Z</time></trkpt><trkpt lat="43.5100742" lon="10.6350264"><ele>139.0</ele><time>2026-05-03T12:20:54.571Z</time></trkpt><trkpt lat="43.5099149" lon="10.6349308"><ele>139.0</ele><time>2026-05-03T12:20:55.572Z</time></trkpt><trkpt lat="43.5097634" lon="10.6348293"><ele>139.0</ele><time>2026-05-03T12:20:56.572Z</time></trkpt><trkpt lat="43.5096192" lon="10.6347056"><ele>139.0</ele><time>2026-05-03T12:20:57.572Z</time></trkpt><trkpt lat="43.5094724" lon="10.634564"><ele>140.33333333333334</ele><time>2026-05-03T12:20:58.572Z</time></trkpt><trkpt lat="43.5093237" lon="10.6344126"><ele>141.66666666666666</ele><time>2026-05-03T12:20:59.571Z</time></trkpt><trkpt lat="43.5091735" lon="10.6342616"><ele>143.0</ele><time>2026-05-03T12:21:00.573Z</time></trkpt><trkpt lat="43.5090225" lon="10.6341164"><ele>143.0</ele><time>2026-05-03T12:21:01.571Z</time></trkpt><trkpt lat="43.5088869" lon="10.6339756"><ele>143.0</ele><time>2026-05-03T12:21:02.572Z</time></trkpt><trkpt lat="43.5087726" lon="10.6338347"><ele>143.0</ele><time>2026-05-03T12:21:03.571Z</time></trkpt><trkpt lat="43.5086796" lon="10.6336828"><ele>143.0</ele><time>2026-05-03T12:21:04.572Z</time></trkpt><trkpt lat="43.508607" lon="10.6335255"><ele>143.0</ele><time>2026-05-03T12:21:05.571Z</time></trkpt><trkpt lat="43.5085472" lon="10.6333818"><ele>143.0</ele><time>2026-05-03T12:21:06.572Z</time></trkpt><trkpt lat="43.5084811" lon="10.6332558"><ele>143.0</ele><time>2026-05-03T12:21:07.572Z</time></trkpt><trkpt lat="43.5084051" lon="10.6331569"><ele>143.0</ele><time>2026-05-03T12:21:08.572Z</time></trkpt><trkpt lat="43.5083134" lon="10.6331034"><ele>143.0</ele><time>2026-05-03T12:21:09.572Z</time></trkpt><trkpt lat="43.5082072" lon="10.6330968"><ele>143.0</ele><time>2026-05-03T12:21:10.572Z</time></trkpt><trkpt lat="43.5081013" lon="10.6331585"><ele>143.0</ele><time>2026-05-03T12:21:11.573Z</time></trkpt><trkpt lat="43.5079982" lon="10.6332333"><ele>143.0</ele><time>2026-05-03T12:21:12.572Z</time></trkpt><trkpt lat="43.5079004" lon="10.6333031"><ele>141.8</ele><time>2026-05-03T12:21:13.571Z</time></trkpt><trkpt lat="43.5078068" lon="10.6333248"><ele>140.60000000000002</ele><time>2026-05-03T12:21:14.572Z</time></trkpt><trkpt lat="43.5077306" lon="10.6332986"><ele>139.39999999999998</ele><time>2026-05-03T12:21:15.573Z</time></trkpt><trkpt lat="43.50767" lon="10.6332209"><ele>138.2</ele><time>2026-05-03T12:21:16.573Z</time></trkpt><trkpt lat="43.5076269" lon="10.6331015"><ele>137.0</ele><time>2026-05-03T12:21:17.572Z</time></trkpt><trkpt lat="43.5075863" lon="10.6329568"><ele>137.0</ele><time>2026-05-03T12:21:18.573Z</time></trkpt><trkpt lat="43.5075264" lon="10.6328131"><ele>137.0</ele><time>2026-05-03T12:21:19.572Z</time></trkpt><trkpt lat="43.5074503" lon="10.6326815"><ele>137.0</ele><time>2026-05-03T12:21:20.572Z</time></trkpt><trkpt lat="43.5073562" lon="10.6325499"><ele>137.0</ele><time>2026-05-03T12:21:21.573Z</time></trkpt><trkpt lat="43.5072458" lon="10.6324343"><ele>138.0</ele><time>2026-05-03T12:21:22.573Z</time></trkpt><trkpt lat="43.5071162" lon="10.6323448"><ele>139.0</ele><time>2026-05-03T12:21:23.572Z</time></trkpt><trkpt lat="43.5069583" lon="10.6322754"><ele>140.0</ele><time>2026-05-03T12:21:24.572Z</time></trkpt><trkpt lat="43.50678" lon="10.6322238"><ele>140.0</ele><time>2026-05-03T12:21:25.571Z</time></trkpt><trkpt lat="43.5066025" lon="10.6321718"><ele>140.0</ele><time>2026-05-03T12:21:26.571Z</time></trkpt><trkpt lat="43.5064154" lon="10.6321256"><ele>140.0</ele><time>2026-05-03T12:21:27.573Z</time></trkpt><trkpt lat="43.5062414" lon="10.6320926"><ele>140.0</ele><time>2026-05-03T12:21:28.572Z</time></trkpt><trkpt lat="43.5060799" lon="10.6320755"><ele>140.0</ele><time>2026-05-03T12:21:29.572Z</time></trkpt><trkpt lat="43.5059273" lon="10.6320957"><ele>140.0</ele><time>2026-05-03T12:21:30.572Z</time></trkpt><trkpt lat="43.5057851" lon="10.6321423"><ele>140.0</ele><time>2026-05-03T12:21:31.572Z</time></trkpt><trkpt lat="43.5056399" lon="10.6321963"><ele>140.0</ele><time>2026-05-03T12:21:32.572Z</time></trkpt><trkpt lat="43.5055017" lon="10.6322782"><ele>140.0</ele><time>2026-05-03T12:21:33.571Z</time></trkpt><trkpt lat="43.5053783" lon="10.6323477"><ele>140.0</ele><time>2026-05-03T12:21:34.573Z</time></trkpt><trkpt lat="43.505273" lon="10.6324072"><ele>141.4</ele><time>2026-05-03T12:21:35.572Z</time></trkpt><trkpt lat="43.5051892" lon="10.6324675"><ele>142.8</ele><time>2026-05-03T12:21:36.571Z</time></trkpt><trkpt lat="43.5051267" lon="10.6325563"><ele>144.2</ele><time>2026-05-03T12:21:37.571Z</time></trkpt><trkpt lat="43.505091" lon="10.6326835"><ele>145.6</ele><time>2026-05-03T12:21:38.573Z</time></trkpt><trkpt lat="43.5050811" lon="10.6328394"><ele>147.0</ele><time>2026-05-03T12:21:39.572Z</time></trkpt><trkpt lat="43.505092" lon="10.6330094"><ele>147.5</ele><time>2026-05-03T12:21:40.573Z</time></trkpt><trkpt lat="43.5051252" lon="10.6332048"><ele>148.0</ele><time>2026-05-03T12:21:41.572Z</time></trkpt><trkpt lat="43.5051578" lon="10.6334053"><ele>148.5</ele><time>2026-05-03T12:21:42.572Z</time></trkpt><trkpt lat="43.5051705" lon="10.6336054"><ele>149.0</ele><time>2026-05-03T12:21:43.572Z</time></trkpt><trkpt lat="43.5051649" lon="10.6338131"><ele>149.0</ele><time>2026-05-03T12:21:44.571Z</time></trkpt><trkpt lat="43.5051412" lon="10.6340101"><ele>149.0</ele><time>2026-05-03T12:21:45.573Z</time></trkpt><trkpt lat="43.505126" lon="10.6342047"><ele>149.0</ele><time>2026-05-03T12:21:46.572Z</time></trkpt><trkpt lat="43.505134" lon="10.6344082"><ele>149.0</ele><time>2026-05-03T12:21:47.572Z</time></trkpt><trkpt lat="43.5051724" lon="10.6346187"><ele>150.0</ele><time>2026-05-03T12:21:48.572Z</time></trkpt><trkpt lat="43.5052213" lon="10.6348047"><ele>151.0</ele><time>2026-05-03T12:21:49.572Z</time></trkpt><trkpt lat="43.5052579" lon="10.634988"><ele>152.0</ele><time>2026-05-03T12:21:50.572Z</time></trkpt><trkpt lat="43.5052669" lon="10.6351621"><ele>153.0</ele><time>2026-05-03T12:21:51.572Z</time></trkpt><trkpt lat="43.5052489" lon="10.6353403"><ele>154.0</ele><time>2026-05-03T12:21:52.573Z</time></trkpt><trkpt lat="43.5052087" lon="10.6355098"><ele>155.0</ele><time>2026-05-03T12:21:53.573Z</time></trkpt><trkpt lat="43.5051874" lon="10.6356671"><ele>156.0</ele><time>2026-05-03T12:21:54.572Z</time></trkpt><trkpt lat="43.505198" lon="10.6358247"><ele>157.0</ele><time>2026-05-03T12:21:55.572Z</time></trkpt><trkpt lat="43.505246" lon="10.6359809"><ele>157.0</ele><time>2026-05-03T12:21:56.572Z</time></trkpt><trkpt lat="43.5053132" lon="10.636108"><ele>157.0</ele><time>2026-05-03T12:21:57.572Z</time></trkpt><trkpt lat="43.5053822" lon="10.6362323"><ele>157.0</ele><time>2026-05-03T12:21:58.572Z</time></trkpt><trkpt lat="43.5054277" lon="10.6363744"><ele>157.0</ele><time>2026-05-03T12:21:59.572Z</time></trkpt><trkpt lat="43.5054484" lon="10.6365228"><ele>157.33333333333334</ele><time>2026-05-03T12:22:00.573Z</time></trkpt><trkpt lat="43.5054277" lon="10.6366577"><ele>157.66666666666669</ele><time>2026-05-03T12:22:01.572Z</time></trkpt><trkpt lat="43.5053775" lon="10.6367621"><ele>158.0</ele><time>2026-05-03T12:22:02.572Z</time></trkpt><trkpt lat="43.505308" lon="10.6368125"><ele>158.33333333333334</ele><time>2026-05-03T12:22:03.572Z</time></trkpt><trkpt lat="43.5052237" lon="10.6368087"><ele>158.66666666666666</ele><time>2026-05-03T12:22:04.572Z</time></trkpt><trkpt lat="43.5051477" lon="10.6367415"><ele>159.0</ele><time>2026-05-03T12:22:05.573Z</time></trkpt><trkpt lat="43.5050983" lon="10.6366271"><ele>159.0</ele><time>2026-05-03T12:22:06.572Z</time></trkpt><trkpt lat="43.5050697" lon="10.6364753"><ele>159.0</ele><time>2026-05-03T12:22:07.572Z</time></trkpt><trkpt lat="43.5050338" lon="10.6363238"><ele>159.0</ele><time>2026-05-03T12:22:08.572Z</time></trkpt><trkpt lat="43.5049693" lon="10.6361644"><ele>159.0</ele><time>2026-05-03T12:22:09.572Z</time></trkpt><trkpt lat="43.5048909" lon="10.6360174"><ele>158.33333333333334</ele><time>2026-05-03T12:22:10.573Z</time></trkpt><trkpt lat="43.5047871" lon="10.6358698"><ele>157.66666666666669</ele><time>2026-05-03T12:22:11.572Z</time></trkpt><trkpt lat="43.504668" lon="10.6357197"><ele>157.0</ele><time>2026-05-03T12:22:12.573Z</time></trkpt><trkpt lat="43.5045488" lon="10.6355768"><ele>159.5</ele><time>2026-05-03T12:22:13.572Z</time></trkpt><trkpt lat="43.50444" lon="10.6354412"><ele>162.0</ele><time>2026-05-03T12:22:14.572Z</time></trkpt><trkpt lat="43.5043554" lon="10.6353363"><ele>164.5</ele><time>2026-05-03T12:22:15.572Z</time></trkpt><trkpt lat="43.5042746" lon="10.6352572"><ele>167.0</ele><time>2026-05-03T12:22:16.572Z</time></trkpt><trkpt lat="43.5041875" lon="10.6352231"><ele>167.0</ele><time>2026-05-03T12:22:17.572Z</time></trkpt><trkpt lat="43.5040999" lon="10.635232"><ele>167.0</ele><time>2026-05-03T12:22:18.572Z</time></trkpt><trkpt lat="43.5040172" lon="10.6352942"><ele>167.0</ele><time>2026-05-03T12:22:19.572Z</time></trkpt><trkpt lat="43.5039507" lon="10.635403"><ele>167.0</ele><time>2026-05-03T12:22:20.572Z</time></trkpt><trkpt lat="43.5039025" lon="10.6355486"><ele>167.0</ele><time>2026-05-03T12:22:21.572Z</time></trkpt><trkpt lat="43.503873" lon="10.6357058"><ele>167.0</ele><time>2026-05-03T12:22:22.572Z</time></trkpt><trkpt lat="43.5038332" lon="10.6358661"><ele>167.0</ele><time>2026-05-03T12:22:23.571Z</time></trkpt><trkpt lat="43.5037658" lon="10.6360085"><ele>167.0</ele><time>2026-05-03T12:22:24.572Z</time></trkpt><trkpt lat="43.5036753" lon="10.6361263"><ele>167.0</ele><time>2026-05-03T12:22:25.572Z</time></trkpt><trkpt lat="43.5035603" lon="10.6362346"><ele>168.66666666666666</ele><time>2026-05-03T12:22:26.572Z</time></trkpt><trkpt lat="43.5034265" lon="10.6363357"><ele>170.33333333333334</ele><time>2026-05-03T12:22:27.572Z</time></trkpt><trkpt lat="43.5032944" lon="10.6364342"><ele>172.0</ele><time>2026-05-03T12:22:28.571Z</time></trkpt><trkpt lat="43.5031565" lon="10.6365192"><ele>172.0</ele><time>2026-05-03T12:22:29.571Z</time></trkpt><trkpt lat="43.5030311" lon="10.6365738"><ele>172.0</ele><time>2026-05-03T12:22:30.571Z</time></trkpt><trkpt lat="43.50291" lon="10.6365861"><ele>172.0</ele><time>2026-05-03T12:22:31.572Z</time></trkpt><trkpt lat="43.5027973" lon="10.6365918"><ele>172.0</ele><time>2026-05-03T12:22:32.572Z</time></trkpt><trkpt lat="43.5026944" lon="10.6366338"><ele>173.0</ele><time>2026-05-03T12:22:33.572Z</time></trkpt><trkpt lat="43.5025984" lon="10.6367146"><ele>174.0</ele><time>2026-05-03T12:22:34.572Z</time></trkpt><trkpt lat="43.5025095" lon="10.6368378"><ele>175.0</ele><time>2026-05-03T12:22:35.572Z</time></trkpt><trkpt lat="43.5024203" lon="10.6370013"><ele>176.0</ele><time>2026-05-03T12:22:36.572Z</time></trkpt><trkpt lat="43.5023152" lon="10.6371656"><ele>176.0</ele><time>2026-05-03T12:22:37.572Z</time></trkpt><trkpt lat="43.5021798" lon="10.6373428"><ele>176.0</ele><time>2026-05-03T12:22:38.572Z</time></trkpt><trkpt lat="43.5020441" lon="10.6375069"><ele>176.0</ele><time>2026-05-03T12:22:39.571Z</time></trkpt><trkpt lat="43.5019181" lon="10.637653"><ele>178.0</ele><time>2026-05-03T12:22:40.572Z</time></trkpt><trkpt lat="43.501806" lon="10.6377931"><ele>180.0</ele><time>2026-05-03T12:22:41.572Z</time></trkpt><trkpt lat="43.5017168" lon="10.6379316"><ele>182.0</ele><time>2026-05-03T12:22:42.572Z</time></trkpt><trkpt lat="43.501657" lon="10.6380933"><ele>184.0</ele><time>2026-05-03T12:22:43.571Z</time></trkpt><trkpt lat="43.501629" lon="10.6382781"><ele>184.0</ele><time>2026-05-03T12:22:44.572Z</time></trkpt><trkpt lat="43.5016172" lon="10.63849"><ele>184.0</ele><time>2026-05-03T12:22:45.572Z</time></trkpt><trkpt lat="43.5015951" lon="10.6387035"><ele>184.0</ele><time>2026-05-03T12:22:46.572Z</time></trkpt><trkpt lat="43.5015129" lon="10.6389088"><ele>183.0</ele><time>2026-05-03T12:22:47.572Z</time></trkpt><trkpt lat="43.5014239" lon="10.6391261"><ele>182.0</ele><time>2026-05-03T12:22:48.573Z</time></trkpt><trkpt lat="43.5013218" lon="10.6393409"><ele>181.0</ele><time>2026-05-03T12:22:49.572Z</time></trkpt><trkpt lat="43.5012275" lon="10.6394937"><ele>183.0</ele><time>2026-05-03T12:22:50.572Z</time></trkpt><trkpt lat="43.5011306" lon="10.6396267"><ele>185.0</ele><time>2026-05-03T12:22:51.572Z</time></trkpt><trkpt lat="43.5010176" lon="10.6397351"><ele>187.0</ele><time>2026-05-03T12:22:52.572Z</time></trkpt><trkpt lat="43.5009026" lon="10.6398178"><ele>189.0</ele><time>2026-05-03T12:22:53.571Z</time></trkpt><trkpt lat="43.5007868" lon="10.6398697"><ele>189.0</ele><time>2026-05-03T12:22:54.571Z</time></trkpt><trkpt lat="43.5006794" lon="10.6398872"><ele>189.0</ele><time>2026-05-03T12:22:55.572Z</time></trkpt><trkpt lat="43.5005544" lon="10.6398603"><ele>189.0</ele><time>2026-05-03T12:22:56.571Z</time></trkpt><trkpt lat="43.5004214" lon="10.6398308"><ele>189.0</ele><time>2026-05-03T12:22:57.571Z</time></trkpt><trkpt lat="43.500257" lon="10.6397939"><ele>190.25</ele><time>2026-05-03T12:22:58.572Z</time></trkpt><trkpt lat="43.5001012" lon="10.6397567"><ele>191.5</ele><time>2026-05-03T12:22:59.571Z</time></trkpt><trkpt lat="43.4999556" lon="10.6397271"><ele>192.75</ele><time>2026-05-03T12:23:00.571Z</time></trkpt><trkpt lat="43.4998161" lon="10.6396997"><ele>194.0</ele><time>2026-05-03T12:23:01.572Z</time></trkpt><trkpt lat="43.499696" lon="10.6397081"><ele>196.25</ele><time>2026-05-03T12:23:02.572Z</time></trkpt><trkpt lat="43.4995754" lon="10.639725"><ele>198.5</ele><time>2026-05-03T12:23:03.571Z</time></trkpt><trkpt lat="43.4994698" lon="10.6397844"><ele>200.75</ele><time>2026-05-03T12:23:04.572Z</time></trkpt><trkpt lat="43.499373" lon="10.6399082"><ele>203.0</ele><time>2026-05-03T12:23:05.572Z</time></trkpt><trkpt lat="43.4992913" lon="10.6400478"><ele>203.0</ele><time>2026-05-03T12:23:06.572Z</time></trkpt><trkpt lat="43.4992004" lon="10.6402078"><ele>203.0</ele><time>2026-05-03T12:23:07.572Z</time></trkpt><trkpt lat="43.4991091" lon="10.6403584"><ele>203.0</ele><time>2026-05-03T12:23:08.571Z</time></trkpt><trkpt lat="43.4990201" lon="10.6404802"><ele>203.0</ele><time>2026-05-03T12:23:09.572Z</time></trkpt><trkpt lat="43.4989244" lon="10.640568"><ele>203.2</ele><time>2026-05-03T12:23:10.572Z</time></trkpt><trkpt lat="43.4988348" lon="10.6406058"><ele>203.4</ele><time>2026-05-03T12:23:11.572Z</time></trkpt><trkpt lat="43.4987336" lon="10.6405814"><ele>203.6</ele><time>2026-05-03T12:23:12.572Z</time></trkpt><trkpt lat="43.4986224" lon="10.640513"><ele>203.79999999999998</ele><time>2026-05-03T12:23:13.572Z</time></trkpt><trkpt lat="43.4985149" lon="10.6404332"><ele>204.0</ele><time>2026-05-03T12:23:14.572Z</time></trkpt><trkpt lat="43.4984038" lon="10.6403907"><ele>204.0</ele><time>2026-05-03T12:23:15.572Z</time></trkpt><trkpt lat="43.4982961" lon="10.6403918"><ele>204.0</ele><time>2026-05-03T12:23:16.572Z</time></trkpt><trkpt lat="43.4981973" lon="10.6404501"><ele>204.0</ele><time>2026-05-03T12:23:17.572Z</time></trkpt><trkpt lat="43.4981211" lon="10.6405606"><ele>204.0</ele><time>2026-05-03T12:23:18.572Z</time></trkpt><trkpt lat="43.4980664" lon="10.6406838"><ele>204.0</ele><time>2026-05-03T12:23:19.571Z</time></trkpt><trkpt lat="43.4980024" lon="10.6408226"><ele>204.0</ele><time>2026-05-03T12:23:20.572Z</time></trkpt><trkpt lat="43.4979222" lon="10.6409286"><ele>204.0</ele><time>2026-05-03T12:23:21.572Z</time></trkpt><trkpt lat="43.4978301" lon="10.6410293"><ele>204.0</ele><time>2026-05-03T12:23:22.572Z</time></trkpt><trkpt lat="43.4977102" lon="10.6411002"><ele>204.0</ele><time>2026-05-03T12:23:23.571Z</time></trkpt><trkpt lat="43.4975712" lon="10.6411741"><ele>204.75</ele><time>2026-05-03T12:23:24.571Z</time></trkpt><trkpt lat="43.4974373" lon="10.6412511"><ele>205.5</ele><time>2026-05-03T12:23:25.572Z</time></trkpt><trkpt lat="43.4973149" lon="10.6413232"><ele>206.25</ele><time>2026-05-03T12:23:26.572Z</time></trkpt><trkpt lat="43.4972236" lon="10.6413824"><ele>207.0</ele><time>2026-05-03T12:23:27.572Z</time></trkpt><trkpt lat="43.4971514" lon="10.6414825"><ele>207.0</ele><time>2026-05-03T12:23:28.571Z</time></trkpt><trkpt lat="43.4971087" lon="10.6416144"><ele>207.0</ele><time>2026-05-03T12:23:29.572Z</time></trkpt><trkpt lat="43.4970733" lon="10.6417718"><ele>207.0</ele><time>2026-05-03T12:23:30.572Z</time></trkpt><trkpt lat="43.4970501" lon="10.6419557"><ele>207.0</ele><time>2026-05-03T12:23:31.572Z</time></trkpt><trkpt lat="43.4970278" lon="10.6422251"><ele>211.66666666666669</ele><time>2026-05-03T12:23:32.571Z</time></trkpt><trkpt lat="43.4969994" lon="10.6424648"><ele>216.33333333333334</ele><time>2026-05-03T12:23:33.572Z</time></trkpt><trkpt lat="43.4969611" lon="10.6427086"><ele>221.0</ele><time>2026-05-03T12:23:34.572Z</time></trkpt><trkpt lat="43.4969251" lon="10.6429278"><ele>221.0</ele><time>2026-05-03T12:23:35.572Z</time></trkpt><trkpt lat="43.496885" lon="10.6431297"><ele>221.0</ele><time>2026-05-03T12:23:36.573Z</time></trkpt><trkpt lat="43.4968476" lon="10.6433086"><ele>221.0</ele><time>2026-05-03T12:23:37.573Z</time></trkpt><trkpt lat="43.496803" lon="10.6434554"><ele>221.0</ele><time>2026-05-03T12:23:38.572Z</time></trkpt><trkpt lat="43.4967422" lon="10.6436009"><ele>217.0</ele><time>2026-05-03T12:23:39.571Z</time></trkpt><trkpt lat="43.4966602" lon="10.643719"><ele>213.0</ele><time>2026-05-03T12:23:40.572Z</time></trkpt><trkpt lat="43.4965583" lon="10.6437789"><ele>209.0</ele><time>2026-05-03T12:23:41.572Z</time></trkpt><trkpt lat="43.4964382" lon="10.6438175"><ele>205.0</ele><time>2026-05-03T12:23:42.573Z</time></trkpt><trkpt lat="43.4963185" lon="10.6437768"><ele>208.5</ele><time>2026-05-03T12:23:43.572Z</time></trkpt><trkpt lat="43.4961889" lon="10.6437387"><ele>212.0</ele><time>2026-05-03T12:23:44.572Z</time></trkpt><trkpt lat="43.4960678" lon="10.6436762"><ele>215.5</ele><time>2026-05-03T12:23:45.572Z</time></trkpt><trkpt lat="43.4959526" lon="10.6436189"><ele>219.0</ele><time>2026-05-03T12:23:46.573Z</time></trkpt><trkpt lat="43.4958546" lon="10.6436246"><ele>219.0</ele><time>2026-05-03T12:23:47.573Z</time></trkpt><trkpt lat="43.4957556" lon="10.6436161"><ele>218.99999999999997</ele><time>2026-05-03T12:23:48.573Z</time></trkpt><trkpt lat="43.4956974" lon="10.6437319"><ele>218.99999999999997</ele><time>2026-05-03T12:23:49.572Z</time></trkpt><trkpt lat="43.4956533" lon="10.6438401"><ele>219.0</ele><time>2026-05-03T12:23:50.572Z</time></trkpt><trkpt lat="43.4956377" lon="10.6439753"><ele>219.0</ele><time>2026-05-03T12:23:51.572Z</time></trkpt><trkpt lat="43.4956534" lon="10.6440964"><ele>219.0</ele><time>2026-05-03T12:23:52.572Z</time></trkpt><trkpt lat="43.4956974" lon="10.6442123"><ele>218.99999999999997</ele><time>2026-05-03T12:23:53.57Z</time></trkpt><trkpt lat="43.4957282" lon="10.6443238"><ele>218.99999999999997</ele><time>2026-05-03T12:23:54.573Z</time></trkpt><trkpt lat="43.4957248" lon="10.6444501"><ele>219.0</ele><time>2026-05-03T12:23:55.573Z</time></trkpt><trkpt lat="43.4956869" lon="10.6445681"><ele>219.0</ele><time>2026-05-03T12:23:56.571Z</time></trkpt><trkpt lat="43.4956262" lon="10.6446697"><ele>217.5</ele><time>2026-05-03T12:23:57.572Z</time></trkpt><trkpt lat="43.4955288" lon="10.644704"><ele>216.0</ele><time>2026-05-03T12:23:58.572Z</time></trkpt><trkpt lat="43.4954062" lon="10.6447262"><ele>214.5</ele><time>2026-05-03T12:23:59.572Z</time></trkpt><trkpt lat="43.4952756" lon="10.6447131"><ele>213.0</ele><time>2026-05-03T12:24:00.571Z</time></trkpt><trkpt lat="43.4951581" lon="10.6446638"><ele>213.0</ele><time>2026-05-03T12:24:01.571Z</time></trkpt><trkpt lat="43.4950484" lon="10.6445615"><ele>213.0</ele><time>2026-05-03T12:24:02.572Z</time></trkpt><trkpt lat="43.4949614" lon="10.6444404"><ele>213.0</ele><time>2026-05-03T12:24:03.572Z</time></trkpt><trkpt lat="43.4949067" lon="10.6442919"><ele>213.0</ele><time>2026-05-03T12:24:04.571Z</time></trkpt><trkpt lat="43.4948631" lon="10.6441507"><ele>215.8</ele><time>2026-05-03T12:24:05.572Z</time></trkpt><trkpt lat="43.494798" lon="10.6440388"><ele>218.60000000000002</ele><time>2026-05-03T12:24:06.571Z</time></trkpt><trkpt lat="43.4947033" lon="10.6439633"><ele>221.39999999999998</ele><time>2026-05-03T12:24:07.571Z</time></trkpt><trkpt lat="43.4945919" lon="10.6439233"><ele>224.2</ele><time>2026-05-03T12:24:08.572Z</time></trkpt><trkpt lat="43.4944717" lon="10.6439304"><ele>227.0</ele><time>2026-05-03T12:24:09.571Z</time></trkpt><trkpt lat="43.4943496" lon="10.6439561"><ele>227.0</ele><time>2026-05-03T12:24:10.571Z</time></trkpt><trkpt lat="43.494228" lon="10.643946"><ele>227.0</ele><time>2026-05-03T12:24:11.572Z</time></trkpt><trkpt lat="43.494112" lon="10.6438897"><ele>227.0</ele><time>2026-05-03T12:24:12.572Z</time></trkpt><trkpt lat="43.494006" lon="10.6437814"><ele>227.0</ele><time>2026-05-03T12:24:13.572Z</time></trkpt><trkpt lat="43.4939141" lon="10.6437078"><ele>227.0</ele><time>2026-05-03T12:24:14.572Z</time></trkpt><trkpt lat="43.493829" lon="10.643677"><ele>227.0</ele><time>2026-05-03T12:24:15.572Z</time></trkpt><trkpt lat="43.4937439" lon="10.6436974"><ele>227.0</ele><time>2026-05-03T12:24:16.572Z</time></trkpt><trkpt lat="43.4936507" lon="10.6437737"><ele>227.0</ele><time>2026-05-03T12:24:17.572Z</time></trkpt><trkpt lat="43.4935542" lon="10.6438934"><ele>227.0</ele><time>2026-05-03T12:24:18.572Z</time></trkpt><trkpt lat="43.4934586" lon="10.6440162"><ele>230.0</ele><time>2026-05-03T12:24:19.572Z</time></trkpt><trkpt lat="43.4933437" lon="10.6441163"><ele>233.0</ele><time>2026-05-03T12:24:20.572Z</time></trkpt><trkpt lat="43.4932072" lon="10.6441867"><ele>236.0</ele><time>2026-05-03T12:24:21.572Z</time></trkpt><trkpt lat="43.4930426" lon="10.6442356"><ele>239.33333333333334</ele><time>2026-05-03T12:24:22.571Z</time></trkpt><trkpt lat="43.4928748" lon="10.6442774"><ele>242.66666666666669</ele><time>2026-05-03T12:24:23.571Z</time></trkpt><trkpt lat="43.4927257" lon="10.6443179"><ele>246.0</ele><time>2026-05-03T12:24:24.571Z</time></trkpt><trkpt lat="43.4925951" lon="10.6443732"><ele>246.0</ele><time>2026-05-03T12:24:25.572Z</time></trkpt><trkpt lat="43.4924877" lon="10.6444549"><ele>246.00000000000003</ele><time>2026-05-03T12:24:26.571Z</time></trkpt><trkpt lat="43.4924159" lon="10.6445583"><ele>246.00000000000003</ele><time>2026-05-03T12:24:27.572Z</time></trkpt><trkpt lat="43.4923682" lon="10.6446797"><ele>246.0</ele><time>2026-05-03T12:24:28.572Z</time></trkpt><trkpt lat="43.4923386" lon="10.6448405"><ele>246.0</ele><time>2026-05-03T12:24:29.572Z</time></trkpt><trkpt lat="43.4923298" lon="10.6450097"><ele>244.25</ele><time>2026-05-03T12:24:30.571Z</time></trkpt><trkpt lat="43.4923301" lon="10.6451954"><ele>242.5</ele><time>2026-05-03T12:24:31.572Z</time></trkpt><trkpt lat="43.4923225" lon="10.6453816"><ele>240.75</ele><time>2026-05-03T12:24:32.571Z</time></trkpt><trkpt lat="43.4922938" lon="10.6455608"><ele>239.0</ele><time>2026-05-03T12:24:33.571Z</time></trkpt><trkpt lat="43.4922412" lon="10.6457381"><ele>239.25</ele><time>2026-05-03T12:24:34.572Z</time></trkpt><trkpt lat="43.4921617" lon="10.645919"><ele>239.5</ele><time>2026-05-03T12:24:35.571Z</time></trkpt><trkpt lat="43.4920727" lon="10.6460894"><ele>239.75</ele><time>2026-05-03T12:24:36.571Z</time></trkpt><trkpt lat="43.4919829" lon="10.646244"><ele>240.0</ele><time>2026-05-03T12:24:37.573Z</time></trkpt><trkpt lat="43.491893" lon="10.6463522"><ele>240.0</ele><time>2026-05-03T12:24:38.571Z</time></trkpt><trkpt lat="43.4917971" lon="10.6464178"><ele>240.0</ele><time>2026-05-03T12:24:39.572Z</time></trkpt><trkpt lat="43.4917062" lon="10.6464376"><ele>240.0</ele><time>2026-05-03T12:24:40.571Z</time></trkpt><trkpt lat="43.4916212" lon="10.6464008"><ele>240.0</ele><time>2026-05-03T12:24:41.572Z</time></trkpt><trkpt lat="43.4915514" lon="10.6463087"><ele>240.0</ele><time>2026-05-03T12:24:42.573Z</time></trkpt><trkpt lat="43.4914838" lon="10.6461804"><ele>237.75</ele><time>2026-05-03T12:24:43.572Z</time></trkpt><trkpt lat="43.4914091" lon="10.6460169"><ele>235.5</ele><time>2026-05-03T12:24:44.572Z</time></trkpt><trkpt lat="43.4913321" lon="10.6458322"><ele>233.25</ele><time>2026-05-03T12:24:45.572Z</time></trkpt><trkpt lat="43.4912669" lon="10.6456551"><ele>231.0</ele><time>2026-05-03T12:24:46.573Z</time></trkpt><trkpt lat="43.4912133" lon="10.6454785"><ele>234.0</ele><time>2026-05-03T12:24:47.571Z</time></trkpt><trkpt lat="43.491175" lon="10.6452909"><ele>237.0</ele><time>2026-05-03T12:24:48.572Z</time></trkpt><trkpt lat="43.4911634" lon="10.6450807"><ele>240.0</ele><time>2026-05-03T12:24:49.571Z</time></trkpt><trkpt lat="43.491175" lon="10.644847"><ele>240.0</ele><time>2026-05-03T12:24:50.572Z</time></trkpt><trkpt lat="43.4911792" lon="10.6446164"><ele>240.0</ele><time>2026-05-03T12:24:51.572Z</time></trkpt><trkpt lat="43.4911941" lon="10.6443999"><ele>240.0</ele><time>2026-05-03T12:24:52.572Z</time></trkpt><trkpt lat="43.49122" lon="10.6441957"><ele>241.25</ele><time>2026-05-03T12:24:53.572Z</time></trkpt><trkpt lat="43.4912416" lon="10.6439908"><ele>242.5</ele><time>2026-05-03T12:24:54.571Z</time></trkpt><trkpt lat="43.4912427" lon="10.6437914"><ele>243.75</ele><time>2026-05-03T12:24:55.572Z</time></trkpt><trkpt lat="43.4912321" lon="10.6435992"><ele>245.0</ele><time>2026-05-03T12:24:56.571Z</time></trkpt><trkpt lat="43.491208" lon="10.6434146"><ele>247.75</ele><time>2026-05-03T12:24:57.571Z</time></trkpt><trkpt lat="43.49116" lon="10.643256"><ele>250.5</ele><time>2026-05-03T12:24:58.572Z</time></trkpt><trkpt lat="43.4910861" lon="10.6431092"><ele>253.25</ele><time>2026-05-03T12:24:59.572Z</time></trkpt><trkpt lat="43.4909836" lon="10.6430086"><ele>256.0</ele><time>2026-05-03T12:25:00.57Z</time></trkpt><trkpt lat="43.4908735" lon="10.6429352"><ele>256.0</ele><time>2026-05-03T12:25:01.573Z</time></trkpt><trkpt lat="43.490771" lon="10.6428311"><ele>256.0</ele><time>2026-05-03T12:25:02.572Z</time></trkpt><trkpt lat="43.4906844" lon="10.6427209"><ele>256.0</ele><time>2026-05-03T12:25:03.572Z</time></trkpt><trkpt lat="43.4906109" lon="10.6425566"><ele>256.0</ele><time>2026-05-03T12:25:04.573Z</time></trkpt><trkpt lat="43.4905475" lon="10.6423822"><ele>258.25</ele><time>2026-05-03T12:25:05.573Z</time></trkpt><trkpt lat="43.4905116" lon="10.6421997"><ele>260.5</ele><time>2026-05-03T12:25:06.57Z</time></trkpt><trkpt lat="43.4904878" lon="10.642001"><ele>262.75</ele><time>2026-05-03T12:25:07.572Z</time></trkpt><trkpt lat="43.4904767" lon="10.641816"><ele>265.0</ele><time>2026-05-03T12:25:08.571Z</time></trkpt><trkpt lat="43.4904585" lon="10.6416529"><ele>262.5</ele><time>2026-05-03T12:25:09.572Z</time></trkpt><trkpt lat="43.4904139" lon="10.6415037"><ele>260.0</ele><time>2026-05-03T12:25:10.571Z</time></trkpt><trkpt lat="43.4903423" lon="10.6413698"><ele>257.5</ele><time>2026-05-03T12:25:11.571Z</time></trkpt><trkpt lat="43.4902438" lon="10.6412578"><ele>255.0</ele><time>2026-05-03T12:25:12.571Z</time></trkpt><trkpt lat="43.4901255" lon="10.6411427"><ele>260.5</ele><time>2026-05-03T12:25:13.572Z</time></trkpt><trkpt lat="43.4899903" lon="10.6410375"><ele>266.0</ele><time>2026-05-03T12:25:14.571Z</time></trkpt><trkpt lat="43.4898525" lon="10.6409364"><ele>271.5</ele><time>2026-05-03T12:25:15.573Z</time></trkpt><trkpt lat="43.4897367" lon="10.6408347"><ele>277.0</ele><time>2026-05-03T12:25:16.572Z</time></trkpt><trkpt lat="43.4896472" lon="10.6407431"><ele>275.75</ele><time>2026-05-03T12:25:17.572Z</time></trkpt><trkpt lat="43.4895455" lon="10.6406708"><ele>274.5</ele><time>2026-05-03T12:25:18.571Z</time></trkpt><trkpt lat="43.4894138" lon="10.6406421"><ele>273.25</ele><time>2026-05-03T12:25:19.572Z</time></trkpt><trkpt lat="43.4892904" lon="10.6406172"><ele>272.0</ele><time>2026-05-03T12:25:20.573Z</time></trkpt><trkpt lat="43.4891692" lon="10.6406078"><ele>272.0</ele><time>2026-05-03T12:25:21.573Z</time></trkpt><trkpt lat="43.4890468" lon="10.6406457"><ele>272.0</ele><time>2026-05-03T12:25:22.571Z</time></trkpt><trkpt lat="43.4889552" lon="10.6406767"><ele>272.0</ele><time>2026-05-03T12:25:23.57Z</time></trkpt><trkpt lat="43.488874" lon="10.6407262"><ele>272.0</ele><time>2026-05-03T12:25:24.571Z</time></trkpt><trkpt lat="43.4888031" lon="10.6408101"><ele>272.0</ele><time>2026-05-03T12:25:25.571Z</time></trkpt><trkpt lat="43.4887542" lon="10.6409591"><ele>270.5</ele><time>2026-05-03T12:25:26.572Z</time></trkpt><trkpt lat="43.4887064" lon="10.6410993"><ele>269.0</ele><time>2026-05-03T12:25:27.573Z</time></trkpt><trkpt lat="43.4886487" lon="10.6412575"><ele>267.5</ele><time>2026-05-03T12:25:28.572Z</time></trkpt><trkpt lat="43.4885549" lon="10.641335"><ele>266.0</ele><time>2026-05-03T12:25:29.573Z</time></trkpt><trkpt lat="43.4884718" lon="10.6414405"><ele>266.0</ele><time>2026-05-03T12:25:30.572Z</time></trkpt><trkpt lat="43.4883596" lon="10.6414799"><ele>266.0</ele><time>2026-05-03T12:25:31.571Z</time></trkpt><trkpt lat="43.4882553" lon="10.6415205"><ele>266.0</ele><time>2026-05-03T12:25:32.572Z</time></trkpt><trkpt lat="43.4881575" lon="10.6414925"><ele>266.0</ele><time>2026-05-03T12:25:33.572Z</time></trkpt><trkpt lat="43.4880687" lon="10.6413871"><ele>266.0</ele><time>2026-05-03T12:25:34.571Z</time></trkpt><trkpt lat="43.4879726" lon="10.6412744"><ele>266.5</ele><time>2026-05-03T12:25:35.573Z</time></trkpt><trkpt lat="43.4878852" lon="10.6411738"><ele>267.0</ele><time>2026-05-03T12:25:36.571Z</time></trkpt><trkpt lat="43.4877864" lon="10.6410861"><ele>267.5</ele><time>2026-05-03T12:25:37.573Z</time></trkpt><trkpt lat="43.4876775" lon="10.6410402"><ele>268.0</ele><time>2026-05-03T12:25:38.571Z</time></trkpt><trkpt lat="43.4875517" lon="10.6410124"><ele>271.25</ele><time>2026-05-03T12:25:39.574Z</time></trkpt><trkpt lat="43.4873955" lon="10.641015"><ele>274.5</ele><time>2026-05-03T12:25:40.572Z</time></trkpt><trkpt lat="43.4872408" lon="10.6410174"><ele>277.75</ele><time>2026-05-03T12:25:41.573Z</time></trkpt><trkpt lat="43.4871042" lon="10.6409977"><ele>281.0</ele><time>2026-05-03T12:25:42.573Z</time></trkpt><trkpt lat="43.4869822" lon="10.6409599"><ele>281.0</ele><time>2026-05-03T12:25:43.572Z</time></trkpt><trkpt lat="43.4868714" lon="10.6408978"><ele>281.0</ele><time>2026-05-03T12:25:44.57Z</time></trkpt><trkpt lat="43.4867646" lon="10.6408286"><ele>281.0</ele><time>2026-05-03T12:25:45.571Z</time></trkpt><trkpt lat="43.486656" lon="10.6407283"><ele>281.0</ele><time>2026-05-03T12:25:46.573Z</time></trkpt><trkpt lat="43.4865399" lon="10.640627"><ele>281.0</ele><time>2026-05-03T12:25:47.572Z</time></trkpt><trkpt lat="43.4864066" lon="10.6405412"><ele>281.0</ele><time>2026-05-03T12:25:48.572Z</time></trkpt><trkpt lat="43.486271" lon="10.6404722"><ele>281.0</ele><time>2026-05-03T12:25:49.572Z</time></trkpt><trkpt lat="43.486134" lon="10.640419"><ele>281.0</ele><time>2026-05-03T12:25:50.572Z</time></trkpt><trkpt lat="43.4860186" lon="10.6403813"><ele>281.2</ele><time>2026-05-03T12:25:51.571Z</time></trkpt><trkpt lat="43.4859132" lon="10.6403473"><ele>281.40000000000003</ele><time>2026-05-03T12:25:52.571Z</time></trkpt><trkpt lat="43.4858139" lon="10.6403439"><ele>281.6</ele><time>2026-05-03T12:25:53.571Z</time></trkpt><trkpt lat="43.4857169" lon="10.6403811"><ele>281.8</ele><time>2026-05-03T12:25:54.57Z</time></trkpt><trkpt lat="43.4856145" lon="10.6404468"><ele>282.0</ele><time>2026-05-03T12:25:55.571Z</time></trkpt><trkpt lat="43.4855058" lon="10.6405326"><ele>284.2</ele><time>2026-05-03T12:25:56.571Z</time></trkpt><trkpt lat="43.4854028" lon="10.6406016"><ele>286.4</ele><time>2026-05-03T12:25:57.57Z</time></trkpt><trkpt lat="43.4853156" lon="10.6406673"><ele>288.6</ele><time>2026-05-03T12:25:58.572Z</time></trkpt><trkpt lat="43.4852441" lon="10.6407494"><ele>290.8</ele><time>2026-05-03T12:25:59.571Z</time></trkpt><trkpt lat="43.4851972" lon="10.6408467"><ele>293.0</ele><time>2026-05-03T12:26:00.57Z</time></trkpt><trkpt lat="43.4851744" lon="10.6409598"><ele>293.0</ele><time>2026-05-03T12:26:01.57Z</time></trkpt><trkpt lat="43.4851798" lon="10.6410746"><ele>293.0</ele><time>2026-05-03T12:26:02.57Z</time></trkpt><trkpt lat="43.4852112" lon="10.6411765"><ele>293.0</ele><time>2026-05-03T12:26:03.571Z</time></trkpt><trkpt lat="43.4852766" lon="10.6412574"><ele>293.0</ele><time>2026-05-03T12:26:04.571Z</time></trkpt><trkpt lat="43.485373" lon="10.6413132"><ele>293.0</ele><time>2026-05-03T12:26:05.571Z</time></trkpt><trkpt lat="43.4854873" lon="10.6413662"><ele>290.5</ele><time>2026-05-03T12:26:06.57Z</time></trkpt><trkpt lat="43.4856193" lon="10.6414124"><ele>288.0</ele><time>2026-05-03T12:26:07.57Z</time></trkpt><trkpt lat="43.4857539" lon="10.64147"><ele>285.5</ele><time>2026-05-03T12:26:08.572Z</time></trkpt><trkpt lat="43.4858836" lon="10.641529"><ele>283.0</ele><time>2026-05-03T12:26:09.571Z</time></trkpt><trkpt lat="43.4860007" lon="10.6415786"><ele>283.0</ele><time>2026-05-03T12:26:10.571Z</time></trkpt><trkpt lat="43.4861046" lon="10.6416262"><ele>283.0</ele><time>2026-05-03T12:26:11.571Z</time></trkpt><trkpt lat="43.4861946" lon="10.6416917"><ele>283.0</ele><time>2026-05-03T12:26:12.57Z</time></trkpt><trkpt lat="43.4862647" lon="10.6417726"><ele>283.0</ele><time>2026-05-03T12:26:13.571Z</time></trkpt><trkpt lat="43.4863145" lon="10.6418725"><ele>283.0</ele><time>2026-05-03T12:26:14.57Z</time></trkpt><trkpt lat="43.4863425" lon="10.6419678"><ele>282.2</ele><time>2026-05-03T12:26:15.571Z</time></trkpt><trkpt lat="43.4863352" lon="10.6420892"><ele>281.4</ele><time>2026-05-03T12:26:17.57Z</time></trkpt><trkpt lat="43.4862762" lon="10.6421814"><ele>280.59999999999997</ele><time>2026-05-03T12:26:19.573Z</time></trkpt><trkpt lat="43.4861688" lon="10.6422867"><ele>279.8</ele><time>2026-05-03T12:26:21.572Z</time></trkpt><trkpt lat="43.486073" lon="10.6423309"><ele>279.0</ele><time>2026-05-03T12:26:22.573Z</time></trkpt><trkpt lat="43.486022" lon="10.6424012"><ele>279.0</ele><time>2026-05-03T12:26:23.571Z</time></trkpt><trkpt lat="43.4859638" lon="10.6424558"><ele>279.0</ele><time>2026-05-03T12:26:24.573Z</time></trkpt><trkpt lat="43.4859031" lon="10.6425379"><ele>279.0</ele><time>2026-05-03T12:26:26.572Z</time></trkpt><trkpt lat="43.4858695" lon="10.6426147"><ele>279.0</ele><time>2026-05-03T12:26:31.572Z</time></trkpt><trkpt lat="43.485805" lon="10.642683"><ele>279.0</ele><time>2026-05-03T12:26:33.572Z</time></trkpt><trkpt lat="43.4857456" lon="10.6427545"><ele>279.0</ele><time>2026-05-03T12:26:34.572Z</time></trkpt><trkpt lat="43.485669" lon="10.6428508"><ele>279.0</ele><time>2026-05-03T12:26:35.571Z</time></trkpt><trkpt lat="43.4855816" lon="10.6429351"><ele>279.0</ele><time>2026-05-03T12:26:36.571Z</time></trkpt><trkpt lat="43.4855073" lon="10.6430248"><ele>279.0</ele><time>2026-05-03T12:26:37.573Z</time></trkpt><trkpt lat="43.4854333" lon="10.6431079"><ele>279.0</ele><time>2026-05-03T12:26:38.572Z</time></trkpt><trkpt lat="43.4853508" lon="10.6431652"><ele>279.0</ele><time>2026-05-03T12:26:39.571Z</time></trkpt><trkpt lat="43.485265" lon="10.6432056"><ele>280.25</ele><time>2026-05-03T12:26:40.573Z</time></trkpt><trkpt lat="43.4851506" lon="10.6431563"><ele>281.5</ele><time>2026-05-03T12:26:41.572Z</time></trkpt><trkpt lat="43.4850373" lon="10.6431071"><ele>282.75</ele><time>2026-05-03T12:26:42.572Z</time></trkpt><trkpt lat="43.4849199" lon="10.6430507"><ele>284.0</ele><time>2026-05-03T12:26:43.572Z</time></trkpt><trkpt lat="43.4848048" lon="10.643002"><ele>284.0</ele><time>2026-05-03T12:26:44.571Z</time></trkpt><trkpt lat="43.4846856" lon="10.6429643"><ele>284.0</ele><time>2026-05-03T12:26:45.572Z</time></trkpt><trkpt lat="43.4845743" lon="10.6428925"><ele>284.0</ele><time>2026-05-03T12:26:46.572Z</time></trkpt><trkpt lat="43.4844722" lon="10.6428089"><ele>284.0</ele><time>2026-05-03T12:26:47.571Z</time></trkpt><trkpt lat="43.4843584" lon="10.6427432"><ele>287.5</ele><time>2026-05-03T12:26:48.572Z</time></trkpt><trkpt lat="43.4842513" lon="10.6426666"><ele>291.0</ele><time>2026-05-03T12:26:49.572Z</time></trkpt><trkpt lat="43.4841457" lon="10.6426022"><ele>294.5</ele><time>2026-05-03T12:26:50.572Z</time></trkpt><trkpt lat="43.4840322" lon="10.6425904"><ele>298.0</ele><time>2026-05-03T12:26:51.572Z</time></trkpt><trkpt lat="43.4839201" lon="10.6426008"><ele>298.0</ele><time>2026-05-03T12:26:52.572Z</time></trkpt><trkpt lat="43.4837858" lon="10.6426419"><ele>298.0</ele><time>2026-05-03T12:26:53.572Z</time></trkpt><trkpt lat="43.4836591" lon="10.6426936"><ele>298.0</ele><time>2026-05-03T12:26:54.572Z</time></trkpt><trkpt lat="43.4835467" lon="10.6427434"><ele>298.0</ele><time>2026-05-03T12:26:55.571Z</time></trkpt><trkpt lat="43.4834457" lon="10.6428018"><ele>296.6</ele><time>2026-05-03T12:26:56.572Z</time></trkpt><trkpt lat="43.4833664" lon="10.6428813"><ele>295.20000000000005</ele><time>2026-05-03T12:26:57.57Z</time></trkpt><trkpt lat="43.4833" lon="10.6429829"><ele>293.8</ele><time>2026-05-03T12:26:58.571Z</time></trkpt><trkpt lat="43.483236" lon="10.6430876"><ele>292.40000000000003</ele><time>2026-05-03T12:26:59.572Z</time></trkpt><trkpt lat="43.4831711" lon="10.6431881"><ele>291.0</ele><time>2026-05-03T12:27:00.572Z</time></trkpt><trkpt lat="43.4830978" lon="10.6432853"><ele>291.0</ele><time>2026-05-03T12:27:01.572Z</time></trkpt><trkpt lat="43.483018" lon="10.6433321"><ele>291.0</ele><time>2026-05-03T12:27:02.571Z</time></trkpt><trkpt lat="43.4829259" lon="10.6433375"><ele>291.0</ele><time>2026-05-03T12:27:03.572Z</time></trkpt><trkpt lat="43.4828152" lon="10.6433199"><ele>291.0</ele><time>2026-05-03T12:27:04.571Z</time></trkpt><trkpt lat="43.4826941" lon="10.6432774"><ele>291.0</ele><time>2026-05-03T12:27:05.572Z</time></trkpt><trkpt lat="43.4825806" lon="10.643237"><ele>294.0</ele><time>2026-05-03T12:27:06.571Z</time></trkpt><trkpt lat="43.4824675" lon="10.6432228"><ele>297.0</ele><time>2026-05-03T12:27:07.579Z</time></trkpt><trkpt lat="43.4823527" lon="10.6432324"><ele>300.0</ele><time>2026-05-03T12:27:08.581Z</time></trkpt><trkpt lat="43.4822287" lon="10.6433191"><ele>303.0</ele><time>2026-05-03T12:27:09.572Z</time></trkpt><trkpt lat="43.4821167" lon="10.6433932"><ele>305.0</ele><time>2026-05-03T12:27:10.572Z</time></trkpt><trkpt lat="43.4820101" lon="10.6434585"><ele>307.0</ele><time>2026-05-03T12:27:11.572Z</time></trkpt><trkpt lat="43.4819038" lon="10.6435032"><ele>309.0</ele><time>2026-05-03T12:27:12.572Z</time></trkpt><trkpt lat="43.4817908" lon="10.6435111"><ele>311.0</ele><time>2026-05-03T12:27:13.571Z</time></trkpt><trkpt lat="43.4816714" lon="10.6434651"><ele>311.0</ele><time>2026-05-03T12:27:14.572Z</time></trkpt><trkpt lat="43.4815361" lon="10.6434231"><ele>311.0</ele><time>2026-05-03T12:27:15.571Z</time></trkpt><trkpt lat="43.4813856" lon="10.6433909"><ele>311.0</ele><time>2026-05-03T12:27:16.571Z</time></trkpt><trkpt lat="43.4812377" lon="10.6433605"><ele>311.0</ele><time>2026-05-03T12:27:17.573Z</time></trkpt><trkpt lat="43.4810846" lon="10.643323"><ele>312.0</ele><time>2026-05-03T12:27:18.572Z</time></trkpt><trkpt lat="43.4809417" lon="10.6433162"><ele>313.0</ele><time>2026-05-03T12:27:19.573Z</time></trkpt><trkpt lat="43.4808071" lon="10.6433118"><ele>314.0</ele><time>2026-05-03T12:27:20.573Z</time></trkpt><trkpt lat="43.4806868" lon="10.6433414"><ele>315.0</ele><time>2026-05-03T12:27:21.571Z</time></trkpt><trkpt lat="43.4805732" lon="10.6433838"><ele>315.0</ele><time>2026-05-03T12:27:22.572Z</time></trkpt><trkpt lat="43.4804736" lon="10.6434328"><ele>315.0</ele><time>2026-05-03T12:27:23.57Z</time></trkpt><trkpt lat="43.4803849" lon="10.643475"><ele>315.0</ele><time>2026-05-03T12:27:24.573Z</time></trkpt><trkpt lat="43.4803051" lon="10.6434769"><ele>315.0</ele><time>2026-05-03T12:27:25.571Z</time></trkpt><trkpt lat="43.4802414" lon="10.6434216"><ele>315.0</ele><time>2026-05-03T12:27:26.571Z</time></trkpt><trkpt lat="43.4802192" lon="10.6433317"><ele>315.0</ele><time>2026-05-03T12:27:27.571Z</time></trkpt><trkpt lat="43.4802667" lon="10.6431786"><ele>315.0</ele><time>2026-05-03T12:27:29.571Z</time></trkpt><trkpt lat="43.4803332" lon="10.643119"><ele>315.0</ele><time>2026-05-03T12:27:30.572Z</time></trkpt><trkpt lat="43.4804151" lon="10.6430531"><ele>315.0</ele><time>2026-05-03T12:27:31.572Z</time></trkpt><trkpt lat="43.4805146" lon="10.6429747"><ele>315.0</ele><time>2026-05-03T12:27:32.572Z</time></trkpt><trkpt lat="43.4806255" lon="10.6428788"><ele>315.0</ele><time>2026-05-03T12:27:33.57Z</time></trkpt><trkpt lat="43.4807464" lon="10.6427968"><ele>319.0</ele><time>2026-05-03T12:27:34.571Z</time></trkpt><trkpt lat="43.4808916" lon="10.642744"><ele>323.0</ele><time>2026-05-03T12:27:35.57Z</time></trkpt><trkpt lat="43.4810408" lon="10.6427099"><ele>327.0</ele><time>2026-05-03T12:27:36.571Z</time></trkpt><trkpt lat="43.4811944" lon="10.642677"><ele>326.5</ele><time>2026-05-03T12:27:37.573Z</time></trkpt><trkpt lat="43.4813254" lon="10.642651"><ele>326.0</ele><time>2026-05-03T12:27:38.573Z</time></trkpt><trkpt lat="43.4814463" lon="10.6426036"><ele>325.5</ele><time>2026-05-03T12:27:39.572Z</time></trkpt><trkpt lat="43.4815482" lon="10.6425312"><ele>325.0</ele><time>2026-05-03T12:27:40.571Z</time></trkpt><trkpt lat="43.4816402" lon="10.6424144"><ele>325.0</ele><time>2026-05-03T12:27:41.571Z</time></trkpt><trkpt lat="43.4817168" lon="10.6422781"><ele>325.0</ele><time>2026-05-03T12:27:42.572Z</time></trkpt><trkpt lat="43.4817831" lon="10.6421502"><ele>325.0</ele><time>2026-05-03T12:27:43.571Z</time></trkpt><trkpt lat="43.4818395" lon="10.6420235"><ele>325.0</ele><time>2026-05-03T12:27:44.571Z</time></trkpt><trkpt lat="43.4818716" lon="10.6419136"><ele>325.0</ele><time>2026-05-03T12:27:45.571Z</time></trkpt><trkpt lat="43.4818909" lon="10.6418048"><ele>326.4</ele><time>2026-05-03T12:27:46.57Z</time></trkpt><trkpt lat="43.4818383" lon="10.6417161"><ele>327.8</ele><time>2026-05-03T12:27:47.571Z</time></trkpt><trkpt lat="43.4817697" lon="10.6416335"><ele>329.20000000000005</ele><time>2026-05-03T12:27:48.572Z</time></trkpt><trkpt lat="43.4816575" lon="10.6415853"><ele>330.6</ele><time>2026-05-03T12:27:49.573Z</time></trkpt><trkpt lat="43.481528" lon="10.641525"><ele>332.0</ele><time>2026-05-03T12:27:50.572Z</time></trkpt><trkpt lat="43.4813848" lon="10.6414271"><ele>332.33333333333337</ele><time>2026-05-03T12:27:51.572Z</time></trkpt><trkpt lat="43.481227" lon="10.6413339"><ele>332.6666666666667</ele><time>2026-05-03T12:27:52.571Z</time></trkpt><trkpt lat="43.4810687" lon="10.6411975"><ele>333.0</ele><time>2026-05-03T12:27:53.571Z</time></trkpt><trkpt lat="43.4809099" lon="10.6411103"><ele>335.0</ele><time>2026-05-03T12:27:54.571Z</time></trkpt><trkpt lat="43.4807468" lon="10.6410293"><ele>337.0</ele><time>2026-05-03T12:27:55.571Z</time></trkpt><trkpt lat="43.4805882" lon="10.6409397"><ele>339.0</ele><time>2026-05-03T12:27:56.572Z</time></trkpt><trkpt lat="43.4804297" lon="10.6408392"><ele>339.3333333333333</ele><time>2026-05-03T12:27:57.571Z</time></trkpt><trkpt lat="43.4802662" lon="10.6407274"><ele>339.66666666666663</ele><time>2026-05-03T12:27:58.572Z</time></trkpt><trkpt lat="43.4801115" lon="10.6406001"><ele>340.0</ele><time>2026-05-03T12:27:59.572Z</time></trkpt><trkpt lat="43.479961" lon="10.6404785"><ele>340.0</ele><time>2026-05-03T12:28:00.573Z</time></trkpt><trkpt lat="43.4798146" lon="10.6403829"><ele>340.0</ele><time>2026-05-03T12:28:01.572Z</time></trkpt><trkpt lat="43.4796816" lon="10.6403123"><ele>340.0</ele><time>2026-05-03T12:28:02.571Z</time></trkpt><trkpt lat="43.4795462" lon="10.6402643"><ele>340.0</ele><time>2026-05-03T12:28:03.57Z</time></trkpt><trkpt lat="43.4794174" lon="10.6402529"><ele>342.0</ele><time>2026-05-03T12:28:04.572Z</time></trkpt><trkpt lat="43.4792823" lon="10.640298"><ele>344.0</ele><time>2026-05-03T12:28:05.572Z</time></trkpt><trkpt lat="43.479149" lon="10.6403781"><ele>346.0</ele><time>2026-05-03T12:28:06.572Z</time></trkpt><trkpt lat="43.4790249" lon="10.640485"><ele>348.0</ele><time>2026-05-03T12:28:07.573Z</time></trkpt><trkpt lat="43.478914" lon="10.6406103"><ele>348.0</ele><time>2026-05-03T12:28:08.572Z</time></trkpt><trkpt lat="43.4788106" lon="10.6407332"><ele>348.0</ele><time>2026-05-03T12:28:09.572Z</time></trkpt><trkpt lat="43.4787105" lon="10.6408559"><ele>348.0</ele><time>2026-05-03T12:28:10.572Z</time></trkpt><trkpt lat="43.4786106" lon="10.6409335"><ele>348.0</ele><time>2026-05-03T12:28:11.572Z</time></trkpt><trkpt lat="43.4784994" lon="10.640993"><ele>349.5</ele><time>2026-05-03T12:28:12.571Z</time></trkpt><trkpt lat="43.4783898" lon="10.6409881"><ele>351.0</ele><time>2026-05-03T12:28:13.571Z</time></trkpt><trkpt lat="43.4782798" lon="10.6409551"><ele>352.5</ele><time>2026-05-03T12:28:14.571Z</time></trkpt><trkpt lat="43.4781745" lon="10.6408693"><ele>354.0</ele><time>2026-05-03T12:28:15.571Z</time></trkpt><trkpt lat="43.4780701" lon="10.6407504"><ele>354.0</ele><time>2026-05-03T12:28:16.57Z</time></trkpt><trkpt lat="43.4779545" lon="10.6406105"><ele>354.0</ele><time>2026-05-03T12:28:17.572Z</time></trkpt><trkpt lat="43.4778284" lon="10.6404609"><ele>354.0</ele><time>2026-05-03T12:28:18.572Z</time></trkpt><trkpt lat="43.4776912" lon="10.6403029"><ele>356.0</ele><time>2026-05-03T12:28:19.572Z</time></trkpt><trkpt lat="43.4775716" lon="10.6401491"><ele>358.0</ele><time>2026-05-03T12:28:20.572Z</time></trkpt><trkpt lat="43.4774637" lon="10.6400123"><ele>360.0</ele><time>2026-05-03T12:28:21.572Z</time></trkpt><trkpt lat="43.4773682" lon="10.6399018"><ele>362.0</ele><time>2026-05-03T12:28:22.572Z</time></trkpt><trkpt lat="43.477275" lon="10.6398264"><ele>362.0</ele><time>2026-05-03T12:28:23.571Z</time></trkpt><trkpt lat="43.4771724" lon="10.6397981"><ele>362.0</ele><time>2026-05-03T12:28:24.571Z</time></trkpt><trkpt lat="43.4770711" lon="10.6398256"><ele>362.0</ele><time>2026-05-03T12:28:25.572Z</time></trkpt><trkpt lat="43.476977" lon="10.6399018"><ele>362.0</ele><time>2026-05-03T12:28:26.572Z</time></trkpt><trkpt lat="43.4768914" lon="10.6400127"><ele>362.0</ele><time>2026-05-03T12:28:27.571Z</time></trkpt><trkpt lat="43.4768244" lon="10.6401555"><ele>362.5</ele><time>2026-05-03T12:28:28.571Z</time></trkpt><trkpt lat="43.4767592" lon="10.6403385"><ele>363.0</ele><time>2026-05-03T12:28:29.572Z</time></trkpt><trkpt lat="43.4766839" lon="10.6405203"><ele>363.5</ele><time>2026-05-03T12:28:30.571Z</time></trkpt><trkpt lat="43.4766097" lon="10.6406825"><ele>364.0</ele><time>2026-05-03T12:28:31.572Z</time></trkpt><trkpt lat="43.4765365" lon="10.6408233"><ele>364.0</ele><time>2026-05-03T12:28:32.572Z</time></trkpt><trkpt lat="43.476458" lon="10.6409253"><ele>364.0</ele><time>2026-05-03T12:28:33.572Z</time></trkpt><trkpt lat="43.4763644" lon="10.6410097"><ele>364.0</ele><time>2026-05-03T12:28:34.572Z</time></trkpt><trkpt lat="43.4762527" lon="10.6410519"><ele>364.0</ele><time>2026-05-03T12:28:35.572Z</time></trkpt><trkpt lat="43.4761278" lon="10.6410472"><ele>367.0</ele><time>2026-05-03T12:28:36.573Z</time></trkpt><trkpt lat="43.475985" lon="10.6410232"><ele>370.0</ele><time>2026-05-03T12:28:37.572Z</time></trkpt><trkpt lat="43.4758395" lon="10.6409778"><ele>373.0</ele><time>2026-05-03T12:28:38.572Z</time></trkpt><trkpt lat="43.4756732" lon="10.6409241"><ele>373.0</ele><time>2026-05-03T12:28:39.571Z</time></trkpt><trkpt lat="43.475508" lon="10.6408587"><ele>373.0</ele><time>2026-05-03T12:28:40.572Z</time></trkpt><trkpt lat="43.4753514" lon="10.6407962"><ele>373.0</ele><time>2026-05-03T12:28:41.57Z</time></trkpt><trkpt lat="43.4752063" lon="10.6407503"><ele>372.25</ele><time>2026-05-03T12:28:42.572Z</time></trkpt><trkpt lat="43.4750728" lon="10.6407015"><ele>371.5</ele><time>2026-05-03T12:28:43.572Z</time></trkpt><trkpt lat="43.4749591" lon="10.6406417"><ele>370.75</ele><time>2026-05-03T12:28:44.573Z</time></trkpt><trkpt lat="43.4748586" lon="10.640565"><ele>370.0</ele><time>2026-05-03T12:28:45.571Z</time></trkpt><trkpt lat="43.4747723" lon="10.6404708"><ele>370.0</ele><time>2026-05-03T12:28:46.571Z</time></trkpt><trkpt lat="43.4746977" lon="10.6403443"><ele>370.0</ele><time>2026-05-03T12:28:47.572Z</time></trkpt><trkpt lat="43.4746356" lon="10.6401783"><ele>370.0</ele><time>2026-05-03T12:28:48.571Z</time></trkpt><trkpt lat="43.4745821" lon="10.6399893"><ele>370.0</ele><time>2026-05-03T12:28:49.572Z</time></trkpt><trkpt lat="43.4745438" lon="10.6397799"><ele>366.66666666666663</ele><time>2026-05-03T12:28:50.572Z</time></trkpt><trkpt lat="43.4745015" lon="10.6395454"><ele>363.3333333333333</ele><time>2026-05-03T12:28:51.57Z</time></trkpt><trkpt lat="43.4744563" lon="10.6392917"><ele>360.0</ele><time>2026-05-03T12:28:52.572Z</time></trkpt><trkpt lat="43.4744089" lon="10.6390498"><ele>360.0</ele><time>2026-05-03T12:28:53.57Z</time></trkpt><trkpt lat="43.4743616" lon="10.638814"><ele>360.0</ele><time>2026-05-03T12:28:54.572Z</time></trkpt><trkpt lat="43.4743158" lon="10.638584"><ele>360.0</ele><time>2026-05-03T12:28:55.572Z</time></trkpt><trkpt lat="43.4742714" lon="10.6383521"><ele>360.0</ele><time>2026-05-03T12:28:56.572Z</time></trkpt><trkpt lat="43.4742303" lon="10.6381233"><ele>360.0</ele><time>2026-05-03T12:28:57.572Z</time></trkpt><trkpt lat="43.4741868" lon="10.6378904"><ele>360.0</ele><time>2026-05-03T12:28:58.572Z</time></trkpt><trkpt lat="43.4741431" lon="10.6376594"><ele>360.3333333333333</ele><time>2026-05-03T12:28:59.572Z</time></trkpt><trkpt lat="43.4740992" lon="10.6374279"><ele>360.66666666666663</ele><time>2026-05-03T12:29:00.571Z</time></trkpt><trkpt lat="43.4740491" lon="10.6372019"><ele>361.0</ele><time>2026-05-03T12:29:01.571Z</time></trkpt><trkpt lat="43.4739972" lon="10.6369752"><ele>362.3333333333333</ele><time>2026-05-03T12:29:02.571Z</time></trkpt><trkpt lat="43.4739511" lon="10.6367475"><ele>363.6666666666667</ele><time>2026-05-03T12:29:03.573Z</time></trkpt><trkpt lat="43.4739056" lon="10.6365228"><ele>365.0</ele><time>2026-05-03T12:29:04.571Z</time></trkpt><trkpt lat="43.473855" lon="10.6362973"><ele>367.0</ele><time>2026-05-03T12:29:05.57Z</time></trkpt><trkpt lat="43.4738105" lon="10.6360819"><ele>369.0</ele><time>2026-05-03T12:29:06.571Z</time></trkpt><trkpt lat="43.4737716" lon="10.6358808"><ele>371.0</ele><time>2026-05-03T12:29:07.572Z</time></trkpt><trkpt lat="43.473733" lon="10.6356989"><ele>369.5</ele><time>2026-05-03T12:29:08.573Z</time></trkpt><trkpt lat="43.4736994" lon="10.6355239"><ele>368.0</ele><time>2026-05-03T12:29:09.572Z</time></trkpt><trkpt lat="43.4736573" lon="10.6353724"><ele>366.5</ele><time>2026-05-03T12:29:10.57Z</time></trkpt><trkpt lat="43.4735979" lon="10.6352342"><ele>365.0</ele><time>2026-05-03T12:29:11.571Z</time></trkpt><trkpt lat="43.4735117" lon="10.6351217"><ele>365.0</ele><time>2026-05-03T12:29:12.572Z</time></trkpt><trkpt lat="43.4733995" lon="10.6350379"><ele>365.0</ele><time>2026-05-03T12:29:13.572Z</time></trkpt><trkpt lat="43.4732823" lon="10.6349996"><ele>365.0</ele><time>2026-05-03T12:29:14.572Z</time></trkpt><trkpt lat="43.4731743" lon="10.6350123"><ele>365.0</ele><time>2026-05-03T12:29:15.572Z</time></trkpt><trkpt lat="43.4730726" lon="10.635068"><ele>365.0</ele><time>2026-05-03T12:29:16.573Z</time></trkpt><trkpt lat="43.4729848" lon="10.6351643"><ele>365.0</ele><time>2026-05-03T12:29:17.572Z</time></trkpt><trkpt lat="43.4729045" lon="10.6353017"><ele>365.0</ele><time>2026-05-03T12:29:18.572Z</time></trkpt><trkpt lat="43.4728446" lon="10.6354613"><ele>365.0</ele><time>2026-05-03T12:29:19.572Z</time></trkpt><trkpt lat="43.4727842" lon="10.635638"><ele>364.25</ele><time>2026-05-03T12:29:20.572Z</time></trkpt><trkpt lat="43.4727124" lon="10.6357863"><ele>363.5</ele><time>2026-05-03T12:29:21.571Z</time></trkpt><trkpt lat="43.472629" lon="10.6358965"><ele>362.75</ele><time>2026-05-03T12:29:22.57Z</time></trkpt><trkpt lat="43.4725305" lon="10.6359876"><ele>362.0</ele><time>2026-05-03T12:29:23.572Z</time></trkpt><trkpt lat="43.4724181" lon="10.6360559"><ele>362.0</ele><time>2026-05-03T12:29:24.571Z</time></trkpt><trkpt lat="43.4722881" lon="10.6360976"><ele>362.0</ele><time>2026-05-03T12:29:25.572Z</time></trkpt><trkpt lat="43.4721622" lon="10.6360976"><ele>362.0</ele><time>2026-05-03T12:29:26.571Z</time></trkpt><trkpt lat="43.472045" lon="10.6360555"><ele>362.0</ele><time>2026-05-03T12:29:27.573Z</time></trkpt><trkpt lat="43.4719439" lon="10.635977"><ele>361.5</ele><time>2026-05-03T12:29:28.571Z</time></trkpt><trkpt lat="43.4718526" lon="10.6358627"><ele>361.0</ele><time>2026-05-03T12:29:29.571Z</time></trkpt><trkpt lat="43.4717733" lon="10.6357091"><ele>360.5</ele><time>2026-05-03T12:29:30.57Z</time></trkpt><trkpt lat="43.4716938" lon="10.6355356"><ele>360.0</ele><time>2026-05-03T12:29:31.571Z</time></trkpt><trkpt lat="43.4716132" lon="10.6353324"><ele>361.0</ele><time>2026-05-03T12:29:32.573Z</time></trkpt><trkpt lat="43.4715274" lon="10.6351139"><ele>362.0</ele><time>2026-05-03T12:29:33.571Z</time></trkpt><trkpt lat="43.4714434" lon="10.6348891"><ele>363.0</ele><time>2026-05-03T12:29:34.571Z</time></trkpt><trkpt lat="43.4713586" lon="10.6346611"><ele>359.3333333333333</ele><time>2026-05-03T12:29:35.571Z</time></trkpt><trkpt lat="43.4712712" lon="10.6344294"><ele>355.66666666666663</ele><time>2026-05-03T12:29:36.571Z</time></trkpt><trkpt lat="43.47118" lon="10.6341931"><ele>352.0</ele><time>2026-05-03T12:29:37.571Z</time></trkpt><trkpt lat="43.4710898" lon="10.6339572"><ele>352.0</ele><time>2026-05-03T12:29:38.571Z</time></trkpt><trkpt lat="43.4710041" lon="10.6337281"><ele>352.0</ele><time>2026-05-03T12:29:39.572Z</time></trkpt><trkpt lat="43.4709285" lon="10.6335055"><ele>352.0</ele><time>2026-05-03T12:29:40.572Z</time></trkpt><trkpt lat="43.4708486" lon="10.6333046"><ele>354.3333333333333</ele><time>2026-05-03T12:29:41.573Z</time></trkpt><trkpt lat="43.4707661" lon="10.6331214"><ele>356.6666666666667</ele><time>2026-05-03T12:29:42.572Z</time></trkpt><trkpt lat="43.4706756" lon="10.6329635"><ele>359.0</ele><time>2026-05-03T12:29:43.572Z</time></trkpt><trkpt lat="43.4705712" lon="10.6328188"><ele>356.33333333333337</ele><time>2026-05-03T12:29:44.572Z</time></trkpt><trkpt lat="43.47046" lon="10.63268"><ele>353.6666666666667</ele><time>2026-05-03T12:29:45.571Z</time></trkpt><trkpt lat="43.4703462" lon="10.6325418"><ele>351.0</ele><time>2026-05-03T12:29:46.573Z</time></trkpt><trkpt lat="43.4702387" lon="10.6323937"><ele>351.0</ele><time>2026-05-03T12:29:47.572Z</time></trkpt><trkpt lat="43.4701338" lon="10.632243"><ele>351.0</ele><time>2026-05-03T12:29:48.572Z</time></trkpt><trkpt lat="43.4700315" lon="10.6321045"><ele>351.0</ele><time>2026-05-03T12:29:49.572Z</time></trkpt><trkpt lat="43.469918" lon="10.631992"><ele>351.0</ele><time>2026-05-03T12:29:50.573Z</time></trkpt><trkpt lat="43.4698022" lon="10.6319181"><ele>348.6</ele><time>2026-05-03T12:29:51.572Z</time></trkpt><trkpt lat="43.4696818" lon="10.6318728"><ele>346.20000000000005</ele><time>2026-05-03T12:29:52.571Z</time></trkpt><trkpt lat="43.4695718" lon="10.6318345"><ele>343.79999999999995</ele><time>2026-05-03T12:29:53.571Z</time></trkpt><trkpt lat="43.4694839" lon="10.6317774"><ele>341.4</ele><time>2026-05-03T12:29:54.571Z</time></trkpt><trkpt lat="43.4694241" lon="10.63169"><ele>339.0</ele><time>2026-05-03T12:29:55.572Z</time></trkpt><trkpt lat="43.4694008" lon="10.6315758"><ele>339.0</ele><time>2026-05-03T12:29:56.571Z</time></trkpt><trkpt lat="43.4694025" lon="10.6314326"><ele>339.0</ele><time>2026-05-03T12:29:57.572Z</time></trkpt><trkpt lat="43.4693933" lon="10.6312852"><ele>339.0</ele><time>2026-05-03T12:29:58.571Z</time></trkpt><trkpt lat="43.4693654" lon="10.6311487"><ele>339.0</ele><time>2026-05-03T12:29:59.571Z</time></trkpt><trkpt lat="43.4693233" lon="10.631015"><ele>339.0</ele><time>2026-05-03T12:30:00.57Z</time></trkpt><trkpt lat="43.469275" lon="10.6308775"><ele>341.0</ele><time>2026-05-03T12:30:01.573Z</time></trkpt><trkpt lat="43.4692344" lon="10.6307416"><ele>343.0</ele><time>2026-05-03T12:30:02.571Z</time></trkpt><trkpt lat="43.4692078" lon="10.6306098"><ele>345.0</ele><time>2026-05-03T12:30:03.57Z</time></trkpt><trkpt lat="43.4692092" lon="10.6304805"><ele>347.0</ele><time>2026-05-03T12:30:04.571Z</time></trkpt><trkpt lat="43.4692377" lon="10.6303672"><ele>349.0</ele><time>2026-05-03T12:30:05.571Z</time></trkpt><trkpt lat="43.4693624" lon="10.6301678"><ele>350.66666666666663</ele><time>2026-05-03T12:30:07.571Z</time></trkpt><trkpt lat="43.469421" lon="10.6300477"><ele>352.3333333333333</ele><time>2026-05-03T12:30:08.571Z</time></trkpt><trkpt lat="43.4694667" lon="10.629921"><ele>354.0</ele><time>2026-05-03T12:30:09.571Z</time></trkpt><trkpt lat="43.4694894" lon="10.629797"><ele>355.6666666666667</ele><time>2026-05-03T12:30:10.571Z</time></trkpt><trkpt lat="43.4695034" lon="10.6296904"><ele>357.33333333333337</ele><time>2026-05-03T12:30:11.572Z</time></trkpt><trkpt lat="43.4694792" lon="10.6296082"><ele>359.0</ele><time>2026-05-03T12:30:12.571Z</time></trkpt><trkpt lat="43.4694257" lon="10.6295376"><ele>359.0</ele><time>2026-05-03T12:30:13.57Z</time></trkpt><trkpt lat="43.4692557" lon="10.6295236"><ele>359.0</ele><time>2026-05-03T12:30:15.571Z</time></trkpt><trkpt lat="43.4691621" lon="10.6295557"><ele>359.0</ele><time>2026-05-03T12:30:16.572Z</time></trkpt><trkpt lat="43.4690728" lon="10.6296757"><ele>359.0</ele><time>2026-05-03T12:30:17.572Z</time></trkpt><trkpt lat="43.4689733" lon="10.6297537"><ele>359.0</ele><time>2026-05-03T12:30:18.57Z</time></trkpt><trkpt lat="43.4688655" lon="10.6298381"><ele>359.0</ele><time>2026-05-03T12:30:19.571Z</time></trkpt><trkpt lat="43.4687597" lon="10.6299424"><ele>359.0</ele><time>2026-05-03T12:30:20.571Z</time></trkpt><trkpt lat="43.4686754" lon="10.6300558"><ele>359.0</ele><time>2026-05-03T12:30:21.571Z</time></trkpt><trkpt lat="43.4686092" lon="10.6302117"><ele>360.25</ele><time>2026-05-03T12:30:22.571Z</time></trkpt><trkpt lat="43.4685605" lon="10.6303806"><ele>361.5</ele><time>2026-05-03T12:30:23.571Z</time></trkpt><trkpt lat="43.4685209" lon="10.6305411"><ele>362.75</ele><time>2026-05-03T12:30:24.571Z</time></trkpt><trkpt lat="43.4684861" lon="10.6307155"><ele>364.0</ele><time>2026-05-03T12:30:25.571Z</time></trkpt><trkpt lat="43.4684444" lon="10.6308805"><ele>364.0</ele><time>2026-05-03T12:30:26.571Z</time></trkpt><trkpt lat="43.4683893" lon="10.6310207"><ele>364.0</ele><time>2026-05-03T12:30:27.571Z</time></trkpt><trkpt lat="43.4683149" lon="10.6311292"><ele>364.0</ele><time>2026-05-03T12:30:28.57Z</time></trkpt><trkpt lat="43.4682361" lon="10.6311915"><ele>364.0</ele><time>2026-05-03T12:30:29.571Z</time></trkpt><trkpt lat="43.4681494" lon="10.6311972"><ele>364.0</ele><time>2026-05-03T12:30:30.571Z</time></trkpt><trkpt lat="43.4680538" lon="10.6311721"><ele>364.0</ele><time>2026-05-03T12:30:31.57Z</time></trkpt><trkpt lat="43.4679445" lon="10.6311367"><ele>364.0</ele><time>2026-05-03T12:30:32.57Z</time></trkpt><trkpt lat="43.4678164" lon="10.631078"><ele>364.0</ele><time>2026-05-03T12:30:33.571Z</time></trkpt><trkpt lat="43.467678" lon="10.6310091"><ele>364.0</ele><time>2026-05-03T12:30:34.571Z</time></trkpt><trkpt lat="43.4675328" lon="10.6309388"><ele>364.0</ele><time>2026-05-03T12:30:35.571Z</time></trkpt><trkpt lat="43.4673907" lon="10.6308676"><ele>364.0</ele><time>2026-05-03T12:30:36.571Z</time></trkpt><trkpt lat="43.4672624" lon="10.6308002"><ele>364.0</ele><time>2026-05-03T12:30:37.572Z</time></trkpt><trkpt lat="43.4671357" lon="10.6307541"><ele>364.0</ele><time>2026-05-03T12:30:38.571Z</time></trkpt><trkpt lat="43.467003" lon="10.6307572"><ele>364.0</ele><time>2026-05-03T12:30:39.572Z</time></trkpt><trkpt lat="43.4667236" lon="10.6308441"><ele>364.0</ele><time>2026-05-03T12:30:41.571Z</time></trkpt><trkpt lat="43.4665902" lon="10.6308953"><ele>364.0</ele><time>2026-05-03T12:30:42.57Z</time></trkpt><trkpt lat="43.4664718" lon="10.6309186"><ele>364.0</ele><time>2026-05-03T12:30:43.571Z</time></trkpt><trkpt lat="43.4663639" lon="10.6309046"><ele>364.0</ele><time>2026-05-03T12:30:44.57Z</time></trkpt><trkpt lat="43.4662652" lon="10.6308539"><ele>364.0</ele><time>2026-05-03T12:30:45.57Z</time></trkpt><trkpt lat="43.4661682" lon="10.63079"><ele>364.0</ele><time>2026-05-03T12:30:46.57Z</time></trkpt><trkpt lat="43.466064" lon="10.6307377"><ele>364.0</ele><time>2026-05-03T12:30:47.571Z</time></trkpt><trkpt lat="43.4659529" lon="10.6307163"><ele>363.75</ele><time>2026-05-03T12:30:48.571Z</time></trkpt><trkpt lat="43.4658347" lon="10.6307382"><ele>363.5</ele><time>2026-05-03T12:30:49.571Z</time></trkpt><trkpt lat="43.4657199" lon="10.6307889"><ele>363.25</ele><time>2026-05-03T12:30:50.572Z</time></trkpt><trkpt lat="43.4656014" lon="10.6308637"><ele>363.0</ele><time>2026-05-03T12:30:51.571Z</time></trkpt><trkpt lat="43.4654796" lon="10.6309424"><ele>362.0</ele><time>2026-05-03T12:30:52.571Z</time></trkpt><trkpt lat="43.4653572" lon="10.6310145"><ele>361.0</ele><time>2026-05-03T12:30:53.571Z</time></trkpt><trkpt lat="43.4652457" lon="10.6310723"><ele>360.0</ele><time>2026-05-03T12:30:54.571Z</time></trkpt><trkpt lat="43.4651351" lon="10.6311243"><ele>359.0</ele><time>2026-05-03T12:30:55.572Z</time></trkpt><trkpt lat="43.4650206" lon="10.6311794"><ele>359.0</ele><time>2026-05-03T12:30:56.572Z</time></trkpt><trkpt lat="43.4649063" lon="10.6312056"><ele>359.0</ele><time>2026-05-03T12:30:57.571Z</time></trkpt><trkpt lat="43.4647847" lon="10.6311958"><ele>359.0</ele><time>2026-05-03T12:30:58.571Z</time></trkpt><trkpt lat="43.4646579" lon="10.6311614"><ele>359.0</ele><time>2026-05-03T12:30:59.571Z</time></trkpt><trkpt lat="43.4645425" lon="10.631076"><ele>355.25</ele><time>2026-05-03T12:31:00.57Z</time></trkpt><trkpt lat="43.464429" lon="10.6309971"><ele>351.5</ele><time>2026-05-03T12:31:01.572Z</time></trkpt><trkpt lat="43.4643175" lon="10.6309294"><ele>347.75</ele><time>2026-05-03T12:31:02.571Z</time></trkpt><trkpt lat="43.4642031" lon="10.6308744"><ele>344.0</ele><time>2026-05-03T12:31:03.571Z</time></trkpt><trkpt lat="43.4640843" lon="10.6308456"><ele>344.0</ele><time>2026-05-03T12:31:04.573Z</time></trkpt><trkpt lat="43.4639622" lon="10.6308373"><ele>344.0</ele><time>2026-05-03T12:31:05.572Z</time></trkpt><trkpt lat="43.4638434" lon="10.6308553"><ele>344.0</ele><time>2026-05-03T12:31:06.571Z</time></trkpt><trkpt lat="43.4637414" lon="10.630904"><ele>344.0</ele><time>2026-05-03T12:31:07.571Z</time></trkpt><trkpt lat="43.4636506" lon="10.6309773"><ele>342.0</ele><time>2026-05-03T12:31:08.571Z</time></trkpt><trkpt lat="43.4635799" lon="10.6310718"><ele>340.0</ele><time>2026-05-03T12:31:09.571Z</time></trkpt><trkpt lat="43.4635389" lon="10.6311707"><ele>338.0</ele><time>2026-05-03T12:31:10.572Z</time></trkpt><trkpt lat="43.4635067" lon="10.6313029"><ele>336.0</ele><time>2026-05-03T12:31:11.571Z</time></trkpt><trkpt lat="43.4634748" lon="10.631434"><ele>334.0</ele><time>2026-05-03T12:31:12.572Z</time></trkpt><trkpt lat="43.4634443" lon="10.6315722"><ele>334.0</ele><time>2026-05-03T12:31:13.571Z</time></trkpt><trkpt lat="43.4634099" lon="10.631713"><ele>334.0</ele><time>2026-05-03T12:31:14.571Z</time></trkpt><trkpt lat="43.4633768" lon="10.6318509"><ele>334.0</ele><time>2026-05-03T12:31:15.572Z</time></trkpt><trkpt lat="43.4633522" lon="10.6319769"><ele>334.0</ele><time>2026-05-03T12:31:16.572Z</time></trkpt><trkpt lat="43.4633012" lon="10.6322415"><ele>333.5</ele><time>2026-05-03T12:31:18.57Z</time></trkpt><trkpt lat="43.4632774" lon="10.632359"><ele>333.0</ele><time>2026-05-03T12:31:19.572Z</time></trkpt><trkpt lat="43.4632431" lon="10.6324504"><ele>332.5</ele><time>2026-05-03T12:31:20.572Z</time></trkpt><trkpt lat="43.4631289" lon="10.6325231"><ele>332.0</ele><time>2026-05-03T12:31:22.572Z</time></trkpt><trkpt lat="43.463074" lon="10.6324667"><ele>331.5</ele><time>2026-05-03T12:31:23.571Z</time></trkpt><trkpt lat="43.4630379" lon="10.6323693"><ele>331.0</ele><time>2026-05-03T12:31:24.571Z</time></trkpt><trkpt lat="43.4630095" lon="10.6322279"><ele>331.0</ele><time>2026-05-03T12:31:25.571Z</time></trkpt><trkpt lat="43.4629887" lon="10.6320437"><ele>331.0</ele><time>2026-05-03T12:31:26.572Z</time></trkpt><trkpt lat="43.4629696" lon="10.6318446"><ele>331.0</ele><time>2026-05-03T12:31:27.571Z</time></trkpt><trkpt lat="43.4629669" lon="10.6316262"><ele>331.0</ele><time>2026-05-03T12:31:28.57Z</time></trkpt><trkpt lat="43.4629602" lon="10.631415"><ele>330.75</ele><time>2026-05-03T12:31:29.571Z</time></trkpt><trkpt lat="43.4629563" lon="10.6312116"><ele>330.5</ele><time>2026-05-03T12:31:30.572Z</time></trkpt><trkpt lat="43.4629563" lon="10.6310195"><ele>330.25</ele><time>2026-05-03T12:31:31.571Z</time></trkpt><trkpt lat="43.462954" lon="10.6308309"><ele>330.0</ele><time>2026-05-03T12:31:32.57Z</time></trkpt><trkpt lat="43.4629523" lon="10.6306392"><ele>328.3333333333333</ele><time>2026-05-03T12:31:33.572Z</time></trkpt><trkpt lat="43.4629605" lon="10.6302459"><ele>326.66666666666663</ele><time>2026-05-03T12:31:35.571Z</time></trkpt><trkpt lat="43.4629689" lon="10.6300623"><ele>325.0</ele><time>2026-05-03T12:31:36.571Z</time></trkpt><trkpt lat="43.4629785" lon="10.6298997"><ele>325.0</ele><time>2026-05-03T12:31:37.572Z</time></trkpt><trkpt lat="43.4629893" lon="10.6297604"><ele>325.0</ele><time>2026-05-03T12:31:38.572Z</time></trkpt><trkpt lat="43.4629912" lon="10.6296401"><ele>325.0</ele><time>2026-05-03T12:31:39.571Z</time></trkpt><trkpt lat="43.46298" lon="10.6295475"><ele>325.0</ele><time>2026-05-03T12:31:40.571Z</time></trkpt><trkpt lat="43.4628823" lon="10.6294329"><ele>325.0</ele><time>2026-05-03T12:31:42.571Z</time></trkpt><trkpt lat="43.4628095" lon="10.6294356"><ele>322.2</ele><time>2026-05-03T12:31:43.572Z</time></trkpt><trkpt lat="43.4627472" lon="10.6294761"><ele>319.4</ele><time>2026-05-03T12:31:44.571Z</time></trkpt><trkpt lat="43.4626934" lon="10.6295918"><ele>316.6</ele><time>2026-05-03T12:31:45.57Z</time></trkpt><trkpt lat="43.4626402" lon="10.6297296"><ele>313.8</ele><time>2026-05-03T12:31:46.574Z</time></trkpt><trkpt lat="43.4625738" lon="10.6298921"><ele>311.0</ele><time>2026-05-03T12:31:47.571Z</time></trkpt><trkpt lat="43.462504" lon="10.6300719"><ele>311.0</ele><time>2026-05-03T12:31:48.572Z</time></trkpt><trkpt lat="43.4624325" lon="10.6302392"><ele>311.0</ele><time>2026-05-03T12:31:49.571Z</time></trkpt><trkpt lat="43.4623648" lon="10.6304046"><ele>311.0</ele><time>2026-05-03T12:31:50.572Z</time></trkpt><trkpt lat="43.4622945" lon="10.6305457"><ele>311.0</ele><time>2026-05-03T12:31:51.57Z</time></trkpt><trkpt lat="43.4622166" lon="10.6306697"><ele>310.75</ele><time>2026-05-03T12:31:52.57Z</time></trkpt><trkpt lat="43.4621271" lon="10.6307625"><ele>310.5</ele><time>2026-05-03T12:31:53.572Z</time></trkpt><trkpt lat="43.4620221" lon="10.6308097"><ele>310.25</ele><time>2026-05-03T12:31:54.571Z</time></trkpt><trkpt lat="43.4619124" lon="10.6308027"><ele>310.0</ele><time>2026-05-03T12:31:55.572Z</time></trkpt><trkpt lat="43.4617963" lon="10.630767"><ele>307.2</ele><time>2026-05-03T12:31:56.571Z</time></trkpt><trkpt lat="43.461678" lon="10.630723"><ele>304.4</ele><time>2026-05-03T12:31:57.572Z</time></trkpt><trkpt lat="43.4615673" lon="10.6306912"><ele>301.6</ele><time>2026-05-03T12:31:58.57Z</time></trkpt><trkpt lat="43.4614759" lon="10.6306554"><ele>298.8</ele><time>2026-05-03T12:31:59.57Z</time></trkpt><trkpt lat="43.4613982" lon="10.630597"><ele>296.0</ele><time>2026-05-03T12:32:00.571Z</time></trkpt><trkpt lat="43.4613439" lon="10.6305112"><ele>296.0</ele><time>2026-05-03T12:32:01.572Z</time></trkpt><trkpt lat="43.4613143" lon="10.6303985"><ele>296.0</ele><time>2026-05-03T12:32:02.572Z</time></trkpt><trkpt lat="43.4613229" lon="10.630273"><ele>296.0</ele><time>2026-05-03T12:32:03.572Z</time></trkpt><trkpt lat="43.4613499" lon="10.6301281"><ele>296.0</ele><time>2026-05-03T12:32:04.571Z</time></trkpt><trkpt lat="43.4613858" lon="10.6299695"><ele>296.0</ele><time>2026-05-03T12:32:05.57Z</time></trkpt><trkpt lat="43.4614265" lon="10.629805"><ele>295.2</ele><time>2026-05-03T12:32:06.572Z</time></trkpt><trkpt lat="43.4614689" lon="10.6296509"><ele>294.40000000000003</ele><time>2026-05-03T12:32:07.572Z</time></trkpt><trkpt lat="43.4615154" lon="10.6295088"><ele>293.6</ele><time>2026-05-03T12:32:08.572Z</time></trkpt><trkpt lat="43.4615548" lon="10.6293754"><ele>292.8</ele><time>2026-05-03T12:32:09.571Z</time></trkpt><trkpt lat="43.4615755" lon="10.6292594"><ele>292.0</ele><time>2026-05-03T12:32:10.571Z</time></trkpt><trkpt lat="43.461575" lon="10.6291502"><ele>290.8333333333333</ele><time>2026-05-03T12:32:11.573Z</time></trkpt><trkpt lat="43.4615492" lon="10.6290617"><ele>289.66666666666663</ele><time>2026-05-03T12:32:12.571Z</time></trkpt><trkpt lat="43.4614923" lon="10.628999"><ele>288.5</ele><time>2026-05-03T12:32:13.572Z</time></trkpt><trkpt lat="43.4614147" lon="10.6289908"><ele>287.3333333333333</ele><time>2026-05-03T12:32:14.572Z</time></trkpt><trkpt lat="43.4613353" lon="10.6290226"><ele>286.1666666666667</ele><time>2026-05-03T12:32:15.571Z</time></trkpt><trkpt lat="43.4612449" lon="10.6291067"><ele>285.0</ele><time>2026-05-03T12:32:16.57Z</time></trkpt><trkpt lat="43.4611417" lon="10.6292131"><ele>282.6666666666667</ele><time>2026-05-03T12:32:17.572Z</time></trkpt><trkpt lat="43.4609189" lon="10.6294177"><ele>280.33333333333337</ele><time>2026-05-03T12:32:19.572Z</time></trkpt><trkpt lat="43.4608159" lon="10.6294986"><ele>278.0</ele><time>2026-05-03T12:32:20.571Z</time></trkpt><trkpt lat="43.460724" lon="10.6295926"><ele>278.0</ele><time>2026-05-03T12:32:21.57Z</time></trkpt><trkpt lat="43.4606452" lon="10.6296893"><ele>278.0</ele><time>2026-05-03T12:32:22.57Z</time></trkpt><trkpt lat="43.4605849" lon="10.6298014"><ele>278.0</ele><time>2026-05-03T12:32:23.572Z</time></trkpt><trkpt lat="43.4605468" lon="10.6299219"><ele>278.0</ele><time>2026-05-03T12:32:24.57Z</time></trkpt><trkpt lat="43.4605181" lon="10.630059"><ele>278.0</ele><time>2026-05-03T12:32:25.571Z</time></trkpt><trkpt lat="43.4605029" lon="10.6302149"><ele>277.8</ele><time>2026-05-03T12:32:26.572Z</time></trkpt><trkpt lat="43.4604855" lon="10.630365"><ele>277.6</ele><time>2026-05-03T12:32:27.571Z</time></trkpt><trkpt lat="43.460475" lon="10.6305061"><ele>277.4</ele><time>2026-05-03T12:32:28.571Z</time></trkpt><trkpt lat="43.4604663" lon="10.6306416"><ele>277.2</ele><time>2026-05-03T12:32:29.57Z</time></trkpt><trkpt lat="43.4604482" lon="10.6307556"><ele>277.0</ele><time>2026-05-03T12:32:30.571Z</time></trkpt><trkpt lat="43.460406" lon="10.6308466"><ele>274.16666666666663</ele><time>2026-05-03T12:32:31.572Z</time></trkpt><trkpt lat="43.4603506" lon="10.6309105"><ele>271.3333333333333</ele><time>2026-05-03T12:32:32.571Z</time></trkpt><trkpt lat="43.4602755" lon="10.630915"><ele>268.5</ele><time>2026-05-03T12:32:33.573Z</time></trkpt><trkpt lat="43.4601983" lon="10.6308914"><ele>265.6666666666667</ele><time>2026-05-03T12:32:34.57Z</time></trkpt><trkpt lat="43.4601639" lon="10.6307678"><ele>262.83333333333337</ele><time>2026-05-03T12:32:35.57Z</time></trkpt><trkpt lat="43.4601159" lon="10.6306301"><ele>260.0</ele><time>2026-05-03T12:32:36.572Z</time></trkpt><trkpt lat="43.4600884" lon="10.6304414"><ele>259.6666666666667</ele><time>2026-05-03T12:32:37.57Z</time></trkpt><trkpt lat="43.4600507" lon="10.6302301"><ele>259.3333333333333</ele><time>2026-05-03T12:32:38.57Z</time></trkpt><trkpt lat="43.4600005" lon="10.6299774"><ele>259.0</ele><time>2026-05-03T12:32:39.573Z</time></trkpt><trkpt lat="43.4599471" lon="10.6297364"><ele>259.0</ele><time>2026-05-03T12:32:40.57Z</time></trkpt><trkpt lat="43.4599175" lon="10.6295231"><ele>259.0</ele><time>2026-05-03T12:32:41.571Z</time></trkpt><trkpt lat="43.4598845" lon="10.6293193"><ele>259.0</ele><time>2026-05-03T12:32:42.571Z</time></trkpt><trkpt lat="43.4598584" lon="10.6291312"><ele>259.0</ele><time>2026-05-03T12:32:43.572Z</time></trkpt><trkpt lat="43.4598331" lon="10.6289897"><ele>258.4</ele><time>2026-05-03T12:32:44.571Z</time></trkpt><trkpt lat="43.4597989" lon="10.6288521"><ele>257.79999999999995</ele><time>2026-05-03T12:32:45.573Z</time></trkpt><trkpt lat="43.4597228" lon="10.6287545"><ele>257.20000000000005</ele><time>2026-05-03T12:32:46.571Z</time></trkpt><trkpt lat="43.4596376" lon="10.6286633"><ele>256.6</ele><time>2026-05-03T12:32:47.571Z</time></trkpt><trkpt lat="43.4595396" lon="10.6285711"><ele>256.0</ele><time>2026-05-03T12:32:48.572Z</time></trkpt><trkpt lat="43.4594336" lon="10.6284737"><ele>255.60000000000002</ele><time>2026-05-03T12:32:49.571Z</time></trkpt><trkpt lat="43.4593354" lon="10.6283942"><ele>255.20000000000002</ele><time>2026-05-03T12:32:50.57Z</time></trkpt><trkpt lat="43.4592505" lon="10.6283302"><ele>254.79999999999998</ele><time>2026-05-03T12:32:51.572Z</time></trkpt><trkpt lat="43.4591688" lon="10.6283112"><ele>254.39999999999998</ele><time>2026-05-03T12:32:52.572Z</time></trkpt><trkpt lat="43.4590886" lon="10.6283208"><ele>254.0</ele><time>2026-05-03T12:32:53.572Z</time></trkpt><trkpt lat="43.4590115" lon="10.6283774"><ele>254.0</ele><time>2026-05-03T12:32:54.571Z</time></trkpt><trkpt lat="43.4589418" lon="10.6284556"><ele>253.99999999999997</ele><time>2026-05-03T12:32:55.572Z</time></trkpt><trkpt lat="43.4588814" lon="10.6285657"><ele>253.99999999999997</ele><time>2026-05-03T12:32:56.572Z</time></trkpt><trkpt lat="43.4588488" lon="10.6286939"><ele>254.0</ele><time>2026-05-03T12:32:57.571Z</time></trkpt><trkpt lat="43.45883" lon="10.6288411"><ele>254.0</ele><time>2026-05-03T12:32:58.571Z</time></trkpt><trkpt lat="43.4588103" lon="10.6290196"><ele>253.5</ele><time>2026-05-03T12:32:59.571Z</time></trkpt><trkpt lat="43.4587987" lon="10.6292152"><ele>253.0</ele><time>2026-05-03T12:33:00.571Z</time></trkpt><trkpt lat="43.4587846" lon="10.6293895"><ele>252.5</ele><time>2026-05-03T12:33:01.57Z</time></trkpt><trkpt lat="43.4587611" lon="10.6295305"><ele>252.0</ele><time>2026-05-03T12:33:02.571Z</time></trkpt><trkpt lat="43.4587384" lon="10.6296576"><ele>254.39999999999998</ele><time>2026-05-03T12:33:03.571Z</time></trkpt><trkpt lat="43.4586713" lon="10.629737"><ele>256.79999999999995</ele><time>2026-05-03T12:33:04.57Z</time></trkpt><trkpt lat="43.4585846" lon="10.629807"><ele>259.2</ele><time>2026-05-03T12:33:05.571Z</time></trkpt><trkpt lat="43.4584701" lon="10.6298591"><ele>261.59999999999997</ele><time>2026-05-03T12:33:06.571Z</time></trkpt><trkpt lat="43.4583441" lon="10.6299163"><ele>264.0</ele><time>2026-05-03T12:33:07.571Z</time></trkpt><trkpt lat="43.4582139" lon="10.6299777"><ele>264.0</ele><time>2026-05-03T12:33:08.572Z</time></trkpt><trkpt lat="43.4580905" lon="10.6300516"><ele>264.0</ele><time>2026-05-03T12:33:09.57Z</time></trkpt><trkpt lat="43.4579736" lon="10.6301568"><ele>264.0</ele><time>2026-05-03T12:33:10.571Z</time></trkpt><trkpt lat="43.4578655" lon="10.6302927"><ele>264.0</ele><time>2026-05-03T12:33:11.571Z</time></trkpt><trkpt lat="43.4577603" lon="10.6304614"><ele>267.3333333333333</ele><time>2026-05-03T12:33:12.57Z</time></trkpt><trkpt lat="43.457647" lon="10.6306589"><ele>270.66666666666663</ele><time>2026-05-03T12:33:13.571Z</time></trkpt><trkpt lat="43.4575285" lon="10.6308624"><ele>274.0</ele><time>2026-05-03T12:33:14.571Z</time></trkpt><trkpt lat="43.4574156" lon="10.6310643"><ele>272.66666666666663</ele><time>2026-05-03T12:33:15.571Z</time></trkpt><trkpt lat="43.4573199" lon="10.6312329"><ele>271.3333333333333</ele><time>2026-05-03T12:33:16.57Z</time></trkpt><trkpt lat="43.457163" lon="10.6315672"><ele>270.0</ele><time>2026-05-03T12:33:18.572Z</time></trkpt><trkpt lat="43.4571197" lon="10.6317535"><ele>274.6</ele><time>2026-05-03T12:33:19.571Z</time></trkpt><trkpt lat="43.4571048" lon="10.631928"><ele>279.2</ele><time>2026-05-03T12:33:20.572Z</time></trkpt><trkpt lat="43.4570982" lon="10.6320771"><ele>283.8</ele><time>2026-05-03T12:33:21.571Z</time></trkpt><trkpt lat="43.4570868" lon="10.6322176"><ele>288.4</ele><time>2026-05-03T12:33:22.571Z</time></trkpt><trkpt lat="43.4570558" lon="10.6323133"><ele>293.0</ele><time>2026-05-03T12:33:23.571Z</time></trkpt><trkpt lat="43.4569973" lon="10.6323804"><ele>293.0</ele><time>2026-05-03T12:33:24.57Z</time></trkpt><trkpt lat="43.4569237" lon="10.6323853"><ele>293.0</ele><time>2026-05-03T12:33:25.571Z</time></trkpt><trkpt lat="43.4568594" lon="10.6323406"><ele>293.0</ele><time>2026-05-03T12:33:26.571Z</time></trkpt><trkpt lat="43.4568186" lon="10.6322498"><ele>293.0</ele><time>2026-05-03T12:33:27.572Z</time></trkpt><trkpt lat="43.4568014" lon="10.6321327"><ele>293.0</ele><time>2026-05-03T12:33:28.572Z</time></trkpt><trkpt lat="43.4567764" lon="10.6319655"><ele>293.0</ele><time>2026-05-03T12:33:29.571Z</time></trkpt><trkpt lat="43.4567489" lon="10.6317827"><ele>294.33333333333337</ele><time>2026-05-03T12:33:30.572Z</time></trkpt><trkpt lat="43.4567103" lon="10.6315858"><ele>295.6666666666667</ele><time>2026-05-03T12:33:31.571Z</time></trkpt><trkpt lat="43.4566616" lon="10.631372"><ele>297.0</ele><time>2026-05-03T12:33:32.571Z</time></trkpt><trkpt lat="43.4566081" lon="10.6311586"><ele>297.3333333333333</ele><time>2026-05-03T12:33:33.571Z</time></trkpt><trkpt lat="43.4565706" lon="10.6309411"><ele>297.66666666666663</ele><time>2026-05-03T12:33:34.57Z</time></trkpt><trkpt lat="43.456543" lon="10.6307161"><ele>298.0</ele><time>2026-05-03T12:33:35.571Z</time></trkpt><trkpt lat="43.4565376" lon="10.630474"><ele>300.25</ele><time>2026-05-03T12:33:36.57Z</time></trkpt><trkpt lat="43.4565308" lon="10.6302397"><ele>302.5</ele><time>2026-05-03T12:33:37.571Z</time></trkpt><trkpt lat="43.4565097" lon="10.6300498"><ele>304.75</ele><time>2026-05-03T12:33:38.572Z</time></trkpt><trkpt lat="43.4565376" lon="10.6298892"><ele>307.0</ele><time>2026-05-03T12:33:39.57Z</time></trkpt><trkpt lat="43.456596" lon="10.6297396"><ele>307.0</ele><time>2026-05-03T12:33:40.571Z</time></trkpt><trkpt lat="43.4566809" lon="10.6296064"><ele>307.0</ele><time>2026-05-03T12:33:41.57Z</time></trkpt><trkpt lat="43.4567757" lon="10.6294974"><ele>307.0</ele><time>2026-05-03T12:33:42.571Z</time></trkpt><trkpt lat="43.4568573" lon="10.6293833"><ele>307.0</ele><time>2026-05-03T12:33:43.572Z</time></trkpt><trkpt lat="43.456919" lon="10.629247"><ele>309.75</ele><time>2026-05-03T12:33:44.572Z</time></trkpt><trkpt lat="43.4569638" lon="10.6290762"><ele>312.5</ele><time>2026-05-03T12:33:45.571Z</time></trkpt><trkpt lat="43.4570097" lon="10.6288831"><ele>315.25</ele><time>2026-05-03T12:33:46.572Z</time></trkpt><trkpt lat="43.4570569" lon="10.6287223"><ele>318.0</ele><time>2026-05-03T12:33:47.571Z</time></trkpt><trkpt lat="43.4570904" lon="10.6285833"><ele>319.6</ele><time>2026-05-03T12:33:48.571Z</time></trkpt><trkpt lat="43.4570928" lon="10.6284501"><ele>321.20000000000005</ele><time>2026-05-03T12:33:49.571Z</time></trkpt><trkpt lat="43.4570616" lon="10.6283241"><ele>322.8</ele><time>2026-05-03T12:33:50.571Z</time></trkpt><trkpt lat="43.4570026" lon="10.6282024"><ele>324.40000000000003</ele><time>2026-05-03T12:33:51.571Z</time></trkpt><trkpt lat="43.4569152" lon="10.6280697"><ele>326.0</ele><time>2026-05-03T12:33:52.572Z</time></trkpt><trkpt lat="43.4568216" lon="10.6279216"><ele>325.6666666666667</ele><time>2026-05-03T12:33:53.572Z</time></trkpt><trkpt lat="43.4567241" lon="10.6277654"><ele>325.3333333333333</ele><time>2026-05-03T12:33:54.57Z</time></trkpt><trkpt lat="43.4566707" lon="10.6275794"><ele>325.0</ele><time>2026-05-03T12:33:55.572Z</time></trkpt><trkpt lat="43.4566168" lon="10.6273774"><ele>325.0</ele><time>2026-05-03T12:33:56.572Z</time></trkpt><trkpt lat="43.4565546" lon="10.6271598"><ele>325.0</ele><time>2026-05-03T12:33:57.571Z</time></trkpt><trkpt lat="43.4564928" lon="10.6269591"><ele>325.0</ele><time>2026-05-03T12:33:58.571Z</time></trkpt><trkpt lat="43.4564457" lon="10.6267883"><ele>324.4</ele><time>2026-05-03T12:33:59.571Z</time></trkpt><trkpt lat="43.4564006" lon="10.6266451"><ele>323.8</ele><time>2026-05-03T12:34:00.572Z</time></trkpt><trkpt lat="43.4563501" lon="10.626546"><ele>323.20000000000005</ele><time>2026-05-03T12:34:01.571Z</time></trkpt><trkpt lat="43.456274" lon="10.6264774"><ele>322.6</ele><time>2026-05-03T12:34:02.57Z</time></trkpt><trkpt lat="43.4561693" lon="10.6264413"><ele>322.0</ele><time>2026-05-03T12:34:03.571Z</time></trkpt><trkpt lat="43.4560491" lon="10.6264509"><ele>326.0</ele><time>2026-05-03T12:34:04.571Z</time></trkpt><trkpt lat="43.455912" lon="10.6264897"><ele>330.0</ele><time>2026-05-03T12:34:05.571Z</time></trkpt><trkpt lat="43.4557834" lon="10.6265549"><ele>334.0</ele><time>2026-05-03T12:34:06.571Z</time></trkpt><trkpt lat="43.4556627" lon="10.6266427"><ele>338.0</ele><time>2026-05-03T12:34:07.572Z</time></trkpt><trkpt lat="43.4555612" lon="10.6267406"><ele>338.0</ele><time>2026-05-03T12:34:08.571Z</time></trkpt><trkpt lat="43.4554823" lon="10.6267766"><ele>338.0</ele><time>2026-05-03T12:34:09.571Z</time></trkpt><trkpt lat="43.4554111" lon="10.6267817"><ele>338.0</ele><time>2026-05-03T12:34:10.571Z</time></trkpt><trkpt lat="43.4553525" lon="10.6267444"><ele>338.0</ele><time>2026-05-03T12:34:11.571Z</time></trkpt><trkpt lat="43.455312" lon="10.6266536"><ele>338.0</ele><time>2026-05-03T12:34:12.571Z</time></trkpt><trkpt lat="43.4552845" lon="10.6265408"><ele>338.0</ele><time>2026-05-03T12:34:13.571Z</time></trkpt><trkpt lat="43.455247" lon="10.6264525"><ele>340.1666666666667</ele><time>2026-05-03T12:34:14.57Z</time></trkpt><trkpt lat="43.4551946" lon="10.6263861"><ele>342.33333333333337</ele><time>2026-05-03T12:34:15.571Z</time></trkpt><trkpt lat="43.4551268" lon="10.6263899"><ele>344.5</ele><time>2026-05-03T12:34:16.57Z</time></trkpt><trkpt lat="43.4550617" lon="10.6264538"><ele>346.6666666666667</ele><time>2026-05-03T12:34:17.571Z</time></trkpt><trkpt lat="43.4550221" lon="10.6265719"><ele>348.8333333333333</ele><time>2026-05-03T12:34:18.571Z</time></trkpt><trkpt lat="43.4549953" lon="10.6267119"><ele>351.0</ele><time>2026-05-03T12:34:19.571Z</time></trkpt><trkpt lat="43.4550017" lon="10.6269066"><ele>352.0</ele><time>2026-05-03T12:34:20.571Z</time></trkpt><trkpt lat="43.4550096" lon="10.6271227"><ele>353.0</ele><time>2026-05-03T12:34:21.57Z</time></trkpt><trkpt lat="43.4550232" lon="10.627374"><ele>354.0</ele><time>2026-05-03T12:34:22.571Z</time></trkpt><trkpt lat="43.4550316" lon="10.6276603"><ele>356.3333333333333</ele><time>2026-05-03T12:34:23.571Z</time></trkpt><trkpt lat="43.455042" lon="10.6279428"><ele>358.66666666666663</ele><time>2026-05-03T12:34:24.572Z</time></trkpt><trkpt lat="43.455052" lon="10.6282474"><ele>361.0</ele><time>2026-05-03T12:34:25.571Z</time></trkpt><trkpt lat="43.4550613" lon="10.6285254"><ele>362.66666666666663</ele><time>2026-05-03T12:34:26.572Z</time></trkpt><trkpt lat="43.4550664" lon="10.6287866"><ele>364.3333333333333</ele><time>2026-05-03T12:34:27.572Z</time></trkpt><trkpt lat="43.4550693" lon="10.6290314"><ele>366.0</ele><time>2026-05-03T12:34:28.572Z</time></trkpt><trkpt lat="43.4550729" lon="10.6292606"><ele>366.0</ele><time>2026-05-03T12:34:29.571Z</time></trkpt><trkpt lat="43.4550724" lon="10.6294621"><ele>366.0</ele><time>2026-05-03T12:34:30.571Z</time></trkpt><trkpt lat="43.4550572" lon="10.6296295"><ele>366.0</ele><time>2026-05-03T12:34:31.572Z</time></trkpt><trkpt lat="43.4550196" lon="10.6297635"><ele>366.0</ele><time>2026-05-03T12:34:32.571Z</time></trkpt><trkpt lat="43.4549473" lon="10.6298729"><ele>365.75</ele><time>2026-05-03T12:34:33.571Z</time></trkpt><trkpt lat="43.4548633" lon="10.629976"><ele>365.5</ele><time>2026-05-03T12:34:34.571Z</time></trkpt><trkpt lat="43.4547689" lon="10.6300891"><ele>365.25</ele><time>2026-05-03T12:34:35.571Z</time></trkpt><trkpt lat="43.4546767" lon="10.6302018"><ele>365.0</ele><time>2026-05-03T12:34:36.57Z</time></trkpt><trkpt lat="43.4545955" lon="10.6303257"><ele>366.8</ele><time>2026-05-03T12:34:37.572Z</time></trkpt><trkpt lat="43.4545253" lon="10.6304583"><ele>368.6</ele><time>2026-05-03T12:34:38.571Z</time></trkpt><trkpt lat="43.4544699" lon="10.6305955"><ele>370.4</ele><time>2026-05-03T12:34:39.571Z</time></trkpt><trkpt lat="43.4544066" lon="10.6307311"><ele>372.2</ele><time>2026-05-03T12:34:40.571Z</time></trkpt><trkpt lat="43.4543406" lon="10.6308165"><ele>374.0</ele><time>2026-05-03T12:34:41.571Z</time></trkpt><trkpt lat="43.4542648" lon="10.630877"><ele>374.0</ele><time>2026-05-03T12:34:42.571Z</time></trkpt><trkpt lat="43.4541747" lon="10.6308916"><ele>374.0</ele><time>2026-05-03T12:34:43.572Z</time></trkpt><trkpt lat="43.4540728" lon="10.6308718"><ele>374.0</ele><time>2026-05-03T12:34:44.57Z</time></trkpt><trkpt lat="43.4539805" lon="10.6308439"><ele>374.0</ele><time>2026-05-03T12:34:45.571Z</time></trkpt><trkpt lat="43.4539202" lon="10.6308078"><ele>374.0</ele><time>2026-05-03T12:34:46.572Z</time></trkpt><trkpt lat="43.4538607" lon="10.6307418"><ele>374.0</ele><time>2026-05-03T12:34:48.571Z</time></trkpt><trkpt lat="43.4538385" lon="10.6306097"><ele>374.0</ele><time>2026-05-03T12:35:01.571Z</time></trkpt><trkpt lat="43.4538523" lon="10.6305013"><ele>374.0</ele><time>2026-05-03T12:35:04.571Z</time></trkpt><trkpt lat="43.4538023" lon="10.6305897"><ele>374.0</ele><time>2026-05-03T12:36:23.57Z</time></trkpt><trkpt lat="43.4538069" lon="10.6306951"><ele>374.0</ele><time>2026-05-03T12:36:24.572Z</time></trkpt><trkpt lat="43.4538015" lon="10.6308285"><ele>374.0</ele><time>2026-05-03T12:36:25.57Z</time></trkpt><trkpt lat="43.4537901" lon="10.6309749"><ele>374.0</ele><time>2026-05-03T12:36:26.57Z</time></trkpt><trkpt lat="43.4537735" lon="10.6311366"><ele>370.5</ele><time>2026-05-03T12:36:27.571Z</time></trkpt><trkpt lat="43.4537539" lon="10.6313045"><ele>367.0</ele><time>2026-05-03T12:36:28.571Z</time></trkpt><trkpt lat="43.4537366" lon="10.6314823"><ele>363.5</ele><time>2026-05-03T12:36:29.57Z</time></trkpt><trkpt lat="43.4537252" lon="10.6316671"><ele>360.0</ele><time>2026-05-03T12:36:30.571Z</time></trkpt><trkpt lat="43.4537229" lon="10.6318616"><ele>358.0</ele><time>2026-05-03T12:36:31.571Z</time></trkpt><trkpt lat="43.453731" lon="10.6320604"><ele>356.0</ele><time>2026-05-03T12:36:32.57Z</time></trkpt><trkpt lat="43.4537588" lon="10.6322761"><ele>354.0</ele><time>2026-05-03T12:36:33.571Z</time></trkpt><trkpt lat="43.4538078" lon="10.6325073"><ele>357.0</ele><time>2026-05-03T12:36:34.571Z</time></trkpt><trkpt lat="43.453879" lon="10.6327379"><ele>360.0</ele><time>2026-05-03T12:36:35.572Z</time></trkpt><trkpt lat="43.4539709" lon="10.6329889"><ele>363.0</ele><time>2026-05-03T12:36:36.571Z</time></trkpt><trkpt lat="43.4540641" lon="10.6332421"><ele>363.0</ele><time>2026-05-03T12:36:37.571Z</time></trkpt><trkpt lat="43.4541527" lon="10.6334856"><ele>363.0</ele><time>2026-05-03T12:36:38.571Z</time></trkpt><trkpt lat="43.454242" lon="10.6337153"><ele>363.0</ele><time>2026-05-03T12:36:39.571Z</time></trkpt><trkpt lat="43.4543268" lon="10.6339348"><ele>362.0</ele><time>2026-05-03T12:36:40.57Z</time></trkpt><trkpt lat="43.4543961" lon="10.6341518"><ele>361.0</ele><time>2026-05-03T12:36:41.571Z</time></trkpt><trkpt lat="43.4544503" lon="10.6343648"><ele>360.0</ele><time>2026-05-03T12:36:42.571Z</time></trkpt><trkpt lat="43.4544918" lon="10.6345925"><ele>358.6666666666667</ele><time>2026-05-03T12:36:43.57Z</time></trkpt><trkpt lat="43.454513" lon="10.6348422"><ele>357.33333333333337</ele><time>2026-05-03T12:36:44.571Z</time></trkpt><trkpt lat="43.4545258" lon="10.6351116"><ele>356.0</ele><time>2026-05-03T12:36:45.571Z</time></trkpt><trkpt lat="43.4545258" lon="10.6353666"><ele>355.0</ele><time>2026-05-03T12:36:46.57Z</time></trkpt><trkpt lat="43.4545205" lon="10.6356115"><ele>354.0</ele><time>2026-05-03T12:36:47.571Z</time></trkpt><trkpt lat="43.4545111" lon="10.6360804"><ele>353.6666666666667</ele><time>2026-05-03T12:36:49.57Z</time></trkpt><trkpt lat="43.4544876" lon="10.6363168"><ele>353.33333333333337</ele><time>2026-05-03T12:36:50.571Z</time></trkpt><trkpt lat="43.4544561" lon="10.6365476"><ele>353.0</ele><time>2026-05-03T12:36:51.571Z</time></trkpt><trkpt lat="43.454421" lon="10.6367935"><ele>352.33333333333337</ele><time>2026-05-03T12:36:52.571Z</time></trkpt><trkpt lat="43.4543887" lon="10.6370342"><ele>351.6666666666667</ele><time>2026-05-03T12:36:53.572Z</time></trkpt><trkpt lat="43.4543664" lon="10.6372666"><ele>351.0</ele><time>2026-05-03T12:36:54.571Z</time></trkpt><trkpt lat="43.4543384" lon="10.6374956"><ele>351.0</ele><time>2026-05-03T12:36:55.571Z</time></trkpt><trkpt lat="43.4543076" lon="10.6377179"><ele>351.0</ele><time>2026-05-03T12:36:56.571Z</time></trkpt><trkpt lat="43.4542824" lon="10.637937"><ele>351.0</ele><time>2026-05-03T12:36:57.571Z</time></trkpt><trkpt lat="43.4542662" lon="10.6381396"><ele>348.0</ele><time>2026-05-03T12:36:58.572Z</time></trkpt><trkpt lat="43.4542556" lon="10.6383472"><ele>345.0</ele><time>2026-05-03T12:36:59.571Z</time></trkpt><trkpt lat="43.4542788" lon="10.6385527"><ele>342.0</ele><time>2026-05-03T12:37:00.571Z</time></trkpt><trkpt lat="43.4543105" lon="10.6387524"><ele>338.6666666666667</ele><time>2026-05-03T12:37:01.571Z</time></trkpt><trkpt lat="43.4543719" lon="10.6389645"><ele>335.33333333333337</ele><time>2026-05-03T12:37:02.572Z</time></trkpt><trkpt lat="43.4544341" lon="10.6391769"><ele>332.0</ele><time>2026-05-03T12:37:03.571Z</time></trkpt><trkpt lat="43.4545079" lon="10.6394"><ele>326.33333333333337</ele><time>2026-05-03T12:37:04.572Z</time></trkpt><trkpt lat="43.4545624" lon="10.6395909"><ele>320.6666666666667</ele><time>2026-05-03T12:37:05.571Z</time></trkpt><trkpt lat="43.4545875" lon="10.6398086"><ele>315.0</ele><time>2026-05-03T12:37:06.571Z</time></trkpt><trkpt lat="43.4546114" lon="10.6400215"><ele>315.0</ele><time>2026-05-03T12:37:07.572Z</time></trkpt><trkpt lat="43.4546367" lon="10.6402444"><ele>315.0</ele><time>2026-05-03T12:37:08.57Z</time></trkpt><trkpt lat="43.4546558" lon="10.6404732"><ele>315.0</ele><time>2026-05-03T12:37:09.572Z</time></trkpt><trkpt lat="43.4546862" lon="10.6407024"><ele>315.0</ele><time>2026-05-03T12:37:10.572Z</time></trkpt><trkpt lat="43.4547029" lon="10.6409433"><ele>315.0</ele><time>2026-05-03T12:37:11.572Z</time></trkpt><trkpt lat="43.4547237" lon="10.6411793"><ele>315.0</ele><time>2026-05-03T12:37:12.571Z</time></trkpt><trkpt lat="43.454746" lon="10.6414223"><ele>313.0</ele><time>2026-05-03T12:37:13.571Z</time></trkpt><trkpt lat="43.4547733" lon="10.6416767"><ele>311.0</ele><time>2026-05-03T12:37:14.571Z</time></trkpt><trkpt lat="43.4547952" lon="10.6419225"><ele>309.0</ele><time>2026-05-03T12:37:15.571Z</time></trkpt><trkpt lat="43.4548178" lon="10.642162"><ele>306.3333333333333</ele><time>2026-05-03T12:37:16.57Z</time></trkpt><trkpt lat="43.454839" lon="10.6424009"><ele>303.66666666666663</ele><time>2026-05-03T12:37:17.572Z</time></trkpt><trkpt lat="43.4548577" lon="10.6426371"><ele>301.0</ele><time>2026-05-03T12:37:18.571Z</time></trkpt><trkpt lat="43.4548773" lon="10.6428722"><ele>298.66666666666663</ele><time>2026-05-03T12:37:19.57Z</time></trkpt><trkpt lat="43.4548924" lon="10.6431017"><ele>296.3333333333333</ele><time>2026-05-03T12:37:20.571Z</time></trkpt><trkpt lat="43.4549018" lon="10.6433296"><ele>294.0</ele><time>2026-05-03T12:37:21.571Z</time></trkpt><trkpt lat="43.4549077" lon="10.6435574"><ele>292.3333333333333</ele><time>2026-05-03T12:37:22.57Z</time></trkpt><trkpt lat="43.4549086" lon="10.6437844"><ele>290.66666666666663</ele><time>2026-05-03T12:37:23.571Z</time></trkpt><trkpt lat="43.4549107" lon="10.6439941"><ele>289.0</ele><time>2026-05-03T12:37:24.571Z</time></trkpt><trkpt lat="43.4549137" lon="10.6441793"><ele>289.0</ele><time>2026-05-03T12:37:25.571Z</time></trkpt><trkpt lat="43.454913" lon="10.6443451"><ele>289.0</ele><time>2026-05-03T12:37:26.571Z</time></trkpt><trkpt lat="43.4549013" lon="10.6444876"><ele>289.0</ele><time>2026-05-03T12:37:27.571Z</time></trkpt><trkpt lat="43.4548134" lon="10.6446737"><ele>289.0</ele><time>2026-05-03T12:37:29.572Z</time></trkpt><trkpt lat="43.4547405" lon="10.6447026"><ele>288.25</ele><time>2026-05-03T12:37:30.571Z</time></trkpt><trkpt lat="43.4546405" lon="10.6446993"><ele>287.5</ele><time>2026-05-03T12:37:31.571Z</time></trkpt><trkpt lat="43.4545105" lon="10.644655"><ele>286.75</ele><time>2026-05-03T12:37:32.571Z</time></trkpt><trkpt lat="43.4543685" lon="10.6445993"><ele>286.0</ele><time>2026-05-03T12:37:33.572Z</time></trkpt><trkpt lat="43.4542107" lon="10.6445624"><ele>282.3333333333333</ele><time>2026-05-03T12:37:34.571Z</time></trkpt><trkpt lat="43.4540481" lon="10.6445377"><ele>278.6666666666667</ele><time>2026-05-03T12:37:35.571Z</time></trkpt><trkpt lat="43.4538955" lon="10.6445305"><ele>275.0</ele><time>2026-05-03T12:37:36.57Z</time></trkpt><trkpt lat="43.4537575" lon="10.6445389"><ele>273.4</ele><time>2026-05-03T12:37:37.57Z</time></trkpt><trkpt lat="43.4536394" lon="10.6445392"><ele>271.8</ele><time>2026-05-03T12:37:38.57Z</time></trkpt><trkpt lat="43.453535" lon="10.6445429"><ele>270.2</ele><time>2026-05-03T12:37:39.57Z</time></trkpt><trkpt lat="43.4534533" lon="10.6444958"><ele>268.6</ele><time>2026-05-03T12:37:40.572Z</time></trkpt><trkpt lat="43.4533952" lon="10.6444159"><ele>267.0</ele><time>2026-05-03T12:37:41.571Z</time></trkpt><trkpt lat="43.4533761" lon="10.6442985"><ele>267.0</ele><time>2026-05-03T12:37:42.57Z</time></trkpt><trkpt lat="43.4533929" lon="10.6441653"><ele>267.0</ele><time>2026-05-03T12:37:43.571Z</time></trkpt><trkpt lat="43.4534376" lon="10.6440277"><ele>267.0</ele><time>2026-05-03T12:37:44.571Z</time></trkpt><trkpt lat="43.4534823" lon="10.6438806"><ele>267.0</ele><time>2026-05-03T12:37:45.571Z</time></trkpt><trkpt lat="43.4535165" lon="10.6437499"><ele>267.0</ele><time>2026-05-03T12:37:46.571Z</time></trkpt><trkpt lat="43.4535233" lon="10.643633"><ele>267.0</ele><time>2026-05-03T12:37:47.571Z</time></trkpt><trkpt lat="43.453494" lon="10.6435292"><ele>267.0</ele><time>2026-05-03T12:37:48.57Z</time></trkpt><trkpt lat="43.4534322" lon="10.6434491"><ele>267.0</ele><time>2026-05-03T12:37:49.571Z</time></trkpt><trkpt lat="43.4533475" lon="10.6434126"><ele>267.0</ele><time>2026-05-03T12:37:50.571Z</time></trkpt><trkpt lat="43.4532645" lon="10.6434333"><ele>267.0</ele><time>2026-05-03T12:37:51.571Z</time></trkpt><trkpt lat="43.4531976" lon="10.6435065"><ele>267.0</ele><time>2026-05-03T12:37:52.571Z</time></trkpt><trkpt lat="43.4531397" lon="10.643631"><ele>267.0</ele><time>2026-05-03T12:37:53.57Z</time></trkpt><trkpt lat="43.4530718" lon="10.6437797"><ele>267.0</ele><time>2026-05-03T12:37:54.571Z</time></trkpt><trkpt lat="43.4529925" lon="10.6439403"><ele>267.0</ele><time>2026-05-03T12:37:55.571Z</time></trkpt><trkpt lat="43.4529142" lon="10.6440672"><ele>267.0</ele><time>2026-05-03T12:37:56.571Z</time></trkpt><trkpt lat="43.4528544" lon="10.6442027"><ele>264.6</ele><time>2026-05-03T12:37:57.571Z</time></trkpt><trkpt lat="43.4528262" lon="10.6443486"><ele>262.2</ele><time>2026-05-03T12:37:58.571Z</time></trkpt><trkpt lat="43.452822" lon="10.6444856"><ele>259.8</ele><time>2026-05-03T12:37:59.571Z</time></trkpt><trkpt lat="43.4528571" lon="10.6446316"><ele>257.4</ele><time>2026-05-03T12:38:00.571Z</time></trkpt><trkpt lat="43.452913" lon="10.6447703"><ele>255.0</ele><time>2026-05-03T12:38:01.57Z</time></trkpt><trkpt lat="43.4529944" lon="10.6448771"><ele>255.0</ele><time>2026-05-03T12:38:02.571Z</time></trkpt><trkpt lat="43.4530771" lon="10.6449894"><ele>255.0</ele><time>2026-05-03T12:38:03.571Z</time></trkpt><trkpt lat="43.4531332" lon="10.6451304"><ele>255.0</ele><time>2026-05-03T12:38:04.57Z</time></trkpt><trkpt lat="43.4531931" lon="10.6452687"><ele>255.0</ele><time>2026-05-03T12:38:05.57Z</time></trkpt><trkpt lat="43.453184" lon="10.6454332"><ele>251.8</ele><time>2026-05-03T12:38:06.571Z</time></trkpt><trkpt lat="43.4531236" lon="10.645576"><ele>248.6</ele><time>2026-05-03T12:38:07.571Z</time></trkpt><trkpt lat="43.4530517" lon="10.6456454"><ele>245.39999999999998</ele><time>2026-05-03T12:38:08.569Z</time></trkpt><trkpt lat="43.4529653" lon="10.6457162"><ele>242.2</ele><time>2026-05-03T12:38:09.571Z</time></trkpt><trkpt lat="43.4528623" lon="10.645701"><ele>239.0</ele><time>2026-05-03T12:38:10.571Z</time></trkpt><trkpt lat="43.452775" lon="10.645639"><ele>237.0</ele><time>2026-05-03T12:38:11.572Z</time></trkpt><trkpt lat="43.4527045" lon="10.6455362"><ele>234.99999999999997</ele><time>2026-05-03T12:38:12.571Z</time></trkpt><trkpt lat="43.4526588" lon="10.6454032"><ele>232.99999999999997</ele><time>2026-05-03T12:38:13.571Z</time></trkpt><trkpt lat="43.4526237" lon="10.6452591"><ele>231.0</ele><time>2026-05-03T12:38:14.57Z</time></trkpt><trkpt lat="43.4525747" lon="10.6451368"><ele>229.0</ele><time>2026-05-03T12:38:15.572Z</time></trkpt><trkpt lat="43.4525036" lon="10.6450487"><ele>228.99999999999997</ele><time>2026-05-03T12:38:16.572Z</time></trkpt><trkpt lat="43.45242" lon="10.6450161"><ele>229.0</ele><time>2026-05-03T12:38:17.572Z</time></trkpt><trkpt lat="43.4523443" lon="10.645044"><ele>229.0</ele><time>2026-05-03T12:38:18.571Z</time></trkpt><trkpt lat="43.4522921" lon="10.6451262"><ele>229.0</ele><time>2026-05-03T12:38:19.57Z</time></trkpt><trkpt lat="43.4522628" lon="10.6452388"><ele>228.99999999999997</ele><time>2026-05-03T12:38:20.57Z</time></trkpt><trkpt lat="43.452292" lon="10.6453643"><ele>229.0</ele><time>2026-05-03T12:38:21.571Z</time></trkpt><trkpt lat="43.452339" lon="10.6455166"><ele>226.5</ele><time>2026-05-03T12:38:22.571Z</time></trkpt><trkpt lat="43.4523873" lon="10.6456922"><ele>224.0</ele><time>2026-05-03T12:38:23.572Z</time></trkpt><trkpt lat="43.452409" lon="10.6458912"><ele>221.5</ele><time>2026-05-03T12:38:24.57Z</time></trkpt><trkpt lat="43.4524115" lon="10.646067"><ele>219.0</ele><time>2026-05-03T12:38:25.571Z</time></trkpt><trkpt lat="43.4524145" lon="10.6462368"><ele>217.25</ele><time>2026-05-03T12:38:26.57Z</time></trkpt><trkpt lat="43.4524237" lon="10.6464061"><ele>215.5</ele><time>2026-05-03T12:38:27.569Z</time></trkpt><trkpt lat="43.4524521" lon="10.6465869"><ele>213.75</ele><time>2026-05-03T12:38:28.57Z</time></trkpt><trkpt lat="43.4525302" lon="10.6467688"><ele>212.0</ele><time>2026-05-03T12:38:29.572Z</time></trkpt><trkpt lat="43.4526194" lon="10.6469669"><ele>208.66666666666669</ele><time>2026-05-03T12:38:30.571Z</time></trkpt><trkpt lat="43.4527308" lon="10.6471976"><ele>205.33333333333331</ele><time>2026-05-03T12:38:31.572Z</time></trkpt><trkpt lat="43.4528434" lon="10.6474042"><ele>202.0</ele><time>2026-05-03T12:38:32.571Z</time></trkpt><trkpt lat="43.4529601" lon="10.6476223"><ele>204.33333333333331</ele><time>2026-05-03T12:38:33.571Z</time></trkpt><trkpt lat="43.4530686" lon="10.6478233"><ele>206.66666666666669</ele><time>2026-05-03T12:38:34.571Z</time></trkpt><trkpt lat="43.4531699" lon="10.6480148"><ele>209.0</ele><time>2026-05-03T12:38:35.571Z</time></trkpt><trkpt lat="43.4532646" lon="10.648202"><ele>209.0</ele><time>2026-05-03T12:38:36.571Z</time></trkpt><trkpt lat="43.4533529" lon="10.6483934"><ele>209.0</ele><time>2026-05-03T12:38:37.571Z</time></trkpt><trkpt lat="43.4534181" lon="10.6486045"><ele>209.0</ele><time>2026-05-03T12:38:38.571Z</time></trkpt><trkpt lat="43.4534607" lon="10.6488326"><ele>206.33333333333334</ele><time>2026-05-03T12:38:39.572Z</time></trkpt><trkpt lat="43.4534711" lon="10.6490774"><ele>203.66666666666669</ele><time>2026-05-03T12:38:40.571Z</time></trkpt><trkpt lat="43.4534876" lon="10.6493078"><ele>201.0</ele><time>2026-05-03T12:38:41.571Z</time></trkpt><trkpt lat="43.4534893" lon="10.6495425"><ele>199.0</ele><time>2026-05-03T12:38:42.571Z</time></trkpt><trkpt lat="43.4535036" lon="10.6497605"><ele>197.0</ele><time>2026-05-03T12:38:43.571Z</time></trkpt><trkpt lat="43.4535364" lon="10.6499633"><ele>195.0</ele><time>2026-05-03T12:38:44.571Z</time></trkpt><trkpt lat="43.4535973" lon="10.6501584"><ele>195.66666666666669</ele><time>2026-05-03T12:38:45.571Z</time></trkpt><trkpt lat="43.4536809" lon="10.6503588"><ele>196.33333333333334</ele><time>2026-05-03T12:38:46.571Z</time></trkpt><trkpt lat="43.4537888" lon="10.6505568"><ele>197.0</ele><time>2026-05-03T12:38:47.57Z</time></trkpt><trkpt lat="43.453912" lon="10.6507744"><ele>197.0</ele><time>2026-05-03T12:38:48.571Z</time></trkpt><trkpt lat="43.4540324" lon="10.6510004"><ele>197.0</ele><time>2026-05-03T12:38:49.571Z</time></trkpt><trkpt lat="43.4541615" lon="10.6512428"><ele>197.0</ele><time>2026-05-03T12:38:50.57Z</time></trkpt><trkpt lat="43.4542916" lon="10.6514621"><ele>195.33333333333334</ele><time>2026-05-03T12:38:51.57Z</time></trkpt><trkpt lat="43.454426" lon="10.6516694"><ele>193.66666666666669</ele><time>2026-05-03T12:38:52.571Z</time></trkpt><trkpt lat="43.4545605" lon="10.6518434"><ele>192.0</ele><time>2026-05-03T12:38:53.572Z</time></trkpt><trkpt lat="43.4546932" lon="10.6519917"><ele>192.0</ele><time>2026-05-03T12:38:54.571Z</time></trkpt><trkpt lat="43.4548349" lon="10.6521136"><ele>192.0</ele><time>2026-05-03T12:38:55.571Z</time></trkpt><trkpt lat="43.4549638" lon="10.6522269"><ele>192.0</ele><time>2026-05-03T12:38:56.571Z</time></trkpt><trkpt lat="43.455081" lon="10.65236"><ele>192.0</ele><time>2026-05-03T12:38:57.57Z</time></trkpt><trkpt lat="43.4551933" lon="10.6524988"><ele>192.0</ele><time>2026-05-03T12:38:58.57Z</time></trkpt><trkpt lat="43.455278" lon="10.6528275"><ele>192.0</ele><time>2026-05-03T12:39:00.571Z</time></trkpt><trkpt lat="43.455251" lon="10.6530202"><ele>189.5</ele><time>2026-05-03T12:39:01.571Z</time></trkpt><trkpt lat="43.4552482" lon="10.6531934"><ele>187.0</ele><time>2026-05-03T12:39:02.569Z</time></trkpt><trkpt lat="43.4552743" lon="10.65337"><ele>184.5</ele><time>2026-05-03T12:39:03.57Z</time></trkpt><trkpt lat="43.4553301" lon="10.6535443"><ele>182.0</ele><time>2026-05-03T12:39:04.571Z</time></trkpt><trkpt lat="43.4554085" lon="10.6537033"><ele>181.75</ele><time>2026-05-03T12:39:05.571Z</time></trkpt><trkpt lat="43.4555109" lon="10.6538577"><ele>181.5</ele><time>2026-05-03T12:39:06.57Z</time></trkpt><trkpt lat="43.4555863" lon="10.6540299"><ele>181.25</ele><time>2026-05-03T12:39:07.57Z</time></trkpt><trkpt lat="43.4556358" lon="10.6542191"><ele>181.0</ele><time>2026-05-03T12:39:08.57Z</time></trkpt><trkpt lat="43.4556672" lon="10.6544446"><ele>177.66666666666669</ele><time>2026-05-03T12:39:09.571Z</time></trkpt><trkpt lat="43.4556984" lon="10.6547008"><ele>174.33333333333334</ele><time>2026-05-03T12:39:10.569Z</time></trkpt><trkpt lat="43.4557343" lon="10.6549551"><ele>171.0</ele><time>2026-05-03T12:39:11.571Z</time></trkpt><trkpt lat="43.4557811" lon="10.6552013"><ele>169.66666666666666</ele><time>2026-05-03T12:39:12.57Z</time></trkpt><trkpt lat="43.4558443" lon="10.6554282"><ele>168.33333333333331</ele><time>2026-05-03T12:39:13.572Z</time></trkpt><trkpt lat="43.4559337" lon="10.6556262"><ele>167.0</ele><time>2026-05-03T12:39:14.571Z</time></trkpt><trkpt lat="43.4560488" lon="10.6558016"><ele>167.0</ele><time>2026-05-03T12:39:15.57Z</time></trkpt><trkpt lat="43.4561843" lon="10.6559432"><ele>167.0</ele><time>2026-05-03T12:39:16.571Z</time></trkpt><trkpt lat="43.4563461" lon="10.6560564"><ele>167.0</ele><time>2026-05-03T12:39:17.571Z</time></trkpt><trkpt lat="43.4565043" lon="10.6561388"><ele>166.25</ele><time>2026-05-03T12:39:18.571Z</time></trkpt><trkpt lat="43.4566462" lon="10.6562268"><ele>165.5</ele><time>2026-05-03T12:39:19.57Z</time></trkpt><trkpt lat="43.4567676" lon="10.656335"><ele>164.75</ele><time>2026-05-03T12:39:20.571Z</time></trkpt><trkpt lat="43.4568637" lon="10.6564724"><ele>164.0</ele><time>2026-05-03T12:39:21.571Z</time></trkpt><trkpt lat="43.4569224" lon="10.6566397"><ele>164.0</ele><time>2026-05-03T12:39:22.571Z</time></trkpt><trkpt lat="43.4569369" lon="10.6568255"><ele>164.0</ele><time>2026-05-03T12:39:23.571Z</time></trkpt><trkpt lat="43.4569251" lon="10.6570312"><ele>164.0</ele><time>2026-05-03T12:39:24.571Z</time></trkpt><trkpt lat="43.4568835" lon="10.6572595"><ele>163.66666666666666</ele><time>2026-05-03T12:39:25.571Z</time></trkpt><trkpt lat="43.4568348" lon="10.6575149"><ele>163.33333333333334</ele><time>2026-05-03T12:39:26.57Z</time></trkpt><trkpt lat="43.4567978" lon="10.657799"><ele>163.0</ele><time>2026-05-03T12:39:27.571Z</time></trkpt><trkpt lat="43.4567672" lon="10.6581186"><ele>163.0</ele><time>2026-05-03T12:39:28.569Z</time></trkpt><trkpt lat="43.4567372" lon="10.6584598"><ele>163.0</ele><time>2026-05-03T12:39:29.57Z</time></trkpt><trkpt lat="43.4567112" lon="10.6588221"><ele>163.0</ele><time>2026-05-03T12:39:30.571Z</time></trkpt><trkpt lat="43.4566913" lon="10.6591952"><ele>163.0</ele><time>2026-05-03T12:39:31.57Z</time></trkpt><trkpt lat="43.4566724" lon="10.6596004"><ele>163.0</ele><time>2026-05-03T12:39:32.57Z</time></trkpt><trkpt lat="43.4566569" lon="10.6599908"><ele>163.0</ele><time>2026-05-03T12:39:33.571Z</time></trkpt><trkpt lat="43.4566438" lon="10.6603622"><ele>163.5</ele><time>2026-05-03T12:39:34.571Z</time></trkpt><trkpt lat="43.4566373" lon="10.6607081"><ele>164.0</ele><time>2026-05-03T12:39:35.569Z</time></trkpt><trkpt lat="43.4566263" lon="10.6610453"><ele>165.5</ele><time>2026-05-03T12:39:36.57Z</time></trkpt><trkpt lat="43.456615" lon="10.6613593"><ele>167.0</ele><time>2026-05-03T12:39:37.571Z</time></trkpt><trkpt lat="43.4565993" lon="10.661669"><ele>166.0</ele><time>2026-05-03T12:39:38.57Z</time></trkpt><trkpt lat="43.4565821" lon="10.6619675"><ele>165.0</ele><time>2026-05-03T12:39:39.57Z</time></trkpt><trkpt lat="43.4565646" lon="10.6622673"><ele>164.0</ele><time>2026-05-03T12:39:40.569Z</time></trkpt><trkpt lat="43.456545" lon="10.6625675"><ele>161.66666666666666</ele><time>2026-05-03T12:39:41.571Z</time></trkpt><trkpt lat="43.4565242" lon="10.6628714"><ele>159.33333333333334</ele><time>2026-05-03T12:39:42.57Z</time></trkpt><trkpt lat="43.456484" lon="10.6631783"><ele>157.0</ele><time>2026-05-03T12:39:43.571Z</time></trkpt><trkpt lat="43.4564079" lon="10.6635019"><ele>157.0</ele><time>2026-05-03T12:39:44.571Z</time></trkpt><trkpt lat="43.4563358" lon="10.6638162"><ele>157.0</ele><time>2026-05-03T12:39:45.57Z</time></trkpt><trkpt lat="43.4562621" lon="10.66411"><ele>154.66666666666669</ele><time>2026-05-03T12:39:46.57Z</time></trkpt><trkpt lat="43.456203" lon="10.66439"><ele>152.33333333333334</ele><time>2026-05-03T12:39:47.571Z</time></trkpt><trkpt lat="43.456154" lon="10.6646539"><ele>150.0</ele><time>2026-05-03T12:39:48.571Z</time></trkpt><trkpt lat="43.4561296" lon="10.6649059"><ele>149.0</ele><time>2026-05-03T12:39:49.571Z</time></trkpt><trkpt lat="43.4561306" lon="10.6651778"><ele>148.0</ele><time>2026-05-03T12:39:50.57Z</time></trkpt><trkpt lat="43.4561651" lon="10.6654562"><ele>147.0</ele><time>2026-05-03T12:39:51.571Z</time></trkpt><trkpt lat="43.4562182" lon="10.6657477"><ele>147.0</ele><time>2026-05-03T12:39:52.57Z</time></trkpt><trkpt lat="43.4562846" lon="10.6660727"><ele>147.0</ele><time>2026-05-03T12:39:53.571Z</time></trkpt><trkpt lat="43.4563426" lon="10.6663916"><ele>146.66666666666666</ele><time>2026-05-03T12:39:54.57Z</time></trkpt><trkpt lat="43.4563962" lon="10.6667015"><ele>146.33333333333331</ele><time>2026-05-03T12:39:55.571Z</time></trkpt><trkpt lat="43.4564513" lon="10.6669871"><ele>146.0</ele><time>2026-05-03T12:39:56.571Z</time></trkpt><trkpt lat="43.4565068" lon="10.6672601"><ele>145.0</ele><time>2026-05-03T12:39:57.571Z</time></trkpt><trkpt lat="43.4565569" lon="10.6675126"><ele>144.0</ele><time>2026-05-03T12:39:58.57Z</time></trkpt><trkpt lat="43.4566034" lon="10.6677483"><ele>143.0</ele><time>2026-05-03T12:39:59.57Z</time></trkpt><trkpt lat="43.4566393" lon="10.6679565"><ele>142.8</ele><time>2026-05-03T12:40:00.571Z</time></trkpt><trkpt lat="43.4566598" lon="10.6681245"><ele>142.60000000000002</ele><time>2026-05-03T12:40:01.57Z</time></trkpt><trkpt lat="43.4566511" lon="10.6682469"><ele>142.39999999999998</ele><time>2026-05-03T12:40:02.571Z</time></trkpt><trkpt lat="43.4566271" lon="10.6683394"><ele>142.2</ele><time>2026-05-03T12:40:03.569Z</time></trkpt><trkpt lat="43.4565425" lon="10.6684274"><ele>142.0</ele><time>2026-05-03T12:40:05.571Z</time></trkpt><trkpt lat="43.4563983" lon="10.6683656"><ele>142.0</ele><time>2026-05-03T12:40:07.571Z</time></trkpt><trkpt lat="43.4562883" lon="10.6682908"><ele>142.0</ele><time>2026-05-03T12:40:08.57Z</time></trkpt><trkpt lat="43.456151" lon="10.6681984"><ele>142.0</ele><time>2026-05-03T12:40:09.571Z</time></trkpt><trkpt lat="43.4559928" lon="10.6681041"><ele>142.0</ele><time>2026-05-03T12:40:10.571Z</time></trkpt><trkpt lat="43.4558383" lon="10.6680215"><ele>142.33333333333334</ele><time>2026-05-03T12:40:11.571Z</time></trkpt><trkpt lat="43.4556626" lon="10.6679495"><ele>142.66666666666666</ele><time>2026-05-03T12:40:12.571Z</time></trkpt><trkpt lat="43.455461" lon="10.6678941"><ele>143.0</ele><time>2026-05-03T12:40:13.57Z</time></trkpt><trkpt lat="43.4552442" lon="10.6678514"><ele>143.5</ele><time>2026-05-03T12:40:14.571Z</time></trkpt><trkpt lat="43.45501" lon="10.667816"><ele>144.0</ele><time>2026-05-03T12:40:15.569Z</time></trkpt><trkpt lat="43.4547588" lon="10.6677767"><ele>144.5</ele><time>2026-05-03T12:40:16.569Z</time></trkpt><trkpt lat="43.4545038" lon="10.667733"><ele>145.0</ele><time>2026-05-03T12:40:17.571Z</time></trkpt><trkpt lat="43.4542391" lon="10.6676854"><ele>145.0</ele><time>2026-05-03T12:40:18.571Z</time></trkpt><trkpt lat="43.4539793" lon="10.6676389"><ele>145.0</ele><time>2026-05-03T12:40:19.569Z</time></trkpt><trkpt lat="43.4537426" lon="10.6675892"><ele>146.0</ele><time>2026-05-03T12:40:20.571Z</time></trkpt><trkpt lat="43.4535195" lon="10.6675476"><ele>147.0</ele><time>2026-05-03T12:40:21.57Z</time></trkpt><trkpt lat="43.4533014" lon="10.667524"><ele>148.0</ele><time>2026-05-03T12:40:22.571Z</time></trkpt><trkpt lat="43.4530863" lon="10.667512"><ele>148.33333333333334</ele><time>2026-05-03T12:40:23.57Z</time></trkpt><trkpt lat="43.4528682" lon="10.6675282"><ele>148.66666666666666</ele><time>2026-05-03T12:40:24.571Z</time></trkpt><trkpt lat="43.4526494" lon="10.6675411"><ele>149.0</ele><time>2026-05-03T12:40:25.571Z</time></trkpt><trkpt lat="43.4524274" lon="10.6675334"><ele>149.0</ele><time>2026-05-03T12:40:26.57Z</time></trkpt><trkpt lat="43.4521933" lon="10.6675104"><ele>149.0</ele><time>2026-05-03T12:40:27.571Z</time></trkpt><trkpt lat="43.4519557" lon="10.6674661"><ele>150.0</ele><time>2026-05-03T12:40:28.571Z</time></trkpt><trkpt lat="43.4517169" lon="10.6674262"><ele>151.0</ele><time>2026-05-03T12:40:29.571Z</time></trkpt><trkpt lat="43.4514849" lon="10.6673778"><ele>150.33333333333334</ele><time>2026-05-03T12:40:30.571Z</time></trkpt><trkpt lat="43.4512651" lon="10.6673343"><ele>149.66666666666666</ele><time>2026-05-03T12:40:31.571Z</time></trkpt><trkpt lat="43.451061" lon="10.6672893"><ele>149.0</ele><time>2026-05-03T12:40:32.569Z</time></trkpt><trkpt lat="43.4508667" lon="10.6672459"><ele>149.0</ele><time>2026-05-03T12:40:33.571Z</time></trkpt><trkpt lat="43.4506848" lon="10.6672045"><ele>149.0</ele><time>2026-05-03T12:40:34.571Z</time></trkpt><trkpt lat="43.4505155" lon="10.667193"><ele>149.0</ele><time>2026-05-03T12:40:35.57Z</time></trkpt><trkpt lat="43.4503473" lon="10.6672067"><ele>149.0</ele><time>2026-05-03T12:40:36.57Z</time></trkpt><trkpt lat="43.4501763" lon="10.6672497"><ele>149.0</ele><time>2026-05-03T12:40:37.569Z</time></trkpt><trkpt lat="43.4500029" lon="10.6673205"><ele>149.0</ele><time>2026-05-03T12:40:38.571Z</time></trkpt><trkpt lat="43.4498191" lon="10.667415"><ele>149.0</ele><time>2026-05-03T12:40:39.571Z</time></trkpt><trkpt lat="43.4496308" lon="10.6674948"><ele>149.0</ele><time>2026-05-03T12:40:40.572Z</time></trkpt><trkpt lat="43.4494429" lon="10.6675456"><ele>149.0</ele><time>2026-05-03T12:40:41.572Z</time></trkpt><trkpt lat="43.4492515" lon="10.6675673"><ele>149.33333333333331</ele><time>2026-05-03T12:40:42.57Z</time></trkpt><trkpt lat="43.4490542" lon="10.6675604"><ele>149.66666666666666</ele><time>2026-05-03T12:40:43.571Z</time></trkpt><trkpt lat="43.4488545" lon="10.6675345"><ele>150.0</ele><time>2026-05-03T12:40:44.57Z</time></trkpt><trkpt lat="43.4486461" lon="10.667494"><ele>150.0</ele><time>2026-05-03T12:40:45.57Z</time></trkpt><trkpt lat="43.4484307" lon="10.6674373"><ele>150.0</ele><time>2026-05-03T12:40:46.572Z</time></trkpt><trkpt lat="43.448212" lon="10.6673643"><ele>150.0</ele><time>2026-05-03T12:40:47.571Z</time></trkpt><trkpt lat="43.4479941" lon="10.6672755"><ele>150.0</ele><time>2026-05-03T12:40:48.57Z</time></trkpt><trkpt lat="43.4477759" lon="10.6671864"><ele>150.0</ele><time>2026-05-03T12:40:49.57Z</time></trkpt><trkpt lat="43.4475609" lon="10.667098"><ele>150.0</ele><time>2026-05-03T12:40:50.571Z</time></trkpt><trkpt lat="43.4473497" lon="10.6670135"><ele>150.0</ele><time>2026-05-03T12:40:51.571Z</time></trkpt><trkpt lat="43.4471377" lon="10.6669308"><ele>150.0</ele><time>2026-05-03T12:40:52.569Z</time></trkpt><trkpt lat="43.4469273" lon="10.6668489"><ele>150.33333333333334</ele><time>2026-05-03T12:40:53.57Z</time></trkpt><trkpt lat="43.4467201" lon="10.6667681"><ele>150.66666666666669</ele><time>2026-05-03T12:40:54.569Z</time></trkpt><trkpt lat="43.4465105" lon="10.6666833"><ele>151.0</ele><time>2026-05-03T12:40:55.57Z</time></trkpt><trkpt lat="43.4463044" lon="10.6665966"><ele>151.66666666666669</ele><time>2026-05-03T12:40:56.57Z</time></trkpt><trkpt lat="43.4460972" lon="10.6665117"><ele>152.33333333333334</ele><time>2026-05-03T12:40:57.57Z</time></trkpt><trkpt lat="43.4458864" lon="10.6664249"><ele>153.0</ele><time>2026-05-03T12:40:58.57Z</time></trkpt><trkpt lat="43.4456786" lon="10.6663388"><ele>153.0</ele><time>2026-05-03T12:40:59.57Z</time></trkpt><trkpt lat="43.4454707" lon="10.6662599"><ele>153.0</ele><time>2026-05-03T12:41:00.571Z</time></trkpt><trkpt lat="43.4452613" lon="10.6661813"><ele>153.0</ele><time>2026-05-03T12:41:01.57Z</time></trkpt><trkpt lat="43.4450518" lon="10.666101"><ele>154.0</ele><time>2026-05-03T12:41:02.57Z</time></trkpt><trkpt lat="43.4448476" lon="10.6660155"><ele>155.0</ele><time>2026-05-03T12:41:03.571Z</time></trkpt><trkpt lat="43.4446407" lon="10.6659331"><ele>156.0</ele><time>2026-05-03T12:41:04.571Z</time></trkpt><trkpt lat="43.4444353" lon="10.6658509"><ele>156.33333333333334</ele><time>2026-05-03T12:41:05.57Z</time></trkpt><trkpt lat="43.4442308" lon="10.6657704"><ele>156.66666666666669</ele><time>2026-05-03T12:41:06.57Z</time></trkpt><trkpt lat="43.4440254" lon="10.6656917"><ele>157.0</ele><time>2026-05-03T12:41:07.571Z</time></trkpt><trkpt lat="43.4438141" lon="10.6656105"><ele>157.0</ele><time>2026-05-03T12:41:08.571Z</time></trkpt><trkpt lat="43.4436038" lon="10.6655379"><ele>157.0</ele><time>2026-05-03T12:41:09.57Z</time></trkpt><trkpt lat="43.4433937" lon="10.6654615"><ele>157.0</ele><time>2026-05-03T12:41:10.571Z</time></trkpt><trkpt lat="43.4431794" lon="10.665396"><ele>157.0</ele><time>2026-05-03T12:41:11.569Z</time></trkpt><trkpt lat="43.4429715" lon="10.6653214"><ele>157.0</ele><time>2026-05-03T12:41:12.57Z</time></trkpt><trkpt lat="43.4427578" lon="10.6652636"><ele>157.0</ele><time>2026-05-03T12:41:13.571Z</time></trkpt><trkpt lat="43.4425445" lon="10.6652"><ele>158.33333333333334</ele><time>2026-05-03T12:41:14.571Z</time></trkpt><trkpt lat="43.442331" lon="10.6651354"><ele>159.66666666666666</ele><time>2026-05-03T12:41:15.571Z</time></trkpt><trkpt lat="43.4421207" lon="10.6650744"><ele>161.0</ele><time>2026-05-03T12:41:16.571Z</time></trkpt><trkpt lat="43.4419106" lon="10.6650126"><ele>161.0</ele><time>2026-05-03T12:41:17.571Z</time></trkpt><trkpt lat="43.4416977" lon="10.6649475"><ele>161.0</ele><time>2026-05-03T12:41:18.571Z</time></trkpt><trkpt lat="43.4414914" lon="10.6648682"><ele>161.0</ele><time>2026-05-03T12:41:19.571Z</time></trkpt><trkpt lat="43.4412823" lon="10.6647917"><ele>161.33333333333331</ele><time>2026-05-03T12:41:20.571Z</time></trkpt><trkpt lat="43.4410744" lon="10.6647246"><ele>161.66666666666666</ele><time>2026-05-03T12:41:21.57Z</time></trkpt><trkpt lat="43.4408708" lon="10.6646535"><ele>162.0</ele><time>2026-05-03T12:41:22.57Z</time></trkpt><trkpt lat="43.4406829" lon="10.6645618"><ele>162.0</ele><time>2026-05-03T12:41:23.569Z</time></trkpt><trkpt lat="43.4405103" lon="10.6644496"><ele>162.0</ele><time>2026-05-03T12:41:24.571Z</time></trkpt><trkpt lat="43.4403438" lon="10.6643166"><ele>162.0</ele><time>2026-05-03T12:41:25.571Z</time></trkpt><trkpt lat="43.4401828" lon="10.6641565"><ele>163.0</ele><time>2026-05-03T12:41:26.571Z</time></trkpt><trkpt lat="43.4400325" lon="10.6639741"><ele>164.0</ele><time>2026-05-03T12:41:27.57Z</time></trkpt><trkpt lat="43.4398741" lon="10.6637807"><ele>165.0</ele><time>2026-05-03T12:41:28.571Z</time></trkpt><trkpt lat="43.4397254" lon="10.6635744"><ele>166.33333333333334</ele><time>2026-05-03T12:41:29.571Z</time></trkpt><trkpt lat="43.43957" lon="10.6633663"><ele>167.66666666666669</ele><time>2026-05-03T12:41:30.57Z</time></trkpt><trkpt lat="43.4394239" lon="10.6631682"><ele>169.0</ele><time>2026-05-03T12:41:31.57Z</time></trkpt><trkpt lat="43.4392945" lon="10.6629914"><ele>169.0</ele><time>2026-05-03T12:41:32.571Z</time></trkpt><trkpt lat="43.4391683" lon="10.6628349"><ele>169.0</ele><time>2026-05-03T12:41:33.572Z</time></trkpt><trkpt lat="43.439044" lon="10.6626863"><ele>169.0</ele><time>2026-05-03T12:41:34.57Z</time></trkpt><trkpt lat="43.4389062" lon="10.6625623"><ele>169.33333333333334</ele><time>2026-05-03T12:41:35.57Z</time></trkpt><trkpt lat="43.438764" lon="10.6624627"><ele>169.66666666666666</ele><time>2026-05-03T12:41:36.57Z</time></trkpt><trkpt lat="43.4385997" lon="10.6623827"><ele>170.0</ele><time>2026-05-03T12:41:37.571Z</time></trkpt><trkpt lat="43.4384282" lon="10.6623052"><ele>170.0</ele><time>2026-05-03T12:41:38.57Z</time></trkpt><trkpt lat="43.4382472" lon="10.6622436"><ele>170.0</ele><time>2026-05-03T12:41:39.57Z</time></trkpt><trkpt lat="43.4380676" lon="10.66217"><ele>170.0</ele><time>2026-05-03T12:41:40.571Z</time></trkpt><trkpt lat="43.4378833" lon="10.6620949"><ele>169.0</ele><time>2026-05-03T12:41:41.569Z</time></trkpt><trkpt lat="43.4377034" lon="10.6620355"><ele>168.0</ele><time>2026-05-03T12:41:42.57Z</time></trkpt><trkpt lat="43.4375367" lon="10.6619689"><ele>167.0</ele><time>2026-05-03T12:41:43.57Z</time></trkpt><trkpt lat="43.4373696" lon="10.6619122"><ele>168.66666666666666</ele><time>2026-05-03T12:41:44.571Z</time></trkpt><trkpt lat="43.4372162" lon="10.6618574"><ele>170.33333333333334</ele><time>2026-05-03T12:41:45.571Z</time></trkpt><trkpt lat="43.4370474" lon="10.6617944"><ele>172.0</ele><time>2026-05-03T12:41:46.569Z</time></trkpt><trkpt lat="43.4368918" lon="10.6617117"><ele>172.0</ele><time>2026-05-03T12:41:47.569Z</time></trkpt><trkpt lat="43.436742" lon="10.6616294"><ele>172.0</ele><time>2026-05-03T12:41:48.571Z</time></trkpt><trkpt lat="43.4365807" lon="10.6615262"><ele>172.0</ele><time>2026-05-03T12:41:49.57Z</time></trkpt><trkpt lat="43.4364399" lon="10.6614209"><ele>171.66666666666669</ele><time>2026-05-03T12:41:50.571Z</time></trkpt><trkpt lat="43.4363015" lon="10.6612896"><ele>171.33333333333334</ele><time>2026-05-03T12:41:51.57Z</time></trkpt><trkpt lat="43.4361437" lon="10.6611622"><ele>171.0</ele><time>2026-05-03T12:41:52.571Z</time></trkpt><trkpt lat="43.4359854" lon="10.6610391"><ele>173.0</ele><time>2026-05-03T12:41:53.571Z</time></trkpt><trkpt lat="43.4358172" lon="10.6609195"><ele>175.0</ele><time>2026-05-03T12:41:54.569Z</time></trkpt><trkpt lat="43.4356538" lon="10.6607904"><ele>177.0</ele><time>2026-05-03T12:41:55.57Z</time></trkpt><trkpt lat="43.4354808" lon="10.6606553"><ele>176.0</ele><time>2026-05-03T12:41:56.571Z</time></trkpt><trkpt lat="43.4353168" lon="10.6605366"><ele>175.0</ele><time>2026-05-03T12:41:57.571Z</time></trkpt><trkpt lat="43.4351449" lon="10.6604015"><ele>174.0</ele><time>2026-05-03T12:41:58.571Z</time></trkpt><trkpt lat="43.4349755" lon="10.6602869"><ele>176.0</ele><time>2026-05-03T12:41:59.57Z</time></trkpt><trkpt lat="43.4348024" lon="10.6601595"><ele>178.0</ele><time>2026-05-03T12:42:00.571Z</time></trkpt><trkpt lat="43.4346178" lon="10.6600487"><ele>180.0</ele><time>2026-05-03T12:42:01.569Z</time></trkpt><trkpt lat="43.4344137" lon="10.6599452"><ele>180.0</ele><time>2026-05-03T12:42:02.571Z</time></trkpt><trkpt lat="43.4342224" lon="10.6598615"><ele>180.0</ele><time>2026-05-03T12:42:03.571Z</time></trkpt><trkpt lat="43.4340315" lon="10.6598015"><ele>180.0</ele><time>2026-05-03T12:42:04.571Z</time></trkpt><trkpt lat="43.4338553" lon="10.6597511"><ele>179.25</ele><time>2026-05-03T12:42:05.57Z</time></trkpt><trkpt lat="43.433697" lon="10.6597054"><ele>178.5</ele><time>2026-05-03T12:42:06.572Z</time></trkpt><trkpt lat="43.4335538" lon="10.6596589"><ele>177.75</ele><time>2026-05-03T12:42:07.571Z</time></trkpt><trkpt lat="43.4334219" lon="10.6596005"><ele>177.0</ele><time>2026-05-03T12:42:08.57Z</time></trkpt><trkpt lat="43.4333084" lon="10.659513"><ele>178.5</ele><time>2026-05-03T12:42:09.571Z</time></trkpt><trkpt lat="43.4332292" lon="10.6594052"><ele>180.0</ele><time>2026-05-03T12:42:10.57Z</time></trkpt><trkpt lat="43.4331655" lon="10.6592679"><ele>181.5</ele><time>2026-05-03T12:42:11.569Z</time></trkpt><trkpt lat="43.4330893" lon="10.6591122"><ele>183.0</ele><time>2026-05-03T12:42:12.575Z</time></trkpt><trkpt lat="43.4330013" lon="10.6589536"><ele>182.0</ele><time>2026-05-03T12:42:13.571Z</time></trkpt><trkpt lat="43.432863" lon="10.6588317"><ele>181.0</ele><time>2026-05-03T12:42:14.571Z</time></trkpt><trkpt lat="43.4327046" lon="10.6587209"><ele>180.0</ele><time>2026-05-03T12:42:15.57Z</time></trkpt><trkpt lat="43.4325263" lon="10.6585963"><ele>180.0</ele><time>2026-05-03T12:42:16.571Z</time></trkpt><trkpt lat="43.4323422" lon="10.6584547"><ele>180.0</ele><time>2026-05-03T12:42:17.571Z</time></trkpt><trkpt lat="43.4321296" lon="10.6583115"><ele>180.0</ele><time>2026-05-03T12:42:18.571Z</time></trkpt><trkpt lat="43.4319062" lon="10.6581576"><ele>180.5</ele><time>2026-05-03T12:42:19.57Z</time></trkpt><trkpt lat="43.4316779" lon="10.6580008"><ele>181.0</ele><time>2026-05-03T12:42:20.577Z</time></trkpt><trkpt lat="43.431442" lon="10.6578412"><ele>181.5</ele><time>2026-05-03T12:42:21.57Z</time></trkpt><trkpt lat="43.431206" lon="10.6576865"><ele>182.0</ele><time>2026-05-03T12:42:22.571Z</time></trkpt><trkpt lat="43.430781" lon="10.6574142"><ele>182.0</ele><time>2026-05-03T12:42:24.571Z</time></trkpt><trkpt lat="43.4305794" lon="10.6572775"><ele>182.0</ele><time>2026-05-03T12:42:25.57Z</time></trkpt><trkpt lat="43.4303808" lon="10.6571362"><ele>182.0</ele><time>2026-05-03T12:42:26.569Z</time></trkpt><trkpt lat="43.4301856" lon="10.657009"><ele>182.66666666666666</ele><time>2026-05-03T12:42:27.57Z</time></trkpt><trkpt lat="43.4300086" lon="10.6568853"><ele>183.33333333333334</ele><time>2026-05-03T12:42:28.571Z</time></trkpt><trkpt lat="43.4298459" lon="10.6567747"><ele>184.0</ele><time>2026-05-03T12:42:29.57Z</time></trkpt><trkpt lat="43.4296865" lon="10.6566832"><ele>184.0</ele><time>2026-05-03T12:42:30.571Z</time></trkpt><trkpt lat="43.4295248" lon="10.6566051"><ele>184.0</ele><time>2026-05-03T12:42:31.571Z</time></trkpt><trkpt lat="43.4293555" lon="10.6565455"><ele>184.0</ele><time>2026-05-03T12:42:32.571Z</time></trkpt><trkpt lat="43.4291785" lon="10.6564964"><ele>184.0</ele><time>2026-05-03T12:42:33.571Z</time></trkpt><trkpt lat="43.4289946" lon="10.6564535"><ele>184.0</ele><time>2026-05-03T12:42:34.569Z</time></trkpt><trkpt lat="43.4288001" lon="10.656416"><ele>184.0</ele><time>2026-05-03T12:42:35.57Z</time></trkpt><trkpt lat="43.4286005" lon="10.6563786"><ele>185.0</ele><time>2026-05-03T12:42:36.57Z</time></trkpt><trkpt lat="43.4284013" lon="10.6563319"><ele>186.0</ele><time>2026-05-03T12:42:37.57Z</time></trkpt><trkpt lat="43.4282015" lon="10.6562839"><ele>187.0</ele><time>2026-05-03T12:42:38.569Z</time></trkpt><trkpt lat="43.4280008" lon="10.6562361"><ele>187.66666666666669</ele><time>2026-05-03T12:42:39.57Z</time></trkpt><trkpt lat="43.4277932" lon="10.6561882"><ele>188.33333333333334</ele><time>2026-05-03T12:42:40.57Z</time></trkpt><trkpt lat="43.4275808" lon="10.6561395"><ele>189.0</ele><time>2026-05-03T12:42:41.571Z</time></trkpt><trkpt lat="43.4273565" lon="10.6560802"><ele>191.0</ele><time>2026-05-03T12:42:42.57Z</time></trkpt><trkpt lat="43.4271239" lon="10.6560149"><ele>193.0</ele><time>2026-05-03T12:42:43.57Z</time></trkpt><trkpt lat="43.4268837" lon="10.6559484"><ele>193.0</ele><time>2026-05-03T12:42:44.57Z</time></trkpt><trkpt lat="43.4266485" lon="10.6558796"><ele>193.0</ele><time>2026-05-03T12:42:45.57Z</time></trkpt><trkpt lat="43.4264114" lon="10.6558159"><ele>194.0</ele><time>2026-05-03T12:42:46.57Z</time></trkpt><trkpt lat="43.4261737" lon="10.6557422"><ele>195.0</ele><time>2026-05-03T12:42:47.571Z</time></trkpt><trkpt lat="43.4259446" lon="10.6556896"><ele>195.0</ele><time>2026-05-03T12:42:48.571Z</time></trkpt><trkpt lat="43.4257113" lon="10.6556576"><ele>195.0</ele><time>2026-05-03T12:42:49.571Z</time></trkpt><trkpt lat="43.4254826" lon="10.6556313"><ele>195.33333333333331</ele><time>2026-05-03T12:42:50.57Z</time></trkpt><trkpt lat="43.4252621" lon="10.6556082"><ele>195.66666666666666</ele><time>2026-05-03T12:42:51.571Z</time></trkpt><trkpt lat="43.4250479" lon="10.6555768"><ele>196.0</ele><time>2026-05-03T12:42:52.57Z</time></trkpt><trkpt lat="43.4248436" lon="10.6555463"><ele>198.0</ele><time>2026-05-03T12:42:53.571Z</time></trkpt><trkpt lat="43.4246405" lon="10.6555146"><ele>200.0</ele><time>2026-05-03T12:42:54.571Z</time></trkpt><trkpt lat="43.424438" lon="10.6554829"><ele>202.0</ele><time>2026-05-03T12:42:55.569Z</time></trkpt><trkpt lat="43.4242385" lon="10.6554571"><ele>202.0</ele><time>2026-05-03T12:42:56.57Z</time></trkpt><trkpt lat="43.4240558" lon="10.6554349"><ele>202.0</ele><time>2026-05-03T12:42:57.569Z</time></trkpt><trkpt lat="43.4238887" lon="10.655408"><ele>202.0</ele><time>2026-05-03T12:42:58.57Z</time></trkpt><trkpt lat="43.4237341" lon="10.6554021"><ele>202.5</ele><time>2026-05-03T12:42:59.571Z</time></trkpt><trkpt lat="43.4235837" lon="10.6554176"><ele>203.0</ele><time>2026-05-03T12:43:00.57Z</time></trkpt><trkpt lat="43.4234459" lon="10.6554713"><ele>203.5</ele><time>2026-05-03T12:43:01.57Z</time></trkpt><trkpt lat="43.4233088" lon="10.6555554"><ele>204.0</ele><time>2026-05-03T12:43:02.57Z</time></trkpt><trkpt lat="43.4231735" lon="10.6556709"><ele>204.0</ele><time>2026-05-03T12:43:03.57Z</time></trkpt><trkpt lat="43.4230442" lon="10.6557737"><ele>204.0</ele><time>2026-05-03T12:43:04.571Z</time></trkpt><trkpt lat="43.4229325" lon="10.6558379"><ele>204.0</ele><time>2026-05-03T12:43:05.571Z</time></trkpt><trkpt lat="43.4228256" lon="10.6558599"><ele>204.0</ele><time>2026-05-03T12:43:06.57Z</time></trkpt><trkpt lat="43.4227258" lon="10.6558477"><ele>204.5</ele><time>2026-05-03T12:43:07.571Z</time></trkpt><trkpt lat="43.4226211" lon="10.6557919"><ele>205.0</ele><time>2026-05-03T12:43:08.571Z</time></trkpt><trkpt lat="43.4225111" lon="10.6556918"><ele>205.5</ele><time>2026-05-03T12:43:09.571Z</time></trkpt><trkpt lat="43.4223892" lon="10.6555537"><ele>206.0</ele><time>2026-05-03T12:43:10.57Z</time></trkpt><trkpt lat="43.4222505" lon="10.6553992"><ele>207.66666666666669</ele><time>2026-05-03T12:43:11.57Z</time></trkpt><trkpt lat="43.4221106" lon="10.655237"><ele>209.33333333333331</ele><time>2026-05-03T12:43:12.571Z</time></trkpt><trkpt lat="43.4219578" lon="10.655064"><ele>211.0</ele><time>2026-05-03T12:43:13.571Z</time></trkpt><trkpt lat="43.4218043" lon="10.6548984"><ele>211.0</ele><time>2026-05-03T12:43:14.569Z</time></trkpt><trkpt lat="43.4216654" lon="10.6547442"><ele>211.0</ele><time>2026-05-03T12:43:15.57Z</time></trkpt><trkpt lat="43.4215335" lon="10.654616"><ele>211.0</ele><time>2026-05-03T12:43:16.57Z</time></trkpt><trkpt lat="43.4214222" lon="10.6545314"><ele>210.75</ele><time>2026-05-03T12:43:17.57Z</time></trkpt><trkpt lat="43.4213114" lon="10.6544757"><ele>210.5</ele><time>2026-05-03T12:43:18.571Z</time></trkpt><trkpt lat="43.4211958" lon="10.6544515"><ele>210.25</ele><time>2026-05-03T12:43:19.572Z</time></trkpt><trkpt lat="43.4210788" lon="10.6544667"><ele>210.0</ele><time>2026-05-03T12:43:20.57Z</time></trkpt><trkpt lat="43.4209513" lon="10.6545086"><ele>210.0</ele><time>2026-05-03T12:43:21.57Z</time></trkpt><trkpt lat="43.42082" lon="10.6545426"><ele>210.0</ele><time>2026-05-03T12:43:22.571Z</time></trkpt><trkpt lat="43.4207059" lon="10.6545468"><ele>210.0</ele><time>2026-05-03T12:43:23.571Z</time></trkpt><trkpt lat="43.4205038" lon="10.6544411"><ele>211.25</ele><time>2026-05-03T12:43:25.57Z</time></trkpt><trkpt lat="43.420422" lon="10.6543166"><ele>212.5</ele><time>2026-05-03T12:43:26.569Z</time></trkpt><trkpt lat="43.4203233" lon="10.6541864"><ele>213.75</ele><time>2026-05-03T12:43:27.57Z</time></trkpt><trkpt lat="43.4202062" lon="10.6540412"><ele>215.0</ele><time>2026-05-03T12:43:28.569Z</time></trkpt><trkpt lat="43.4200766" lon="10.6538733"><ele>215.0</ele><time>2026-05-03T12:43:29.569Z</time></trkpt><trkpt lat="43.4199439" lon="10.6536897"><ele>215.0</ele><time>2026-05-03T12:43:30.571Z</time></trkpt><trkpt lat="43.4198032" lon="10.6534933"><ele>215.0</ele><time>2026-05-03T12:43:31.57Z</time></trkpt><trkpt lat="43.4196559" lon="10.6532976"><ele>216.0</ele><time>2026-05-03T12:43:32.57Z</time></trkpt><trkpt lat="43.4195134" lon="10.6530989"><ele>217.0</ele><time>2026-05-03T12:43:33.571Z</time></trkpt><trkpt lat="43.4193681" lon="10.6529025"><ele>218.0</ele><time>2026-05-03T12:43:34.57Z</time></trkpt><trkpt lat="43.4192313" lon="10.652701"><ele>219.33333333333334</ele><time>2026-05-03T12:43:35.57Z</time></trkpt><trkpt lat="43.4190898" lon="10.652513"><ele>220.66666666666669</ele><time>2026-05-03T12:43:36.569Z</time></trkpt><trkpt lat="43.4189484" lon="10.6523282"><ele>222.0</ele><time>2026-05-03T12:43:37.569Z</time></trkpt><trkpt lat="43.4188107" lon="10.652135"><ele>224.0</ele><time>2026-05-03T12:43:38.572Z</time></trkpt><trkpt lat="43.4186765" lon="10.6519396"><ele>226.0</ele><time>2026-05-03T12:43:39.57Z</time></trkpt><trkpt lat="43.4185345" lon="10.6517439"><ele>228.0</ele><time>2026-05-03T12:43:40.571Z</time></trkpt><trkpt lat="43.4183951" lon="10.6515482"><ele>228.0</ele><time>2026-05-03T12:43:41.57Z</time></trkpt><trkpt lat="43.418256" lon="10.651356"><ele>228.0</ele><time>2026-05-03T12:43:42.57Z</time></trkpt><trkpt lat="43.4181215" lon="10.6511725"><ele>228.0</ele><time>2026-05-03T12:43:43.57Z</time></trkpt><trkpt lat="43.4179946" lon="10.6510058"><ele>229.66666666666669</ele><time>2026-05-03T12:43:44.571Z</time></trkpt><trkpt lat="43.4178693" lon="10.6508488"><ele>231.33333333333334</ele><time>2026-05-03T12:43:45.57Z</time></trkpt><trkpt lat="43.4177544" lon="10.6506959"><ele>233.0</ele><time>2026-05-03T12:43:46.571Z</time></trkpt><trkpt lat="43.4176346" lon="10.6505551"><ele>233.0</ele><time>2026-05-03T12:43:47.569Z</time></trkpt><trkpt lat="43.4175408" lon="10.6504409"><ele>233.0</ele><time>2026-05-03T12:43:48.57Z</time></trkpt><trkpt lat="43.4174468" lon="10.6503399"><ele>233.0</ele><time>2026-05-03T12:43:49.57Z</time></trkpt><trkpt lat="43.417359" lon="10.6502735"><ele>233.0</ele><time>2026-05-03T12:43:50.571Z</time></trkpt><trkpt lat="43.4172716" lon="10.6502544"><ele>233.0</ele><time>2026-05-03T12:43:51.571Z</time></trkpt><trkpt lat="43.4171797" lon="10.6502962"><ele>234.8</ele><time>2026-05-03T12:43:52.57Z</time></trkpt><trkpt lat="43.4170746" lon="10.6503601"><ele>236.60000000000002</ele><time>2026-05-03T12:43:53.57Z</time></trkpt><trkpt lat="43.4169809" lon="10.6504312"><ele>238.39999999999998</ele><time>2026-05-03T12:43:54.57Z</time></trkpt><trkpt lat="43.4169286" lon="10.6505335"><ele>240.2</ele><time>2026-05-03T12:43:55.57Z</time></trkpt><trkpt lat="43.4168881" lon="10.6506679"><ele>242.0</ele><time>2026-05-03T12:43:56.571Z</time></trkpt><trkpt lat="43.4168858" lon="10.6508361"><ele>242.0</ele><time>2026-05-03T12:43:57.571Z</time></trkpt><trkpt lat="43.4168732" lon="10.6510288"><ele>242.0</ele><time>2026-05-03T12:43:58.571Z</time></trkpt><trkpt lat="43.4168705" lon="10.6512306"><ele>242.0</ele><time>2026-05-03T12:43:59.571Z</time></trkpt><trkpt lat="43.4168739" lon="10.6514374"><ele>242.0</ele><time>2026-05-03T12:44:00.57Z</time></trkpt><trkpt lat="43.416941" lon="10.6518314"><ele>240.33333333333334</ele><time>2026-05-03T12:44:02.571Z</time></trkpt><trkpt lat="43.4170145" lon="10.6520316"><ele>238.66666666666669</ele><time>2026-05-03T12:44:03.57Z</time></trkpt><trkpt lat="43.4170922" lon="10.6522226"><ele>237.0</ele><time>2026-05-03T12:44:04.57Z</time></trkpt><trkpt lat="43.4172058" lon="10.6524025"><ele>237.0</ele><time>2026-05-03T12:44:05.57Z</time></trkpt><trkpt lat="43.4172871" lon="10.6525648"><ele>237.0</ele><time>2026-05-03T12:44:06.57Z</time></trkpt><trkpt lat="43.4173637" lon="10.6527182"><ele>237.0</ele><time>2026-05-03T12:44:07.57Z</time></trkpt><trkpt lat="43.4174385" lon="10.652848"><ele>237.0</ele><time>2026-05-03T12:44:08.57Z</time></trkpt><trkpt lat="43.4174771" lon="10.6529755"><ele>237.66666666666666</ele><time>2026-05-03T12:44:09.57Z</time></trkpt><trkpt lat="43.4175005" lon="10.6531067"><ele>238.33333333333331</ele><time>2026-05-03T12:44:10.571Z</time></trkpt><trkpt lat="43.4174893" lon="10.6532023"><ele>239.0</ele><time>2026-05-03T12:44:11.57Z</time></trkpt><trkpt lat="43.4173907" lon="10.6532578"><ele>239.66666666666666</ele><time>2026-05-03T12:44:12.57Z</time></trkpt><trkpt lat="43.4173209" lon="10.6533101"><ele>240.33333333333331</ele><time>2026-05-03T12:44:13.57Z</time></trkpt><trkpt lat="43.4172388" lon="10.6532928"><ele>241.0</ele><time>2026-05-03T12:44:14.57Z</time></trkpt><trkpt lat="43.4171693" lon="10.6531456"><ele>244.0</ele><time>2026-05-03T12:44:15.571Z</time></trkpt><trkpt lat="43.4170813" lon="10.653017"><ele>247.0</ele><time>2026-05-03T12:44:16.571Z</time></trkpt><trkpt lat="43.4169943" lon="10.6528806"><ele>250.0</ele><time>2026-05-03T12:44:17.571Z</time></trkpt><trkpt lat="43.4168886" lon="10.6527149"><ele>253.0</ele><time>2026-05-03T12:44:18.57Z</time></trkpt><trkpt lat="43.4167783" lon="10.652558"><ele>253.0</ele><time>2026-05-03T12:44:19.57Z</time></trkpt><trkpt lat="43.4166727" lon="10.6523911"><ele>253.0</ele><time>2026-05-03T12:44:20.57Z</time></trkpt><trkpt lat="43.4165782" lon="10.6522008"><ele>253.0</ele><time>2026-05-03T12:44:21.571Z</time></trkpt><trkpt lat="43.416493" lon="10.652021"><ele>251.75</ele><time>2026-05-03T12:44:22.571Z</time></trkpt><trkpt lat="43.4164167" lon="10.6518439"><ele>250.5</ele><time>2026-05-03T12:44:23.57Z</time></trkpt><trkpt lat="43.4163363" lon="10.6516961"><ele>249.25</ele><time>2026-05-03T12:44:24.571Z</time></trkpt><trkpt lat="43.4162365" lon="10.6515583"><ele>248.0</ele><time>2026-05-03T12:44:25.57Z</time></trkpt><trkpt lat="43.4161187" lon="10.6514357"><ele>251.75</ele><time>2026-05-03T12:44:26.57Z</time></trkpt><trkpt lat="43.4160049" lon="10.6513261"><ele>255.5</ele><time>2026-05-03T12:44:27.571Z</time></trkpt><trkpt lat="43.4158974" lon="10.6512285"><ele>259.25</ele><time>2026-05-03T12:44:28.57Z</time></trkpt><trkpt lat="43.4158105" lon="10.6511776"><ele>263.0</ele><time>2026-05-03T12:44:29.57Z</time></trkpt><trkpt lat="43.4157228" lon="10.6511539"><ele>263.0</ele><time>2026-05-03T12:44:30.571Z</time></trkpt><trkpt lat="43.4156442" lon="10.6512103"><ele>263.0</ele><time>2026-05-03T12:44:31.57Z</time></trkpt><trkpt lat="43.4155936" lon="10.6512842"><ele>263.0</ele><time>2026-05-03T12:44:32.571Z</time></trkpt><trkpt lat="43.4155829" lon="10.6513854"><ele>263.0</ele><time>2026-05-03T12:44:33.571Z</time></trkpt><trkpt lat="43.4155996" lon="10.6515059"><ele>263.0</ele><time>2026-05-03T12:44:34.57Z</time></trkpt><trkpt lat="43.4156761" lon="10.6516394"><ele>263.0</ele><time>2026-05-03T12:44:35.57Z</time></trkpt><trkpt lat="43.4157741" lon="10.6517573"><ele>263.0</ele><time>2026-05-03T12:44:36.57Z</time></trkpt><trkpt lat="43.4158665" lon="10.6518676"><ele>263.0</ele><time>2026-05-03T12:44:37.571Z</time></trkpt><trkpt lat="43.4159465" lon="10.651974"><ele>263.0</ele><time>2026-05-03T12:44:38.57Z</time></trkpt><trkpt lat="43.4159928" lon="10.6521044"><ele>263.0</ele><time>2026-05-03T12:44:39.57Z</time></trkpt><trkpt lat="43.4160357" lon="10.6522511"><ele>265.0</ele><time>2026-05-03T12:44:40.57Z</time></trkpt><trkpt lat="43.4160282" lon="10.6524182"><ele>267.0</ele><time>2026-05-03T12:44:41.57Z</time></trkpt><trkpt lat="43.4160068" lon="10.6526172"><ele>269.0</ele><time>2026-05-03T12:44:42.571Z</time></trkpt><trkpt lat="43.4159891" lon="10.6528257"><ele>271.0</ele><time>2026-05-03T12:44:43.571Z</time></trkpt><trkpt lat="43.4159857" lon="10.6530358"><ele>271.75</ele><time>2026-05-03T12:44:44.57Z</time></trkpt><trkpt lat="43.4160057" lon="10.653245"><ele>272.5</ele><time>2026-05-03T12:44:45.57Z</time></trkpt><trkpt lat="43.4160438" lon="10.6534511"><ele>273.25</ele><time>2026-05-03T12:44:46.57Z</time></trkpt><trkpt lat="43.4160962" lon="10.6536293"><ele>274.0</ele><time>2026-05-03T12:44:47.57Z</time></trkpt><trkpt lat="43.4161488" lon="10.6537895"><ele>275.0</ele><time>2026-05-03T12:44:48.57Z</time></trkpt><trkpt lat="43.4162053" lon="10.6539417"><ele>276.0</ele><time>2026-05-03T12:44:49.57Z</time></trkpt><trkpt lat="43.4162432" lon="10.6541002"><ele>277.0</ele><time>2026-05-03T12:44:50.57Z</time></trkpt><trkpt lat="43.4162478" lon="10.6542736"><ele>278.0</ele><time>2026-05-03T12:44:51.569Z</time></trkpt><trkpt lat="43.4162596" lon="10.6544536"><ele>278.33333333333337</ele><time>2026-05-03T12:44:52.569Z</time></trkpt><trkpt lat="43.416207" lon="10.6546804"><ele>278.6666666666667</ele><time>2026-05-03T12:44:53.569Z</time></trkpt><trkpt lat="43.4161482" lon="10.6548799"><ele>279.0</ele><time>2026-05-03T12:44:54.57Z</time></trkpt><trkpt lat="43.4160732" lon="10.6550598"><ele>279.0</ele><time>2026-05-03T12:44:55.571Z</time></trkpt><trkpt lat="43.4159814" lon="10.6552415"><ele>279.0</ele><time>2026-05-03T12:44:56.57Z</time></trkpt><trkpt lat="43.4159073" lon="10.6553882"><ele>279.0</ele><time>2026-05-03T12:44:57.569Z</time></trkpt><trkpt lat="43.4157813" lon="10.6554949"><ele>279.0</ele><time>2026-05-03T12:44:58.569Z</time></trkpt><trkpt lat="43.415649" lon="10.6556095"><ele>280.6666666666667</ele><time>2026-05-03T12:44:59.571Z</time></trkpt><trkpt lat="43.4154831" lon="10.6557086"><ele>282.33333333333337</ele><time>2026-05-03T12:45:00.57Z</time></trkpt><trkpt lat="43.4153206" lon="10.6558079"><ele>284.0</ele><time>2026-05-03T12:45:01.57Z</time></trkpt><trkpt lat="43.415165" lon="10.655903"><ele>284.0</ele><time>2026-05-03T12:45:02.57Z</time></trkpt><trkpt lat="43.4150388" lon="10.6559889"><ele>284.0</ele><time>2026-05-03T12:45:03.569Z</time></trkpt><trkpt lat="43.4149347" lon="10.6560465"><ele>284.0</ele><time>2026-05-03T12:45:04.569Z</time></trkpt><trkpt lat="43.4148596" lon="10.6560801"><ele>284.0</ele><time>2026-05-03T12:45:05.57Z</time></trkpt><trkpt lat="43.4147958" lon="10.6560465"><ele>284.0</ele><time>2026-05-03T12:45:06.57Z</time></trkpt><trkpt lat="43.4147569" lon="10.6558844"><ele>284.0</ele><time>2026-05-03T12:45:08.571Z</time></trkpt><trkpt lat="43.4148087" lon="10.6557731"><ele>284.0</ele><time>2026-05-03T12:45:09.57Z</time></trkpt><trkpt lat="43.4148672" lon="10.6556675"><ele>284.0</ele><time>2026-05-03T12:45:10.57Z</time></trkpt><trkpt lat="43.414982" lon="10.6555598"><ele>284.0</ele><time>2026-05-03T12:45:11.57Z</time></trkpt><trkpt lat="43.4150998" lon="10.6554872"><ele>284.0</ele><time>2026-05-03T12:45:12.569Z</time></trkpt><trkpt lat="43.4152121" lon="10.6554182"><ele>284.0</ele><time>2026-05-03T12:45:13.57Z</time></trkpt><trkpt lat="43.4153016" lon="10.655327"><ele>284.0</ele><time>2026-05-03T12:45:14.57Z</time></trkpt><trkpt lat="43.4153661" lon="10.6552123"><ele>284.0</ele><time>2026-05-03T12:45:15.572Z</time></trkpt><trkpt lat="43.4154105" lon="10.6550813"><ele>284.0</ele><time>2026-05-03T12:45:16.569Z</time></trkpt><trkpt lat="43.4153972" lon="10.6549283"><ele>287.6666666666667</ele><time>2026-05-03T12:45:17.57Z</time></trkpt><trkpt lat="43.4153766" lon="10.6547664"><ele>291.3333333333333</ele><time>2026-05-03T12:45:18.571Z</time></trkpt><trkpt lat="43.4152979" lon="10.6546142"><ele>295.0</ele><time>2026-05-03T12:45:19.571Z</time></trkpt><trkpt lat="43.4151547" lon="10.6544029"><ele>295.0</ele><time>2026-05-03T12:45:20.571Z</time></trkpt><trkpt lat="43.4150625" lon="10.654192"><ele>295.0</ele><time>2026-05-03T12:45:21.57Z</time></trkpt><trkpt lat="43.4149518" lon="10.6539451"><ele>295.0</ele><time>2026-05-03T12:45:22.57Z</time></trkpt><trkpt lat="43.4148444" lon="10.6536811"><ele>293.3333333333333</ele><time>2026-05-03T12:45:23.569Z</time></trkpt><trkpt lat="43.4147519" lon="10.6534379"><ele>291.6666666666667</ele><time>2026-05-03T12:45:24.57Z</time></trkpt><trkpt lat="43.4146802" lon="10.6532012"><ele>290.0</ele><time>2026-05-03T12:45:25.571Z</time></trkpt><trkpt lat="43.414634" lon="10.653013"><ele>293.5</ele><time>2026-05-03T12:45:26.57Z</time></trkpt><trkpt lat="43.4145789" lon="10.652844"><ele>297.0</ele><time>2026-05-03T12:45:27.57Z</time></trkpt><trkpt lat="43.4144957" lon="10.6526839"><ele>300.5</ele><time>2026-05-03T12:45:28.571Z</time></trkpt><trkpt lat="43.4143753" lon="10.6525283"><ele>304.0</ele><time>2026-05-03T12:45:29.569Z</time></trkpt><trkpt lat="43.4142246" lon="10.6523754"><ele>304.0</ele><time>2026-05-03T12:45:30.57Z</time></trkpt><trkpt lat="43.4140771" lon="10.6522267"><ele>304.0</ele><time>2026-05-03T12:45:31.57Z</time></trkpt><trkpt lat="43.4139587" lon="10.6520877"><ele>304.0</ele><time>2026-05-03T12:45:32.57Z</time></trkpt><trkpt lat="43.4138638" lon="10.651968"><ele>306.4</ele><time>2026-05-03T12:45:33.57Z</time></trkpt><trkpt lat="43.4138046" lon="10.6518441"><ele>308.79999999999995</ele><time>2026-05-03T12:45:34.57Z</time></trkpt><trkpt lat="43.4137753" lon="10.6517292"><ele>311.20000000000005</ele><time>2026-05-03T12:45:35.57Z</time></trkpt><trkpt lat="43.4137737" lon="10.6516007"><ele>313.6</ele><time>2026-05-03T12:45:36.57Z</time></trkpt><trkpt lat="43.4137874" lon="10.6514264"><ele>316.0</ele><time>2026-05-03T12:45:37.57Z</time></trkpt><trkpt lat="43.413786" lon="10.6512483"><ele>314.25</ele><time>2026-05-03T12:45:38.57Z</time></trkpt><trkpt lat="43.4137505" lon="10.6510801"><ele>312.5</ele><time>2026-05-03T12:45:39.571Z</time></trkpt><trkpt lat="43.4136938" lon="10.6509514"><ele>310.75</ele><time>2026-05-03T12:45:40.569Z</time></trkpt><trkpt lat="43.4135998" lon="10.6508381"><ele>309.0</ele><time>2026-05-03T12:45:41.569Z</time></trkpt><trkpt lat="43.4134762" lon="10.6507499"><ele>309.0</ele><time>2026-05-03T12:45:42.571Z</time></trkpt><trkpt lat="43.4133449" lon="10.6506629"><ele>309.0</ele><time>2026-05-03T12:45:43.57Z</time></trkpt><trkpt lat="43.4132116" lon="10.6505876"><ele>309.0</ele><time>2026-05-03T12:45:44.57Z</time></trkpt><trkpt lat="43.4130893" lon="10.6505365"><ele>309.0</ele><time>2026-05-03T12:45:45.571Z</time></trkpt><trkpt lat="43.4128784" lon="10.6504484"><ele>310.5</ele><time>2026-05-03T12:45:47.569Z</time></trkpt><trkpt lat="43.4128007" lon="10.6503664"><ele>312.0</ele><time>2026-05-03T12:45:48.571Z</time></trkpt><trkpt lat="43.4127481" lon="10.6502352"><ele>313.5</ele><time>2026-05-03T12:45:49.571Z</time></trkpt><trkpt lat="43.4126896" lon="10.6500729"><ele>315.0</ele><time>2026-05-03T12:45:50.571Z</time></trkpt><trkpt lat="43.4126381" lon="10.6499326"><ele>315.0</ele><time>2026-05-03T12:45:51.569Z</time></trkpt><trkpt lat="43.4125799" lon="10.6498091"><ele>315.0</ele><time>2026-05-03T12:45:52.569Z</time></trkpt><trkpt lat="43.4125176" lon="10.6497299"><ele>315.0</ele><time>2026-05-03T12:45:53.569Z</time></trkpt><trkpt lat="43.4124496" lon="10.6497017"><ele>315.0</ele><time>2026-05-03T12:45:54.569Z</time></trkpt><trkpt lat="43.4123912" lon="10.6497367"><ele>315.0</ele><time>2026-05-03T12:45:55.57Z</time></trkpt><trkpt lat="43.4123577" lon="10.6498369"><ele>315.0</ele><time>2026-05-03T12:45:56.572Z</time></trkpt><trkpt lat="43.4123544" lon="10.6499571"><ele>315.0</ele><time>2026-05-03T12:45:57.57Z</time></trkpt><trkpt lat="43.412376" lon="10.6501062"><ele>315.0</ele><time>2026-05-03T12:45:58.57Z</time></trkpt><trkpt lat="43.4124155" lon="10.6502795"><ele>315.0</ele><time>2026-05-03T12:45:59.57Z</time></trkpt><trkpt lat="43.4124487" lon="10.6504716"><ele>315.0</ele><time>2026-05-03T12:46:00.571Z</time></trkpt><trkpt lat="43.4125087" lon="10.6506326"><ele>317.0</ele><time>2026-05-03T12:46:01.571Z</time></trkpt><trkpt lat="43.4125765" lon="10.6507869"><ele>319.0</ele><time>2026-05-03T12:46:02.569Z</time></trkpt><trkpt lat="43.4126978" lon="10.6509133"><ele>321.0</ele><time>2026-05-03T12:46:03.57Z</time></trkpt><trkpt lat="43.4128154" lon="10.6510329"><ele>323.0</ele><time>2026-05-03T12:46:04.57Z</time></trkpt><trkpt lat="43.4129213" lon="10.6511392"><ele>321.25</ele><time>2026-05-03T12:46:05.571Z</time></trkpt><trkpt lat="43.4129826" lon="10.6512669"><ele>319.5</ele><time>2026-05-03T12:46:06.57Z</time></trkpt><trkpt lat="43.4130564" lon="10.6513903"><ele>317.75</ele><time>2026-05-03T12:46:07.57Z</time></trkpt><trkpt lat="43.4130625" lon="10.651574"><ele>316.0</ele><time>2026-05-03T12:46:08.57Z</time></trkpt><trkpt lat="43.4130588" lon="10.6517795"><ele>318.3333333333333</ele><time>2026-05-03T12:46:09.569Z</time></trkpt><trkpt lat="43.4130464" lon="10.6519996"><ele>320.6666666666667</ele><time>2026-05-03T12:46:10.57Z</time></trkpt><trkpt lat="43.4130657" lon="10.6522398"><ele>323.0</ele><time>2026-05-03T12:46:11.57Z</time></trkpt><trkpt lat="43.4130843" lon="10.6524506"><ele>323.0</ele><time>2026-05-03T12:46:12.57Z</time></trkpt><trkpt lat="43.4131519" lon="10.6526258"><ele>323.0</ele><time>2026-05-03T12:46:13.57Z</time></trkpt><trkpt lat="43.4131896" lon="10.6527987"><ele>323.0</ele><time>2026-05-03T12:46:14.569Z</time></trkpt><trkpt lat="43.4131983" lon="10.6529526"><ele>323.0</ele><time>2026-05-03T12:46:15.57Z</time></trkpt><trkpt lat="43.4131798" lon="10.653106"><ele>323.5</ele><time>2026-05-03T12:46:16.57Z</time></trkpt><trkpt lat="43.4131534" lon="10.6532791"><ele>324.0</ele><time>2026-05-03T12:46:17.569Z</time></trkpt><trkpt lat="43.4131515" lon="10.6534555"><ele>324.5</ele><time>2026-05-03T12:46:18.571Z</time></trkpt><trkpt lat="43.4131628" lon="10.6536332"><ele>325.0</ele><time>2026-05-03T12:46:19.57Z</time></trkpt><trkpt lat="43.4131953" lon="10.6537834"><ele>325.25</ele><time>2026-05-03T12:46:20.571Z</time></trkpt><trkpt lat="43.4132162" lon="10.6539271"><ele>325.5</ele><time>2026-05-03T12:46:21.571Z</time></trkpt><trkpt lat="43.4132135" lon="10.6540599"><ele>325.75</ele><time>2026-05-03T12:46:22.57Z</time></trkpt><trkpt lat="43.4131399" lon="10.6541853"><ele>326.0</ele><time>2026-05-03T12:46:23.569Z</time></trkpt><trkpt lat="43.413006" lon="10.6542454"><ele>327.6666666666667</ele><time>2026-05-03T12:46:24.569Z</time></trkpt><trkpt lat="43.4128759" lon="10.654322"><ele>329.3333333333333</ele><time>2026-05-03T12:46:25.57Z</time></trkpt><trkpt lat="43.4127119" lon="10.6544381"><ele>331.0</ele><time>2026-05-03T12:46:26.57Z</time></trkpt><trkpt lat="43.412545" lon="10.6545541"><ele>331.0</ele><time>2026-05-03T12:46:27.569Z</time></trkpt><trkpt lat="43.4123712" lon="10.6546875"><ele>331.0</ele><time>2026-05-03T12:46:28.57Z</time></trkpt><trkpt lat="43.4122109" lon="10.6548155"><ele>331.0</ele><time>2026-05-03T12:46:29.569Z</time></trkpt><trkpt lat="43.4120724" lon="10.6549392"><ele>333.5</ele><time>2026-05-03T12:46:30.569Z</time></trkpt><trkpt lat="43.4119505" lon="10.6550741"><ele>336.0</ele><time>2026-05-03T12:46:31.569Z</time></trkpt><trkpt lat="43.4118577" lon="10.6552099"><ele>338.5</ele><time>2026-05-03T12:46:32.569Z</time></trkpt><trkpt lat="43.4118004" lon="10.6553457"><ele>341.0</ele><time>2026-05-03T12:46:33.569Z</time></trkpt><trkpt lat="43.4117876" lon="10.6555037"><ele>341.0</ele><time>2026-05-03T12:46:34.57Z</time></trkpt><trkpt lat="43.4117947" lon="10.6556718"><ele>341.0</ele><time>2026-05-03T12:46:35.57Z</time></trkpt><trkpt lat="43.411834" lon="10.6558599"><ele>341.0</ele><time>2026-05-03T12:46:36.57Z</time></trkpt><trkpt lat="43.4118867" lon="10.6560796"><ele>341.0</ele><time>2026-05-03T12:46:37.57Z</time></trkpt><trkpt lat="43.4119494" lon="10.6563132"><ele>342.33333333333337</ele><time>2026-05-03T12:46:38.569Z</time></trkpt><trkpt lat="43.4120031" lon="10.6565518"><ele>343.6666666666667</ele><time>2026-05-03T12:46:39.569Z</time></trkpt><trkpt lat="43.4120635" lon="10.6567835"><ele>345.0</ele><time>2026-05-03T12:46:40.569Z</time></trkpt><trkpt lat="43.4121006" lon="10.657011"><ele>345.4</ele><time>2026-05-03T12:46:41.57Z</time></trkpt><trkpt lat="43.4121245" lon="10.6572309"><ele>345.8</ele><time>2026-05-03T12:46:42.569Z</time></trkpt><trkpt lat="43.4121049" lon="10.65737"><ele>346.20000000000005</ele><time>2026-05-03T12:46:43.57Z</time></trkpt><trkpt lat="43.4120858" lon="10.657478"><ele>346.6</ele><time>2026-05-03T12:46:44.57Z</time></trkpt><trkpt lat="43.4120346" lon="10.6575639"><ele>347.0</ele><time>2026-05-03T12:46:45.57Z</time></trkpt><trkpt lat="43.4119498" lon="10.6576192"><ele>347.0</ele><time>2026-05-03T12:46:46.569Z</time></trkpt><trkpt lat="43.4118585" lon="10.6576945"><ele>347.0</ele><time>2026-05-03T12:46:47.569Z</time></trkpt><trkpt lat="43.4117791" lon="10.6577855"><ele>347.0</ele><time>2026-05-03T12:46:48.572Z</time></trkpt><trkpt lat="43.4116913" lon="10.6579051"><ele>347.0</ele><time>2026-05-03T12:46:49.57Z</time></trkpt><trkpt lat="43.4116815" lon="10.6580815"><ele>347.0</ele><time>2026-05-03T12:46:50.57Z</time></trkpt><trkpt lat="43.4116793" lon="10.6582717"><ele>347.0</ele><time>2026-05-03T12:46:51.57Z</time></trkpt><trkpt lat="43.4116842" lon="10.6584821"><ele>347.0</ele><time>2026-05-03T12:46:52.57Z</time></trkpt><trkpt lat="43.4116834" lon="10.6587339"><ele>347.5</ele><time>2026-05-03T12:46:53.57Z</time></trkpt><trkpt lat="43.4116753" lon="10.6589881"><ele>348.0</ele><time>2026-05-03T12:46:54.57Z</time></trkpt><trkpt lat="43.4116315" lon="10.6594423"><ele>347.5</ele><time>2026-05-03T12:46:56.57Z</time></trkpt><trkpt lat="43.4115924" lon="10.6596333"><ele>347.0</ele><time>2026-05-03T12:46:57.57Z</time></trkpt><trkpt lat="43.4115302" lon="10.6597771"><ele>346.5</ele><time>2026-05-03T12:46:58.569Z</time></trkpt><trkpt lat="43.4114504" lon="10.6598903"><ele>346.0</ele><time>2026-05-03T12:46:59.571Z</time></trkpt><trkpt lat="43.4113481" lon="10.6599769"><ele>348.75</ele><time>2026-05-03T12:47:00.57Z</time></trkpt><trkpt lat="43.4112239" lon="10.6600313"><ele>351.5</ele><time>2026-05-03T12:47:01.57Z</time></trkpt><trkpt lat="43.4110972" lon="10.6600918"><ele>354.25</ele><time>2026-05-03T12:47:02.57Z</time></trkpt><trkpt lat="43.4109866" lon="10.6601849"><ele>357.0</ele><time>2026-05-03T12:47:03.57Z</time></trkpt><trkpt lat="43.4108885" lon="10.6603341"><ele>357.0</ele><time>2026-05-03T12:47:04.57Z</time></trkpt><trkpt lat="43.4107936" lon="10.6605018"><ele>357.0</ele><time>2026-05-03T12:47:05.57Z</time></trkpt><trkpt lat="43.4107188" lon="10.6606905"><ele>357.0</ele><time>2026-05-03T12:47:06.57Z</time></trkpt><trkpt lat="43.4106625" lon="10.6608956"><ele>357.0</ele><time>2026-05-03T12:47:07.571Z</time></trkpt><trkpt lat="43.4106235" lon="10.6611173"><ele>357.0</ele><time>2026-05-03T12:47:08.57Z</time></trkpt><trkpt lat="43.4105969" lon="10.6613508"><ele>357.0</ele><time>2026-05-03T12:47:09.57Z</time></trkpt><trkpt lat="43.4105821" lon="10.6616152"><ele>357.0</ele><time>2026-05-03T12:47:10.57Z</time></trkpt><trkpt lat="43.41058" lon="10.6618682"><ele>357.0</ele><time>2026-05-03T12:47:11.57Z</time></trkpt><trkpt lat="43.4105856" lon="10.662116"><ele>357.0</ele><time>2026-05-03T12:47:12.569Z</time></trkpt><trkpt lat="43.4105796" lon="10.6623447"><ele>357.25</ele><time>2026-05-03T12:47:13.57Z</time></trkpt><trkpt lat="43.4105512" lon="10.6625421"><ele>357.5</ele><time>2026-05-03T12:47:14.57Z</time></trkpt><trkpt lat="43.4105243" lon="10.6627304"><ele>357.75</ele><time>2026-05-03T12:47:15.57Z</time></trkpt><trkpt lat="43.410475" lon="10.6628942"><ele>358.0</ele><time>2026-05-03T12:47:16.57Z</time></trkpt><trkpt lat="43.410423" lon="10.6630521"><ele>363.3333333333333</ele><time>2026-05-03T12:47:17.57Z</time></trkpt><trkpt lat="43.410351" lon="10.6632247"><ele>368.6666666666667</ele><time>2026-05-03T12:47:18.57Z</time></trkpt><trkpt lat="43.4102797" lon="10.6634102"><ele>374.0</ele><time>2026-05-03T12:47:19.57Z</time></trkpt><trkpt lat="43.4101974" lon="10.6636002"><ele>371.6666666666667</ele><time>2026-05-03T12:47:20.57Z</time></trkpt><trkpt lat="43.4101131" lon="10.6638018"><ele>369.3333333333333</ele><time>2026-05-03T12:47:21.569Z</time></trkpt><trkpt lat="43.4100259" lon="10.6639943"><ele>367.0</ele><time>2026-05-03T12:47:22.57Z</time></trkpt><trkpt lat="43.4099316" lon="10.6641909"><ele>367.0</ele><time>2026-05-03T12:47:23.57Z</time></trkpt><trkpt lat="43.4098426" lon="10.6643626"><ele>367.0</ele><time>2026-05-03T12:47:24.569Z</time></trkpt><trkpt lat="43.4097553" lon="10.6645214"><ele>367.0</ele><time>2026-05-03T12:47:25.57Z</time></trkpt><trkpt lat="43.4096679" lon="10.6646628"><ele>367.0</ele><time>2026-05-03T12:47:26.57Z</time></trkpt><trkpt lat="43.4095838" lon="10.6647812"><ele>367.20000000000005</ele><time>2026-05-03T12:47:27.569Z</time></trkpt><trkpt lat="43.4094893" lon="10.6648545"><ele>367.4</ele><time>2026-05-03T12:47:28.57Z</time></trkpt><trkpt lat="43.4093949" lon="10.6648868"><ele>367.6</ele><time>2026-05-03T12:47:29.57Z</time></trkpt><trkpt lat="43.4092928" lon="10.6648962"><ele>367.79999999999995</ele><time>2026-05-03T12:47:30.57Z</time></trkpt><trkpt lat="43.409183" lon="10.6648902"><ele>368.0</ele><time>2026-05-03T12:47:31.57Z</time></trkpt><trkpt lat="43.4090543" lon="10.6648464"><ele>368.0</ele><time>2026-05-03T12:47:32.57Z</time></trkpt><trkpt lat="43.4089216" lon="10.6647775"><ele>368.0</ele><time>2026-05-03T12:47:33.569Z</time></trkpt><trkpt lat="43.4087784" lon="10.6647107"><ele>368.0</ele><time>2026-05-03T12:47:34.569Z</time></trkpt><trkpt lat="43.4086267" lon="10.664602"><ele>369.0</ele><time>2026-05-03T12:47:35.569Z</time></trkpt><trkpt lat="43.4084537" lon="10.6645013"><ele>370.0</ele><time>2026-05-03T12:47:36.569Z</time></trkpt><trkpt lat="43.4082718" lon="10.6644276"><ele>371.0</ele><time>2026-05-03T12:47:37.569Z</time></trkpt><trkpt lat="43.4080803" lon="10.6643837"><ele>369.6666666666667</ele><time>2026-05-03T12:47:38.57Z</time></trkpt><trkpt lat="43.4079069" lon="10.6643459"><ele>368.3333333333333</ele><time>2026-05-03T12:47:39.57Z</time></trkpt><trkpt lat="43.4077475" lon="10.6643066"><ele>367.0</ele><time>2026-05-03T12:47:40.569Z</time></trkpt><trkpt lat="43.4075987" lon="10.6642652"><ele>367.0</ele><time>2026-05-03T12:47:41.57Z</time></trkpt><trkpt lat="43.4074804" lon="10.6642066"><ele>367.0</ele><time>2026-05-03T12:47:42.57Z</time></trkpt><trkpt lat="43.4073876" lon="10.6641339"><ele>367.0</ele><time>2026-05-03T12:47:43.57Z</time></trkpt><trkpt lat="43.4073157" lon="10.6640197"><ele>367.0</ele><time>2026-05-03T12:47:44.57Z</time></trkpt><trkpt lat="43.407268" lon="10.6638472"><ele>367.0</ele><time>2026-05-03T12:47:45.571Z</time></trkpt><trkpt lat="43.4072199" lon="10.6636381"><ele>367.0</ele><time>2026-05-03T12:47:46.57Z</time></trkpt><trkpt lat="43.4071632" lon="10.6634044"><ele>367.0</ele><time>2026-05-03T12:47:47.57Z</time></trkpt><trkpt lat="43.4070981" lon="10.6631565"><ele>366.0</ele><time>2026-05-03T12:47:48.57Z</time></trkpt><trkpt lat="43.407043" lon="10.6629147"><ele>365.0</ele><time>2026-05-03T12:47:49.571Z</time></trkpt><trkpt lat="43.4070154" lon="10.6627253"><ele>364.0</ele><time>2026-05-03T12:47:50.57Z</time></trkpt><trkpt lat="43.4069705" lon="10.6625127"><ele>364.0</ele><time>2026-05-03T12:47:51.57Z</time></trkpt><trkpt lat="43.406923" lon="10.6623178"><ele>364.0</ele><time>2026-05-03T12:47:52.57Z</time></trkpt><trkpt lat="43.406869" lon="10.6621696"><ele>364.0</ele><time>2026-05-03T12:47:53.57Z</time></trkpt><trkpt lat="43.406791" lon="10.6620624"><ele>364.0</ele><time>2026-05-03T12:47:54.57Z</time></trkpt><trkpt lat="43.4067009" lon="10.6619754"><ele>364.0</ele><time>2026-05-03T12:47:55.57Z</time></trkpt><trkpt lat="43.4065933" lon="10.6619175"><ele>364.0</ele><time>2026-05-03T12:47:56.57Z</time></trkpt><trkpt lat="43.4064487" lon="10.6619981"><ele>364.0</ele><time>2026-05-03T12:47:57.57Z</time></trkpt><trkpt lat="43.4063238" lon="10.6620009"><ele>364.0</ele><time>2026-05-03T12:47:58.569Z</time></trkpt><trkpt lat="43.4062092" lon="10.6619511"><ele>364.0</ele><time>2026-05-03T12:47:59.569Z</time></trkpt><trkpt lat="43.4061089" lon="10.6618718"><ele>364.0</ele><time>2026-05-03T12:48:00.568Z</time></trkpt><trkpt lat="43.4060321" lon="10.6617436"><ele>364.0</ele><time>2026-05-03T12:48:01.57Z</time></trkpt><trkpt lat="43.4059715" lon="10.6615878"><ele>364.0</ele><time>2026-05-03T12:48:02.57Z</time></trkpt><trkpt lat="43.4059288" lon="10.6614286"><ele>364.0</ele><time>2026-05-03T12:48:03.571Z</time></trkpt><trkpt lat="43.4058819" lon="10.6612784"><ele>364.0</ele><time>2026-05-03T12:48:04.57Z</time></trkpt><trkpt lat="43.4058055" lon="10.6611548"><ele>364.0</ele><time>2026-05-03T12:48:05.57Z</time></trkpt><trkpt lat="43.405706" lon="10.6610712"><ele>364.0</ele><time>2026-05-03T12:48:06.57Z</time></trkpt><trkpt lat="43.4055857" lon="10.6610359"><ele>365.25</ele><time>2026-05-03T12:48:07.57Z</time></trkpt><trkpt lat="43.4054678" lon="10.6610108"><ele>366.5</ele><time>2026-05-03T12:48:08.57Z</time></trkpt><trkpt lat="43.4053333" lon="10.6610744"><ele>367.75</ele><time>2026-05-03T12:48:09.57Z</time></trkpt><trkpt lat="43.4051926" lon="10.6611328"><ele>369.0</ele><time>2026-05-03T12:48:10.57Z</time></trkpt><trkpt lat="43.4050464" lon="10.6611869"><ele>365.25</ele><time>2026-05-03T12:48:11.57Z</time></trkpt><trkpt lat="43.4049028" lon="10.6612481"><ele>361.5</ele><time>2026-05-03T12:48:12.569Z</time></trkpt><trkpt lat="43.4047579" lon="10.6612991"><ele>357.75</ele><time>2026-05-03T12:48:13.57Z</time></trkpt><trkpt lat="43.4046195" lon="10.6613538"><ele>354.0</ele><time>2026-05-03T12:48:14.57Z</time></trkpt><trkpt lat="43.4044827" lon="10.661389"><ele>353.75</ele><time>2026-05-03T12:48:15.57Z</time></trkpt><trkpt lat="43.4043507" lon="10.6613884"><ele>353.5</ele><time>2026-05-03T12:48:16.57Z</time></trkpt><trkpt lat="43.4042292" lon="10.6613592"><ele>353.25</ele><time>2026-05-03T12:48:17.57Z</time></trkpt><trkpt lat="43.4041139" lon="10.6612953"><ele>353.0</ele><time>2026-05-03T12:48:18.57Z</time></trkpt><trkpt lat="43.4040065" lon="10.6612042"><ele>353.0</ele><time>2026-05-03T12:48:19.571Z</time></trkpt><trkpt lat="43.403899" lon="10.6611202"><ele>353.0</ele><time>2026-05-03T12:48:20.57Z</time></trkpt><trkpt lat="43.4037782" lon="10.6610754"><ele>353.0</ele><time>2026-05-03T12:48:21.569Z</time></trkpt><trkpt lat="43.4036536" lon="10.6610539"><ele>353.0</ele><time>2026-05-03T12:48:22.57Z</time></trkpt><trkpt lat="43.4035223" lon="10.661063"><ele>353.25</ele><time>2026-05-03T12:48:23.569Z</time></trkpt><trkpt lat="43.4033942" lon="10.6611122"><ele>353.5</ele><time>2026-05-03T12:48:24.569Z</time></trkpt><trkpt lat="43.4032777" lon="10.6611818"><ele>353.75</ele><time>2026-05-03T12:48:25.57Z</time></trkpt><trkpt lat="43.4031659" lon="10.6612807"><ele>354.0</ele><time>2026-05-03T12:48:26.57Z</time></trkpt><trkpt lat="43.4030734" lon="10.6614177"><ele>355.25</ele><time>2026-05-03T12:48:27.57Z</time></trkpt><trkpt lat="43.4029725" lon="10.6615598"><ele>356.5</ele><time>2026-05-03T12:48:28.569Z</time></trkpt><trkpt lat="43.4028732" lon="10.66172"><ele>357.75</ele><time>2026-05-03T12:48:29.569Z</time></trkpt><trkpt lat="43.4027826" lon="10.6618754"><ele>359.0</ele><time>2026-05-03T12:48:30.569Z</time></trkpt><trkpt lat="43.4026943" lon="10.6620443"><ele>359.0</ele><time>2026-05-03T12:48:31.57Z</time></trkpt><trkpt lat="43.4026156" lon="10.6622018"><ele>359.0</ele><time>2026-05-03T12:48:32.57Z</time></trkpt><trkpt lat="43.4025476" lon="10.6623839"><ele>359.0</ele><time>2026-05-03T12:48:33.569Z</time></trkpt><trkpt lat="43.4024763" lon="10.6625473"><ele>359.0</ele><time>2026-05-03T12:48:34.57Z</time></trkpt><trkpt lat="43.4024091" lon="10.6627101"><ele>356.75</ele><time>2026-05-03T12:48:35.57Z</time></trkpt><trkpt lat="43.4023366" lon="10.6628659"><ele>354.5</ele><time>2026-05-03T12:48:36.57Z</time></trkpt><trkpt lat="43.4022467" lon="10.6629861"><ele>352.25</ele><time>2026-05-03T12:48:37.569Z</time></trkpt><trkpt lat="43.4021441" lon="10.6630894"><ele>350.0</ele><time>2026-05-03T12:48:38.57Z</time></trkpt><trkpt lat="43.4020353" lon="10.6631688"><ele>350.0</ele><time>2026-05-03T12:48:39.57Z</time></trkpt><trkpt lat="43.4019265" lon="10.6631963"><ele>350.0</ele><time>2026-05-03T12:48:40.57Z</time></trkpt><trkpt lat="43.4018106" lon="10.6632063"><ele>350.0</ele><time>2026-05-03T12:48:41.569Z</time></trkpt><trkpt lat="43.4016829" lon="10.6631741"><ele>350.0</ele><time>2026-05-03T12:48:42.569Z</time></trkpt><trkpt lat="43.4015414" lon="10.6631507"><ele>350.0</ele><time>2026-05-03T12:48:43.569Z</time></trkpt><trkpt lat="43.4013959" lon="10.6631264"><ele>350.0</ele><time>2026-05-03T12:48:44.57Z</time></trkpt><trkpt lat="43.4012454" lon="10.6631068"><ele>350.0</ele><time>2026-05-03T12:48:45.571Z</time></trkpt><trkpt lat="43.4010877" lon="10.6630797"><ele>349.25</ele><time>2026-05-03T12:48:46.57Z</time></trkpt><trkpt lat="43.4009379" lon="10.6630396"><ele>348.5</ele><time>2026-05-03T12:48:47.569Z</time></trkpt><trkpt lat="43.4007992" lon="10.6630016"><ele>347.75</ele><time>2026-05-03T12:48:48.57Z</time></trkpt><trkpt lat="43.4006676" lon="10.6629582"><ele>347.0</ele><time>2026-05-03T12:48:49.57Z</time></trkpt><trkpt lat="43.4005327" lon="10.6629151"><ele>347.75</ele><time>2026-05-03T12:48:50.569Z</time></trkpt><trkpt lat="43.4004154" lon="10.6628787"><ele>348.5</ele><time>2026-05-03T12:48:51.57Z</time></trkpt><trkpt lat="43.4003006" lon="10.6628536"><ele>349.25</ele><time>2026-05-03T12:48:52.57Z</time></trkpt><trkpt lat="43.4001871" lon="10.6628515"><ele>350.0</ele><time>2026-05-03T12:48:53.57Z</time></trkpt><trkpt lat="43.4000783" lon="10.6628813"><ele>350.0</ele><time>2026-05-03T12:48:54.57Z</time></trkpt><trkpt lat="43.3999758" lon="10.6629342"><ele>350.0</ele><time>2026-05-03T12:48:55.569Z</time></trkpt><trkpt lat="43.3998855" lon="10.6630982"><ele>350.0</ele><time>2026-05-03T12:48:56.57Z</time></trkpt><trkpt lat="43.3998212" lon="10.6632244"><ele>350.0</ele><time>2026-05-03T12:48:57.57Z</time></trkpt><trkpt lat="43.3997556" lon="10.6633607"><ele>350.0</ele><time>2026-05-03T12:48:58.57Z</time></trkpt><trkpt lat="43.3996933" lon="10.6634609"><ele>350.0</ele><time>2026-05-03T12:48:59.57Z</time></trkpt><trkpt lat="43.3996088" lon="10.6635574"><ele>350.0</ele><time>2026-05-03T12:49:00.568Z</time></trkpt><trkpt lat="43.3995215" lon="10.663611"><ele>350.0</ele><time>2026-05-03T12:49:01.57Z</time></trkpt><trkpt lat="43.3994264" lon="10.6635759"><ele>350.0</ele><time>2026-05-03T12:49:02.57Z</time></trkpt><trkpt lat="43.3993302" lon="10.6635122"><ele>350.0</ele><time>2026-05-03T12:49:03.569Z</time></trkpt><trkpt lat="43.3992223" lon="10.6634352"><ele>350.0</ele><time>2026-05-03T12:49:04.569Z</time></trkpt><trkpt lat="43.3991032" lon="10.6633457"><ele>350.0</ele><time>2026-05-03T12:49:05.57Z</time></trkpt><trkpt lat="43.3989473" lon="10.6632943"><ele>350.0</ele><time>2026-05-03T12:49:06.569Z</time></trkpt><trkpt lat="43.3987992" lon="10.6632577"><ele>350.0</ele><time>2026-05-03T12:49:07.57Z</time></trkpt><trkpt lat="43.398658" lon="10.6632464"><ele>350.0</ele><time>2026-05-03T12:49:08.569Z</time></trkpt><trkpt lat="43.3985185" lon="10.6632773"><ele>350.0</ele><time>2026-05-03T12:49:09.57Z</time></trkpt><trkpt lat="43.3983914" lon="10.6633344"><ele>350.0</ele><time>2026-05-03T12:49:10.57Z</time></trkpt><trkpt lat="43.3982679" lon="10.6634283"><ele>350.0</ele><time>2026-05-03T12:49:11.57Z</time></trkpt><trkpt lat="43.3981598" lon="10.6635302"><ele>350.0</ele><time>2026-05-03T12:49:12.57Z</time></trkpt><trkpt lat="43.3980554" lon="10.663631"><ele>350.0</ele><time>2026-05-03T12:49:13.57Z</time></trkpt><trkpt lat="43.3979537" lon="10.6636997"><ele>350.0</ele><time>2026-05-03T12:49:14.57Z</time></trkpt><trkpt lat="43.3978473" lon="10.6637559"><ele>347.25</ele><time>2026-05-03T12:49:15.568Z</time></trkpt><trkpt lat="43.3977244" lon="10.6638143"><ele>344.5</ele><time>2026-05-03T12:49:16.57Z</time></trkpt><trkpt lat="43.3975985" lon="10.6638469"><ele>341.75</ele><time>2026-05-03T12:49:17.571Z</time></trkpt><trkpt lat="43.3974686" lon="10.6639036"><ele>339.0</ele><time>2026-05-03T12:49:18.569Z</time></trkpt><trkpt lat="43.3973408" lon="10.6639681"><ele>339.0</ele><time>2026-05-03T12:49:19.57Z</time></trkpt><trkpt lat="43.397216" lon="10.6640258"><ele>339.0</ele><time>2026-05-03T12:49:20.569Z</time></trkpt><trkpt lat="43.3970936" lon="10.6640689"><ele>339.0</ele><time>2026-05-03T12:49:21.57Z</time></trkpt><trkpt lat="43.3969696" lon="10.6640388"><ele>339.0</ele><time>2026-05-03T12:49:22.57Z</time></trkpt><trkpt lat="43.3968435" lon="10.663979"><ele>338.25</ele><time>2026-05-03T12:49:23.571Z</time></trkpt><trkpt lat="43.3967113" lon="10.6638831"><ele>337.5</ele><time>2026-05-03T12:49:24.57Z</time></trkpt><trkpt lat="43.3965854" lon="10.6637889"><ele>336.75</ele><time>2026-05-03T12:49:25.57Z</time></trkpt><trkpt lat="43.3964608" lon="10.6637087"><ele>336.0</ele><time>2026-05-03T12:49:26.569Z</time></trkpt><trkpt lat="43.3963302" lon="10.6636674"><ele>335.0</ele><time>2026-05-03T12:49:27.57Z</time></trkpt><trkpt lat="43.3962002" lon="10.6636734"><ele>334.0</ele><time>2026-05-03T12:49:28.569Z</time></trkpt><trkpt lat="43.3960674" lon="10.6637149"><ele>333.0</ele><time>2026-05-03T12:49:29.57Z</time></trkpt><trkpt lat="43.3959322" lon="10.6637598"><ele>332.0</ele><time>2026-05-03T12:49:30.569Z</time></trkpt><trkpt lat="43.3957952" lon="10.6637836"><ele>332.0</ele><time>2026-05-03T12:49:31.57Z</time></trkpt><trkpt lat="43.3956517" lon="10.6637721"><ele>332.0</ele><time>2026-05-03T12:49:32.57Z</time></trkpt><trkpt lat="43.3955065" lon="10.6637312"><ele>332.0</ele><time>2026-05-03T12:49:33.569Z</time></trkpt><trkpt lat="43.3953616" lon="10.6636727"><ele>332.0</ele><time>2026-05-03T12:49:34.571Z</time></trkpt><trkpt lat="43.3952245" lon="10.6635936"><ele>332.6666666666667</ele><time>2026-05-03T12:49:35.57Z</time></trkpt><trkpt lat="43.3950924" lon="10.6634834"><ele>333.3333333333333</ele><time>2026-05-03T12:49:36.57Z</time></trkpt><trkpt lat="43.3949621" lon="10.6633465"><ele>334.0</ele><time>2026-05-03T12:49:37.57Z</time></trkpt><trkpt lat="43.3948334" lon="10.6632013"><ele>334.0</ele><time>2026-05-03T12:49:38.568Z</time></trkpt><trkpt lat="43.3946952" lon="10.6630704"><ele>334.0</ele><time>2026-05-03T12:49:39.57Z</time></trkpt><trkpt lat="43.3945524" lon="10.6629484"><ele>334.0</ele><time>2026-05-03T12:49:40.569Z</time></trkpt><trkpt lat="43.3944029" lon="10.6628257"><ele>333.0</ele><time>2026-05-03T12:49:41.569Z</time></trkpt><trkpt lat="43.3942669" lon="10.6626971"><ele>332.0</ele><time>2026-05-03T12:49:42.569Z</time></trkpt><trkpt lat="43.3941342" lon="10.6625686"><ele>331.0</ele><time>2026-05-03T12:49:43.57Z</time></trkpt><trkpt lat="43.3940007" lon="10.6624574"><ele>331.0</ele><time>2026-05-03T12:49:44.57Z</time></trkpt><trkpt lat="43.3938697" lon="10.6623617"><ele>331.0</ele><time>2026-05-03T12:49:45.57Z</time></trkpt><trkpt lat="43.3937292" lon="10.6622962"><ele>331.0</ele><time>2026-05-03T12:49:46.57Z</time></trkpt><trkpt lat="43.3935757" lon="10.6622602"><ele>328.66666666666663</ele><time>2026-05-03T12:49:47.57Z</time></trkpt><trkpt lat="43.393414" lon="10.6622524"><ele>326.3333333333333</ele><time>2026-05-03T12:49:48.569Z</time></trkpt><trkpt lat="43.3932475" lon="10.6622582"><ele>324.0</ele><time>2026-05-03T12:49:49.571Z</time></trkpt><trkpt lat="43.3930738" lon="10.6622857"><ele>324.3333333333333</ele><time>2026-05-03T12:49:50.569Z</time></trkpt><trkpt lat="43.3929016" lon="10.6623315"><ele>324.66666666666663</ele><time>2026-05-03T12:49:51.57Z</time></trkpt><trkpt lat="43.3927436" lon="10.6623903"><ele>325.0</ele><time>2026-05-03T12:49:52.569Z</time></trkpt><trkpt lat="43.3925941" lon="10.6624618"><ele>325.0</ele><time>2026-05-03T12:49:53.569Z</time></trkpt><trkpt lat="43.3924521" lon="10.6625082"><ele>325.0</ele><time>2026-05-03T12:49:54.57Z</time></trkpt><trkpt lat="43.3923099" lon="10.6625358"><ele>325.0</ele><time>2026-05-03T12:49:55.569Z</time></trkpt><trkpt lat="43.3921609" lon="10.6625445"><ele>325.0</ele><time>2026-05-03T12:49:56.571Z</time></trkpt><trkpt lat="43.3920115" lon="10.6624936"><ele>324.0</ele><time>2026-05-03T12:49:57.57Z</time></trkpt><trkpt lat="43.3918648" lon="10.662441"><ele>323.0</ele><time>2026-05-03T12:49:58.57Z</time></trkpt><trkpt lat="43.3917268" lon="10.6624197"><ele>322.0</ele><time>2026-05-03T12:49:59.568Z</time></trkpt><trkpt lat="43.3915865" lon="10.662443"><ele>321.0</ele><time>2026-05-03T12:50:00.57Z</time></trkpt><trkpt lat="43.3914544" lon="10.662504"><ele>320.5</ele><time>2026-05-03T12:50:01.569Z</time></trkpt><trkpt lat="43.3913188" lon="10.6625959"><ele>320.0</ele><time>2026-05-03T12:50:02.569Z</time></trkpt><trkpt lat="43.3911778" lon="10.6626679"><ele>319.5</ele><time>2026-05-03T12:50:03.571Z</time></trkpt><trkpt lat="43.3910331" lon="10.6627034"><ele>319.0</ele><time>2026-05-03T12:50:04.57Z</time></trkpt><trkpt lat="43.3908728" lon="10.6627324"><ele>319.0</ele><time>2026-05-03T12:50:05.571Z</time></trkpt><trkpt lat="43.3907151" lon="10.6627128"><ele>319.0</ele><time>2026-05-03T12:50:06.569Z</time></trkpt><trkpt lat="43.390558" lon="10.6627015"><ele>319.0</ele><time>2026-05-03T12:50:07.57Z</time></trkpt><trkpt lat="43.3904053" lon="10.6626916"><ele>319.0</ele><time>2026-05-03T12:50:08.57Z</time></trkpt><trkpt lat="43.3902558" lon="10.6626907"><ele>319.0</ele><time>2026-05-03T12:50:09.57Z</time></trkpt><trkpt lat="43.3901099" lon="10.6627156"><ele>319.0</ele><time>2026-05-03T12:50:10.57Z</time></trkpt><trkpt lat="43.3898333" lon="10.6628751"><ele>316.5</ele><time>2026-05-03T12:50:12.569Z</time></trkpt><trkpt lat="43.3897023" lon="10.6629962"><ele>314.0</ele><time>2026-05-03T12:50:13.57Z</time></trkpt><trkpt lat="43.3895846" lon="10.6630986"><ele>311.5</ele><time>2026-05-03T12:50:14.568Z</time></trkpt><trkpt lat="43.3894557" lon="10.6631736"><ele>309.0</ele><time>2026-05-03T12:50:15.57Z</time></trkpt><trkpt lat="43.3893147" lon="10.6632087"><ele>309.0</ele><time>2026-05-03T12:50:16.57Z</time></trkpt><trkpt lat="43.3891638" lon="10.6632049"><ele>309.0</ele><time>2026-05-03T12:50:17.57Z</time></trkpt><trkpt lat="43.3890013" lon="10.6631671"><ele>309.0</ele><time>2026-05-03T12:50:18.57Z</time></trkpt><trkpt lat="43.3888332" lon="10.6631093"><ele>308.6666666666667</ele><time>2026-05-03T12:50:19.569Z</time></trkpt><trkpt lat="43.3886622" lon="10.663063"><ele>308.33333333333337</ele><time>2026-05-03T12:50:20.57Z</time></trkpt><trkpt lat="43.3884956" lon="10.6630288"><ele>308.0</ele><time>2026-05-03T12:50:21.57Z</time></trkpt><trkpt lat="43.3883199" lon="10.6630444"><ele>308.0</ele><time>2026-05-03T12:50:22.569Z</time></trkpt><trkpt lat="43.3881557" lon="10.6630787"><ele>308.0</ele><time>2026-05-03T12:50:23.57Z</time></trkpt><trkpt lat="43.3879952" lon="10.6631425"><ele>308.0</ele><time>2026-05-03T12:50:24.57Z</time></trkpt><trkpt lat="43.38783" lon="10.6632352"><ele>308.0</ele><time>2026-05-03T12:50:25.57Z</time></trkpt><trkpt lat="43.3876625" lon="10.6633368"><ele>308.0</ele><time>2026-05-03T12:50:26.57Z</time></trkpt><trkpt lat="43.3875023" lon="10.6633993"><ele>308.0</ele><time>2026-05-03T12:50:27.57Z</time></trkpt><trkpt lat="43.3873371" lon="10.6634272"><ele>306.6666666666667</ele><time>2026-05-03T12:50:28.569Z</time></trkpt><trkpt lat="43.3871773" lon="10.6634237"><ele>305.3333333333333</ele><time>2026-05-03T12:50:29.571Z</time></trkpt><trkpt lat="43.3870007" lon="10.6634262"><ele>304.0</ele><time>2026-05-03T12:50:30.57Z</time></trkpt><trkpt lat="43.3868279" lon="10.6633999"><ele>304.0</ele><time>2026-05-03T12:50:31.569Z</time></trkpt><trkpt lat="43.386645" lon="10.663379"><ele>304.0</ele><time>2026-05-03T12:50:32.57Z</time></trkpt><trkpt lat="43.3864559" lon="10.6633506"><ele>304.0</ele><time>2026-05-03T12:50:33.57Z</time></trkpt><trkpt lat="43.3862318" lon="10.6633154"><ele>300.5</ele><time>2026-05-03T12:50:34.569Z</time></trkpt><trkpt lat="43.3860023" lon="10.6632671"><ele>297.0</ele><time>2026-05-03T12:50:35.569Z</time></trkpt><trkpt lat="43.3857585" lon="10.6632265"><ele>296.5</ele><time>2026-05-03T12:50:36.57Z</time></trkpt><trkpt lat="43.385511" lon="10.6631904"><ele>296.0</ele><time>2026-05-03T12:50:37.568Z</time></trkpt><trkpt lat="43.3852726" lon="10.6631505"><ele>296.0</ele><time>2026-05-03T12:50:38.569Z</time></trkpt><trkpt lat="43.3850431" lon="10.6631111"><ele>296.0</ele><time>2026-05-03T12:50:39.57Z</time></trkpt><trkpt lat="43.3848304" lon="10.663065"><ele>296.0</ele><time>2026-05-03T12:50:40.569Z</time></trkpt><trkpt lat="43.3846272" lon="10.6630229"><ele>295.0</ele><time>2026-05-03T12:50:41.569Z</time></trkpt><trkpt lat="43.3844397" lon="10.6630115"><ele>294.0</ele><time>2026-05-03T12:50:42.569Z</time></trkpt><trkpt lat="43.3842641" lon="10.6629835"><ele>293.0</ele><time>2026-05-03T12:50:43.569Z</time></trkpt><trkpt lat="43.3840985" lon="10.6629676"><ele>293.0</ele><time>2026-05-03T12:50:44.569Z</time></trkpt><trkpt lat="43.3839378" lon="10.6629598"><ele>293.0</ele><time>2026-05-03T12:50:45.57Z</time></trkpt><trkpt lat="43.3837857" lon="10.6629697"><ele>293.0</ele><time>2026-05-03T12:50:46.57Z</time></trkpt><trkpt lat="43.3836312" lon="10.6630262"><ele>291.6666666666667</ele><time>2026-05-03T12:50:47.57Z</time></trkpt><trkpt lat="43.3834819" lon="10.6631241"><ele>290.3333333333333</ele><time>2026-05-03T12:50:48.57Z</time></trkpt><trkpt lat="43.3833378" lon="10.6632325"><ele>289.0</ele><time>2026-05-03T12:50:49.57Z</time></trkpt><trkpt lat="43.383214" lon="10.6634045"><ele>289.0</ele><time>2026-05-03T12:50:50.569Z</time></trkpt><trkpt lat="43.3830841" lon="10.6635728"><ele>289.0</ele><time>2026-05-03T12:50:51.569Z</time></trkpt><trkpt lat="43.3829608" lon="10.6637921"><ele>289.0</ele><time>2026-05-03T12:50:52.569Z</time></trkpt><trkpt lat="43.3828245" lon="10.6640193"><ele>288.3333333333333</ele><time>2026-05-03T12:50:53.57Z</time></trkpt><trkpt lat="43.3826906" lon="10.6642416"><ele>287.6666666666667</ele><time>2026-05-03T12:50:54.57Z</time></trkpt><trkpt lat="43.3825742" lon="10.6644356"><ele>287.0</ele><time>2026-05-03T12:50:55.57Z</time></trkpt><trkpt lat="43.3824778" lon="10.664632"><ele>285.5</ele><time>2026-05-03T12:50:56.568Z</time></trkpt><trkpt lat="43.3823956" lon="10.6648086"><ele>284.0</ele><time>2026-05-03T12:50:57.568Z</time></trkpt><trkpt lat="43.3823091" lon="10.6649764"><ele>282.5</ele><time>2026-05-03T12:50:58.569Z</time></trkpt><trkpt lat="43.3822053" lon="10.6650822"><ele>281.0</ele><time>2026-05-03T12:50:59.57Z</time></trkpt><trkpt lat="43.3820785" lon="10.6651728"><ele>281.0</ele><time>2026-05-03T12:51:00.57Z</time></trkpt><trkpt lat="43.3819429" lon="10.6652472"><ele>281.0</ele><time>2026-05-03T12:51:01.57Z</time></trkpt><trkpt lat="43.3817924" lon="10.6652919"><ele>281.0</ele><time>2026-05-03T12:51:02.57Z</time></trkpt><trkpt lat="43.3816169" lon="10.6652977"><ele>278.33333333333337</ele><time>2026-05-03T12:51:03.568Z</time></trkpt><trkpt lat="43.3814392" lon="10.6653003"><ele>275.6666666666667</ele><time>2026-05-03T12:51:04.569Z</time></trkpt><trkpt lat="43.3812874" lon="10.6653405"><ele>273.0</ele><time>2026-05-03T12:51:05.57Z</time></trkpt><trkpt lat="43.3811445" lon="10.6654106"><ele>272.3333333333333</ele><time>2026-05-03T12:51:06.57Z</time></trkpt><trkpt lat="43.38101" lon="10.6655106"><ele>271.66666666666663</ele><time>2026-05-03T12:51:07.569Z</time></trkpt><trkpt lat="43.3808662" lon="10.6656582"><ele>271.0</ele><time>2026-05-03T12:51:08.569Z</time></trkpt><trkpt lat="43.3807289" lon="10.6658325"><ele>271.0</ele><time>2026-05-03T12:51:09.57Z</time></trkpt><trkpt lat="43.3805957" lon="10.666008"><ele>271.0</ele><time>2026-05-03T12:51:10.57Z</time></trkpt><trkpt lat="43.3804755" lon="10.6661628"><ele>271.0</ele><time>2026-05-03T12:51:11.57Z</time></trkpt><trkpt lat="43.3803542" lon="10.6662935"><ele>269.0</ele><time>2026-05-03T12:51:12.569Z</time></trkpt><trkpt lat="43.380227" lon="10.6663816"><ele>267.0</ele><time>2026-05-03T12:51:13.57Z</time></trkpt><trkpt lat="43.3800979" lon="10.6664425"><ele>265.0</ele><time>2026-05-03T12:51:14.57Z</time></trkpt><trkpt lat="43.3799621" lon="10.6664563"><ele>263.0</ele><time>2026-05-03T12:51:15.57Z</time></trkpt><trkpt lat="43.3798108" lon="10.6664141"><ele>264.0</ele><time>2026-05-03T12:51:16.569Z</time></trkpt><trkpt lat="43.3796578" lon="10.6663562"><ele>265.0</ele><time>2026-05-03T12:51:17.569Z</time></trkpt><trkpt lat="43.3794776" lon="10.6662549"><ele>266.0</ele><time>2026-05-03T12:51:18.569Z</time></trkpt><trkpt lat="43.3793195" lon="10.6661555"><ele>264.0</ele><time>2026-05-03T12:51:19.568Z</time></trkpt><trkpt lat="43.3791601" lon="10.6660956"><ele>262.0</ele><time>2026-05-03T12:51:20.569Z</time></trkpt><trkpt lat="43.3790008" lon="10.6660589"><ele>260.0</ele><time>2026-05-03T12:51:21.57Z</time></trkpt><trkpt lat="43.3788409" lon="10.6660407"><ele>260.0</ele><time>2026-05-03T12:51:22.568Z</time></trkpt><trkpt lat="43.3786707" lon="10.6660634"><ele>260.0</ele><time>2026-05-03T12:51:23.569Z</time></trkpt><trkpt lat="43.3785154" lon="10.666056"><ele>260.0</ele><time>2026-05-03T12:51:24.569Z</time></trkpt><trkpt lat="43.3783723" lon="10.6660489"><ele>260.0</ele><time>2026-05-03T12:51:25.57Z</time></trkpt><trkpt lat="43.3782495" lon="10.6660695"><ele>260.0</ele><time>2026-05-03T12:51:26.571Z</time></trkpt><trkpt lat="43.3781252" lon="10.6661326"><ele>260.0</ele><time>2026-05-03T12:51:27.57Z</time></trkpt><trkpt lat="43.3779983" lon="10.6662372"><ele>260.0</ele><time>2026-05-03T12:51:28.57Z</time></trkpt><trkpt lat="43.3778655" lon="10.6663261"><ele>263.33333333333337</ele><time>2026-05-03T12:51:29.571Z</time></trkpt><trkpt lat="43.37774" lon="10.6663743"><ele>266.6666666666667</ele><time>2026-05-03T12:51:30.569Z</time></trkpt><trkpt lat="43.3775951" lon="10.666401"><ele>270.0</ele><time>2026-05-03T12:51:31.568Z</time></trkpt><trkpt lat="43.3774186" lon="10.666411"><ele>270.0</ele><time>2026-05-03T12:51:32.569Z</time></trkpt><trkpt lat="43.3772353" lon="10.66641"><ele>270.0</ele><time>2026-05-03T12:51:33.569Z</time></trkpt><trkpt lat="43.3770524" lon="10.666419"><ele>270.0</ele><time>2026-05-03T12:51:34.569Z</time></trkpt><trkpt lat="43.3768882" lon="10.6664491"><ele>269.0</ele><time>2026-05-03T12:51:35.569Z</time></trkpt><trkpt lat="43.3767316" lon="10.6665072"><ele>268.0</ele><time>2026-05-03T12:51:36.57Z</time></trkpt><trkpt lat="43.3765866" lon="10.666555"><ele>267.0</ele><time>2026-05-03T12:51:37.569Z</time></trkpt><trkpt lat="43.3764529" lon="10.6666335"><ele>266.0</ele><time>2026-05-03T12:51:38.568Z</time></trkpt><trkpt lat="43.3763279" lon="10.6667132"><ele>265.0</ele><time>2026-05-03T12:51:39.571Z</time></trkpt><trkpt lat="43.3761887" lon="10.6667649"><ele>264.0</ele><time>2026-05-03T12:51:40.57Z</time></trkpt><trkpt lat="43.3760469" lon="10.6667863"><ele>263.0</ele><time>2026-05-03T12:51:41.569Z</time></trkpt><trkpt lat="43.3759021" lon="10.6667644"><ele>263.0</ele><time>2026-05-03T12:51:42.568Z</time></trkpt><trkpt lat="43.3757682" lon="10.6667444"><ele>263.0</ele><time>2026-05-03T12:51:43.569Z</time></trkpt><trkpt lat="43.3756651" lon="10.6666935"><ele>263.0</ele><time>2026-05-03T12:51:44.57Z</time></trkpt><trkpt lat="43.3755688" lon="10.6666055"><ele>263.0</ele><time>2026-05-03T12:51:45.569Z</time></trkpt><trkpt lat="43.375513" lon="10.6664751"><ele>262.25</ele><time>2026-05-03T12:51:46.569Z</time></trkpt><trkpt lat="43.3754927" lon="10.6663114"><ele>261.5</ele><time>2026-05-03T12:51:47.568Z</time></trkpt><trkpt lat="43.3754788" lon="10.6661094"><ele>260.75</ele><time>2026-05-03T12:51:48.571Z</time></trkpt><trkpt lat="43.3754625" lon="10.6659052"><ele>260.0</ele><time>2026-05-03T12:51:49.569Z</time></trkpt><trkpt lat="43.3754295" lon="10.6657158"><ele>258.8</ele><time>2026-05-03T12:51:50.57Z</time></trkpt><trkpt lat="43.3753854" lon="10.6655719"><ele>257.6</ele><time>2026-05-03T12:51:51.57Z</time></trkpt><trkpt lat="43.3753276" lon="10.6654601"><ele>256.4</ele><time>2026-05-03T12:51:52.569Z</time></trkpt><trkpt lat="43.37525" lon="10.6653877"><ele>255.2</ele><time>2026-05-03T12:51:53.569Z</time></trkpt><trkpt lat="43.3751729" lon="10.6653706"><ele>254.0</ele><time>2026-05-03T12:51:54.57Z</time></trkpt><trkpt lat="43.3750852" lon="10.6653969"><ele>254.0</ele><time>2026-05-03T12:51:55.568Z</time></trkpt><trkpt lat="43.3749909" lon="10.6654758"><ele>254.0</ele><time>2026-05-03T12:51:56.568Z</time></trkpt><trkpt lat="43.3749091" lon="10.6655973"><ele>254.0</ele><time>2026-05-03T12:51:57.569Z</time></trkpt><trkpt lat="43.374855" lon="10.665738"><ele>254.0</ele><time>2026-05-03T12:51:58.57Z</time></trkpt><trkpt lat="43.3748368" lon="10.6658991"><ele>254.0</ele><time>2026-05-03T12:51:59.57Z</time></trkpt><trkpt lat="43.3748391" lon="10.6660694"><ele>254.0</ele><time>2026-05-03T12:52:00.569Z</time></trkpt><trkpt lat="43.3748258" lon="10.6662272"><ele>254.0</ele><time>2026-05-03T12:52:01.569Z</time></trkpt><trkpt lat="43.3747787" lon="10.6663735"><ele>254.0</ele><time>2026-05-03T12:52:02.569Z</time></trkpt><trkpt lat="43.3747063" lon="10.6664909"><ele>252.25</ele><time>2026-05-03T12:52:03.569Z</time></trkpt><trkpt lat="43.3746049" lon="10.6665897"><ele>250.5</ele><time>2026-05-03T12:52:04.568Z</time></trkpt><trkpt lat="43.3744854" lon="10.6666661"><ele>248.75</ele><time>2026-05-03T12:52:05.57Z</time></trkpt><trkpt lat="43.3743381" lon="10.6666909"><ele>247.0</ele><time>2026-05-03T12:52:06.57Z</time></trkpt><trkpt lat="43.374196" lon="10.6667215"><ele>247.0</ele><time>2026-05-03T12:52:07.569Z</time></trkpt><trkpt lat="43.3740617" lon="10.6667737"><ele>247.0</ele><time>2026-05-03T12:52:08.571Z</time></trkpt><trkpt lat="43.3739331" lon="10.6668318"><ele>247.0</ele><time>2026-05-03T12:52:09.569Z</time></trkpt><trkpt lat="43.373811" lon="10.6669223"><ele>247.0</ele><time>2026-05-03T12:52:10.57Z</time></trkpt><trkpt lat="43.3736781" lon="10.6670346"><ele>245.5</ele><time>2026-05-03T12:52:11.569Z</time></trkpt><trkpt lat="43.3735733" lon="10.6671585"><ele>244.0</ele><time>2026-05-03T12:52:12.57Z</time></trkpt><trkpt lat="43.373485" lon="10.6673149"><ele>242.5</ele><time>2026-05-03T12:52:13.57Z</time></trkpt><trkpt lat="43.3734163" lon="10.6674765"><ele>241.0</ele><time>2026-05-03T12:52:14.57Z</time></trkpt><trkpt lat="43.3733581" lon="10.6676541"><ele>243.75</ele><time>2026-05-03T12:52:15.57Z</time></trkpt><trkpt lat="43.3733059" lon="10.6678215"><ele>246.5</ele><time>2026-05-03T12:52:16.569Z</time></trkpt><trkpt lat="43.3732448" lon="10.6679774"><ele>249.25</ele><time>2026-05-03T12:52:17.569Z</time></trkpt><trkpt lat="43.3731424" lon="10.6681131"><ele>252.0</ele><time>2026-05-03T12:52:18.57Z</time></trkpt><trkpt lat="43.3730382" lon="10.6682525"><ele>248.33333333333331</ele><time>2026-05-03T12:52:19.571Z</time></trkpt><trkpt lat="43.3728706" lon="10.6682874"><ele>244.66666666666666</ele><time>2026-05-03T12:52:20.57Z</time></trkpt><trkpt lat="43.3727208" lon="10.6683296"><ele>241.0</ele><time>2026-05-03T12:52:21.569Z</time></trkpt><trkpt lat="43.3725631" lon="10.6683314"><ele>241.0</ele><time>2026-05-03T12:52:22.571Z</time></trkpt><trkpt lat="43.3724047" lon="10.668329"><ele>241.0</ele><time>2026-05-03T12:52:23.569Z</time></trkpt><trkpt lat="43.3723069" lon="10.6682468"><ele>241.0</ele><time>2026-05-03T12:52:24.57Z</time></trkpt><trkpt lat="43.3721798" lon="10.6681753"><ele>241.0</ele><time>2026-05-03T12:52:25.572Z</time></trkpt><trkpt lat="43.3720415" lon="10.6681356"><ele>239.0</ele><time>2026-05-03T12:52:26.57Z</time></trkpt><trkpt lat="43.3718892" lon="10.6681254"><ele>237.0</ele><time>2026-05-03T12:52:27.57Z</time></trkpt><trkpt lat="43.3717271" lon="10.6681255"><ele>235.0</ele><time>2026-05-03T12:52:28.57Z</time></trkpt><trkpt lat="43.3715692" lon="10.6681446"><ele>235.0</ele><time>2026-05-03T12:52:29.57Z</time></trkpt><trkpt lat="43.3714324" lon="10.6681691"><ele>235.0</ele><time>2026-05-03T12:52:30.57Z</time></trkpt><trkpt lat="43.3713005" lon="10.668218"><ele>235.0</ele><time>2026-05-03T12:52:31.57Z</time></trkpt><trkpt lat="43.3711693" lon="10.6683012"><ele>235.0</ele><time>2026-05-03T12:52:32.57Z</time></trkpt><trkpt lat="43.3710381" lon="10.6684033"><ele>235.33333333333331</ele><time>2026-05-03T12:52:33.569Z</time></trkpt><trkpt lat="43.3709042" lon="10.6685047"><ele>235.66666666666669</ele><time>2026-05-03T12:52:34.569Z</time></trkpt><trkpt lat="43.3707737" lon="10.6686187"><ele>236.0</ele><time>2026-05-03T12:52:35.57Z</time></trkpt><trkpt lat="43.3706554" lon="10.6687365"><ele>236.0</ele><time>2026-05-03T12:52:36.569Z</time></trkpt><trkpt lat="43.3705541" lon="10.668858"><ele>236.0</ele><time>2026-05-03T12:52:37.57Z</time></trkpt><trkpt lat="43.3704673" lon="10.6689898"><ele>236.0</ele><time>2026-05-03T12:52:38.57Z</time></trkpt><trkpt lat="43.3703959" lon="10.6691252"><ele>236.0</ele><time>2026-05-03T12:52:39.57Z</time></trkpt><trkpt lat="43.3703255" lon="10.6692614"><ele>233.8</ele><time>2026-05-03T12:52:40.569Z</time></trkpt><trkpt lat="43.3702402" lon="10.6693648"><ele>231.60000000000002</ele><time>2026-05-03T12:52:41.57Z</time></trkpt><trkpt lat="43.3701445" lon="10.6694278"><ele>229.4</ele><time>2026-05-03T12:52:42.569Z</time></trkpt><trkpt lat="43.3700368" lon="10.6694462"><ele>227.2</ele><time>2026-05-03T12:52:43.57Z</time></trkpt><trkpt lat="43.3699255" lon="10.6694191"><ele>225.0</ele><time>2026-05-03T12:52:44.57Z</time></trkpt><trkpt lat="43.3698124" lon="10.6693507"><ele>221.5</ele><time>2026-05-03T12:52:45.57Z</time></trkpt><trkpt lat="43.3696855" lon="10.6692684"><ele>218.0</ele><time>2026-05-03T12:52:46.57Z</time></trkpt><trkpt lat="43.3695507" lon="10.6692127"><ele>214.5</ele><time>2026-05-03T12:52:47.57Z</time></trkpt><trkpt lat="43.369414" lon="10.6691831"><ele>211.0</ele><time>2026-05-03T12:52:48.57Z</time></trkpt><trkpt lat="43.3692786" lon="10.6691882"><ele>211.0</ele><time>2026-05-03T12:52:49.57Z</time></trkpt><trkpt lat="43.369143" lon="10.6692293"><ele>211.0</ele><time>2026-05-03T12:52:50.569Z</time></trkpt><trkpt lat="43.3690166" lon="10.6692995"><ele>211.0</ele><time>2026-05-03T12:52:51.569Z</time></trkpt><trkpt lat="43.3688984" lon="10.6694202"><ele>211.0</ele><time>2026-05-03T12:52:52.57Z</time></trkpt><trkpt lat="43.3687743" lon="10.6695313"><ele>212.0</ele><time>2026-05-03T12:52:53.57Z</time></trkpt><trkpt lat="43.3686407" lon="10.6696306"><ele>213.0</ele><time>2026-05-03T12:52:54.57Z</time></trkpt><trkpt lat="43.3685048" lon="10.6697281"><ele>214.0</ele><time>2026-05-03T12:52:55.57Z</time></trkpt><trkpt lat="43.3683808" lon="10.6697684"><ele>215.0</ele><time>2026-05-03T12:52:56.57Z</time></trkpt><trkpt lat="43.3682561" lon="10.6698017"><ele>215.0</ele><time>2026-05-03T12:52:57.569Z</time></trkpt><trkpt lat="43.3681217" lon="10.6698244"><ele>215.0</ele><time>2026-05-03T12:52:58.569Z</time></trkpt><trkpt lat="43.3680052" lon="10.6697995"><ele>215.0</ele><time>2026-05-03T12:52:59.57Z</time></trkpt><trkpt lat="43.3679033" lon="10.6697412"><ele>215.0</ele><time>2026-05-03T12:53:00.569Z</time></trkpt><trkpt lat="43.3678086" lon="10.6696523"><ele>214.0</ele><time>2026-05-03T12:53:01.569Z</time></trkpt><trkpt lat="43.3677165" lon="10.6695301"><ele>213.0</ele><time>2026-05-03T12:53:02.571Z</time></trkpt><trkpt lat="43.367622" lon="10.669399"><ele>212.0</ele><time>2026-05-03T12:53:03.569Z</time></trkpt><trkpt lat="43.3675225" lon="10.6692554"><ele>211.0</ele><time>2026-05-03T12:53:04.57Z</time></trkpt><trkpt lat="43.3674118" lon="10.6691129"><ele>210.0</ele><time>2026-05-03T12:53:05.569Z</time></trkpt><trkpt lat="43.367292" lon="10.6689595"><ele>209.0</ele><time>2026-05-03T12:53:06.569Z</time></trkpt><trkpt lat="43.3671772" lon="10.668815"><ele>208.0</ele><time>2026-05-03T12:53:07.569Z</time></trkpt><trkpt lat="43.3670701" lon="10.6686694"><ele>204.75</ele><time>2026-05-03T12:53:08.57Z</time></trkpt><trkpt lat="43.366963" lon="10.6685425"><ele>201.5</ele><time>2026-05-03T12:53:09.569Z</time></trkpt><trkpt lat="43.3668494" lon="10.6684402"><ele>198.25</ele><time>2026-05-03T12:53:10.57Z</time></trkpt><trkpt lat="43.3667275" lon="10.6683783"><ele>195.0</ele><time>2026-05-03T12:53:11.569Z</time></trkpt><trkpt lat="43.366605" lon="10.6683496"><ele>195.0</ele><time>2026-05-03T12:53:12.569Z</time></trkpt><trkpt lat="43.3664789" lon="10.6683623"><ele>195.0</ele><time>2026-05-03T12:53:13.57Z</time></trkpt><trkpt lat="43.3663584" lon="10.6684216"><ele>195.0</ele><time>2026-05-03T12:53:14.568Z</time></trkpt><trkpt lat="43.3662464" lon="10.6684937"><ele>195.0</ele><time>2026-05-03T12:53:15.569Z</time></trkpt><trkpt lat="43.366125" lon="10.6685514"><ele>195.75</ele><time>2026-05-03T12:53:16.568Z</time></trkpt><trkpt lat="43.3660026" lon="10.6685593"><ele>196.5</ele><time>2026-05-03T12:53:17.569Z</time></trkpt><trkpt lat="43.3658747" lon="10.6685218"><ele>197.25</ele><time>2026-05-03T12:53:18.569Z</time></trkpt><trkpt lat="43.3657581" lon="10.6684441"><ele>198.0</ele><time>2026-05-03T12:53:19.569Z</time></trkpt><trkpt lat="43.3656536" lon="10.6683448"><ele>198.0</ele><time>2026-05-03T12:53:20.568Z</time></trkpt><trkpt lat="43.3655753" lon="10.6682082"><ele>198.0</ele><time>2026-05-03T12:53:21.57Z</time></trkpt><trkpt lat="43.3655353" lon="10.6680352"><ele>198.0</ele><time>2026-05-03T12:53:22.569Z</time></trkpt><trkpt lat="43.3655089" lon="10.6678526"><ele>198.0</ele><time>2026-05-03T12:53:23.569Z</time></trkpt><trkpt lat="43.3654699" lon="10.6676791"><ele>197.25</ele><time>2026-05-03T12:53:24.568Z</time></trkpt><trkpt lat="43.3654193" lon="10.6674965"><ele>196.5</ele><time>2026-05-03T12:53:25.571Z</time></trkpt><trkpt lat="43.3653107" lon="10.6673722"><ele>195.75</ele><time>2026-05-03T12:53:26.57Z</time></trkpt><trkpt lat="43.3652078" lon="10.667269"><ele>195.0</ele><time>2026-05-03T12:53:27.57Z</time></trkpt><trkpt lat="43.3651159" lon="10.6671604"><ele>195.0</ele><time>2026-05-03T12:53:28.569Z</time></trkpt><trkpt lat="43.365017" lon="10.6671045"><ele>195.0</ele><time>2026-05-03T12:53:29.568Z</time></trkpt><trkpt lat="43.3649197" lon="10.6670908"><ele>195.0</ele><time>2026-05-03T12:53:30.569Z</time></trkpt><trkpt lat="43.3648272" lon="10.6671345"><ele>195.0</ele><time>2026-05-03T12:53:31.57Z</time></trkpt><trkpt lat="43.3647341" lon="10.667207"><ele>195.0</ele><time>2026-05-03T12:53:32.57Z</time></trkpt><trkpt lat="43.3646319" lon="10.6673444"><ele>192.5</ele><time>2026-05-03T12:53:33.57Z</time></trkpt><trkpt lat="43.3645375" lon="10.6674365"><ele>190.0</ele><time>2026-05-03T12:53:34.569Z</time></trkpt><trkpt lat="43.3644192" lon="10.6674951"><ele>187.5</ele><time>2026-05-03T12:53:35.57Z</time></trkpt><trkpt lat="43.364284" lon="10.6675285"><ele>185.0</ele><time>2026-05-03T12:53:36.568Z</time></trkpt><trkpt lat="43.3641343" lon="10.6674794"><ele>185.0</ele><time>2026-05-03T12:53:37.569Z</time></trkpt><trkpt lat="43.3639784" lon="10.6674242"><ele>185.0</ele><time>2026-05-03T12:53:38.569Z</time></trkpt><trkpt lat="43.3638435" lon="10.6673779"><ele>185.0</ele><time>2026-05-03T12:53:39.57Z</time></trkpt><trkpt lat="43.3637434" lon="10.6673408"><ele>185.0</ele><time>2026-05-03T12:53:40.568Z</time></trkpt><trkpt lat="43.3636399" lon="10.667311"><ele>184.16666666666666</ele><time>2026-05-03T12:53:41.57Z</time></trkpt><trkpt lat="43.3635651" lon="10.6673622"><ele>183.33333333333331</ele><time>2026-05-03T12:53:42.569Z</time></trkpt><trkpt lat="43.3635087" lon="10.6674387"><ele>182.5</ele><time>2026-05-03T12:53:43.57Z</time></trkpt><trkpt lat="43.3634838" lon="10.6675555"><ele>181.66666666666666</ele><time>2026-05-03T12:53:44.57Z</time></trkpt><trkpt lat="43.3634898" lon="10.6676817"><ele>180.83333333333334</ele><time>2026-05-03T12:53:45.568Z</time></trkpt><trkpt lat="43.3634689" lon="10.667816"><ele>180.0</ele><time>2026-05-03T12:53:46.568Z</time></trkpt><trkpt lat="43.363407" lon="10.6679383"><ele>180.0</ele><time>2026-05-03T12:53:47.57Z</time></trkpt><trkpt lat="43.3633169" lon="10.6680256"><ele>180.0</ele><time>2026-05-03T12:53:48.569Z</time></trkpt><trkpt lat="43.3632014" lon="10.6680891"><ele>180.0</ele><time>2026-05-03T12:53:49.569Z</time></trkpt><trkpt lat="43.3630715" lon="10.6681321"><ele>180.0</ele><time>2026-05-03T12:53:50.57Z</time></trkpt><trkpt lat="43.3629487" lon="10.6682077"><ele>177.5</ele><time>2026-05-03T12:53:51.569Z</time></trkpt><trkpt lat="43.3628433" lon="10.6682963"><ele>175.0</ele><time>2026-05-03T12:53:52.57Z</time></trkpt><trkpt lat="43.3627495" lon="10.6683719"><ele>172.5</ele><time>2026-05-03T12:53:53.571Z</time></trkpt><trkpt lat="43.3626519" lon="10.6684405"><ele>170.0</ele><time>2026-05-03T12:53:54.569Z</time></trkpt><trkpt lat="43.3625519" lon="10.6684958"><ele>170.0</ele><time>2026-05-03T12:53:55.569Z</time></trkpt><trkpt lat="43.3624526" lon="10.6684583"><ele>170.0</ele><time>2026-05-03T12:53:56.569Z</time></trkpt><trkpt lat="43.362249" lon="10.6682836"><ele>170.0</ele><time>2026-05-03T12:53:58.568Z</time></trkpt><trkpt lat="43.3621752" lon="10.6681582"><ele>167.8</ele><time>2026-05-03T12:53:59.569Z</time></trkpt><trkpt lat="43.3620958" lon="10.6680659"><ele>165.6</ele><time>2026-05-03T12:54:00.57Z</time></trkpt><trkpt lat="43.3620025" lon="10.6680108"><ele>163.4</ele><time>2026-05-03T12:54:01.57Z</time></trkpt><trkpt lat="43.3619209" lon="10.6679733"><ele>161.2</ele><time>2026-05-03T12:54:02.57Z</time></trkpt><trkpt lat="43.361847" lon="10.6680371"><ele>159.0</ele><time>2026-05-03T12:54:03.571Z</time></trkpt><trkpt lat="43.3617587" lon="10.6681434"><ele>159.0</ele><time>2026-05-03T12:54:04.569Z</time></trkpt><trkpt lat="43.3616775" lon="10.6682652"><ele>159.0</ele><time>2026-05-03T12:54:05.57Z</time></trkpt><trkpt lat="43.3615942" lon="10.6684048"><ele>159.0</ele><time>2026-05-03T12:54:06.569Z</time></trkpt><trkpt lat="43.3615248" lon="10.6685529"><ele>159.0</ele><time>2026-05-03T12:54:07.57Z</time></trkpt><trkpt lat="43.3614788" lon="10.6687329"><ele>160.5</ele><time>2026-05-03T12:54:08.568Z</time></trkpt><trkpt lat="43.361444" lon="10.6689156"><ele>162.0</ele><time>2026-05-03T12:54:09.569Z</time></trkpt><trkpt lat="43.3613945" lon="10.6690957"><ele>163.5</ele><time>2026-05-03T12:54:10.57Z</time></trkpt><trkpt lat="43.3613252" lon="10.6692763"><ele>165.0</ele><time>2026-05-03T12:54:11.571Z</time></trkpt><trkpt lat="43.3612366" lon="10.6694277"><ele>161.75</ele><time>2026-05-03T12:54:12.569Z</time></trkpt><trkpt lat="43.361139" lon="10.6695632"><ele>158.5</ele><time>2026-05-03T12:54:13.57Z</time></trkpt><trkpt lat="43.3610503" lon="10.6697054"><ele>155.25</ele><time>2026-05-03T12:54:14.569Z</time></trkpt><trkpt lat="43.3609769" lon="10.6698665"><ele>152.0</ele><time>2026-05-03T12:54:15.57Z</time></trkpt><trkpt lat="43.3609248" lon="10.6700537"><ele>152.0</ele><time>2026-05-03T12:54:16.57Z</time></trkpt><trkpt lat="43.3608704" lon="10.6702529"><ele>152.0</ele><time>2026-05-03T12:54:17.569Z</time></trkpt><trkpt lat="43.360795" lon="10.670459"><ele>152.0</ele><time>2026-05-03T12:54:18.57Z</time></trkpt><trkpt lat="43.3606883" lon="10.6706873"><ele>153.0</ele><time>2026-05-03T12:54:19.57Z</time></trkpt><trkpt lat="43.3606028" lon="10.6709066"><ele>154.0</ele><time>2026-05-03T12:54:20.569Z</time></trkpt><trkpt lat="43.3605295" lon="10.6711256"><ele>155.0</ele><time>2026-05-03T12:54:21.569Z</time></trkpt><trkpt lat="43.360455" lon="10.6713531"><ele>150.66666666666666</ele><time>2026-05-03T12:54:22.569Z</time></trkpt><trkpt lat="43.3603929" lon="10.6715829"><ele>146.33333333333334</ele><time>2026-05-03T12:54:23.569Z</time></trkpt><trkpt lat="43.3603382" lon="10.6718062"><ele>142.0</ele><time>2026-05-03T12:54:24.57Z</time></trkpt><trkpt lat="43.3602883" lon="10.6720209"><ele>142.0</ele><time>2026-05-03T12:54:25.57Z</time></trkpt><trkpt lat="43.3602428" lon="10.6722225"><ele>142.0</ele><time>2026-05-03T12:54:26.569Z</time></trkpt><trkpt lat="43.3602085" lon="10.6723974"><ele>142.0</ele><time>2026-05-03T12:54:27.57Z</time></trkpt><trkpt lat="43.3601747" lon="10.672536"><ele>142.0</ele><time>2026-05-03T12:54:28.57Z</time></trkpt><trkpt lat="43.360123" lon="10.6726534"><ele>142.0</ele><time>2026-05-03T12:54:29.569Z</time></trkpt><trkpt lat="43.3600433" lon="10.6727401"><ele>142.0</ele><time>2026-05-03T12:54:30.569Z</time></trkpt><trkpt lat="43.3599557" lon="10.6727801"><ele>142.0</ele><time>2026-05-03T12:54:31.57Z</time></trkpt><trkpt lat="43.3598554" lon="10.6727662"><ele>142.0</ele><time>2026-05-03T12:54:32.569Z</time></trkpt><trkpt lat="43.3597673" lon="10.6727019"><ele>142.0</ele><time>2026-05-03T12:54:33.57Z</time></trkpt><trkpt lat="43.3596835" lon="10.672609"><ele>139.75</ele><time>2026-05-03T12:54:34.569Z</time></trkpt><trkpt lat="43.3596122" lon="10.672472"><ele>137.5</ele><time>2026-05-03T12:54:35.57Z</time></trkpt><trkpt lat="43.3595574" lon="10.6723435"><ele>135.25</ele><time>2026-05-03T12:54:36.569Z</time></trkpt><trkpt lat="43.3595554" lon="10.6721707"><ele>133.0</ele><time>2026-05-03T12:54:37.569Z</time></trkpt><trkpt lat="43.35957" lon="10.6720073"><ele>132.25</ele><time>2026-05-03T12:54:38.568Z</time></trkpt><trkpt lat="43.359591" lon="10.6718274"><ele>131.5</ele><time>2026-05-03T12:54:39.569Z</time></trkpt><trkpt lat="43.3595722" lon="10.6716276"><ele>130.75</ele><time>2026-05-03T12:54:40.568Z</time></trkpt><trkpt lat="43.3595718" lon="10.6714375"><ele>130.0</ele><time>2026-05-03T12:54:41.57Z</time></trkpt><trkpt lat="43.3595592" lon="10.6712569"><ele>129.25</ele><time>2026-05-03T12:54:42.569Z</time></trkpt><trkpt lat="43.3595596" lon="10.6710696"><ele>128.5</ele><time>2026-05-03T12:54:43.568Z</time></trkpt><trkpt lat="43.3595956" lon="10.6708949"><ele>127.75</ele><time>2026-05-03T12:54:44.57Z</time></trkpt><trkpt lat="43.3596546" lon="10.670739"><ele>127.0</ele><time>2026-05-03T12:54:45.569Z</time></trkpt><trkpt lat="43.3597166" lon="10.6705884"><ele>128.6</ele><time>2026-05-03T12:54:46.569Z</time></trkpt><trkpt lat="43.3597767" lon="10.670459"><ele>130.2</ele><time>2026-05-03T12:54:47.57Z</time></trkpt><trkpt lat="43.3598282" lon="10.6703242"><ele>131.8</ele><time>2026-05-03T12:54:48.57Z</time></trkpt><trkpt lat="43.3598653" lon="10.6701868"><ele>133.4</ele><time>2026-05-03T12:54:49.568Z</time></trkpt><trkpt lat="43.3598824" lon="10.6700534"><ele>135.0</ele><time>2026-05-03T12:54:50.57Z</time></trkpt><trkpt lat="43.3598708" lon="10.6699245"><ele>135.0</ele><time>2026-05-03T12:54:51.57Z</time></trkpt><trkpt lat="43.3598253" lon="10.66982"><ele>135.0</ele><time>2026-05-03T12:54:52.57Z</time></trkpt><trkpt lat="43.3597388" lon="10.669722"><ele>135.0</ele><time>2026-05-03T12:54:53.569Z</time></trkpt><trkpt lat="43.3596486" lon="10.6696173"><ele>135.0</ele><time>2026-05-03T12:54:54.569Z</time></trkpt><trkpt lat="43.359552" lon="10.6695066"><ele>135.0</ele><time>2026-05-03T12:54:55.569Z</time></trkpt><trkpt lat="43.3594805" lon="10.6693775"><ele>132.0</ele><time>2026-05-03T12:54:56.57Z</time></trkpt><trkpt lat="43.3594334" lon="10.6692323"><ele>129.0</ele><time>2026-05-03T12:54:57.569Z</time></trkpt><trkpt lat="43.3593939" lon="10.6690752"><ele>126.0</ele><time>2026-05-03T12:54:58.568Z</time></trkpt><trkpt lat="43.3593666" lon="10.6689286"><ele>123.0</ele><time>2026-05-03T12:54:59.568Z</time></trkpt><trkpt lat="43.3593163" lon="10.668799"><ele>123.0</ele><time>2026-05-03T12:55:00.569Z</time></trkpt><trkpt lat="43.3592357" lon="10.6687032"><ele>123.0</ele><time>2026-05-03T12:55:01.569Z</time></trkpt><trkpt lat="43.3591264" lon="10.6686383"><ele>123.0</ele><time>2026-05-03T12:55:02.569Z</time></trkpt><trkpt lat="43.3589971" lon="10.6686096"><ele>123.0</ele><time>2026-05-03T12:55:03.57Z</time></trkpt><trkpt lat="43.3588392" lon="10.6685881"><ele>120.33333333333334</ele><time>2026-05-03T12:55:04.569Z</time></trkpt><trkpt lat="43.3586617" lon="10.6685646"><ele>117.66666666666667</ele><time>2026-05-03T12:55:05.568Z</time></trkpt><trkpt lat="43.3584565" lon="10.6685107"><ele>115.0</ele><time>2026-05-03T12:55:06.569Z</time></trkpt><trkpt lat="43.3582416" lon="10.6684682"><ele>115.0</ele><time>2026-05-03T12:55:07.569Z</time></trkpt><trkpt lat="43.3580166" lon="10.6684252"><ele>115.0</ele><time>2026-05-03T12:55:08.569Z</time></trkpt><trkpt lat="43.3578098" lon="10.6683803"><ele>115.0</ele><time>2026-05-03T12:55:09.569Z</time></trkpt><trkpt lat="43.3576118" lon="10.6683179"><ele>115.0</ele><time>2026-05-03T12:55:10.569Z</time></trkpt><trkpt lat="43.3574183" lon="10.6682463"><ele>115.0</ele><time>2026-05-03T12:55:11.568Z</time></trkpt><trkpt lat="43.3572309" lon="10.6681586"><ele>115.0</ele><time>2026-05-03T12:55:12.571Z</time></trkpt><trkpt lat="43.3570425" lon="10.6680776"><ele>116.66666666666667</ele><time>2026-05-03T12:55:13.569Z</time></trkpt><trkpt lat="43.3568573" lon="10.667991"><ele>118.33333333333334</ele><time>2026-05-03T12:55:14.569Z</time></trkpt><trkpt lat="43.3566732" lon="10.6679029"><ele>120.0</ele><time>2026-05-03T12:55:15.571Z</time></trkpt><trkpt lat="43.3564917" lon="10.6678126"><ele>119.66666666666666</ele><time>2026-05-03T12:55:16.569Z</time></trkpt><trkpt lat="43.3563113" lon="10.6677348"><ele>119.33333333333333</ele><time>2026-05-03T12:55:17.569Z</time></trkpt><trkpt lat="43.3561265" lon="10.6676705"><ele>119.0</ele><time>2026-05-03T12:55:18.569Z</time></trkpt><trkpt lat="43.3559422" lon="10.6676199"><ele>119.0</ele><time>2026-05-03T12:55:19.569Z</time></trkpt><trkpt lat="43.355759" lon="10.6675889"><ele>119.0</ele><time>2026-05-03T12:55:20.569Z</time></trkpt><trkpt lat="43.3555773" lon="10.6675738"><ele>119.0</ele><time>2026-05-03T12:55:21.57Z</time></trkpt><trkpt lat="43.3554048" lon="10.6675508"><ele>121.0</ele><time>2026-05-03T12:55:22.57Z</time></trkpt><trkpt lat="43.3552454" lon="10.6675399"><ele>123.0</ele><time>2026-05-03T12:55:23.568Z</time></trkpt><trkpt lat="43.3549698" lon="10.667543"><ele>125.0</ele><time>2026-05-03T12:55:25.568Z</time></trkpt><trkpt lat="43.3548585" lon="10.6675758"><ele>125.0</ele><time>2026-05-03T12:55:26.569Z</time></trkpt><trkpt lat="43.3547553" lon="10.6676487"><ele>125.0</ele><time>2026-05-03T12:55:27.569Z</time></trkpt><trkpt lat="43.3546573" lon="10.6677645"><ele>125.0</ele><time>2026-05-03T12:55:28.571Z</time></trkpt><trkpt lat="43.3545658" lon="10.667917"><ele>125.0</ele><time>2026-05-03T12:55:29.57Z</time></trkpt><trkpt lat="43.3544774" lon="10.6680659"><ele>126.0</ele><time>2026-05-03T12:55:30.568Z</time></trkpt><trkpt lat="43.3543977" lon="10.6681507"><ele>127.0</ele><time>2026-05-03T12:55:31.57Z</time></trkpt><trkpt lat="43.3543114" lon="10.6682144"><ele>128.0</ele><time>2026-05-03T12:55:32.569Z</time></trkpt><trkpt lat="43.354227" lon="10.6682276"><ele>129.0</ele><time>2026-05-03T12:55:33.569Z</time></trkpt><trkpt lat="43.3541482" lon="10.6681872"><ele>130.0</ele><time>2026-05-03T12:55:34.569Z</time></trkpt><trkpt lat="43.3540753" lon="10.6681043"><ele>130.0</ele><time>2026-05-03T12:55:35.569Z</time></trkpt><trkpt lat="43.3540171" lon="10.6679758"><ele>130.0</ele><time>2026-05-03T12:55:36.57Z</time></trkpt><trkpt lat="43.3539559" lon="10.6678231"><ele>130.0</ele><time>2026-05-03T12:55:37.57Z</time></trkpt><trkpt lat="43.3538774" lon="10.6676614"><ele>130.0</ele><time>2026-05-03T12:55:38.57Z</time></trkpt><trkpt lat="43.3537829" lon="10.6675047"><ele>131.0</ele><time>2026-05-03T12:55:39.57Z</time></trkpt><trkpt lat="43.3536702" lon="10.6673622"><ele>132.0</ele><time>2026-05-03T12:55:40.569Z</time></trkpt><trkpt lat="43.3535545" lon="10.6672402"><ele>133.0</ele><time>2026-05-03T12:55:41.569Z</time></trkpt><trkpt lat="43.3534278" lon="10.6671458"><ele>134.0</ele><time>2026-05-03T12:55:42.568Z</time></trkpt><trkpt lat="43.3532792" lon="10.6671043"><ele>134.0</ele><time>2026-05-03T12:55:43.569Z</time></trkpt><trkpt lat="43.3531401" lon="10.6670941"><ele>134.0</ele><time>2026-05-03T12:55:44.568Z</time></trkpt><trkpt lat="43.3529754" lon="10.6671565"><ele>134.0</ele><time>2026-05-03T12:55:45.568Z</time></trkpt><trkpt lat="43.3528156" lon="10.6672223"><ele>135.33333333333331</ele><time>2026-05-03T12:55:46.569Z</time></trkpt><trkpt lat="43.3526566" lon="10.6673225"><ele>136.66666666666666</ele><time>2026-05-03T12:55:47.569Z</time></trkpt><trkpt lat="43.3525053" lon="10.667437"><ele>138.0</ele><time>2026-05-03T12:55:48.57Z</time></trkpt><trkpt lat="43.3523657" lon="10.6675342"><ele>138.0</ele><time>2026-05-03T12:55:49.569Z</time></trkpt><trkpt lat="43.3522257" lon="10.6676211"><ele>138.0</ele><time>2026-05-03T12:55:50.568Z</time></trkpt><trkpt lat="43.3520883" lon="10.6676718"><ele>138.0</ele><time>2026-05-03T12:55:51.569Z</time></trkpt><trkpt lat="43.3519449" lon="10.6676894"><ele>138.0</ele><time>2026-05-03T12:55:52.568Z</time></trkpt><trkpt lat="43.3517917" lon="10.6676952"><ele>139.0</ele><time>2026-05-03T12:55:53.57Z</time></trkpt><trkpt lat="43.351637" lon="10.6676933"><ele>140.0</ele><time>2026-05-03T12:55:54.569Z</time></trkpt><trkpt lat="43.3514942" lon="10.6676637"><ele>141.0</ele><time>2026-05-03T12:55:55.57Z</time></trkpt><trkpt lat="43.3513564" lon="10.667648"><ele>142.0</ele><time>2026-05-03T12:55:56.568Z</time></trkpt><trkpt lat="43.3512251" lon="10.667669"><ele>142.5</ele><time>2026-05-03T12:55:57.569Z</time></trkpt><trkpt lat="43.3510839" lon="10.6677182"><ele>143.0</ele><time>2026-05-03T12:55:58.569Z</time></trkpt><trkpt lat="43.3509364" lon="10.6677988"><ele>143.5</ele><time>2026-05-03T12:55:59.569Z</time></trkpt><trkpt lat="43.3508008" lon="10.667859"><ele>144.0</ele><time>2026-05-03T12:56:00.569Z</time></trkpt><trkpt lat="43.3506753" lon="10.6678912"><ele>143.75</ele><time>2026-05-03T12:56:01.569Z</time></trkpt><trkpt lat="43.3505598" lon="10.6678928"><ele>143.5</ele><time>2026-05-03T12:56:02.569Z</time></trkpt><trkpt lat="43.3504482" lon="10.6678889"><ele>143.25</ele><time>2026-05-03T12:56:03.57Z</time></trkpt><trkpt lat="43.3503442" lon="10.6678439"><ele>143.0</ele><time>2026-05-03T12:56:04.57Z</time></trkpt><trkpt lat="43.3502288" lon="10.6677721"><ele>143.0</ele><time>2026-05-03T12:56:05.569Z</time></trkpt><trkpt lat="43.3500919" lon="10.6676991"><ele>143.0</ele><time>2026-05-03T12:56:06.57Z</time></trkpt><trkpt lat="43.349936" lon="10.6676162"><ele>143.0</ele><time>2026-05-03T12:56:07.57Z</time></trkpt><trkpt lat="43.3497737" lon="10.6675329"><ele>139.66666666666666</ele><time>2026-05-03T12:56:08.568Z</time></trkpt><trkpt lat="43.3495923" lon="10.6674368"><ele>136.33333333333334</ele><time>2026-05-03T12:56:09.569Z</time></trkpt><trkpt lat="43.3494181" lon="10.667328"><ele>133.0</ele><time>2026-05-03T12:56:10.569Z</time></trkpt><trkpt lat="43.3492589" lon="10.6672322"><ele>133.0</ele><time>2026-05-03T12:56:11.569Z</time></trkpt><trkpt lat="43.3491062" lon="10.6671421"><ele>133.0</ele><time>2026-05-03T12:56:12.569Z</time></trkpt><trkpt lat="43.3489619" lon="10.6670667"><ele>133.0</ele><time>2026-05-03T12:56:13.569Z</time></trkpt><trkpt lat="43.3488279" lon="10.666989"><ele>133.25</ele><time>2026-05-03T12:56:14.569Z</time></trkpt><trkpt lat="43.3487063" lon="10.6669124"><ele>133.5</ele><time>2026-05-03T12:56:15.569Z</time></trkpt><trkpt lat="43.3486125" lon="10.6668139"><ele>133.75</ele><time>2026-05-03T12:56:16.569Z</time></trkpt><trkpt lat="43.3485323" lon="10.6667037"><ele>134.0</ele><time>2026-05-03T12:56:17.57Z</time></trkpt><trkpt lat="43.3484696" lon="10.6665799"><ele>134.0</ele><time>2026-05-03T12:56:18.569Z</time></trkpt><trkpt lat="43.3484102" lon="10.6664445"><ele>134.0</ele><time>2026-05-03T12:56:19.568Z</time></trkpt><trkpt lat="43.3483437" lon="10.6663004"><ele>134.0</ele><time>2026-05-03T12:56:20.568Z</time></trkpt><trkpt lat="43.34826" lon="10.6661565"><ele>134.0</ele><time>2026-05-03T12:56:21.569Z</time></trkpt><trkpt lat="43.3481622" lon="10.6660241"><ele>135.0</ele><time>2026-05-03T12:56:22.568Z</time></trkpt><trkpt lat="43.348046" lon="10.6659053"><ele>136.0</ele><time>2026-05-03T12:56:23.568Z</time></trkpt><trkpt lat="43.3479329" lon="10.665803"><ele>137.0</ele><time>2026-05-03T12:56:24.569Z</time></trkpt><trkpt lat="43.3478229" lon="10.665701"><ele>138.0</ele><time>2026-05-03T12:56:25.568Z</time></trkpt><trkpt lat="43.3477251" lon="10.6655914"><ele>136.6</ele><time>2026-05-03T12:56:26.569Z</time></trkpt><trkpt lat="43.3476417" lon="10.665461"><ele>135.20000000000002</ele><time>2026-05-03T12:56:27.57Z</time></trkpt><trkpt lat="43.347601" lon="10.6653261"><ele>133.8</ele><time>2026-05-03T12:56:28.568Z</time></trkpt><trkpt lat="43.3475582" lon="10.6652042"><ele>132.4</ele><time>2026-05-03T12:56:29.569Z</time></trkpt><trkpt lat="43.3474889" lon="10.6650738"><ele>131.0</ele><time>2026-05-03T12:56:30.569Z</time></trkpt><trkpt lat="43.3474078" lon="10.6649461"><ele>131.0</ele><time>2026-05-03T12:56:31.569Z</time></trkpt><trkpt lat="43.3472967" lon="10.6648439"><ele>131.0</ele><time>2026-05-03T12:56:32.569Z</time></trkpt><trkpt lat="43.3471753" lon="10.6647554"><ele>131.0</ele><time>2026-05-03T12:56:33.569Z</time></trkpt><trkpt lat="43.347043" lon="10.6646713"><ele>131.0</ele><time>2026-05-03T12:56:34.57Z</time></trkpt><trkpt lat="43.3469028" lon="10.6645924"><ele>131.25</ele><time>2026-05-03T12:56:35.569Z</time></trkpt><trkpt lat="43.3467586" lon="10.6645166"><ele>131.5</ele><time>2026-05-03T12:56:36.569Z</time></trkpt><trkpt lat="43.3466297" lon="10.6644343"><ele>131.75</ele><time>2026-05-03T12:56:37.569Z</time></trkpt><trkpt lat="43.3465083" lon="10.6643358"><ele>132.0</ele><time>2026-05-03T12:56:38.568Z</time></trkpt><trkpt lat="43.3463915" lon="10.6642287"><ele>127.5</ele><time>2026-05-03T12:56:39.569Z</time></trkpt><trkpt lat="43.3462878" lon="10.6640977"><ele>123.0</ele><time>2026-05-03T12:56:40.568Z</time></trkpt><trkpt lat="43.3462055" lon="10.6639486"><ele>118.5</ele><time>2026-05-03T12:56:41.569Z</time></trkpt><trkpt lat="43.3461302" lon="10.6638021"><ele>114.0</ele><time>2026-05-03T12:56:42.569Z</time></trkpt><trkpt lat="43.346078" lon="10.663647"><ele>114.25</ele><time>2026-05-03T12:56:43.57Z</time></trkpt><trkpt lat="43.3460411" lon="10.6635057"><ele>114.5</ele><time>2026-05-03T12:56:44.57Z</time></trkpt><trkpt lat="43.3460258" lon="10.6633528"><ele>114.75</ele><time>2026-05-03T12:56:45.57Z</time></trkpt><trkpt lat="43.3460314" lon="10.6631943"><ele>115.0</ele><time>2026-05-03T12:56:46.569Z</time></trkpt><trkpt lat="43.3460598" lon="10.6630342"><ele>115.0</ele><time>2026-05-03T12:56:47.569Z</time></trkpt><trkpt lat="43.3461107" lon="10.6628802"><ele>115.0</ele><time>2026-05-03T12:56:48.569Z</time></trkpt><trkpt lat="43.3461866" lon="10.662743"><ele>115.0</ele><time>2026-05-03T12:56:49.569Z</time></trkpt><trkpt lat="43.346272" lon="10.6626327"><ele>115.0</ele><time>2026-05-03T12:56:50.569Z</time></trkpt><trkpt lat="43.3463567" lon="10.6625419"><ele>115.83333333333334</ele><time>2026-05-03T12:56:51.569Z</time></trkpt><trkpt lat="43.3464246" lon="10.6624603"><ele>116.66666666666667</ele><time>2026-05-03T12:56:52.569Z</time></trkpt><trkpt lat="43.3464635" lon="10.6623669"><ele>117.5</ele><time>2026-05-03T12:56:53.569Z</time></trkpt><trkpt lat="43.3464776" lon="10.662268"><ele>118.33333333333334</ele><time>2026-05-03T12:56:54.569Z</time></trkpt><trkpt lat="43.3464586" lon="10.6621763"><ele>119.16666666666667</ele><time>2026-05-03T12:56:55.569Z</time></trkpt><trkpt lat="43.3464106" lon="10.6620925"><ele>120.0</ele><time>2026-05-03T12:56:56.569Z</time></trkpt><trkpt lat="43.3463316" lon="10.6620396"><ele>117.8</ele><time>2026-05-03T12:56:57.569Z</time></trkpt><trkpt lat="43.3462307" lon="10.6620079"><ele>115.6</ele><time>2026-05-03T12:56:58.569Z</time></trkpt><trkpt lat="43.3461139" lon="10.6620141"><ele>113.4</ele><time>2026-05-03T12:56:59.569Z</time></trkpt><trkpt lat="43.3460029" lon="10.6620572"><ele>111.2</ele><time>2026-05-03T12:57:00.569Z</time></trkpt><trkpt lat="43.3459081" lon="10.6621389"><ele>109.0</ele><time>2026-05-03T12:57:01.569Z</time></trkpt><trkpt lat="43.3458281" lon="10.6622438"><ele>109.0</ele><time>2026-05-03T12:57:02.569Z</time></trkpt><trkpt lat="43.345752" lon="10.6623827"><ele>109.0</ele><time>2026-05-03T12:57:03.568Z</time></trkpt><trkpt lat="43.3456721" lon="10.6625497"><ele>109.0</ele><time>2026-05-03T12:57:04.569Z</time></trkpt><trkpt lat="43.3455877" lon="10.6627348"><ele>109.0</ele><time>2026-05-03T12:57:05.57Z</time></trkpt><trkpt lat="43.345503" lon="10.6629094"><ele>104.0</ele><time>2026-05-03T12:57:06.57Z</time></trkpt><trkpt lat="43.3454161" lon="10.6630881"><ele>99.0</ele><time>2026-05-03T12:57:07.569Z</time></trkpt><trkpt lat="43.3452352" lon="10.6634279"><ele>99.0</ele><time>2026-05-03T12:57:09.568Z</time></trkpt><trkpt lat="43.3451592" lon="10.6635943"><ele>99.0</ele><time>2026-05-03T12:57:10.569Z</time></trkpt><trkpt lat="43.3451003" lon="10.6637743"><ele>99.0</ele><time>2026-05-03T12:57:11.57Z</time></trkpt><trkpt lat="43.3450698" lon="10.6639624"><ele>99.0</ele><time>2026-05-03T12:57:12.568Z</time></trkpt><trkpt lat="43.3450581" lon="10.6641419"><ele>99.4</ele><time>2026-05-03T12:57:13.569Z</time></trkpt><trkpt lat="43.3450568" lon="10.6642968"><ele>99.80000000000001</ele><time>2026-05-03T12:57:14.569Z</time></trkpt><trkpt lat="43.3450302" lon="10.6644415"><ele>100.19999999999999</ele><time>2026-05-03T12:57:15.569Z</time></trkpt><trkpt lat="43.3449841" lon="10.6645662"><ele>100.6</ele><time>2026-05-03T12:57:16.569Z</time></trkpt><trkpt lat="43.3449037" lon="10.6646579"><ele>101.0</ele><time>2026-05-03T12:57:17.569Z</time></trkpt><trkpt lat="43.3448028" lon="10.6647052"><ele>97.5</ele><time>2026-05-03T12:57:18.568Z</time></trkpt><trkpt lat="43.3446845" lon="10.6647173"><ele>94.0</ele><time>2026-05-03T12:57:19.568Z</time></trkpt><trkpt lat="43.344541" lon="10.6646927"><ele>90.5</ele><time>2026-05-03T12:57:20.569Z</time></trkpt><trkpt lat="43.3443717" lon="10.6646473"><ele>87.0</ele><time>2026-05-03T12:57:21.568Z</time></trkpt><trkpt lat="43.3441783" lon="10.664598"><ele>87.0</ele><time>2026-05-03T12:57:22.569Z</time></trkpt><trkpt lat="43.3439604" lon="10.6645465"><ele>87.0</ele><time>2026-05-03T12:57:23.569Z</time></trkpt><trkpt lat="43.3437447" lon="10.6644869"><ele>87.0</ele><time>2026-05-03T12:57:24.568Z</time></trkpt><trkpt lat="43.3435433" lon="10.6644329"><ele>85.66666666666667</ele><time>2026-05-03T12:57:25.57Z</time></trkpt><trkpt lat="43.3433519" lon="10.6643795"><ele>84.33333333333334</ele><time>2026-05-03T12:57:26.568Z</time></trkpt><trkpt lat="43.3431663" lon="10.6643347"><ele>83.0</ele><time>2026-05-03T12:57:27.57Z</time></trkpt><trkpt lat="43.3429952" lon="10.6642834"><ele>82.0</ele><time>2026-05-03T12:57:28.57Z</time></trkpt><trkpt lat="43.3428379" lon="10.6642118"><ele>81.0</ele><time>2026-05-03T12:57:29.57Z</time></trkpt><trkpt lat="43.3426906" lon="10.6641143"><ele>80.0</ele><time>2026-05-03T12:57:30.569Z</time></trkpt><trkpt lat="43.3425611" lon="10.6639753"><ele>80.0</ele><time>2026-05-03T12:57:31.57Z</time></trkpt><trkpt lat="43.3424345" lon="10.663799"><ele>80.0</ele><time>2026-05-03T12:57:32.569Z</time></trkpt><trkpt lat="43.3422987" lon="10.6636147"><ele>80.0</ele><time>2026-05-03T12:57:33.57Z</time></trkpt><trkpt lat="43.3421639" lon="10.6634408"><ele>80.0</ele><time>2026-05-03T12:57:34.569Z</time></trkpt><trkpt lat="43.3420447" lon="10.6632651"><ele>80.0</ele><time>2026-05-03T12:57:35.571Z</time></trkpt><trkpt lat="43.34193" lon="10.6631043"><ele>80.0</ele><time>2026-05-03T12:57:36.569Z</time></trkpt><trkpt lat="43.341824" lon="10.6629412"><ele>79.33333333333334</ele><time>2026-05-03T12:57:37.57Z</time></trkpt><trkpt lat="43.3417279" lon="10.662772"><ele>78.66666666666667</ele><time>2026-05-03T12:57:38.57Z</time></trkpt><trkpt lat="43.34164" lon="10.6625941"><ele>78.0</ele><time>2026-05-03T12:57:39.57Z</time></trkpt><trkpt lat="43.341557" lon="10.6624066"><ele>78.0</ele><time>2026-05-03T12:57:40.569Z</time></trkpt><trkpt lat="43.3414874" lon="10.6622108"><ele>78.0</ele><time>2026-05-03T12:57:41.569Z</time></trkpt><trkpt lat="43.3414148" lon="10.662006"><ele>78.0</ele><time>2026-05-03T12:57:42.569Z</time></trkpt><trkpt lat="43.3413433" lon="10.6618072"><ele>81.0</ele><time>2026-05-03T12:57:43.569Z</time></trkpt><trkpt lat="43.3412008" lon="10.6613748"><ele>84.0</ele><time>2026-05-03T12:57:45.568Z</time></trkpt><trkpt lat="43.3411347" lon="10.661163"><ele>81.33333333333333</ele><time>2026-05-03T12:57:46.568Z</time></trkpt><trkpt lat="43.3410664" lon="10.6609446"><ele>78.66666666666666</ele><time>2026-05-03T12:57:47.57Z</time></trkpt><trkpt lat="43.3410015" lon="10.6607316"><ele>76.0</ele><time>2026-05-03T12:57:48.569Z</time></trkpt><trkpt lat="43.3409403" lon="10.6605138"><ele>76.0</ele><time>2026-05-03T12:57:49.569Z</time></trkpt><trkpt lat="43.3408766" lon="10.660294"><ele>76.0</ele><time>2026-05-03T12:57:50.57Z</time></trkpt><trkpt lat="43.3408055" lon="10.6600727"><ele>76.0</ele><time>2026-05-03T12:57:51.568Z</time></trkpt><trkpt lat="43.3407414" lon="10.6598487"><ele>73.66666666666666</ele><time>2026-05-03T12:57:52.569Z</time></trkpt><trkpt lat="43.340672" lon="10.6596262"><ele>71.33333333333333</ele><time>2026-05-03T12:57:53.57Z</time></trkpt><trkpt lat="43.3405995" lon="10.6594161"><ele>69.0</ele><time>2026-05-03T12:57:54.568Z</time></trkpt><trkpt lat="43.3405205" lon="10.6592158"><ele>69.0</ele><time>2026-05-03T12:57:55.57Z</time></trkpt><trkpt lat="43.3404247" lon="10.6590146"><ele>69.0</ele><time>2026-05-03T12:57:56.57Z</time></trkpt><trkpt lat="43.3403462" lon="10.658808"><ele>69.0</ele><time>2026-05-03T12:57:57.569Z</time></trkpt><trkpt lat="43.3402755" lon="10.658594"><ele>67.33333333333333</ele><time>2026-05-03T12:57:58.569Z</time></trkpt><trkpt lat="43.3402097" lon="10.6583849"><ele>65.66666666666666</ele><time>2026-05-03T12:57:59.569Z</time></trkpt><trkpt lat="43.3401444" lon="10.6581795"><ele>64.0</ele><time>2026-05-03T12:58:00.569Z</time></trkpt><trkpt lat="43.340075" lon="10.6579802"><ele>64.0</ele><time>2026-05-03T12:58:01.569Z</time></trkpt><trkpt lat="43.3400061" lon="10.6577929"><ele>64.0</ele><time>2026-05-03T12:58:02.569Z</time></trkpt><trkpt lat="43.3399281" lon="10.6576241"><ele>64.0</ele><time>2026-05-03T12:58:03.569Z</time></trkpt><trkpt lat="43.339842" lon="10.6574797"><ele>64.0</ele><time>2026-05-03T12:58:04.568Z</time></trkpt><trkpt lat="43.339731" lon="10.657351"><ele>62.0</ele><time>2026-05-03T12:58:05.569Z</time></trkpt><trkpt lat="43.3396107" lon="10.6572101"><ele>60.0</ele><time>2026-05-03T12:58:06.569Z</time></trkpt><trkpt lat="43.339487" lon="10.6570583"><ele>58.0</ele><time>2026-05-03T12:58:07.569Z</time></trkpt><trkpt lat="43.3393538" lon="10.6568991"><ele>56.666666666666664</ele><time>2026-05-03T12:58:08.57Z</time></trkpt><trkpt lat="43.339225" lon="10.6567299"><ele>55.33333333333333</ele><time>2026-05-03T12:58:09.569Z</time></trkpt><trkpt lat="43.3390868" lon="10.6565588"><ele>54.0</ele><time>2026-05-03T12:58:10.569Z</time></trkpt><trkpt lat="43.3389493" lon="10.6563832"><ele>53.0</ele><time>2026-05-03T12:58:11.568Z</time></trkpt><trkpt lat="43.3388147" lon="10.6562063"><ele>52.0</ele><time>2026-05-03T12:58:12.57Z</time></trkpt><trkpt lat="43.3386873" lon="10.6560393"><ele>51.0</ele><time>2026-05-03T12:58:13.569Z</time></trkpt><trkpt lat="43.3385569" lon="10.6558797"><ele>50.0</ele><time>2026-05-03T12:58:14.569Z</time></trkpt><trkpt lat="43.338427" lon="10.6557255"><ele>49.0</ele><time>2026-05-03T12:58:15.569Z</time></trkpt><trkpt lat="43.3383087" lon="10.6555653"><ele>48.0</ele><time>2026-05-03T12:58:16.568Z</time></trkpt><trkpt lat="43.3381912" lon="10.6554113"><ele>46.666666666666664</ele><time>2026-05-03T12:58:17.569Z</time></trkpt><trkpt lat="43.3380647" lon="10.6552564"><ele>45.33333333333333</ele><time>2026-05-03T12:58:18.569Z</time></trkpt><trkpt lat="43.3379427" lon="10.6551044"><ele>44.0</ele><time>2026-05-03T12:58:19.568Z</time></trkpt><trkpt lat="43.3378145" lon="10.6549516"><ele>43.666666666666664</ele><time>2026-05-03T12:58:20.57Z</time></trkpt><trkpt lat="43.3376844" lon="10.6547919"><ele>43.333333333333336</ele><time>2026-05-03T12:58:21.569Z</time></trkpt><trkpt lat="43.3375496" lon="10.6546363"><ele>43.0</ele><time>2026-05-03T12:58:22.568Z</time></trkpt><trkpt lat="43.3374227" lon="10.6544876"><ele>42.66666666666667</ele><time>2026-05-03T12:58:23.57Z</time></trkpt><trkpt lat="43.3372998" lon="10.6543318"><ele>42.333333333333336</ele><time>2026-05-03T12:58:24.568Z</time></trkpt><trkpt lat="43.3371781" lon="10.6541837"><ele>42.0</ele><time>2026-05-03T12:58:25.57Z</time></trkpt><trkpt lat="43.3370637" lon="10.6540413"><ele>41.5</ele><time>2026-05-03T12:58:26.569Z</time></trkpt><trkpt lat="43.3369612" lon="10.6539178"><ele>41.0</ele><time>2026-05-03T12:58:27.57Z</time></trkpt><trkpt lat="43.3368694" lon="10.6537803"><ele>40.5</ele><time>2026-05-03T12:58:28.568Z</time></trkpt><trkpt lat="43.3368" lon="10.6536307"><ele>40.0</ele><time>2026-05-03T12:58:29.568Z</time></trkpt><trkpt lat="43.3367556" lon="10.6534772"><ele>39.4</ele><time>2026-05-03T12:58:30.569Z</time></trkpt><trkpt lat="43.3367295" lon="10.653325"><ele>38.8</ele><time>2026-05-03T12:58:31.569Z</time></trkpt><trkpt lat="43.336715" lon="10.6531872"><ele>38.2</ele><time>2026-05-03T12:58:32.569Z</time></trkpt><trkpt lat="43.3367026" lon="10.6530673"><ele>37.6</ele><time>2026-05-03T12:58:33.568Z</time></trkpt><trkpt lat="43.3366885" lon="10.6529649"><ele>37.0</ele><time>2026-05-03T12:58:34.569Z</time></trkpt><trkpt lat="43.336668" lon="10.6528651"><ele>36.42857142857143</ele><time>2026-05-03T12:58:35.568Z</time></trkpt><trkpt lat="43.3366528" lon="10.6527704"><ele>35.857142857142854</ele><time>2026-05-03T12:58:36.569Z</time></trkpt><trkpt lat="43.336627" lon="10.6526719"><ele>35.285714285714285</ele><time>2026-05-03T12:58:37.569Z</time></trkpt><trkpt lat="43.336578" lon="10.6525914"><ele>34.714285714285715</ele><time>2026-05-03T12:58:38.569Z</time></trkpt><trkpt lat="43.3365109" lon="10.6525463"><ele>34.142857142857146</ele><time>2026-05-03T12:58:39.57Z</time></trkpt><trkpt lat="43.3364367" lon="10.6525431"><ele>33.57142857142857</ele><time>2026-05-03T12:58:40.569Z</time></trkpt><trkpt lat="43.3363691" lon="10.6525807"><ele>33.0</ele><time>2026-05-03T12:58:41.571Z</time></trkpt><trkpt lat="43.3363171" lon="10.6526601"><ele>33.0</ele><time>2026-05-03T12:58:42.57Z</time></trkpt><trkpt lat="43.3362758" lon="10.6527718"><ele>33.0</ele><time>2026-05-03T12:58:43.57Z</time></trkpt><trkpt lat="43.3362312" lon="10.6529129"><ele>33.0</ele><time>2026-05-03T12:58:44.568Z</time></trkpt><trkpt lat="43.3361666" lon="10.6530646"><ele>33.0</ele><time>2026-05-03T12:58:45.569Z</time></trkpt><trkpt lat="43.3360736" lon="10.6532266"><ele>33.0</ele><time>2026-05-03T12:58:46.568Z</time></trkpt><trkpt lat="43.3359572" lon="10.653407"><ele>33.0</ele><time>2026-05-03T12:58:47.569Z</time></trkpt><trkpt lat="43.3358231" lon="10.6536266"><ele>33.0</ele><time>2026-05-03T12:58:48.57Z</time></trkpt><trkpt lat="43.335686" lon="10.6538549"><ele>31.5</ele><time>2026-05-03T12:58:49.569Z</time></trkpt><trkpt lat="43.3355455" lon="10.6541133"><ele>30.0</ele><time>2026-05-03T12:58:50.569Z</time></trkpt><trkpt lat="43.335397" lon="10.6543938"><ele>31.5</ele><time>2026-05-03T12:58:51.569Z</time></trkpt><trkpt lat="43.3352368" lon="10.65469"><ele>33.0</ele><time>2026-05-03T12:58:52.569Z</time></trkpt><trkpt lat="43.3350767" lon="10.6549883"><ele>35.0</ele><time>2026-05-03T12:58:53.569Z</time></trkpt><trkpt lat="43.3349093" lon="10.655305"><ele>37.0</ele><time>2026-05-03T12:58:54.568Z</time></trkpt><trkpt lat="43.3347288" lon="10.6556347"><ele>35.0</ele><time>2026-05-03T12:58:55.568Z</time></trkpt><trkpt lat="43.33455" lon="10.6559592"><ele>33.0</ele><time>2026-05-03T12:58:56.569Z</time></trkpt><trkpt lat="43.3343714" lon="10.6562842"><ele>33.0</ele><time>2026-05-03T12:58:57.568Z</time></trkpt><trkpt lat="43.3341935" lon="10.6566058"><ele>33.0</ele><time>2026-05-03T12:58:58.569Z</time></trkpt><trkpt lat="43.3340182" lon="10.6569249"><ele>32.5</ele><time>2026-05-03T12:58:59.569Z</time></trkpt><trkpt lat="43.3338457" lon="10.6572441"><ele>32.0</ele><time>2026-05-03T12:59:00.569Z</time></trkpt><trkpt lat="43.3336725" lon="10.6575626"><ele>32.0</ele><time>2026-05-03T12:59:01.569Z</time></trkpt><trkpt lat="43.3335095" lon="10.6578755"><ele>32.0</ele><time>2026-05-03T12:59:02.568Z</time></trkpt><trkpt lat="43.3333448" lon="10.6581797"><ele>32.0</ele><time>2026-05-03T12:59:03.57Z</time></trkpt><trkpt lat="43.3331811" lon="10.6584789"><ele>32.0</ele><time>2026-05-03T12:59:04.569Z</time></trkpt><trkpt lat="43.3330195" lon="10.6587763"><ele>33.5</ele><time>2026-05-03T12:59:05.568Z</time></trkpt><trkpt lat="43.3328615" lon="10.6590759"><ele>35.0</ele><time>2026-05-03T12:59:06.569Z</time></trkpt><trkpt lat="43.3327035" lon="10.6593685"><ele>37.0</ele><time>2026-05-03T12:59:07.569Z</time></trkpt><trkpt lat="43.3325456" lon="10.659651"><ele>39.0</ele><time>2026-05-03T12:59:08.57Z</time></trkpt><trkpt lat="43.3323824" lon="10.6599264"><ele>37.5</ele><time>2026-05-03T12:59:09.569Z</time></trkpt><trkpt lat="43.3322074" lon="10.6601901"><ele>36.0</ele><time>2026-05-03T12:59:10.568Z</time></trkpt><trkpt lat="43.3320293" lon="10.6604553"><ele>36.0</ele><time>2026-05-03T12:59:11.57Z</time></trkpt><trkpt lat="43.3318448" lon="10.6606976"><ele>36.0</ele><time>2026-05-03T12:59:12.568Z</time></trkpt><trkpt lat="43.3316561" lon="10.660925"><ele>38.0</ele><time>2026-05-03T12:59:13.569Z</time></trkpt><trkpt lat="43.331449" lon="10.6611364"><ele>40.0</ele><time>2026-05-03T12:59:14.568Z</time></trkpt><trkpt lat="43.3312402" lon="10.6613331"><ele>40.0</ele><time>2026-05-03T12:59:15.569Z</time></trkpt><trkpt lat="43.3310157" lon="10.6615075"><ele>40.0</ele><time>2026-05-03T12:59:16.568Z</time></trkpt><trkpt lat="43.3307905" lon="10.6616663"><ele>40.0</ele><time>2026-05-03T12:59:17.57Z</time></trkpt><trkpt lat="43.3305598" lon="10.6618044"><ele>40.0</ele><time>2026-05-03T12:59:18.569Z</time></trkpt><trkpt lat="43.330326" lon="10.6619245"><ele>39.0</ele><time>2026-05-03T12:59:19.568Z</time></trkpt><trkpt lat="43.3300936" lon="10.6620427"><ele>38.0</ele><time>2026-05-03T12:59:20.57Z</time></trkpt><trkpt lat="43.3298723" lon="10.6621312"><ele>37.0</ele><time>2026-05-03T12:59:21.569Z</time></trkpt><trkpt lat="43.3296671" lon="10.662223"><ele>36.0</ele><time>2026-05-03T12:59:22.57Z</time></trkpt><trkpt lat="43.3294722" lon="10.6623122"><ele>35.0</ele><time>2026-05-03T12:59:23.569Z</time></trkpt><trkpt lat="43.3292927" lon="10.6624177"><ele>35.0</ele><time>2026-05-03T12:59:24.568Z</time></trkpt><trkpt lat="43.3291221" lon="10.662555"><ele>35.0</ele><time>2026-05-03T12:59:25.569Z</time></trkpt><trkpt lat="43.3289597" lon="10.662732"><ele>35.0</ele><time>2026-05-03T12:59:26.568Z</time></trkpt><trkpt lat="43.3288189" lon="10.6629337"><ele>35.0</ele><time>2026-05-03T12:59:27.568Z</time></trkpt><trkpt lat="43.3286935" lon="10.6631586"><ele>35.0</ele><time>2026-05-03T12:59:28.569Z</time></trkpt><trkpt lat="43.3285934" lon="10.6634127"><ele>35.0</ele><time>2026-05-03T12:59:29.569Z</time></trkpt><trkpt lat="43.3285252" lon="10.6636754"><ele>35.0</ele><time>2026-05-03T12:59:30.569Z</time></trkpt><trkpt lat="43.3284834" lon="10.6639541"><ele>35.0</ele><time>2026-05-03T12:59:31.57Z</time></trkpt><trkpt lat="43.3284715" lon="10.664249"><ele>35.0</ele><time>2026-05-03T12:59:32.569Z</time></trkpt><trkpt lat="43.3284744" lon="10.6645563"><ele>36.0</ele><time>2026-05-03T12:59:33.569Z</time></trkpt><trkpt lat="43.3284893" lon="10.6648546"><ele>37.0</ele><time>2026-05-03T12:59:34.569Z</time></trkpt><trkpt lat="43.3285121" lon="10.6651539"><ele>38.0</ele><time>2026-05-03T12:59:35.568Z</time></trkpt><trkpt lat="43.3285386" lon="10.6654497"><ele>38.0</ele><time>2026-05-03T12:59:36.569Z</time></trkpt><trkpt lat="43.3285643" lon="10.6657451"><ele>38.0</ele><time>2026-05-03T12:59:37.569Z</time></trkpt><trkpt lat="43.3285943" lon="10.6660421"><ele>38.0</ele><time>2026-05-03T12:59:38.57Z</time></trkpt><trkpt lat="43.3286305" lon="10.6663247"><ele>37.666666666666664</ele><time>2026-05-03T12:59:39.569Z</time></trkpt><trkpt lat="43.3286736" lon="10.6666167"><ele>37.333333333333336</ele><time>2026-05-03T12:59:40.568Z</time></trkpt><trkpt lat="43.3287194" lon="10.6669089"><ele>37.0</ele><time>2026-05-03T12:59:41.568Z</time></trkpt><trkpt lat="43.3287667" lon="10.6672102"><ele>37.0</ele><time>2026-05-03T12:59:42.569Z</time></trkpt><trkpt lat="43.3288112" lon="10.6675001"><ele>37.0</ele><time>2026-05-03T12:59:43.569Z</time></trkpt><trkpt lat="43.3288532" lon="10.6677929"><ele>37.0</ele><time>2026-05-03T12:59:44.569Z</time></trkpt><trkpt lat="43.3288976" lon="10.6680777"><ele>36.66666666666667</ele><time>2026-05-03T12:59:45.569Z</time></trkpt><trkpt lat="43.328943" lon="10.6683556"><ele>36.333333333333336</ele><time>2026-05-03T12:59:46.569Z</time></trkpt><trkpt lat="43.3289851" lon="10.6686196"><ele>36.0</ele><time>2026-05-03T12:59:47.57Z</time></trkpt><trkpt lat="43.3290202" lon="10.6688794"><ele>35.666666666666664</ele><time>2026-05-03T12:59:48.569Z</time></trkpt><trkpt lat="43.3290573" lon="10.6691177"><ele>35.33333333333333</ele><time>2026-05-03T12:59:49.569Z</time></trkpt><trkpt lat="43.3290936" lon="10.6693368"><ele>35.0</ele><time>2026-05-03T12:59:50.569Z</time></trkpt><trkpt lat="43.3291327" lon="10.6695433"><ele>35.0</ele><time>2026-05-03T12:59:51.569Z</time></trkpt><trkpt lat="43.329162" lon="10.6697297"><ele>35.0</ele><time>2026-05-03T12:59:52.569Z</time></trkpt><trkpt lat="43.3291738" lon="10.6698779"><ele>35.0</ele><time>2026-05-03T12:59:53.57Z</time></trkpt><trkpt lat="43.3291674" lon="10.6700121"><ele>35.0</ele><time>2026-05-03T12:59:54.569Z</time></trkpt><trkpt lat="43.3291299" lon="10.6701259"><ele>35.0</ele><time>2026-05-03T12:59:55.568Z</time></trkpt><trkpt lat="43.3290614" lon="10.6702394"><ele>35.25</ele><time>2026-05-03T12:59:56.568Z</time></trkpt><trkpt lat="43.3289651" lon="10.6703626"><ele>35.5</ele><time>2026-05-03T12:59:57.569Z</time></trkpt><trkpt lat="43.3288377" lon="10.6704609"><ele>35.75</ele><time>2026-05-03T12:59:58.569Z</time></trkpt><trkpt lat="43.328687" lon="10.6705288"><ele>36.0</ele><time>2026-05-03T12:59:59.569Z</time></trkpt><trkpt lat="43.3285237" lon="10.6705641"><ele>36.0</ele><time>2026-05-03T13:00:00.569Z</time></trkpt><trkpt lat="43.3283359" lon="10.6705592"><ele>36.0</ele><time>2026-05-03T13:00:01.568Z</time></trkpt><trkpt lat="43.3281319" lon="10.6705253"><ele>36.0</ele><time>2026-05-03T13:00:02.569Z</time></trkpt><trkpt lat="43.3279164" lon="10.6704829"><ele>36.5</ele><time>2026-05-03T13:00:03.57Z</time></trkpt><trkpt lat="43.3276879" lon="10.6704357"><ele>37.0</ele><time>2026-05-03T13:00:04.569Z</time></trkpt><trkpt lat="43.3274265" lon="10.6703772"><ele>37.5</ele><time>2026-05-03T13:00:05.569Z</time></trkpt><trkpt lat="43.3271671" lon="10.6703226"><ele>38.0</ele><time>2026-05-03T13:00:06.568Z</time></trkpt><trkpt lat="43.3269195" lon="10.6702719"><ele>36.5</ele><time>2026-05-03T13:00:07.569Z</time></trkpt><trkpt lat="43.3266704" lon="10.6702271"><ele>35.0</ele><time>2026-05-03T13:00:08.57Z</time></trkpt><trkpt lat="43.3264291" lon="10.6701781"><ele>35.5</ele><time>2026-05-03T13:00:09.568Z</time></trkpt><trkpt lat="43.3261919" lon="10.670131"><ele>36.0</ele><time>2026-05-03T13:00:10.569Z</time></trkpt><trkpt lat="43.3259586" lon="10.6700876"><ele>36.0</ele><time>2026-05-03T13:00:11.569Z</time></trkpt><trkpt lat="43.3257271" lon="10.6700436"><ele>36.0</ele><time>2026-05-03T13:00:12.57Z</time></trkpt><trkpt lat="43.3254875" lon="10.6700071"><ele>36.0</ele><time>2026-05-03T13:00:13.568Z</time></trkpt><trkpt lat="43.3252336" lon="10.6699638"><ele>36.0</ele><time>2026-05-03T13:00:14.568Z</time></trkpt><trkpt lat="43.3249714" lon="10.6699032"><ele>36.0</ele><time>2026-05-03T13:00:15.569Z</time></trkpt><trkpt lat="43.3247134" lon="10.6698478"><ele>36.0</ele><time>2026-05-03T13:00:16.569Z</time></trkpt><trkpt lat="43.3244567" lon="10.6698176"><ele>36.0</ele><time>2026-05-03T13:00:17.57Z</time></trkpt><trkpt lat="43.324205" lon="10.6698002"><ele>36.0</ele><time>2026-05-03T13:00:18.569Z</time></trkpt><trkpt lat="43.3239545" lon="10.6697973"><ele>35.0</ele><time>2026-05-03T13:00:19.569Z</time></trkpt><trkpt lat="43.323711" lon="10.6697995"><ele>34.0</ele><time>2026-05-03T13:00:20.569Z</time></trkpt><trkpt lat="43.3234615" lon="10.6698079"><ele>34.0</ele><time>2026-05-03T13:00:21.569Z</time></trkpt><trkpt lat="43.3232228" lon="10.6698134"><ele>34.0</ele><time>2026-05-03T13:00:22.569Z</time></trkpt><trkpt lat="43.3229822" lon="10.6698163"><ele>36.0</ele><time>2026-05-03T13:00:23.57Z</time></trkpt><trkpt lat="43.3227403" lon="10.6698195"><ele>38.0</ele><time>2026-05-03T13:00:24.569Z</time></trkpt><trkpt lat="43.3224955" lon="10.6698165"><ele>38.0</ele><time>2026-05-03T13:00:25.569Z</time></trkpt><trkpt lat="43.3222529" lon="10.6698264"><ele>38.0</ele><time>2026-05-03T13:00:26.57Z</time></trkpt><trkpt lat="43.3220203" lon="10.6698182"><ele>37.5</ele><time>2026-05-03T13:00:27.568Z</time></trkpt><trkpt lat="43.3217727" lon="10.6698184"><ele>37.0</ele><time>2026-05-03T13:00:28.569Z</time></trkpt><trkpt lat="43.3215299" lon="10.6698151"><ele>37.0</ele><time>2026-05-03T13:00:29.569Z</time></trkpt><trkpt lat="43.3212834" lon="10.6698202"><ele>37.0</ele><time>2026-05-03T13:00:30.569Z</time></trkpt><trkpt lat="43.3210378" lon="10.6698318"><ele>37.0</ele><time>2026-05-03T13:00:31.568Z</time></trkpt><trkpt lat="43.3207941" lon="10.6698435"><ele>37.0</ele><time>2026-05-03T13:00:32.569Z</time></trkpt><trkpt lat="43.3205478" lon="10.6698755"><ele>37.0</ele><time>2026-05-03T13:00:33.569Z</time></trkpt><trkpt lat="43.3203046" lon="10.6699077"><ele>37.0</ele><time>2026-05-03T13:00:34.569Z</time></trkpt><trkpt lat="43.320061" lon="10.6699608"><ele>37.0</ele><time>2026-05-03T13:00:35.569Z</time></trkpt><trkpt lat="43.319817" lon="10.670024"><ele>37.0</ele><time>2026-05-03T13:00:36.568Z</time></trkpt><trkpt lat="43.3195728" lon="10.6700976"><ele>36.0</ele><time>2026-05-03T13:00:37.569Z</time></trkpt><trkpt lat="43.3193363" lon="10.6701791"><ele>35.0</ele><time>2026-05-03T13:00:38.568Z</time></trkpt><trkpt lat="43.3190955" lon="10.6702701"><ele>35.5</ele><time>2026-05-03T13:00:39.569Z</time></trkpt><trkpt lat="43.3188579" lon="10.6703718"><ele>36.0</ele><time>2026-05-03T13:00:40.568Z</time></trkpt><trkpt lat="43.3186211" lon="10.6704832"><ele>36.0</ele><time>2026-05-03T13:00:41.569Z</time></trkpt><trkpt lat="43.3183869" lon="10.6706005"><ele>36.0</ele><time>2026-05-03T13:00:42.568Z</time></trkpt><trkpt lat="43.3181579" lon="10.6707337"><ele>36.5</ele><time>2026-05-03T13:00:43.569Z</time></trkpt><trkpt lat="43.3179291" lon="10.6708774"><ele>37.0</ele><time>2026-05-03T13:00:44.568Z</time></trkpt><trkpt lat="43.317707" lon="10.6710333"><ele>37.5</ele><time>2026-05-03T13:00:45.568Z</time></trkpt><trkpt lat="43.3174872" lon="10.6711998"><ele>38.0</ele><time>2026-05-03T13:00:46.57Z</time></trkpt><trkpt lat="43.3172692" lon="10.6713739"><ele>38.5</ele><time>2026-05-03T13:00:47.567Z</time></trkpt><trkpt lat="43.3170502" lon="10.671555"><ele>39.0</ele><time>2026-05-03T13:00:48.569Z</time></trkpt><trkpt lat="43.3168393" lon="10.6717394"><ele>39.0</ele><time>2026-05-03T13:00:49.569Z</time></trkpt><trkpt lat="43.3166244" lon="10.671931"><ele>39.0</ele><time>2026-05-03T13:00:50.569Z</time></trkpt><trkpt lat="43.3164107" lon="10.6721163"><ele>39.0</ele><time>2026-05-03T13:00:51.568Z</time></trkpt><trkpt lat="43.3161957" lon="10.6722994"><ele>39.0</ele><time>2026-05-03T13:00:52.569Z</time></trkpt><trkpt lat="43.3159832" lon="10.6724883"><ele>39.0</ele><time>2026-05-03T13:00:53.569Z</time></trkpt><trkpt lat="43.315771" lon="10.6726765"><ele>39.0</ele><time>2026-05-03T13:00:54.569Z</time></trkpt><trkpt lat="43.3155559" lon="10.6728686"><ele>40.0</ele><time>2026-05-03T13:00:55.569Z</time></trkpt><trkpt lat="43.3153388" lon="10.6730546"><ele>41.0</ele><time>2026-05-03T13:00:56.569Z</time></trkpt><trkpt lat="43.3151271" lon="10.6732411"><ele>41.0</ele><time>2026-05-03T13:00:57.569Z</time></trkpt><trkpt lat="43.3149101" lon="10.6734389"><ele>41.0</ele><time>2026-05-03T13:00:58.569Z</time></trkpt><trkpt lat="43.3146988" lon="10.6736355"><ele>39.5</ele><time>2026-05-03T13:00:59.569Z</time></trkpt><trkpt lat="43.3144998" lon="10.6738388"><ele>38.0</ele><time>2026-05-03T13:01:00.569Z</time></trkpt><trkpt lat="43.3143009" lon="10.6740613"><ele>38.0</ele><time>2026-05-03T13:01:01.569Z</time></trkpt><trkpt lat="43.3141034" lon="10.6742827"><ele>38.0</ele><time>2026-05-03T13:01:02.57Z</time></trkpt><trkpt lat="43.3139076" lon="10.6745037"><ele>39.5</ele><time>2026-05-03T13:01:03.568Z</time></trkpt><trkpt lat="43.313714" lon="10.6747338"><ele>41.0</ele><time>2026-05-03T13:01:04.568Z</time></trkpt><trkpt lat="43.3135263" lon="10.6749588"><ele>41.0</ele><time>2026-05-03T13:01:05.569Z</time></trkpt><trkpt lat="43.3133428" lon="10.675177"><ele>41.0</ele><time>2026-05-03T13:01:06.569Z</time></trkpt><trkpt lat="43.3131601" lon="10.6753978"><ele>40.0</ele><time>2026-05-03T13:01:07.568Z</time></trkpt><trkpt lat="43.3129789" lon="10.6756117"><ele>39.0</ele><time>2026-05-03T13:01:08.568Z</time></trkpt><trkpt lat="43.3128007" lon="10.6758249"><ele>39.0</ele><time>2026-05-03T13:01:09.569Z</time></trkpt><trkpt lat="43.3126234" lon="10.6760282"><ele>39.0</ele><time>2026-05-03T13:01:10.569Z</time></trkpt><trkpt lat="43.3124499" lon="10.6762328"><ele>39.0</ele><time>2026-05-03T13:01:11.568Z</time></trkpt><trkpt lat="43.3122819" lon="10.6764318"><ele>39.0</ele><time>2026-05-03T13:01:12.569Z</time></trkpt><trkpt lat="43.312115" lon="10.6766332"><ele>39.0</ele><time>2026-05-03T13:01:13.569Z</time></trkpt><trkpt lat="43.3119465" lon="10.6768447"><ele>38.0</ele><time>2026-05-03T13:01:14.569Z</time></trkpt><trkpt lat="43.3117736" lon="10.6770486"><ele>37.0</ele><time>2026-05-03T13:01:15.569Z</time></trkpt><trkpt lat="43.3116018" lon="10.6772527"><ele>37.0</ele><time>2026-05-03T13:01:16.569Z</time></trkpt><trkpt lat="43.3114335" lon="10.6774599"><ele>37.0</ele><time>2026-05-03T13:01:17.569Z</time></trkpt><trkpt lat="43.3112648" lon="10.6776697"><ele>38.0</ele><time>2026-05-03T13:01:18.568Z</time></trkpt><trkpt lat="43.3110932" lon="10.6778767"><ele>39.0</ele><time>2026-05-03T13:01:19.569Z</time></trkpt><trkpt lat="43.3109126" lon="10.6780993"><ele>39.0</ele><time>2026-05-03T13:01:20.568Z</time></trkpt><trkpt lat="43.3107251" lon="10.6783112"><ele>39.0</ele><time>2026-05-03T13:01:21.569Z</time></trkpt><trkpt lat="43.3105322" lon="10.6785325"><ele>39.0</ele><time>2026-05-03T13:01:22.568Z</time></trkpt><trkpt lat="43.3103338" lon="10.6787496"><ele>39.0</ele><time>2026-05-03T13:01:23.569Z</time></trkpt><trkpt lat="43.3101441" lon="10.6789656"><ele>39.0</ele><time>2026-05-03T13:01:24.569Z</time></trkpt><trkpt lat="43.309951" lon="10.6791898"><ele>39.0</ele><time>2026-05-03T13:01:25.569Z</time></trkpt><trkpt lat="43.3097583" lon="10.6794178"><ele>39.5</ele><time>2026-05-03T13:01:26.569Z</time></trkpt><trkpt lat="43.3095699" lon="10.6796466"><ele>40.0</ele><time>2026-05-03T13:01:27.569Z</time></trkpt><trkpt lat="43.3093794" lon="10.6798736"><ele>40.0</ele><time>2026-05-03T13:01:28.57Z</time></trkpt><trkpt lat="43.309188" lon="10.6801016"><ele>40.0</ele><time>2026-05-03T13:01:29.568Z</time></trkpt><trkpt lat="43.3089987" lon="10.680326"><ele>41.5</ele><time>2026-05-03T13:01:30.567Z</time></trkpt><trkpt lat="43.3088027" lon="10.6805485"><ele>43.0</ele><time>2026-05-03T13:01:31.569Z</time></trkpt><trkpt lat="43.3086124" lon="10.6807695"><ele>43.0</ele><time>2026-05-03T13:01:32.57Z</time></trkpt><trkpt lat="43.3082392" lon="10.681231"><ele>42.5</ele><time>2026-05-03T13:01:34.569Z</time></trkpt><trkpt lat="43.3080631" lon="10.6814839"><ele>42.0</ele><time>2026-05-03T13:01:35.567Z</time></trkpt><trkpt lat="43.3078965" lon="10.6817461"><ele>45.5</ele><time>2026-05-03T13:01:36.569Z</time></trkpt><trkpt lat="43.3077399" lon="10.6820124"><ele>49.0</ele><time>2026-05-03T13:01:37.569Z</time></trkpt><trkpt lat="43.3075928" lon="10.6822948"><ele>49.0</ele><time>2026-05-03T13:01:38.567Z</time></trkpt><trkpt lat="43.3074412" lon="10.682578"><ele>49.0</ele><time>2026-05-03T13:01:39.569Z</time></trkpt><trkpt lat="43.3072883" lon="10.682859"><ele>46.0</ele><time>2026-05-03T13:01:40.569Z</time></trkpt><trkpt lat="43.3071355" lon="10.6831455"><ele>43.0</ele><time>2026-05-03T13:01:41.568Z</time></trkpt><trkpt lat="43.3069856" lon="10.6834278"><ele>43.5</ele><time>2026-05-03T13:01:42.568Z</time></trkpt><trkpt lat="43.3068355" lon="10.6837065"><ele>44.0</ele><time>2026-05-03T13:01:43.569Z</time></trkpt><trkpt lat="43.3066862" lon="10.6839904"><ele>44.0</ele><time>2026-05-03T13:01:44.569Z</time></trkpt><trkpt lat="43.3065324" lon="10.6842618"><ele>44.0</ele><time>2026-05-03T13:01:45.569Z</time></trkpt><trkpt lat="43.3063795" lon="10.6845328"><ele>43.5</ele><time>2026-05-03T13:01:46.568Z</time></trkpt><trkpt lat="43.3062289" lon="10.6848127"><ele>43.0</ele><time>2026-05-03T13:01:47.568Z</time></trkpt><trkpt lat="43.3060744" lon="10.6851016"><ele>44.0</ele><time>2026-05-03T13:01:48.568Z</time></trkpt><trkpt lat="43.3059205" lon="10.6853807"><ele>45.0</ele><time>2026-05-03T13:01:49.57Z</time></trkpt><trkpt lat="43.3057575" lon="10.6856472"><ele>45.0</ele><time>2026-05-03T13:01:50.568Z</time></trkpt><trkpt lat="43.3055799" lon="10.6859006"><ele>45.0</ele><time>2026-05-03T13:01:51.57Z</time></trkpt><trkpt lat="43.3053908" lon="10.6861411"><ele>45.5</ele><time>2026-05-03T13:01:52.567Z</time></trkpt><trkpt lat="43.3051918" lon="10.6863656"><ele>46.0</ele><time>2026-05-03T13:01:53.569Z</time></trkpt><trkpt lat="43.3049902" lon="10.6865814"><ele>46.0</ele><time>2026-05-03T13:01:54.568Z</time></trkpt><trkpt lat="43.3047869" lon="10.6867935"><ele>46.0</ele><time>2026-05-03T13:01:55.569Z</time></trkpt><trkpt lat="43.3045836" lon="10.6870131"><ele>47.0</ele><time>2026-05-03T13:01:56.568Z</time></trkpt><trkpt lat="43.3043822" lon="10.6872304"><ele>48.0</ele><time>2026-05-03T13:01:57.568Z</time></trkpt><trkpt lat="43.3041773" lon="10.6874448"><ele>48.0</ele><time>2026-05-03T13:01:58.569Z</time></trkpt><trkpt lat="43.3039766" lon="10.6876557"><ele>48.0</ele><time>2026-05-03T13:01:59.569Z</time></trkpt><trkpt lat="43.3037836" lon="10.6878625"><ele>47.0</ele><time>2026-05-03T13:02:00.569Z</time></trkpt><trkpt lat="43.303579" lon="10.6880761"><ele>46.0</ele><time>2026-05-03T13:02:01.568Z</time></trkpt><trkpt lat="43.3033812" lon="10.688282"><ele>46.0</ele><time>2026-05-03T13:02:02.567Z</time></trkpt><trkpt lat="43.3031856" lon="10.6884937"><ele>46.0</ele><time>2026-05-03T13:02:03.569Z</time></trkpt><trkpt lat="43.3029922" lon="10.6886852"><ele>46.0</ele><time>2026-05-03T13:02:04.569Z</time></trkpt><trkpt lat="43.3027924" lon="10.6888918"><ele>46.0</ele><time>2026-05-03T13:02:05.568Z</time></trkpt><trkpt lat="43.3026029" lon="10.6891107"><ele>46.0</ele><time>2026-05-03T13:02:06.569Z</time></trkpt><trkpt lat="43.3024207" lon="10.6893423"><ele>46.0</ele><time>2026-05-03T13:02:07.569Z</time></trkpt><trkpt lat="43.3022486" lon="10.6895889"><ele>45.0</ele><time>2026-05-03T13:02:08.57Z</time></trkpt><trkpt lat="43.3020833" lon="10.689845"><ele>44.0</ele><time>2026-05-03T13:02:09.569Z</time></trkpt><trkpt lat="43.3019228" lon="10.6901059"><ele>46.0</ele><time>2026-05-03T13:02:10.568Z</time></trkpt><trkpt lat="43.3017627" lon="10.6903743"><ele>48.0</ele><time>2026-05-03T13:02:11.569Z</time></trkpt><trkpt lat="43.3015987" lon="10.6906326"><ele>48.0</ele><time>2026-05-03T13:02:12.569Z</time></trkpt><trkpt lat="43.3014386" lon="10.6908957"><ele>48.0</ele><time>2026-05-03T13:02:13.569Z</time></trkpt><trkpt lat="43.3012789" lon="10.6911651"><ele>48.5</ele><time>2026-05-03T13:02:14.569Z</time></trkpt><trkpt lat="43.3011191" lon="10.6914326"><ele>49.0</ele><time>2026-05-03T13:02:15.569Z</time></trkpt><trkpt lat="43.3009572" lon="10.6916952"><ele>51.5</ele><time>2026-05-03T13:02:16.567Z</time></trkpt><trkpt lat="43.3007797" lon="10.6919512"><ele>54.0</ele><time>2026-05-03T13:02:17.569Z</time></trkpt><trkpt lat="43.3005903" lon="10.6921871"><ele>50.5</ele><time>2026-05-03T13:02:18.569Z</time></trkpt><trkpt lat="43.3003866" lon="10.6923988"><ele>47.0</ele><time>2026-05-03T13:02:19.57Z</time></trkpt><trkpt lat="43.3001733" lon="10.6925949"><ele>46.5</ele><time>2026-05-03T13:02:20.568Z</time></trkpt><trkpt lat="43.2999557" lon="10.6927874"><ele>46.0</ele><time>2026-05-03T13:02:21.569Z</time></trkpt><trkpt lat="43.2997458" lon="10.6929728"><ele>46.0</ele><time>2026-05-03T13:02:22.57Z</time></trkpt><trkpt lat="43.2995314" lon="10.6931658"><ele>46.0</ele><time>2026-05-03T13:02:23.569Z</time></trkpt><trkpt lat="43.2993215" lon="10.6933528"><ele>46.0</ele><time>2026-05-03T13:02:24.568Z</time></trkpt><trkpt lat="43.2991095" lon="10.693544"><ele>46.0</ele><time>2026-05-03T13:02:25.568Z</time></trkpt><trkpt lat="43.2988946" lon="10.6937289"><ele>46.0</ele><time>2026-05-03T13:02:26.569Z</time></trkpt><trkpt lat="43.2986833" lon="10.6939144"><ele>46.0</ele><time>2026-05-03T13:02:27.567Z</time></trkpt><trkpt lat="43.2984708" lon="10.6941127"><ele>46.0</ele><time>2026-05-03T13:02:28.569Z</time></trkpt><trkpt lat="43.2982581" lon="10.6942994"><ele>46.0</ele><time>2026-05-03T13:02:29.568Z</time></trkpt><trkpt lat="43.298048" lon="10.6944935"><ele>48.0</ele><time>2026-05-03T13:02:30.569Z</time></trkpt><trkpt lat="43.2978357" lon="10.6946873"><ele>50.0</ele><time>2026-05-03T13:02:31.569Z</time></trkpt><trkpt lat="43.2976227" lon="10.6948713"><ele>50.0</ele><time>2026-05-03T13:02:32.569Z</time></trkpt><trkpt lat="43.2974104" lon="10.6950647"><ele>50.0</ele><time>2026-05-03T13:02:33.569Z</time></trkpt><trkpt lat="43.2971998" lon="10.6952616"><ele>50.0</ele><time>2026-05-03T13:02:34.569Z</time></trkpt><trkpt lat="43.2969874" lon="10.6954623"><ele>50.0</ele><time>2026-05-03T13:02:35.568Z</time></trkpt><trkpt lat="43.2967767" lon="10.6956527"><ele>50.0</ele><time>2026-05-03T13:02:36.569Z</time></trkpt><trkpt lat="43.2965598" lon="10.6958515"><ele>50.0</ele><time>2026-05-03T13:02:37.57Z</time></trkpt><trkpt lat="43.2963462" lon="10.6960462"><ele>51.0</ele><time>2026-05-03T13:02:38.569Z</time></trkpt><trkpt lat="43.2961294" lon="10.6962369"><ele>52.0</ele><time>2026-05-03T13:02:39.569Z</time></trkpt><trkpt lat="43.2959089" lon="10.6964337"><ele>52.0</ele><time>2026-05-03T13:02:40.569Z</time></trkpt><trkpt lat="43.2956926" lon="10.6966323"><ele>52.0</ele><time>2026-05-03T13:02:41.569Z</time></trkpt><trkpt lat="43.2954754" lon="10.6968291"><ele>51.5</ele><time>2026-05-03T13:02:42.569Z</time></trkpt><trkpt lat="43.2952587" lon="10.6970219"><ele>51.0</ele><time>2026-05-03T13:02:43.568Z</time></trkpt><trkpt lat="43.2950471" lon="10.6972067"><ele>51.0</ele><time>2026-05-03T13:02:44.569Z</time></trkpt><trkpt lat="43.2948366" lon="10.6973989"><ele>51.0</ele><time>2026-05-03T13:02:45.569Z</time></trkpt><trkpt lat="43.2946309" lon="10.6975942"><ele>51.0</ele><time>2026-05-03T13:02:46.568Z</time></trkpt><trkpt lat="43.2944312" lon="10.6977758"><ele>51.0</ele><time>2026-05-03T13:02:47.569Z</time></trkpt><trkpt lat="43.2942355" lon="10.6979529"><ele>51.0</ele><time>2026-05-03T13:02:48.568Z</time></trkpt><trkpt lat="43.2940327" lon="10.698107"><ele>51.0</ele><time>2026-05-03T13:02:49.569Z</time></trkpt><trkpt lat="43.2938251" lon="10.6982498"><ele>51.0</ele><time>2026-05-03T13:02:50.568Z</time></trkpt><trkpt lat="43.2936046" lon="10.6983748"><ele>51.0</ele><time>2026-05-03T13:02:51.57Z</time></trkpt><trkpt lat="43.2933833" lon="10.6984949"><ele>54.0</ele><time>2026-05-03T13:02:52.568Z</time></trkpt><trkpt lat="43.2931476" lon="10.698599"><ele>57.0</ele><time>2026-05-03T13:02:53.568Z</time></trkpt><trkpt lat="43.2929137" lon="10.6987147"><ele>57.5</ele><time>2026-05-03T13:02:54.569Z</time></trkpt><trkpt lat="43.2926821" lon="10.698824"><ele>58.0</ele><time>2026-05-03T13:02:55.568Z</time></trkpt><trkpt lat="43.2924505" lon="10.6989467"><ele>55.0</ele><time>2026-05-03T13:02:56.569Z</time></trkpt><trkpt lat="43.2922131" lon="10.6990612"><ele>52.0</ele><time>2026-05-03T13:02:57.569Z</time></trkpt><trkpt lat="43.2919756" lon="10.6991471"><ele>52.0</ele><time>2026-05-03T13:02:58.568Z</time></trkpt><trkpt lat="43.2917361" lon="10.6992188"><ele>52.0</ele><time>2026-05-03T13:02:59.569Z</time></trkpt><trkpt lat="43.2914943" lon="10.6992562"><ele>51.0</ele><time>2026-05-03T13:03:00.568Z</time></trkpt><trkpt lat="43.2912504" lon="10.6992581"><ele>50.0</ele><time>2026-05-03T13:03:01.568Z</time></trkpt><trkpt lat="43.2910041" lon="10.6992461"><ele>50.0</ele><time>2026-05-03T13:03:02.569Z</time></trkpt><trkpt lat="43.2907542" lon="10.6992291"><ele>50.0</ele><time>2026-05-03T13:03:03.569Z</time></trkpt><trkpt lat="43.2905041" lon="10.6992107"><ele>51.5</ele><time>2026-05-03T13:03:04.568Z</time></trkpt><trkpt lat="43.2902536" lon="10.6991936"><ele>53.0</ele><time>2026-05-03T13:03:05.569Z</time></trkpt><trkpt lat="43.2900049" lon="10.6991759"><ele>54.0</ele><time>2026-05-03T13:03:06.567Z</time></trkpt><trkpt lat="43.2897527" lon="10.6991631"><ele>55.0</ele><time>2026-05-03T13:03:07.569Z</time></trkpt><trkpt lat="43.2895036" lon="10.6991459"><ele>55.0</ele><time>2026-05-03T13:03:08.568Z</time></trkpt><trkpt lat="43.2892508" lon="10.6991289"><ele>55.0</ele><time>2026-05-03T13:03:09.567Z</time></trkpt><trkpt lat="43.2890013" lon="10.699096"><ele>56.0</ele><time>2026-05-03T13:03:10.569Z</time></trkpt><trkpt lat="43.2887516" lon="10.69908"><ele>57.0</ele><time>2026-05-03T13:03:11.569Z</time></trkpt><trkpt lat="43.2885015" lon="10.6990618"><ele>57.0</ele><time>2026-05-03T13:03:12.57Z</time></trkpt><trkpt lat="43.2882478" lon="10.6990454"><ele>57.0</ele><time>2026-05-03T13:03:13.569Z</time></trkpt><trkpt lat="43.2879954" lon="10.6990315"><ele>57.0</ele><time>2026-05-03T13:03:14.568Z</time></trkpt><trkpt lat="43.2877503" lon="10.699039"><ele>57.0</ele><time>2026-05-03T13:03:15.569Z</time></trkpt><trkpt lat="43.2875098" lon="10.6990691"><ele>57.0</ele><time>2026-05-03T13:03:16.569Z</time></trkpt><trkpt lat="43.2872717" lon="10.6991291"><ele>57.0</ele><time>2026-05-03T13:03:17.568Z</time></trkpt><trkpt lat="43.28704" lon="10.6992172"><ele>56.5</ele><time>2026-05-03T13:03:18.569Z</time></trkpt><trkpt lat="43.2868088" lon="10.6993186"><ele>56.0</ele><time>2026-05-03T13:03:19.568Z</time></trkpt><trkpt lat="43.2865912" lon="10.6994509"><ele>57.0</ele><time>2026-05-03T13:03:20.568Z</time></trkpt><trkpt lat="43.2863693" lon="10.6995956"><ele>58.0</ele><time>2026-05-03T13:03:21.569Z</time></trkpt><trkpt lat="43.2861517" lon="10.6997439"><ele>58.0</ele><time>2026-05-03T13:03:22.568Z</time></trkpt><trkpt lat="43.2859305" lon="10.6998962"><ele>58.0</ele><time>2026-05-03T13:03:23.568Z</time></trkpt><trkpt lat="43.2857089" lon="10.7000461"><ele>58.0</ele><time>2026-05-03T13:03:24.569Z</time></trkpt><trkpt lat="43.2854884" lon="10.7001919"><ele>58.0</ele><time>2026-05-03T13:03:25.569Z</time></trkpt><trkpt lat="43.2852651" lon="10.7003445"><ele>58.0</ele><time>2026-05-03T13:03:26.569Z</time></trkpt><trkpt lat="43.2850442" lon="10.7004994"><ele>58.0</ele><time>2026-05-03T13:03:27.567Z</time></trkpt><trkpt lat="43.2848178" lon="10.7006546"><ele>57.0</ele><time>2026-05-03T13:03:28.569Z</time></trkpt><trkpt lat="43.2845934" lon="10.700808"><ele>56.0</ele><time>2026-05-03T13:03:29.569Z</time></trkpt><trkpt lat="43.2843707" lon="10.700952"><ele>57.5</ele><time>2026-05-03T13:03:30.57Z</time></trkpt><trkpt lat="43.2841464" lon="10.7011017"><ele>59.0</ele><time>2026-05-03T13:03:31.569Z</time></trkpt><trkpt lat="43.2839256" lon="10.701248"><ele>59.0</ele><time>2026-05-03T13:03:32.569Z</time></trkpt><trkpt lat="43.2837023" lon="10.7013957"><ele>59.0</ele><time>2026-05-03T13:03:33.568Z</time></trkpt><trkpt lat="43.283479" lon="10.7015429"><ele>59.0</ele><time>2026-05-03T13:03:34.568Z</time></trkpt><trkpt lat="43.2832586" lon="10.7016943"><ele>59.0</ele><time>2026-05-03T13:03:35.569Z</time></trkpt><trkpt lat="43.2830414" lon="10.7018621"><ele>61.5</ele><time>2026-05-03T13:03:36.569Z</time></trkpt><trkpt lat="43.2828424" lon="10.7020297"><ele>64.0</ele><time>2026-05-03T13:03:37.569Z</time></trkpt><trkpt lat="43.2826443" lon="10.7022394"><ele>64.0</ele><time>2026-05-03T13:03:38.569Z</time></trkpt><trkpt lat="43.2824566" lon="10.7024624"><ele>64.0</ele><time>2026-05-03T13:03:39.569Z</time></trkpt><trkpt lat="43.2822726" lon="10.7026949"><ele>61.5</ele><time>2026-05-03T13:03:40.569Z</time></trkpt><trkpt lat="43.2820878" lon="10.7029321"><ele>59.0</ele><time>2026-05-03T13:03:41.569Z</time></trkpt><trkpt lat="43.2819145" lon="10.7031523"><ele>59.0</ele><time>2026-05-03T13:03:42.567Z</time></trkpt><trkpt lat="43.2817277" lon="10.7033839"><ele>59.0</ele><time>2026-05-03T13:03:43.568Z</time></trkpt><trkpt lat="43.2815449" lon="10.7036116"><ele>60.0</ele><time>2026-05-03T13:03:44.569Z</time></trkpt><trkpt lat="43.2813637" lon="10.7038456"><ele>61.0</ele><time>2026-05-03T13:03:45.568Z</time></trkpt><trkpt lat="43.2811763" lon="10.7040793"><ele>61.0</ele><time>2026-05-03T13:03:46.569Z</time></trkpt><trkpt lat="43.2809759" lon="10.7043043"><ele>61.0</ele><time>2026-05-03T13:03:47.568Z</time></trkpt><trkpt lat="43.2807604" lon="10.7044995"><ele>64.0</ele><time>2026-05-03T13:03:48.569Z</time></trkpt><trkpt lat="43.2805406" lon="10.7046779"><ele>67.0</ele><time>2026-05-03T13:03:49.569Z</time></trkpt><trkpt lat="43.280319" lon="10.7048202"><ele>67.0</ele><time>2026-05-03T13:03:50.57Z</time></trkpt><trkpt lat="43.2800841" lon="10.7049445"><ele>67.0</ele><time>2026-05-03T13:03:51.568Z</time></trkpt><trkpt lat="43.2798457" lon="10.7050699"><ele>68.5</ele><time>2026-05-03T13:03:52.568Z</time></trkpt><trkpt lat="43.27961" lon="10.7052007"><ele>70.0</ele><time>2026-05-03T13:03:53.568Z</time></trkpt><trkpt lat="43.2793732" lon="10.7053417"><ele>70.0</ele><time>2026-05-03T13:03:54.569Z</time></trkpt><trkpt lat="43.2791434" lon="10.7054812"><ele>70.0</ele><time>2026-05-03T13:03:55.569Z</time></trkpt><trkpt lat="43.2789118" lon="10.7056134"><ele>67.0</ele><time>2026-05-03T13:03:56.569Z</time></trkpt><trkpt lat="43.2786859" lon="10.705718"><ele>64.0</ele><time>2026-05-03T13:03:57.568Z</time></trkpt><trkpt lat="43.2784559" lon="10.7058156"><ele>64.0</ele><time>2026-05-03T13:03:58.568Z</time></trkpt><trkpt lat="43.2782228" lon="10.7058477"><ele>64.0</ele><time>2026-05-03T13:03:59.569Z</time></trkpt><trkpt lat="43.2779924" lon="10.7058357"><ele>64.0</ele><time>2026-05-03T13:04:00.569Z</time></trkpt><trkpt lat="43.2777568" lon="10.7057963"><ele>64.0</ele><time>2026-05-03T13:04:01.569Z</time></trkpt><trkpt lat="43.2775096" lon="10.7057421"><ele>64.5</ele><time>2026-05-03T13:04:02.57Z</time></trkpt><trkpt lat="43.2772666" lon="10.7056799"><ele>65.0</ele><time>2026-05-03T13:04:03.569Z</time></trkpt><trkpt lat="43.2770205" lon="10.7056169"><ele>65.0</ele><time>2026-05-03T13:04:04.567Z</time></trkpt><trkpt lat="43.2767759" lon="10.7055465"><ele>65.0</ele><time>2026-05-03T13:04:05.569Z</time></trkpt><trkpt lat="43.2765323" lon="10.7054813"><ele>71.5</ele><time>2026-05-03T13:04:06.569Z</time></trkpt><trkpt lat="43.2762854" lon="10.7054246"><ele>78.0</ele><time>2026-05-03T13:04:07.567Z</time></trkpt><trkpt lat="43.2760463" lon="10.7053645"><ele>78.0</ele><time>2026-05-03T13:04:08.569Z</time></trkpt><trkpt lat="43.2758015" lon="10.7053013"><ele>78.0</ele><time>2026-05-03T13:04:09.569Z</time></trkpt><trkpt lat="43.275554" lon="10.7052323"><ele>70.0</ele><time>2026-05-03T13:04:10.57Z</time></trkpt><trkpt lat="43.2753124" lon="10.7051617"><ele>62.0</ele><time>2026-05-03T13:04:11.568Z</time></trkpt><trkpt lat="43.2750729" lon="10.7050886"><ele>62.0</ele><time>2026-05-03T13:04:12.569Z</time></trkpt><trkpt lat="43.2748241" lon="10.705017"><ele>62.0</ele><time>2026-05-03T13:04:13.569Z</time></trkpt><trkpt lat="43.2745769" lon="10.7049496"><ele>64.5</ele><time>2026-05-03T13:04:14.569Z</time></trkpt><trkpt lat="43.2743402" lon="10.7048898"><ele>67.0</ele><time>2026-05-03T13:04:15.569Z</time></trkpt><trkpt lat="43.2741128" lon="10.7048357"><ele>67.5</ele><time>2026-05-03T13:04:16.569Z</time></trkpt><trkpt lat="43.2738813" lon="10.7048127"><ele>68.0</ele><time>2026-05-03T13:04:17.568Z</time></trkpt><trkpt lat="43.2736431" lon="10.7048164"><ele>68.0</ele><time>2026-05-03T13:04:18.569Z</time></trkpt><trkpt lat="43.273411" lon="10.7048522"><ele>68.0</ele><time>2026-05-03T13:04:19.568Z</time></trkpt><trkpt lat="43.2731766" lon="10.7049084"><ele>66.0</ele><time>2026-05-03T13:04:20.569Z</time></trkpt><trkpt lat="43.2729452" lon="10.7049969"><ele>64.0</ele><time>2026-05-03T13:04:21.567Z</time></trkpt><trkpt lat="43.2727074" lon="10.7050901"><ele>64.0</ele><time>2026-05-03T13:04:22.569Z</time></trkpt><trkpt lat="43.2724681" lon="10.705163"><ele>64.0</ele><time>2026-05-03T13:04:23.569Z</time></trkpt><trkpt lat="43.2722293" lon="10.7052539"><ele>63.5</ele><time>2026-05-03T13:04:24.567Z</time></trkpt><trkpt lat="43.2719875" lon="10.7053498"><ele>63.0</ele><time>2026-05-03T13:04:25.569Z</time></trkpt><trkpt lat="43.2717405" lon="10.7054333"><ele>63.0</ele><time>2026-05-03T13:04:26.567Z</time></trkpt><trkpt lat="43.2714918" lon="10.7055232"><ele>63.0</ele><time>2026-05-03T13:04:27.568Z</time></trkpt><trkpt lat="43.2712433" lon="10.7056036"><ele>63.0</ele><time>2026-05-03T13:04:28.569Z</time></trkpt><trkpt lat="43.2709958" lon="10.7056846"><ele>63.0</ele><time>2026-05-03T13:04:29.568Z</time></trkpt><trkpt lat="43.2707466" lon="10.7057684"><ele>63.0</ele><time>2026-05-03T13:04:30.568Z</time></trkpt><trkpt lat="43.2705" lon="10.705852"><ele>63.0</ele><time>2026-05-03T13:04:31.567Z</time></trkpt><trkpt lat="43.2702517" lon="10.7059431"><ele>63.0</ele><time>2026-05-03T13:04:32.569Z</time></trkpt><trkpt lat="43.2700019" lon="10.7060337"><ele>63.0</ele><time>2026-05-03T13:04:33.568Z</time></trkpt><trkpt lat="43.2697562" lon="10.7061124"><ele>63.0</ele><time>2026-05-03T13:04:34.568Z</time></trkpt><trkpt lat="43.2695096" lon="10.7061984"><ele>63.0</ele><time>2026-05-03T13:04:35.569Z</time></trkpt><trkpt lat="43.2692705" lon="10.706284"><ele>63.0</ele><time>2026-05-03T13:04:36.568Z</time></trkpt><trkpt lat="43.2690304" lon="10.7063679"><ele>63.0</ele><time>2026-05-03T13:04:37.568Z</time></trkpt><trkpt lat="43.2688011" lon="10.7064525"><ele>64.5</ele><time>2026-05-03T13:04:38.568Z</time></trkpt><trkpt lat="43.2685741" lon="10.706538"><ele>66.0</ele><time>2026-05-03T13:04:39.569Z</time></trkpt><trkpt lat="43.2683545" lon="10.7066178"><ele>66.0</ele><time>2026-05-03T13:04:40.567Z</time></trkpt><trkpt lat="43.2681347" lon="10.7066963"><ele>66.0</ele><time>2026-05-03T13:04:41.568Z</time></trkpt><trkpt lat="43.2679178" lon="10.7067631"><ele>66.0</ele><time>2026-05-03T13:04:42.568Z</time></trkpt><trkpt lat="43.2677063" lon="10.7068171"><ele>66.0</ele><time>2026-05-03T13:04:43.568Z</time></trkpt><trkpt lat="43.267492" lon="10.7068443"><ele>66.0</ele><time>2026-05-03T13:04:44.568Z</time></trkpt><trkpt lat="43.2672659" lon="10.7068377"><ele>66.0</ele><time>2026-05-03T13:04:45.568Z</time></trkpt><trkpt lat="43.2670278" lon="10.7068209"><ele>67.0</ele><time>2026-05-03T13:04:46.568Z</time></trkpt><trkpt lat="43.266785" lon="10.7067818"><ele>68.0</ele><time>2026-05-03T13:04:47.569Z</time></trkpt><trkpt lat="43.2665377" lon="10.7067491"><ele>69.0</ele><time>2026-05-03T13:04:48.568Z</time></trkpt><trkpt lat="43.2662933" lon="10.7067176"><ele>70.0</ele><time>2026-05-03T13:04:49.57Z</time></trkpt><trkpt lat="43.2660456" lon="10.7066936"><ele>70.0</ele><time>2026-05-03T13:04:50.569Z</time></trkpt><trkpt lat="43.2657992" lon="10.7066641"><ele>70.0</ele><time>2026-05-03T13:04:51.569Z</time></trkpt><trkpt lat="43.2655566" lon="10.7066345"><ele>69.0</ele><time>2026-05-03T13:04:52.569Z</time></trkpt><trkpt lat="43.2653139" lon="10.7066058"><ele>68.0</ele><time>2026-05-03T13:04:53.568Z</time></trkpt><trkpt lat="43.2650784" lon="10.7065705"><ele>68.0</ele><time>2026-05-03T13:04:54.569Z</time></trkpt><trkpt lat="43.2648486" lon="10.7065314"><ele>68.0</ele><time>2026-05-03T13:04:55.569Z</time></trkpt><trkpt lat="43.2646216" lon="10.7065092"><ele>68.5</ele><time>2026-05-03T13:04:56.569Z</time></trkpt><trkpt lat="43.2643934" lon="10.706521"><ele>69.0</ele><time>2026-05-03T13:04:57.568Z</time></trkpt><trkpt lat="43.2641657" lon="10.7065711"><ele>70.0</ele><time>2026-05-03T13:04:58.568Z</time></trkpt><trkpt lat="43.2639447" lon="10.7066571"><ele>71.0</ele><time>2026-05-03T13:04:59.568Z</time></trkpt><trkpt lat="43.2637328" lon="10.7067791"><ele>70.5</ele><time>2026-05-03T13:05:00.568Z</time></trkpt><trkpt lat="43.2635338" lon="10.7069308"><ele>70.0</ele><time>2026-05-03T13:05:01.569Z</time></trkpt><trkpt lat="43.2633424" lon="10.707093"><ele>70.0</ele><time>2026-05-03T13:05:02.569Z</time></trkpt><trkpt lat="43.2631581" lon="10.7072828"><ele>70.0</ele><time>2026-05-03T13:05:03.568Z</time></trkpt><trkpt lat="43.2629761" lon="10.7074635"><ele>69.5</ele><time>2026-05-03T13:05:04.569Z</time></trkpt><trkpt lat="43.2627853" lon="10.7076545"><ele>69.0</ele><time>2026-05-03T13:05:05.569Z</time></trkpt><trkpt lat="43.2626003" lon="10.7078243"><ele>69.0</ele><time>2026-05-03T13:05:06.57Z</time></trkpt><trkpt lat="43.2624178" lon="10.7079992"><ele>69.0</ele><time>2026-05-03T13:05:07.569Z</time></trkpt><trkpt lat="43.2622304" lon="10.7081883"><ele>69.0</ele><time>2026-05-03T13:05:08.569Z</time></trkpt><trkpt lat="43.2620467" lon="10.7083701"><ele>69.0</ele><time>2026-05-03T13:05:09.569Z</time></trkpt><trkpt lat="43.2618668" lon="10.7085485"><ele>69.0</ele><time>2026-05-03T13:05:10.567Z</time></trkpt><trkpt lat="43.2616849" lon="10.7087306"><ele>70.5</ele><time>2026-05-03T13:05:11.57Z</time></trkpt><trkpt lat="43.2614992" lon="10.7089073"><ele>72.0</ele><time>2026-05-03T13:05:12.568Z</time></trkpt><trkpt lat="43.2613033" lon="10.7090704"><ele>72.0</ele><time>2026-05-03T13:05:13.569Z</time></trkpt><trkpt lat="43.2610971" lon="10.709212"><ele>72.0</ele><time>2026-05-03T13:05:14.568Z</time></trkpt><trkpt lat="43.2608861" lon="10.7093373"><ele>74.0</ele><time>2026-05-03T13:05:15.569Z</time></trkpt><trkpt lat="43.2606698" lon="10.7094557"><ele>76.0</ele><time>2026-05-03T13:05:16.569Z</time></trkpt><trkpt lat="43.2604527" lon="10.709572"><ele>76.0</ele><time>2026-05-03T13:05:17.57Z</time></trkpt><trkpt lat="43.2602361" lon="10.709698"><ele>76.0</ele><time>2026-05-03T13:05:18.568Z</time></trkpt><trkpt lat="43.2600167" lon="10.7098208"><ele>76.0</ele><time>2026-05-03T13:05:19.569Z</time></trkpt><trkpt lat="43.2597996" lon="10.7099465"><ele>76.0</ele><time>2026-05-03T13:05:20.567Z</time></trkpt><trkpt lat="43.2595871" lon="10.710077"><ele>76.0</ele><time>2026-05-03T13:05:21.569Z</time></trkpt><trkpt lat="43.2593708" lon="10.7102038"><ele>76.0</ele><time>2026-05-03T13:05:22.569Z</time></trkpt><trkpt lat="43.2591544" lon="10.7103216"><ele>76.0</ele><time>2026-05-03T13:05:23.567Z</time></trkpt><trkpt lat="43.2589341" lon="10.7104242"><ele>76.0</ele><time>2026-05-03T13:05:24.567Z</time></trkpt><trkpt lat="43.2587042" lon="10.7104939"><ele>76.0</ele><time>2026-05-03T13:05:25.568Z</time></trkpt><trkpt lat="43.2584703" lon="10.7105285"><ele>76.0</ele><time>2026-05-03T13:05:26.569Z</time></trkpt><trkpt lat="43.2582337" lon="10.7105284"><ele>78.0</ele><time>2026-05-03T13:05:27.568Z</time></trkpt><trkpt lat="43.2580035" lon="10.710491"><ele>80.0</ele><time>2026-05-03T13:05:28.57Z</time></trkpt><trkpt lat="43.2577778" lon="10.7104261"><ele>80.0</ele><time>2026-05-03T13:05:29.568Z</time></trkpt><trkpt lat="43.2575632" lon="10.7103123"><ele>80.0</ele><time>2026-05-03T13:05:30.568Z</time></trkpt><trkpt lat="43.2573474" lon="10.7102002"><ele>78.0</ele><time>2026-05-03T13:05:31.568Z</time></trkpt><trkpt lat="43.2571354" lon="10.7100696"><ele>76.0</ele><time>2026-05-03T13:05:32.569Z</time></trkpt><trkpt lat="43.2569242" lon="10.7099312"><ele>76.0</ele><time>2026-05-03T13:05:33.569Z</time></trkpt><trkpt lat="43.2567066" lon="10.7097968"><ele>76.0</ele><time>2026-05-03T13:05:34.569Z</time></trkpt><trkpt lat="43.2564906" lon="10.7096591"><ele>77.0</ele><time>2026-05-03T13:05:35.568Z</time></trkpt><trkpt lat="43.2562704" lon="10.7095227"><ele>78.0</ele><time>2026-05-03T13:05:36.568Z</time></trkpt><trkpt lat="43.2560474" lon="10.7093886"><ele>78.0</ele><time>2026-05-03T13:05:37.568Z</time></trkpt><trkpt lat="43.2558245" lon="10.7092549"><ele>78.0</ele><time>2026-05-03T13:05:38.567Z</time></trkpt><trkpt lat="43.2555998" lon="10.7091184"><ele>81.5</ele><time>2026-05-03T13:05:39.567Z</time></trkpt><trkpt lat="43.2553781" lon="10.7089812"><ele>85.0</ele><time>2026-05-03T13:05:40.568Z</time></trkpt><trkpt lat="43.2551523" lon="10.7088486"><ele>85.0</ele><time>2026-05-03T13:05:41.569Z</time></trkpt><trkpt lat="43.2549313" lon="10.7087126"><ele>85.0</ele><time>2026-05-03T13:05:42.567Z</time></trkpt><trkpt lat="43.254713" lon="10.7085776"><ele>82.0</ele><time>2026-05-03T13:05:43.568Z</time></trkpt><trkpt lat="43.2544948" lon="10.7084477"><ele>79.0</ele><time>2026-05-03T13:05:44.568Z</time></trkpt><trkpt lat="43.254283" lon="10.7083286"><ele>79.0</ele><time>2026-05-03T13:05:45.569Z</time></trkpt><trkpt lat="43.2540674" lon="10.7082305"><ele>79.0</ele><time>2026-05-03T13:05:46.569Z</time></trkpt><trkpt lat="43.25385" lon="10.7081522"><ele>79.0</ele><time>2026-05-03T13:05:47.567Z</time></trkpt><trkpt lat="43.2536226" lon="10.7081263"><ele>79.0</ele><time>2026-05-03T13:05:48.568Z</time></trkpt><trkpt lat="43.2533908" lon="10.7081225"><ele>79.0</ele><time>2026-05-03T13:05:49.568Z</time></trkpt><trkpt lat="43.253162" lon="10.7081376"><ele>79.0</ele><time>2026-05-03T13:05:50.569Z</time></trkpt><trkpt lat="43.2529315" lon="10.7081852"><ele>78.5</ele><time>2026-05-03T13:05:51.568Z</time></trkpt><trkpt lat="43.2526891" lon="10.7082515"><ele>78.0</ele><time>2026-05-03T13:05:52.569Z</time></trkpt><trkpt lat="43.2524574" lon="10.708301"><ele>78.0</ele><time>2026-05-03T13:05:53.569Z</time></trkpt><trkpt lat="43.2522202" lon="10.7083526"><ele>78.0</ele><time>2026-05-03T13:05:54.568Z</time></trkpt><trkpt lat="43.2519807" lon="10.7083976"><ele>78.0</ele><time>2026-05-03T13:05:55.569Z</time></trkpt><trkpt lat="43.2517382" lon="10.7084513"><ele>78.0</ele><time>2026-05-03T13:05:56.569Z</time></trkpt><trkpt lat="43.2515039" lon="10.7084868"><ele>77.5</ele><time>2026-05-03T13:05:57.569Z</time></trkpt><trkpt lat="43.2512641" lon="10.7085577"><ele>77.0</ele><time>2026-05-03T13:05:58.569Z</time></trkpt><trkpt lat="43.2510282" lon="10.7085952"><ele>78.0</ele><time>2026-05-03T13:05:59.569Z</time></trkpt><trkpt lat="43.2507881" lon="10.7086434"><ele>79.0</ele><time>2026-05-03T13:06:00.568Z</time></trkpt><trkpt lat="43.2505512" lon="10.7086883"><ele>80.0</ele><time>2026-05-03T13:06:01.568Z</time></trkpt><trkpt lat="43.2503092" lon="10.7087353"><ele>81.0</ele><time>2026-05-03T13:06:02.569Z</time></trkpt><trkpt lat="43.2500734" lon="10.7087876"><ele>81.0</ele><time>2026-05-03T13:06:03.569Z</time></trkpt><trkpt lat="43.249836" lon="10.7088402"><ele>81.0</ele><time>2026-05-03T13:06:04.567Z</time></trkpt><trkpt lat="43.2495962" lon="10.7088935"><ele>81.0</ele><time>2026-05-03T13:06:05.569Z</time></trkpt><trkpt lat="43.2493597" lon="10.7089483"><ele>81.0</ele><time>2026-05-03T13:06:06.567Z</time></trkpt><trkpt lat="43.2491194" lon="10.7090029"><ele>81.0</ele><time>2026-05-03T13:06:07.568Z</time></trkpt><trkpt lat="43.2488853" lon="10.7090474"><ele>81.0</ele><time>2026-05-03T13:06:08.568Z</time></trkpt><trkpt lat="43.2486548" lon="10.7090853"><ele>81.0</ele><time>2026-05-03T13:06:09.57Z</time></trkpt><trkpt lat="43.248429" lon="10.7091422"><ele>81.0</ele><time>2026-05-03T13:06:10.568Z</time></trkpt><trkpt lat="43.2482045" lon="10.7092214"><ele>81.0</ele><time>2026-05-03T13:06:11.568Z</time></trkpt><trkpt lat="43.2479873" lon="10.709334"><ele>81.0</ele><time>2026-05-03T13:06:12.567Z</time></trkpt><trkpt lat="43.247798" lon="10.7094598"><ele>81.0</ele><time>2026-05-03T13:06:13.569Z</time></trkpt><trkpt lat="43.2476133" lon="10.7096227"><ele>80.66666666666667</ele><time>2026-05-03T13:06:14.57Z</time></trkpt><trkpt lat="43.2474326" lon="10.7097977"><ele>80.33333333333334</ele><time>2026-05-03T13:06:15.568Z</time></trkpt><trkpt lat="43.2472734" lon="10.7100224"><ele>80.0</ele><time>2026-05-03T13:06:16.568Z</time></trkpt><trkpt lat="43.2471094" lon="10.7102408"><ele>82.5</ele><time>2026-05-03T13:06:17.569Z</time></trkpt><trkpt lat="43.2469396" lon="10.7104857"><ele>85.0</ele><time>2026-05-03T13:06:18.568Z</time></trkpt><trkpt lat="43.2467695" lon="10.7107251"><ele>85.0</ele><time>2026-05-03T13:06:19.569Z</time></trkpt><trkpt lat="43.2465929" lon="10.7109607"><ele>85.0</ele><time>2026-05-03T13:06:20.569Z</time></trkpt><trkpt lat="43.2464215" lon="10.7111956"><ele>85.5</ele><time>2026-05-03T13:06:21.568Z</time></trkpt><trkpt lat="43.2462432" lon="10.7114337"><ele>86.0</ele><time>2026-05-03T13:06:22.569Z</time></trkpt><trkpt lat="43.2460591" lon="10.7116594"><ele>86.0</ele><time>2026-05-03T13:06:23.569Z</time></trkpt><trkpt lat="43.2458662" lon="10.7118632"><ele>86.0</ele><time>2026-05-03T13:06:24.569Z</time></trkpt><trkpt lat="43.2456533" lon="10.7120458"><ele>86.0</ele><time>2026-05-03T13:06:25.567Z</time></trkpt><trkpt lat="43.2454334" lon="10.7122019"><ele>86.0</ele><time>2026-05-03T13:06:26.568Z</time></trkpt><trkpt lat="43.2452083" lon="10.7123573"><ele>86.0</ele><time>2026-05-03T13:06:27.569Z</time></trkpt><trkpt lat="43.2449875" lon="10.7125011"><ele>86.0</ele><time>2026-05-03T13:06:28.568Z</time></trkpt><trkpt lat="43.2447665" lon="10.7126542"><ele>85.0</ele><time>2026-05-03T13:06:29.569Z</time></trkpt><trkpt lat="43.2445468" lon="10.7128079"><ele>84.0</ele><time>2026-05-03T13:06:30.569Z</time></trkpt><trkpt lat="43.2443227" lon="10.7129685"><ele>84.0</ele><time>2026-05-03T13:06:31.57Z</time></trkpt><trkpt lat="43.2441048" lon="10.7131176"><ele>84.0</ele><time>2026-05-03T13:06:32.569Z</time></trkpt><trkpt lat="43.2438764" lon="10.7132913"><ele>84.0</ele><time>2026-05-03T13:06:33.568Z</time></trkpt><trkpt lat="43.2436636" lon="10.7134439"><ele>84.0</ele><time>2026-05-03T13:06:34.569Z</time></trkpt><trkpt lat="43.2434502" lon="10.7136052"><ele>84.0</ele><time>2026-05-03T13:06:35.568Z</time></trkpt><trkpt lat="43.2432382" lon="10.7137529"><ele>84.0</ele><time>2026-05-03T13:06:36.569Z</time></trkpt><trkpt lat="43.243025" lon="10.7139003"><ele>85.0</ele><time>2026-05-03T13:06:37.569Z</time></trkpt><trkpt lat="43.2428088" lon="10.7140575"><ele>86.0</ele><time>2026-05-03T13:06:38.568Z</time></trkpt><trkpt lat="43.2425904" lon="10.7142029"><ele>86.0</ele><time>2026-05-03T13:06:39.567Z</time></trkpt><trkpt lat="43.2423796" lon="10.7143388"><ele>86.0</ele><time>2026-05-03T13:06:40.569Z</time></trkpt><trkpt lat="43.2421704" lon="10.7144667"><ele>87.5</ele><time>2026-05-03T13:06:41.569Z</time></trkpt><trkpt lat="43.2419536" lon="10.7146173"><ele>89.0</ele><time>2026-05-03T13:06:42.569Z</time></trkpt><trkpt lat="43.241742" lon="10.7147635"><ele>89.0</ele><time>2026-05-03T13:06:43.569Z</time></trkpt><trkpt lat="43.2415319" lon="10.7149229"><ele>89.0</ele><time>2026-05-03T13:06:44.569Z</time></trkpt><trkpt lat="43.2413259" lon="10.7150961"><ele>90.0</ele><time>2026-05-03T13:06:45.569Z</time></trkpt><trkpt lat="43.241124" lon="10.7152799"><ele>91.0</ele><time>2026-05-03T13:06:46.568Z</time></trkpt><trkpt lat="43.2409266" lon="10.7154728"><ele>91.0</ele><time>2026-05-03T13:06:47.569Z</time></trkpt><trkpt lat="43.2407395" lon="10.7156535"><ele>91.0</ele><time>2026-05-03T13:06:48.569Z</time></trkpt><trkpt lat="43.2405461" lon="10.715849"><ele>91.0</ele><time>2026-05-03T13:06:49.569Z</time></trkpt><trkpt lat="43.2403501" lon="10.7160442"><ele>91.0</ele><time>2026-05-03T13:06:50.569Z</time></trkpt><trkpt lat="43.2401463" lon="10.7162408"><ele>91.0</ele><time>2026-05-03T13:06:51.569Z</time></trkpt><trkpt lat="43.2399454" lon="10.716433"><ele>91.0</ele><time>2026-05-03T13:06:52.568Z</time></trkpt><trkpt lat="43.2397418" lon="10.7166149"><ele>94.0</ele><time>2026-05-03T13:06:53.567Z</time></trkpt><trkpt lat="43.2395271" lon="10.7167705"><ele>97.0</ele><time>2026-05-03T13:06:54.569Z</time></trkpt><trkpt lat="43.2393125" lon="10.7168765"><ele>95.0</ele><time>2026-05-03T13:06:55.568Z</time></trkpt><trkpt lat="43.2390876" lon="10.7169456"><ele>93.0</ele><time>2026-05-03T13:06:56.569Z</time></trkpt><trkpt lat="43.2388538" lon="10.7169728"><ele>93.0</ele><time>2026-05-03T13:06:57.57Z</time></trkpt><trkpt lat="43.238611" lon="10.7169712"><ele>93.0</ele><time>2026-05-03T13:06:58.567Z</time></trkpt><trkpt lat="43.2383622" lon="10.7169716"><ele>92.5</ele><time>2026-05-03T13:06:59.57Z</time></trkpt><trkpt lat="43.2381149" lon="10.7169509"><ele>92.0</ele><time>2026-05-03T13:07:00.569Z</time></trkpt><trkpt lat="43.2378608" lon="10.716945"><ele>92.0</ele><time>2026-05-03T13:07:01.569Z</time></trkpt><trkpt lat="43.2376139" lon="10.7169288"><ele>92.0</ele><time>2026-05-03T13:07:02.569Z</time></trkpt><trkpt lat="43.237368" lon="10.716923"><ele>93.0</ele><time>2026-05-03T13:07:03.568Z</time></trkpt><trkpt lat="43.237136" lon="10.71692"><ele>94.0</ele><time>2026-05-03T13:07:04.569Z</time></trkpt><trkpt lat="43.2369041" lon="10.7169462"><ele>94.0</ele><time>2026-05-03T13:07:05.568Z</time></trkpt><trkpt lat="43.2366808" lon="10.7169885"><ele>94.0</ele><time>2026-05-03T13:07:06.569Z</time></trkpt><trkpt lat="43.2364687" lon="10.7170788"><ele>94.0</ele><time>2026-05-03T13:07:07.568Z</time></trkpt><trkpt lat="43.2362651" lon="10.7172026"><ele>96.0</ele><time>2026-05-03T13:07:08.569Z</time></trkpt><trkpt lat="43.2360664" lon="10.7173601"><ele>98.0</ele><time>2026-05-03T13:07:09.569Z</time></trkpt><trkpt lat="43.235877" lon="10.7175216"><ele>98.0</ele><time>2026-05-03T13:07:10.568Z</time></trkpt><trkpt lat="43.2356734" lon="10.7177106"><ele>98.0</ele><time>2026-05-03T13:07:11.568Z</time></trkpt><trkpt lat="43.2354694" lon="10.7179013"><ele>97.0</ele><time>2026-05-03T13:07:12.569Z</time></trkpt><trkpt lat="43.2352666" lon="10.7180952"><ele>96.0</ele><time>2026-05-03T13:07:13.568Z</time></trkpt><trkpt lat="43.2350643" lon="10.718284"><ele>96.0</ele><time>2026-05-03T13:07:14.569Z</time></trkpt><trkpt lat="43.2348643" lon="10.7184761"><ele>96.0</ele><time>2026-05-03T13:07:15.568Z</time></trkpt><trkpt lat="43.2346609" lon="10.7186676"><ele>96.0</ele><time>2026-05-03T13:07:16.568Z</time></trkpt><trkpt lat="43.2344591" lon="10.7188568"><ele>96.0</ele><time>2026-05-03T13:07:17.569Z</time></trkpt><trkpt lat="43.2342546" lon="10.7190554"><ele>96.0</ele><time>2026-05-03T13:07:18.568Z</time></trkpt><trkpt lat="43.2340596" lon="10.7192391"><ele>96.0</ele><time>2026-05-03T13:07:19.569Z</time></trkpt><trkpt lat="43.23386" lon="10.7194274"><ele>97.5</ele><time>2026-05-03T13:07:20.568Z</time></trkpt><trkpt lat="43.2336603" lon="10.7195996"><ele>99.0</ele><time>2026-05-03T13:07:21.568Z</time></trkpt><trkpt lat="43.2334473" lon="10.7197489"><ele>99.0</ele><time>2026-05-03T13:07:22.567Z</time></trkpt><trkpt lat="43.2332269" lon="10.7198703"><ele>99.0</ele><time>2026-05-03T13:07:23.568Z</time></trkpt><trkpt lat="43.233" lon="10.7199637"><ele>101.5</ele><time>2026-05-03T13:07:24.568Z</time></trkpt><trkpt lat="43.2327662" lon="10.7200493"><ele>104.0</ele><time>2026-05-03T13:07:25.568Z</time></trkpt><trkpt lat="43.2325372" lon="10.7201262"><ele>103.5</ele><time>2026-05-03T13:07:26.568Z</time></trkpt><trkpt lat="43.232301" lon="10.7201964"><ele>103.0</ele><time>2026-05-03T13:07:27.569Z</time></trkpt><trkpt lat="43.2320637" lon="10.7202443"><ele>103.0</ele><time>2026-05-03T13:07:28.57Z</time></trkpt><trkpt lat="43.231825" lon="10.7202615"><ele>103.0</ele><time>2026-05-03T13:07:29.568Z</time></trkpt><trkpt lat="43.2315848" lon="10.7202556"><ele>105.0</ele><time>2026-05-03T13:07:30.569Z</time></trkpt><trkpt lat="43.2313416" lon="10.7202166"><ele>107.0</ele><time>2026-05-03T13:07:31.567Z</time></trkpt><trkpt lat="43.2310999" lon="10.7201519"><ele>107.0</ele><time>2026-05-03T13:07:32.568Z</time></trkpt><trkpt lat="43.2308606" lon="10.7200881"><ele>107.0</ele><time>2026-05-03T13:07:33.569Z</time></trkpt><trkpt lat="43.2306201" lon="10.7200243"><ele>107.5</ele><time>2026-05-03T13:07:34.569Z</time></trkpt><trkpt lat="43.2303801" lon="10.7199554"><ele>108.0</ele><time>2026-05-03T13:07:35.569Z</time></trkpt><trkpt lat="43.2301318" lon="10.7198997"><ele>108.0</ele><time>2026-05-03T13:07:36.569Z</time></trkpt><trkpt lat="43.2298893" lon="10.7198383"><ele>108.0</ele><time>2026-05-03T13:07:37.569Z</time></trkpt><trkpt lat="43.2296643" lon="10.7197702"><ele>107.0</ele><time>2026-05-03T13:07:38.567Z</time></trkpt><trkpt lat="43.2294262" lon="10.7197153"><ele>106.0</ele><time>2026-05-03T13:07:39.569Z</time></trkpt><trkpt lat="43.2292062" lon="10.7196341"><ele>106.0</ele><time>2026-05-03T13:07:40.568Z</time></trkpt><trkpt lat="43.2289985" lon="10.7195482"><ele>106.0</ele><time>2026-05-03T13:07:41.568Z</time></trkpt><trkpt lat="43.2288062" lon="10.7194654"><ele>106.0</ele><time>2026-05-03T13:07:42.568Z</time></trkpt><trkpt lat="43.2286298" lon="10.719388"><ele>106.5</ele><time>2026-05-03T13:07:43.569Z</time></trkpt><trkpt lat="43.2284761" lon="10.7193176"><ele>107.0</ele><time>2026-05-03T13:07:44.567Z</time></trkpt><trkpt lat="43.2283349" lon="10.7192801"><ele>107.5</ele><time>2026-05-03T13:07:45.569Z</time></trkpt><trkpt lat="43.2282091" lon="10.7192587"><ele>108.0</ele><time>2026-05-03T13:07:46.568Z</time></trkpt><trkpt lat="43.2281062" lon="10.7192881"><ele>108.0</ele><time>2026-05-03T13:07:47.569Z</time></trkpt><trkpt lat="43.2280203" lon="10.7193357"><ele>108.00000000000001</ele><time>2026-05-03T13:07:48.568Z</time></trkpt><trkpt lat="43.2279461" lon="10.7194092"><ele>108.00000000000001</ele><time>2026-05-03T13:07:49.568Z</time></trkpt><trkpt lat="43.2278628" lon="10.7195234"><ele>108.0</ele><time>2026-05-03T13:07:50.569Z</time></trkpt><trkpt lat="43.2277858" lon="10.71964"><ele>108.0</ele><time>2026-05-03T13:07:51.567Z</time></trkpt><trkpt lat="43.2276971" lon="10.7197711"><ele>108.25</ele><time>2026-05-03T13:07:52.567Z</time></trkpt><trkpt lat="43.2275989" lon="10.7198768"><ele>108.5</ele><time>2026-05-03T13:07:53.568Z</time></trkpt><trkpt lat="43.2274895" lon="10.7199354"><ele>108.75</ele><time>2026-05-03T13:07:54.567Z</time></trkpt><trkpt lat="43.2273811" lon="10.7199104"><ele>109.0</ele><time>2026-05-03T13:07:55.568Z</time></trkpt><trkpt lat="43.2272551" lon="10.7198787"><ele>109.0</ele><time>2026-05-03T13:07:56.568Z</time></trkpt><trkpt lat="43.2271319" lon="10.7198547"><ele>109.0</ele><time>2026-05-03T13:07:57.569Z</time></trkpt><trkpt lat="43.2270073" lon="10.7198697"><ele>109.0</ele><time>2026-05-03T13:07:58.568Z</time></trkpt><trkpt lat="43.226892" lon="10.7199266"><ele>109.0</ele><time>2026-05-03T13:07:59.568Z</time></trkpt><trkpt lat="43.2267809" lon="10.7200367"><ele>109.0</ele><time>2026-05-03T13:08:00.567Z</time></trkpt><trkpt lat="43.2266989" lon="10.7201468"><ele>109.0</ele><time>2026-05-03T13:08:01.569Z</time></trkpt><trkpt lat="43.2266534" lon="10.7202722"><ele>109.0</ele><time>2026-05-03T13:08:02.569Z</time></trkpt><trkpt lat="43.2266375" lon="10.7204271"><ele>109.0</ele><time>2026-05-03T13:08:03.569Z</time></trkpt><trkpt lat="43.226665" lon="10.7205856"><ele>109.0</ele><time>2026-05-03T13:08:04.569Z</time></trkpt><trkpt lat="43.2267088" lon="10.7207675"><ele>110.5</ele><time>2026-05-03T13:08:05.569Z</time></trkpt><trkpt lat="43.2267431" lon="10.7209496"><ele>112.0</ele><time>2026-05-03T13:08:06.568Z</time></trkpt><trkpt lat="43.2267582" lon="10.7211258"><ele>113.5</ele><time>2026-05-03T13:08:07.569Z</time></trkpt><trkpt lat="43.2267441" lon="10.7212951"><ele>115.0</ele><time>2026-05-03T13:08:08.568Z</time></trkpt><trkpt lat="43.2266952" lon="10.7214515"><ele>115.75</ele><time>2026-05-03T13:08:09.568Z</time></trkpt><trkpt lat="43.2266255" lon="10.721593"><ele>116.5</ele><time>2026-05-03T13:08:10.567Z</time></trkpt><trkpt lat="43.2265124" lon="10.7217385"><ele>117.25</ele><time>2026-05-03T13:08:11.569Z</time></trkpt><trkpt lat="43.2263916" lon="10.7219012"><ele>118.0</ele><time>2026-05-03T13:08:12.568Z</time></trkpt><trkpt lat="43.226268" lon="10.7220615"><ele>118.0</ele><time>2026-05-03T13:08:13.568Z</time></trkpt><trkpt lat="43.2261478" lon="10.7222293"><ele>118.0</ele><time>2026-05-03T13:08:14.569Z</time></trkpt><trkpt lat="43.226027" lon="10.722388"><ele>118.0</ele><time>2026-05-03T13:08:15.569Z</time></trkpt><trkpt lat="43.225891" lon="10.7225386"><ele>118.0</ele><time>2026-05-03T13:08:16.567Z</time></trkpt><trkpt lat="43.2257502" lon="10.722653"><ele>118.0</ele><time>2026-05-03T13:08:17.567Z</time></trkpt><trkpt lat="43.2255805" lon="10.7227471"><ele>118.0</ele><time>2026-05-03T13:08:18.568Z</time></trkpt><trkpt lat="43.2254012" lon="10.7228349"><ele>120.33333333333334</ele><time>2026-05-03T13:08:19.568Z</time></trkpt><trkpt lat="43.225223" lon="10.7229076"><ele>122.66666666666666</ele><time>2026-05-03T13:08:20.567Z</time></trkpt><trkpt lat="43.2250624" lon="10.7229699"><ele>125.0</ele><time>2026-05-03T13:08:21.568Z</time></trkpt><trkpt lat="43.2249175" lon="10.7230552"><ele>121.66666666666666</ele><time>2026-05-03T13:08:22.569Z</time></trkpt><trkpt lat="43.2247748" lon="10.7231741"><ele>118.33333333333334</ele><time>2026-05-03T13:08:23.568Z</time></trkpt><trkpt lat="43.2246364" lon="10.723323"><ele>115.0</ele><time>2026-05-03T13:08:24.568Z</time></trkpt><trkpt lat="43.2245158" lon="10.7234711"><ele>117.5</ele><time>2026-05-03T13:08:25.568Z</time></trkpt><trkpt lat="43.2244118" lon="10.7236165"><ele>120.0</ele><time>2026-05-03T13:08:26.569Z</time></trkpt><trkpt lat="43.2243352" lon="10.7237747"><ele>122.5</ele><time>2026-05-03T13:08:27.568Z</time></trkpt><trkpt lat="43.2242777" lon="10.7239448"><ele>125.0</ele><time>2026-05-03T13:08:28.568Z</time></trkpt><trkpt lat="43.2242399" lon="10.7241199"><ele>125.0</ele><time>2026-05-03T13:08:29.568Z</time></trkpt><trkpt lat="43.224251" lon="10.7242948"><ele>125.0</ele><time>2026-05-03T13:08:30.567Z</time></trkpt><trkpt lat="43.2242524" lon="10.72445"><ele>125.0</ele><time>2026-05-03T13:08:31.568Z</time></trkpt><trkpt lat="43.2242307" lon="10.7245719"><ele>125.0</ele><time>2026-05-03T13:08:32.568Z</time></trkpt><trkpt lat="43.2241864" lon="10.7246475"><ele>125.0</ele><time>2026-05-03T13:08:33.567Z</time></trkpt><trkpt lat="43.2241284" lon="10.7246817"><ele>127.0</ele><time>2026-05-03T13:08:34.57Z</time></trkpt><trkpt lat="43.2240652" lon="10.7246768"><ele>129.0</ele><time>2026-05-03T13:08:35.568Z</time></trkpt><trkpt lat="43.2239747" lon="10.7246361"><ele>131.0</ele><time>2026-05-03T13:08:36.568Z</time></trkpt><trkpt lat="43.2238871" lon="10.7246331"><ele>133.0</ele><time>2026-05-03T13:08:37.568Z</time></trkpt><trkpt lat="43.2237813" lon="10.7247019"><ele>135.0</ele><time>2026-05-03T13:08:38.568Z</time></trkpt><trkpt lat="43.2237055" lon="10.7247722"><ele>135.0</ele><time>2026-05-03T13:08:39.568Z</time></trkpt><trkpt lat="43.2236093" lon="10.7248272"><ele>135.0</ele><time>2026-05-03T13:08:40.567Z</time></trkpt><trkpt lat="43.22351" lon="10.7248361"><ele>135.0</ele><time>2026-05-03T13:08:41.568Z</time></trkpt><trkpt lat="43.2234184" lon="10.7247943"><ele>135.0</ele><time>2026-05-03T13:08:42.569Z</time></trkpt><trkpt lat="43.2233238" lon="10.7247428"><ele>135.0</ele><time>2026-05-03T13:08:43.569Z</time></trkpt><trkpt lat="43.2232271" lon="10.7247443"><ele>135.0</ele><time>2026-05-03T13:08:44.568Z</time></trkpt><trkpt lat="43.2231491" lon="10.7247903"><ele>135.0</ele><time>2026-05-03T13:08:45.567Z</time></trkpt><trkpt lat="43.2230989" lon="10.7248739"><ele>135.0</ele><time>2026-05-03T13:08:46.57Z</time></trkpt><trkpt lat="43.2230821" lon="10.7249881"><ele>135.0</ele><time>2026-05-03T13:08:47.569Z</time></trkpt><trkpt lat="43.2230974" lon="10.725097"><ele>135.0</ele><time>2026-05-03T13:08:48.568Z</time></trkpt><trkpt lat="43.2231213" lon="10.7252136"><ele>135.0</ele><time>2026-05-03T13:08:49.569Z</time></trkpt><trkpt lat="43.2231037" lon="10.7253436"><ele>134.5</ele><time>2026-05-03T13:08:50.569Z</time></trkpt><trkpt lat="43.2230465" lon="10.7254627"><ele>134.0</ele><time>2026-05-03T13:08:51.568Z</time></trkpt><trkpt lat="43.2229662" lon="10.7255859"><ele>133.5</ele><time>2026-05-03T13:08:52.568Z</time></trkpt><trkpt lat="43.2229086" lon="10.7257241"><ele>133.0</ele><time>2026-05-03T13:08:53.568Z</time></trkpt><trkpt lat="43.2228711" lon="10.7258829"><ele>135.75</ele><time>2026-05-03T13:08:54.57Z</time></trkpt><trkpt lat="43.2228721" lon="10.7260666"><ele>138.5</ele><time>2026-05-03T13:08:55.567Z</time></trkpt><trkpt lat="43.2228882" lon="10.726268"><ele>141.25</ele><time>2026-05-03T13:08:56.57Z</time></trkpt><trkpt lat="43.2229225" lon="10.7264853"><ele>144.0</ele><time>2026-05-03T13:08:57.567Z</time></trkpt><trkpt lat="43.2229664" lon="10.726683"><ele>144.0</ele><time>2026-05-03T13:08:58.568Z</time></trkpt><trkpt lat="43.2230237" lon="10.726857"><ele>144.0</ele><time>2026-05-03T13:08:59.569Z</time></trkpt><trkpt lat="43.2230884" lon="10.7269924"><ele>144.0</ele><time>2026-05-03T13:09:00.57Z</time></trkpt><trkpt lat="43.2231338" lon="10.7271303"><ele>144.0</ele><time>2026-05-03T13:09:01.568Z</time></trkpt><trkpt lat="43.2231503" lon="10.7272496"><ele>146.25</ele><time>2026-05-03T13:09:02.569Z</time></trkpt><trkpt lat="43.2231372" lon="10.7273802"><ele>148.5</ele><time>2026-05-03T13:09:03.568Z</time></trkpt><trkpt lat="43.2230958" lon="10.7275286"><ele>150.75</ele><time>2026-05-03T13:09:04.569Z</time></trkpt><trkpt lat="43.2230268" lon="10.7276856"><ele>153.0</ele><time>2026-05-03T13:09:05.568Z</time></trkpt><trkpt lat="43.2229384" lon="10.7278076"><ele>154.5</ele><time>2026-05-03T13:09:06.568Z</time></trkpt><trkpt lat="43.2228165" lon="10.7279242"><ele>156.0</ele><time>2026-05-03T13:09:07.568Z</time></trkpt><trkpt lat="43.2226841" lon="10.7280243"><ele>157.5</ele><time>2026-05-03T13:09:08.568Z</time></trkpt><trkpt lat="43.2225558" lon="10.7281293"><ele>159.0</ele><time>2026-05-03T13:09:09.569Z</time></trkpt><trkpt lat="43.2224504" lon="10.7282675"><ele>159.0</ele><time>2026-05-03T13:09:10.569Z</time></trkpt><trkpt lat="43.2223699" lon="10.7284212"><ele>159.0</ele><time>2026-05-03T13:09:11.568Z</time></trkpt><trkpt lat="43.2223233" lon="10.7285792"><ele>159.0</ele><time>2026-05-03T13:09:12.568Z</time></trkpt><trkpt lat="43.2223063" lon="10.7287362"><ele>159.0</ele><time>2026-05-03T13:09:13.567Z</time></trkpt><trkpt lat="43.2222987" lon="10.7288887"><ele>160.5</ele><time>2026-05-03T13:09:14.57Z</time></trkpt><trkpt lat="43.2222743" lon="10.7290313"><ele>162.0</ele><time>2026-05-03T13:09:15.567Z</time></trkpt><trkpt lat="43.2221797" lon="10.7291265"><ele>163.5</ele><time>2026-05-03T13:09:16.568Z</time></trkpt><trkpt lat="43.222087" lon="10.7292244"><ele>165.0</ele><time>2026-05-03T13:09:17.568Z</time></trkpt><trkpt lat="43.2219609" lon="10.7293001"><ele>169.0</ele><time>2026-05-03T13:09:18.569Z</time></trkpt><trkpt lat="43.2218314" lon="10.7294088"><ele>173.0</ele><time>2026-05-03T13:09:19.569Z</time></trkpt><trkpt lat="43.2217034" lon="10.7295303"><ele>177.0</ele><time>2026-05-03T13:09:20.569Z</time></trkpt><trkpt lat="43.22156" lon="10.729692"><ele>173.33333333333334</ele><time>2026-05-03T13:09:21.568Z</time></trkpt><trkpt lat="43.2214179" lon="10.7298439"><ele>169.66666666666669</ele><time>2026-05-03T13:09:22.568Z</time></trkpt><trkpt lat="43.2212757" lon="10.7299569"><ele>166.0</ele><time>2026-05-03T13:09:23.569Z</time></trkpt><trkpt lat="43.2211427" lon="10.7300605"><ele>166.0</ele><time>2026-05-03T13:09:24.569Z</time></trkpt><trkpt lat="43.2210238" lon="10.7301492"><ele>166.0</ele><time>2026-05-03T13:09:25.569Z</time></trkpt><trkpt lat="43.2209386" lon="10.7302434"><ele>166.0</ele><time>2026-05-03T13:09:26.569Z</time></trkpt><trkpt lat="43.2208847" lon="10.730371"><ele>166.0</ele><time>2026-05-03T13:09:27.568Z</time></trkpt><trkpt lat="43.220859" lon="10.7305217"><ele>168.0</ele><time>2026-05-03T13:09:28.568Z</time></trkpt><trkpt lat="43.2208666" lon="10.7306971"><ele>170.0</ele><time>2026-05-03T13:09:29.568Z</time></trkpt><trkpt lat="43.2208861" lon="10.7309176"><ele>172.0</ele><time>2026-05-03T13:09:30.569Z</time></trkpt><trkpt lat="43.2208864" lon="10.7311545"><ele>173.0</ele><time>2026-05-03T13:09:31.567Z</time></trkpt><trkpt lat="43.2208895" lon="10.7313921"><ele>174.0</ele><time>2026-05-03T13:09:32.568Z</time></trkpt><trkpt lat="43.2209187" lon="10.7316021"><ele>175.0</ele><time>2026-05-03T13:09:33.568Z</time></trkpt><trkpt lat="43.2209602" lon="10.7318399"><ele>175.0</ele><time>2026-05-03T13:09:34.568Z</time></trkpt><trkpt lat="43.2210142" lon="10.7320737"><ele>175.0</ele><time>2026-05-03T13:09:35.568Z</time></trkpt><trkpt lat="43.2210701" lon="10.7322906"><ele>175.0</ele><time>2026-05-03T13:09:36.567Z</time></trkpt><trkpt lat="43.2211308" lon="10.7324896"><ele>175.0</ele><time>2026-05-03T13:09:37.57Z</time></trkpt><trkpt lat="43.221193" lon="10.7326711"><ele>175.0</ele><time>2026-05-03T13:09:38.568Z</time></trkpt><trkpt lat="43.2212364" lon="10.7328329"><ele>175.0</ele><time>2026-05-03T13:09:39.569Z</time></trkpt><trkpt lat="43.2212487" lon="10.7329944"><ele>175.0</ele><time>2026-05-03T13:09:40.568Z</time></trkpt><trkpt lat="43.2212258" lon="10.7331379"><ele>176.25</ele><time>2026-05-03T13:09:41.567Z</time></trkpt><trkpt lat="43.2211618" lon="10.7332573"><ele>177.5</ele><time>2026-05-03T13:09:42.569Z</time></trkpt><trkpt lat="43.2210672" lon="10.7333569"><ele>178.75</ele><time>2026-05-03T13:09:43.569Z</time></trkpt><trkpt lat="43.2209692" lon="10.7334621"><ele>180.0</ele><time>2026-05-03T13:09:44.568Z</time></trkpt><trkpt lat="43.2208906" lon="10.733615"><ele>183.0</ele><time>2026-05-03T13:09:45.567Z</time></trkpt><trkpt lat="43.2208363" lon="10.7337906"><ele>186.0</ele><time>2026-05-03T13:09:46.567Z</time></trkpt><trkpt lat="43.2208045" lon="10.7339976"><ele>189.0</ele><time>2026-05-03T13:09:47.567Z</time></trkpt><trkpt lat="43.2207853" lon="10.7342215"><ele>190.0</ele><time>2026-05-03T13:09:48.57Z</time></trkpt><trkpt lat="43.2207375" lon="10.7344332"><ele>191.0</ele><time>2026-05-03T13:09:49.568Z</time></trkpt><trkpt lat="43.2206872" lon="10.7346362"><ele>192.0</ele><time>2026-05-03T13:09:50.569Z</time></trkpt><trkpt lat="43.2206331" lon="10.734821"><ele>192.0</ele><time>2026-05-03T13:09:51.568Z</time></trkpt><trkpt lat="43.220606" lon="10.7349905"><ele>192.0</ele><time>2026-05-03T13:09:52.568Z</time></trkpt><trkpt lat="43.2205791" lon="10.7351594"><ele>192.0</ele><time>2026-05-03T13:09:53.569Z</time></trkpt><trkpt lat="43.2205675" lon="10.7352946"><ele>192.0</ele><time>2026-05-03T13:09:54.568Z</time></trkpt><trkpt lat="43.2205314" lon="10.735398"><ele>192.0</ele><time>2026-05-03T13:09:55.569Z</time></trkpt><trkpt lat="43.2204702" lon="10.7354628"><ele>192.0</ele><time>2026-05-03T13:09:56.568Z</time></trkpt><trkpt lat="43.2203854" lon="10.7354603"><ele>192.0</ele><time>2026-05-03T13:09:57.569Z</time></trkpt><trkpt lat="43.2203" lon="10.7353971"><ele>192.0</ele><time>2026-05-03T13:09:58.568Z</time></trkpt><trkpt lat="43.2202215" lon="10.7352914"><ele>192.0</ele><time>2026-05-03T13:09:59.569Z</time></trkpt><trkpt lat="43.220148" lon="10.7351309"><ele>192.0</ele><time>2026-05-03T13:10:00.568Z</time></trkpt><trkpt lat="43.2200668" lon="10.7349633"><ele>192.0</ele><time>2026-05-03T13:10:01.569Z</time></trkpt><trkpt lat="43.2199807" lon="10.7348144"><ele>192.0</ele><time>2026-05-03T13:10:02.569Z</time></trkpt><trkpt lat="43.219879" lon="10.7347025"><ele>192.0</ele><time>2026-05-03T13:10:03.568Z</time></trkpt><trkpt lat="43.2197569" lon="10.7346263"><ele>192.0</ele><time>2026-05-03T13:10:04.568Z</time></trkpt><trkpt lat="43.2196095" lon="10.7345746"><ele>195.33333333333331</ele><time>2026-05-03T13:10:05.568Z</time></trkpt><trkpt lat="43.2194347" lon="10.7345309"><ele>198.66666666666666</ele><time>2026-05-03T13:10:06.569Z</time></trkpt><trkpt lat="43.2192536" lon="10.7344838"><ele>202.0</ele><time>2026-05-03T13:10:07.569Z</time></trkpt><trkpt lat="43.2190583" lon="10.7344389"><ele>201.33333333333331</ele><time>2026-05-03T13:10:08.567Z</time></trkpt><trkpt lat="43.2188684" lon="10.7343866"><ele>200.66666666666669</ele><time>2026-05-03T13:10:09.568Z</time></trkpt><trkpt lat="43.2186876" lon="10.7343204"><ele>200.0</ele><time>2026-05-03T13:10:10.567Z</time></trkpt><trkpt lat="43.2185219" lon="10.73423"><ele>200.0</ele><time>2026-05-03T13:10:11.568Z</time></trkpt><trkpt lat="43.2183645" lon="10.7341099"><ele>200.0</ele><time>2026-05-03T13:10:12.568Z</time></trkpt><trkpt lat="43.2182209" lon="10.7339704"><ele>200.0</ele><time>2026-05-03T13:10:13.568Z</time></trkpt><trkpt lat="43.2181087" lon="10.7338239"><ele>201.5</ele><time>2026-05-03T13:10:14.568Z</time></trkpt><trkpt lat="43.2180191" lon="10.7336818"><ele>203.0</ele><time>2026-05-03T13:10:15.57Z</time></trkpt><trkpt lat="43.2179192" lon="10.7335851"><ele>204.5</ele><time>2026-05-03T13:10:16.567Z</time></trkpt><trkpt lat="43.2178137" lon="10.733518"><ele>206.0</ele><time>2026-05-03T13:10:17.568Z</time></trkpt><trkpt lat="43.2177158" lon="10.733442"><ele>206.0</ele><time>2026-05-03T13:10:18.569Z</time></trkpt><trkpt lat="43.2176434" lon="10.7333328"><ele>206.0</ele><time>2026-05-03T13:10:19.568Z</time></trkpt><trkpt lat="43.217608" lon="10.7331857"><ele>206.0</ele><time>2026-05-03T13:10:20.568Z</time></trkpt><trkpt lat="43.2176077" lon="10.7330023"><ele>206.0</ele><time>2026-05-03T13:10:21.568Z</time></trkpt><trkpt lat="43.217604" lon="10.7328277"><ele>204.75</ele><time>2026-05-03T13:10:22.568Z</time></trkpt><trkpt lat="43.2175786" lon="10.732649"><ele>203.5</ele><time>2026-05-03T13:10:23.569Z</time></trkpt><trkpt lat="43.2175147" lon="10.7324813"><ele>202.25</ele><time>2026-05-03T13:10:24.568Z</time></trkpt><trkpt lat="43.217423" lon="10.7323236"><ele>201.0</ele><time>2026-05-03T13:10:25.567Z</time></trkpt><trkpt lat="43.2173262" lon="10.7322023"><ele>203.25</ele><time>2026-05-03T13:10:26.568Z</time></trkpt><trkpt lat="43.2172065" lon="10.732105"><ele>205.5</ele><time>2026-05-03T13:10:27.569Z</time></trkpt><trkpt lat="43.2170709" lon="10.732043"><ele>207.75</ele><time>2026-05-03T13:10:28.568Z</time></trkpt><trkpt lat="43.2169325" lon="10.7319972"><ele>210.0</ele><time>2026-05-03T13:10:29.568Z</time></trkpt><trkpt lat="43.2167884" lon="10.7320246"><ele>210.0</ele><time>2026-05-03T13:10:30.567Z</time></trkpt><trkpt lat="43.2166381" lon="10.7320853"><ele>210.0</ele><time>2026-05-03T13:10:31.568Z</time></trkpt><trkpt lat="43.2164896" lon="10.73215"><ele>210.0</ele><time>2026-05-03T13:10:32.569Z</time></trkpt><trkpt lat="43.216339" lon="10.7321787"><ele>208.33333333333331</ele><time>2026-05-03T13:10:33.568Z</time></trkpt><trkpt lat="43.2161827" lon="10.7321841"><ele>206.66666666666666</ele><time>2026-05-03T13:10:34.569Z</time></trkpt><trkpt lat="43.2160348" lon="10.732153"><ele>205.0</ele><time>2026-05-03T13:10:35.568Z</time></trkpt><trkpt lat="43.2158995" lon="10.7320759"><ele>205.0</ele><time>2026-05-03T13:10:36.569Z</time></trkpt><trkpt lat="43.2157897" lon="10.7319454"><ele>205.0</ele><time>2026-05-03T13:10:37.568Z</time></trkpt><trkpt lat="43.2157112" lon="10.7317896"><ele>205.0</ele><time>2026-05-03T13:10:38.567Z</time></trkpt><trkpt lat="43.215633" lon="10.7316491"><ele>205.0</ele><time>2026-05-03T13:10:39.568Z</time></trkpt><trkpt lat="43.2155522" lon="10.7315341"><ele>205.0</ele><time>2026-05-03T13:10:40.569Z</time></trkpt><trkpt lat="43.2154527" lon="10.7314521"><ele>205.0</ele><time>2026-05-03T13:10:41.567Z</time></trkpt><trkpt lat="43.215332" lon="10.7314089"><ele>205.0</ele><time>2026-05-03T13:10:42.568Z</time></trkpt><trkpt lat="43.2151949" lon="10.7314204"><ele>205.0</ele><time>2026-05-03T13:10:43.568Z</time></trkpt><trkpt lat="43.2150403" lon="10.7314704"><ele>205.0</ele><time>2026-05-03T13:10:44.568Z</time></trkpt><trkpt lat="43.2148762" lon="10.7315334"><ele>205.0</ele><time>2026-05-03T13:10:45.569Z</time></trkpt><trkpt lat="43.2147234" lon="10.7315807"><ele>205.0</ele><time>2026-05-03T13:10:46.568Z</time></trkpt><trkpt lat="43.2145803" lon="10.7316302"><ele>203.5</ele><time>2026-05-03T13:10:47.57Z</time></trkpt><trkpt lat="43.2144623" lon="10.7317054"><ele>202.0</ele><time>2026-05-03T13:10:48.568Z</time></trkpt><trkpt lat="43.2143577" lon="10.731822"><ele>200.5</ele><time>2026-05-03T13:10:49.569Z</time></trkpt><trkpt lat="43.2142669" lon="10.7319735"><ele>199.0</ele><time>2026-05-03T13:10:50.567Z</time></trkpt><trkpt lat="43.2141818" lon="10.7321682"><ele>202.0</ele><time>2026-05-03T13:10:51.568Z</time></trkpt><trkpt lat="43.2140849" lon="10.7323716"><ele>205.0</ele><time>2026-05-03T13:10:52.569Z</time></trkpt><trkpt lat="43.2139813" lon="10.7325389"><ele>208.0</ele><time>2026-05-03T13:10:53.568Z</time></trkpt><trkpt lat="43.2138825" lon="10.732676"><ele>210.5</ele><time>2026-05-03T13:10:54.567Z</time></trkpt><trkpt lat="43.213775" lon="10.7327724"><ele>213.0</ele><time>2026-05-03T13:10:55.569Z</time></trkpt><trkpt lat="43.2136356" lon="10.732818"><ele>215.5</ele><time>2026-05-03T13:10:56.568Z</time></trkpt><trkpt lat="43.2134995" lon="10.7328125"><ele>218.0</ele><time>2026-05-03T13:10:57.568Z</time></trkpt><trkpt lat="43.2133491" lon="10.7327851"><ele>217.25</ele><time>2026-05-03T13:10:58.568Z</time></trkpt><trkpt lat="43.2132108" lon="10.7327106"><ele>216.5</ele><time>2026-05-03T13:10:59.569Z</time></trkpt><trkpt lat="43.2130789" lon="10.732612"><ele>215.75</ele><time>2026-05-03T13:11:00.568Z</time></trkpt><trkpt lat="43.212962" lon="10.7324972"><ele>215.0</ele><time>2026-05-03T13:11:01.568Z</time></trkpt><trkpt lat="43.2128664" lon="10.7323835"><ele>215.0</ele><time>2026-05-03T13:11:02.568Z</time></trkpt><trkpt lat="43.2127618" lon="10.7322889"><ele>215.0</ele><time>2026-05-03T13:11:03.568Z</time></trkpt><trkpt lat="43.2126523" lon="10.7322018"><ele>215.0</ele><time>2026-05-03T13:11:04.567Z</time></trkpt><trkpt lat="43.2125022" lon="10.7321523"><ele>215.0</ele><time>2026-05-03T13:11:05.569Z</time></trkpt><trkpt lat="43.2123402" lon="10.7321187"><ele>217.0</ele><time>2026-05-03T13:11:06.569Z</time></trkpt><trkpt lat="43.2121433" lon="10.732099"><ele>219.0</ele><time>2026-05-03T13:11:07.568Z</time></trkpt><trkpt lat="43.211936" lon="10.7321014"><ele>221.0</ele><time>2026-05-03T13:11:08.568Z</time></trkpt><trkpt lat="43.211709" lon="10.7321286"><ele>221.0</ele><time>2026-05-03T13:11:09.569Z</time></trkpt><trkpt lat="43.2114914" lon="10.7321597"><ele>221.0</ele><time>2026-05-03T13:11:10.568Z</time></trkpt><trkpt lat="43.2112854" lon="10.7321917"><ele>221.0</ele><time>2026-05-03T13:11:11.568Z</time></trkpt><trkpt lat="43.2110974" lon="10.7322234"><ele>220.66666666666669</ele><time>2026-05-03T13:11:12.567Z</time></trkpt><trkpt lat="43.2109198" lon="10.7322462"><ele>220.33333333333331</ele><time>2026-05-03T13:11:13.567Z</time></trkpt><trkpt lat="43.210744" lon="10.7322879"><ele>220.0</ele><time>2026-05-03T13:11:14.569Z</time></trkpt><trkpt lat="43.2105682" lon="10.7323417"><ele>219.66666666666666</ele><time>2026-05-03T13:11:15.567Z</time></trkpt><trkpt lat="43.2103862" lon="10.7324132"><ele>219.33333333333331</ele><time>2026-05-03T13:11:16.57Z</time></trkpt><trkpt lat="43.2101991" lon="10.7324892"><ele>219.0</ele><time>2026-05-03T13:11:17.568Z</time></trkpt><trkpt lat="43.2100098" lon="10.7325619"><ele>218.33333333333331</ele><time>2026-05-03T13:11:18.568Z</time></trkpt><trkpt lat="43.2098142" lon="10.7326461"><ele>217.66666666666666</ele><time>2026-05-03T13:11:19.569Z</time></trkpt><trkpt lat="43.2096268" lon="10.7327117"><ele>217.0</ele><time>2026-05-03T13:11:20.568Z</time></trkpt><trkpt lat="43.2094546" lon="10.7327839"><ele>222.66666666666666</ele><time>2026-05-03T13:11:21.567Z</time></trkpt><trkpt lat="43.2092929" lon="10.7328495"><ele>228.33333333333331</ele><time>2026-05-03T13:11:22.567Z</time></trkpt><trkpt lat="43.2091436" lon="10.7329086"><ele>234.0</ele><time>2026-05-03T13:11:23.567Z</time></trkpt><trkpt lat="43.208997" lon="10.7329474"><ele>237.0</ele><time>2026-05-03T13:11:24.568Z</time></trkpt><trkpt lat="43.20885" lon="10.7329633"><ele>240.0</ele><time>2026-05-03T13:11:25.568Z</time></trkpt><trkpt lat="43.2086988" lon="10.7329429"><ele>243.0</ele><time>2026-05-03T13:11:26.568Z</time></trkpt><trkpt lat="43.2085465" lon="10.7329046"><ele>243.0</ele><time>2026-05-03T13:11:27.568Z</time></trkpt><trkpt lat="43.2083928" lon="10.732844"><ele>243.0</ele><time>2026-05-03T13:11:28.569Z</time></trkpt><trkpt lat="43.2082475" lon="10.7327727"><ele>243.0</ele><time>2026-05-03T13:11:29.569Z</time></trkpt><trkpt lat="43.2080932" lon="10.7327102"><ele>236.0</ele><time>2026-05-03T13:11:30.569Z</time></trkpt><trkpt lat="43.2079647" lon="10.7326373"><ele>229.0</ele><time>2026-05-03T13:11:31.569Z</time></trkpt><trkpt lat="43.2078353" lon="10.7325792"><ele>222.0</ele><time>2026-05-03T13:11:32.567Z</time></trkpt><trkpt lat="43.2077116" lon="10.7325192"><ele>215.0</ele><time>2026-05-03T13:11:33.567Z</time></trkpt><trkpt lat="43.20761" lon="10.7324863"><ele>215.00000000000003</ele><time>2026-05-03T13:11:34.569Z</time></trkpt><trkpt lat="43.2075222" lon="10.7324805"><ele>215.0</ele><time>2026-05-03T13:11:35.569Z</time></trkpt><trkpt lat="43.2074462" lon="10.7325178"><ele>215.0</ele><time>2026-05-03T13:11:36.569Z</time></trkpt><trkpt lat="43.207387" lon="10.732587"><ele>215.0</ele><time>2026-05-03T13:11:37.567Z</time></trkpt><trkpt lat="43.2073638" lon="10.7326916"><ele>215.00000000000003</ele><time>2026-05-03T13:11:38.568Z</time></trkpt><trkpt lat="43.2073638" lon="10.7328271"><ele>215.0</ele><time>2026-05-03T13:11:39.568Z</time></trkpt><trkpt lat="43.2073666" lon="10.7329729"><ele>216.5</ele><time>2026-05-03T13:11:40.569Z</time></trkpt><trkpt lat="43.2073495" lon="10.7331545"><ele>218.0</ele><time>2026-05-03T13:11:41.568Z</time></trkpt><trkpt lat="43.2073352" lon="10.7333337"><ele>219.5</ele><time>2026-05-03T13:11:42.568Z</time></trkpt><trkpt lat="43.2073207" lon="10.7335232"><ele>221.0</ele><time>2026-05-03T13:11:43.568Z</time></trkpt><trkpt lat="43.2073048" lon="10.7336834"><ele>225.4</ele><time>2026-05-03T13:11:44.568Z</time></trkpt><trkpt lat="43.2072696" lon="10.7338225"><ele>229.8</ele><time>2026-05-03T13:11:45.569Z</time></trkpt><trkpt lat="43.2072318" lon="10.7339467"><ele>234.20000000000002</ele><time>2026-05-03T13:11:46.568Z</time></trkpt><trkpt lat="43.2071809" lon="10.7340295"><ele>238.60000000000002</ele><time>2026-05-03T13:11:47.567Z</time></trkpt><trkpt lat="43.2070785" lon="10.7340293"><ele>243.0</ele><time>2026-05-03T13:11:48.57Z</time></trkpt><trkpt lat="43.2069913" lon="10.7340036"><ele>243.0</ele><time>2026-05-03T13:11:49.569Z</time></trkpt><trkpt lat="43.2069249" lon="10.733897"><ele>243.0</ele><time>2026-05-03T13:11:50.569Z</time></trkpt><trkpt lat="43.2067967" lon="10.7335858"><ele>243.0</ele><time>2026-05-03T13:11:52.568Z</time></trkpt><trkpt lat="43.2067244" lon="10.733416"><ele>239.33333333333331</ele><time>2026-05-03T13:11:53.568Z</time></trkpt><trkpt lat="43.2066316" lon="10.733237"><ele>235.66666666666666</ele><time>2026-05-03T13:11:54.569Z</time></trkpt><trkpt lat="43.2064989" lon="10.7331233"><ele>232.0</ele><time>2026-05-03T13:11:55.568Z</time></trkpt><trkpt lat="43.2063729" lon="10.7329997"><ele>232.0</ele><time>2026-05-03T13:11:56.569Z</time></trkpt><trkpt lat="43.2062757" lon="10.7329338"><ele>232.0</ele><time>2026-05-03T13:11:57.568Z</time></trkpt><trkpt lat="43.2061718" lon="10.7329149"><ele>232.0</ele><time>2026-05-03T13:11:58.569Z</time></trkpt><trkpt lat="43.2060709" lon="10.7329312"><ele>232.0</ele><time>2026-05-03T13:11:59.569Z</time></trkpt><trkpt lat="43.205981" lon="10.7330292"><ele>232.0</ele><time>2026-05-03T13:12:00.568Z</time></trkpt><trkpt lat="43.2058607" lon="10.7331808"><ele>232.0</ele><time>2026-05-03T13:12:01.568Z</time></trkpt><trkpt lat="43.2057323" lon="10.7333441"><ele>232.0</ele><time>2026-05-03T13:12:02.568Z</time></trkpt><trkpt lat="43.2055896" lon="10.7335188"><ele>232.0</ele><time>2026-05-03T13:12:03.568Z</time></trkpt><trkpt lat="43.2054397" lon="10.7336976"><ele>234.0</ele><time>2026-05-03T13:12:04.569Z</time></trkpt><trkpt lat="43.2052711" lon="10.73388"><ele>236.0</ele><time>2026-05-03T13:12:05.568Z</time></trkpt><trkpt lat="43.2051039" lon="10.7340408"><ele>238.0</ele><time>2026-05-03T13:12:06.568Z</time></trkpt><trkpt lat="43.2049426" lon="10.7341861"><ele>237.33333333333331</ele><time>2026-05-03T13:12:07.568Z</time></trkpt><trkpt lat="43.2047854" lon="10.7343159"><ele>236.66666666666669</ele><time>2026-05-03T13:12:08.567Z</time></trkpt><trkpt lat="43.2046162" lon="10.7344127"><ele>236.0</ele><time>2026-05-03T13:12:09.568Z</time></trkpt><trkpt lat="43.2044373" lon="10.7344834"><ele>240.66666666666669</ele><time>2026-05-03T13:12:10.568Z</time></trkpt><trkpt lat="43.204248" lon="10.7345211"><ele>245.33333333333331</ele><time>2026-05-03T13:12:11.568Z</time></trkpt><trkpt lat="43.2040412" lon="10.7345702"><ele>250.0</ele><time>2026-05-03T13:12:12.568Z</time></trkpt><trkpt lat="43.2038207" lon="10.7346306"><ele>250.5</ele><time>2026-05-03T13:12:13.568Z</time></trkpt><trkpt lat="43.2035909" lon="10.7346853"><ele>251.0</ele><time>2026-05-03T13:12:14.568Z</time></trkpt><trkpt lat="43.2033731" lon="10.734739"><ele>251.0</ele><time>2026-05-03T13:12:15.568Z</time></trkpt><trkpt lat="43.2031707" lon="10.7347859"><ele>251.0</ele><time>2026-05-03T13:12:16.568Z</time></trkpt><trkpt lat="43.2029833" lon="10.7348261"><ele>251.0</ele><time>2026-05-03T13:12:17.567Z</time></trkpt><trkpt lat="43.2028097" lon="10.7348586"><ele>251.25</ele><time>2026-05-03T13:12:18.567Z</time></trkpt><trkpt lat="43.2026602" lon="10.7348958"><ele>251.5</ele><time>2026-05-03T13:12:19.568Z</time></trkpt><trkpt lat="43.2025264" lon="10.7349533"><ele>251.75</ele><time>2026-05-03T13:12:20.567Z</time></trkpt><trkpt lat="43.2024014" lon="10.735042"><ele>252.0</ele><time>2026-05-03T13:12:21.567Z</time></trkpt><trkpt lat="43.2022812" lon="10.7351683"><ele>257.3333333333333</ele><time>2026-05-03T13:12:22.569Z</time></trkpt><trkpt lat="43.2021598" lon="10.7353196"><ele>262.66666666666663</ele><time>2026-05-03T13:12:23.567Z</time></trkpt><trkpt lat="43.2020439" lon="10.7354678"><ele>268.0</ele><time>2026-05-03T13:12:24.568Z</time></trkpt><trkpt lat="43.2019397" lon="10.7356068"><ele>268.0</ele><time>2026-05-03T13:12:25.567Z</time></trkpt><trkpt lat="43.2018558" lon="10.7357543"><ele>268.0</ele><time>2026-05-03T13:12:26.568Z</time></trkpt><trkpt lat="43.2017942" lon="10.7359302"><ele>268.0</ele><time>2026-05-03T13:12:27.568Z</time></trkpt><trkpt lat="43.2017647" lon="10.7361322"><ele>268.0</ele><time>2026-05-03T13:12:28.569Z</time></trkpt><trkpt lat="43.201741" lon="10.7363453"><ele>269.66666666666663</ele><time>2026-05-03T13:12:29.568Z</time></trkpt><trkpt lat="43.2017106" lon="10.7365917"><ele>271.3333333333333</ele><time>2026-05-03T13:12:30.569Z</time></trkpt><trkpt lat="43.2016755" lon="10.7368399"><ele>273.0</ele><time>2026-05-03T13:12:31.569Z</time></trkpt><trkpt lat="43.2016433" lon="10.7370823"><ele>274.0</ele><time>2026-05-03T13:12:32.568Z</time></trkpt><trkpt lat="43.2016155" lon="10.7373066"><ele>275.0</ele><time>2026-05-03T13:12:33.568Z</time></trkpt><trkpt lat="43.2015855" lon="10.7375173"><ele>276.0</ele><time>2026-05-03T13:12:34.568Z</time></trkpt><trkpt lat="43.2015532" lon="10.7376982"><ele>277.2</ele><time>2026-05-03T13:12:35.568Z</time></trkpt><trkpt lat="43.2015089" lon="10.7378532"><ele>278.40000000000003</ele><time>2026-05-03T13:12:36.568Z</time></trkpt><trkpt lat="43.2014481" lon="10.7379806"><ele>279.6</ele><time>2026-05-03T13:12:37.568Z</time></trkpt><trkpt lat="43.2013673" lon="10.7380416"><ele>280.8</ele><time>2026-05-03T13:12:38.569Z</time></trkpt><trkpt lat="43.2012749" lon="10.7380552"><ele>282.0</ele><time>2026-05-03T13:12:39.569Z</time></trkpt><trkpt lat="43.2011892" lon="10.7380259"><ele>281.4</ele><time>2026-05-03T13:12:40.568Z</time></trkpt><trkpt lat="43.2011108" lon="10.7379541"><ele>280.79999999999995</ele><time>2026-05-03T13:12:41.568Z</time></trkpt><trkpt lat="43.2010479" lon="10.7378475"><ele>280.2</ele><time>2026-05-03T13:12:42.568Z</time></trkpt><trkpt lat="43.2009928" lon="10.7377499"><ele>279.59999999999997</ele><time>2026-05-03T13:12:43.567Z</time></trkpt><trkpt lat="43.2009449" lon="10.7376773"><ele>279.0</ele><time>2026-05-03T13:12:44.568Z</time></trkpt><trkpt lat="43.2008446" lon="10.7376171"><ele>279.0</ele><time>2026-05-03T13:12:46.568Z</time></trkpt><trkpt lat="43.2006899" lon="10.737636"><ele>279.0</ele><time>2026-05-03T13:12:48.568Z</time></trkpt><trkpt lat="43.2005831" lon="10.7376404"><ele>279.0</ele><time>2026-05-03T13:12:49.569Z</time></trkpt><trkpt lat="43.2004757" lon="10.7376421"><ele>279.0</ele><time>2026-05-03T13:12:50.568Z</time></trkpt><trkpt lat="43.2003686" lon="10.7375971"><ele>280.0</ele><time>2026-05-03T13:12:51.568Z</time></trkpt><trkpt lat="43.2001873" lon="10.7374182"><ele>281.0</ele><time>2026-05-03T13:12:53.57Z</time></trkpt><trkpt lat="43.2001047" lon="10.7373318"><ele>282.0</ele><time>2026-05-03T13:12:54.568Z</time></trkpt><trkpt lat="43.2000094" lon="10.737251"><ele>283.0</ele><time>2026-05-03T13:12:55.569Z</time></trkpt><trkpt lat="43.1999045" lon="10.7371944"><ele>282.75</ele><time>2026-05-03T13:12:56.568Z</time></trkpt><trkpt lat="43.1997875" lon="10.7371626"><ele>282.5</ele><time>2026-05-03T13:12:57.568Z</time></trkpt><trkpt lat="43.1996594" lon="10.7371743"><ele>282.25</ele><time>2026-05-03T13:12:58.568Z</time></trkpt><trkpt lat="43.1995318" lon="10.7372032"><ele>282.0</ele><time>2026-05-03T13:12:59.569Z</time></trkpt><trkpt lat="43.1994088" lon="10.737273"><ele>282.0</ele><time>2026-05-03T13:13:00.568Z</time></trkpt><trkpt lat="43.1992829" lon="10.737335"><ele>282.0</ele><time>2026-05-03T13:13:01.568Z</time></trkpt><trkpt lat="43.1991556" lon="10.7373818"><ele>282.0</ele><time>2026-05-03T13:13:02.569Z</time></trkpt><trkpt lat="43.1990278" lon="10.7374424"><ele>282.0</ele><time>2026-05-03T13:13:03.569Z</time></trkpt><trkpt lat="43.1988948" lon="10.7375002"><ele>280.25</ele><time>2026-05-03T13:13:04.568Z</time></trkpt><trkpt lat="43.1987773" lon="10.7375495"><ele>278.5</ele><time>2026-05-03T13:13:05.567Z</time></trkpt><trkpt lat="43.1986602" lon="10.7375968"><ele>276.75</ele><time>2026-05-03T13:13:06.569Z</time></trkpt><trkpt lat="43.198546" lon="10.7376344"><ele>275.0</ele><time>2026-05-03T13:13:07.569Z</time></trkpt><trkpt lat="43.1984448" lon="10.7376639"><ele>275.0</ele><time>2026-05-03T13:13:08.567Z</time></trkpt><trkpt lat="43.1983516" lon="10.7377004"><ele>275.0</ele><time>2026-05-03T13:13:09.568Z</time></trkpt><trkpt lat="43.1982582" lon="10.7377521"><ele>275.0</ele><time>2026-05-03T13:13:10.569Z</time></trkpt><trkpt lat="43.1981706" lon="10.7377946"><ele>275.0</ele><time>2026-05-03T13:13:11.567Z</time></trkpt><trkpt lat="43.1980703" lon="10.7378376"><ele>275.0</ele><time>2026-05-03T13:13:12.568Z</time></trkpt><trkpt lat="43.19796" lon="10.7378759"><ele>276.0</ele><time>2026-05-03T13:13:13.568Z</time></trkpt><trkpt lat="43.1978367" lon="10.7379033"><ele>277.0</ele><time>2026-05-03T13:13:14.568Z</time></trkpt><trkpt lat="43.1977047" lon="10.7379172"><ele>278.0</ele><time>2026-05-03T13:13:15.568Z</time></trkpt><trkpt lat="43.1975645" lon="10.7379157"><ele>279.0</ele><time>2026-05-03T13:13:16.568Z</time></trkpt><trkpt lat="43.1974226" lon="10.7378999"><ele>279.0</ele><time>2026-05-03T13:13:17.568Z</time></trkpt><trkpt lat="43.1972755" lon="10.7378751"><ele>279.0</ele><time>2026-05-03T13:13:18.568Z</time></trkpt><trkpt lat="43.197135" lon="10.7378524"><ele>279.0</ele><time>2026-05-03T13:13:19.568Z</time></trkpt><trkpt lat="43.197011" lon="10.7378287"><ele>279.0</ele><time>2026-05-03T13:13:20.568Z</time></trkpt><trkpt lat="43.1969084" lon="10.7377801"><ele>278.2</ele><time>2026-05-03T13:13:21.567Z</time></trkpt><trkpt lat="43.1968409" lon="10.7376866"><ele>277.4</ele><time>2026-05-03T13:13:22.568Z</time></trkpt><trkpt lat="43.1967987" lon="10.7375651"><ele>276.6</ele><time>2026-05-03T13:13:23.568Z</time></trkpt><trkpt lat="43.196776" lon="10.7374254"><ele>275.8</ele><time>2026-05-03T13:13:24.567Z</time></trkpt><trkpt lat="43.1967477" lon="10.7372675"><ele>275.0</ele><time>2026-05-03T13:13:25.568Z</time></trkpt><trkpt lat="43.1966989" lon="10.7371283"><ele>275.0</ele><time>2026-05-03T13:13:26.569Z</time></trkpt><trkpt lat="43.1966234" lon="10.7370096"><ele>275.0</ele><time>2026-05-03T13:13:27.568Z</time></trkpt><trkpt lat="43.1965327" lon="10.7369346"><ele>275.0</ele><time>2026-05-03T13:13:28.569Z</time></trkpt><trkpt lat="43.1964455" lon="10.7368864"><ele>275.0</ele><time>2026-05-03T13:13:29.568Z</time></trkpt><trkpt lat="43.1963576" lon="10.7368569"><ele>275.0</ele><time>2026-05-03T13:13:30.567Z</time></trkpt><trkpt lat="43.1962658" lon="10.7368372"><ele>273.5</ele><time>2026-05-03T13:13:31.568Z</time></trkpt><trkpt lat="43.1961599" lon="10.7367954"><ele>272.0</ele><time>2026-05-03T13:13:32.568Z</time></trkpt><trkpt lat="43.1960335" lon="10.7367484"><ele>270.5</ele><time>2026-05-03T13:13:33.568Z</time></trkpt><trkpt lat="43.1958984" lon="10.7366967"><ele>269.0</ele><time>2026-05-03T13:13:34.568Z</time></trkpt><trkpt lat="43.1957742" lon="10.736638"><ele>270.25</ele><time>2026-05-03T13:13:35.568Z</time></trkpt><trkpt lat="43.1956536" lon="10.7365825"><ele>271.5</ele><time>2026-05-03T13:13:36.568Z</time></trkpt><trkpt lat="43.1955447" lon="10.7365364"><ele>272.75</ele><time>2026-05-03T13:13:37.567Z</time></trkpt><trkpt lat="43.1954432" lon="10.7364769"><ele>274.0</ele><time>2026-05-03T13:13:38.567Z</time></trkpt><trkpt lat="43.1953532" lon="10.7363849"><ele>274.0</ele><time>2026-05-03T13:13:39.568Z</time></trkpt><trkpt lat="43.1952713" lon="10.7362632"><ele>274.0</ele><time>2026-05-03T13:13:40.568Z</time></trkpt><trkpt lat="43.195198" lon="10.7360832"><ele>274.0</ele><time>2026-05-03T13:13:41.569Z</time></trkpt><trkpt lat="43.1951161" lon="10.7358796"><ele>274.0</ele><time>2026-05-03T13:13:42.568Z</time></trkpt><trkpt lat="43.1950324" lon="10.7356774"><ele>272.5</ele><time>2026-05-03T13:13:43.568Z</time></trkpt><trkpt lat="43.1949651" lon="10.7354753"><ele>271.0</ele><time>2026-05-03T13:13:44.567Z</time></trkpt><trkpt lat="43.1949224" lon="10.7352819"><ele>269.5</ele><time>2026-05-03T13:13:45.568Z</time></trkpt><trkpt lat="43.1949117" lon="10.7350919"><ele>268.0</ele><time>2026-05-03T13:13:46.568Z</time></trkpt><trkpt lat="43.194925" lon="10.7349156"><ele>266.8</ele><time>2026-05-03T13:13:47.57Z</time></trkpt><trkpt lat="43.1949576" lon="10.7347672"><ele>265.6</ele><time>2026-05-03T13:13:48.568Z</time></trkpt><trkpt lat="43.1949758" lon="10.734623"><ele>264.4</ele><time>2026-05-03T13:13:49.567Z</time></trkpt><trkpt lat="43.1949741" lon="10.7344835"><ele>263.2</ele><time>2026-05-03T13:13:50.567Z</time></trkpt><trkpt lat="43.1949362" lon="10.7343494"><ele>262.0</ele><time>2026-05-03T13:13:51.569Z</time></trkpt><trkpt lat="43.1948406" lon="10.7342367"><ele>262.25</ele><time>2026-05-03T13:13:52.568Z</time></trkpt><trkpt lat="43.1947322" lon="10.7341359"><ele>262.5</ele><time>2026-05-03T13:13:53.567Z</time></trkpt><trkpt lat="43.1945988" lon="10.7340344"><ele>262.75</ele><time>2026-05-03T13:13:54.569Z</time></trkpt><trkpt lat="43.1944831" lon="10.7339238"><ele>263.0</ele><time>2026-05-03T13:13:55.568Z</time></trkpt><trkpt lat="43.1943842" lon="10.7338258"><ele>263.0</ele><time>2026-05-03T13:13:56.567Z</time></trkpt><trkpt lat="43.1942983" lon="10.7337492"><ele>263.0</ele><time>2026-05-03T13:13:57.568Z</time></trkpt><trkpt lat="43.1942281" lon="10.7336821"><ele>263.0</ele><time>2026-05-03T13:13:58.568Z</time></trkpt><trkpt lat="43.1941296" lon="10.7336066"><ele>263.0</ele><time>2026-05-03T13:14:00.568Z</time></trkpt><trkpt lat="43.1940534" lon="10.7336367"><ele>263.0</ele><time>2026-05-03T13:14:02.569Z</time></trkpt><trkpt lat="43.193999" lon="10.7337898"><ele>260.6</ele><time>2026-05-03T13:14:04.568Z</time></trkpt><trkpt lat="43.1939656" lon="10.7339055"><ele>258.20000000000005</ele><time>2026-05-03T13:14:05.568Z</time></trkpt><trkpt lat="43.1939266" lon="10.7340318"><ele>255.8</ele><time>2026-05-03T13:14:06.568Z</time></trkpt><trkpt lat="43.193877" lon="10.7341763"><ele>253.4</ele><time>2026-05-03T13:14:07.57Z</time></trkpt><trkpt lat="43.193827" lon="10.7343256"><ele>251.0</ele><time>2026-05-03T13:14:08.568Z</time></trkpt><trkpt lat="43.1937782" lon="10.7344824"><ele>250.5</ele><time>2026-05-03T13:14:09.568Z</time></trkpt><trkpt lat="43.1937322" lon="10.7346618"><ele>250.0</ele><time>2026-05-03T13:14:10.568Z</time></trkpt><trkpt lat="43.1936926" lon="10.7348342"><ele>249.5</ele><time>2026-05-03T13:14:11.568Z</time></trkpt><trkpt lat="43.1936552" lon="10.7349944"><ele>249.0</ele><time>2026-05-03T13:14:12.567Z</time></trkpt><trkpt lat="43.1936228" lon="10.7351492"><ele>249.25</ele><time>2026-05-03T13:14:13.568Z</time></trkpt><trkpt lat="43.1935901" lon="10.7353026"><ele>249.5</ele><time>2026-05-03T13:14:14.568Z</time></trkpt><trkpt lat="43.1935541" lon="10.7354536"><ele>249.75</ele><time>2026-05-03T13:14:15.568Z</time></trkpt><trkpt lat="43.1935255" lon="10.7356192"><ele>250.0</ele><time>2026-05-03T13:14:16.568Z</time></trkpt><trkpt lat="43.1934964" lon="10.7357795"><ele>250.0</ele><time>2026-05-03T13:14:17.567Z</time></trkpt><trkpt lat="43.1934663" lon="10.7359376"><ele>250.0</ele><time>2026-05-03T13:14:18.567Z</time></trkpt><trkpt lat="43.1934342" lon="10.7360812"><ele>250.0</ele><time>2026-05-03T13:14:19.568Z</time></trkpt><trkpt lat="43.1934022" lon="10.736211"><ele>250.0</ele><time>2026-05-03T13:14:20.569Z</time></trkpt><trkpt lat="43.1933559" lon="10.7363279"><ele>250.0</ele><time>2026-05-03T13:14:21.569Z</time></trkpt><trkpt lat="43.1932903" lon="10.7364373"><ele>249.8</ele><time>2026-05-03T13:14:22.567Z</time></trkpt><trkpt lat="43.1932208" lon="10.736517"><ele>249.6</ele><time>2026-05-03T13:14:23.568Z</time></trkpt><trkpt lat="43.1931404" lon="10.7365591"><ele>249.39999999999998</ele><time>2026-05-03T13:14:24.568Z</time></trkpt><trkpt lat="43.1930512" lon="10.736583"><ele>249.2</ele><time>2026-05-03T13:14:25.568Z</time></trkpt><trkpt lat="43.1929502" lon="10.7365939"><ele>249.0</ele><time>2026-05-03T13:14:26.569Z</time></trkpt><trkpt lat="43.1928454" lon="10.7365988"><ele>249.0</ele><time>2026-05-03T13:14:27.567Z</time></trkpt><trkpt lat="43.192648" lon="10.7366515"><ele>249.0</ele><time>2026-05-03T13:14:29.568Z</time></trkpt><trkpt lat="43.1925563" lon="10.7367002"><ele>249.0</ele><time>2026-05-03T13:14:30.568Z</time></trkpt><trkpt lat="43.192479" lon="10.7367719"><ele>249.0</ele><time>2026-05-03T13:14:31.568Z</time></trkpt><trkpt lat="43.1924161" lon="10.7368673"><ele>248.6</ele><time>2026-05-03T13:14:32.568Z</time></trkpt><trkpt lat="43.1923621" lon="10.7369829"><ele>248.2</ele><time>2026-05-03T13:14:33.569Z</time></trkpt><trkpt lat="43.1923191" lon="10.7371089"><ele>247.79999999999998</ele><time>2026-05-03T13:14:34.568Z</time></trkpt><trkpt lat="43.19228" lon="10.7372524"><ele>247.39999999999998</ele><time>2026-05-03T13:14:35.567Z</time></trkpt><trkpt lat="43.1922363" lon="10.7373808"><ele>247.0</ele><time>2026-05-03T13:14:36.568Z</time></trkpt><trkpt lat="43.1921998" lon="10.7375048"><ele>247.0</ele><time>2026-05-03T13:14:37.568Z</time></trkpt><trkpt lat="43.1921631" lon="10.7376257"><ele>247.0</ele><time>2026-05-03T13:14:38.568Z</time></trkpt><trkpt lat="43.1921246" lon="10.7377483"><ele>247.0</ele><time>2026-05-03T13:14:39.568Z</time></trkpt><trkpt lat="43.1920809" lon="10.7378663"><ele>247.0</ele><time>2026-05-03T13:14:40.569Z</time></trkpt><trkpt lat="43.1920231" lon="10.7379659"><ele>247.0</ele><time>2026-05-03T13:14:41.568Z</time></trkpt><trkpt lat="43.1919536" lon="10.7380588"><ele>247.6</ele><time>2026-05-03T13:14:42.569Z</time></trkpt><trkpt lat="43.1918612" lon="10.7381104"><ele>248.2</ele><time>2026-05-03T13:14:43.568Z</time></trkpt><trkpt lat="43.191763" lon="10.7381587"><ele>248.8</ele><time>2026-05-03T13:14:44.568Z</time></trkpt><trkpt lat="43.1916609" lon="10.7381617"><ele>249.4</ele><time>2026-05-03T13:14:45.568Z</time></trkpt><trkpt lat="43.1915583" lon="10.7381463"><ele>250.0</ele><time>2026-05-03T13:14:46.567Z</time></trkpt><trkpt lat="43.1914573" lon="10.7381348"><ele>250.0</ele><time>2026-05-03T13:14:47.569Z</time></trkpt><trkpt lat="43.191348" lon="10.7381449"><ele>250.0</ele><time>2026-05-03T13:14:48.568Z</time></trkpt><trkpt lat="43.191228" lon="10.7381815"><ele>250.0</ele><time>2026-05-03T13:14:49.568Z</time></trkpt><trkpt lat="43.1910878" lon="10.7382279"><ele>250.0</ele><time>2026-05-03T13:14:50.567Z</time></trkpt><trkpt lat="43.1909279" lon="10.7382719"><ele>250.0</ele><time>2026-05-03T13:14:51.568Z</time></trkpt><trkpt lat="43.1907619" lon="10.7383209"><ele>250.0</ele><time>2026-05-03T13:14:52.568Z</time></trkpt><trkpt lat="43.1905875" lon="10.7383808"><ele>250.0</ele><time>2026-05-03T13:14:53.568Z</time></trkpt><trkpt lat="43.1904247" lon="10.7384683"><ele>248.66666666666666</ele><time>2026-05-03T13:14:54.568Z</time></trkpt><trkpt lat="43.1902758" lon="10.7385813"><ele>247.33333333333331</ele><time>2026-05-03T13:14:55.567Z</time></trkpt><trkpt lat="43.1901403" lon="10.7387223"><ele>246.0</ele><time>2026-05-03T13:14:56.568Z</time></trkpt><trkpt lat="43.1900199" lon="10.7388982"><ele>246.0</ele><time>2026-05-03T13:14:57.569Z</time></trkpt><trkpt lat="43.1899083" lon="10.7390951"><ele>246.0</ele><time>2026-05-03T13:14:58.568Z</time></trkpt><trkpt lat="43.1897995" lon="10.73931"><ele>246.0</ele><time>2026-05-03T13:14:59.569Z</time></trkpt><trkpt lat="43.1896912" lon="10.7395237"><ele>242.33333333333331</ele><time>2026-05-03T13:15:00.568Z</time></trkpt><trkpt lat="43.1895844" lon="10.7397474"><ele>238.66666666666666</ele><time>2026-05-03T13:15:01.568Z</time></trkpt><trkpt lat="43.1894726" lon="10.7399706"><ele>235.0</ele><time>2026-05-03T13:15:02.569Z</time></trkpt><trkpt lat="43.1893587" lon="10.7402018"><ele>236.0</ele><time>2026-05-03T13:15:03.568Z</time></trkpt><trkpt lat="43.1892418" lon="10.7404276"><ele>237.0</ele><time>2026-05-03T13:15:04.569Z</time></trkpt><trkpt lat="43.1891167" lon="10.7406601"><ele>238.0</ele><time>2026-05-03T13:15:05.569Z</time></trkpt><trkpt lat="43.1889824" lon="10.7408818"><ele>239.33333333333331</ele><time>2026-05-03T13:15:06.568Z</time></trkpt><trkpt lat="43.1888421" lon="10.7410861"><ele>240.66666666666669</ele><time>2026-05-03T13:15:07.568Z</time></trkpt><trkpt lat="43.1886977" lon="10.7412829"><ele>242.0</ele><time>2026-05-03T13:15:08.568Z</time></trkpt><trkpt lat="43.1885464" lon="10.7414635"><ele>242.0</ele><time>2026-05-03T13:15:09.568Z</time></trkpt><trkpt lat="43.1884034" lon="10.7416254"><ele>242.0</ele><time>2026-05-03T13:15:10.568Z</time></trkpt><trkpt lat="43.1882673" lon="10.7417774"><ele>242.0</ele><time>2026-05-03T13:15:11.568Z</time></trkpt><trkpt lat="43.1881474" lon="10.7419243"><ele>242.25</ele><time>2026-05-03T13:15:12.569Z</time></trkpt><trkpt lat="43.1880346" lon="10.7420583"><ele>242.5</ele><time>2026-05-03T13:15:13.567Z</time></trkpt><trkpt lat="43.1879236" lon="10.7421725"><ele>242.75</ele><time>2026-05-03T13:15:14.568Z</time></trkpt><trkpt lat="43.1878112" lon="10.7422499"><ele>243.0</ele><time>2026-05-03T13:15:15.568Z</time></trkpt><trkpt lat="43.1877029" lon="10.7422969"><ele>243.0</ele><time>2026-05-03T13:15:16.568Z</time></trkpt><trkpt lat="43.1875991" lon="10.7423125"><ele>243.0</ele><time>2026-05-03T13:15:17.567Z</time></trkpt><trkpt lat="43.1874941" lon="10.7422747"><ele>243.0</ele><time>2026-05-03T13:15:18.567Z</time></trkpt><trkpt lat="43.1873868" lon="10.7421758"><ele>243.0</ele><time>2026-05-03T13:15:19.568Z</time></trkpt><trkpt lat="43.1872984" lon="10.7420108"><ele>242.66666666666669</ele><time>2026-05-03T13:15:20.567Z</time></trkpt><trkpt lat="43.1872212" lon="10.7417982"><ele>242.33333333333334</ele><time>2026-05-03T13:15:21.568Z</time></trkpt><trkpt lat="43.187156" lon="10.7415652"><ele>242.0</ele><time>2026-05-03T13:15:22.569Z</time></trkpt><trkpt lat="43.1870806" lon="10.7413652"><ele>242.0</ele><time>2026-05-03T13:15:23.569Z</time></trkpt><trkpt lat="43.1869919" lon="10.7411967"><ele>242.0</ele><time>2026-05-03T13:15:24.568Z</time></trkpt><trkpt lat="43.1868838" lon="10.7410577"><ele>242.0</ele><time>2026-05-03T13:15:25.57Z</time></trkpt><trkpt lat="43.1867391" lon="10.7409508"><ele>241.66666666666669</ele><time>2026-05-03T13:15:26.567Z</time></trkpt><trkpt lat="43.1865647" lon="10.7408699"><ele>241.33333333333331</ele><time>2026-05-03T13:15:27.568Z</time></trkpt><trkpt lat="43.1863835" lon="10.7408079"><ele>241.0</ele><time>2026-05-03T13:15:28.567Z</time></trkpt><trkpt lat="43.1862122" lon="10.7407328"><ele>241.0</ele><time>2026-05-03T13:15:29.568Z</time></trkpt><trkpt lat="43.1860607" lon="10.7406371"><ele>241.0</ele><time>2026-05-03T13:15:30.567Z</time></trkpt><trkpt lat="43.1859272" lon="10.7405062"><ele>241.0</ele><time>2026-05-03T13:15:31.569Z</time></trkpt><trkpt lat="43.1858207" lon="10.7403435"><ele>239.25</ele><time>2026-05-03T13:15:32.567Z</time></trkpt><trkpt lat="43.1857411" lon="10.7401716"><ele>237.5</ele><time>2026-05-03T13:15:33.569Z</time></trkpt><trkpt lat="43.1856849" lon="10.7399983"><ele>235.75</ele><time>2026-05-03T13:15:34.568Z</time></trkpt><trkpt lat="43.1856735" lon="10.7398183"><ele>234.0</ele><time>2026-05-03T13:15:35.568Z</time></trkpt><trkpt lat="43.1856923" lon="10.7396288"><ele>234.0</ele><time>2026-05-03T13:15:36.568Z</time></trkpt><trkpt lat="43.1857283" lon="10.7394282"><ele>234.0</ele><time>2026-05-03T13:15:37.568Z</time></trkpt><trkpt lat="43.1857489" lon="10.7392345"><ele>234.0</ele><time>2026-05-03T13:15:38.568Z</time></trkpt><trkpt lat="43.1857442" lon="10.7390409"><ele>234.0</ele><time>2026-05-03T13:15:39.569Z</time></trkpt><trkpt lat="43.1857121" lon="10.7388574"><ele>236.33333333333331</ele><time>2026-05-03T13:15:40.568Z</time></trkpt><trkpt lat="43.1856522" lon="10.7386717"><ele>238.66666666666666</ele><time>2026-05-03T13:15:41.568Z</time></trkpt><trkpt lat="43.1855686" lon="10.7384806"><ele>241.0</ele><time>2026-05-03T13:15:42.568Z</time></trkpt><trkpt lat="43.1854973" lon="10.7382696"><ele>241.0</ele><time>2026-05-03T13:15:43.568Z</time></trkpt><trkpt lat="43.1854429" lon="10.7380231"><ele>241.0</ele><time>2026-05-03T13:15:44.568Z</time></trkpt><trkpt lat="43.1853986" lon="10.7377516"><ele>241.0</ele><time>2026-05-03T13:15:45.569Z</time></trkpt><trkpt lat="43.1853565" lon="10.7374828"><ele>239.33333333333331</ele><time>2026-05-03T13:15:46.568Z</time></trkpt><trkpt lat="43.1853164" lon="10.7372296"><ele>237.66666666666669</ele><time>2026-05-03T13:15:47.568Z</time></trkpt><trkpt lat="43.1852769" lon="10.7369934"><ele>236.0</ele><time>2026-05-03T13:15:48.568Z</time></trkpt><trkpt lat="43.1852322" lon="10.7367589"><ele>235.0</ele><time>2026-05-03T13:15:49.569Z</time></trkpt><trkpt lat="43.1851747" lon="10.7365307"><ele>234.0</ele><time>2026-05-03T13:15:50.568Z</time></trkpt><trkpt lat="43.1850762" lon="10.7363322"><ele>233.0</ele><time>2026-05-03T13:15:51.569Z</time></trkpt><trkpt lat="43.1849471" lon="10.7361422"><ele>230.0</ele><time>2026-05-03T13:15:52.569Z</time></trkpt><trkpt lat="43.1848001" lon="10.7359814"><ele>227.0</ele><time>2026-05-03T13:15:53.568Z</time></trkpt><trkpt lat="43.1846408" lon="10.7358589"><ele>224.0</ele><time>2026-05-03T13:15:54.568Z</time></trkpt><trkpt lat="43.1844799" lon="10.7357785"><ele>224.0</ele><time>2026-05-03T13:15:55.567Z</time></trkpt><trkpt lat="43.1843174" lon="10.7357337"><ele>224.0</ele><time>2026-05-03T13:15:56.567Z</time></trkpt><trkpt lat="43.1841691" lon="10.7357265"><ele>224.0</ele><time>2026-05-03T13:15:57.568Z</time></trkpt><trkpt lat="43.1840285" lon="10.7357875"><ele>224.0</ele><time>2026-05-03T13:15:58.57Z</time></trkpt><trkpt lat="43.1839017" lon="10.7358997"><ele>224.0</ele><time>2026-05-03T13:15:59.567Z</time></trkpt><trkpt lat="43.183806" lon="10.7360639"><ele>224.0</ele><time>2026-05-03T13:16:00.569Z</time></trkpt><trkpt lat="43.1837425" lon="10.7362497"><ele>224.0</ele><time>2026-05-03T13:16:01.568Z</time></trkpt><trkpt lat="43.1836932" lon="10.736436"><ele>224.0</ele><time>2026-05-03T13:16:02.567Z</time></trkpt><trkpt lat="43.1836196" lon="10.7366029"><ele>224.0</ele><time>2026-05-03T13:16:03.568Z</time></trkpt><trkpt lat="43.1835199" lon="10.7367312"><ele>224.0</ele><time>2026-05-03T13:16:04.568Z</time></trkpt><trkpt lat="43.183407" lon="10.7368064"><ele>224.0</ele><time>2026-05-03T13:16:05.568Z</time></trkpt><trkpt lat="43.1832812" lon="10.73682"><ele>224.0</ele><time>2026-05-03T13:16:06.568Z</time></trkpt><trkpt lat="43.1831449" lon="10.7367781"><ele>224.0</ele><time>2026-05-03T13:16:07.568Z</time></trkpt><trkpt lat="43.182989" lon="10.7367102"><ele>224.0</ele><time>2026-05-03T13:16:08.569Z</time></trkpt><trkpt lat="43.1828198" lon="10.736622"><ele>225.66666666666669</ele><time>2026-05-03T13:16:09.568Z</time></trkpt><trkpt lat="43.1826477" lon="10.7365289"><ele>227.33333333333331</ele><time>2026-05-03T13:16:10.568Z</time></trkpt><trkpt lat="43.1824757" lon="10.7364353"><ele>229.0</ele><time>2026-05-03T13:16:11.567Z</time></trkpt><trkpt lat="43.1823029" lon="10.7363503"><ele>229.0</ele><time>2026-05-03T13:16:12.567Z</time></trkpt><trkpt lat="43.1821278" lon="10.7362899"><ele>229.0</ele><time>2026-05-03T13:16:13.567Z</time></trkpt><trkpt lat="43.1819505" lon="10.7362622"><ele>229.0</ele><time>2026-05-03T13:16:14.568Z</time></trkpt><trkpt lat="43.1817724" lon="10.736254"><ele>229.0</ele><time>2026-05-03T13:16:15.568Z</time></trkpt><trkpt lat="43.1816096" lon="10.736273"><ele>229.0</ele><time>2026-05-03T13:16:16.568Z</time></trkpt><trkpt lat="43.1814515" lon="10.7363127"><ele>229.0</ele><time>2026-05-03T13:16:17.568Z</time></trkpt><trkpt lat="43.1813088" lon="10.7363881"><ele>226.66666666666666</ele><time>2026-05-03T13:16:18.569Z</time></trkpt><trkpt lat="43.1811957" lon="10.7365224"><ele>224.33333333333331</ele><time>2026-05-03T13:16:19.568Z</time></trkpt><trkpt lat="43.1810852" lon="10.7366918"><ele>222.0</ele><time>2026-05-03T13:16:20.568Z</time></trkpt><trkpt lat="43.181003" lon="10.7368882"><ele>222.0</ele><time>2026-05-03T13:16:21.567Z</time></trkpt><trkpt lat="43.1809378" lon="10.7371078"><ele>222.0</ele><time>2026-05-03T13:16:22.568Z</time></trkpt><trkpt lat="43.1808655" lon="10.7373565"><ele>222.0</ele><time>2026-05-03T13:16:23.568Z</time></trkpt><trkpt lat="43.180792" lon="10.7376065"><ele>220.33333333333331</ele><time>2026-05-03T13:16:24.568Z</time></trkpt><trkpt lat="43.1807165" lon="10.7378517"><ele>218.66666666666666</ele><time>2026-05-03T13:16:25.567Z</time></trkpt><trkpt lat="43.1806421" lon="10.738091"><ele>217.0</ele><time>2026-05-03T13:16:26.569Z</time></trkpt><trkpt lat="43.1805766" lon="10.7383184"><ele>217.0</ele><time>2026-05-03T13:16:27.568Z</time></trkpt><trkpt lat="43.1805223" lon="10.7385135"><ele>217.0</ele><time>2026-05-03T13:16:28.568Z</time></trkpt><trkpt lat="43.1804588" lon="10.7386895"><ele>217.0</ele><time>2026-05-03T13:16:29.568Z</time></trkpt><trkpt lat="43.1803878" lon="10.7388297"><ele>217.0</ele><time>2026-05-03T13:16:30.568Z</time></trkpt><trkpt lat="43.1803018" lon="10.7389282"><ele>219.6</ele><time>2026-05-03T13:16:31.568Z</time></trkpt><trkpt lat="43.1802032" lon="10.7389616"><ele>222.2</ele><time>2026-05-03T13:16:32.568Z</time></trkpt><trkpt lat="43.1800969" lon="10.7389529"><ele>224.8</ele><time>2026-05-03T13:16:33.568Z</time></trkpt><trkpt lat="43.1799823" lon="10.7388995"><ele>227.4</ele><time>2026-05-03T13:16:34.568Z</time></trkpt><trkpt lat="43.1798848" lon="10.738803"><ele>230.0</ele><time>2026-05-03T13:16:35.567Z</time></trkpt><trkpt lat="43.179787" lon="10.73867"><ele>236.0</ele><time>2026-05-03T13:16:36.568Z</time></trkpt><trkpt lat="43.1797083" lon="10.7384527"><ele>242.0</ele><time>2026-05-03T13:16:37.568Z</time></trkpt><trkpt lat="43.1796335" lon="10.7382668"><ele>248.0</ele><time>2026-05-03T13:16:38.568Z</time></trkpt><trkpt lat="43.1795589" lon="10.738087"><ele>248.0</ele><time>2026-05-03T13:16:39.568Z</time></trkpt><trkpt lat="43.1795024" lon="10.7379229"><ele>248.0</ele><time>2026-05-03T13:16:40.568Z</time></trkpt><trkpt lat="43.1794155" lon="10.7377669"><ele>248.0</ele><time>2026-05-03T13:16:41.568Z</time></trkpt><trkpt lat="43.1793155" lon="10.7376195"><ele>248.0</ele><time>2026-05-03T13:16:42.568Z</time></trkpt><trkpt lat="43.179197" lon="10.737483"><ele>247.5</ele><time>2026-05-03T13:16:43.568Z</time></trkpt><trkpt lat="43.1790795" lon="10.7373426"><ele>247.0</ele><time>2026-05-03T13:16:44.568Z</time></trkpt><trkpt lat="43.1789748" lon="10.7371889"><ele>246.5</ele><time>2026-05-03T13:16:45.569Z</time></trkpt><trkpt lat="43.1788692" lon="10.737065"><ele>246.0</ele><time>2026-05-03T13:16:46.567Z</time></trkpt><trkpt lat="43.1787599" lon="10.7369666"><ele>246.0</ele><time>2026-05-03T13:16:47.568Z</time></trkpt><trkpt lat="43.1786449" lon="10.7368864"><ele>246.0</ele><time>2026-05-03T13:16:48.567Z</time></trkpt><trkpt lat="43.1785104" lon="10.7368449"><ele>246.0</ele><time>2026-05-03T13:16:49.568Z</time></trkpt><trkpt lat="43.1783821" lon="10.7367988"><ele>246.0</ele><time>2026-05-03T13:16:50.568Z</time></trkpt><trkpt lat="43.1782608" lon="10.7367311"><ele>237.5</ele><time>2026-05-03T13:16:51.568Z</time></trkpt><trkpt lat="43.1781518" lon="10.7366045"><ele>229.0</ele><time>2026-05-03T13:16:52.568Z</time></trkpt><trkpt lat="43.1780507" lon="10.7365087"><ele>220.5</ele><time>2026-05-03T13:16:53.569Z</time></trkpt><trkpt lat="43.1779463" lon="10.7364648"><ele>212.0</ele><time>2026-05-03T13:16:54.567Z</time></trkpt><trkpt lat="43.1778445" lon="10.7364697"><ele>212.0</ele><time>2026-05-03T13:16:55.568Z</time></trkpt><trkpt lat="43.1777463" lon="10.7365221"><ele>212.0</ele><time>2026-05-03T13:16:56.568Z</time></trkpt><trkpt lat="43.1776483" lon="10.7365962"><ele>212.0</ele><time>2026-05-03T13:16:57.568Z</time></trkpt><trkpt lat="43.1775521" lon="10.7367229"><ele>212.0</ele><time>2026-05-03T13:16:58.568Z</time></trkpt><trkpt lat="43.1774495" lon="10.7368876"><ele>212.33333333333334</ele><time>2026-05-03T13:16:59.568Z</time></trkpt><trkpt lat="43.1773548" lon="10.7370629"><ele>212.66666666666669</ele><time>2026-05-03T13:17:00.569Z</time></trkpt><trkpt lat="43.1772575" lon="10.7372354"><ele>213.0</ele><time>2026-05-03T13:17:01.567Z</time></trkpt><trkpt lat="43.1771583" lon="10.7373982"><ele>213.0</ele><time>2026-05-03T13:17:02.568Z</time></trkpt><trkpt lat="43.1770533" lon="10.737539"><ele>213.0</ele><time>2026-05-03T13:17:03.568Z</time></trkpt><trkpt lat="43.1769443" lon="10.7376449"><ele>213.0</ele><time>2026-05-03T13:17:04.567Z</time></trkpt><trkpt lat="43.1768277" lon="10.7377165"><ele>213.0</ele><time>2026-05-03T13:17:05.568Z</time></trkpt><trkpt lat="43.1767033" lon="10.7377596"><ele>213.0</ele><time>2026-05-03T13:17:06.567Z</time></trkpt><trkpt lat="43.1765897" lon="10.7376869"><ele>213.0</ele><time>2026-05-03T13:17:07.568Z</time></trkpt><trkpt lat="43.1764623" lon="10.7376244"><ele>213.0</ele><time>2026-05-03T13:17:08.568Z</time></trkpt><trkpt lat="43.1763504" lon="10.7375639"><ele>213.0</ele><time>2026-05-03T13:17:09.568Z</time></trkpt><trkpt lat="43.1762441" lon="10.7375095"><ele>212.5</ele><time>2026-05-03T13:17:10.568Z</time></trkpt><trkpt lat="43.1761361" lon="10.7374925"><ele>212.0</ele><time>2026-05-03T13:17:11.567Z</time></trkpt><trkpt lat="43.1760295" lon="10.737517"><ele>211.5</ele><time>2026-05-03T13:17:12.568Z</time></trkpt><trkpt lat="43.1759149" lon="10.7375742"><ele>211.0</ele><time>2026-05-03T13:17:13.568Z</time></trkpt><trkpt lat="43.1758346" lon="10.7377297"><ele>211.25</ele><time>2026-05-03T13:17:14.568Z</time></trkpt><trkpt lat="43.1757568" lon="10.7378958"><ele>211.5</ele><time>2026-05-03T13:17:15.568Z</time></trkpt><trkpt lat="43.1756739" lon="10.7380476"><ele>211.75</ele><time>2026-05-03T13:17:16.568Z</time></trkpt><trkpt lat="43.1755721" lon="10.7381767"><ele>212.0</ele><time>2026-05-03T13:17:17.568Z</time></trkpt><trkpt lat="43.1754655" lon="10.7382744"><ele>212.0</ele><time>2026-05-03T13:17:18.568Z</time></trkpt><trkpt lat="43.1753347" lon="10.7383309"><ele>212.0</ele><time>2026-05-03T13:17:19.568Z</time></trkpt><trkpt lat="43.1751928" lon="10.7383266"><ele>212.0</ele><time>2026-05-03T13:17:20.567Z</time></trkpt><trkpt lat="43.1750559" lon="10.7383068"><ele>212.0</ele><time>2026-05-03T13:17:21.568Z</time></trkpt><trkpt lat="43.1749224" lon="10.7383015"><ele>211.0</ele><time>2026-05-03T13:17:22.568Z</time></trkpt><trkpt lat="43.1748043" lon="10.7383394"><ele>210.0</ele><time>2026-05-03T13:17:23.568Z</time></trkpt><trkpt lat="43.1747058" lon="10.7384282"><ele>209.0</ele><time>2026-05-03T13:17:24.567Z</time></trkpt><trkpt lat="43.1746235" lon="10.7385585"><ele>208.0</ele><time>2026-05-03T13:17:25.568Z</time></trkpt><trkpt lat="43.1745697" lon="10.7387326"><ele>208.0</ele><time>2026-05-03T13:17:26.568Z</time></trkpt><trkpt lat="43.1745358" lon="10.7389052"><ele>208.0</ele><time>2026-05-03T13:17:27.568Z</time></trkpt><trkpt lat="43.174478" lon="10.7390618"><ele>208.0</ele><time>2026-05-03T13:17:28.568Z</time></trkpt><trkpt lat="43.1744001" lon="10.7391921"><ele>208.0</ele><time>2026-05-03T13:17:29.567Z</time></trkpt><trkpt lat="43.1743003" lon="10.7392861"><ele>208.0</ele><time>2026-05-03T13:17:30.568Z</time></trkpt><trkpt lat="43.174176" lon="10.7393388"><ele>208.0</ele><time>2026-05-03T13:17:31.568Z</time></trkpt><trkpt lat="43.1740536" lon="10.7393073"><ele>208.0</ele><time>2026-05-03T13:17:32.567Z</time></trkpt><trkpt lat="43.1739343" lon="10.7392188"><ele>208.0</ele><time>2026-05-03T13:17:33.568Z</time></trkpt><trkpt lat="43.1738184" lon="10.7390758"><ele>212.33333333333331</ele><time>2026-05-03T13:17:34.567Z</time></trkpt><trkpt lat="43.1737154" lon="10.7389089"><ele>216.66666666666669</ele><time>2026-05-03T13:17:35.568Z</time></trkpt><trkpt lat="43.1736243" lon="10.7387424"><ele>221.0</ele><time>2026-05-03T13:17:36.568Z</time></trkpt><trkpt lat="43.1735244" lon="10.7385715"><ele>219.33333333333334</ele><time>2026-05-03T13:17:37.568Z</time></trkpt><trkpt lat="43.1733858" lon="10.7384444"><ele>217.66666666666669</ele><time>2026-05-03T13:17:38.569Z</time></trkpt><trkpt lat="43.1732292" lon="10.7383278"><ele>216.0</ele><time>2026-05-03T13:17:39.567Z</time></trkpt><trkpt lat="43.1730763" lon="10.7382014"><ele>216.0</ele><time>2026-05-03T13:17:40.568Z</time></trkpt><trkpt lat="43.1729367" lon="10.7380465"><ele>216.0</ele><time>2026-05-03T13:17:41.568Z</time></trkpt><trkpt lat="43.172835" lon="10.7378592"><ele>216.0</ele><time>2026-05-03T13:17:42.569Z</time></trkpt><trkpt lat="43.1727448" lon="10.737685"><ele>212.33333333333331</ele><time>2026-05-03T13:17:43.569Z</time></trkpt><trkpt lat="43.172639" lon="10.7375243"><ele>208.66666666666666</ele><time>2026-05-03T13:17:44.568Z</time></trkpt><trkpt lat="43.1725215" lon="10.7373905"><ele>205.0</ele><time>2026-05-03T13:17:45.568Z</time></trkpt><trkpt lat="43.1723754" lon="10.7373121"><ele>208.5</ele><time>2026-05-03T13:17:46.568Z</time></trkpt><trkpt lat="43.1722269" lon="10.7372623"><ele>212.0</ele><time>2026-05-03T13:17:47.569Z</time></trkpt><trkpt lat="43.1720908" lon="10.7371803"><ele>215.5</ele><time>2026-05-03T13:17:48.569Z</time></trkpt><trkpt lat="43.17198" lon="10.7370625"><ele>219.0</ele><time>2026-05-03T13:17:49.567Z</time></trkpt><trkpt lat="43.1718875" lon="10.7369035"><ele>214.66666666666669</ele><time>2026-05-03T13:17:50.567Z</time></trkpt><trkpt lat="43.1718202" lon="10.7367077"><ele>210.33333333333334</ele><time>2026-05-03T13:17:51.568Z</time></trkpt><trkpt lat="43.1717704" lon="10.7364648"><ele>206.0</ele><time>2026-05-03T13:17:52.568Z</time></trkpt><trkpt lat="43.1717268" lon="10.7362071"><ele>204.0</ele><time>2026-05-03T13:17:53.567Z</time></trkpt><trkpt lat="43.1716788" lon="10.7359691"><ele>202.0</ele><time>2026-05-03T13:17:54.567Z</time></trkpt><trkpt lat="43.1716229" lon="10.7357406"><ele>200.0</ele><time>2026-05-03T13:17:55.567Z</time></trkpt><trkpt lat="43.1715497" lon="10.7355237"><ele>202.66666666666669</ele><time>2026-05-03T13:17:56.568Z</time></trkpt><trkpt lat="43.1714573" lon="10.7353122"><ele>205.33333333333331</ele><time>2026-05-03T13:17:57.568Z</time></trkpt><trkpt lat="43.1713379" lon="10.735101"><ele>208.0</ele><time>2026-05-03T13:17:58.568Z</time></trkpt><trkpt lat="43.1711919" lon="10.7348806"><ele>208.0</ele><time>2026-05-03T13:17:59.568Z</time></trkpt><trkpt lat="43.1710594" lon="10.7346587"><ele>208.0</ele><time>2026-05-03T13:18:00.568Z</time></trkpt><trkpt lat="43.1709257" lon="10.734459"><ele>208.0</ele><time>2026-05-03T13:18:01.568Z</time></trkpt><trkpt lat="43.1708048" lon="10.7342755"><ele>205.5</ele><time>2026-05-03T13:18:02.569Z</time></trkpt><trkpt lat="43.1707028" lon="10.734114"><ele>203.0</ele><time>2026-05-03T13:18:03.568Z</time></trkpt><trkpt lat="43.1706097" lon="10.7339751"><ele>200.5</ele><time>2026-05-03T13:18:04.568Z</time></trkpt><trkpt lat="43.1705161" lon="10.7338729"><ele>198.0</ele><time>2026-05-03T13:18:05.568Z</time></trkpt><trkpt lat="43.1704143" lon="10.7338168"><ele>198.0</ele><time>2026-05-03T13:18:06.568Z</time></trkpt><trkpt lat="43.1703029" lon="10.7338124"><ele>198.0</ele><time>2026-05-03T13:18:07.568Z</time></trkpt><trkpt lat="43.1701913" lon="10.7338592"><ele>198.0</ele><time>2026-05-03T13:18:08.568Z</time></trkpt><trkpt lat="43.17008" lon="10.7339696"><ele>198.0</ele><time>2026-05-03T13:18:09.569Z</time></trkpt><trkpt lat="43.1699726" lon="10.7341309"><ele>198.0</ele><time>2026-05-03T13:18:10.568Z</time></trkpt><trkpt lat="43.1698609" lon="10.7343188"><ele>198.0</ele><time>2026-05-03T13:18:11.568Z</time></trkpt><trkpt lat="43.1697261" lon="10.7345288"><ele>198.0</ele><time>2026-05-03T13:18:12.569Z</time></trkpt><trkpt lat="43.1695975" lon="10.7347286"><ele>197.5</ele><time>2026-05-03T13:18:13.567Z</time></trkpt><trkpt lat="43.1694863" lon="10.7349056"><ele>197.0</ele><time>2026-05-03T13:18:14.568Z</time></trkpt><trkpt lat="43.1693848" lon="10.7350504"><ele>196.5</ele><time>2026-05-03T13:18:15.567Z</time></trkpt><trkpt lat="43.1692852" lon="10.7351663"><ele>196.0</ele><time>2026-05-03T13:18:16.567Z</time></trkpt><trkpt lat="43.1691745" lon="10.735239"><ele>195.75</ele><time>2026-05-03T13:18:17.567Z</time></trkpt><trkpt lat="43.1690591" lon="10.7352695"><ele>195.5</ele><time>2026-05-03T13:18:18.568Z</time></trkpt><trkpt lat="43.1689389" lon="10.735246"><ele>195.25</ele><time>2026-05-03T13:18:19.568Z</time></trkpt><trkpt lat="43.1688323" lon="10.7351406"><ele>195.0</ele><time>2026-05-03T13:18:20.568Z</time></trkpt><trkpt lat="43.1687313" lon="10.7350139"><ele>195.0</ele><time>2026-05-03T13:18:21.568Z</time></trkpt><trkpt lat="43.1686432" lon="10.7348817"><ele>195.0</ele><time>2026-05-03T13:18:22.567Z</time></trkpt><trkpt lat="43.1685485" lon="10.7347679"><ele>195.0</ele><time>2026-05-03T13:18:23.568Z</time></trkpt><trkpt lat="43.1684332" lon="10.734697"><ele>195.0</ele><time>2026-05-03T13:18:24.569Z</time></trkpt><trkpt lat="43.1682984" lon="10.7346758"><ele>197.5</ele><time>2026-05-03T13:18:25.568Z</time></trkpt><trkpt lat="43.1681597" lon="10.7346917"><ele>200.0</ele><time>2026-05-03T13:18:26.567Z</time></trkpt><trkpt lat="43.1680189" lon="10.73471"><ele>202.5</ele><time>2026-05-03T13:18:27.568Z</time></trkpt><trkpt lat="43.167883" lon="10.7346764"><ele>205.0</ele><time>2026-05-03T13:18:28.568Z</time></trkpt><trkpt lat="43.1677491" lon="10.7346347"><ele>205.0</ele><time>2026-05-03T13:18:29.568Z</time></trkpt><trkpt lat="43.1676667" lon="10.7344708"><ele>205.0</ele><time>2026-05-03T13:18:30.568Z</time></trkpt><trkpt lat="43.1675806" lon="10.7343089"><ele>205.0</ele><time>2026-05-03T13:18:31.567Z</time></trkpt><trkpt lat="43.167512" lon="10.7341168"><ele>205.0</ele><time>2026-05-03T13:18:32.568Z</time></trkpt><trkpt lat="43.1674771" lon="10.7339086"><ele>204.25</ele><time>2026-05-03T13:18:33.568Z</time></trkpt><trkpt lat="43.1674422" lon="10.7337103"><ele>203.5</ele><time>2026-05-03T13:18:34.568Z</time></trkpt><trkpt lat="43.1674003" lon="10.7335375"><ele>202.75</ele><time>2026-05-03T13:18:35.568Z</time></trkpt><trkpt lat="43.1673692" lon="10.7333777"><ele>202.0</ele><time>2026-05-03T13:18:36.568Z</time></trkpt><trkpt lat="43.1673104" lon="10.7332356"><ele>202.0</ele><time>2026-05-03T13:18:37.567Z</time></trkpt><trkpt lat="43.1672242" lon="10.7331146"><ele>202.0</ele><time>2026-05-03T13:18:38.568Z</time></trkpt><trkpt lat="43.1671026" lon="10.7330248"><ele>202.0</ele><time>2026-05-03T13:18:39.568Z</time></trkpt><trkpt lat="43.1669582" lon="10.732956"><ele>202.0</ele><time>2026-05-03T13:18:40.568Z</time></trkpt><trkpt lat="43.1668179" lon="10.7328718"><ele>202.0</ele><time>2026-05-03T13:18:41.569Z</time></trkpt><trkpt lat="43.1666951" lon="10.732771"><ele>202.0</ele><time>2026-05-03T13:18:42.567Z</time></trkpt><trkpt lat="43.166588" lon="10.732626"><ele>202.0</ele><time>2026-05-03T13:18:43.568Z</time></trkpt><trkpt lat="43.1664835" lon="10.7324612"><ele>195.0</ele><time>2026-05-03T13:18:44.568Z</time></trkpt><trkpt lat="43.1663518" lon="10.7323271"><ele>188.0</ele><time>2026-05-03T13:18:45.568Z</time></trkpt><trkpt lat="43.1662145" lon="10.7322039"><ele>181.0</ele><time>2026-05-03T13:18:46.567Z</time></trkpt><trkpt lat="43.1660576" lon="10.7321056"><ele>181.0</ele><time>2026-05-03T13:18:47.568Z</time></trkpt><trkpt lat="43.1658662" lon="10.732011"><ele>181.0</ele><time>2026-05-03T13:18:48.568Z</time></trkpt><trkpt lat="43.1656164" lon="10.7319829"><ele>184.0</ele><time>2026-05-03T13:18:49.568Z</time></trkpt><trkpt lat="43.1653697" lon="10.7319454"><ele>187.0</ele><time>2026-05-03T13:18:50.568Z</time></trkpt><trkpt lat="43.1651131" lon="10.7318613"><ele>176.5</ele><time>2026-05-03T13:18:51.567Z</time></trkpt><trkpt lat="43.1648533" lon="10.7317824"><ele>166.0</ele><time>2026-05-03T13:18:52.568Z</time></trkpt><trkpt lat="43.1646082" lon="10.7317052"><ele>166.0</ele><time>2026-05-03T13:18:53.568Z</time></trkpt><trkpt lat="43.1643757" lon="10.731638"><ele>166.0</ele><time>2026-05-03T13:18:54.568Z</time></trkpt><trkpt lat="43.1641496" lon="10.7315694"><ele>164.0</ele><time>2026-05-03T13:18:55.567Z</time></trkpt><trkpt lat="43.1639273" lon="10.7315061"><ele>162.0</ele><time>2026-05-03T13:18:56.569Z</time></trkpt><trkpt lat="43.1637076" lon="10.7314401"><ele>162.0</ele><time>2026-05-03T13:18:57.568Z</time></trkpt><trkpt lat="43.1634907" lon="10.7313794"><ele>162.0</ele><time>2026-05-03T13:18:58.568Z</time></trkpt><trkpt lat="43.1632734" lon="10.7313102"><ele>162.0</ele><time>2026-05-03T13:18:59.567Z</time></trkpt><trkpt lat="43.1630537" lon="10.7312436"><ele>161.33333333333334</ele><time>2026-05-03T13:19:00.568Z</time></trkpt><trkpt lat="43.1628366" lon="10.7311774"><ele>160.66666666666669</ele><time>2026-05-03T13:19:01.568Z</time></trkpt><trkpt lat="43.1626152" lon="10.7311103"><ele>160.0</ele><time>2026-05-03T13:19:02.568Z</time></trkpt><trkpt lat="43.162397" lon="10.7310458"><ele>155.0</ele><time>2026-05-03T13:19:03.568Z</time></trkpt><trkpt lat="43.1621865" lon="10.7309845"><ele>150.0</ele><time>2026-05-03T13:19:04.568Z</time></trkpt><trkpt lat="43.1619775" lon="10.7309206"><ele>145.0</ele><time>2026-05-03T13:19:05.568Z</time></trkpt><trkpt lat="43.1617775" lon="10.7308626"><ele>145.0</ele><time>2026-05-03T13:19:06.568Z</time></trkpt><trkpt lat="43.1615882" lon="10.7308112"><ele>145.0</ele><time>2026-05-03T13:19:07.567Z</time></trkpt><trkpt lat="43.1614046" lon="10.7307596"><ele>145.0</ele><time>2026-05-03T13:19:08.567Z</time></trkpt><trkpt lat="43.1612282" lon="10.7307077"><ele>145.33333333333334</ele><time>2026-05-03T13:19:09.568Z</time></trkpt><trkpt lat="43.1610582" lon="10.7306463"><ele>145.66666666666666</ele><time>2026-05-03T13:19:10.568Z</time></trkpt><trkpt lat="43.1609076" lon="10.7305684"><ele>146.0</ele><time>2026-05-03T13:19:11.568Z</time></trkpt><trkpt lat="43.1607709" lon="10.7304592"><ele>146.75</ele><time>2026-05-03T13:19:12.568Z</time></trkpt><trkpt lat="43.1606607" lon="10.7303202"><ele>147.5</ele><time>2026-05-03T13:19:13.568Z</time></trkpt><trkpt lat="43.1605626" lon="10.7301814"><ele>148.25</ele><time>2026-05-03T13:19:14.568Z</time></trkpt><trkpt lat="43.1604499" lon="10.7300594"><ele>149.0</ele><time>2026-05-03T13:19:15.568Z</time></trkpt><trkpt lat="43.1603113" lon="10.7299653"><ele>145.33333333333331</ele><time>2026-05-03T13:19:16.568Z</time></trkpt><trkpt lat="43.1601472" lon="10.7298936"><ele>141.66666666666666</ele><time>2026-05-03T13:19:17.568Z</time></trkpt><trkpt lat="43.1599722" lon="10.729829"><ele>138.0</ele><time>2026-05-03T13:19:18.568Z</time></trkpt><trkpt lat="43.1598142" lon="10.7297694"><ele>138.0</ele><time>2026-05-03T13:19:19.568Z</time></trkpt><trkpt lat="43.159662" lon="10.7296901"><ele>138.0</ele><time>2026-05-03T13:19:20.569Z</time></trkpt><trkpt lat="43.1595251" lon="10.7296017"><ele>138.0</ele><time>2026-05-03T13:19:21.568Z</time></trkpt><trkpt lat="43.1593943" lon="10.7294805"><ele>135.0</ele><time>2026-05-03T13:19:22.568Z</time></trkpt><trkpt lat="43.1592613" lon="10.7293069"><ele>132.0</ele><time>2026-05-03T13:19:23.567Z</time></trkpt><trkpt lat="43.1591171" lon="10.7291373"><ele>129.0</ele><time>2026-05-03T13:19:24.568Z</time></trkpt><trkpt lat="43.1589432" lon="10.7289647"><ele>129.0</ele><time>2026-05-03T13:19:25.568Z</time></trkpt><trkpt lat="43.1587391" lon="10.7287961"><ele>129.0</ele><time>2026-05-03T13:19:26.568Z</time></trkpt><trkpt lat="43.1585159" lon="10.7286338"><ele>124.0</ele><time>2026-05-03T13:19:27.567Z</time></trkpt><trkpt lat="43.1582807" lon="10.728477"><ele>119.0</ele><time>2026-05-03T13:19:28.569Z</time></trkpt><trkpt lat="43.1580376" lon="10.728313"><ele>117.5</ele><time>2026-05-03T13:19:29.569Z</time></trkpt><trkpt lat="43.1578062" lon="10.7281665"><ele>116.0</ele><time>2026-05-03T13:19:30.568Z</time></trkpt><trkpt lat="43.157583" lon="10.7280226"><ele>116.0</ele><time>2026-05-03T13:19:31.567Z</time></trkpt><trkpt lat="43.1573698" lon="10.7278848"><ele>116.0</ele><time>2026-05-03T13:19:32.568Z</time></trkpt><trkpt lat="43.1571651" lon="10.7277531"><ele>114.33333333333333</ele><time>2026-05-03T13:19:33.567Z</time></trkpt><trkpt lat="43.1569638" lon="10.7276201"><ele>112.66666666666666</ele><time>2026-05-03T13:19:34.568Z</time></trkpt><trkpt lat="43.1567636" lon="10.7274913"><ele>111.0</ele><time>2026-05-03T13:19:35.568Z</time></trkpt><trkpt lat="43.156567" lon="10.7273558"><ele>110.66666666666666</ele><time>2026-05-03T13:19:36.568Z</time></trkpt><trkpt lat="43.1563717" lon="10.7272255"><ele>110.33333333333333</ele><time>2026-05-03T13:19:37.567Z</time></trkpt><trkpt lat="43.1561757" lon="10.7270982"><ele>110.0</ele><time>2026-05-03T13:19:38.568Z</time></trkpt><trkpt lat="43.155981" lon="10.7269721"><ele>110.33333333333333</ele><time>2026-05-03T13:19:39.569Z</time></trkpt><trkpt lat="43.1557871" lon="10.7268441"><ele>110.66666666666666</ele><time>2026-05-03T13:19:40.567Z</time></trkpt><trkpt lat="43.1555963" lon="10.7267218"><ele>111.0</ele><time>2026-05-03T13:19:41.569Z</time></trkpt><trkpt lat="43.1554006" lon="10.7265918"><ele>110.0</ele><time>2026-05-03T13:19:42.569Z</time></trkpt><trkpt lat="43.1552005" lon="10.7264591"><ele>109.0</ele><time>2026-05-03T13:19:43.568Z</time></trkpt><trkpt lat="43.1549979" lon="10.7263216"><ele>108.0</ele><time>2026-05-03T13:19:44.568Z</time></trkpt><trkpt lat="43.1547958" lon="10.7261802"><ele>110.0</ele><time>2026-05-03T13:19:45.568Z</time></trkpt><trkpt lat="43.154593" lon="10.7260434"><ele>112.0</ele><time>2026-05-03T13:19:46.566Z</time></trkpt><trkpt lat="43.1543861" lon="10.7259077"><ele>112.0</ele><time>2026-05-03T13:19:47.567Z</time></trkpt><trkpt lat="43.1541772" lon="10.7257699"><ele>112.0</ele><time>2026-05-03T13:19:48.567Z</time></trkpt><trkpt lat="43.1539641" lon="10.7256284"><ele>110.5</ele><time>2026-05-03T13:19:49.568Z</time></trkpt><trkpt lat="43.1537535" lon="10.725486"><ele>109.0</ele><time>2026-05-03T13:19:50.568Z</time></trkpt><trkpt lat="43.1535473" lon="10.7253476"><ele>108.33333333333334</ele><time>2026-05-03T13:19:51.567Z</time></trkpt><trkpt lat="43.1533448" lon="10.7252118"><ele>107.66666666666666</ele><time>2026-05-03T13:19:52.568Z</time></trkpt><trkpt lat="43.1531471" lon="10.7250779"><ele>107.0</ele><time>2026-05-03T13:19:53.568Z</time></trkpt><trkpt lat="43.152959" lon="10.7249523"><ele>107.0</ele><time>2026-05-03T13:19:54.569Z</time></trkpt><trkpt lat="43.152777" lon="10.7248325"><ele>107.0</ele><time>2026-05-03T13:19:55.567Z</time></trkpt><trkpt lat="43.1526028" lon="10.7247103"><ele>107.0</ele><time>2026-05-03T13:19:56.569Z</time></trkpt><trkpt lat="43.152431" lon="10.7245996"><ele>106.0</ele><time>2026-05-03T13:19:57.568Z</time></trkpt><trkpt lat="43.1522559" lon="10.7245064"><ele>105.0</ele><time>2026-05-03T13:19:58.568Z</time></trkpt><trkpt lat="43.1520747" lon="10.7244337"><ele>104.0</ele><time>2026-05-03T13:19:59.568Z</time></trkpt><trkpt lat="43.1518841" lon="10.7243881"><ele>104.0</ele><time>2026-05-03T13:20:00.566Z</time></trkpt><trkpt lat="43.1516879" lon="10.7243725"><ele>104.0</ele><time>2026-05-03T13:20:01.568Z</time></trkpt><trkpt lat="43.1514857" lon="10.7243851"><ele>104.0</ele><time>2026-05-03T13:20:02.566Z</time></trkpt><trkpt lat="43.151279" lon="10.7244126"><ele>103.66666666666666</ele><time>2026-05-03T13:20:03.568Z</time></trkpt><trkpt lat="43.1510705" lon="10.7244523"><ele>103.33333333333334</ele><time>2026-05-03T13:20:04.568Z</time></trkpt><trkpt lat="43.1508754" lon="10.724487"><ele>103.0</ele><time>2026-05-03T13:20:05.568Z</time></trkpt><trkpt lat="43.1506969" lon="10.7245189"><ele>105.75</ele><time>2026-05-03T13:20:06.568Z</time></trkpt><trkpt lat="43.1505394" lon="10.7245517"><ele>108.5</ele><time>2026-05-03T13:20:07.568Z</time></trkpt><trkpt lat="43.1504147" lon="10.7245807"><ele>111.25</ele><time>2026-05-03T13:20:08.568Z</time></trkpt><trkpt lat="43.1503044" lon="10.7246398"><ele>114.0</ele><time>2026-05-03T13:20:09.569Z</time></trkpt><trkpt lat="43.1502117" lon="10.7247306"><ele>114.0</ele><time>2026-05-03T13:20:10.568Z</time></trkpt><trkpt lat="43.1501317" lon="10.724868"><ele>114.0</ele><time>2026-05-03T13:20:11.567Z</time></trkpt><trkpt lat="43.1500652" lon="10.7250374"><ele>114.0</ele><time>2026-05-03T13:20:12.567Z</time></trkpt><trkpt lat="43.1500174" lon="10.7252651"><ele>114.0</ele><time>2026-05-03T13:20:13.568Z</time></trkpt><trkpt lat="43.1499733" lon="10.7255217"><ele>116.0</ele><time>2026-05-03T13:20:14.568Z</time></trkpt><trkpt lat="43.1499284" lon="10.7257963"><ele>118.0</ele><time>2026-05-03T13:20:15.568Z</time></trkpt><trkpt lat="43.1498834" lon="10.7261137"><ele>120.0</ele><time>2026-05-03T13:20:16.567Z</time></trkpt><trkpt lat="43.149838" lon="10.7264303"><ele>120.0</ele><time>2026-05-03T13:20:17.567Z</time></trkpt><trkpt lat="43.1497946" lon="10.7267197"><ele>120.0</ele><time>2026-05-03T13:20:18.567Z</time></trkpt><trkpt lat="43.1497578" lon="10.7270042"><ele>120.0</ele><time>2026-05-03T13:20:19.567Z</time></trkpt><trkpt lat="43.1497162" lon="10.7272821"><ele>118.0</ele><time>2026-05-03T13:20:20.568Z</time></trkpt><trkpt lat="43.1496836" lon="10.727536"><ele>116.0</ele><time>2026-05-03T13:20:21.569Z</time></trkpt><trkpt lat="43.1496518" lon="10.727767"><ele>114.0</ele><time>2026-05-03T13:20:22.567Z</time></trkpt><trkpt lat="43.1496225" lon="10.7279788"><ele>112.75</ele><time>2026-05-03T13:20:23.568Z</time></trkpt><trkpt lat="43.1495747" lon="10.7281627"><ele>111.5</ele><time>2026-05-03T13:20:24.568Z</time></trkpt><trkpt lat="43.1495019" lon="10.728322"><ele>110.25</ele><time>2026-05-03T13:20:25.567Z</time></trkpt><trkpt lat="43.1493949" lon="10.7284651"><ele>109.0</ele><time>2026-05-03T13:20:26.568Z</time></trkpt><trkpt lat="43.1492523" lon="10.7285916"><ele>108.66666666666667</ele><time>2026-05-03T13:20:27.567Z</time></trkpt><trkpt lat="43.1490845" lon="10.7287251"><ele>108.33333333333334</ele><time>2026-05-03T13:20:28.568Z</time></trkpt><trkpt lat="43.1489025" lon="10.7288656"><ele>108.0</ele><time>2026-05-03T13:20:29.568Z</time></trkpt><trkpt lat="43.148711" lon="10.7290226"><ele>108.0</ele><time>2026-05-03T13:20:30.567Z</time></trkpt><trkpt lat="43.148502" lon="10.7291915"><ele>108.0</ele><time>2026-05-03T13:20:31.568Z</time></trkpt><trkpt lat="43.1482924" lon="10.7293597"><ele>108.0</ele><time>2026-05-03T13:20:32.568Z</time></trkpt><trkpt lat="43.1480746" lon="10.7295362"><ele>108.0</ele><time>2026-05-03T13:20:33.567Z</time></trkpt><trkpt lat="43.1478627" lon="10.7297136"><ele>108.0</ele><time>2026-05-03T13:20:34.568Z</time></trkpt><trkpt lat="43.1476643" lon="10.729889"><ele>108.0</ele><time>2026-05-03T13:20:35.567Z</time></trkpt><trkpt lat="43.147475" lon="10.7300729"><ele>107.33333333333334</ele><time>2026-05-03T13:20:36.568Z</time></trkpt><trkpt lat="43.1472907" lon="10.7302604"><ele>106.66666666666667</ele><time>2026-05-03T13:20:37.568Z</time></trkpt><trkpt lat="43.1471195" lon="10.7304433"><ele>106.0</ele><time>2026-05-03T13:20:38.568Z</time></trkpt><trkpt lat="43.1469549" lon="10.7306168"><ele>106.0</ele><time>2026-05-03T13:20:39.567Z</time></trkpt><trkpt lat="43.1468001" lon="10.7307707"><ele>106.0</ele><time>2026-05-03T13:20:40.567Z</time></trkpt><trkpt lat="43.146638" lon="10.7308961"><ele>106.0</ele><time>2026-05-03T13:20:41.568Z</time></trkpt><trkpt lat="43.1464591" lon="10.7309942"><ele>103.33333333333334</ele><time>2026-05-03T13:20:42.568Z</time></trkpt><trkpt lat="43.1462623" lon="10.7310729"><ele>100.66666666666666</ele><time>2026-05-03T13:20:43.568Z</time></trkpt><trkpt lat="43.1460398" lon="10.7311412"><ele>98.0</ele><time>2026-05-03T13:20:44.568Z</time></trkpt><trkpt lat="43.1458159" lon="10.7312179"><ele>98.33333333333333</ele><time>2026-05-03T13:20:45.568Z</time></trkpt><trkpt lat="43.1455949" lon="10.731286"><ele>98.66666666666666</ele><time>2026-05-03T13:20:46.567Z</time></trkpt><trkpt lat="43.1453854" lon="10.7313444"><ele>99.0</ele><time>2026-05-03T13:20:47.567Z</time></trkpt><trkpt lat="43.1451831" lon="10.7314183"><ele>99.0</ele><time>2026-05-03T13:20:48.568Z</time></trkpt><trkpt lat="43.1449925" lon="10.7314709"><ele>99.0</ele><time>2026-05-03T13:20:49.568Z</time></trkpt><trkpt lat="43.1448023" lon="10.7315184"><ele>99.0</ele><time>2026-05-03T13:20:50.568Z</time></trkpt><trkpt lat="43.1446024" lon="10.7315636"><ele>100.0</ele><time>2026-05-03T13:20:51.567Z</time></trkpt><trkpt lat="43.1443916" lon="10.7315873"><ele>101.0</ele><time>2026-05-03T13:20:52.567Z</time></trkpt><trkpt lat="43.1441794" lon="10.7316049"><ele>102.0</ele><time>2026-05-03T13:20:53.568Z</time></trkpt><trkpt lat="43.1439776" lon="10.7316134"><ele>102.66666666666666</ele><time>2026-05-03T13:20:54.566Z</time></trkpt><trkpt lat="43.1437921" lon="10.7316212"><ele>103.33333333333333</ele><time>2026-05-03T13:20:55.569Z</time></trkpt><trkpt lat="43.1436139" lon="10.7316487"><ele>104.0</ele><time>2026-05-03T13:20:56.567Z</time></trkpt><trkpt lat="43.1434385" lon="10.7316886"><ele>104.0</ele><time>2026-05-03T13:20:57.568Z</time></trkpt><trkpt lat="43.143268" lon="10.7317629"><ele>104.0</ele><time>2026-05-03T13:20:58.566Z</time></trkpt><trkpt lat="43.1431053" lon="10.7318524"><ele>104.0</ele><time>2026-05-03T13:20:59.568Z</time></trkpt><trkpt lat="43.1429396" lon="10.7319344"><ele>100.33333333333333</ele><time>2026-05-03T13:21:00.569Z</time></trkpt><trkpt lat="43.1427759" lon="10.7319921"><ele>96.66666666666666</ele><time>2026-05-03T13:21:01.568Z</time></trkpt><trkpt lat="43.1426093" lon="10.7320331"><ele>93.0</ele><time>2026-05-03T13:21:02.566Z</time></trkpt><trkpt lat="43.1424414" lon="10.7320408"><ele>92.33333333333333</ele><time>2026-05-03T13:21:03.569Z</time></trkpt><trkpt lat="43.1422813" lon="10.7320153"><ele>91.66666666666666</ele><time>2026-05-03T13:21:04.568Z</time></trkpt><trkpt lat="43.1421155" lon="10.7319705"><ele>91.0</ele><time>2026-05-03T13:21:05.567Z</time></trkpt><trkpt lat="43.141947" lon="10.7318905"><ele>90.66666666666666</ele><time>2026-05-03T13:21:06.568Z</time></trkpt><trkpt lat="43.1417847" lon="10.7317852"><ele>90.33333333333333</ele><time>2026-05-03T13:21:07.568Z</time></trkpt><trkpt lat="43.1416151" lon="10.7316687"><ele>90.0</ele><time>2026-05-03T13:21:08.568Z</time></trkpt><trkpt lat="43.141444" lon="10.7315464"><ele>90.0</ele><time>2026-05-03T13:21:09.567Z</time></trkpt><trkpt lat="43.1412753" lon="10.7314205"><ele>90.0</ele><time>2026-05-03T13:21:10.569Z</time></trkpt><trkpt lat="43.1410991" lon="10.7312898"><ele>90.0</ele><time>2026-05-03T13:21:11.568Z</time></trkpt><trkpt lat="43.1409208" lon="10.7311661"><ele>90.0</ele><time>2026-05-03T13:21:12.567Z</time></trkpt><trkpt lat="43.140741" lon="10.7310307"><ele>90.0</ele><time>2026-05-03T13:21:13.568Z</time></trkpt><trkpt lat="43.1405595" lon="10.7309001"><ele>90.0</ele><time>2026-05-03T13:21:14.569Z</time></trkpt><trkpt lat="43.1403846" lon="10.7307594"><ele>90.0</ele><time>2026-05-03T13:21:15.568Z</time></trkpt><trkpt lat="43.1402079" lon="10.7306226"><ele>90.0</ele><time>2026-05-03T13:21:16.568Z</time></trkpt><trkpt lat="43.1400339" lon="10.7304837"><ele>90.0</ele><time>2026-05-03T13:21:17.568Z</time></trkpt><trkpt lat="43.1398613" lon="10.7303514"><ele>89.33333333333333</ele><time>2026-05-03T13:21:18.569Z</time></trkpt><trkpt lat="43.1396899" lon="10.730228"><ele>88.66666666666666</ele><time>2026-05-03T13:21:19.568Z</time></trkpt><trkpt lat="43.1395263" lon="10.7301134"><ele>88.0</ele><time>2026-05-03T13:21:20.567Z</time></trkpt><trkpt lat="43.1393686" lon="10.7299935"><ele>89.0</ele><time>2026-05-03T13:21:21.568Z</time></trkpt><trkpt lat="43.1392266" lon="10.7298616"><ele>90.0</ele><time>2026-05-03T13:21:22.567Z</time></trkpt><trkpt lat="43.1390956" lon="10.7296997"><ele>91.0</ele><time>2026-05-03T13:21:23.568Z</time></trkpt><trkpt lat="43.1389817" lon="10.7295074"><ele>91.0</ele><time>2026-05-03T13:21:24.568Z</time></trkpt><trkpt lat="43.1388752" lon="10.729311"><ele>91.0</ele><time>2026-05-03T13:21:25.567Z</time></trkpt><trkpt lat="43.1387652" lon="10.7291303"><ele>91.0</ele><time>2026-05-03T13:21:26.568Z</time></trkpt><trkpt lat="43.1386523" lon="10.7289572"><ele>91.0</ele><time>2026-05-03T13:21:27.568Z</time></trkpt><trkpt lat="43.1384993" lon="10.7288379"><ele>91.0</ele><time>2026-05-03T13:21:28.568Z</time></trkpt><trkpt lat="43.1383422" lon="10.7287327"><ele>91.0</ele><time>2026-05-03T13:21:29.567Z</time></trkpt><trkpt lat="43.1381763" lon="10.7286526"><ele>90.33333333333333</ele><time>2026-05-03T13:21:30.567Z</time></trkpt><trkpt lat="43.1380014" lon="10.7285975"><ele>89.66666666666667</ele><time>2026-05-03T13:21:31.568Z</time></trkpt><trkpt lat="43.1378319" lon="10.7285308"><ele>89.0</ele><time>2026-05-03T13:21:32.567Z</time></trkpt><trkpt lat="43.1376683" lon="10.7284402"><ele>88.0</ele><time>2026-05-03T13:21:33.568Z</time></trkpt><trkpt lat="43.1375139" lon="10.7283167"><ele>87.0</ele><time>2026-05-03T13:21:34.568Z</time></trkpt><trkpt lat="43.1373675" lon="10.7281546"><ele>86.0</ele><time>2026-05-03T13:21:35.568Z</time></trkpt><trkpt lat="43.1372267" lon="10.7279773"><ele>86.0</ele><time>2026-05-03T13:21:36.567Z</time></trkpt><trkpt lat="43.1370893" lon="10.7277993"><ele>86.0</ele><time>2026-05-03T13:21:37.568Z</time></trkpt><trkpt lat="43.1369489" lon="10.7276205"><ele>86.0</ele><time>2026-05-03T13:21:38.568Z</time></trkpt><trkpt lat="43.1368057" lon="10.7274261"><ele>86.0</ele><time>2026-05-03T13:21:39.567Z</time></trkpt><trkpt lat="43.1366562" lon="10.7272373"><ele>86.0</ele><time>2026-05-03T13:21:40.569Z</time></trkpt><trkpt lat="43.1365117" lon="10.7270507"><ele>86.0</ele><time>2026-05-03T13:21:41.569Z</time></trkpt><trkpt lat="43.1363679" lon="10.7268545"><ele>88.0</ele><time>2026-05-03T13:21:42.567Z</time></trkpt><trkpt lat="43.1360766" lon="10.726468"><ele>90.0</ele><time>2026-05-03T13:21:44.568Z</time></trkpt><trkpt lat="43.1359292" lon="10.726277"><ele>90.0</ele><time>2026-05-03T13:21:45.567Z</time></trkpt><trkpt lat="43.1357781" lon="10.7260862"><ele>90.0</ele><time>2026-05-03T13:21:46.568Z</time></trkpt><trkpt lat="43.1356245" lon="10.7258982"><ele>90.0</ele><time>2026-05-03T13:21:47.568Z</time></trkpt><trkpt lat="43.1354773" lon="10.7257048"><ele>90.0</ele><time>2026-05-03T13:21:48.568Z</time></trkpt><trkpt lat="43.1353372" lon="10.7255074"><ele>90.0</ele><time>2026-05-03T13:21:49.567Z</time></trkpt><trkpt lat="43.135191" lon="10.7253199"><ele>90.0</ele><time>2026-05-03T13:21:50.569Z</time></trkpt><trkpt lat="43.1350434" lon="10.7251278"><ele>90.0</ele><time>2026-05-03T13:21:51.568Z</time></trkpt><trkpt lat="43.1348962" lon="10.7249356"><ele>90.0</ele><time>2026-05-03T13:21:52.568Z</time></trkpt><trkpt lat="43.1347489" lon="10.7247364"><ele>90.0</ele><time>2026-05-03T13:21:53.568Z</time></trkpt><trkpt lat="43.1346029" lon="10.7245335"><ele>89.33333333333333</ele><time>2026-05-03T13:21:54.568Z</time></trkpt><trkpt lat="43.1344654" lon="10.7243213"><ele>88.66666666666666</ele><time>2026-05-03T13:21:55.569Z</time></trkpt><trkpt lat="43.1343263" lon="10.7241076"><ele>88.0</ele><time>2026-05-03T13:21:56.568Z</time></trkpt><trkpt lat="43.1341841" lon="10.7239034"><ele>87.66666666666666</ele><time>2026-05-03T13:21:57.567Z</time></trkpt><trkpt lat="43.134039" lon="10.7236906"><ele>87.33333333333333</ele><time>2026-05-03T13:21:58.568Z</time></trkpt><trkpt lat="43.1339001" lon="10.7234776"><ele>87.0</ele><time>2026-05-03T13:21:59.568Z</time></trkpt><trkpt lat="43.1337614" lon="10.7232648"><ele>87.0</ele><time>2026-05-03T13:22:00.569Z</time></trkpt><trkpt lat="43.1336142" lon="10.7230594"><ele>87.0</ele><time>2026-05-03T13:22:01.568Z</time></trkpt><trkpt lat="43.1334554" lon="10.722871"><ele>87.0</ele><time>2026-05-03T13:22:02.568Z</time></trkpt><trkpt lat="43.1331044" lon="10.722544"><ele>87.33333333333333</ele><time>2026-05-03T13:22:04.568Z</time></trkpt><trkpt lat="43.1329214" lon="10.7223977"><ele>87.66666666666666</ele><time>2026-05-03T13:22:05.568Z</time></trkpt><trkpt lat="43.1327324" lon="10.7222519"><ele>88.0</ele><time>2026-05-03T13:22:06.568Z</time></trkpt><trkpt lat="43.132548" lon="10.7220948"><ele>87.33333333333333</ele><time>2026-05-03T13:22:07.567Z</time></trkpt><trkpt lat="43.1323752" lon="10.7219279"><ele>86.66666666666667</ele><time>2026-05-03T13:22:08.566Z</time></trkpt><trkpt lat="43.1322128" lon="10.7217527"><ele>86.0</ele><time>2026-05-03T13:22:09.568Z</time></trkpt><trkpt lat="43.1320623" lon="10.7215478"><ele>86.0</ele><time>2026-05-03T13:22:10.568Z</time></trkpt><trkpt lat="43.1319141" lon="10.7213387"><ele>86.0</ele><time>2026-05-03T13:22:11.567Z</time></trkpt><trkpt lat="43.1317772" lon="10.7211275"><ele>86.0</ele><time>2026-05-03T13:22:12.568Z</time></trkpt><trkpt lat="43.1316329" lon="10.7209149"><ele>85.66666666666667</ele><time>2026-05-03T13:22:13.566Z</time></trkpt><trkpt lat="43.1314896" lon="10.7207046"><ele>85.33333333333333</ele><time>2026-05-03T13:22:14.568Z</time></trkpt><trkpt lat="43.1313473" lon="10.7205004"><ele>85.0</ele><time>2026-05-03T13:22:15.568Z</time></trkpt><trkpt lat="43.1311993" lon="10.7202976"><ele>85.0</ele><time>2026-05-03T13:22:16.568Z</time></trkpt><trkpt lat="43.1310505" lon="10.7200982"><ele>85.0</ele><time>2026-05-03T13:22:17.567Z</time></trkpt><trkpt lat="43.1309066" lon="10.719899"><ele>85.0</ele><time>2026-05-03T13:22:18.568Z</time></trkpt><trkpt lat="43.1307568" lon="10.7197049"><ele>84.66666666666666</ele><time>2026-05-03T13:22:19.568Z</time></trkpt><trkpt lat="43.1306081" lon="10.7195185"><ele>84.33333333333333</ele><time>2026-05-03T13:22:20.566Z</time></trkpt><trkpt lat="43.1304539" lon="10.7193326"><ele>84.0</ele><time>2026-05-03T13:22:21.569Z</time></trkpt><trkpt lat="43.1302879" lon="10.7191746"><ele>84.0</ele><time>2026-05-03T13:22:22.569Z</time></trkpt><trkpt lat="43.1301059" lon="10.7190259"><ele>84.0</ele><time>2026-05-03T13:22:23.569Z</time></trkpt><trkpt lat="43.129915" lon="10.718897"><ele>84.0</ele><time>2026-05-03T13:22:24.567Z</time></trkpt><trkpt lat="43.1297177" lon="10.7187752"><ele>83.33333333333333</ele><time>2026-05-03T13:22:25.568Z</time></trkpt><trkpt lat="43.1295173" lon="10.7186612"><ele>82.66666666666666</ele><time>2026-05-03T13:22:26.568Z</time></trkpt><trkpt lat="43.1293132" lon="10.7185496"><ele>82.0</ele><time>2026-05-03T13:22:27.568Z</time></trkpt><trkpt lat="43.1291124" lon="10.718448"><ele>81.33333333333333</ele><time>2026-05-03T13:22:28.569Z</time></trkpt><trkpt lat="43.1289053" lon="10.7183534"><ele>80.66666666666667</ele><time>2026-05-03T13:22:29.568Z</time></trkpt><trkpt lat="43.1286985" lon="10.7182537"><ele>80.0</ele><time>2026-05-03T13:22:30.568Z</time></trkpt><trkpt lat="43.1284954" lon="10.7181524"><ele>80.0</ele><time>2026-05-03T13:22:31.568Z</time></trkpt><trkpt lat="43.1282934" lon="10.7180457"><ele>80.0</ele><time>2026-05-03T13:22:32.568Z</time></trkpt><trkpt lat="43.1280891" lon="10.717939"><ele>80.0</ele><time>2026-05-03T13:22:33.568Z</time></trkpt><trkpt lat="43.12789" lon="10.717838"><ele>80.0</ele><time>2026-05-03T13:22:34.567Z</time></trkpt><trkpt lat="43.1276881" lon="10.7177371"><ele>80.0</ele><time>2026-05-03T13:22:35.567Z</time></trkpt><trkpt lat="43.1274881" lon="10.7176405"><ele>80.0</ele><time>2026-05-03T13:22:36.568Z</time></trkpt><trkpt lat="43.1272921" lon="10.7175388"><ele>79.33333333333334</ele><time>2026-05-03T13:22:37.568Z</time></trkpt><trkpt lat="43.1270946" lon="10.7174361"><ele>78.66666666666667</ele><time>2026-05-03T13:22:38.567Z</time></trkpt><trkpt lat="43.1268897" lon="10.7173384"><ele>78.0</ele><time>2026-05-03T13:22:39.567Z</time></trkpt><trkpt lat="43.1266937" lon="10.717253"><ele>77.66666666666667</ele><time>2026-05-03T13:22:40.568Z</time></trkpt><trkpt lat="43.1264946" lon="10.7171753"><ele>77.33333333333334</ele><time>2026-05-03T13:22:41.568Z</time></trkpt><trkpt lat="43.1263049" lon="10.7171193"><ele>77.0</ele><time>2026-05-03T13:22:42.567Z</time></trkpt><trkpt lat="43.1261265" lon="10.7170628"><ele>77.0</ele><time>2026-05-03T13:22:43.568Z</time></trkpt><trkpt lat="43.1259792" lon="10.7170325"><ele>77.0</ele><time>2026-05-03T13:22:44.568Z</time></trkpt><trkpt lat="43.1258464" lon="10.717009"><ele>77.0</ele><time>2026-05-03T13:22:45.567Z</time></trkpt><trkpt lat="43.1257371" lon="10.7169896"><ele>77.0</ele><time>2026-05-03T13:22:46.567Z</time></trkpt><trkpt lat="43.1256472" lon="10.7169721"><ele>76.83333333333334</ele><time>2026-05-03T13:22:47.567Z</time></trkpt><trkpt lat="43.1255789" lon="10.7169594"><ele>76.66666666666667</ele><time>2026-05-03T13:22:48.568Z</time></trkpt><trkpt lat="43.1255026" lon="10.7169404"><ele>76.5</ele><time>2026-05-03T13:22:50.567Z</time></trkpt><trkpt lat="43.1254389" lon="10.7169691"><ele>76.33333333333333</ele><time>2026-05-03T13:23:01.567Z</time></trkpt><trkpt lat="43.1253988" lon="10.7171082"><ele>76.16666666666666</ele><time>2026-05-03T13:23:03.569Z</time></trkpt><trkpt lat="43.1253858" lon="10.7172182"><ele>76.0</ele><time>2026-05-03T13:23:04.568Z</time></trkpt><trkpt lat="43.1253618" lon="10.7173786"><ele>76.0</ele><time>2026-05-03T13:23:05.567Z</time></trkpt><trkpt lat="43.1253368" lon="10.7175427"><ele>76.0</ele><time>2026-05-03T13:23:06.567Z</time></trkpt><trkpt lat="43.1253045" lon="10.7177379"><ele>76.0</ele><time>2026-05-03T13:23:07.567Z</time></trkpt><trkpt lat="43.1252671" lon="10.7179563"><ele>76.0</ele><time>2026-05-03T13:23:08.568Z</time></trkpt><trkpt lat="43.125236" lon="10.7181811"><ele>76.0</ele><time>2026-05-03T13:23:09.566Z</time></trkpt><trkpt lat="43.1251973" lon="10.7183951"><ele>76.0</ele><time>2026-05-03T13:23:10.568Z</time></trkpt><trkpt lat="43.1251579" lon="10.7186131"><ele>76.0</ele><time>2026-05-03T13:23:11.568Z</time></trkpt><trkpt lat="43.1251214" lon="10.7188411"><ele>76.0</ele><time>2026-05-03T13:23:12.568Z</time></trkpt><trkpt lat="43.1250866" lon="10.7190673"><ele>76.0</ele><time>2026-05-03T13:23:13.567Z</time></trkpt><trkpt lat="43.125034" lon="10.7192756"><ele>76.0</ele><time>2026-05-03T13:23:14.567Z</time></trkpt><trkpt lat="43.1249735" lon="10.7194874"><ele>76.0</ele><time>2026-05-03T13:23:15.568Z</time></trkpt><trkpt lat="43.1248918" lon="10.7196856"><ele>76.0</ele><time>2026-05-03T13:23:16.567Z</time></trkpt><trkpt lat="43.1247883" lon="10.7198658"><ele>76.0</ele><time>2026-05-03T13:23:17.568Z</time></trkpt><trkpt lat="43.1246679" lon="10.7200272"><ele>76.0</ele><time>2026-05-03T13:23:18.567Z</time></trkpt><trkpt lat="43.1245273" lon="10.7201583"><ele>76.0</ele><time>2026-05-03T13:23:19.568Z</time></trkpt><trkpt lat="43.1243688" lon="10.7202672"><ele>76.0</ele><time>2026-05-03T13:23:20.567Z</time></trkpt><trkpt lat="43.1242094" lon="10.7203754"><ele>76.33333333333333</ele><time>2026-05-03T13:23:21.568Z</time></trkpt><trkpt lat="43.1240454" lon="10.7204787"><ele>76.66666666666667</ele><time>2026-05-03T13:23:22.566Z</time></trkpt><trkpt lat="43.1238786" lon="10.7205866"><ele>77.0</ele><time>2026-05-03T13:23:23.567Z</time></trkpt><trkpt lat="43.1237126" lon="10.7206981"><ele>77.0</ele><time>2026-05-03T13:23:24.568Z</time></trkpt><trkpt lat="43.1235481" lon="10.7208064"><ele>77.0</ele><time>2026-05-03T13:23:25.567Z</time></trkpt><trkpt lat="43.123378" lon="10.7209205"><ele>77.0</ele><time>2026-05-03T13:23:26.568Z</time></trkpt><trkpt lat="43.123219" lon="10.7210346"><ele>77.33333333333334</ele><time>2026-05-03T13:23:27.567Z</time></trkpt><trkpt lat="43.1230511" lon="10.7211553"><ele>77.66666666666667</ele><time>2026-05-03T13:23:28.567Z</time></trkpt><trkpt lat="43.12289" lon="10.7212685"><ele>78.0</ele><time>2026-05-03T13:23:29.568Z</time></trkpt><trkpt lat="43.1227203" lon="10.7213739"><ele>78.0</ele><time>2026-05-03T13:23:30.568Z</time></trkpt><trkpt lat="43.122548" lon="10.7214618"><ele>78.0</ele><time>2026-05-03T13:23:31.568Z</time></trkpt><trkpt lat="43.1223692" lon="10.7215171"><ele>78.0</ele><time>2026-05-03T13:23:32.569Z</time></trkpt><trkpt lat="43.1221909" lon="10.7215384"><ele>79.66666666666667</ele><time>2026-05-03T13:23:33.568Z</time></trkpt><trkpt lat="43.1220062" lon="10.7215365"><ele>81.33333333333334</ele><time>2026-05-03T13:23:34.568Z</time></trkpt><trkpt lat="43.1218325" lon="10.7215074"><ele>83.0</ele><time>2026-05-03T13:23:35.568Z</time></trkpt><trkpt lat="43.1216504" lon="10.7214646"><ele>85.66666666666667</ele><time>2026-05-03T13:23:36.567Z</time></trkpt><trkpt lat="43.1214714" lon="10.7214187"><ele>88.33333333333333</ele><time>2026-05-03T13:23:37.567Z</time></trkpt><trkpt lat="43.1212911" lon="10.7213807"><ele>91.0</ele><time>2026-05-03T13:23:38.567Z</time></trkpt><trkpt lat="43.1211059" lon="10.721349"><ele>91.0</ele><time>2026-05-03T13:23:39.567Z</time></trkpt><trkpt lat="43.1209251" lon="10.7213163"><ele>91.0</ele><time>2026-05-03T13:23:40.568Z</time></trkpt><trkpt lat="43.120552" lon="10.7212198"><ele>92.33333333333333</ele><time>2026-05-03T13:23:42.566Z</time></trkpt><trkpt lat="43.1203734" lon="10.7211284"><ele>93.66666666666667</ele><time>2026-05-03T13:23:43.567Z</time></trkpt><trkpt lat="43.120199" lon="10.7210187"><ele>95.0</ele><time>2026-05-03T13:23:44.569Z</time></trkpt><trkpt lat="43.1200305" lon="10.7208874"><ele>94.0</ele><time>2026-05-03T13:23:45.567Z</time></trkpt><trkpt lat="43.1198588" lon="10.7207463"><ele>93.0</ele><time>2026-05-03T13:23:46.568Z</time></trkpt><trkpt lat="43.1196855" lon="10.7205972"><ele>92.0</ele><time>2026-05-03T13:23:47.568Z</time></trkpt><trkpt lat="43.119506" lon="10.7204447"><ele>92.0</ele><time>2026-05-03T13:23:48.567Z</time></trkpt><trkpt lat="43.1193334" lon="10.7202895"><ele>92.0</ele><time>2026-05-03T13:23:49.568Z</time></trkpt><trkpt lat="43.1191592" lon="10.7201333"><ele>92.0</ele><time>2026-05-03T13:23:50.566Z</time></trkpt><trkpt lat="43.1189807" lon="10.719984"><ele>91.66666666666667</ele><time>2026-05-03T13:23:51.568Z</time></trkpt><trkpt lat="43.118803" lon="10.7198212"><ele>91.33333333333333</ele><time>2026-05-03T13:23:52.568Z</time></trkpt><trkpt lat="43.1186332" lon="10.7196605"><ele>91.0</ele><time>2026-05-03T13:23:53.567Z</time></trkpt><trkpt lat="43.1184627" lon="10.7195054"><ele>88.0</ele><time>2026-05-03T13:23:54.569Z</time></trkpt><trkpt lat="43.118312" lon="10.7193595"><ele>85.0</ele><time>2026-05-03T13:23:55.568Z</time></trkpt><trkpt lat="43.118164" lon="10.7192437"><ele>82.0</ele><time>2026-05-03T13:23:56.568Z</time></trkpt><trkpt lat="43.1180088" lon="10.7191624"><ele>81.66666666666666</ele><time>2026-05-03T13:23:57.567Z</time></trkpt><trkpt lat="43.1178508" lon="10.7191258"><ele>81.33333333333333</ele><time>2026-05-03T13:23:58.568Z</time></trkpt><trkpt lat="43.1176866" lon="10.7191335"><ele>81.0</ele><time>2026-05-03T13:23:59.568Z</time></trkpt><trkpt lat="43.1175123" lon="10.7191852"><ele>80.66666666666667</ele><time>2026-05-03T13:24:00.567Z</time></trkpt><trkpt lat="43.1173261" lon="10.7192791"><ele>80.33333333333334</ele><time>2026-05-03T13:24:01.567Z</time></trkpt><trkpt lat="43.1171271" lon="10.7193807"><ele>80.0</ele><time>2026-05-03T13:24:02.566Z</time></trkpt><trkpt lat="43.1169042" lon="10.7194962"><ele>80.0</ele><time>2026-05-03T13:24:03.568Z</time></trkpt><trkpt lat="43.1166658" lon="10.7196191"><ele>80.0</ele><time>2026-05-03T13:24:04.567Z</time></trkpt><trkpt lat="43.116417" lon="10.7197275"><ele>79.5</ele><time>2026-05-03T13:24:05.567Z</time></trkpt><trkpt lat="43.1161677" lon="10.7198092"><ele>79.0</ele><time>2026-05-03T13:24:06.568Z</time></trkpt><trkpt lat="43.1159254" lon="10.719913"><ele>77.0</ele><time>2026-05-03T13:24:07.568Z</time></trkpt><trkpt lat="43.115693" lon="10.719997"><ele>75.0</ele><time>2026-05-03T13:24:08.569Z</time></trkpt><trkpt lat="43.1154686" lon="10.7200772"><ele>75.0</ele><time>2026-05-03T13:24:09.567Z</time></trkpt><trkpt lat="43.1152492" lon="10.7201483"><ele>75.0</ele><time>2026-05-03T13:24:10.568Z</time></trkpt><trkpt lat="43.1150296" lon="10.7202025"><ele>75.0</ele><time>2026-05-03T13:24:11.568Z</time></trkpt><trkpt lat="43.1148007" lon="10.720236"><ele>81.5</ele><time>2026-05-03T13:24:12.568Z</time></trkpt><trkpt lat="43.1145667" lon="10.7202528"><ele>88.0</ele><time>2026-05-03T13:24:13.567Z</time></trkpt><trkpt lat="43.1143421" lon="10.7202826"><ele>88.0</ele><time>2026-05-03T13:24:14.568Z</time></trkpt><trkpt lat="43.1141036" lon="10.7203164"><ele>88.0</ele><time>2026-05-03T13:24:15.567Z</time></trkpt><trkpt lat="43.1138639" lon="10.7203745"><ele>83.0</ele><time>2026-05-03T13:24:16.567Z</time></trkpt><trkpt lat="43.113627" lon="10.7204603"><ele>78.0</ele><time>2026-05-03T13:24:17.567Z</time></trkpt><trkpt lat="43.1134341" lon="10.7205543"><ele>78.0</ele><time>2026-05-03T13:24:18.568Z</time></trkpt><trkpt lat="43.1132676" lon="10.7206676"><ele>78.0</ele><time>2026-05-03T13:24:19.568Z</time></trkpt><trkpt lat="43.113121" lon="10.7208093"><ele>78.0</ele><time>2026-05-03T13:24:20.567Z</time></trkpt><trkpt lat="43.1129918" lon="10.7209791"><ele>76.66666666666667</ele><time>2026-05-03T13:24:21.567Z</time></trkpt><trkpt lat="43.112878" lon="10.7211715"><ele>75.33333333333334</ele><time>2026-05-03T13:24:22.567Z</time></trkpt><trkpt lat="43.1127815" lon="10.7213768"><ele>74.0</ele><time>2026-05-03T13:24:23.569Z</time></trkpt><trkpt lat="43.1127182" lon="10.7216168"><ele>74.0</ele><time>2026-05-03T13:24:24.567Z</time></trkpt><trkpt lat="43.1126729" lon="10.7218746"><ele>74.0</ele><time>2026-05-03T13:24:25.568Z</time></trkpt><trkpt lat="43.1126507" lon="10.7221333"><ele>74.0</ele><time>2026-05-03T13:24:26.568Z</time></trkpt><trkpt lat="43.112637" lon="10.722391"><ele>73.33333333333334</ele><time>2026-05-03T13:24:27.567Z</time></trkpt><trkpt lat="43.1126215" lon="10.7226331"><ele>72.66666666666667</ele><time>2026-05-03T13:24:28.566Z</time></trkpt><trkpt lat="43.1126062" lon="10.722866"><ele>72.0</ele><time>2026-05-03T13:24:29.568Z</time></trkpt><trkpt lat="43.1125856" lon="10.7230809"><ele>71.33333333333333</ele><time>2026-05-03T13:24:30.567Z</time></trkpt><trkpt lat="43.1125173" lon="10.7232719"><ele>70.66666666666666</ele><time>2026-05-03T13:24:31.567Z</time></trkpt><trkpt lat="43.1124379" lon="10.7234431"><ele>70.0</ele><time>2026-05-03T13:24:32.568Z</time></trkpt><trkpt lat="43.1123264" lon="10.7235809"><ele>69.0</ele><time>2026-05-03T13:24:33.566Z</time></trkpt><trkpt lat="43.1122044" lon="10.7237075"><ele>68.0</ele><time>2026-05-03T13:24:34.568Z</time></trkpt><trkpt lat="43.1120469" lon="10.7237964"><ele>67.0</ele><time>2026-05-03T13:24:35.568Z</time></trkpt><trkpt lat="43.1118776" lon="10.7238923"><ele>67.0</ele><time>2026-05-03T13:24:36.567Z</time></trkpt><trkpt lat="43.1116943" lon="10.7239868"><ele>67.0</ele><time>2026-05-03T13:24:37.568Z</time></trkpt><trkpt lat="43.1115239" lon="10.7240888"><ele>67.0</ele><time>2026-05-03T13:24:38.567Z</time></trkpt><trkpt lat="43.1113537" lon="10.7241785"><ele>68.0</ele><time>2026-05-03T13:24:39.566Z</time></trkpt><trkpt lat="43.1111945" lon="10.724274"><ele>69.0</ele><time>2026-05-03T13:24:40.568Z</time></trkpt><trkpt lat="43.1110523" lon="10.7243567"><ele>70.0</ele><time>2026-05-03T13:24:41.567Z</time></trkpt><trkpt lat="43.1109145" lon="10.7244368"><ele>70.0</ele><time>2026-05-03T13:24:42.568Z</time></trkpt><trkpt lat="43.1107733" lon="10.7245239"><ele>70.0</ele><time>2026-05-03T13:24:43.567Z</time></trkpt><trkpt lat="43.1106325" lon="10.7246183"><ele>70.0</ele><time>2026-05-03T13:24:44.567Z</time></trkpt><trkpt lat="43.1104925" lon="10.7247218"><ele>70.0</ele><time>2026-05-03T13:24:45.567Z</time></trkpt><trkpt lat="43.1103545" lon="10.724842"><ele>70.0</ele><time>2026-05-03T13:24:46.567Z</time></trkpt><trkpt lat="43.1102088" lon="10.7249798"><ele>70.0</ele><time>2026-05-03T13:24:47.568Z</time></trkpt><trkpt lat="43.1100758" lon="10.7251091"><ele>69.66666666666666</ele><time>2026-05-03T13:24:48.567Z</time></trkpt><trkpt lat="43.1099419" lon="10.7252715"><ele>69.33333333333333</ele><time>2026-05-03T13:24:49.566Z</time></trkpt><trkpt lat="43.1098139" lon="10.7254338"><ele>69.0</ele><time>2026-05-03T13:24:50.568Z</time></trkpt><trkpt lat="43.1096956" lon="10.7256092"><ele>69.0</ele><time>2026-05-03T13:24:51.566Z</time></trkpt><trkpt lat="43.1095833" lon="10.7257909"><ele>69.0</ele><time>2026-05-03T13:24:52.569Z</time></trkpt><trkpt lat="43.109485" lon="10.7259563"><ele>69.0</ele><time>2026-05-03T13:24:53.568Z</time></trkpt><trkpt lat="43.1093802" lon="10.7261427"><ele>69.0</ele><time>2026-05-03T13:24:54.566Z</time></trkpt><trkpt lat="43.109274" lon="10.7263267"><ele>69.0</ele><time>2026-05-03T13:24:55.567Z</time></trkpt><trkpt lat="43.1091792" lon="10.7264898"><ele>69.0</ele><time>2026-05-03T13:24:56.568Z</time></trkpt><trkpt lat="43.1090872" lon="10.7266518"><ele>69.4</ele><time>2026-05-03T13:24:57.566Z</time></trkpt><trkpt lat="43.1090007" lon="10.726802"><ele>69.80000000000001</ele><time>2026-05-03T13:24:58.568Z</time></trkpt><trkpt lat="43.1089283" lon="10.7269264"><ele>70.19999999999999</ele><time>2026-05-03T13:24:59.566Z</time></trkpt><trkpt lat="43.1088674" lon="10.7270384"><ele>70.6</ele><time>2026-05-03T13:25:00.567Z</time></trkpt><trkpt lat="43.1088282" lon="10.7271109"><ele>71.0</ele><time>2026-05-03T13:25:01.568Z</time></trkpt><trkpt lat="43.1087865" lon="10.7272008"><ele>71.39999999999999</ele><time>2026-05-03T13:25:03.568Z</time></trkpt><trkpt lat="43.1087698" lon="10.7273205"><ele>71.8</ele><time>2026-05-03T13:25:08.568Z</time></trkpt><trkpt lat="43.1088691" lon="10.7274122"><ele>72.19999999999999</ele><time>2026-05-03T13:25:10.568Z</time></trkpt><trkpt lat="43.1089349" lon="10.7274703"><ele>72.6</ele><time>2026-05-03T13:25:11.568Z</time></trkpt><trkpt lat="43.1090214" lon="10.7275442"><ele>73.0</ele><time>2026-05-03T13:25:12.566Z</time></trkpt><trkpt lat="43.1091277" lon="10.7276444"><ele>77.0</ele><time>2026-05-03T13:25:13.568Z</time></trkpt><trkpt lat="43.1092268" lon="10.7277718"><ele>81.0</ele><time>2026-05-03T13:25:14.568Z</time></trkpt><trkpt lat="43.1093632" lon="10.7279038"><ele>85.0</ele><time>2026-05-03T13:25:15.569Z</time></trkpt><trkpt lat="43.1095115" lon="10.7280464"><ele>85.0</ele><time>2026-05-03T13:25:16.568Z</time></trkpt><trkpt lat="43.1096672" lon="10.7281949"><ele>85.0</ele><time>2026-05-03T13:25:17.568Z</time></trkpt><trkpt lat="43.109832" lon="10.728343"><ele>85.0</ele><time>2026-05-03T13:25:18.567Z</time></trkpt><trkpt lat="43.1100063" lon="10.7285033"><ele>87.66666666666666</ele><time>2026-05-03T13:25:19.568Z</time></trkpt><trkpt lat="43.1101816" lon="10.7286708"><ele>90.33333333333333</ele><time>2026-05-03T13:25:20.567Z</time></trkpt><trkpt lat="43.110373" lon="10.7288299"><ele>93.0</ele><time>2026-05-03T13:25:21.567Z</time></trkpt><trkpt lat="43.1105573" lon="10.7289748"><ele>89.66666666666667</ele><time>2026-05-03T13:25:22.567Z</time></trkpt><trkpt lat="43.1107413" lon="10.7290892"><ele>86.33333333333334</ele><time>2026-05-03T13:25:23.567Z</time></trkpt><trkpt lat="43.110931" lon="10.7291774"><ele>83.0</ele><time>2026-05-03T13:25:24.568Z</time></trkpt><trkpt lat="43.1111282" lon="10.72925"><ele>83.0</ele><time>2026-05-03T13:25:25.568Z</time></trkpt><trkpt lat="43.1113255" lon="10.7293566"><ele>83.0</ele><time>2026-05-03T13:25:26.568Z</time></trkpt><trkpt lat="43.1115154" lon="10.7294952"><ele>83.0</ele><time>2026-05-03T13:25:27.567Z</time></trkpt><trkpt lat="43.1116823" lon="10.7296565"><ele>84.0</ele><time>2026-05-03T13:25:28.567Z</time></trkpt><trkpt lat="43.1118292" lon="10.7298538"><ele>85.0</ele><time>2026-05-03T13:25:29.567Z</time></trkpt><trkpt lat="43.1119816" lon="10.7300262"><ele>86.0</ele><time>2026-05-03T13:25:30.567Z</time></trkpt><trkpt lat="43.1121245" lon="10.730194"><ele>85.0</ele><time>2026-05-03T13:25:31.566Z</time></trkpt><trkpt lat="43.1122258" lon="10.7303737"><ele>84.0</ele><time>2026-05-03T13:25:32.566Z</time></trkpt><trkpt lat="43.1123195" lon="10.7305706"><ele>83.0</ele><time>2026-05-03T13:25:33.567Z</time></trkpt><trkpt lat="43.1124208" lon="10.7307891"><ele>83.0</ele><time>2026-05-03T13:25:34.567Z</time></trkpt><trkpt lat="43.1125386" lon="10.7310055"><ele>83.0</ele><time>2026-05-03T13:25:35.567Z</time></trkpt><trkpt lat="43.1126784" lon="10.731231"><ele>83.0</ele><time>2026-05-03T13:25:36.567Z</time></trkpt><trkpt lat="43.1128242" lon="10.7314538"><ele>83.33333333333334</ele><time>2026-05-03T13:25:37.567Z</time></trkpt><trkpt lat="43.1129713" lon="10.7316777"><ele>83.66666666666667</ele><time>2026-05-03T13:25:38.567Z</time></trkpt><trkpt lat="43.1131113" lon="10.7319032"><ele>84.0</ele><time>2026-05-03T13:25:39.567Z</time></trkpt><trkpt lat="43.1132416" lon="10.7321373"><ele>84.0</ele><time>2026-05-03T13:25:40.568Z</time></trkpt><trkpt lat="43.113368" lon="10.7323729"><ele>84.0</ele><time>2026-05-03T13:25:41.567Z</time></trkpt><trkpt lat="43.1134765" lon="10.7326131"><ele>84.0</ele><time>2026-05-03T13:25:42.568Z</time></trkpt><trkpt lat="43.113587" lon="10.7328634"><ele>85.66666666666667</ele><time>2026-05-03T13:25:43.566Z</time></trkpt><trkpt lat="43.1136974" lon="10.7331115"><ele>87.33333333333334</ele><time>2026-05-03T13:25:44.568Z</time></trkpt><trkpt lat="43.1138247" lon="10.7333608"><ele>89.0</ele><time>2026-05-03T13:25:45.567Z</time></trkpt><trkpt lat="43.1139289" lon="10.7336027"><ele>92.0</ele><time>2026-05-03T13:25:46.568Z</time></trkpt><trkpt lat="43.1140407" lon="10.7338448"><ele>95.0</ele><time>2026-05-03T13:25:47.568Z</time></trkpt><trkpt lat="43.114143" lon="10.734088"><ele>98.0</ele><time>2026-05-03T13:25:48.568Z</time></trkpt><trkpt lat="43.1142483" lon="10.7343295"><ele>92.66666666666666</ele><time>2026-05-03T13:25:49.568Z</time></trkpt><trkpt lat="43.1143551" lon="10.7345626"><ele>87.33333333333333</ele><time>2026-05-03T13:25:50.567Z</time></trkpt><trkpt lat="43.1144615" lon="10.7347986"><ele>82.0</ele><time>2026-05-03T13:25:51.568Z</time></trkpt><trkpt lat="43.1145581" lon="10.7350404"><ele>85.0</ele><time>2026-05-03T13:25:52.568Z</time></trkpt><trkpt lat="43.1146638" lon="10.7352737"><ele>88.0</ele><time>2026-05-03T13:25:53.568Z</time></trkpt><trkpt lat="43.1147687" lon="10.7355115"><ele>91.0</ele><time>2026-05-03T13:25:54.566Z</time></trkpt><trkpt lat="43.1148632" lon="10.7357502"><ele>88.0</ele><time>2026-05-03T13:25:55.567Z</time></trkpt><trkpt lat="43.114965" lon="10.7359788"><ele>85.0</ele><time>2026-05-03T13:25:56.567Z</time></trkpt><trkpt lat="43.1150679" lon="10.7362145"><ele>82.0</ele><time>2026-05-03T13:25:57.568Z</time></trkpt><trkpt lat="43.1151647" lon="10.7364452"><ele>82.0</ele><time>2026-05-03T13:25:58.568Z</time></trkpt><trkpt lat="43.115263" lon="10.7366811"><ele>82.0</ele><time>2026-05-03T13:25:59.568Z</time></trkpt><trkpt lat="43.115369" lon="10.7369099"><ele>82.0</ele><time>2026-05-03T13:26:00.567Z</time></trkpt><trkpt lat="43.1154804" lon="10.7371348"><ele>82.33333333333333</ele><time>2026-05-03T13:26:01.568Z</time></trkpt><trkpt lat="43.1156062" lon="10.7373503"><ele>82.66666666666667</ele><time>2026-05-03T13:26:02.568Z</time></trkpt><trkpt lat="43.1157447" lon="10.7375457"><ele>83.0</ele><time>2026-05-03T13:26:03.567Z</time></trkpt><trkpt lat="43.1159006" lon="10.7377185"><ele>83.0</ele><time>2026-05-03T13:26:04.569Z</time></trkpt><trkpt lat="43.1160645" lon="10.7378783"><ele>83.0</ele><time>2026-05-03T13:26:05.569Z</time></trkpt><trkpt lat="43.1162312" lon="10.7380336"><ele>83.0</ele><time>2026-05-03T13:26:06.567Z</time></trkpt><trkpt lat="43.116403" lon="10.7381941"><ele>83.0</ele><time>2026-05-03T13:26:07.567Z</time></trkpt><trkpt lat="43.1165636" lon="10.7383517"><ele>83.0</ele><time>2026-05-03T13:26:08.567Z</time></trkpt><trkpt lat="43.1167307" lon="10.7385083"><ele>83.0</ele><time>2026-05-03T13:26:09.569Z</time></trkpt><trkpt lat="43.1168969" lon="10.7386678"><ele>84.0</ele><time>2026-05-03T13:26:10.567Z</time></trkpt><trkpt lat="43.1170685" lon="10.7388218"><ele>85.0</ele><time>2026-05-03T13:26:11.566Z</time></trkpt><trkpt lat="43.1172354" lon="10.7389724"><ele>86.0</ele><time>2026-05-03T13:26:12.567Z</time></trkpt><trkpt lat="43.1174006" lon="10.739127"><ele>86.0</ele><time>2026-05-03T13:26:13.567Z</time></trkpt><trkpt lat="43.1175675" lon="10.739287"><ele>86.0</ele><time>2026-05-03T13:26:14.569Z</time></trkpt><trkpt lat="43.1177344" lon="10.7394413"><ele>86.0</ele><time>2026-05-03T13:26:15.566Z</time></trkpt><trkpt lat="43.1178987" lon="10.7396079"><ele>86.0</ele><time>2026-05-03T13:26:16.569Z</time></trkpt><trkpt lat="43.118069" lon="10.7397659"><ele>86.0</ele><time>2026-05-03T13:26:17.566Z</time></trkpt><trkpt lat="43.1182385" lon="10.7399246"><ele>86.0</ele><time>2026-05-03T13:26:18.567Z</time></trkpt><trkpt lat="43.1184097" lon="10.7400879"><ele>88.66666666666667</ele><time>2026-05-03T13:26:19.566Z</time></trkpt><trkpt lat="43.1185786" lon="10.7402572"><ele>91.33333333333333</ele><time>2026-05-03T13:26:20.568Z</time></trkpt><trkpt lat="43.1187475" lon="10.7404192"><ele>94.0</ele><time>2026-05-03T13:26:21.566Z</time></trkpt><trkpt lat="43.1189246" lon="10.7405828"><ele>93.0</ele><time>2026-05-03T13:26:22.568Z</time></trkpt><trkpt lat="43.1190985" lon="10.740746"><ele>92.0</ele><time>2026-05-03T13:26:23.568Z</time></trkpt><trkpt lat="43.1192734" lon="10.7409091"><ele>91.0</ele><time>2026-05-03T13:26:24.568Z</time></trkpt><trkpt lat="43.1194502" lon="10.7410717"><ele>91.66666666666666</ele><time>2026-05-03T13:26:25.568Z</time></trkpt><trkpt lat="43.1196264" lon="10.7412409"><ele>92.33333333333333</ele><time>2026-05-03T13:26:26.569Z</time></trkpt><trkpt lat="43.1198031" lon="10.7414074"><ele>93.0</ele><time>2026-05-03T13:26:27.567Z</time></trkpt><trkpt lat="43.1199718" lon="10.7415772"><ele>93.0</ele><time>2026-05-03T13:26:28.568Z</time></trkpt><trkpt lat="43.1201439" lon="10.7417436"><ele>93.0</ele><time>2026-05-03T13:26:29.567Z</time></trkpt><trkpt lat="43.120319" lon="10.7418954"><ele>93.0</ele><time>2026-05-03T13:26:30.568Z</time></trkpt><trkpt lat="43.1204969" lon="10.7420252"><ele>95.0</ele><time>2026-05-03T13:26:31.566Z</time></trkpt><trkpt lat="43.1206814" lon="10.7421368"><ele>97.0</ele><time>2026-05-03T13:26:32.567Z</time></trkpt><trkpt lat="43.1208663" lon="10.7422289"><ele>99.0</ele><time>2026-05-03T13:26:33.568Z</time></trkpt><trkpt lat="43.121044" lon="10.7423108"><ele>99.0</ele><time>2026-05-03T13:26:34.568Z</time></trkpt><trkpt lat="43.121195" lon="10.7423972"><ele>99.0</ele><time>2026-05-03T13:26:35.567Z</time></trkpt><trkpt lat="43.1213308" lon="10.7424927"><ele>99.0</ele><time>2026-05-03T13:26:36.568Z</time></trkpt><trkpt lat="43.1214413" lon="10.7426187"><ele>98.0</ele><time>2026-05-03T13:26:37.567Z</time></trkpt><trkpt lat="43.1215295" lon="10.7427772"><ele>97.0</ele><time>2026-05-03T13:26:38.567Z</time></trkpt><trkpt lat="43.1215803" lon="10.7429592"><ele>96.0</ele><time>2026-05-03T13:26:39.568Z</time></trkpt><trkpt lat="43.1215936" lon="10.7431569"><ele>95.0</ele><time>2026-05-03T13:26:40.568Z</time></trkpt><trkpt lat="43.1215694" lon="10.7433776"><ele>100.66666666666667</ele><time>2026-05-03T13:26:41.567Z</time></trkpt><trkpt lat="43.1215304" lon="10.7436254"><ele>106.33333333333334</ele><time>2026-05-03T13:26:42.566Z</time></trkpt><trkpt lat="43.1214815" lon="10.7439003"><ele>112.0</ele><time>2026-05-03T13:26:43.569Z</time></trkpt><trkpt lat="43.1214316" lon="10.7441791"><ele>111.66666666666667</ele><time>2026-05-03T13:26:44.568Z</time></trkpt><trkpt lat="43.1213683" lon="10.7444534"><ele>111.33333333333334</ele><time>2026-05-03T13:26:45.566Z</time></trkpt><trkpt lat="43.1212936" lon="10.7447338"><ele>111.0</ele><time>2026-05-03T13:26:46.567Z</time></trkpt><trkpt lat="43.1212141" lon="10.7450164"><ele>110.0</ele><time>2026-05-03T13:26:47.567Z</time></trkpt><trkpt lat="43.1211334" lon="10.7453059"><ele>109.0</ele><time>2026-05-03T13:26:48.568Z</time></trkpt><trkpt lat="43.121059" lon="10.7455919"><ele>108.0</ele><time>2026-05-03T13:26:49.567Z</time></trkpt><trkpt lat="43.1209826" lon="10.7458712"><ele>107.0</ele><time>2026-05-03T13:26:50.567Z</time></trkpt><trkpt lat="43.1209083" lon="10.7461516"><ele>106.0</ele><time>2026-05-03T13:26:51.567Z</time></trkpt><trkpt lat="43.1208359" lon="10.7464324"><ele>105.0</ele><time>2026-05-03T13:26:52.569Z</time></trkpt><trkpt lat="43.1207575" lon="10.7467117"><ele>113.0</ele><time>2026-05-03T13:26:53.568Z</time></trkpt><trkpt lat="43.1206883" lon="10.7469909"><ele>121.0</ele><time>2026-05-03T13:26:54.567Z</time></trkpt><trkpt lat="43.1206162" lon="10.7472722"><ele>129.0</ele><time>2026-05-03T13:26:55.569Z</time></trkpt><trkpt lat="43.1205448" lon="10.7475453"><ele>131.0</ele><time>2026-05-03T13:26:56.567Z</time></trkpt><trkpt lat="43.1204725" lon="10.7478163"><ele>133.0</ele><time>2026-05-03T13:26:57.568Z</time></trkpt><trkpt lat="43.1204064" lon="10.7480806"><ele>135.0</ele><time>2026-05-03T13:26:58.567Z</time></trkpt><trkpt lat="43.1203405" lon="10.7483563"><ele>134.66666666666666</ele><time>2026-05-03T13:26:59.568Z</time></trkpt><trkpt lat="43.1202789" lon="10.748636"><ele>134.33333333333331</ele><time>2026-05-03T13:27:00.567Z</time></trkpt><trkpt lat="43.1202226" lon="10.7489176"><ele>134.0</ele><time>2026-05-03T13:27:01.567Z</time></trkpt><trkpt lat="43.1201683" lon="10.7492105"><ele>132.66666666666666</ele><time>2026-05-03T13:27:02.567Z</time></trkpt><trkpt lat="43.1201258" lon="10.7495063"><ele>131.33333333333334</ele><time>2026-05-03T13:27:03.567Z</time></trkpt><trkpt lat="43.1200921" lon="10.749805"><ele>130.0</ele><time>2026-05-03T13:27:04.567Z</time></trkpt><trkpt lat="43.1200618" lon="10.7501085"><ele>129.66666666666669</ele><time>2026-05-03T13:27:05.566Z</time></trkpt><trkpt lat="43.1200364" lon="10.7504094"><ele>129.33333333333334</ele><time>2026-05-03T13:27:06.567Z</time></trkpt><trkpt lat="43.1200172" lon="10.7507121"><ele>129.0</ele><time>2026-05-03T13:27:07.566Z</time></trkpt><trkpt lat="43.1200055" lon="10.7510206"><ele>128.5</ele><time>2026-05-03T13:27:08.568Z</time></trkpt><trkpt lat="43.1200068" lon="10.7513291"><ele>128.0</ele><time>2026-05-03T13:27:09.566Z</time></trkpt><trkpt lat="43.120015" lon="10.7516429"><ele>129.5</ele><time>2026-05-03T13:27:10.568Z</time></trkpt><trkpt lat="43.120035" lon="10.7519445"><ele>131.0</ele><time>2026-05-03T13:27:11.568Z</time></trkpt><trkpt lat="43.1200568" lon="10.752258"><ele>131.0</ele><time>2026-05-03T13:27:12.567Z</time></trkpt><trkpt lat="43.1200832" lon="10.7525613"><ele>131.0</ele><time>2026-05-03T13:27:13.568Z</time></trkpt><trkpt lat="43.1201103" lon="10.7528509"><ele>131.0</ele><time>2026-05-03T13:27:14.568Z</time></trkpt><trkpt lat="43.1201435" lon="10.7531315"><ele>134.0</ele><time>2026-05-03T13:27:15.567Z</time></trkpt><trkpt lat="43.1202303" lon="10.7536637"><ele>137.0</ele><time>2026-05-03T13:27:17.568Z</time></trkpt><trkpt lat="43.120282" lon="10.7539189"><ele>137.0</ele><time>2026-05-03T13:27:18.568Z</time></trkpt><trkpt lat="43.1203352" lon="10.7541724"><ele>137.0</ele><time>2026-05-03T13:27:19.568Z</time></trkpt><trkpt lat="43.1203963" lon="10.754424"><ele>137.0</ele><time>2026-05-03T13:27:20.568Z</time></trkpt><trkpt lat="43.1204591" lon="10.7546676"><ele>138.66666666666666</ele><time>2026-05-03T13:27:21.569Z</time></trkpt><trkpt lat="43.1205388" lon="10.7549025"><ele>140.33333333333334</ele><time>2026-05-03T13:27:22.568Z</time></trkpt><trkpt lat="43.1206264" lon="10.7551313"><ele>142.0</ele><time>2026-05-03T13:27:23.567Z</time></trkpt><trkpt lat="43.1207255" lon="10.7553584"><ele>145.0</ele><time>2026-05-03T13:27:24.567Z</time></trkpt><trkpt lat="43.1208274" lon="10.7555764"><ele>148.0</ele><time>2026-05-03T13:27:25.566Z</time></trkpt><trkpt lat="43.1209411" lon="10.7557884"><ele>151.0</ele><time>2026-05-03T13:27:26.567Z</time></trkpt><trkpt lat="43.121058" lon="10.7559905"><ele>154.66666666666669</ele><time>2026-05-03T13:27:27.567Z</time></trkpt><trkpt lat="43.1211875" lon="10.7561894"><ele>158.33333333333334</ele><time>2026-05-03T13:27:28.568Z</time></trkpt><trkpt lat="43.1213326" lon="10.7563797"><ele>162.0</ele><time>2026-05-03T13:27:29.568Z</time></trkpt><trkpt lat="43.121498" lon="10.7565721"><ele>159.0</ele><time>2026-05-03T13:27:30.568Z</time></trkpt><trkpt lat="43.1216847" lon="10.7567668"><ele>156.0</ele><time>2026-05-03T13:27:31.569Z</time></trkpt><trkpt lat="43.1218804" lon="10.7569535"><ele>156.0</ele><time>2026-05-03T13:27:32.568Z</time></trkpt><trkpt lat="43.1220835" lon="10.7571253"><ele>156.0</ele><time>2026-05-03T13:27:33.566Z</time></trkpt><trkpt lat="43.1222941" lon="10.7572796"><ele>147.5</ele><time>2026-05-03T13:27:34.567Z</time></trkpt><trkpt lat="43.1225046" lon="10.7574196"><ele>139.0</ele><time>2026-05-03T13:27:35.568Z</time></trkpt><trkpt lat="43.1227181" lon="10.7575467"><ele>139.0</ele><time>2026-05-03T13:27:36.567Z</time></trkpt><trkpt lat="43.1229326" lon="10.7576704"><ele>139.0</ele><time>2026-05-03T13:27:37.569Z</time></trkpt><trkpt lat="43.1231459" lon="10.7578044"><ele>136.0</ele><time>2026-05-03T13:27:38.567Z</time></trkpt><trkpt lat="43.1233506" lon="10.7579549"><ele>133.0</ele><time>2026-05-03T13:27:39.568Z</time></trkpt><trkpt lat="43.1235419" lon="10.7581345"><ele>133.0</ele><time>2026-05-03T13:27:40.566Z</time></trkpt><trkpt lat="43.1237197" lon="10.7583383"><ele>133.0</ele><time>2026-05-03T13:27:41.567Z</time></trkpt><trkpt lat="43.1238775" lon="10.758562"><ele>136.5</ele><time>2026-05-03T13:27:42.568Z</time></trkpt><trkpt lat="43.1240185" lon="10.7588051"><ele>140.0</ele><time>2026-05-03T13:27:43.567Z</time></trkpt><trkpt lat="43.1241412" lon="10.7590757"><ele>133.0</ele><time>2026-05-03T13:27:44.567Z</time></trkpt><trkpt lat="43.1242513" lon="10.7593587"><ele>126.0</ele><time>2026-05-03T13:27:45.566Z</time></trkpt><trkpt lat="43.124334" lon="10.7596581"><ele>126.0</ele><time>2026-05-03T13:27:46.568Z</time></trkpt><trkpt lat="43.1243995" lon="10.759969"><ele>126.0</ele><time>2026-05-03T13:27:47.568Z</time></trkpt><trkpt lat="43.1244386" lon="10.7602904"><ele>124.0</ele><time>2026-05-03T13:27:48.567Z</time></trkpt><trkpt lat="43.1244565" lon="10.760617"><ele>122.0</ele><time>2026-05-03T13:27:49.567Z</time></trkpt><trkpt lat="43.1244425" lon="10.7609427"><ele>119.5</ele><time>2026-05-03T13:27:50.567Z</time></trkpt><trkpt lat="43.1244135" lon="10.7612634"><ele>117.0</ele><time>2026-05-03T13:27:51.566Z</time></trkpt><trkpt lat="43.1243551" lon="10.7615822"><ele>113.0</ele><time>2026-05-03T13:27:52.567Z</time></trkpt><trkpt lat="43.1242781" lon="10.7618853"><ele>109.0</ele><time>2026-05-03T13:27:53.567Z</time></trkpt><trkpt lat="43.1241723" lon="10.7621781"><ele>112.0</ele><time>2026-05-03T13:27:54.567Z</time></trkpt><trkpt lat="43.1240469" lon="10.7624645"><ele>115.0</ele><time>2026-05-03T13:27:55.566Z</time></trkpt><trkpt lat="43.1239069" lon="10.762737"><ele>115.0</ele><time>2026-05-03T13:27:56.566Z</time></trkpt><trkpt lat="43.1237646" lon="10.7630036"><ele>115.0</ele><time>2026-05-03T13:27:57.567Z</time></trkpt><trkpt lat="43.1236113" lon="10.7632638"><ele>115.0</ele><time>2026-05-03T13:27:58.568Z</time></trkpt><trkpt lat="43.1234534" lon="10.7635169"><ele>115.0</ele><time>2026-05-03T13:27:59.567Z</time></trkpt><trkpt lat="43.123292" lon="10.7637568"><ele>114.5</ele><time>2026-05-03T13:28:00.567Z</time></trkpt><trkpt lat="43.1231282" lon="10.763986"><ele>114.0</ele><time>2026-05-03T13:28:01.567Z</time></trkpt><trkpt lat="43.1229717" lon="10.7641979"><ele>110.33333333333334</ele><time>2026-05-03T13:28:02.568Z</time></trkpt><trkpt lat="43.1228087" lon="10.7644083"><ele>106.66666666666667</ele><time>2026-05-03T13:28:03.568Z</time></trkpt><trkpt lat="43.1226492" lon="10.7645981"><ele>103.0</ele><time>2026-05-03T13:28:04.567Z</time></trkpt><trkpt lat="43.1224963" lon="10.7647754"><ele>102.66666666666667</ele><time>2026-05-03T13:28:05.568Z</time></trkpt><trkpt lat="43.1223545" lon="10.7649534"><ele>102.33333333333334</ele><time>2026-05-03T13:28:06.567Z</time></trkpt><trkpt lat="43.1222322" lon="10.7651312"><ele>102.0</ele><time>2026-05-03T13:28:07.566Z</time></trkpt><trkpt lat="43.1221311" lon="10.7653043"><ele>102.0</ele><time>2026-05-03T13:28:08.568Z</time></trkpt><trkpt lat="43.1220555" lon="10.7654806"><ele>102.0</ele><time>2026-05-03T13:28:09.566Z</time></trkpt><trkpt lat="43.1220155" lon="10.7656526"><ele>102.0</ele><time>2026-05-03T13:28:10.567Z</time></trkpt><trkpt lat="43.1220094" lon="10.7658279"><ele>102.0</ele><time>2026-05-03T13:28:11.568Z</time></trkpt><trkpt lat="43.1220368" lon="10.7660059"><ele>101.0</ele><time>2026-05-03T13:28:12.567Z</time></trkpt><trkpt lat="43.1221037" lon="10.766186"><ele>100.0</ele><time>2026-05-03T13:28:13.567Z</time></trkpt><trkpt lat="43.1221957" lon="10.7663589"><ele>99.0</ele><time>2026-05-03T13:28:14.569Z</time></trkpt><trkpt lat="43.1223332" lon="10.7665245"><ele>98.33333333333334</ele><time>2026-05-03T13:28:15.567Z</time></trkpt><trkpt lat="43.1224883" lon="10.76669"><ele>97.66666666666667</ele><time>2026-05-03T13:28:16.567Z</time></trkpt><trkpt lat="43.1226585" lon="10.76686"><ele>97.0</ele><time>2026-05-03T13:28:17.567Z</time></trkpt><trkpt lat="43.1228389" lon="10.7670434"><ele>97.0</ele><time>2026-05-03T13:28:18.566Z</time></trkpt><trkpt lat="43.1230338" lon="10.7672297"><ele>97.0</ele><time>2026-05-03T13:28:19.567Z</time></trkpt><trkpt lat="43.1232308" lon="10.767419"><ele>97.0</ele><time>2026-05-03T13:28:20.568Z</time></trkpt><trkpt lat="43.1234286" lon="10.7676142"><ele>97.0</ele><time>2026-05-03T13:28:21.569Z</time></trkpt><trkpt lat="43.1236337" lon="10.7678058"><ele>98.0</ele><time>2026-05-03T13:28:22.567Z</time></trkpt><trkpt lat="43.1238346" lon="10.7679951"><ele>99.0</ele><time>2026-05-03T13:28:23.566Z</time></trkpt><trkpt lat="43.124041" lon="10.7681808"><ele>99.0</ele><time>2026-05-03T13:28:24.569Z</time></trkpt><trkpt lat="43.1242525" lon="10.7683631"><ele>99.0</ele><time>2026-05-03T13:28:25.568Z</time></trkpt><trkpt lat="43.1244664" lon="10.7685461"><ele>99.5</ele><time>2026-05-03T13:28:26.568Z</time></trkpt><trkpt lat="43.124678" lon="10.7687371"><ele>100.0</ele><time>2026-05-03T13:28:27.568Z</time></trkpt><trkpt lat="43.1248911" lon="10.7689407"><ele>101.5</ele><time>2026-05-03T13:28:28.567Z</time></trkpt><trkpt lat="43.1251048" lon="10.7691527"><ele>103.0</ele><time>2026-05-03T13:28:29.566Z</time></trkpt><trkpt lat="43.1253187" lon="10.7693522"><ele>103.0</ele><time>2026-05-03T13:28:30.568Z</time></trkpt><trkpt lat="43.1255232" lon="10.7695495"><ele>103.0</ele><time>2026-05-03T13:28:31.566Z</time></trkpt><trkpt lat="43.1257262" lon="10.769739"><ele>104.5</ele><time>2026-05-03T13:28:32.567Z</time></trkpt><trkpt lat="43.1259309" lon="10.7699193"><ele>106.0</ele><time>2026-05-03T13:28:33.568Z</time></trkpt><trkpt lat="43.1261298" lon="10.7701014"><ele>107.5</ele><time>2026-05-03T13:28:34.568Z</time></trkpt><trkpt lat="43.1263279" lon="10.770273"><ele>109.0</ele><time>2026-05-03T13:28:35.567Z</time></trkpt><trkpt lat="43.1265166" lon="10.7704366"><ele>112.0</ele><time>2026-05-03T13:28:36.568Z</time></trkpt><trkpt lat="43.1267103" lon="10.7706162"><ele>115.0</ele><time>2026-05-03T13:28:37.566Z</time></trkpt><trkpt lat="43.1268975" lon="10.770792"><ele>115.0</ele><time>2026-05-03T13:28:38.567Z</time></trkpt><trkpt lat="43.127083" lon="10.7709739"><ele>115.0</ele><time>2026-05-03T13:28:39.568Z</time></trkpt><trkpt lat="43.1272637" lon="10.7711548"><ele>116.0</ele><time>2026-05-03T13:28:40.568Z</time></trkpt><trkpt lat="43.1274295" lon="10.7713479"><ele>117.0</ele><time>2026-05-03T13:28:41.566Z</time></trkpt><trkpt lat="43.1276007" lon="10.7715156"><ele>118.0</ele><time>2026-05-03T13:28:42.568Z</time></trkpt><trkpt lat="43.1277773" lon="10.7716691"><ele>118.0</ele><time>2026-05-03T13:28:43.567Z</time></trkpt><trkpt lat="43.1279743" lon="10.7717794"><ele>118.0</ele><time>2026-05-03T13:28:44.567Z</time></trkpt><trkpt lat="43.128182" lon="10.771871"><ele>118.0</ele><time>2026-05-03T13:28:45.566Z</time></trkpt><trkpt lat="43.1283936" lon="10.7719604"><ele>117.33333333333334</ele><time>2026-05-03T13:28:46.567Z</time></trkpt><trkpt lat="43.1285905" lon="10.7720897"><ele>116.66666666666666</ele><time>2026-05-03T13:28:47.568Z</time></trkpt><trkpt lat="43.1287911" lon="10.7722396"><ele>116.0</ele><time>2026-05-03T13:28:48.568Z</time></trkpt><trkpt lat="43.1289934" lon="10.7723739"><ele>115.5</ele><time>2026-05-03T13:28:49.567Z</time></trkpt><trkpt lat="43.1292093" lon="10.7724792"><ele>115.0</ele><time>2026-05-03T13:28:50.567Z</time></trkpt><trkpt lat="43.129433" lon="10.7725683"><ele>115.0</ele><time>2026-05-03T13:28:51.568Z</time></trkpt><trkpt lat="43.1296557" lon="10.7726213"><ele>115.0</ele><time>2026-05-03T13:28:52.566Z</time></trkpt><trkpt lat="43.1298765" lon="10.7726793"><ele>118.0</ele><time>2026-05-03T13:28:53.567Z</time></trkpt><trkpt lat="43.1300755" lon="10.7727337"><ele>121.0</ele><time>2026-05-03T13:28:54.567Z</time></trkpt><trkpt lat="43.1302558" lon="10.7727771"><ele>124.0</ele><time>2026-05-03T13:28:55.567Z</time></trkpt><trkpt lat="43.1304096" lon="10.7728355"><ele>124.0</ele><time>2026-05-03T13:28:56.568Z</time></trkpt><trkpt lat="43.1305394" lon="10.7729244"><ele>124.0</ele><time>2026-05-03T13:28:57.568Z</time></trkpt><trkpt lat="43.1306502" lon="10.7730455"><ele>124.0</ele><time>2026-05-03T13:28:58.568Z</time></trkpt><trkpt lat="43.1307379" lon="10.7732122"><ele>124.0</ele><time>2026-05-03T13:28:59.568Z</time></trkpt><trkpt lat="43.130801" lon="10.773411"><ele>125.66666666666667</ele><time>2026-05-03T13:29:00.568Z</time></trkpt><trkpt lat="43.130857" lon="10.7736463"><ele>127.33333333333334</ele><time>2026-05-03T13:29:01.568Z</time></trkpt><trkpt lat="43.1309085" lon="10.7738818"><ele>129.0</ele><time>2026-05-03T13:29:02.568Z</time></trkpt><trkpt lat="43.1309569" lon="10.7740995"><ele>129.0</ele><time>2026-05-03T13:29:03.567Z</time></trkpt><trkpt lat="43.1310265" lon="10.7742952"><ele>129.0</ele><time>2026-05-03T13:29:04.567Z</time></trkpt><trkpt lat="43.1311272" lon="10.7744737"><ele>129.0</ele><time>2026-05-03T13:29:05.569Z</time></trkpt><trkpt lat="43.1312629" lon="10.7746424"><ele>128.33333333333334</ele><time>2026-05-03T13:29:06.569Z</time></trkpt><trkpt lat="43.1314236" lon="10.7748062"><ele>127.66666666666667</ele><time>2026-05-03T13:29:07.566Z</time></trkpt><trkpt lat="43.1316018" lon="10.7749934"><ele>127.0</ele><time>2026-05-03T13:29:08.568Z</time></trkpt><trkpt lat="43.1317834" lon="10.7751784"><ele>129.5</ele><time>2026-05-03T13:29:09.568Z</time></trkpt><trkpt lat="43.1319722" lon="10.7753738"><ele>132.0</ele><time>2026-05-03T13:29:10.567Z</time></trkpt><trkpt lat="43.132149" lon="10.7755718"><ele>132.0</ele><time>2026-05-03T13:29:11.567Z</time></trkpt><trkpt lat="43.1323107" lon="10.7757669"><ele>132.0</ele><time>2026-05-03T13:29:12.567Z</time></trkpt><trkpt lat="43.1324468" lon="10.7759592"><ele>132.0</ele><time>2026-05-03T13:29:13.567Z</time></trkpt><trkpt lat="43.132576" lon="10.7761288"><ele>133.66666666666666</ele><time>2026-05-03T13:29:14.568Z</time></trkpt><trkpt lat="43.1327068" lon="10.7762669"><ele>135.33333333333331</ele><time>2026-05-03T13:29:15.567Z</time></trkpt><trkpt lat="43.1328493" lon="10.7763558"><ele>137.0</ele><time>2026-05-03T13:29:16.568Z</time></trkpt><trkpt lat="43.1330001" lon="10.7764417"><ele>137.0</ele><time>2026-05-03T13:29:17.566Z</time></trkpt><trkpt lat="43.1331731" lon="10.7764676"><ele>137.0</ele><time>2026-05-03T13:29:18.567Z</time></trkpt><trkpt lat="43.133343" lon="10.7764501"><ele>137.0</ele><time>2026-05-03T13:29:19.567Z</time></trkpt><trkpt lat="43.1335136" lon="10.7764636"><ele>135.0</ele><time>2026-05-03T13:29:20.567Z</time></trkpt><trkpt lat="43.1336888" lon="10.7764826"><ele>133.0</ele><time>2026-05-03T13:29:21.567Z</time></trkpt><trkpt lat="43.1338752" lon="10.7765163"><ele>131.0</ele><time>2026-05-03T13:29:22.568Z</time></trkpt><trkpt lat="43.1340616" lon="10.7765831"><ele>129.66666666666666</ele><time>2026-05-03T13:29:23.566Z</time></trkpt><trkpt lat="43.1342473" lon="10.7766781"><ele>128.33333333333334</ele><time>2026-05-03T13:29:24.567Z</time></trkpt><trkpt lat="43.1344147" lon="10.7767949"><ele>127.0</ele><time>2026-05-03T13:29:25.568Z</time></trkpt><trkpt lat="43.1345874" lon="10.7769343"><ele>128.33333333333334</ele><time>2026-05-03T13:29:26.567Z</time></trkpt><trkpt lat="43.1347466" lon="10.7770677"><ele>129.66666666666666</ele><time>2026-05-03T13:29:27.568Z</time></trkpt><trkpt lat="43.1348929" lon="10.7771825"><ele>131.0</ele><time>2026-05-03T13:29:28.566Z</time></trkpt><trkpt lat="43.135014" lon="10.7772878"><ele>131.0</ele><time>2026-05-03T13:29:29.568Z</time></trkpt><trkpt lat="43.1351175" lon="10.7773889"><ele>131.0</ele><time>2026-05-03T13:29:30.568Z</time></trkpt><trkpt lat="43.135205" lon="10.7775176"><ele>131.0</ele><time>2026-05-03T13:29:31.567Z</time></trkpt><trkpt lat="43.135261" lon="10.777673"><ele>131.0</ele><time>2026-05-03T13:29:32.567Z</time></trkpt><trkpt lat="43.1352894" lon="10.7778275"><ele>131.5</ele><time>2026-05-03T13:29:33.566Z</time></trkpt><trkpt lat="43.13529" lon="10.7779886"><ele>132.0</ele><time>2026-05-03T13:29:34.568Z</time></trkpt><trkpt lat="43.1352458" lon="10.7781624"><ele>132.5</ele><time>2026-05-03T13:29:35.568Z</time></trkpt><trkpt lat="43.135171" lon="10.7783349"><ele>133.0</ele><time>2026-05-03T13:29:36.566Z</time></trkpt><trkpt lat="43.1350918" lon="10.7784744"><ele>133.0</ele><time>2026-05-03T13:29:37.567Z</time></trkpt><trkpt lat="43.1349981" lon="10.7785437"><ele>133.0</ele><time>2026-05-03T13:29:38.568Z</time></trkpt><trkpt lat="43.1348805" lon="10.7785699"><ele>133.0</ele><time>2026-05-03T13:29:39.567Z</time></trkpt><trkpt lat="43.1347365" lon="10.778559"><ele>133.0</ele><time>2026-05-03T13:29:40.567Z</time></trkpt><trkpt lat="43.1345845" lon="10.7785474"><ele>133.0</ele><time>2026-05-03T13:29:41.568Z</time></trkpt><trkpt lat="43.1344249" lon="10.7785734"><ele>133.0</ele><time>2026-05-03T13:29:42.568Z</time></trkpt><trkpt lat="43.1342769" lon="10.7786384"><ele>133.0</ele><time>2026-05-03T13:29:43.567Z</time></trkpt><trkpt lat="43.1341293" lon="10.7787507"><ele>143.33333333333334</ele><time>2026-05-03T13:29:44.567Z</time></trkpt><trkpt lat="43.1339908" lon="10.7788677"><ele>153.66666666666666</ele><time>2026-05-03T13:29:45.567Z</time></trkpt><trkpt lat="43.1338749" lon="10.7790999"><ele>164.0</ele><time>2026-05-03T13:29:46.566Z</time></trkpt><trkpt lat="43.1337645" lon="10.7793283"><ele>159.66666666666666</ele><time>2026-05-03T13:29:47.566Z</time></trkpt><trkpt lat="43.1336787" lon="10.7795951"><ele>155.33333333333334</ele><time>2026-05-03T13:29:48.569Z</time></trkpt><trkpt lat="43.1336166" lon="10.7798845"><ele>151.0</ele><time>2026-05-03T13:29:49.568Z</time></trkpt><trkpt lat="43.133578" lon="10.7802106"><ele>147.0</ele><time>2026-05-03T13:29:50.567Z</time></trkpt><trkpt lat="43.1335508" lon="10.7805315"><ele>143.0</ele><time>2026-05-03T13:29:51.567Z</time></trkpt><trkpt lat="43.1335317" lon="10.7808544"><ele>142.66666666666666</ele><time>2026-05-03T13:29:52.567Z</time></trkpt><trkpt lat="43.1335066" lon="10.7811619"><ele>142.33333333333334</ele><time>2026-05-03T13:29:53.568Z</time></trkpt><trkpt lat="43.1334967" lon="10.7814396"><ele>142.0</ele><time>2026-05-03T13:29:54.567Z</time></trkpt><trkpt lat="43.1334817" lon="10.7816956"><ele>141.0</ele><time>2026-05-03T13:29:55.568Z</time></trkpt><trkpt lat="43.1334677" lon="10.7819412"><ele>140.0</ele><time>2026-05-03T13:29:56.567Z</time></trkpt><trkpt lat="43.133442" lon="10.782161"><ele>139.0</ele><time>2026-05-03T13:29:57.568Z</time></trkpt><trkpt lat="43.1334145" lon="10.7823619"><ele>139.0</ele><time>2026-05-03T13:29:58.567Z</time></trkpt><trkpt lat="43.1333966" lon="10.7825487"><ele>139.0</ele><time>2026-05-03T13:29:59.567Z</time></trkpt><trkpt lat="43.1333913" lon="10.7827283"><ele>139.0</ele><time>2026-05-03T13:30:00.568Z</time></trkpt><trkpt lat="43.1334195" lon="10.7829136"><ele>139.0</ele><time>2026-05-03T13:30:01.568Z</time></trkpt><trkpt lat="43.133474" lon="10.7831004"><ele>139.33333333333334</ele><time>2026-05-03T13:30:02.568Z</time></trkpt><trkpt lat="43.1335338" lon="10.7832974"><ele>139.66666666666666</ele><time>2026-05-03T13:30:03.567Z</time></trkpt><trkpt lat="43.1335705" lon="10.783502"><ele>140.0</ele><time>2026-05-03T13:30:04.567Z</time></trkpt><trkpt lat="43.1335696" lon="10.7837183"><ele>140.0</ele><time>2026-05-03T13:30:05.567Z</time></trkpt><trkpt lat="43.1335295" lon="10.7839326"><ele>140.0</ele><time>2026-05-03T13:30:06.567Z</time></trkpt><trkpt lat="43.1334582" lon="10.7841438"><ele>140.0</ele><time>2026-05-03T13:30:07.566Z</time></trkpt><trkpt lat="43.1333572" lon="10.7843293"><ele>141.66666666666666</ele><time>2026-05-03T13:30:08.566Z</time></trkpt><trkpt lat="43.1332432" lon="10.7844871"><ele>143.33333333333334</ele><time>2026-05-03T13:30:09.567Z</time></trkpt><trkpt lat="43.1331312" lon="10.7846286"><ele>145.0</ele><time>2026-05-03T13:30:10.567Z</time></trkpt><trkpt lat="43.1330249" lon="10.7847842"><ele>145.0</ele><time>2026-05-03T13:30:11.569Z</time></trkpt><trkpt lat="43.1329554" lon="10.7849949"><ele>145.0</ele><time>2026-05-03T13:30:12.566Z</time></trkpt><trkpt lat="43.132894" lon="10.7852157"><ele>145.0</ele><time>2026-05-03T13:30:13.567Z</time></trkpt><trkpt lat="43.1328394" lon="10.7854363"><ele>143.66666666666669</ele><time>2026-05-03T13:30:14.566Z</time></trkpt><trkpt lat="43.1327915" lon="10.7856625"><ele>142.33333333333334</ele><time>2026-05-03T13:30:15.568Z</time></trkpt><trkpt lat="43.1327774" lon="10.7859068"><ele>141.0</ele><time>2026-05-03T13:30:16.568Z</time></trkpt><trkpt lat="43.1327747" lon="10.7861627"><ele>140.66666666666666</ele><time>2026-05-03T13:30:17.567Z</time></trkpt><trkpt lat="43.1327823" lon="10.7864305"><ele>140.33333333333331</ele><time>2026-05-03T13:30:18.566Z</time></trkpt><trkpt lat="43.1328001" lon="10.7867142"><ele>140.0</ele><time>2026-05-03T13:30:19.566Z</time></trkpt><trkpt lat="43.1328137" lon="10.7870182"><ele>140.0</ele><time>2026-05-03T13:30:20.568Z</time></trkpt><trkpt lat="43.1328324" lon="10.7873272"><ele>140.0</ele><time>2026-05-03T13:30:21.567Z</time></trkpt><trkpt lat="43.1328486" lon="10.7876259"><ele>140.0</ele><time>2026-05-03T13:30:22.567Z</time></trkpt><trkpt lat="43.1328647" lon="10.7879142"><ele>140.66666666666666</ele><time>2026-05-03T13:30:23.566Z</time></trkpt><trkpt lat="43.1328704" lon="10.7882024"><ele>141.33333333333334</ele><time>2026-05-03T13:30:24.567Z</time></trkpt><trkpt lat="43.1328678" lon="10.7884895"><ele>142.0</ele><time>2026-05-03T13:30:25.567Z</time></trkpt><trkpt lat="43.1328426" lon="10.7887732"><ele>142.66666666666669</ele><time>2026-05-03T13:30:26.566Z</time></trkpt><trkpt lat="43.1328094" lon="10.7890565"><ele>143.33333333333334</ele><time>2026-05-03T13:30:27.567Z</time></trkpt><trkpt lat="43.1327761" lon="10.7893419"><ele>144.0</ele><time>2026-05-03T13:30:28.566Z</time></trkpt><trkpt lat="43.1327597" lon="10.7896291"><ele>145.0</ele><time>2026-05-03T13:30:29.566Z</time></trkpt><trkpt lat="43.1327567" lon="10.7899163"><ele>146.0</ele><time>2026-05-03T13:30:30.568Z</time></trkpt><trkpt lat="43.132758" lon="10.7902061"><ele>147.0</ele><time>2026-05-03T13:30:31.567Z</time></trkpt><trkpt lat="43.1327606" lon="10.7904998"><ele>147.66666666666666</ele><time>2026-05-03T13:30:32.568Z</time></trkpt><trkpt lat="43.1327653" lon="10.7907959"><ele>148.33333333333331</ele><time>2026-05-03T13:30:33.566Z</time></trkpt><trkpt lat="43.1327651" lon="10.7910929"><ele>149.0</ele><time>2026-05-03T13:30:34.568Z</time></trkpt><trkpt lat="43.1327676" lon="10.791389"><ele>149.33333333333331</ele><time>2026-05-03T13:30:35.567Z</time></trkpt><trkpt lat="43.1327684" lon="10.7916837"><ele>149.66666666666666</ele><time>2026-05-03T13:30:36.568Z</time></trkpt><trkpt lat="43.1327506" lon="10.7919754"><ele>150.0</ele><time>2026-05-03T13:30:37.567Z</time></trkpt><trkpt lat="43.1327159" lon="10.7922667"><ele>150.0</ele><time>2026-05-03T13:30:38.567Z</time></trkpt><trkpt lat="43.1326615" lon="10.7925392"><ele>150.0</ele><time>2026-05-03T13:30:39.567Z</time></trkpt><trkpt lat="43.1325999" lon="10.7928092"><ele>150.0</ele><time>2026-05-03T13:30:40.566Z</time></trkpt><trkpt lat="43.1325347" lon="10.7930638"><ele>150.33333333333334</ele><time>2026-05-03T13:30:41.567Z</time></trkpt><trkpt lat="43.132467" lon="10.7933023"><ele>150.66666666666669</ele><time>2026-05-03T13:30:42.567Z</time></trkpt><trkpt lat="43.1324122" lon="10.7935267"><ele>151.0</ele><time>2026-05-03T13:30:43.566Z</time></trkpt><trkpt lat="43.1323703" lon="10.7937332"><ele>151.0</ele><time>2026-05-03T13:30:44.567Z</time></trkpt><trkpt lat="43.1323523" lon="10.7939219"><ele>151.0</ele><time>2026-05-03T13:30:45.566Z</time></trkpt><trkpt lat="43.1323693" lon="10.7941066"><ele>151.0</ele><time>2026-05-03T13:30:46.567Z</time></trkpt><trkpt lat="43.1324242" lon="10.7942758"><ele>151.0</ele><time>2026-05-03T13:30:47.568Z</time></trkpt><trkpt lat="43.132497" lon="10.7944276"><ele>152.33333333333334</ele><time>2026-05-03T13:30:48.567Z</time></trkpt><trkpt lat="43.1325604" lon="10.7946161"><ele>153.66666666666666</ele><time>2026-05-03T13:30:49.567Z</time></trkpt><trkpt lat="43.1325979" lon="10.7948326"><ele>155.0</ele><time>2026-05-03T13:30:50.567Z</time></trkpt><trkpt lat="43.1326195" lon="10.7950581"><ele>156.66666666666666</ele><time>2026-05-03T13:30:51.567Z</time></trkpt><trkpt lat="43.1326337" lon="10.7952738"><ele>158.33333333333334</ele><time>2026-05-03T13:30:52.566Z</time></trkpt><trkpt lat="43.1325713" lon="10.7954881"><ele>160.0</ele><time>2026-05-03T13:30:53.566Z</time></trkpt><trkpt lat="43.1325031" lon="10.7957105"><ele>160.0</ele><time>2026-05-03T13:30:54.567Z</time></trkpt><trkpt lat="43.1324202" lon="10.795938"><ele>160.0</ele><time>2026-05-03T13:30:55.567Z</time></trkpt><trkpt lat="43.1323369" lon="10.7961399"><ele>160.0</ele><time>2026-05-03T13:30:56.569Z</time></trkpt><trkpt lat="43.1322513" lon="10.7963221"><ele>159.75</ele><time>2026-05-03T13:30:57.567Z</time></trkpt><trkpt lat="43.1321533" lon="10.7964685"><ele>159.5</ele><time>2026-05-03T13:30:58.566Z</time></trkpt><trkpt lat="43.1320555" lon="10.7966146"><ele>159.25</ele><time>2026-05-03T13:30:59.566Z</time></trkpt><trkpt lat="43.1319774" lon="10.7967653"><ele>159.0</ele><time>2026-05-03T13:31:00.569Z</time></trkpt><trkpt lat="43.1319229" lon="10.796942"><ele>159.0</ele><time>2026-05-03T13:31:01.566Z</time></trkpt><trkpt lat="43.1318993" lon="10.7971407"><ele>159.0</ele><time>2026-05-03T13:31:02.569Z</time></trkpt><trkpt lat="43.1319129" lon="10.7973502"><ele>159.0</ele><time>2026-05-03T13:31:03.568Z</time></trkpt><trkpt lat="43.1319404" lon="10.7975598"><ele>159.25</ele><time>2026-05-03T13:31:04.567Z</time></trkpt><trkpt lat="43.1319712" lon="10.7977646"><ele>159.5</ele><time>2026-05-03T13:31:05.566Z</time></trkpt><trkpt lat="43.1319901" lon="10.7979548"><ele>159.75</ele><time>2026-05-03T13:31:06.567Z</time></trkpt><trkpt lat="43.1319996" lon="10.7981385"><ele>160.0</ele><time>2026-05-03T13:31:07.568Z</time></trkpt><trkpt lat="43.132003" lon="10.7983181"><ele>160.0</ele><time>2026-05-03T13:31:08.567Z</time></trkpt><trkpt lat="43.1319883" lon="10.798501"><ele>160.0</ele><time>2026-05-03T13:31:09.566Z</time></trkpt><trkpt lat="43.1319496" lon="10.7987023"><ele>160.0</ele><time>2026-05-03T13:31:10.567Z</time></trkpt><trkpt lat="43.1318968" lon="10.7989288"><ele>161.0</ele><time>2026-05-03T13:31:11.566Z</time></trkpt><trkpt lat="43.1318348" lon="10.799169"><ele>162.0</ele><time>2026-05-03T13:31:12.567Z</time></trkpt><trkpt lat="43.1317618" lon="10.7994172"><ele>163.0</ele><time>2026-05-03T13:31:13.566Z</time></trkpt><trkpt lat="43.13168" lon="10.7996769"><ele>163.66666666666669</ele><time>2026-05-03T13:31:14.568Z</time></trkpt><trkpt lat="43.1315994" lon="10.799941"><ele>164.33333333333334</ele><time>2026-05-03T13:31:15.567Z</time></trkpt><trkpt lat="43.1315232" lon="10.8002037"><ele>165.0</ele><time>2026-05-03T13:31:16.568Z</time></trkpt><trkpt lat="43.1314526" lon="10.8004609"><ele>164.0</ele><time>2026-05-03T13:31:17.567Z</time></trkpt><trkpt lat="43.1313802" lon="10.8007144"><ele>163.0</ele><time>2026-05-03T13:31:18.567Z</time></trkpt><trkpt lat="43.1313059" lon="10.8009666"><ele>162.0</ele><time>2026-05-03T13:31:19.568Z</time></trkpt><trkpt lat="43.1312379" lon="10.8012184"><ele>162.0</ele><time>2026-05-03T13:31:20.568Z</time></trkpt><trkpt lat="43.131178" lon="10.8014918"><ele>162.0</ele><time>2026-05-03T13:31:21.567Z</time></trkpt><trkpt lat="43.1311413" lon="10.8017644"><ele>162.0</ele><time>2026-05-03T13:31:22.567Z</time></trkpt><trkpt lat="43.1311129" lon="10.8020147"><ele>162.33333333333334</ele><time>2026-05-03T13:31:23.566Z</time></trkpt><trkpt lat="43.1310931" lon="10.8022493"><ele>162.66666666666669</ele><time>2026-05-03T13:31:24.566Z</time></trkpt><trkpt lat="43.1310869" lon="10.8024837"><ele>163.0</ele><time>2026-05-03T13:31:25.567Z</time></trkpt><trkpt lat="43.1311044" lon="10.8027301"><ele>163.0</ele><time>2026-05-03T13:31:26.567Z</time></trkpt><trkpt lat="43.1311504" lon="10.8029638"><ele>163.0</ele><time>2026-05-03T13:31:27.567Z</time></trkpt><trkpt lat="43.1312268" lon="10.8032062"><ele>163.0</ele><time>2026-05-03T13:31:28.567Z</time></trkpt><trkpt lat="43.131291" lon="10.8034576"><ele>163.33333333333334</ele><time>2026-05-03T13:31:29.567Z</time></trkpt><trkpt lat="43.1313336" lon="10.8037182"><ele>163.66666666666666</ele><time>2026-05-03T13:31:30.567Z</time></trkpt><trkpt lat="43.1313538" lon="10.8039772"><ele>164.0</ele><time>2026-05-03T13:31:31.566Z</time></trkpt><trkpt lat="43.1313693" lon="10.8042224"><ele>164.66666666666666</ele><time>2026-05-03T13:31:32.567Z</time></trkpt><trkpt lat="43.1313889" lon="10.8044512"><ele>165.33333333333334</ele><time>2026-05-03T13:31:33.567Z</time></trkpt><trkpt lat="43.1314197" lon="10.804657"><ele>166.0</ele><time>2026-05-03T13:31:34.567Z</time></trkpt><trkpt lat="43.1314707" lon="10.8048361"><ele>166.0</ele><time>2026-05-03T13:31:35.568Z</time></trkpt><trkpt lat="43.1315357" lon="10.8049928"><ele>166.0</ele><time>2026-05-03T13:31:36.566Z</time></trkpt><trkpt lat="43.1316356" lon="10.8051098"><ele>166.0</ele><time>2026-05-03T13:31:37.567Z</time></trkpt><trkpt lat="43.131745" lon="10.8051824"><ele>166.0</ele><time>2026-05-03T13:31:38.569Z</time></trkpt><trkpt lat="43.1318948" lon="10.8052116"><ele>167.0</ele><time>2026-05-03T13:31:39.566Z</time></trkpt><trkpt lat="43.1320486" lon="10.8052276"><ele>168.0</ele><time>2026-05-03T13:31:40.567Z</time></trkpt><trkpt lat="43.1322207" lon="10.8052481"><ele>169.0</ele><time>2026-05-03T13:31:41.568Z</time></trkpt><trkpt lat="43.1324149" lon="10.8052819"><ele>170.0</ele><time>2026-05-03T13:31:42.567Z</time></trkpt><trkpt lat="43.1326032" lon="10.8053477"><ele>171.0</ele><time>2026-05-03T13:31:43.567Z</time></trkpt><trkpt lat="43.1327909" lon="10.8054264"><ele>172.0</ele><time>2026-05-03T13:31:44.568Z</time></trkpt><trkpt lat="43.1329775" lon="10.8055067"><ele>172.0</ele><time>2026-05-03T13:31:45.567Z</time></trkpt><trkpt lat="43.1331554" lon="10.8055687"><ele>172.0</ele><time>2026-05-03T13:31:46.569Z</time></trkpt><trkpt lat="43.1333279" lon="10.8056115"><ele>172.0</ele><time>2026-05-03T13:31:47.566Z</time></trkpt><trkpt lat="43.133497" lon="10.8056515"><ele>173.66666666666669</ele><time>2026-05-03T13:31:48.567Z</time></trkpt><trkpt lat="43.133667" lon="10.8056886"><ele>175.33333333333334</ele><time>2026-05-03T13:31:49.568Z</time></trkpt><trkpt lat="43.1338078" lon="10.8057786"><ele>177.0</ele><time>2026-05-03T13:31:50.567Z</time></trkpt><trkpt lat="43.1339489" lon="10.805893"><ele>175.66666666666666</ele><time>2026-05-03T13:31:51.568Z</time></trkpt><trkpt lat="43.1340782" lon="10.8060412"><ele>174.33333333333331</ele><time>2026-05-03T13:31:52.567Z</time></trkpt><trkpt lat="43.1341927" lon="10.8062129"><ele>173.0</ele><time>2026-05-03T13:31:53.568Z</time></trkpt><trkpt lat="43.1343011" lon="10.8064064"><ele>173.0</ele><time>2026-05-03T13:31:54.567Z</time></trkpt><trkpt lat="43.1344141" lon="10.806622"><ele>173.0</ele><time>2026-05-03T13:31:55.567Z</time></trkpt><trkpt lat="43.1345401" lon="10.8068568"><ele>173.0</ele><time>2026-05-03T13:31:56.566Z</time></trkpt><trkpt lat="43.1346624" lon="10.8071099"><ele>174.0</ele><time>2026-05-03T13:31:57.568Z</time></trkpt><trkpt lat="43.1347843" lon="10.8073382"><ele>175.0</ele><time>2026-05-03T13:31:58.567Z</time></trkpt><trkpt lat="43.1349066" lon="10.8075445"><ele>176.0</ele><time>2026-05-03T13:31:59.569Z</time></trkpt><trkpt lat="43.1350401" lon="10.807719"><ele>177.66666666666666</ele><time>2026-05-03T13:32:00.568Z</time></trkpt><trkpt lat="43.1351894" lon="10.807863"><ele>179.33333333333334</ele><time>2026-05-03T13:32:01.568Z</time></trkpt><trkpt lat="43.1353562" lon="10.8079855"><ele>181.0</ele><time>2026-05-03T13:32:02.567Z</time></trkpt><trkpt lat="43.1355317" lon="10.8081056"><ele>181.0</ele><time>2026-05-03T13:32:03.568Z</time></trkpt><trkpt lat="43.1357166" lon="10.8082384"><ele>181.0</ele><time>2026-05-03T13:32:04.566Z</time></trkpt><trkpt lat="43.135908" lon="10.8084017"><ele>181.0</ele><time>2026-05-03T13:32:05.567Z</time></trkpt><trkpt lat="43.1360903" lon="10.8085912"><ele>179.5</ele><time>2026-05-03T13:32:06.566Z</time></trkpt><trkpt lat="43.1363775" lon="10.8090018"><ele>178.0</ele><time>2026-05-03T13:32:08.566Z</time></trkpt><trkpt lat="43.1366049" lon="10.8093668"><ele>178.0</ele><time>2026-05-03T13:32:10.567Z</time></trkpt><trkpt lat="43.1367218" lon="10.8095023"><ele>178.0</ele><time>2026-05-03T13:32:11.567Z</time></trkpt><trkpt lat="43.1368572" lon="10.8096033"><ele>178.0</ele><time>2026-05-03T13:32:12.567Z</time></trkpt><trkpt lat="43.1369961" lon="10.8096806"><ele>178.0</ele><time>2026-05-03T13:32:13.567Z</time></trkpt><trkpt lat="43.1371719" lon="10.8096832"><ele>178.0</ele><time>2026-05-03T13:32:14.569Z</time></trkpt><trkpt lat="43.1373629" lon="10.809682"><ele>178.0</ele><time>2026-05-03T13:32:15.567Z</time></trkpt><trkpt lat="43.137566" lon="10.8096768"><ele>179.0</ele><time>2026-05-03T13:32:16.567Z</time></trkpt><trkpt lat="43.1377585" lon="10.8096616"><ele>180.0</ele><time>2026-05-03T13:32:17.567Z</time></trkpt><trkpt lat="43.1379393" lon="10.8096552"><ele>181.0</ele><time>2026-05-03T13:32:18.567Z</time></trkpt><trkpt lat="43.1381151" lon="10.8096624"><ele>181.66666666666669</ele><time>2026-05-03T13:32:19.568Z</time></trkpt><trkpt lat="43.1382731" lon="10.8097144"><ele>182.33333333333334</ele><time>2026-05-03T13:32:20.566Z</time></trkpt><trkpt lat="43.1384315" lon="10.8097759"><ele>183.0</ele><time>2026-05-03T13:32:21.567Z</time></trkpt><trkpt lat="43.1385967" lon="10.8098509"><ele>183.0</ele><time>2026-05-03T13:32:22.567Z</time></trkpt><trkpt lat="43.1387715" lon="10.8099244"><ele>183.0</ele><time>2026-05-03T13:32:23.568Z</time></trkpt><trkpt lat="43.1389419" lon="10.8099971"><ele>183.0</ele><time>2026-05-03T13:32:24.567Z</time></trkpt><trkpt lat="43.1391249" lon="10.8100632"><ele>184.33333333333334</ele><time>2026-05-03T13:32:25.567Z</time></trkpt><trkpt lat="43.1393131" lon="10.8101297"><ele>185.66666666666669</ele><time>2026-05-03T13:32:26.566Z</time></trkpt><trkpt lat="43.1394985" lon="10.8102055"><ele>187.0</ele><time>2026-05-03T13:32:27.566Z</time></trkpt><trkpt lat="43.1396856" lon="10.8102779"><ele>190.0</ele><time>2026-05-03T13:32:28.567Z</time></trkpt><trkpt lat="43.1398686" lon="10.810375"><ele>193.0</ele><time>2026-05-03T13:32:29.567Z</time></trkpt><trkpt lat="43.1400753" lon="10.8104682"><ele>196.0</ele><time>2026-05-03T13:32:30.566Z</time></trkpt><trkpt lat="43.1402792" lon="10.8105782"><ele>197.0</ele><time>2026-05-03T13:32:31.567Z</time></trkpt><trkpt lat="43.140492" lon="10.8106799"><ele>198.0</ele><time>2026-05-03T13:32:32.568Z</time></trkpt><trkpt lat="43.1407184" lon="10.8107556"><ele>195.0</ele><time>2026-05-03T13:32:33.567Z</time></trkpt><trkpt lat="43.1409486" lon="10.8108429"><ele>192.0</ele><time>2026-05-03T13:32:34.567Z</time></trkpt><trkpt lat="43.141166" lon="10.810915"><ele>192.0</ele><time>2026-05-03T13:32:35.567Z</time></trkpt><trkpt lat="43.1413864" lon="10.8109702"><ele>192.0</ele><time>2026-05-03T13:32:36.566Z</time></trkpt><trkpt lat="43.141601" lon="10.8110069"><ele>192.0</ele><time>2026-05-03T13:32:37.568Z</time></trkpt><trkpt lat="43.1417956" lon="10.8110226"><ele>195.0</ele><time>2026-05-03T13:32:38.566Z</time></trkpt><trkpt lat="43.1419833" lon="10.8110504"><ele>198.0</ele><time>2026-05-03T13:32:39.567Z</time></trkpt><trkpt lat="43.142138" lon="10.8111028"><ele>201.0</ele><time>2026-05-03T13:32:40.567Z</time></trkpt><trkpt lat="43.1422927" lon="10.8111902"><ele>199.0</ele><time>2026-05-03T13:32:41.566Z</time></trkpt><trkpt lat="43.1424274" lon="10.8112839"><ele>197.0</ele><time>2026-05-03T13:32:42.568Z</time></trkpt><trkpt lat="43.1425403" lon="10.8114042"><ele>195.0</ele><time>2026-05-03T13:32:43.567Z</time></trkpt><trkpt lat="43.1426118" lon="10.8115502"><ele>193.0</ele><time>2026-05-03T13:32:44.568Z</time></trkpt><trkpt lat="43.1426675" lon="10.8117104"><ele>195.66666666666666</ele><time>2026-05-03T13:32:45.566Z</time></trkpt><trkpt lat="43.1427461" lon="10.8118582"><ele>198.33333333333331</ele><time>2026-05-03T13:32:46.569Z</time></trkpt><trkpt lat="43.1428632" lon="10.8119973"><ele>201.0</ele><time>2026-05-03T13:32:47.567Z</time></trkpt><trkpt lat="43.142994" lon="10.8121494"><ele>201.0</ele><time>2026-05-03T13:32:48.568Z</time></trkpt><trkpt lat="43.1431354" lon="10.8123122"><ele>201.0</ele><time>2026-05-03T13:32:49.566Z</time></trkpt><trkpt lat="43.1432911" lon="10.8124685"><ele>201.0</ele><time>2026-05-03T13:32:50.568Z</time></trkpt><trkpt lat="43.1434675" lon="10.8125944"><ele>197.33333333333334</ele><time>2026-05-03T13:32:51.567Z</time></trkpt><trkpt lat="43.1436522" lon="10.8127037"><ele>193.66666666666669</ele><time>2026-05-03T13:32:52.568Z</time></trkpt><trkpt lat="43.1438563" lon="10.8127902"><ele>190.0</ele><time>2026-05-03T13:32:53.567Z</time></trkpt><trkpt lat="43.1440774" lon="10.8128862"><ele>188.5</ele><time>2026-05-03T13:32:54.569Z</time></trkpt><trkpt lat="43.1443079" lon="10.8129875"><ele>187.0</ele><time>2026-05-03T13:32:55.566Z</time></trkpt><trkpt lat="43.1445513" lon="10.813076"><ele>187.0</ele><time>2026-05-03T13:32:56.567Z</time></trkpt><trkpt lat="43.144797" lon="10.8131482"><ele>187.0</ele><time>2026-05-03T13:32:57.567Z</time></trkpt><trkpt lat="43.1450288" lon="10.8132038"><ele>189.5</ele><time>2026-05-03T13:32:58.567Z</time></trkpt><trkpt lat="43.1452637" lon="10.8132586"><ele>192.0</ele><time>2026-05-03T13:32:59.567Z</time></trkpt><trkpt lat="43.1454811" lon="10.8133081"><ele>192.0</ele><time>2026-05-03T13:33:00.568Z</time></trkpt><trkpt lat="43.1456938" lon="10.8133639"><ele>192.0</ele><time>2026-05-03T13:33:01.568Z</time></trkpt><trkpt lat="43.1459051" lon="10.8134232"><ele>192.0</ele><time>2026-05-03T13:33:02.569Z</time></trkpt><trkpt lat="43.146119" lon="10.8134994"><ele>195.66666666666669</ele><time>2026-05-03T13:33:03.567Z</time></trkpt><trkpt lat="43.146325" lon="10.8136012"><ele>199.33333333333334</ele><time>2026-05-03T13:33:04.568Z</time></trkpt><trkpt lat="43.1465223" lon="10.8137186"><ele>203.0</ele><time>2026-05-03T13:33:05.566Z</time></trkpt><trkpt lat="43.1467064" lon="10.8138434"><ele>203.0</ele><time>2026-05-03T13:33:06.568Z</time></trkpt><trkpt lat="43.1468724" lon="10.8139617"><ele>203.0</ele><time>2026-05-03T13:33:07.568Z</time></trkpt><trkpt lat="43.1470221" lon="10.8140747"><ele>203.0</ele><time>2026-05-03T13:33:08.567Z</time></trkpt><trkpt lat="43.1471545" lon="10.8142017"><ele>203.66666666666669</ele><time>2026-05-03T13:33:09.567Z</time></trkpt><trkpt lat="43.1472775" lon="10.8143483"><ele>204.33333333333331</ele><time>2026-05-03T13:33:10.568Z</time></trkpt><trkpt lat="43.1473851" lon="10.8145251"><ele>205.0</ele><time>2026-05-03T13:33:11.567Z</time></trkpt><trkpt lat="43.1474777" lon="10.8147092"><ele>205.0</ele><time>2026-05-03T13:33:12.569Z</time></trkpt><trkpt lat="43.147571" lon="10.8148869"><ele>205.0</ele><time>2026-05-03T13:33:13.567Z</time></trkpt><trkpt lat="43.1476894" lon="10.8150415"><ele>205.0</ele><time>2026-05-03T13:33:14.568Z</time></trkpt><trkpt lat="43.147834" lon="10.8151598"><ele>207.0</ele><time>2026-05-03T13:33:15.568Z</time></trkpt><trkpt lat="43.1480009" lon="10.8152555"><ele>209.0</ele><time>2026-05-03T13:33:16.567Z</time></trkpt><trkpt lat="43.1481778" lon="10.8153433"><ele>211.0</ele><time>2026-05-03T13:33:17.568Z</time></trkpt><trkpt lat="43.1483435" lon="10.8154307"><ele>211.0</ele><time>2026-05-03T13:33:18.567Z</time></trkpt><trkpt lat="43.1484905" lon="10.8155095"><ele>211.0</ele><time>2026-05-03T13:33:19.567Z</time></trkpt><trkpt lat="43.14861" lon="10.8155718"><ele>211.0</ele><time>2026-05-03T13:33:20.568Z</time></trkpt><trkpt lat="43.1487064" lon="10.8156481"><ele>211.0</ele><time>2026-05-03T13:33:21.567Z</time></trkpt><trkpt lat="43.148773" lon="10.8157439"><ele>211.0</ele><time>2026-05-03T13:33:22.569Z</time></trkpt><trkpt lat="43.1487942" lon="10.8158709"><ele>211.0</ele><time>2026-05-03T13:33:23.568Z</time></trkpt><trkpt lat="43.1487675" lon="10.8160014"><ele>211.0</ele><time>2026-05-03T13:33:24.567Z</time></trkpt><trkpt lat="43.1486956" lon="10.8161286"><ele>211.0</ele><time>2026-05-03T13:33:25.567Z</time></trkpt><trkpt lat="43.1485854" lon="10.8162432"><ele>213.66666666666666</ele><time>2026-05-03T13:33:26.567Z</time></trkpt><trkpt lat="43.1484494" lon="10.8163499"><ele>216.33333333333331</ele><time>2026-05-03T13:33:27.566Z</time></trkpt><trkpt lat="43.1482902" lon="10.8164447"><ele>219.0</ele><time>2026-05-03T13:33:28.567Z</time></trkpt><trkpt lat="43.1481159" lon="10.8165456"><ele>219.66666666666669</ele><time>2026-05-03T13:33:29.567Z</time></trkpt><trkpt lat="43.1479535" lon="10.81664"><ele>220.33333333333334</ele><time>2026-05-03T13:33:30.568Z</time></trkpt><trkpt lat="43.1478004" lon="10.81671"><ele>221.0</ele><time>2026-05-03T13:33:31.566Z</time></trkpt><trkpt lat="43.1476609" lon="10.8167279"><ele>221.0</ele><time>2026-05-03T13:33:32.569Z</time></trkpt><trkpt lat="43.1475224" lon="10.8166981"><ele>221.0</ele><time>2026-05-03T13:33:33.567Z</time></trkpt><trkpt lat="43.147376" lon="10.8166269"><ele>221.0</ele><time>2026-05-03T13:33:34.567Z</time></trkpt><trkpt lat="43.1472165" lon="10.816571"><ele>223.0</ele><time>2026-05-03T13:33:35.568Z</time></trkpt><trkpt lat="43.1470385" lon="10.8165539"><ele>225.0</ele><time>2026-05-03T13:33:36.567Z</time></trkpt><trkpt lat="43.1468468" lon="10.8165572"><ele>227.0</ele><time>2026-05-03T13:33:37.567Z</time></trkpt><trkpt lat="43.1466706" lon="10.8165706"><ele>226.25</ele><time>2026-05-03T13:33:38.567Z</time></trkpt><trkpt lat="43.1465047" lon="10.8165936"><ele>225.5</ele><time>2026-05-03T13:33:39.567Z</time></trkpt><trkpt lat="43.1463613" lon="10.8166373"><ele>224.75</ele><time>2026-05-03T13:33:40.569Z</time></trkpt><trkpt lat="43.1462454" lon="10.8167027"><ele>224.0</ele><time>2026-05-03T13:33:41.568Z</time></trkpt><trkpt lat="43.1461445" lon="10.8168106"><ele>225.25</ele><time>2026-05-03T13:33:42.568Z</time></trkpt><trkpt lat="43.1460652" lon="10.8169555"><ele>226.5</ele><time>2026-05-03T13:33:43.567Z</time></trkpt><trkpt lat="43.1460141" lon="10.8171326"><ele>227.75</ele><time>2026-05-03T13:33:44.568Z</time></trkpt><trkpt lat="43.1459978" lon="10.817336"><ele>229.0</ele><time>2026-05-03T13:33:45.568Z</time></trkpt><trkpt lat="43.1459985" lon="10.8175645"><ele>229.0</ele><time>2026-05-03T13:33:46.567Z</time></trkpt><trkpt lat="43.1459966" lon="10.8177769"><ele>229.0</ele><time>2026-05-03T13:33:47.567Z</time></trkpt><trkpt lat="43.1460016" lon="10.8179648"><ele>229.0</ele><time>2026-05-03T13:33:48.567Z</time></trkpt><trkpt lat="43.1460383" lon="10.8181351"><ele>229.0</ele><time>2026-05-03T13:33:49.566Z</time></trkpt><trkpt lat="43.1461112" lon="10.818277"><ele>229.0</ele><time>2026-05-03T13:33:50.567Z</time></trkpt><trkpt lat="43.1462078" lon="10.8183865"><ele>229.0</ele><time>2026-05-03T13:33:51.567Z</time></trkpt><trkpt lat="43.1463268" lon="10.8184856"><ele>229.0</ele><time>2026-05-03T13:33:52.568Z</time></trkpt><trkpt lat="43.1464955" lon="10.8185454"><ele>229.0</ele><time>2026-05-03T13:33:53.567Z</time></trkpt><trkpt lat="43.1466688" lon="10.8185847"><ele>231.0</ele><time>2026-05-03T13:33:54.567Z</time></trkpt><trkpt lat="43.1468527" lon="10.8185862"><ele>233.0</ele><time>2026-05-03T13:33:55.567Z</time></trkpt><trkpt lat="43.1470273" lon="10.8185649"><ele>235.0</ele><time>2026-05-03T13:33:56.568Z</time></trkpt><trkpt lat="43.1471891" lon="10.81855"><ele>235.0</ele><time>2026-05-03T13:33:57.567Z</time></trkpt><trkpt lat="43.1473597" lon="10.8185529"><ele>235.0</ele><time>2026-05-03T13:33:58.566Z</time></trkpt><trkpt lat="43.1475333" lon="10.8185973"><ele>235.0</ele><time>2026-05-03T13:33:59.568Z</time></trkpt><trkpt lat="43.1476898" lon="10.8186609"><ele>237.25</ele><time>2026-05-03T13:34:00.567Z</time></trkpt><trkpt lat="43.1478345" lon="10.8187373"><ele>239.5</ele><time>2026-05-03T13:34:01.568Z</time></trkpt><trkpt lat="43.1479581" lon="10.8188265"><ele>241.75</ele><time>2026-05-03T13:34:02.568Z</time></trkpt><trkpt lat="43.1480469" lon="10.8189505"><ele>244.0</ele><time>2026-05-03T13:34:03.567Z</time></trkpt><trkpt lat="43.1480954" lon="10.8190906"><ele>244.0</ele><time>2026-05-03T13:34:04.566Z</time></trkpt><trkpt lat="43.148105" lon="10.8192516"><ele>244.0</ele><time>2026-05-03T13:34:05.567Z</time></trkpt><trkpt lat="43.1480662" lon="10.8194349"><ele>244.0</ele><time>2026-05-03T13:34:06.566Z</time></trkpt><trkpt lat="43.1480158" lon="10.8196475"><ele>244.0</ele><time>2026-05-03T13:34:07.566Z</time></trkpt><trkpt lat="43.1479638" lon="10.8198878"><ele>245.0</ele><time>2026-05-03T13:34:08.567Z</time></trkpt><trkpt lat="43.1479101" lon="10.8201409"><ele>246.0</ele><time>2026-05-03T13:34:09.567Z</time></trkpt><trkpt lat="43.1478489" lon="10.8203872"><ele>247.0</ele><time>2026-05-03T13:34:10.567Z</time></trkpt><trkpt lat="43.1477893" lon="10.8206291"><ele>248.33333333333331</ele><time>2026-05-03T13:34:11.566Z</time></trkpt><trkpt lat="43.1477415" lon="10.8208633"><ele>249.66666666666669</ele><time>2026-05-03T13:34:12.569Z</time></trkpt><trkpt lat="43.1477046" lon="10.8210863"><ele>251.0</ele><time>2026-05-03T13:34:13.567Z</time></trkpt><trkpt lat="43.1476884" lon="10.8212839"><ele>251.0</ele><time>2026-05-03T13:34:14.567Z</time></trkpt><trkpt lat="43.1477075" lon="10.821467"><ele>251.0</ele><time>2026-05-03T13:34:15.568Z</time></trkpt><trkpt lat="43.1477647" lon="10.8216344"><ele>251.0</ele><time>2026-05-03T13:34:16.567Z</time></trkpt><trkpt lat="43.1478536" lon="10.8217852"><ele>251.0</ele><time>2026-05-03T13:34:17.567Z</time></trkpt><trkpt lat="43.1479712" lon="10.8219547"><ele>250.33333333333334</ele><time>2026-05-03T13:34:18.566Z</time></trkpt><trkpt lat="43.1480736" lon="10.8221663"><ele>249.66666666666669</ele><time>2026-05-03T13:34:19.567Z</time></trkpt><trkpt lat="43.1481702" lon="10.8224137"><ele>249.0</ele><time>2026-05-03T13:34:20.567Z</time></trkpt><trkpt lat="43.1482589" lon="10.8226825"><ele>255.66666666666669</ele><time>2026-05-03T13:34:21.567Z</time></trkpt><trkpt lat="43.1483306" lon="10.8229443"><ele>262.33333333333337</ele><time>2026-05-03T13:34:22.567Z</time></trkpt><trkpt lat="43.1483804" lon="10.8231965"><ele>269.0</ele><time>2026-05-03T13:34:23.568Z</time></trkpt><trkpt lat="43.1484169" lon="10.823437"><ele>269.6666666666667</ele><time>2026-05-03T13:34:24.567Z</time></trkpt><trkpt lat="43.1484592" lon="10.8236571"><ele>270.3333333333333</ele><time>2026-05-03T13:34:25.567Z</time></trkpt><trkpt lat="43.148514" lon="10.8238521"><ele>271.0</ele><time>2026-05-03T13:34:26.568Z</time></trkpt><trkpt lat="43.1485569" lon="10.8240566"><ele>271.0</ele><time>2026-05-03T13:34:27.568Z</time></trkpt><trkpt lat="43.1485749" lon="10.8242679"><ele>271.0</ele><time>2026-05-03T13:34:28.567Z</time></trkpt><trkpt lat="43.1485502" lon="10.8245002"><ele>271.0</ele><time>2026-05-03T13:34:29.566Z</time></trkpt><trkpt lat="43.1484946" lon="10.8247581"><ele>272.3333333333333</ele><time>2026-05-03T13:34:30.566Z</time></trkpt><trkpt lat="43.148436" lon="10.82502"><ele>273.6666666666667</ele><time>2026-05-03T13:34:31.567Z</time></trkpt><trkpt lat="43.1483653" lon="10.8253056"><ele>275.0</ele><time>2026-05-03T13:34:32.567Z</time></trkpt><trkpt lat="43.1482939" lon="10.8255902"><ele>277.6666666666667</ele><time>2026-05-03T13:34:33.567Z</time></trkpt><trkpt lat="43.148228" lon="10.825851"><ele>280.3333333333333</ele><time>2026-05-03T13:34:34.567Z</time></trkpt><trkpt lat="43.1481598" lon="10.8260889"><ele>283.0</ele><time>2026-05-03T13:34:35.568Z</time></trkpt><trkpt lat="43.1480805" lon="10.8262922"><ele>283.5</ele><time>2026-05-03T13:34:36.569Z</time></trkpt><trkpt lat="43.1479827" lon="10.8264472"><ele>284.0</ele><time>2026-05-03T13:34:37.567Z</time></trkpt><trkpt lat="43.1478678" lon="10.8265633"><ele>284.5</ele><time>2026-05-03T13:34:38.567Z</time></trkpt><trkpt lat="43.1477455" lon="10.8266327"><ele>285.0</ele><time>2026-05-03T13:34:39.566Z</time></trkpt><trkpt lat="43.147636" lon="10.826704"><ele>285.0</ele><time>2026-05-03T13:34:40.566Z</time></trkpt><trkpt lat="43.1475534" lon="10.8268034"><ele>285.0</ele><time>2026-05-03T13:34:41.566Z</time></trkpt><trkpt lat="43.1475003" lon="10.8269366"><ele>285.0</ele><time>2026-05-03T13:34:42.568Z</time></trkpt><trkpt lat="43.1474852" lon="10.8270988"><ele>285.0</ele><time>2026-05-03T13:34:43.568Z</time></trkpt><trkpt lat="43.1475078" lon="10.82728"><ele>286.6666666666667</ele><time>2026-05-03T13:34:44.566Z</time></trkpt><trkpt lat="43.1475595" lon="10.8274808"><ele>288.33333333333337</ele><time>2026-05-03T13:34:45.568Z</time></trkpt><trkpt lat="43.1476221" lon="10.8276971"><ele>290.0</ele><time>2026-05-03T13:34:46.566Z</time></trkpt><trkpt lat="43.1476861" lon="10.8278998"><ele>291.5</ele><time>2026-05-03T13:34:47.568Z</time></trkpt><trkpt lat="43.1477623" lon="10.8280714"><ele>293.0</ele><time>2026-05-03T13:34:48.568Z</time></trkpt><trkpt lat="43.147852" lon="10.8282064"><ele>294.5</ele><time>2026-05-03T13:34:49.567Z</time></trkpt><trkpt lat="43.1479395" lon="10.828285"><ele>296.0</ele><time>2026-05-03T13:34:50.566Z</time></trkpt><trkpt lat="43.1480292" lon="10.828304"><ele>296.0</ele><time>2026-05-03T13:34:51.568Z</time></trkpt><trkpt lat="43.1481059" lon="10.8282527"><ele>296.0</ele><time>2026-05-03T13:34:52.566Z</time></trkpt><trkpt lat="43.148161" lon="10.8281556"><ele>296.0</ele><time>2026-05-03T13:34:53.568Z</time></trkpt><trkpt lat="43.1481971" lon="10.8280168"><ele>296.0</ele><time>2026-05-03T13:34:54.567Z</time></trkpt><trkpt lat="43.1482385" lon="10.8278692"><ele>296.0</ele><time>2026-05-03T13:34:55.567Z</time></trkpt><trkpt lat="43.1483062" lon="10.82773"><ele>297.5</ele><time>2026-05-03T13:34:56.567Z</time></trkpt><trkpt lat="43.1483999" lon="10.8276323"><ele>299.0</ele><time>2026-05-03T13:34:57.567Z</time></trkpt><trkpt lat="43.1485186" lon="10.8275874"><ele>300.5</ele><time>2026-05-03T13:34:58.567Z</time></trkpt><trkpt lat="43.1486563" lon="10.8275985"><ele>302.0</ele><time>2026-05-03T13:34:59.567Z</time></trkpt><trkpt lat="43.1488056" lon="10.8276448"><ele>303.0</ele><time>2026-05-03T13:35:00.567Z</time></trkpt><trkpt lat="43.1489679" lon="10.8277226"><ele>304.0</ele><time>2026-05-03T13:35:01.566Z</time></trkpt><trkpt lat="43.1491118" lon="10.8278061"><ele>305.0</ele><time>2026-05-03T13:35:02.568Z</time></trkpt><trkpt lat="43.1492286" lon="10.8279039"><ele>306.5</ele><time>2026-05-03T13:35:03.566Z</time></trkpt><trkpt lat="43.1493171" lon="10.8280333"><ele>308.0</ele><time>2026-05-03T13:35:04.566Z</time></trkpt><trkpt lat="43.1493844" lon="10.828206"><ele>309.5</ele><time>2026-05-03T13:35:05.566Z</time></trkpt><trkpt lat="43.1494385" lon="10.8283874"><ele>311.0</ele><time>2026-05-03T13:35:06.568Z</time></trkpt><trkpt lat="43.1495061" lon="10.8285472"><ele>314.0</ele><time>2026-05-03T13:35:07.566Z</time></trkpt><trkpt lat="43.1495998" lon="10.8286773"><ele>317.0</ele><time>2026-05-03T13:35:08.566Z</time></trkpt><trkpt lat="43.1497339" lon="10.8287784"><ele>320.0</ele><time>2026-05-03T13:35:09.566Z</time></trkpt><trkpt lat="43.1498902" lon="10.8288593"><ele>320.0</ele><time>2026-05-03T13:35:10.568Z</time></trkpt><trkpt lat="43.1500443" lon="10.8288962"><ele>320.0</ele><time>2026-05-03T13:35:11.567Z</time></trkpt><trkpt lat="43.1501817" lon="10.8289193"><ele>320.0</ele><time>2026-05-03T13:35:12.566Z</time></trkpt><trkpt lat="43.1502904" lon="10.8289582"><ele>320.0</ele><time>2026-05-03T13:35:13.567Z</time></trkpt><trkpt lat="43.1503721" lon="10.8290324"><ele>320.0</ele><time>2026-05-03T13:35:14.566Z</time></trkpt><trkpt lat="43.1504192" lon="10.8291409"><ele>320.0</ele><time>2026-05-03T13:35:15.567Z</time></trkpt><trkpt lat="43.1504321" lon="10.8292743"><ele>320.0</ele><time>2026-05-03T13:35:16.568Z</time></trkpt><trkpt lat="43.1504212" lon="10.8294464"><ele>320.0</ele><time>2026-05-03T13:35:17.566Z</time></trkpt><trkpt lat="43.1503994" lon="10.8296447"><ele>321.33333333333337</ele><time>2026-05-03T13:35:18.567Z</time></trkpt><trkpt lat="43.1503713" lon="10.8298778"><ele>322.6666666666667</ele><time>2026-05-03T13:35:19.567Z</time></trkpt><trkpt lat="43.150341" lon="10.8301241"><ele>324.0</ele><time>2026-05-03T13:35:20.566Z</time></trkpt><trkpt lat="43.1503173" lon="10.8303571"><ele>324.3333333333333</ele><time>2026-05-03T13:35:21.568Z</time></trkpt><trkpt lat="43.1503219" lon="10.8305679"><ele>324.66666666666663</ele><time>2026-05-03T13:35:22.567Z</time></trkpt><trkpt lat="43.1503591" lon="10.8307701"><ele>325.0</ele><time>2026-05-03T13:35:23.566Z</time></trkpt><trkpt lat="43.1504359" lon="10.8309466"><ele>327.3333333333333</ele><time>2026-05-03T13:35:24.568Z</time></trkpt><trkpt lat="43.1505481" lon="10.8310958"><ele>329.6666666666667</ele><time>2026-05-03T13:35:25.567Z</time></trkpt><trkpt lat="43.1506912" lon="10.8312053"><ele>332.0</ele><time>2026-05-03T13:35:26.567Z</time></trkpt><trkpt lat="43.1508618" lon="10.8312742"><ele>333.0</ele><time>2026-05-03T13:35:27.567Z</time></trkpt><trkpt lat="43.1510596" lon="10.8313194"><ele>334.0</ele><time>2026-05-03T13:35:28.567Z</time></trkpt><trkpt lat="43.1512558" lon="10.8313462"><ele>335.0</ele><time>2026-05-03T13:35:29.568Z</time></trkpt><trkpt lat="43.1514216" lon="10.83134"><ele>335.6666666666667</ele><time>2026-05-03T13:35:30.567Z</time></trkpt><trkpt lat="43.1515795" lon="10.8313025"><ele>336.3333333333333</ele><time>2026-05-03T13:35:31.567Z</time></trkpt><trkpt lat="43.1517218" lon="10.8312296"><ele>337.0</ele><time>2026-05-03T13:35:32.567Z</time></trkpt><trkpt lat="43.1518591" lon="10.8310838"><ele>334.75</ele><time>2026-05-03T13:35:33.568Z</time></trkpt><trkpt lat="43.1519774" lon="10.8309593"><ele>332.5</ele><time>2026-05-03T13:35:34.568Z</time></trkpt><trkpt lat="43.1520869" lon="10.830864"><ele>330.25</ele><time>2026-05-03T13:35:35.566Z</time></trkpt><trkpt lat="43.1522092" lon="10.8308012"><ele>328.0</ele><time>2026-05-03T13:35:36.567Z</time></trkpt><trkpt lat="43.1523252" lon="10.8307755"><ele>330.5</ele><time>2026-05-03T13:35:37.567Z</time></trkpt><trkpt lat="43.1524535" lon="10.8307919"><ele>333.0</ele><time>2026-05-03T13:35:38.568Z</time></trkpt><trkpt lat="43.1525877" lon="10.8308667"><ele>335.5</ele><time>2026-05-03T13:35:39.568Z</time></trkpt><trkpt lat="43.1527404" lon="10.8309635"><ele>338.0</ele><time>2026-05-03T13:35:40.567Z</time></trkpt><trkpt lat="43.1529017" lon="10.8310703"><ele>341.6666666666667</ele><time>2026-05-03T13:35:41.568Z</time></trkpt><trkpt lat="43.1530634" lon="10.8311623"><ele>345.3333333333333</ele><time>2026-05-03T13:35:42.567Z</time></trkpt><trkpt lat="43.1532145" lon="10.8312374"><ele>349.0</ele><time>2026-05-03T13:35:43.567Z</time></trkpt><trkpt lat="43.1533617" lon="10.8312741"><ele>349.25</ele><time>2026-05-03T13:35:44.567Z</time></trkpt><trkpt lat="43.1534978" lon="10.831266"><ele>349.5</ele><time>2026-05-03T13:35:45.567Z</time></trkpt><trkpt lat="43.1536238" lon="10.8312176"><ele>349.75</ele><time>2026-05-03T13:35:46.567Z</time></trkpt><trkpt lat="43.1537342" lon="10.8311687"><ele>350.0</ele><time>2026-05-03T13:35:47.567Z</time></trkpt><trkpt lat="43.1538286" lon="10.8311544"><ele>350.0</ele><time>2026-05-03T13:35:48.568Z</time></trkpt><trkpt lat="43.1539053" lon="10.8311916"><ele>350.0</ele><time>2026-05-03T13:35:49.567Z</time></trkpt><trkpt lat="43.1539676" lon="10.8312757"><ele>350.0</ele><time>2026-05-03T13:35:50.567Z</time></trkpt><trkpt lat="43.153987" lon="10.8313896"><ele>350.0</ele><time>2026-05-03T13:35:51.566Z</time></trkpt><trkpt lat="43.1539684" lon="10.8315046"><ele>350.0</ele><time>2026-05-03T13:35:52.569Z</time></trkpt><trkpt lat="43.1539009" lon="10.8316086"><ele>350.0</ele><time>2026-05-03T13:35:53.567Z</time></trkpt><trkpt lat="43.1537965" lon="10.8316957"><ele>350.0</ele><time>2026-05-03T13:35:54.566Z</time></trkpt><trkpt lat="43.1536551" lon="10.8317913"><ele>350.0</ele><time>2026-05-03T13:35:55.568Z</time></trkpt><trkpt lat="43.1535073" lon="10.8318959"><ele>350.0</ele><time>2026-05-03T13:35:56.568Z</time></trkpt><trkpt lat="43.1533431" lon="10.8320169"><ele>352.6666666666667</ele><time>2026-05-03T13:35:57.566Z</time></trkpt><trkpt lat="43.1531756" lon="10.8321433"><ele>355.3333333333333</ele><time>2026-05-03T13:35:58.567Z</time></trkpt><trkpt lat="43.1529983" lon="10.832261"><ele>358.0</ele><time>2026-05-03T13:35:59.567Z</time></trkpt><trkpt lat="43.1528387" lon="10.8323705"><ele>358.0</ele><time>2026-05-03T13:36:00.567Z</time></trkpt><trkpt lat="43.15269" lon="10.8324787"><ele>358.0</ele><time>2026-05-03T13:36:01.566Z</time></trkpt><trkpt lat="43.1525451" lon="10.8325858"><ele>358.0</ele><time>2026-05-03T13:36:02.568Z</time></trkpt><trkpt lat="43.1524121" lon="10.8326808"><ele>360.25</ele><time>2026-05-03T13:36:03.567Z</time></trkpt><trkpt lat="43.1522943" lon="10.8327676"><ele>362.5</ele><time>2026-05-03T13:36:04.568Z</time></trkpt><trkpt lat="43.1521763" lon="10.8328575"><ele>364.75</ele><time>2026-05-03T13:36:05.566Z</time></trkpt><trkpt lat="43.1520494" lon="10.8329323"><ele>367.0</ele><time>2026-05-03T13:36:06.567Z</time></trkpt><trkpt lat="43.1519047" lon="10.8330013"><ele>367.0</ele><time>2026-05-03T13:36:07.568Z</time></trkpt><trkpt lat="43.1517532" lon="10.8330658"><ele>367.0</ele><time>2026-05-03T13:36:08.567Z</time></trkpt><trkpt lat="43.1515978" lon="10.8331412"><ele>367.0</ele><time>2026-05-03T13:36:09.567Z</time></trkpt><trkpt lat="43.1514442" lon="10.8332126"><ele>365.3333333333333</ele><time>2026-05-03T13:36:10.566Z</time></trkpt><trkpt lat="43.1513015" lon="10.833291"><ele>363.6666666666667</ele><time>2026-05-03T13:36:11.566Z</time></trkpt><trkpt lat="43.1511721" lon="10.8334057"><ele>362.0</ele><time>2026-05-03T13:36:12.568Z</time></trkpt><trkpt lat="43.1510418" lon="10.8335679"><ele>362.6666666666667</ele><time>2026-05-03T13:36:13.567Z</time></trkpt><trkpt lat="43.1509099" lon="10.8337628"><ele>363.3333333333333</ele><time>2026-05-03T13:36:14.567Z</time></trkpt><trkpt lat="43.1507734" lon="10.8339613"><ele>364.0</ele><time>2026-05-03T13:36:15.567Z</time></trkpt><trkpt lat="43.1506227" lon="10.8341553"><ele>368.66666666666663</ele><time>2026-05-03T13:36:16.567Z</time></trkpt><trkpt lat="43.150475" lon="10.8343318"><ele>373.3333333333333</ele><time>2026-05-03T13:36:17.567Z</time></trkpt><trkpt lat="43.1503394" lon="10.8344971"><ele>378.0</ele><time>2026-05-03T13:36:18.566Z</time></trkpt><trkpt lat="43.150221" lon="10.8346801"><ele>378.0</ele><time>2026-05-03T13:36:19.567Z</time></trkpt><trkpt lat="43.1501098" lon="10.8348916"><ele>378.0</ele><time>2026-05-03T13:36:20.567Z</time></trkpt><trkpt lat="43.1500216" lon="10.8351121"><ele>378.0</ele><time>2026-05-03T13:36:21.566Z</time></trkpt><trkpt lat="43.1499419" lon="10.8353218"><ele>378.0</ele><time>2026-05-03T13:36:22.567Z</time></trkpt><trkpt lat="43.1498731" lon="10.8355166"><ele>378.0</ele><time>2026-05-03T13:36:23.567Z</time></trkpt><trkpt lat="43.1498104" lon="10.8356841"><ele>378.0</ele><time>2026-05-03T13:36:24.566Z</time></trkpt><trkpt lat="43.1497542" lon="10.8358564"><ele>378.0</ele><time>2026-05-03T13:36:25.567Z</time></trkpt><trkpt lat="43.1497263" lon="10.836028"><ele>379.5</ele><time>2026-05-03T13:36:26.567Z</time></trkpt><trkpt lat="43.1497325" lon="10.836208"><ele>381.0</ele><time>2026-05-03T13:36:27.567Z</time></trkpt><trkpt lat="43.1497644" lon="10.8363887"><ele>382.5</ele><time>2026-05-03T13:36:28.567Z</time></trkpt><trkpt lat="43.1498009" lon="10.8365672"><ele>384.0</ele><time>2026-05-03T13:36:29.567Z</time></trkpt><trkpt lat="43.1498174" lon="10.8367378"><ele>387.0</ele><time>2026-05-03T13:36:30.568Z</time></trkpt><trkpt lat="43.1498182" lon="10.8369112"><ele>390.0</ele><time>2026-05-03T13:36:31.567Z</time></trkpt><trkpt lat="43.1498025" lon="10.8370834"><ele>393.0</ele><time>2026-05-03T13:36:32.566Z</time></trkpt><trkpt lat="43.1497729" lon="10.8372591"><ele>396.0</ele><time>2026-05-03T13:36:33.567Z</time></trkpt><trkpt lat="43.1497391" lon="10.8374047"><ele>396.0</ele><time>2026-05-03T13:36:34.567Z</time></trkpt><trkpt lat="43.1496764" lon="10.8375463"><ele>396.0</ele><time>2026-05-03T13:36:35.567Z</time></trkpt><trkpt lat="43.1495913" lon="10.8376546"><ele>396.0</ele><time>2026-05-03T13:36:36.567Z</time></trkpt><trkpt lat="43.1494765" lon="10.8377197"><ele>396.0</ele><time>2026-05-03T13:36:37.567Z</time></trkpt><trkpt lat="43.1493387" lon="10.8377529"><ele>400.0</ele><time>2026-05-03T13:36:38.567Z</time></trkpt><trkpt lat="43.149181" lon="10.8377631"><ele>404.0</ele><time>2026-05-03T13:36:39.568Z</time></trkpt><trkpt lat="43.1490123" lon="10.837784"><ele>408.0</ele><time>2026-05-03T13:36:40.567Z</time></trkpt><trkpt lat="43.1488318" lon="10.8378007"><ele>410.0</ele><time>2026-05-03T13:36:41.567Z</time></trkpt><trkpt lat="43.1486431" lon="10.8378094"><ele>412.0</ele><time>2026-05-03T13:36:42.567Z</time></trkpt><trkpt lat="43.1484683" lon="10.8378226"><ele>414.0</ele><time>2026-05-03T13:36:43.566Z</time></trkpt><trkpt lat="43.1483097" lon="10.837839"><ele>412.5</ele><time>2026-05-03T13:36:44.567Z</time></trkpt><trkpt lat="43.1481689" lon="10.837866"><ele>411.0</ele><time>2026-05-03T13:36:45.566Z</time></trkpt><trkpt lat="43.1480324" lon="10.837907"><ele>409.5</ele><time>2026-05-03T13:36:46.567Z</time></trkpt><trkpt lat="43.1479032" lon="10.8379666"><ele>408.0</ele><time>2026-05-03T13:36:47.567Z</time></trkpt><trkpt lat="43.1477792" lon="10.8380691"><ele>408.0</ele><time>2026-05-03T13:36:48.568Z</time></trkpt><trkpt lat="43.1476662" lon="10.8381917"><ele>408.0</ele><time>2026-05-03T13:36:49.568Z</time></trkpt><trkpt lat="43.1475698" lon="10.8383561"><ele>408.0</ele><time>2026-05-03T13:36:50.567Z</time></trkpt><trkpt lat="43.1474966" lon="10.8385391"><ele>406.0</ele><time>2026-05-03T13:36:51.566Z</time></trkpt><trkpt lat="43.1474434" lon="10.8387474"><ele>404.0</ele><time>2026-05-03T13:36:52.568Z</time></trkpt><trkpt lat="43.1473862" lon="10.8389575"><ele>402.0</ele><time>2026-05-03T13:36:53.567Z</time></trkpt><trkpt lat="43.1473183" lon="10.839163"><ele>406.0</ele><time>2026-05-03T13:36:54.566Z</time></trkpt><trkpt lat="43.1472346" lon="10.8393505"><ele>410.0</ele><time>2026-05-03T13:36:55.567Z</time></trkpt><trkpt lat="43.1471378" lon="10.8395129"><ele>414.0</ele><time>2026-05-03T13:36:56.567Z</time></trkpt><trkpt lat="43.1470463" lon="10.8396752"><ele>414.0</ele><time>2026-05-03T13:36:57.567Z</time></trkpt><trkpt lat="43.146955" lon="10.839844"><ele>414.0</ele><time>2026-05-03T13:36:58.568Z</time></trkpt><trkpt lat="43.1468562" lon="10.8400055"><ele>414.0</ele><time>2026-05-03T13:36:59.567Z</time></trkpt><trkpt lat="43.1467454" lon="10.8401506"><ele>413.5</ele><time>2026-05-03T13:37:00.567Z</time></trkpt><trkpt lat="43.1466197" lon="10.840276"><ele>413.0</ele><time>2026-05-03T13:37:01.567Z</time></trkpt><trkpt lat="43.1464988" lon="10.8403604"><ele>412.5</ele><time>2026-05-03T13:37:02.566Z</time></trkpt><trkpt lat="43.1463891" lon="10.8404725"><ele>412.0</ele><time>2026-05-03T13:37:03.567Z</time></trkpt><trkpt lat="43.1462937" lon="10.8406003"><ele>412.0</ele><time>2026-05-03T13:37:04.568Z</time></trkpt><trkpt lat="43.1462199" lon="10.8407315"><ele>412.0</ele><time>2026-05-03T13:37:05.567Z</time></trkpt><trkpt lat="43.1461599" lon="10.8408608"><ele>412.0</ele><time>2026-05-03T13:37:06.567Z</time></trkpt><trkpt lat="43.1461215" lon="10.8409948"><ele>412.0</ele><time>2026-05-03T13:37:07.567Z</time></trkpt><trkpt lat="43.1461103" lon="10.8411447"><ele>412.0</ele><time>2026-05-03T13:37:08.567Z</time></trkpt><trkpt lat="43.1461385" lon="10.8413036"><ele>413.25</ele><time>2026-05-03T13:37:09.567Z</time></trkpt><trkpt lat="43.1461948" lon="10.8414617"><ele>414.5</ele><time>2026-05-03T13:37:10.567Z</time></trkpt><trkpt lat="43.1462641" lon="10.8416432"><ele>415.75</ele><time>2026-05-03T13:37:11.566Z</time></trkpt><trkpt lat="43.1463332" lon="10.8418285"><ele>417.0</ele><time>2026-05-03T13:37:12.566Z</time></trkpt><trkpt lat="43.1464036" lon="10.8420091"><ele>417.5</ele><time>2026-05-03T13:37:13.567Z</time></trkpt><trkpt lat="43.1464588" lon="10.842183"><ele>418.0</ele><time>2026-05-03T13:37:14.567Z</time></trkpt><trkpt lat="43.1464961" lon="10.8423624"><ele>418.5</ele><time>2026-05-03T13:37:15.567Z</time></trkpt><trkpt lat="43.1465115" lon="10.8425449"><ele>419.0</ele><time>2026-05-03T13:37:16.568Z</time></trkpt><trkpt lat="43.1464915" lon="10.8427406"><ele>422.0</ele><time>2026-05-03T13:37:17.567Z</time></trkpt><trkpt lat="43.1464457" lon="10.842947"><ele>425.0</ele><time>2026-05-03T13:37:18.567Z</time></trkpt><trkpt lat="43.1463731" lon="10.8431578"><ele>428.0</ele><time>2026-05-03T13:37:19.566Z</time></trkpt><trkpt lat="43.1462836" lon="10.8433629"><ele>432.3333333333333</ele><time>2026-05-03T13:37:20.567Z</time></trkpt><trkpt lat="43.1461901" lon="10.843568"><ele>436.66666666666663</ele><time>2026-05-03T13:37:21.568Z</time></trkpt><trkpt lat="43.1460837" lon="10.843772"><ele>441.0</ele><time>2026-05-03T13:37:22.567Z</time></trkpt><trkpt lat="43.1459792" lon="10.8439741"><ele>441.0</ele><time>2026-05-03T13:37:23.567Z</time></trkpt><trkpt lat="43.1458784" lon="10.8441681"><ele>441.0</ele><time>2026-05-03T13:37:24.567Z</time></trkpt><trkpt lat="43.1457895" lon="10.8443516"><ele>441.0</ele><time>2026-05-03T13:37:25.568Z</time></trkpt><trkpt lat="43.1457218" lon="10.8445295"><ele>437.33333333333337</ele><time>2026-05-03T13:37:26.567Z</time></trkpt><trkpt lat="43.1456737" lon="10.8447144"><ele>433.6666666666667</ele><time>2026-05-03T13:37:27.567Z</time></trkpt><trkpt lat="43.1456548" lon="10.8449361"><ele>430.0</ele><time>2026-05-03T13:37:28.567Z</time></trkpt><trkpt lat="43.145633" lon="10.8451674"><ele>430.0</ele><time>2026-05-03T13:37:29.567Z</time></trkpt><trkpt lat="43.1456205" lon="10.8454089"><ele>430.0</ele><time>2026-05-03T13:37:30.568Z</time></trkpt><trkpt lat="43.1456006" lon="10.8456416"><ele>430.0</ele><time>2026-05-03T13:37:31.567Z</time></trkpt><trkpt lat="43.1455812" lon="10.8458675"><ele>429.6666666666667</ele><time>2026-05-03T13:37:32.567Z</time></trkpt><trkpt lat="43.1455621" lon="10.8460804"><ele>429.33333333333337</ele><time>2026-05-03T13:37:33.567Z</time></trkpt><trkpt lat="43.1455517" lon="10.8462859"><ele>429.0</ele><time>2026-05-03T13:37:34.567Z</time></trkpt><trkpt lat="43.1455516" lon="10.8464911"><ele>429.0</ele><time>2026-05-03T13:37:35.566Z</time></trkpt><trkpt lat="43.1455643" lon="10.8466924"><ele>429.0</ele><time>2026-05-03T13:37:36.567Z</time></trkpt><trkpt lat="43.1455879" lon="10.8468956"><ele>429.0</ele><time>2026-05-03T13:37:37.567Z</time></trkpt><trkpt lat="43.1456268" lon="10.8470827"><ele>429.0</ele><time>2026-05-03T13:37:38.566Z</time></trkpt><trkpt lat="43.1456744" lon="10.8472583"><ele>434.5</ele><time>2026-05-03T13:37:39.566Z</time></trkpt><trkpt lat="43.1457425" lon="10.8474235"><ele>440.0</ele><time>2026-05-03T13:37:40.566Z</time></trkpt><trkpt lat="43.1458324" lon="10.8475791"><ele>445.5</ele><time>2026-05-03T13:37:41.568Z</time></trkpt><trkpt lat="43.1459267" lon="10.8477255"><ele>451.0</ele><time>2026-05-03T13:37:42.567Z</time></trkpt><trkpt lat="43.1460162" lon="10.8478679"><ele>451.0</ele><time>2026-05-03T13:37:43.568Z</time></trkpt><trkpt lat="43.1460964" lon="10.8480252"><ele>451.0</ele><time>2026-05-03T13:37:44.568Z</time></trkpt><trkpt lat="43.1461578" lon="10.8482009"><ele>451.0</ele><time>2026-05-03T13:37:45.568Z</time></trkpt><trkpt lat="43.1461941" lon="10.848391"><ele>451.0</ele><time>2026-05-03T13:37:46.568Z</time></trkpt><trkpt lat="43.1462095" lon="10.8485885"><ele>451.0</ele><time>2026-05-03T13:37:47.566Z</time></trkpt><trkpt lat="43.1462029" lon="10.8487929"><ele>451.0</ele><time>2026-05-03T13:37:48.568Z</time></trkpt><trkpt lat="43.1461819" lon="10.8489994"><ele>451.0</ele><time>2026-05-03T13:37:49.567Z</time></trkpt><trkpt lat="43.1461614" lon="10.8492051"><ele>452.0</ele><time>2026-05-03T13:37:50.566Z</time></trkpt><trkpt lat="43.1461409" lon="10.8494083"><ele>453.0</ele><time>2026-05-03T13:37:51.567Z</time></trkpt><trkpt lat="43.1461265" lon="10.8495964"><ele>454.0</ele><time>2026-05-03T13:37:52.568Z</time></trkpt><trkpt lat="43.1461306" lon="10.8497738"><ele>455.0</ele><time>2026-05-03T13:37:53.568Z</time></trkpt><trkpt lat="43.1461601" lon="10.8499471"><ele>455.0</ele><time>2026-05-03T13:37:54.567Z</time></trkpt><trkpt lat="43.1462131" lon="10.8501227"><ele>455.0</ele><time>2026-05-03T13:37:55.566Z</time></trkpt><trkpt lat="43.1462817" lon="10.8503034"><ele>455.0</ele><time>2026-05-03T13:37:56.567Z</time></trkpt><trkpt lat="43.1463493" lon="10.8505168"><ele>455.66666666666663</ele><time>2026-05-03T13:37:57.567Z</time></trkpt><trkpt lat="43.1464001" lon="10.850765"><ele>456.33333333333337</ele><time>2026-05-03T13:37:58.567Z</time></trkpt><trkpt lat="43.1464434" lon="10.8510459"><ele>457.0</ele><time>2026-05-03T13:37:59.566Z</time></trkpt><trkpt lat="43.1464794" lon="10.851348"><ele>457.0</ele><time>2026-05-03T13:38:00.566Z</time></trkpt><trkpt lat="43.1465146" lon="10.8516589"><ele>457.0</ele><time>2026-05-03T13:38:01.568Z</time></trkpt><trkpt lat="43.1465527" lon="10.8519538"><ele>457.0</ele><time>2026-05-03T13:38:02.567Z</time></trkpt><trkpt lat="43.1465891" lon="10.8522241"><ele>462.5</ele><time>2026-05-03T13:38:03.567Z</time></trkpt><trkpt lat="43.1466189" lon="10.8524555"><ele>468.0</ele><time>2026-05-03T13:38:04.567Z</time></trkpt><trkpt lat="43.1466508" lon="10.8526507"><ele>473.5</ele><time>2026-05-03T13:38:05.566Z</time></trkpt><trkpt lat="43.1467004" lon="10.8528148"><ele>479.0</ele><time>2026-05-03T13:38:06.567Z</time></trkpt><trkpt lat="43.1467786" lon="10.8529461"><ele>479.0</ele><time>2026-05-03T13:38:07.567Z</time></trkpt><trkpt lat="43.1468622" lon="10.8530356"><ele>479.0</ele><time>2026-05-03T13:38:08.567Z</time></trkpt><trkpt lat="43.14696" lon="10.8530974"><ele>479.0</ele><time>2026-05-03T13:38:09.567Z</time></trkpt><trkpt lat="43.147162" lon="10.852995"><ele>479.0</ele><time>2026-05-03T13:38:11.567Z</time></trkpt><trkpt lat="43.1472756" lon="10.8528844"><ele>479.5</ele><time>2026-05-03T13:38:12.567Z</time></trkpt><trkpt lat="43.1473968" lon="10.8527841"><ele>480.0</ele><time>2026-05-03T13:38:13.567Z</time></trkpt><trkpt lat="43.1475269" lon="10.8527086"><ele>480.5</ele><time>2026-05-03T13:38:14.567Z</time></trkpt><trkpt lat="43.1476557" lon="10.8526923"><ele>481.0</ele><time>2026-05-03T13:38:15.567Z</time></trkpt><trkpt lat="43.14777" lon="10.8527424"><ele>481.0</ele><time>2026-05-03T13:38:16.568Z</time></trkpt><trkpt lat="43.1478744" lon="10.8528262"><ele>481.0</ele><time>2026-05-03T13:38:17.567Z</time></trkpt><trkpt lat="43.1479665" lon="10.8529522"><ele>481.0</ele><time>2026-05-03T13:38:18.567Z</time></trkpt><trkpt lat="43.1480525" lon="10.8531027"><ele>481.0</ele><time>2026-05-03T13:38:19.567Z</time></trkpt><trkpt lat="43.1481533" lon="10.853234"><ele>483.25</ele><time>2026-05-03T13:38:20.567Z</time></trkpt><trkpt lat="43.1482818" lon="10.8533148"><ele>485.5</ele><time>2026-05-03T13:38:21.567Z</time></trkpt><trkpt lat="43.1484096" lon="10.8533682"><ele>487.75</ele><time>2026-05-03T13:38:22.568Z</time></trkpt><trkpt lat="43.1485231" lon="10.8533982"><ele>490.0</ele><time>2026-05-03T13:38:23.568Z</time></trkpt><trkpt lat="43.1486262" lon="10.853436"><ele>489.4</ele><time>2026-05-03T13:38:24.567Z</time></trkpt><trkpt lat="43.1487178" lon="10.8535036"><ele>488.8</ele><time>2026-05-03T13:38:25.568Z</time></trkpt><trkpt lat="43.1487766" lon="10.853599"><ele>488.20000000000005</ele><time>2026-05-03T13:38:26.567Z</time></trkpt><trkpt lat="43.1488085" lon="10.8537368"><ele>487.6</ele><time>2026-05-03T13:38:27.566Z</time></trkpt><trkpt lat="43.1488186" lon="10.8539101"><ele>487.0</ele><time>2026-05-03T13:38:28.567Z</time></trkpt><trkpt lat="43.1488292" lon="10.8540976"><ele>487.0</ele><time>2026-05-03T13:38:29.567Z</time></trkpt><trkpt lat="43.1488239" lon="10.8542792"><ele>487.0</ele><time>2026-05-03T13:38:30.566Z</time></trkpt><trkpt lat="43.1488008" lon="10.8544426"><ele>487.0</ele><time>2026-05-03T13:38:31.568Z</time></trkpt><trkpt lat="43.1487463" lon="10.8545919"><ele>487.0</ele><time>2026-05-03T13:38:32.567Z</time></trkpt><trkpt lat="43.1486665" lon="10.8547187"><ele>490.75</ele><time>2026-05-03T13:38:33.568Z</time></trkpt><trkpt lat="43.148559" lon="10.8548169"><ele>494.5</ele><time>2026-05-03T13:38:34.567Z</time></trkpt><trkpt lat="43.1484344" lon="10.8549003"><ele>498.25</ele><time>2026-05-03T13:38:35.567Z</time></trkpt><trkpt lat="43.1483044" lon="10.8549744"><ele>502.0</ele><time>2026-05-03T13:38:36.567Z</time></trkpt><trkpt lat="43.1481734" lon="10.855052"><ele>504.5</ele><time>2026-05-03T13:38:37.568Z</time></trkpt><trkpt lat="43.1480493" lon="10.8551244"><ele>507.0</ele><time>2026-05-03T13:38:38.566Z</time></trkpt><trkpt lat="43.1479331" lon="10.8552003"><ele>509.5</ele><time>2026-05-03T13:38:39.567Z</time></trkpt><trkpt lat="43.1478257" lon="10.8552833"><ele>512.0</ele><time>2026-05-03T13:38:40.567Z</time></trkpt><trkpt lat="43.1477301" lon="10.8553934"><ele>512.0</ele><time>2026-05-03T13:38:41.566Z</time></trkpt><trkpt lat="43.1476476" lon="10.8555145"><ele>512.0</ele><time>2026-05-03T13:38:42.567Z</time></trkpt><trkpt lat="43.1475759" lon="10.8556379"><ele>512.0</ele><time>2026-05-03T13:38:43.567Z</time></trkpt><trkpt lat="43.1475083" lon="10.8557532"><ele>512.0</ele><time>2026-05-03T13:38:44.567Z</time></trkpt><trkpt lat="43.1474478" lon="10.8558412"><ele>512.0</ele><time>2026-05-03T13:38:45.567Z</time></trkpt><trkpt lat="43.1474005" lon="10.8559162"><ele>512.4</ele><time>2026-05-03T13:38:46.567Z</time></trkpt><trkpt lat="43.1473727" lon="10.8560718"><ele>512.8000000000001</ele><time>2026-05-03T13:38:48.567Z</time></trkpt><trkpt lat="43.1473923" lon="10.8561728"><ele>513.2</ele><time>2026-05-03T13:38:49.567Z</time></trkpt><trkpt lat="43.1474474" lon="10.8562832"><ele>513.6</ele><time>2026-05-03T13:38:50.568Z</time></trkpt><trkpt lat="43.1475235" lon="10.8563937"><ele>514.0</ele><time>2026-05-03T13:38:51.566Z</time></trkpt><trkpt lat="43.1476446" lon="10.8564622"><ele>513.8</ele><time>2026-05-03T13:38:52.567Z</time></trkpt><trkpt lat="43.1477516" lon="10.8565316"><ele>513.5999999999999</ele><time>2026-05-03T13:38:53.567Z</time></trkpt><trkpt lat="43.1478631" lon="10.8565998"><ele>513.4</ele><time>2026-05-03T13:38:54.567Z</time></trkpt><trkpt lat="43.1479526" lon="10.8566617"><ele>513.1999999999999</ele><time>2026-05-03T13:38:55.567Z</time></trkpt><trkpt lat="43.1480372" lon="10.8567372"><ele>513.0</ele><time>2026-05-03T13:38:56.567Z</time></trkpt><trkpt lat="43.1481137" lon="10.8568344"><ele>513.0</ele><time>2026-05-03T13:38:57.567Z</time></trkpt><trkpt lat="43.1481587" lon="10.8569657"><ele>513.0</ele><time>2026-05-03T13:38:58.566Z</time></trkpt><trkpt lat="43.1481829" lon="10.8570937"><ele>513.0</ele><time>2026-05-03T13:38:59.566Z</time></trkpt><trkpt lat="43.1481698" lon="10.8572208"><ele>513.0</ele><time>2026-05-03T13:39:00.566Z</time></trkpt><trkpt lat="43.1481187" lon="10.8573293"><ele>513.0</ele><time>2026-05-03T13:39:01.567Z</time></trkpt><trkpt lat="43.1480391" lon="10.85741"><ele>513.0</ele><time>2026-05-03T13:39:02.567Z</time></trkpt><trkpt lat="43.1479284" lon="10.857465"><ele>513.0</ele><time>2026-05-03T13:39:03.566Z</time></trkpt><trkpt lat="43.1477924" lon="10.8574744"><ele>513.0</ele><time>2026-05-03T13:39:04.567Z</time></trkpt><trkpt lat="43.1476479" lon="10.8575271"><ele>513.0</ele><time>2026-05-03T13:39:05.567Z</time></trkpt><trkpt lat="43.1474934" lon="10.8575815"><ele>517.0</ele><time>2026-05-03T13:39:06.568Z</time></trkpt><trkpt lat="43.1473138" lon="10.8576514"><ele>521.0</ele><time>2026-05-03T13:39:07.566Z</time></trkpt><trkpt lat="43.1471384" lon="10.8577168"><ele>525.0</ele><time>2026-05-03T13:39:08.567Z</time></trkpt><trkpt lat="43.1469822" lon="10.8577962"><ele>525.0</ele><time>2026-05-03T13:39:09.567Z</time></trkpt><trkpt lat="43.1468412" lon="10.8578772"><ele>525.0</ele><time>2026-05-03T13:39:10.565Z</time></trkpt><trkpt lat="43.1467083" lon="10.8579669"><ele>525.0</ele><time>2026-05-03T13:39:11.568Z</time></trkpt><trkpt lat="43.1465827" lon="10.8580567"><ele>525.0</ele><time>2026-05-03T13:39:12.566Z</time></trkpt><trkpt lat="43.1464588" lon="10.8581725"><ele>525.0</ele><time>2026-05-03T13:39:13.567Z</time></trkpt><trkpt lat="43.1463348" lon="10.8582982"><ele>525.0</ele><time>2026-05-03T13:39:14.567Z</time></trkpt><trkpt lat="43.1462207" lon="10.8584341"><ele>525.0</ele><time>2026-05-03T13:39:15.567Z</time></trkpt><trkpt lat="43.1461048" lon="10.8585781"><ele>525.0</ele><time>2026-05-03T13:39:16.567Z</time></trkpt><trkpt lat="43.1459986" lon="10.8587094"><ele>525.0</ele><time>2026-05-03T13:39:17.567Z</time></trkpt><trkpt lat="43.1458952" lon="10.8588431"><ele>525.0</ele><time>2026-05-03T13:39:18.566Z</time></trkpt><trkpt lat="43.1458058" lon="10.8589673"><ele>525.0</ele><time>2026-05-03T13:39:19.567Z</time></trkpt><trkpt lat="43.145738" lon="10.8590994"><ele>523.5</ele><time>2026-05-03T13:39:20.567Z</time></trkpt><trkpt lat="43.145694" lon="10.8592424"><ele>522.0</ele><time>2026-05-03T13:39:21.567Z</time></trkpt><trkpt lat="43.1456752" lon="10.8594108"><ele>520.5</ele><time>2026-05-03T13:39:22.567Z</time></trkpt><trkpt lat="43.1456863" lon="10.8596001"><ele>519.0</ele><time>2026-05-03T13:39:23.567Z</time></trkpt><trkpt lat="43.1457106" lon="10.8597793"><ele>522.0</ele><time>2026-05-03T13:39:24.567Z</time></trkpt><trkpt lat="43.1457416" lon="10.8599359"><ele>525.0</ele><time>2026-05-03T13:39:25.566Z</time></trkpt><trkpt lat="43.1457579" lon="10.8600904"><ele>528.0</ele><time>2026-05-03T13:39:26.567Z</time></trkpt><trkpt lat="43.1457379" lon="10.8602305"><ele>531.0</ele><time>2026-05-03T13:39:27.567Z</time></trkpt><trkpt lat="43.1456762" lon="10.8603565"><ele>534.0</ele><time>2026-05-03T13:39:28.566Z</time></trkpt><trkpt lat="43.1455776" lon="10.8604644"><ele>534.6666666666666</ele><time>2026-05-03T13:39:29.568Z</time></trkpt><trkpt lat="43.1454426" lon="10.8605595"><ele>535.3333333333333</ele><time>2026-05-03T13:39:30.566Z</time></trkpt><trkpt lat="43.1452848" lon="10.8606409"><ele>536.0</ele><time>2026-05-03T13:39:31.567Z</time></trkpt><trkpt lat="43.1451282" lon="10.8607149"><ele>536.0</ele><time>2026-05-03T13:39:32.567Z</time></trkpt><trkpt lat="43.1449554" lon="10.8607718"><ele>536.0</ele><time>2026-05-03T13:39:33.568Z</time></trkpt><trkpt lat="43.144801" lon="10.860797"><ele>536.0</ele><time>2026-05-03T13:39:34.567Z</time></trkpt><trkpt lat="43.1446661" lon="10.8608549"><ele>536.0</ele><time>2026-05-03T13:39:35.567Z</time></trkpt><trkpt lat="43.1445277" lon="10.8609029"><ele>536.0</ele><time>2026-05-03T13:39:36.568Z</time></trkpt><trkpt lat="43.1444524" lon="10.8610231"><ele>536.0</ele><time>2026-05-03T13:39:37.567Z</time></trkpt><trkpt lat="43.1443741" lon="10.8611526"><ele>536.0</ele><time>2026-05-03T13:39:38.567Z</time></trkpt><trkpt lat="43.1443194" lon="10.8613278"><ele>536.0</ele><time>2026-05-03T13:39:39.567Z</time></trkpt><trkpt lat="43.1442649" lon="10.8615212"><ele>536.0</ele><time>2026-05-03T13:39:40.566Z</time></trkpt><trkpt lat="43.1442255" lon="10.8617145"><ele>536.0</ele><time>2026-05-03T13:39:41.566Z</time></trkpt><trkpt lat="43.1441724" lon="10.8619401"><ele>539.3333333333333</ele><time>2026-05-03T13:39:42.566Z</time></trkpt><trkpt lat="43.1441253" lon="10.862165"><ele>542.6666666666666</ele><time>2026-05-03T13:39:43.568Z</time></trkpt><trkpt lat="43.1440762" lon="10.8623742"><ele>546.0</ele><time>2026-05-03T13:39:44.567Z</time></trkpt><trkpt lat="43.1440328" lon="10.8625736"><ele>537.6666666666666</ele><time>2026-05-03T13:39:45.567Z</time></trkpt><trkpt lat="43.1440007" lon="10.8627896"><ele>529.3333333333333</ele><time>2026-05-03T13:39:46.566Z</time></trkpt><trkpt lat="43.1439884" lon="10.8630139"><ele>521.0</ele><time>2026-05-03T13:39:47.567Z</time></trkpt><trkpt lat="43.1439994" lon="10.8632615"><ele>521.0</ele><time>2026-05-03T13:39:48.568Z</time></trkpt><trkpt lat="43.1440331" lon="10.8635314"><ele>521.0</ele><time>2026-05-03T13:39:49.566Z</time></trkpt><trkpt lat="43.1440741" lon="10.8638087"><ele>521.0</ele><time>2026-05-03T13:39:50.566Z</time></trkpt><trkpt lat="43.1441151" lon="10.8641008"><ele>530.3333333333333</ele><time>2026-05-03T13:39:51.567Z</time></trkpt><trkpt lat="43.1441571" lon="10.8643811"><ele>539.6666666666666</ele><time>2026-05-03T13:39:52.568Z</time></trkpt><trkpt lat="43.1441929" lon="10.8646483"><ele>549.0</ele><time>2026-05-03T13:39:53.567Z</time></trkpt><trkpt lat="43.1442453" lon="10.8648985"><ele>549.3333333333334</ele><time>2026-05-03T13:39:54.567Z</time></trkpt><trkpt lat="43.144326" lon="10.8651306"><ele>549.6666666666667</ele><time>2026-05-03T13:39:55.566Z</time></trkpt><trkpt lat="43.1444278" lon="10.8653565"><ele>550.0</ele><time>2026-05-03T13:39:56.566Z</time></trkpt><trkpt lat="43.1445484" lon="10.8655706"><ele>550.0</ele><time>2026-05-03T13:39:57.566Z</time></trkpt><trkpt lat="43.1446757" lon="10.8657938"><ele>550.0</ele><time>2026-05-03T13:39:58.568Z</time></trkpt><trkpt lat="43.1448177" lon="10.866031"><ele>550.0</ele><time>2026-05-03T13:39:59.566Z</time></trkpt><trkpt lat="43.1449378" lon="10.8662702"><ele>555.6666666666667</ele><time>2026-05-03T13:40:00.567Z</time></trkpt><trkpt lat="43.1450348" lon="10.8665118"><ele>561.3333333333334</ele><time>2026-05-03T13:40:01.566Z</time></trkpt><trkpt lat="43.1451243" lon="10.8667769"><ele>567.0</ele><time>2026-05-03T13:40:02.567Z</time></trkpt><trkpt lat="43.1452026" lon="10.8670536"><ele>567.0</ele><time>2026-05-03T13:40:03.566Z</time></trkpt><trkpt lat="43.1452811" lon="10.8673497"><ele>567.0</ele><time>2026-05-03T13:40:04.567Z</time></trkpt><trkpt lat="43.1453563" lon="10.8676432"><ele>565.0</ele><time>2026-05-03T13:40:05.567Z</time></trkpt><trkpt lat="43.1454297" lon="10.8679157"><ele>563.0</ele><time>2026-05-03T13:40:06.566Z</time></trkpt><trkpt lat="43.1455004" lon="10.8681687"><ele>561.0</ele><time>2026-05-03T13:40:07.568Z</time></trkpt><trkpt lat="43.1455668" lon="10.8684015"><ele>561.3333333333334</ele><time>2026-05-03T13:40:08.565Z</time></trkpt><trkpt lat="43.1456288" lon="10.8686111"><ele>561.6666666666667</ele><time>2026-05-03T13:40:09.567Z</time></trkpt><trkpt lat="43.1456806" lon="10.868813"><ele>562.0</ele><time>2026-05-03T13:40:10.567Z</time></trkpt><trkpt lat="43.1457115" lon="10.8690246"><ele>566.6666666666667</ele><time>2026-05-03T13:40:11.566Z</time></trkpt><trkpt lat="43.1457127" lon="10.8692505"><ele>571.3333333333334</ele><time>2026-05-03T13:40:12.567Z</time></trkpt><trkpt lat="43.1456766" lon="10.8694769"><ele>576.0</ele><time>2026-05-03T13:40:13.566Z</time></trkpt><trkpt lat="43.145614" lon="10.8696903"><ele>576.0</ele><time>2026-05-03T13:40:14.567Z</time></trkpt><trkpt lat="43.1455328" lon="10.8698879"><ele>576.0</ele><time>2026-05-03T13:40:15.567Z</time></trkpt><trkpt lat="43.1454685" lon="10.8700871"><ele>576.0</ele><time>2026-05-03T13:40:16.567Z</time></trkpt><trkpt lat="43.1454241" lon="10.8702899"><ele>580.0</ele><time>2026-05-03T13:40:17.566Z</time></trkpt><trkpt lat="43.1454057" lon="10.8705007"><ele>584.0</ele><time>2026-05-03T13:40:18.567Z</time></trkpt><trkpt lat="43.1453981" lon="10.8707163"><ele>588.0</ele><time>2026-05-03T13:40:19.566Z</time></trkpt><trkpt lat="43.1454281" lon="10.8709254"><ele>591.3333333333334</ele><time>2026-05-03T13:40:20.566Z</time></trkpt><trkpt lat="43.145499" lon="10.8711293"><ele>594.6666666666667</ele><time>2026-05-03T13:40:21.566Z</time></trkpt><trkpt lat="43.1455637" lon="10.8713124"><ele>598.0</ele><time>2026-05-03T13:40:22.567Z</time></trkpt><trkpt lat="43.1456082" lon="10.8715"><ele>598.0</ele><time>2026-05-03T13:40:23.567Z</time></trkpt><trkpt lat="43.1456171" lon="10.871666"><ele>598.0</ele><time>2026-05-03T13:40:24.568Z</time></trkpt><trkpt lat="43.1455841" lon="10.871806"><ele>598.0</ele><time>2026-05-03T13:40:25.567Z</time></trkpt><trkpt lat="43.1455077" lon="10.8719135"><ele>598.0</ele><time>2026-05-03T13:40:26.567Z</time></trkpt><trkpt lat="43.1454009" lon="10.8719809"><ele>604.3333333333334</ele><time>2026-05-03T13:40:27.567Z</time></trkpt><trkpt lat="43.1452715" lon="10.8720126"><ele>610.6666666666666</ele><time>2026-05-03T13:40:28.566Z</time></trkpt><trkpt lat="43.1451263" lon="10.8720403"><ele>617.0</ele><time>2026-05-03T13:40:29.568Z</time></trkpt><trkpt lat="43.1449474" lon="10.8720811"><ele>612.3333333333333</ele><time>2026-05-03T13:40:30.567Z</time></trkpt><trkpt lat="43.1447753" lon="10.872124"><ele>607.6666666666666</ele><time>2026-05-03T13:40:31.567Z</time></trkpt><trkpt lat="43.1446166" lon="10.8721681"><ele>603.0</ele><time>2026-05-03T13:40:32.566Z</time></trkpt><trkpt lat="43.1444595" lon="10.8722375"><ele>603.0</ele><time>2026-05-03T13:40:33.567Z</time></trkpt><trkpt lat="43.1443128" lon="10.8723256"><ele>603.0</ele><time>2026-05-03T13:40:34.566Z</time></trkpt><trkpt lat="43.1441764" lon="10.8724559"><ele>603.0</ele><time>2026-05-03T13:40:35.569Z</time></trkpt><trkpt lat="43.1440603" lon="10.8726327"><ele>602.6666666666666</ele><time>2026-05-03T13:40:36.567Z</time></trkpt><trkpt lat="43.1440474" lon="10.8729334"><ele>602.3333333333333</ele><time>2026-05-03T13:40:37.567Z</time></trkpt><trkpt lat="43.1440005" lon="10.8732059"><ele>602.0</ele><time>2026-05-03T13:40:38.566Z</time></trkpt><trkpt lat="43.1439658" lon="10.8734993"><ele>602.0</ele><time>2026-05-03T13:40:39.566Z</time></trkpt><trkpt lat="43.1439439" lon="10.8738164"><ele>602.0</ele><time>2026-05-03T13:40:40.566Z</time></trkpt><trkpt lat="43.143921" lon="10.8741322"><ele>606.3333333333333</ele><time>2026-05-03T13:40:41.566Z</time></trkpt><trkpt lat="43.1439059" lon="10.8744252"><ele>610.6666666666666</ele><time>2026-05-03T13:40:42.568Z</time></trkpt><trkpt lat="43.14391" lon="10.8747019"><ele>615.0</ele><time>2026-05-03T13:40:43.567Z</time></trkpt><trkpt lat="43.1439294" lon="10.874993"><ele>617.3333333333334</ele><time>2026-05-03T13:40:44.568Z</time></trkpt><trkpt lat="43.1439744" lon="10.8752878"><ele>619.6666666666667</ele><time>2026-05-03T13:40:45.567Z</time></trkpt><trkpt lat="43.1440211" lon="10.8755562"><ele>622.0</ele><time>2026-05-03T13:40:46.567Z</time></trkpt><trkpt lat="43.1440731" lon="10.8758039"><ele>621.6666666666667</ele><time>2026-05-03T13:40:47.567Z</time></trkpt><trkpt lat="43.1441254" lon="10.8760399"><ele>621.3333333333334</ele><time>2026-05-03T13:40:48.567Z</time></trkpt><trkpt lat="43.14421" lon="10.8762632"><ele>621.0</ele><time>2026-05-03T13:40:49.567Z</time></trkpt><trkpt lat="43.1443229" lon="10.8764766"><ele>621.0</ele><time>2026-05-03T13:40:50.567Z</time></trkpt><trkpt lat="43.1444635" lon="10.8766737"><ele>621.0</ele><time>2026-05-03T13:40:51.566Z</time></trkpt><trkpt lat="43.1446117" lon="10.8768745"><ele>621.0</ele><time>2026-05-03T13:40:52.567Z</time></trkpt><trkpt lat="43.1447471" lon="10.8770864"><ele>621.3333333333334</ele><time>2026-05-03T13:40:53.567Z</time></trkpt><trkpt lat="43.1448509" lon="10.8773175"><ele>621.6666666666667</ele><time>2026-05-03T13:40:54.566Z</time></trkpt><trkpt lat="43.144933" lon="10.8775767"><ele>622.0</ele><time>2026-05-03T13:40:55.567Z</time></trkpt><trkpt lat="43.1449975" lon="10.8778646"><ele>622.0</ele><time>2026-05-03T13:40:56.567Z</time></trkpt><trkpt lat="43.1450535" lon="10.8781785"><ele>622.0</ele><time>2026-05-03T13:40:57.567Z</time></trkpt><trkpt lat="43.1451055" lon="10.8785144"><ele>621.5</ele><time>2026-05-03T13:40:58.567Z</time></trkpt><trkpt lat="43.1451551" lon="10.8788556"><ele>621.0</ele><time>2026-05-03T13:40:59.566Z</time></trkpt><trkpt lat="43.1452072" lon="10.8792129"><ele>620.0</ele><time>2026-05-03T13:41:00.567Z</time></trkpt><trkpt lat="43.1452613" lon="10.879574"><ele>619.0</ele><time>2026-05-03T13:41:01.566Z</time></trkpt><trkpt lat="43.1453133" lon="10.8799154"><ele>618.0</ele><time>2026-05-03T13:41:02.567Z</time></trkpt><trkpt lat="43.1453592" lon="10.8802342"><ele>617.0</ele><time>2026-05-03T13:41:03.566Z</time></trkpt><trkpt lat="43.145402" lon="10.8805229"><ele>617.0</ele><time>2026-05-03T13:41:04.567Z</time></trkpt><trkpt lat="43.1454383" lon="10.8807883"><ele>617.0</ele><time>2026-05-03T13:41:05.567Z</time></trkpt><trkpt lat="43.1454615" lon="10.8810403"><ele>617.0</ele><time>2026-05-03T13:41:06.567Z</time></trkpt><trkpt lat="43.1454582" lon="10.8812823"><ele>619.0</ele><time>2026-05-03T13:41:07.567Z</time></trkpt><trkpt lat="43.1454135" lon="10.8815118"><ele>621.0</ele><time>2026-05-03T13:41:08.567Z</time></trkpt><trkpt lat="43.1453281" lon="10.8817267"><ele>623.0</ele><time>2026-05-03T13:41:09.566Z</time></trkpt><trkpt lat="43.1452041" lon="10.8819371"><ele>624.3333333333333</ele><time>2026-05-03T13:41:10.567Z</time></trkpt><trkpt lat="43.1450621" lon="10.8821502"><ele>625.6666666666666</ele><time>2026-05-03T13:41:11.567Z</time></trkpt><trkpt lat="43.1449292" lon="10.8823529"><ele>627.0</ele><time>2026-05-03T13:41:12.567Z</time></trkpt><trkpt lat="43.1448084" lon="10.882537"><ele>626.6666666666666</ele><time>2026-05-03T13:41:13.567Z</time></trkpt><trkpt lat="43.1446994" lon="10.8827092"><ele>626.3333333333333</ele><time>2026-05-03T13:41:14.566Z</time></trkpt><trkpt lat="43.144612" lon="10.8828899"><ele>626.0</ele><time>2026-05-03T13:41:15.566Z</time></trkpt><trkpt lat="43.1445576" lon="10.8830894"><ele>626.0</ele><time>2026-05-03T13:41:16.567Z</time></trkpt><trkpt lat="43.1445375" lon="10.8833133"><ele>626.0</ele><time>2026-05-03T13:41:17.567Z</time></trkpt><trkpt lat="43.144546" lon="10.8835529"><ele>626.0</ele><time>2026-05-03T13:41:18.567Z</time></trkpt><trkpt lat="43.1445875" lon="10.8838101"><ele>626.6666666666666</ele><time>2026-05-03T13:41:19.568Z</time></trkpt><trkpt lat="43.1446369" lon="10.8840592"><ele>627.3333333333334</ele><time>2026-05-03T13:41:20.567Z</time></trkpt><trkpt lat="43.1447039" lon="10.8842965"><ele>628.0</ele><time>2026-05-03T13:41:21.567Z</time></trkpt><trkpt lat="43.1447918" lon="10.8845161"><ele>628.3333333333334</ele><time>2026-05-03T13:41:22.567Z</time></trkpt><trkpt lat="43.144898" lon="10.8847141"><ele>628.6666666666666</ele><time>2026-05-03T13:41:23.567Z</time></trkpt><trkpt lat="43.1450138" lon="10.8849002"><ele>629.0</ele><time>2026-05-03T13:41:24.566Z</time></trkpt><trkpt lat="43.1451237" lon="10.8850817"><ele>630.0</ele><time>2026-05-03T13:41:25.567Z</time></trkpt><trkpt lat="43.1452216" lon="10.885258"><ele>631.0</ele><time>2026-05-03T13:41:26.566Z</time></trkpt><trkpt lat="43.1453091" lon="10.8854391"><ele>632.0</ele><time>2026-05-03T13:41:27.567Z</time></trkpt><trkpt lat="43.1453716" lon="10.8856297"><ele>632.0</ele><time>2026-05-03T13:41:28.567Z</time></trkpt><trkpt lat="43.1453994" lon="10.8858303"><ele>632.0</ele><time>2026-05-03T13:41:29.567Z</time></trkpt><trkpt lat="43.1453907" lon="10.8860371"><ele>632.0</ele><time>2026-05-03T13:41:30.567Z</time></trkpt><trkpt lat="43.1453636" lon="10.8862437"><ele>630.25</ele><time>2026-05-03T13:41:31.566Z</time></trkpt><trkpt lat="43.1453272" lon="10.8864553"><ele>628.5</ele><time>2026-05-03T13:41:32.568Z</time></trkpt><trkpt lat="43.1453188" lon="10.8866598"><ele>626.75</ele><time>2026-05-03T13:41:33.566Z</time></trkpt><trkpt lat="43.1453336" lon="10.8868511"><ele>625.0</ele><time>2026-05-03T13:41:34.567Z</time></trkpt><trkpt lat="43.1453601" lon="10.8870266"><ele>624.0</ele><time>2026-05-03T13:41:35.566Z</time></trkpt><trkpt lat="43.1453845" lon="10.8871743"><ele>623.0</ele><time>2026-05-03T13:41:36.567Z</time></trkpt><trkpt lat="43.1454096" lon="10.8872935"><ele>622.0</ele><time>2026-05-03T13:41:37.566Z</time></trkpt><trkpt lat="43.1454334" lon="10.8873851"><ele>621.0</ele><time>2026-05-03T13:41:38.567Z</time></trkpt><trkpt lat="43.1454843" lon="10.8874935"><ele>620.0</ele><time>2026-05-03T13:41:40.567Z</time></trkpt><trkpt lat="43.1455523" lon="10.8875528"><ele>619.0</ele><time>2026-05-03T13:41:50.567Z</time></trkpt><trkpt lat="43.1456559" lon="10.8874938"><ele>620.0</ele><time>2026-05-03T13:41:52.567Z</time></trkpt><trkpt lat="43.1457123" lon="10.887421"><ele>621.0</ele><time>2026-05-03T13:41:53.566Z</time></trkpt><trkpt lat="43.1457839" lon="10.8873084"><ele>622.0</ele><time>2026-05-03T13:41:54.567Z</time></trkpt><trkpt lat="43.1458718" lon="10.8871891"><ele>623.0</ele><time>2026-05-03T13:41:55.566Z</time></trkpt><trkpt lat="43.1459583" lon="10.887079"><ele>624.0</ele><time>2026-05-03T13:41:56.566Z</time></trkpt><trkpt lat="43.1460259" lon="10.8869649"><ele>624.0</ele><time>2026-05-03T13:41:57.566Z</time></trkpt><trkpt lat="43.1460751" lon="10.8868351"><ele>624.0</ele><time>2026-05-03T13:41:58.566Z</time></trkpt><trkpt lat="43.1460975" lon="10.8867001"><ele>624.0</ele><time>2026-05-03T13:41:59.567Z</time></trkpt><trkpt lat="43.1460929" lon="10.8865681"><ele>624.0</ele><time>2026-05-03T13:42:00.567Z</time></trkpt><trkpt lat="43.1460574" lon="10.8863902"><ele>624.0</ele><time>2026-05-03T13:42:01.566Z</time></trkpt><trkpt lat="43.146022" lon="10.8862216"><ele>623.8333333333334</ele><time>2026-05-03T13:42:02.567Z</time></trkpt><trkpt lat="43.1459943" lon="10.8860799"><ele>623.6666666666666</ele><time>2026-05-03T13:42:03.567Z</time></trkpt><trkpt lat="43.1459706" lon="10.8859499"><ele>623.5</ele><time>2026-05-03T13:42:04.567Z</time></trkpt><trkpt lat="43.1459721" lon="10.8858447"><ele>623.3333333333333</ele><time>2026-05-03T13:42:05.567Z</time></trkpt><trkpt lat="43.1460097" lon="10.8857611"><ele>623.1666666666666</ele><time>2026-05-03T13:42:06.566Z</time></trkpt><trkpt lat="43.1460785" lon="10.8857108"><ele>623.0</ele><time>2026-05-03T13:42:07.567Z</time></trkpt><trkpt lat="43.1461814" lon="10.885719"><ele>622.3333333333333</ele><time>2026-05-03T13:42:08.566Z</time></trkpt><trkpt lat="43.1463002" lon="10.885748"><ele>621.6666666666666</ele><time>2026-05-03T13:42:09.566Z</time></trkpt><trkpt lat="43.1464822" lon="10.8858218"><ele>621.0</ele><time>2026-05-03T13:42:10.566Z</time></trkpt><trkpt lat="43.1466456" lon="10.8858958"><ele>620.0</ele><time>2026-05-03T13:42:11.567Z</time></trkpt><trkpt lat="43.1468225" lon="10.8859651"><ele>619.0</ele><time>2026-05-03T13:42:12.567Z</time></trkpt><trkpt lat="43.1470283" lon="10.8860272"><ele>618.0</ele><time>2026-05-03T13:42:13.566Z</time></trkpt><trkpt lat="43.1472329" lon="10.8860621"><ele>613.6666666666666</ele><time>2026-05-03T13:42:14.567Z</time></trkpt><trkpt lat="43.1474239" lon="10.8860444"><ele>609.3333333333333</ele><time>2026-05-03T13:42:15.566Z</time></trkpt><trkpt lat="43.1476159" lon="10.886039"><ele>605.0</ele><time>2026-05-03T13:42:16.567Z</time></trkpt><trkpt lat="43.1477929" lon="10.8860364"><ele>605.0</ele><time>2026-05-03T13:42:17.566Z</time></trkpt><trkpt lat="43.1479738" lon="10.8860907"><ele>605.0</ele><time>2026-05-03T13:42:18.566Z</time></trkpt><trkpt lat="43.1481378" lon="10.8861912"><ele>605.0</ele><time>2026-05-03T13:42:19.567Z</time></trkpt><trkpt lat="43.1482926" lon="10.8863282"><ele>605.3333333333333</ele><time>2026-05-03T13:42:20.567Z</time></trkpt><trkpt lat="43.1484584" lon="10.8864577"><ele>605.6666666666666</ele><time>2026-05-03T13:42:21.567Z</time></trkpt><trkpt lat="43.1486053" lon="10.8865864"><ele>606.0</ele><time>2026-05-03T13:42:22.567Z</time></trkpt><trkpt lat="43.1487501" lon="10.8867174"><ele>606.0</ele><time>2026-05-03T13:42:23.566Z</time></trkpt><trkpt lat="43.1488975" lon="10.8868157"><ele>606.0</ele><time>2026-05-03T13:42:24.566Z</time></trkpt><trkpt lat="43.1490368" lon="10.8868878"><ele>606.0</ele><time>2026-05-03T13:42:25.57Z</time></trkpt><trkpt lat="43.1491822" lon="10.8869067"><ele>606.0</ele><time>2026-05-03T13:42:26.566Z</time></trkpt><trkpt lat="43.1493093" lon="10.8868931"><ele>606.0</ele><time>2026-05-03T13:42:27.567Z</time></trkpt><trkpt lat="43.1494185" lon="10.8868345"><ele>606.0</ele><time>2026-05-03T13:42:28.566Z</time></trkpt><trkpt lat="43.1495161" lon="10.8867178"><ele>606.0</ele><time>2026-05-03T13:42:29.566Z</time></trkpt><trkpt lat="43.1496061" lon="10.8865697"><ele>608.5</ele><time>2026-05-03T13:42:30.565Z</time></trkpt><trkpt lat="43.1496662" lon="10.886388"><ele>611.0</ele><time>2026-05-03T13:42:31.566Z</time></trkpt><trkpt lat="43.1497015" lon="10.8862069"><ele>613.5</ele><time>2026-05-03T13:42:32.567Z</time></trkpt><trkpt lat="43.1497116" lon="10.8860187"><ele>616.0</ele><time>2026-05-03T13:42:33.566Z</time></trkpt><trkpt lat="43.1496813" lon="10.8858377"><ele>616.6</ele><time>2026-05-03T13:42:34.568Z</time></trkpt><trkpt lat="43.1496742" lon="10.8856614"><ele>617.2</ele><time>2026-05-03T13:42:35.567Z</time></trkpt><trkpt lat="43.1497118" lon="10.8855175"><ele>617.8</ele><time>2026-05-03T13:42:36.568Z</time></trkpt><trkpt lat="43.1497736" lon="10.8854116"><ele>618.4</ele><time>2026-05-03T13:42:37.566Z</time></trkpt><trkpt lat="43.1498651" lon="10.8853404"><ele>619.0</ele><time>2026-05-03T13:42:38.565Z</time></trkpt><trkpt lat="43.1499916" lon="10.8852869"><ele>615.6666666666667</ele><time>2026-05-03T13:42:39.566Z</time></trkpt><trkpt lat="43.1501482" lon="10.8852423"><ele>612.3333333333334</ele><time>2026-05-03T13:42:40.566Z</time></trkpt><trkpt lat="43.1503229" lon="10.8852202"><ele>609.0</ele><time>2026-05-03T13:42:41.566Z</time></trkpt><trkpt lat="43.1504901" lon="10.8852397"><ele>609.0</ele><time>2026-05-03T13:42:42.567Z</time></trkpt><trkpt lat="43.1506705" lon="10.8852569"><ele>609.0</ele><time>2026-05-03T13:42:43.566Z</time></trkpt><trkpt lat="43.1508188" lon="10.8852831"><ele>609.0</ele><time>2026-05-03T13:42:44.567Z</time></trkpt><trkpt lat="43.1509536" lon="10.8853003"><ele>610.5</ele><time>2026-05-03T13:42:45.566Z</time></trkpt><trkpt lat="43.1510836" lon="10.8852945"><ele>612.0</ele><time>2026-05-03T13:42:46.567Z</time></trkpt><trkpt lat="43.1512145" lon="10.8852714"><ele>613.5</ele><time>2026-05-03T13:42:47.567Z</time></trkpt><trkpt lat="43.151281" lon="10.8851213"><ele>615.0</ele><time>2026-05-03T13:42:48.568Z</time></trkpt><trkpt lat="43.1513425" lon="10.8849837"><ele>615.0</ele><time>2026-05-03T13:42:49.568Z</time></trkpt><trkpt lat="43.1513924" lon="10.8848455"><ele>615.0</ele><time>2026-05-03T13:42:50.567Z</time></trkpt><trkpt lat="43.1514248" lon="10.8847147"><ele>615.0</ele><time>2026-05-03T13:42:51.567Z</time></trkpt><trkpt lat="43.1514536" lon="10.8845975"><ele>615.0</ele><time>2026-05-03T13:42:52.568Z</time></trkpt><trkpt lat="43.1514844" lon="10.884489"><ele>615.0</ele><time>2026-05-03T13:42:53.566Z</time></trkpt><trkpt lat="43.1515268" lon="10.8844007"><ele>614.8</ele><time>2026-05-03T13:42:54.566Z</time></trkpt><trkpt lat="43.1515892" lon="10.8843392"><ele>614.6</ele><time>2026-05-03T13:42:55.567Z</time></trkpt><trkpt lat="43.1516779" lon="10.8843205"><ele>614.4</ele><time>2026-05-03T13:42:56.567Z</time></trkpt><trkpt lat="43.1517904" lon="10.8843041"><ele>614.2</ele><time>2026-05-03T13:42:57.566Z</time></trkpt><trkpt lat="43.1519276" lon="10.8842837"><ele>614.0</ele><time>2026-05-03T13:42:58.566Z</time></trkpt><trkpt lat="43.1520714" lon="10.8842563"><ele>614.0</ele><time>2026-05-03T13:42:59.568Z</time></trkpt><trkpt lat="43.1522253" lon="10.8842297"><ele>614.0</ele><time>2026-05-03T13:43:00.566Z</time></trkpt><trkpt lat="43.1523807" lon="10.8841924"><ele>614.0</ele><time>2026-05-03T13:43:01.567Z</time></trkpt><trkpt lat="43.1525381" lon="10.8841559"><ele>614.0</ele><time>2026-05-03T13:43:02.568Z</time></trkpt><trkpt lat="43.1526781" lon="10.8841549"><ele>614.0</ele><time>2026-05-03T13:43:03.567Z</time></trkpt><trkpt lat="43.1528146" lon="10.8841885"><ele>614.0</ele><time>2026-05-03T13:43:04.567Z</time></trkpt><trkpt lat="43.1529479" lon="10.8842646"><ele>614.0</ele><time>2026-05-03T13:43:05.566Z</time></trkpt><trkpt lat="43.1530611" lon="10.8843837"><ele>611.25</ele><time>2026-05-03T13:43:06.567Z</time></trkpt><trkpt lat="43.1531451" lon="10.8845323"><ele>608.5</ele><time>2026-05-03T13:43:07.567Z</time></trkpt><trkpt lat="43.1532239" lon="10.8846643"><ele>605.75</ele><time>2026-05-03T13:43:08.565Z</time></trkpt><trkpt lat="43.153293" lon="10.8847641"><ele>603.0</ele><time>2026-05-03T13:43:09.566Z</time></trkpt><trkpt lat="43.1533772" lon="10.8848135"><ele>603.0</ele><time>2026-05-03T13:43:10.567Z</time></trkpt><trkpt lat="43.1534607" lon="10.8847925"><ele>603.0</ele><time>2026-05-03T13:43:11.567Z</time></trkpt><trkpt lat="43.1535165" lon="10.8847229"><ele>603.0</ele><time>2026-05-03T13:43:12.566Z</time></trkpt><trkpt lat="43.153562" lon="10.8846152"><ele>603.0</ele><time>2026-05-03T13:43:13.567Z</time></trkpt><trkpt lat="43.1535948" lon="10.8844911"><ele>603.0</ele><time>2026-05-03T13:43:14.567Z</time></trkpt><trkpt lat="43.1536162" lon="10.8842738"><ele>605.3333333333334</ele><time>2026-05-03T13:43:15.566Z</time></trkpt><trkpt lat="43.1536569" lon="10.8840689"><ele>607.6666666666667</ele><time>2026-05-03T13:43:16.566Z</time></trkpt><trkpt lat="43.1536981" lon="10.8838441"><ele>610.0</ele><time>2026-05-03T13:43:17.566Z</time></trkpt><trkpt lat="43.1537484" lon="10.8836217"><ele>612.25</ele><time>2026-05-03T13:43:18.566Z</time></trkpt><trkpt lat="43.1537977" lon="10.883413"><ele>614.5</ele><time>2026-05-03T13:43:19.567Z</time></trkpt><trkpt lat="43.1538594" lon="10.8832297"><ele>616.75</ele><time>2026-05-03T13:43:20.565Z</time></trkpt><trkpt lat="43.153916" lon="10.8830509"><ele>619.0</ele><time>2026-05-03T13:43:21.567Z</time></trkpt><trkpt lat="43.1539707" lon="10.882904"><ele>619.0</ele><time>2026-05-03T13:43:22.567Z</time></trkpt><trkpt lat="43.1539725" lon="10.8827552"><ele>619.0</ele><time>2026-05-03T13:43:23.566Z</time></trkpt><trkpt lat="43.1539781" lon="10.8826258"><ele>619.0</ele><time>2026-05-03T13:43:24.566Z</time></trkpt><trkpt lat="43.1539308" lon="10.8824983"><ele>619.0</ele><time>2026-05-03T13:43:25.567Z</time></trkpt><trkpt lat="43.1539091" lon="10.8823534"><ele>619.0</ele><time>2026-05-03T13:43:26.567Z</time></trkpt><trkpt lat="43.1539051" lon="10.8822157"><ele>619.6666666666667</ele><time>2026-05-03T13:43:27.567Z</time></trkpt><trkpt lat="43.1539433" lon="10.8821022"><ele>620.3333333333334</ele><time>2026-05-03T13:43:28.566Z</time></trkpt><trkpt lat="43.1539994" lon="10.88202"><ele>621.0</ele><time>2026-05-03T13:43:29.567Z</time></trkpt><trkpt lat="43.1540778" lon="10.8820014"><ele>621.6666666666666</ele><time>2026-05-03T13:43:30.567Z</time></trkpt><trkpt lat="43.1541683" lon="10.8820453"><ele>622.3333333333333</ele><time>2026-05-03T13:43:31.566Z</time></trkpt><trkpt lat="43.1542563" lon="10.882083"><ele>623.0</ele><time>2026-05-03T13:43:32.567Z</time></trkpt><trkpt lat="43.1543545" lon="10.8820863"><ele>621.25</ele><time>2026-05-03T13:43:33.566Z</time></trkpt><trkpt lat="43.1544487" lon="10.8820542"><ele>619.5</ele><time>2026-05-03T13:43:34.567Z</time></trkpt><trkpt lat="43.1545379" lon="10.8819648"><ele>617.75</ele><time>2026-05-03T13:43:35.567Z</time></trkpt><trkpt lat="43.1546357" lon="10.8818455"><ele>616.0</ele><time>2026-05-03T13:43:36.567Z</time></trkpt><trkpt lat="43.1547381" lon="10.8816983"><ele>616.0</ele><time>2026-05-03T13:43:37.567Z</time></trkpt><trkpt lat="43.1548547" lon="10.8815423"><ele>616.0</ele><time>2026-05-03T13:43:38.567Z</time></trkpt><trkpt lat="43.1549772" lon="10.8813532"><ele>616.0</ele><time>2026-05-03T13:43:39.566Z</time></trkpt><trkpt lat="43.1551071" lon="10.881175"><ele>616.6666666666667</ele><time>2026-05-03T13:43:40.566Z</time></trkpt><trkpt lat="43.1552454" lon="10.8810112"><ele>617.3333333333334</ele><time>2026-05-03T13:43:41.566Z</time></trkpt><trkpt lat="43.155373" lon="10.8808368"><ele>618.0</ele><time>2026-05-03T13:43:42.566Z</time></trkpt><trkpt lat="43.1554865" lon="10.8806768"><ele>618.0</ele><time>2026-05-03T13:43:43.566Z</time></trkpt><trkpt lat="43.1555918" lon="10.8805322"><ele>618.0</ele><time>2026-05-03T13:43:44.567Z</time></trkpt><trkpt lat="43.1556909" lon="10.8804162"><ele>618.0</ele><time>2026-05-03T13:43:45.565Z</time></trkpt><trkpt lat="43.1557996" lon="10.8803485"><ele>618.0</ele><time>2026-05-03T13:43:46.565Z</time></trkpt><trkpt lat="43.1559106" lon="10.8803317"><ele>616.6</ele><time>2026-05-03T13:43:47.566Z</time></trkpt><trkpt lat="43.1560042" lon="10.8803156"><ele>615.1999999999999</ele><time>2026-05-03T13:43:48.566Z</time></trkpt><trkpt lat="43.1560732" lon="10.8802218"><ele>613.8</ele><time>2026-05-03T13:43:49.567Z</time></trkpt><trkpt lat="43.1561161" lon="10.8800862"><ele>612.4</ele><time>2026-05-03T13:43:50.567Z</time></trkpt><trkpt lat="43.1561243" lon="10.8799217"><ele>611.0</ele><time>2026-05-03T13:43:51.567Z</time></trkpt><trkpt lat="43.1561184" lon="10.8797616"><ele>611.0</ele><time>2026-05-03T13:43:52.565Z</time></trkpt><trkpt lat="43.1561234" lon="10.879576"><ele>611.0</ele><time>2026-05-03T13:43:53.567Z</time></trkpt><trkpt lat="43.1561433" lon="10.879402"><ele>611.0</ele><time>2026-05-03T13:43:54.566Z</time></trkpt><trkpt lat="43.1561716" lon="10.8792641"><ele>611.0</ele><time>2026-05-03T13:43:55.567Z</time></trkpt><trkpt lat="43.1562124" lon="10.8791632"><ele>611.0</ele><time>2026-05-03T13:43:56.567Z</time></trkpt><trkpt lat="43.1562563" lon="10.879077"><ele>611.0</ele><time>2026-05-03T13:43:57.566Z</time></trkpt><trkpt lat="43.1563575" lon="10.8791458"><ele>611.0</ele><time>2026-05-03T13:43:59.567Z</time></trkpt><trkpt lat="43.1563908" lon="10.8792245"><ele>611.0</ele><time>2026-05-03T13:44:00.567Z</time></trkpt><trkpt lat="43.1564376" lon="10.879333"><ele>611.0</ele><time>2026-05-03T13:44:01.567Z</time></trkpt><trkpt lat="43.1565075" lon="10.8794281"><ele>611.0</ele><time>2026-05-03T13:44:02.567Z</time></trkpt><trkpt lat="43.1566027" lon="10.8794774"><ele>610.0</ele><time>2026-05-03T13:44:03.567Z</time></trkpt><trkpt lat="43.1567124" lon="10.8794884"><ele>609.0</ele><time>2026-05-03T13:44:04.566Z</time></trkpt><trkpt lat="43.1568212" lon="10.8794581"><ele>608.0</ele><time>2026-05-03T13:44:05.567Z</time></trkpt><trkpt lat="43.1569371" lon="10.8793818"><ele>607.0</ele><time>2026-05-03T13:44:06.568Z</time></trkpt><trkpt lat="43.1570534" lon="10.8792668"><ele>607.0</ele><time>2026-05-03T13:44:07.567Z</time></trkpt><trkpt lat="43.1571833" lon="10.8791138"><ele>607.0</ele><time>2026-05-03T13:44:08.567Z</time></trkpt><trkpt lat="43.1573278" lon="10.8789577"><ele>607.0</ele><time>2026-05-03T13:44:09.567Z</time></trkpt><trkpt lat="43.1574835" lon="10.8788125"><ele>600.5</ele><time>2026-05-03T13:44:10.567Z</time></trkpt><trkpt lat="43.1577857" lon="10.8785865"><ele>594.0</ele><time>2026-05-03T13:44:12.567Z</time></trkpt><trkpt lat="43.1579362" lon="10.8785154"><ele>594.0</ele><time>2026-05-03T13:44:13.566Z</time></trkpt><trkpt lat="43.1580815" lon="10.8784633"><ele>594.0</ele><time>2026-05-03T13:44:14.567Z</time></trkpt><trkpt lat="43.1583767" lon="10.8784213"><ele>594.0</ele><time>2026-05-03T13:44:16.567Z</time></trkpt><trkpt lat="43.1585567" lon="10.8784168"><ele>593.3333333333334</ele><time>2026-05-03T13:44:17.568Z</time></trkpt><trkpt lat="43.1587499" lon="10.8784215"><ele>592.6666666666667</ele><time>2026-05-03T13:44:18.566Z</time></trkpt><trkpt lat="43.1589604" lon="10.8784385"><ele>592.0</ele><time>2026-05-03T13:44:19.566Z</time></trkpt><trkpt lat="43.1591904" lon="10.8784502"><ele>584.5</ele><time>2026-05-03T13:44:20.565Z</time></trkpt><trkpt lat="43.1594335" lon="10.8784749"><ele>577.0</ele><time>2026-05-03T13:44:21.567Z</time></trkpt><trkpt lat="43.1596736" lon="10.8784825"><ele>575.0</ele><time>2026-05-03T13:44:22.566Z</time></trkpt><trkpt lat="43.1599015" lon="10.8785005"><ele>573.0</ele><time>2026-05-03T13:44:23.566Z</time></trkpt><trkpt lat="43.1601174" lon="10.8785175"><ele>571.0</ele><time>2026-05-03T13:44:24.566Z</time></trkpt><trkpt lat="43.1603229" lon="10.878536"><ele>571.0</ele><time>2026-05-03T13:44:25.568Z</time></trkpt><trkpt lat="43.1605191" lon="10.878548"><ele>571.0</ele><time>2026-05-03T13:44:26.567Z</time></trkpt><trkpt lat="43.1607174" lon="10.8785656"><ele>571.0</ele><time>2026-05-03T13:44:27.566Z</time></trkpt><trkpt lat="43.1609069" lon="10.8785877"><ele>571.0</ele><time>2026-05-03T13:44:28.567Z</time></trkpt><trkpt lat="43.161092" lon="10.8786222"><ele>571.0</ele><time>2026-05-03T13:44:29.565Z</time></trkpt><trkpt lat="43.1612727" lon="10.878665"><ele>571.0</ele><time>2026-05-03T13:44:30.566Z</time></trkpt><trkpt lat="43.161449" lon="10.8787338"><ele>568.3333333333334</ele><time>2026-05-03T13:44:31.566Z</time></trkpt><trkpt lat="43.1616212" lon="10.8788287"><ele>565.6666666666666</ele><time>2026-05-03T13:44:32.567Z</time></trkpt><trkpt lat="43.1617965" lon="10.878963"><ele>563.0</ele><time>2026-05-03T13:44:33.566Z</time></trkpt><trkpt lat="43.161978" lon="10.8791281"><ele>557.5</ele><time>2026-05-03T13:44:34.568Z</time></trkpt><trkpt lat="43.1621658" lon="10.8793257"><ele>552.0</ele><time>2026-05-03T13:44:35.566Z</time></trkpt><trkpt lat="43.1623581" lon="10.8795505"><ele>551.5</ele><time>2026-05-03T13:44:36.567Z</time></trkpt><trkpt lat="43.1625403" lon="10.8797684"><ele>551.0</ele><time>2026-05-03T13:44:37.568Z</time></trkpt><trkpt lat="43.1627124" lon="10.8799796"><ele>549.0</ele><time>2026-05-03T13:44:38.567Z</time></trkpt><trkpt lat="43.1628691" lon="10.880186"><ele>547.0</ele><time>2026-05-03T13:44:39.566Z</time></trkpt><trkpt lat="43.1630112" lon="10.8804017"><ele>545.0</ele><time>2026-05-03T13:44:40.566Z</time></trkpt><trkpt lat="43.1631439" lon="10.8806316"><ele>547.0</ele><time>2026-05-03T13:44:41.565Z</time></trkpt><trkpt lat="43.1632676" lon="10.8808765"><ele>549.0</ele><time>2026-05-03T13:44:42.568Z</time></trkpt><trkpt lat="43.1633915" lon="10.8811529"><ele>549.0</ele><time>2026-05-03T13:44:43.567Z</time></trkpt><trkpt lat="43.1635211" lon="10.8814479"><ele>549.0</ele><time>2026-05-03T13:44:44.566Z</time></trkpt><trkpt lat="43.1636482" lon="10.881761"><ele>545.0</ele><time>2026-05-03T13:44:45.565Z</time></trkpt><trkpt lat="43.1637806" lon="10.8820727"><ele>541.0</ele><time>2026-05-03T13:44:46.567Z</time></trkpt><trkpt lat="43.1639034" lon="10.8823697"><ele>541.5</ele><time>2026-05-03T13:44:47.567Z</time></trkpt><trkpt lat="43.1640227" lon="10.8826597"><ele>542.0</ele><time>2026-05-03T13:44:48.566Z</time></trkpt><trkpt lat="43.1641392" lon="10.8829345"><ele>542.0</ele><time>2026-05-03T13:44:49.567Z</time></trkpt><trkpt lat="43.164255" lon="10.8831983"><ele>542.0</ele><time>2026-05-03T13:44:50.567Z</time></trkpt><trkpt lat="43.1643773" lon="10.8834596"><ele>541.5</ele><time>2026-05-03T13:44:51.565Z</time></trkpt><trkpt lat="43.164516" lon="10.8837142"><ele>541.0</ele><time>2026-05-03T13:44:52.565Z</time></trkpt><trkpt lat="43.1646582" lon="10.883966"><ele>541.0</ele><time>2026-05-03T13:44:53.567Z</time></trkpt><trkpt lat="43.1648083" lon="10.8842213"><ele>541.0</ele><time>2026-05-03T13:44:54.566Z</time></trkpt><trkpt lat="43.164957" lon="10.8844787"><ele>541.0</ele><time>2026-05-03T13:44:55.567Z</time></trkpt><trkpt lat="43.1651088" lon="10.8847309"><ele>541.0</ele><time>2026-05-03T13:44:56.567Z</time></trkpt><trkpt lat="43.1652646" lon="10.8849884"><ele>540.0</ele><time>2026-05-03T13:44:57.565Z</time></trkpt><trkpt lat="43.1654176" lon="10.8852448"><ele>539.0</ele><time>2026-05-03T13:44:58.567Z</time></trkpt><trkpt lat="43.1655719" lon="10.8855056"><ele>537.0</ele><time>2026-05-03T13:44:59.567Z</time></trkpt><trkpt lat="43.1657293" lon="10.8857646"><ele>535.0</ele><time>2026-05-03T13:45:00.567Z</time></trkpt><trkpt lat="43.1658869" lon="10.8860236"><ele>533.0</ele><time>2026-05-03T13:45:01.566Z</time></trkpt><trkpt lat="43.1660448" lon="10.8862769"><ele>531.0</ele><time>2026-05-03T13:45:02.566Z</time></trkpt><trkpt lat="43.1662092" lon="10.8865214"><ele>531.0</ele><time>2026-05-03T13:45:03.568Z</time></trkpt><trkpt lat="43.1663794" lon="10.886748"><ele>531.0</ele><time>2026-05-03T13:45:04.568Z</time></trkpt><trkpt lat="43.1665647" lon="10.8869574"><ele>535.0</ele><time>2026-05-03T13:45:05.566Z</time></trkpt><trkpt lat="43.1667574" lon="10.8871506"><ele>539.0</ele><time>2026-05-03T13:45:06.566Z</time></trkpt><trkpt lat="43.1669545" lon="10.8873392"><ele>539.0</ele><time>2026-05-03T13:45:07.567Z</time></trkpt><trkpt lat="43.1671561" lon="10.8875243"><ele>539.0</ele><time>2026-05-03T13:45:08.566Z</time></trkpt><trkpt lat="43.167361" lon="10.8877171"><ele>542.5</ele><time>2026-05-03T13:45:09.567Z</time></trkpt><trkpt lat="43.1675632" lon="10.8879081"><ele>546.0</ele><time>2026-05-03T13:45:10.566Z</time></trkpt><trkpt lat="43.1677689" lon="10.8880987"><ele>546.0</ele><time>2026-05-03T13:45:11.566Z</time></trkpt><trkpt lat="43.1679767" lon="10.8882879"><ele>546.0</ele><time>2026-05-03T13:45:12.565Z</time></trkpt><trkpt lat="43.168181" lon="10.8884826"><ele>548.5</ele><time>2026-05-03T13:45:13.568Z</time></trkpt><trkpt lat="43.1683878" lon="10.8886751"><ele>551.0</ele><time>2026-05-03T13:45:14.566Z</time></trkpt><trkpt lat="43.168594" lon="10.8888669"><ele>551.0</ele><time>2026-05-03T13:45:15.567Z</time></trkpt><trkpt lat="43.168801" lon="10.8890575"><ele>551.0</ele><time>2026-05-03T13:45:16.567Z</time></trkpt><trkpt lat="43.1690093" lon="10.889253"><ele>554.5</ele><time>2026-05-03T13:45:17.565Z</time></trkpt><trkpt lat="43.1692157" lon="10.8894463"><ele>558.0</ele><time>2026-05-03T13:45:18.567Z</time></trkpt><trkpt lat="43.1694249" lon="10.8896396"><ele>558.0</ele><time>2026-05-03T13:45:19.566Z</time></trkpt><trkpt lat="43.1696343" lon="10.8898357"><ele>558.0</ele><time>2026-05-03T13:45:20.566Z</time></trkpt><trkpt lat="43.1698454" lon="10.8900304"><ele>560.5</ele><time>2026-05-03T13:45:21.566Z</time></trkpt><trkpt lat="43.1700525" lon="10.8902273"><ele>563.0</ele><time>2026-05-03T13:45:22.567Z</time></trkpt><trkpt lat="43.1702593" lon="10.8904261"><ele>563.0</ele><time>2026-05-03T13:45:23.567Z</time></trkpt><trkpt lat="43.1704596" lon="10.8906297"><ele>563.0</ele><time>2026-05-03T13:45:24.566Z</time></trkpt><trkpt lat="43.1706406" lon="10.8908534"><ele>568.0</ele><time>2026-05-03T13:45:25.567Z</time></trkpt><trkpt lat="43.1708164" lon="10.8910878"><ele>573.0</ele><time>2026-05-03T13:45:26.568Z</time></trkpt><trkpt lat="43.1709786" lon="10.8913382"><ele>573.0</ele><time>2026-05-03T13:45:27.566Z</time></trkpt><trkpt lat="43.171126" lon="10.8916002"><ele>573.0</ele><time>2026-05-03T13:45:28.567Z</time></trkpt><trkpt lat="43.1712676" lon="10.8918672"><ele>570.5</ele><time>2026-05-03T13:45:29.567Z</time></trkpt><trkpt lat="43.1714088" lon="10.892133"><ele>568.0</ele><time>2026-05-03T13:45:30.567Z</time></trkpt><trkpt lat="43.1715468" lon="10.8923962"><ele>574.5</ele><time>2026-05-03T13:45:31.566Z</time></trkpt><trkpt lat="43.1716827" lon="10.8926585"><ele>581.0</ele><time>2026-05-03T13:45:32.567Z</time></trkpt><trkpt lat="43.1718148" lon="10.8929264"><ele>581.0</ele><time>2026-05-03T13:45:33.567Z</time></trkpt><trkpt lat="43.1719437" lon="10.8931976"><ele>581.0</ele><time>2026-05-03T13:45:34.567Z</time></trkpt><trkpt lat="43.1720765" lon="10.8934638"><ele>579.0</ele><time>2026-05-03T13:45:35.566Z</time></trkpt><trkpt lat="43.1722169" lon="10.8937271"><ele>577.0</ele><time>2026-05-03T13:45:36.567Z</time></trkpt><trkpt lat="43.1723594" lon="10.8939869"><ele>583.5</ele><time>2026-05-03T13:45:37.566Z</time></trkpt><trkpt lat="43.172507" lon="10.8942481"><ele>590.0</ele><time>2026-05-03T13:45:38.566Z</time></trkpt><trkpt lat="43.1726538" lon="10.8945032"><ele>590.0</ele><time>2026-05-03T13:45:39.567Z</time></trkpt><trkpt lat="43.1727931" lon="10.894746"><ele>590.0</ele><time>2026-05-03T13:45:40.565Z</time></trkpt><trkpt lat="43.1729193" lon="10.894998"><ele>590.0</ele><time>2026-05-03T13:45:41.566Z</time></trkpt><trkpt lat="43.1730277" lon="10.8952586"><ele>590.3333333333333</ele><time>2026-05-03T13:45:42.567Z</time></trkpt><trkpt lat="43.1731042" lon="10.895522"><ele>590.6666666666666</ele><time>2026-05-03T13:45:43.566Z</time></trkpt><trkpt lat="43.173154" lon="10.8957936"><ele>591.0</ele><time>2026-05-03T13:45:44.566Z</time></trkpt><trkpt lat="43.1731621" lon="10.8960693"><ele>592.0</ele><time>2026-05-03T13:45:45.566Z</time></trkpt><trkpt lat="43.1731354" lon="10.896348"><ele>593.0</ele><time>2026-05-03T13:45:46.566Z</time></trkpt><trkpt lat="43.1730699" lon="10.8966292"><ele>594.0</ele><time>2026-05-03T13:45:47.567Z</time></trkpt><trkpt lat="43.1729987" lon="10.8969128"><ele>597.3333333333334</ele><time>2026-05-03T13:45:48.567Z</time></trkpt><trkpt lat="43.1729279" lon="10.8971978"><ele>600.6666666666667</ele><time>2026-05-03T13:45:49.566Z</time></trkpt><trkpt lat="43.1728549" lon="10.8974558"><ele>604.0</ele><time>2026-05-03T13:45:50.566Z</time></trkpt><trkpt lat="43.172786" lon="10.8976937"><ele>606.6666666666667</ele><time>2026-05-03T13:45:51.567Z</time></trkpt><trkpt lat="43.1727245" lon="10.8979064"><ele>609.3333333333334</ele><time>2026-05-03T13:45:52.566Z</time></trkpt><trkpt lat="43.172667" lon="10.8981045"><ele>612.0</ele><time>2026-05-03T13:45:53.567Z</time></trkpt><trkpt lat="43.1726322" lon="10.8982817"><ele>613.5</ele><time>2026-05-03T13:45:54.567Z</time></trkpt><trkpt lat="43.1726298" lon="10.8984569"><ele>615.0</ele><time>2026-05-03T13:45:55.567Z</time></trkpt><trkpt lat="43.1726575" lon="10.898639"><ele>616.5</ele><time>2026-05-03T13:45:56.567Z</time></trkpt><trkpt lat="43.1726889" lon="10.8988207"><ele>618.0</ele><time>2026-05-03T13:45:57.566Z</time></trkpt><trkpt lat="43.1726864" lon="10.8990127"><ele>618.0</ele><time>2026-05-03T13:45:58.567Z</time></trkpt><trkpt lat="43.1726389" lon="10.8991858"><ele>618.0</ele><time>2026-05-03T13:45:59.566Z</time></trkpt><trkpt lat="43.172561" lon="10.899348"><ele>618.0</ele><time>2026-05-03T13:46:00.567Z</time></trkpt><trkpt lat="43.1724581" lon="10.8995181"><ele>618.0</ele><time>2026-05-03T13:46:01.567Z</time></trkpt><trkpt lat="43.1723756" lon="10.8996762"><ele>618.5</ele><time>2026-05-03T13:46:02.567Z</time></trkpt><trkpt lat="43.1723028" lon="10.8998321"><ele>619.0</ele><time>2026-05-03T13:46:03.566Z</time></trkpt><trkpt lat="43.1722409" lon="10.90001"><ele>619.5</ele><time>2026-05-03T13:46:04.565Z</time></trkpt><trkpt lat="43.1721973" lon="10.9002054"><ele>620.0</ele><time>2026-05-03T13:46:05.567Z</time></trkpt><trkpt lat="43.1721799" lon="10.9004196"><ele>620.0</ele><time>2026-05-03T13:46:06.565Z</time></trkpt><trkpt lat="43.1721818" lon="10.9006571"><ele>620.0</ele><time>2026-05-03T13:46:07.566Z</time></trkpt><trkpt lat="43.1722057" lon="10.9009107"><ele>620.0</ele><time>2026-05-03T13:46:08.566Z</time></trkpt><trkpt lat="43.1722496" lon="10.9011837"><ele>619.0</ele><time>2026-05-03T13:46:09.567Z</time></trkpt><trkpt lat="43.1723012" lon="10.9014686"><ele>618.0</ele><time>2026-05-03T13:46:10.567Z</time></trkpt><trkpt lat="43.17235" lon="10.9017687"><ele>617.0</ele><time>2026-05-03T13:46:11.567Z</time></trkpt><trkpt lat="43.1723955" lon="10.9020685"><ele>624.3333333333333</ele><time>2026-05-03T13:46:12.567Z</time></trkpt><trkpt lat="43.1724406" lon="10.9023695"><ele>631.6666666666666</ele><time>2026-05-03T13:46:13.566Z</time></trkpt><trkpt lat="43.1724913" lon="10.9026658"><ele>639.0</ele><time>2026-05-03T13:46:14.566Z</time></trkpt><trkpt lat="43.1725428" lon="10.9029321"><ele>641.0</ele><time>2026-05-03T13:46:15.566Z</time></trkpt><trkpt lat="43.1726091" lon="10.9031937"><ele>643.0</ele><time>2026-05-03T13:46:16.565Z</time></trkpt><trkpt lat="43.1726946" lon="10.9034457"><ele>645.0</ele><time>2026-05-03T13:46:17.566Z</time></trkpt><trkpt lat="43.172804" lon="10.9036975"><ele>647.0</ele><time>2026-05-03T13:46:18.566Z</time></trkpt><trkpt lat="43.1729377" lon="10.9039331"><ele>649.0</ele><time>2026-05-03T13:46:19.566Z</time></trkpt><trkpt lat="43.1730947" lon="10.9041674"><ele>653.0</ele><time>2026-05-03T13:46:20.566Z</time></trkpt><trkpt lat="43.1732664" lon="10.9044046"><ele>657.0</ele><time>2026-05-03T13:46:21.567Z</time></trkpt><trkpt lat="43.1734538" lon="10.9046431"><ele>657.0</ele><time>2026-05-03T13:46:22.566Z</time></trkpt><trkpt lat="43.173628" lon="10.9048756"><ele>657.0</ele><time>2026-05-03T13:46:23.565Z</time></trkpt><trkpt lat="43.1737957" lon="10.9050906"><ele>653.3333333333334</ele><time>2026-05-03T13:46:24.566Z</time></trkpt><trkpt lat="43.1739521" lon="10.9052964"><ele>649.6666666666667</ele><time>2026-05-03T13:46:25.566Z</time></trkpt><trkpt lat="43.1740889" lon="10.9054963"><ele>646.0</ele><time>2026-05-03T13:46:26.565Z</time></trkpt><trkpt lat="43.1742058" lon="10.9057113"><ele>653.3333333333334</ele><time>2026-05-03T13:46:27.566Z</time></trkpt><trkpt lat="43.1743047" lon="10.9059551"><ele>660.6666666666666</ele><time>2026-05-03T13:46:28.566Z</time></trkpt><trkpt lat="43.1744002" lon="10.9062321"><ele>668.0</ele><time>2026-05-03T13:46:29.567Z</time></trkpt><trkpt lat="43.1744922" lon="10.9065222"><ele>665.6666666666666</ele><time>2026-05-03T13:46:30.568Z</time></trkpt><trkpt lat="43.1745697" lon="10.9067911"><ele>663.3333333333334</ele><time>2026-05-03T13:46:31.568Z</time></trkpt><trkpt lat="43.1746273" lon="10.9070312"><ele>661.0</ele><time>2026-05-03T13:46:32.566Z</time></trkpt><trkpt lat="43.1746712" lon="10.9072607"><ele>661.0</ele><time>2026-05-03T13:46:33.567Z</time></trkpt><trkpt lat="43.1746769" lon="10.9074729"><ele>661.0</ele><time>2026-05-03T13:46:34.567Z</time></trkpt><trkpt lat="43.1746573" lon="10.9076912"><ele>661.0</ele><time>2026-05-03T13:46:35.567Z</time></trkpt><trkpt lat="43.174621" lon="10.9079107"><ele>663.0</ele><time>2026-05-03T13:46:36.567Z</time></trkpt><trkpt lat="43.1746052" lon="10.9081321"><ele>665.0</ele><time>2026-05-03T13:46:37.567Z</time></trkpt><trkpt lat="43.1746227" lon="10.908364"><ele>667.0</ele><time>2026-05-03T13:46:38.567Z</time></trkpt><trkpt lat="43.1746645" lon="10.9085997"><ele>667.0</ele><time>2026-05-03T13:46:39.566Z</time></trkpt><trkpt lat="43.1747183" lon="10.9088487"><ele>667.0</ele><time>2026-05-03T13:46:40.566Z</time></trkpt><trkpt lat="43.1747978" lon="10.9090949"><ele>667.0</ele><time>2026-05-03T13:46:41.566Z</time></trkpt><trkpt lat="43.174885" lon="10.9093362"><ele>667.3333333333334</ele><time>2026-05-03T13:46:42.566Z</time></trkpt><trkpt lat="43.1750238" lon="10.909532"><ele>667.6666666666666</ele><time>2026-05-03T13:46:43.566Z</time></trkpt><trkpt lat="43.1751658" lon="10.9097252"><ele>668.0</ele><time>2026-05-03T13:46:44.565Z</time></trkpt><trkpt lat="43.1753289" lon="10.9098982"><ele>668.0</ele><time>2026-05-03T13:46:45.566Z</time></trkpt><trkpt lat="43.1755081" lon="10.9100419"><ele>668.0</ele><time>2026-05-03T13:46:46.567Z</time></trkpt><trkpt lat="43.1757019" lon="10.9101558"><ele>668.0</ele><time>2026-05-03T13:46:47.567Z</time></trkpt><trkpt lat="43.1759008" lon="10.9102381"><ele>665.5</ele><time>2026-05-03T13:46:48.566Z</time></trkpt><trkpt lat="43.1761244" lon="10.9103031"><ele>663.0</ele><time>2026-05-03T13:46:49.566Z</time></trkpt><trkpt lat="43.1763645" lon="10.9103643"><ele>666.5</ele><time>2026-05-03T13:46:50.566Z</time></trkpt><trkpt lat="43.176605" lon="10.9104165"><ele>670.0</ele><time>2026-05-03T13:46:51.566Z</time></trkpt><trkpt lat="43.1768583" lon="10.9104747"><ele>670.0</ele><time>2026-05-03T13:46:52.568Z</time></trkpt><trkpt lat="43.1771145" lon="10.9105323"><ele>670.0</ele><time>2026-05-03T13:46:53.566Z</time></trkpt><trkpt lat="43.1773583" lon="10.9105896"><ele>672.5</ele><time>2026-05-03T13:46:54.567Z</time></trkpt><trkpt lat="43.1775887" lon="10.9106489"><ele>675.0</ele><time>2026-05-03T13:46:55.567Z</time></trkpt><trkpt lat="43.1778057" lon="10.9107066"><ele>675.0</ele><time>2026-05-03T13:46:56.566Z</time></trkpt><trkpt lat="43.1780165" lon="10.9107584"><ele>675.0</ele><time>2026-05-03T13:46:57.568Z</time></trkpt><trkpt lat="43.1782162" lon="10.9107981"><ele>675.0</ele><time>2026-05-03T13:46:58.567Z</time></trkpt><trkpt lat="43.1784144" lon="10.9108072"><ele>675.0</ele><time>2026-05-03T13:46:59.566Z</time></trkpt><trkpt lat="43.178612" lon="10.9107836"><ele>675.0</ele><time>2026-05-03T13:47:00.567Z</time></trkpt><trkpt lat="43.1788068" lon="10.9107173"><ele>675.0</ele><time>2026-05-03T13:47:01.567Z</time></trkpt><trkpt lat="43.1789955" lon="10.9106154"><ele>675.0</ele><time>2026-05-03T13:47:02.568Z</time></trkpt><trkpt lat="43.179177" lon="10.9104834"><ele>675.0</ele><time>2026-05-03T13:47:03.567Z</time></trkpt><trkpt lat="43.1793586" lon="10.9103194"><ele>675.0</ele><time>2026-05-03T13:47:04.567Z</time></trkpt><trkpt lat="43.1795291" lon="10.9101586"><ele>673.0</ele><time>2026-05-03T13:47:05.567Z</time></trkpt><trkpt lat="43.179678" lon="10.9100046"><ele>671.0</ele><time>2026-05-03T13:47:06.566Z</time></trkpt><trkpt lat="43.1798052" lon="10.9098346"><ele>669.0</ele><time>2026-05-03T13:47:07.566Z</time></trkpt><trkpt lat="43.1799044" lon="10.9096466"><ele>669.0</ele><time>2026-05-03T13:47:08.567Z</time></trkpt><trkpt lat="43.1799646" lon="10.9094215"><ele>669.0</ele><time>2026-05-03T13:47:09.568Z</time></trkpt><trkpt lat="43.1799939" lon="10.909183"><ele>669.0</ele><time>2026-05-03T13:47:10.568Z</time></trkpt><trkpt lat="43.1799913" lon="10.9089584"><ele>670.5</ele><time>2026-05-03T13:47:11.567Z</time></trkpt><trkpt lat="43.1799565" lon="10.9087409"><ele>672.0</ele><time>2026-05-03T13:47:12.567Z</time></trkpt><trkpt lat="43.1799251" lon="10.9085473"><ele>673.5</ele><time>2026-05-03T13:47:13.566Z</time></trkpt><trkpt lat="43.1799157" lon="10.9083534"><ele>675.0</ele><time>2026-05-03T13:47:14.568Z</time></trkpt><trkpt lat="43.1799394" lon="10.9081606"><ele>675.0</ele><time>2026-05-03T13:47:15.566Z</time></trkpt><trkpt lat="43.1799881" lon="10.907974"><ele>675.0</ele><time>2026-05-03T13:47:16.568Z</time></trkpt><trkpt lat="43.1800798" lon="10.9078178"><ele>675.0</ele><time>2026-05-03T13:47:17.566Z</time></trkpt><trkpt lat="43.1802069" lon="10.9076913"><ele>675.0</ele><time>2026-05-03T13:47:18.565Z</time></trkpt><trkpt lat="43.1803649" lon="10.9075949"><ele>676.0</ele><time>2026-05-03T13:47:19.566Z</time></trkpt><trkpt lat="43.1805614" lon="10.9075408"><ele>677.0</ele><time>2026-05-03T13:47:20.567Z</time></trkpt><trkpt lat="43.1807724" lon="10.9074984"><ele>678.0</ele><time>2026-05-03T13:47:21.565Z</time></trkpt><trkpt lat="43.1810067" lon="10.9074576"><ele>678.0</ele><time>2026-05-03T13:47:22.566Z</time></trkpt><trkpt lat="43.1812588" lon="10.9074089"><ele>678.0</ele><time>2026-05-03T13:47:23.566Z</time></trkpt><trkpt lat="43.1815083" lon="10.9073619"><ele>675.0</ele><time>2026-05-03T13:47:24.566Z</time></trkpt><trkpt lat="43.1817512" lon="10.9073187"><ele>672.0</ele><time>2026-05-03T13:47:25.567Z</time></trkpt><trkpt lat="43.1819832" lon="10.9072896"><ele>672.0</ele><time>2026-05-03T13:47:26.567Z</time></trkpt><trkpt lat="43.182201" lon="10.9072563"><ele>672.0</ele><time>2026-05-03T13:47:27.566Z</time></trkpt><trkpt lat="43.1824196" lon="10.9072582"><ele>672.0</ele><time>2026-05-03T13:47:28.565Z</time></trkpt><trkpt lat="43.1826488" lon="10.9073031"><ele>667.0</ele><time>2026-05-03T13:47:29.568Z</time></trkpt><trkpt lat="43.1828878" lon="10.9073912"><ele>662.0</ele><time>2026-05-03T13:47:30.567Z</time></trkpt><trkpt lat="43.1831187" lon="10.9074986"><ele>660.5</ele><time>2026-05-03T13:47:31.566Z</time></trkpt><trkpt lat="43.1833424" lon="10.9075897"><ele>659.0</ele><time>2026-05-03T13:47:32.567Z</time></trkpt><trkpt lat="43.1835565" lon="10.9076654"><ele>659.0</ele><time>2026-05-03T13:47:33.566Z</time></trkpt><trkpt lat="43.1837649" lon="10.9077165"><ele>659.0</ele><time>2026-05-03T13:47:34.567Z</time></trkpt><trkpt lat="43.1839805" lon="10.9077443"><ele>659.0</ele><time>2026-05-03T13:47:35.567Z</time></trkpt><trkpt lat="43.18421" lon="10.9077554"><ele>662.5</ele><time>2026-05-03T13:47:36.567Z</time></trkpt><trkpt lat="43.1844582" lon="10.9077536"><ele>666.0</ele><time>2026-05-03T13:47:37.567Z</time></trkpt><trkpt lat="43.184709" lon="10.9077464"><ele>659.5</ele><time>2026-05-03T13:47:38.567Z</time></trkpt><trkpt lat="43.1849576" lon="10.9077242"><ele>653.0</ele><time>2026-05-03T13:47:39.566Z</time></trkpt><trkpt lat="43.1851926" lon="10.9077291"><ele>653.0</ele><time>2026-05-03T13:47:40.567Z</time></trkpt><trkpt lat="43.1854135" lon="10.9077272"><ele>653.0</ele><time>2026-05-03T13:47:41.567Z</time></trkpt><trkpt lat="43.1856165" lon="10.9077215"><ele>653.0</ele><time>2026-05-03T13:47:42.566Z</time></trkpt><trkpt lat="43.1858102" lon="10.9077068"><ele>654.3333333333333</ele><time>2026-05-03T13:47:43.566Z</time></trkpt><trkpt lat="43.185976" lon="10.9076559"><ele>655.6666666666666</ele><time>2026-05-03T13:47:44.567Z</time></trkpt><trkpt lat="43.186134" lon="10.9075661"><ele>657.0</ele><time>2026-05-03T13:47:45.567Z</time></trkpt><trkpt lat="43.1862858" lon="10.9074475"><ele>657.0</ele><time>2026-05-03T13:47:46.566Z</time></trkpt><trkpt lat="43.186413" lon="10.907267"><ele>657.0</ele><time>2026-05-03T13:47:47.567Z</time></trkpt><trkpt lat="43.1865181" lon="10.9070633"><ele>657.0</ele><time>2026-05-03T13:47:48.565Z</time></trkpt><trkpt lat="43.1866123" lon="10.9068035"><ele>651.6666666666666</ele><time>2026-05-03T13:47:49.566Z</time></trkpt><trkpt lat="43.186695" lon="10.9065319"><ele>646.3333333333333</ele><time>2026-05-03T13:47:50.566Z</time></trkpt><trkpt lat="43.1867793" lon="10.9062758"><ele>641.0</ele><time>2026-05-03T13:47:51.567Z</time></trkpt><trkpt lat="43.1868478" lon="10.906045"><ele>641.3333333333333</ele><time>2026-05-03T13:47:52.565Z</time></trkpt><trkpt lat="43.1869231" lon="10.9058309"><ele>641.6666666666666</ele><time>2026-05-03T13:47:53.568Z</time></trkpt><trkpt lat="43.1869933" lon="10.9056412"><ele>642.0</ele><time>2026-05-03T13:47:54.567Z</time></trkpt><trkpt lat="43.1870893" lon="10.9055012"><ele>642.0</ele><time>2026-05-03T13:47:55.567Z</time></trkpt><trkpt lat="43.1872077" lon="10.9053874"><ele>642.0</ele><time>2026-05-03T13:47:56.566Z</time></trkpt><trkpt lat="43.1873373" lon="10.9053023"><ele>642.0</ele><time>2026-05-03T13:47:57.566Z</time></trkpt><trkpt lat="43.1874832" lon="10.9052998"><ele>642.0</ele><time>2026-05-03T13:47:58.567Z</time></trkpt><trkpt lat="43.1876491" lon="10.9053444"><ele>633.0</ele><time>2026-05-03T13:47:59.566Z</time></trkpt><trkpt lat="43.1878346" lon="10.905415"><ele>624.0</ele><time>2026-05-03T13:48:00.567Z</time></trkpt><trkpt lat="43.1880466" lon="10.9054961"><ele>615.0</ele><time>2026-05-03T13:48:01.565Z</time></trkpt><trkpt lat="43.1882776" lon="10.9055865"><ele>615.0</ele><time>2026-05-03T13:48:02.566Z</time></trkpt><trkpt lat="43.1885253" lon="10.905675"><ele>615.0</ele><time>2026-05-03T13:48:03.566Z</time></trkpt><trkpt lat="43.1887628" lon="10.9057556"><ele>615.0</ele><time>2026-05-03T13:48:04.566Z</time></trkpt><trkpt lat="43.1889946" lon="10.9058419"><ele>615.0</ele><time>2026-05-03T13:48:05.567Z</time></trkpt><trkpt lat="43.1892162" lon="10.9059318"><ele>609.0</ele><time>2026-05-03T13:48:06.565Z</time></trkpt><trkpt lat="43.1894292" lon="10.9060181"><ele>603.0</ele><time>2026-05-03T13:48:07.566Z</time></trkpt><trkpt lat="43.1896311" lon="10.9060974"><ele>597.0</ele><time>2026-05-03T13:48:08.566Z</time></trkpt><trkpt lat="43.1898257" lon="10.9061713"><ele>596.6666666666666</ele><time>2026-05-03T13:48:09.566Z</time></trkpt><trkpt lat="43.1900104" lon="10.9062432"><ele>596.3333333333333</ele><time>2026-05-03T13:48:10.566Z</time></trkpt><trkpt lat="43.190181" lon="10.9063357"><ele>596.0</ele><time>2026-05-03T13:48:11.567Z</time></trkpt><trkpt lat="43.1903359" lon="10.9064668"><ele>596.0</ele><time>2026-05-03T13:48:12.566Z</time></trkpt><trkpt lat="43.1904717" lon="10.9066433"><ele>596.0</ele><time>2026-05-03T13:48:13.566Z</time></trkpt><trkpt lat="43.1905964" lon="10.906858"><ele>596.0</ele><time>2026-05-03T13:48:14.567Z</time></trkpt><trkpt lat="43.1907237" lon="10.9070857"><ele>592.3333333333333</ele><time>2026-05-03T13:48:15.566Z</time></trkpt><trkpt lat="43.1908612" lon="10.9073159"><ele>588.6666666666666</ele><time>2026-05-03T13:48:16.566Z</time></trkpt><trkpt lat="43.191003" lon="10.9075398"><ele>585.0</ele><time>2026-05-03T13:48:17.565Z</time></trkpt><trkpt lat="43.1911961" lon="10.9077079"><ele>585.0</ele><time>2026-05-03T13:48:18.567Z</time></trkpt><trkpt lat="43.191371" lon="10.9078588"><ele>585.0</ele><time>2026-05-03T13:48:19.565Z</time></trkpt><trkpt lat="43.1915627" lon="10.9079798"><ele>585.0</ele><time>2026-05-03T13:48:20.565Z</time></trkpt><trkpt lat="43.1917626" lon="10.9080788"><ele>600.5</ele><time>2026-05-03T13:48:21.568Z</time></trkpt><trkpt lat="43.1919894" lon="10.9081325"><ele>616.0</ele><time>2026-05-03T13:48:22.566Z</time></trkpt><trkpt lat="43.192217" lon="10.9081678"><ele>625.0</ele><time>2026-05-03T13:48:23.566Z</time></trkpt><trkpt lat="43.1924465" lon="10.9082154"><ele>634.0</ele><time>2026-05-03T13:48:24.565Z</time></trkpt><trkpt lat="43.1926959" lon="10.9082795"><ele>634.0</ele><time>2026-05-03T13:48:25.568Z</time></trkpt><trkpt lat="43.1929407" lon="10.9083318"><ele>634.0</ele><time>2026-05-03T13:48:26.567Z</time></trkpt><trkpt lat="43.1931702" lon="10.9083798"><ele>627.3333333333334</ele><time>2026-05-03T13:48:27.566Z</time></trkpt><trkpt lat="43.1933866" lon="10.9084149"><ele>620.6666666666666</ele><time>2026-05-03T13:48:28.567Z</time></trkpt><trkpt lat="43.193596" lon="10.9084411"><ele>614.0</ele><time>2026-05-03T13:48:29.566Z</time></trkpt><trkpt lat="43.1937961" lon="10.9084272"><ele>624.3333333333333</ele><time>2026-05-03T13:48:30.566Z</time></trkpt><trkpt lat="43.1939941" lon="10.9083921"><ele>634.6666666666666</ele><time>2026-05-03T13:48:31.566Z</time></trkpt><trkpt lat="43.1941727" lon="10.908312"><ele>645.0</ele><time>2026-05-03T13:48:32.566Z</time></trkpt><trkpt lat="43.1943459" lon="10.9082047"><ele>645.0</ele><time>2026-05-03T13:48:33.567Z</time></trkpt><trkpt lat="43.1945054" lon="10.9080651"><ele>645.0</ele><time>2026-05-03T13:48:34.567Z</time></trkpt><trkpt lat="43.1946326" lon="10.907903"><ele>645.0</ele><time>2026-05-03T13:48:35.567Z</time></trkpt><trkpt lat="43.1947432" lon="10.9077139"><ele>645.6666666666666</ele><time>2026-05-03T13:48:36.567Z</time></trkpt><trkpt lat="43.1948454" lon="10.9075179"><ele>646.3333333333333</ele><time>2026-05-03T13:48:37.567Z</time></trkpt><trkpt lat="43.1949525" lon="10.9073391"><ele>647.0</ele><time>2026-05-03T13:48:38.565Z</time></trkpt><trkpt lat="43.1950562" lon="10.9071886"><ele>647.0</ele><time>2026-05-03T13:48:39.566Z</time></trkpt><trkpt lat="43.1951858" lon="10.9070824"><ele>647.0</ele><time>2026-05-03T13:48:40.567Z</time></trkpt><trkpt lat="43.1953379" lon="10.9070187"><ele>647.0</ele><time>2026-05-03T13:48:41.566Z</time></trkpt><trkpt lat="43.1955022" lon="10.9069817"><ele>643.6666666666666</ele><time>2026-05-03T13:48:42.566Z</time></trkpt><trkpt lat="43.1956869" lon="10.9069723"><ele>640.3333333333334</ele><time>2026-05-03T13:48:43.566Z</time></trkpt><trkpt lat="43.1958809" lon="10.9069627"><ele>637.0</ele><time>2026-05-03T13:48:44.568Z</time></trkpt><trkpt lat="43.1960791" lon="10.9069583"><ele>637.0</ele><time>2026-05-03T13:48:45.567Z</time></trkpt><trkpt lat="43.1962763" lon="10.906973"><ele>637.0</ele><time>2026-05-03T13:48:46.567Z</time></trkpt><trkpt lat="43.1964621" lon="10.9070364"><ele>637.0</ele><time>2026-05-03T13:48:47.566Z</time></trkpt><trkpt lat="43.196634" lon="10.907132"><ele>639.0</ele><time>2026-05-03T13:48:48.566Z</time></trkpt><trkpt lat="43.1968009" lon="10.9072456"><ele>641.0</ele><time>2026-05-03T13:48:49.567Z</time></trkpt><trkpt lat="43.1969581" lon="10.9073322"><ele>643.0</ele><time>2026-05-03T13:48:50.567Z</time></trkpt><trkpt lat="43.1971118" lon="10.9073619"><ele>643.0</ele><time>2026-05-03T13:48:51.566Z</time></trkpt><trkpt lat="43.1972651" lon="10.907374"><ele>643.0</ele><time>2026-05-03T13:48:52.567Z</time></trkpt><trkpt lat="43.1974131" lon="10.9073167"><ele>643.0</ele><time>2026-05-03T13:48:53.567Z</time></trkpt><trkpt lat="43.197556" lon="10.9072064"><ele>644.0</ele><time>2026-05-03T13:48:54.568Z</time></trkpt><trkpt lat="43.1976867" lon="10.9070472"><ele>645.0</ele><time>2026-05-03T13:48:55.566Z</time></trkpt><trkpt lat="43.1978316" lon="10.9068526"><ele>646.0</ele><time>2026-05-03T13:48:56.567Z</time></trkpt><trkpt lat="43.1979799" lon="10.9066906"><ele>646.0</ele><time>2026-05-03T13:48:57.566Z</time></trkpt><trkpt lat="43.1981302" lon="10.9065613"><ele>646.0</ele><time>2026-05-03T13:48:58.567Z</time></trkpt><trkpt lat="43.1982429" lon="10.9064772"><ele>646.0</ele><time>2026-05-03T13:48:59.565Z</time></trkpt><trkpt lat="43.1983579" lon="10.9064262"><ele>646.0</ele><time>2026-05-03T13:49:00.567Z</time></trkpt><trkpt lat="43.198486" lon="10.9064485"><ele>646.0</ele><time>2026-05-03T13:49:01.566Z</time></trkpt><trkpt lat="43.1986238" lon="10.9064978"><ele>646.0</ele><time>2026-05-03T13:49:02.567Z</time></trkpt><trkpt lat="43.1987724" lon="10.9065231"><ele>646.0</ele><time>2026-05-03T13:49:03.566Z</time></trkpt><trkpt lat="43.1989211" lon="10.9064963"><ele>646.0</ele><time>2026-05-03T13:49:04.566Z</time></trkpt><trkpt lat="43.1990643" lon="10.9064438"><ele>642.6666666666667</ele><time>2026-05-03T13:49:05.565Z</time></trkpt><trkpt lat="43.1991845" lon="10.9063092"><ele>639.3333333333334</ele><time>2026-05-03T13:49:06.566Z</time></trkpt><trkpt lat="43.1992956" lon="10.9061208"><ele>636.0</ele><time>2026-05-03T13:49:07.567Z</time></trkpt><trkpt lat="43.1994137" lon="10.9059403"><ele>643.6666666666666</ele><time>2026-05-03T13:49:08.566Z</time></trkpt><trkpt lat="43.199542" lon="10.9057028"><ele>651.3333333333333</ele><time>2026-05-03T13:49:09.565Z</time></trkpt><trkpt lat="43.1996758" lon="10.9054989"><ele>659.0</ele><time>2026-05-03T13:49:10.565Z</time></trkpt><trkpt lat="43.1998089" lon="10.9053045"><ele>654.0</ele><time>2026-05-03T13:49:11.566Z</time></trkpt><trkpt lat="43.1999353" lon="10.9051128"><ele>649.0</ele><time>2026-05-03T13:49:12.566Z</time></trkpt><trkpt lat="43.2000637" lon="10.9049135"><ele>644.0</ele><time>2026-05-03T13:49:13.566Z</time></trkpt><trkpt lat="43.2001949" lon="10.9047293"><ele>644.0</ele><time>2026-05-03T13:49:14.566Z</time></trkpt><trkpt lat="43.2003262" lon="10.9045435"><ele>644.0</ele><time>2026-05-03T13:49:15.566Z</time></trkpt><trkpt lat="43.200455" lon="10.9043681"><ele>644.0</ele><time>2026-05-03T13:49:16.567Z</time></trkpt><trkpt lat="43.2005835" lon="10.9041835"><ele>643.6666666666666</ele><time>2026-05-03T13:49:17.567Z</time></trkpt><trkpt lat="43.2007297" lon="10.9040134"><ele>643.3333333333334</ele><time>2026-05-03T13:49:18.567Z</time></trkpt><trkpt lat="43.2008834" lon="10.9038493"><ele>643.0</ele><time>2026-05-03T13:49:19.567Z</time></trkpt><trkpt lat="43.2010485" lon="10.9037007"><ele>643.0</ele><time>2026-05-03T13:49:20.567Z</time></trkpt><trkpt lat="43.2012255" lon="10.9036036"><ele>643.0</ele><time>2026-05-03T13:49:21.566Z</time></trkpt><trkpt lat="43.2014257" lon="10.903582"><ele>643.0</ele><time>2026-05-03T13:49:22.567Z</time></trkpt><trkpt lat="43.2016259" lon="10.9035626"><ele>640.6666666666667</ele><time>2026-05-03T13:49:23.568Z</time></trkpt><trkpt lat="43.2018103" lon="10.9036179"><ele>638.3333333333334</ele><time>2026-05-03T13:49:24.566Z</time></trkpt><trkpt lat="43.2019923" lon="10.9036953"><ele>636.0</ele><time>2026-05-03T13:49:25.567Z</time></trkpt><trkpt lat="43.2021719" lon="10.9038183"><ele>634.0</ele><time>2026-05-03T13:49:26.565Z</time></trkpt><trkpt lat="43.2023581" lon="10.9039729"><ele>632.0</ele><time>2026-05-03T13:49:27.566Z</time></trkpt><trkpt lat="43.2025467" lon="10.9041517"><ele>630.0</ele><time>2026-05-03T13:49:28.567Z</time></trkpt><trkpt lat="43.2027293" lon="10.9043078"><ele>632.3333333333334</ele><time>2026-05-03T13:49:29.566Z</time></trkpt><trkpt lat="43.2029357" lon="10.9044063"><ele>634.6666666666667</ele><time>2026-05-03T13:49:30.566Z</time></trkpt><trkpt lat="43.20314" lon="10.9044737"><ele>637.0</ele><time>2026-05-03T13:49:31.568Z</time></trkpt><trkpt lat="43.2033417" lon="10.9045078"><ele>637.0</ele><time>2026-05-03T13:49:32.566Z</time></trkpt><trkpt lat="43.2035315" lon="10.9044753"><ele>637.0</ele><time>2026-05-03T13:49:33.567Z</time></trkpt><trkpt lat="43.2037325" lon="10.9044109"><ele>637.0</ele><time>2026-05-03T13:49:34.566Z</time></trkpt><trkpt lat="43.2039278" lon="10.9042955"><ele>637.3333333333334</ele><time>2026-05-03T13:49:35.565Z</time></trkpt><trkpt lat="43.2041054" lon="10.9041525"><ele>637.6666666666666</ele><time>2026-05-03T13:49:36.566Z</time></trkpt><trkpt lat="43.2042701" lon="10.9039641"><ele>638.0</ele><time>2026-05-03T13:49:37.565Z</time></trkpt><trkpt lat="43.2044055" lon="10.9037516"><ele>638.0</ele><time>2026-05-03T13:49:38.567Z</time></trkpt><trkpt lat="43.2045068" lon="10.9035196"><ele>638.0</ele><time>2026-05-03T13:49:39.567Z</time></trkpt><trkpt lat="43.2045955" lon="10.9032556"><ele>638.0</ele><time>2026-05-03T13:49:40.566Z</time></trkpt><trkpt lat="43.2046887" lon="10.9029699"><ele>641.0</ele><time>2026-05-03T13:49:41.566Z</time></trkpt><trkpt lat="43.2047864" lon="10.902664"><ele>644.0</ele><time>2026-05-03T13:49:42.567Z</time></trkpt><trkpt lat="43.2048947" lon="10.9023827"><ele>644.0</ele><time>2026-05-03T13:49:43.567Z</time></trkpt><trkpt lat="43.2050386" lon="10.9021327"><ele>644.0</ele><time>2026-05-03T13:49:44.567Z</time></trkpt><trkpt lat="43.2052067" lon="10.9018999"><ele>649.0</ele><time>2026-05-03T13:49:45.566Z</time></trkpt><trkpt lat="43.2054042" lon="10.9016822"><ele>654.0</ele><time>2026-05-03T13:49:46.565Z</time></trkpt><trkpt lat="43.2056122" lon="10.9014927"><ele>653.0</ele><time>2026-05-03T13:49:47.565Z</time></trkpt><trkpt lat="43.2058227" lon="10.9013253"><ele>652.0</ele><time>2026-05-03T13:49:48.567Z</time></trkpt><trkpt lat="43.2060217" lon="10.9011728"><ele>652.0</ele><time>2026-05-03T13:49:49.566Z</time></trkpt><trkpt lat="43.2062113" lon="10.9010221"><ele>652.0</ele><time>2026-05-03T13:49:50.566Z</time></trkpt><trkpt lat="43.2063919" lon="10.9008595"><ele>652.0</ele><time>2026-05-03T13:49:51.567Z</time></trkpt><trkpt lat="43.2065639" lon="10.9006659"><ele>653.0</ele><time>2026-05-03T13:49:52.567Z</time></trkpt><trkpt lat="43.2067263" lon="10.9004419"><ele>654.0</ele><time>2026-05-03T13:49:53.567Z</time></trkpt><trkpt lat="43.2068776" lon="10.9001901"><ele>656.5</ele><time>2026-05-03T13:49:54.566Z</time></trkpt><trkpt lat="43.2070171" lon="10.89991"><ele>659.0</ele><time>2026-05-03T13:49:55.567Z</time></trkpt><trkpt lat="43.207151" lon="10.8996166"><ele>659.0</ele><time>2026-05-03T13:49:56.567Z</time></trkpt><trkpt lat="43.207276" lon="10.8993206"><ele>659.0</ele><time>2026-05-03T13:49:57.567Z</time></trkpt><trkpt lat="43.2073991" lon="10.8990232"><ele>650.5</ele><time>2026-05-03T13:49:58.567Z</time></trkpt><trkpt lat="43.2075229" lon="10.8987318"><ele>642.0</ele><time>2026-05-03T13:49:59.566Z</time></trkpt><trkpt lat="43.2076463" lon="10.8984393"><ele>644.0</ele><time>2026-05-03T13:50:00.565Z</time></trkpt><trkpt lat="43.2077645" lon="10.8981441"><ele>646.0</ele><time>2026-05-03T13:50:01.566Z</time></trkpt><trkpt lat="43.2078809" lon="10.8978677"><ele>651.0</ele><time>2026-05-03T13:50:02.567Z</time></trkpt><trkpt lat="43.2080045" lon="10.8975818"><ele>656.0</ele><time>2026-05-03T13:50:03.566Z</time></trkpt><trkpt lat="43.2081273" lon="10.8973062"><ele>643.5</ele><time>2026-05-03T13:50:04.566Z</time></trkpt><trkpt lat="43.2082478" lon="10.8970329"><ele>631.0</ele><time>2026-05-03T13:50:05.566Z</time></trkpt><trkpt lat="43.2083816" lon="10.896772"><ele>637.5</ele><time>2026-05-03T13:50:06.566Z</time></trkpt><trkpt lat="43.2085308" lon="10.8965268"><ele>644.0</ele><time>2026-05-03T13:50:07.565Z</time></trkpt><trkpt lat="43.2087059" lon="10.8963132"><ele>644.0</ele><time>2026-05-03T13:50:08.565Z</time></trkpt><trkpt lat="43.2088989" lon="10.8961232"><ele>644.0</ele><time>2026-05-03T13:50:09.566Z</time></trkpt><trkpt lat="43.2091053" lon="10.8959675"><ele>638.5</ele><time>2026-05-03T13:50:10.567Z</time></trkpt><trkpt lat="43.2093254" lon="10.8958676"><ele>633.0</ele><time>2026-05-03T13:50:11.567Z</time></trkpt><trkpt lat="43.2095417" lon="10.8957996"><ele>633.0</ele><time>2026-05-03T13:50:12.565Z</time></trkpt><trkpt lat="43.2097593" lon="10.8957714"><ele>633.0</ele><time>2026-05-03T13:50:13.567Z</time></trkpt><trkpt lat="43.2099792" lon="10.895776"><ele>633.0</ele><time>2026-05-03T13:50:14.567Z</time></trkpt><trkpt lat="43.2101954" lon="10.8958153"><ele>631.0</ele><time>2026-05-03T13:50:15.566Z</time></trkpt><trkpt lat="43.2104125" lon="10.8958866"><ele>629.0</ele><time>2026-05-03T13:50:16.565Z</time></trkpt><trkpt lat="43.2106286" lon="10.8959818"><ele>627.0</ele><time>2026-05-03T13:50:17.566Z</time></trkpt><trkpt lat="43.2108419" lon="10.8960997"><ele>625.0</ele><time>2026-05-03T13:50:18.566Z</time></trkpt><trkpt lat="43.2110588" lon="10.8962208"><ele>625.0</ele><time>2026-05-03T13:50:19.566Z</time></trkpt><trkpt lat="43.2112742" lon="10.8963501"><ele>625.0</ele><time>2026-05-03T13:50:20.568Z</time></trkpt><trkpt lat="43.2114844" lon="10.8964825"><ele>624.6666666666667</ele><time>2026-05-03T13:50:21.567Z</time></trkpt><trkpt lat="43.2116829" lon="10.8966043"><ele>624.3333333333334</ele><time>2026-05-03T13:50:22.565Z</time></trkpt><trkpt lat="43.2118716" lon="10.8967204"><ele>624.0</ele><time>2026-05-03T13:50:23.566Z</time></trkpt><trkpt lat="43.2120558" lon="10.8968234"><ele>624.0</ele><time>2026-05-03T13:50:24.566Z</time></trkpt><trkpt lat="43.2122495" lon="10.8969337"><ele>624.0</ele><time>2026-05-03T13:50:25.566Z</time></trkpt><trkpt lat="43.2124467" lon="10.8970683"><ele>624.0</ele><time>2026-05-03T13:50:26.566Z</time></trkpt><trkpt lat="43.2126552" lon="10.8972203"><ele>623.0</ele><time>2026-05-03T13:50:27.566Z</time></trkpt><trkpt lat="43.2128716" lon="10.8973652"><ele>622.0</ele><time>2026-05-03T13:50:28.565Z</time></trkpt><trkpt lat="43.2130843" lon="10.8974945"><ele>617.5</ele><time>2026-05-03T13:50:29.567Z</time></trkpt><trkpt lat="43.2132895" lon="10.8976156"><ele>613.0</ele><time>2026-05-03T13:50:30.567Z</time></trkpt><trkpt lat="43.2136789" lon="10.8978593"><ele>613.0</ele><time>2026-05-03T13:50:32.567Z</time></trkpt><trkpt lat="43.2138675" lon="10.8979734"><ele>613.0</ele><time>2026-05-03T13:50:33.567Z</time></trkpt><trkpt lat="43.2140495" lon="10.8980873"><ele>613.0</ele><time>2026-05-03T13:50:34.567Z</time></trkpt><trkpt lat="43.214224" lon="10.8981953"><ele>612.0</ele><time>2026-05-03T13:50:35.567Z</time></trkpt><trkpt lat="43.2143921" lon="10.8982963"><ele>611.0</ele><time>2026-05-03T13:50:36.566Z</time></trkpt><trkpt lat="43.2145486" lon="10.8983963"><ele>610.0</ele><time>2026-05-03T13:50:37.567Z</time></trkpt><trkpt lat="43.2146939" lon="10.898488"><ele>609.4</ele><time>2026-05-03T13:50:38.566Z</time></trkpt><trkpt lat="43.2148246" lon="10.8985644"><ele>608.8</ele><time>2026-05-03T13:50:39.568Z</time></trkpt><trkpt lat="43.2149276" lon="10.8986296"><ele>608.2</ele><time>2026-05-03T13:50:40.566Z</time></trkpt><trkpt lat="43.2150125" lon="10.898685"><ele>607.6</ele><time>2026-05-03T13:50:41.565Z</time></trkpt><trkpt lat="43.2150785" lon="10.8987414"><ele>607.0</ele><time>2026-05-03T13:50:42.566Z</time></trkpt><trkpt lat="43.2151269" lon="10.8988129"><ele>606.9999999999999</ele><time>2026-05-03T13:50:43.565Z</time></trkpt><trkpt lat="43.2151614" lon="10.8988965"><ele>607.0</ele><time>2026-05-03T13:50:44.567Z</time></trkpt><trkpt lat="43.2152041" lon="10.8989688"><ele>607.0</ele><time>2026-05-03T13:50:45.566Z</time></trkpt><trkpt lat="43.2152651" lon="10.89902"><ele>607.0</ele><time>2026-05-03T13:50:46.567Z</time></trkpt><trkpt lat="43.2153366" lon="10.8990329"><ele>607.0</ele><time>2026-05-03T13:50:47.567Z</time></trkpt><trkpt lat="43.2154071" lon="10.8990021"><ele>606.9999999999999</ele><time>2026-05-03T13:50:48.566Z</time></trkpt><trkpt lat="43.2154719" lon="10.8989345"><ele>607.0</ele><time>2026-05-03T13:50:49.566Z</time></trkpt><trkpt lat="43.2155358" lon="10.898844"><ele>607.0</ele><time>2026-05-03T13:50:50.567Z</time></trkpt><trkpt lat="43.2156176" lon="10.8987525"><ele>607.0</ele><time>2026-05-03T13:50:51.567Z</time></trkpt><trkpt lat="43.2157334" lon="10.8986778"><ele>607.0</ele><time>2026-05-03T13:50:52.567Z</time></trkpt><trkpt lat="43.2158719" lon="10.8986084"><ele>607.0</ele><time>2026-05-03T13:50:53.567Z</time></trkpt><trkpt lat="43.2160288" lon="10.8985369"><ele>607.3333333333334</ele><time>2026-05-03T13:50:54.566Z</time></trkpt><trkpt lat="43.2162015" lon="10.8984412"><ele>607.6666666666666</ele><time>2026-05-03T13:50:55.568Z</time></trkpt><trkpt lat="43.2163726" lon="10.8983522"><ele>608.0</ele><time>2026-05-03T13:50:56.567Z</time></trkpt><trkpt lat="43.216553" lon="10.8982601"><ele>609.3333333333333</ele><time>2026-05-03T13:50:57.567Z</time></trkpt><trkpt lat="43.2167501" lon="10.8981692"><ele>610.6666666666666</ele><time>2026-05-03T13:50:58.566Z</time></trkpt><trkpt lat="43.2169583" lon="10.8980671"><ele>612.0</ele><time>2026-05-03T13:50:59.567Z</time></trkpt><trkpt lat="43.2171763" lon="10.8979554"><ele>612.6666666666666</ele><time>2026-05-03T13:51:00.566Z</time></trkpt><trkpt lat="43.2173901" lon="10.8978455"><ele>613.3333333333333</ele><time>2026-05-03T13:51:01.566Z</time></trkpt><trkpt lat="43.2175941" lon="10.8977476"><ele>614.0</ele><time>2026-05-03T13:51:02.566Z</time></trkpt><trkpt lat="43.2177925" lon="10.8976554"><ele>613.3333333333333</ele><time>2026-05-03T13:51:03.567Z</time></trkpt><trkpt lat="43.2179861" lon="10.8975613"><ele>612.6666666666666</ele><time>2026-05-03T13:51:04.566Z</time></trkpt><trkpt lat="43.2181735" lon="10.8974672"><ele>612.0</ele><time>2026-05-03T13:51:05.567Z</time></trkpt><trkpt lat="43.2183588" lon="10.8973697"><ele>611.6666666666666</ele><time>2026-05-03T13:51:06.567Z</time></trkpt><trkpt lat="43.2185332" lon="10.8972779"><ele>611.3333333333333</ele><time>2026-05-03T13:51:07.566Z</time></trkpt><trkpt lat="43.2187069" lon="10.8971886"><ele>611.0</ele><time>2026-05-03T13:51:08.565Z</time></trkpt><trkpt lat="43.2188849" lon="10.8970985"><ele>612.0</ele><time>2026-05-03T13:51:09.567Z</time></trkpt><trkpt lat="43.2190538" lon="10.8970024"><ele>613.0</ele><time>2026-05-03T13:51:10.566Z</time></trkpt><trkpt lat="43.2192229" lon="10.896909"><ele>614.0</ele><time>2026-05-03T13:51:11.566Z</time></trkpt><trkpt lat="43.2193864" lon="10.8968125"><ele>612.0</ele><time>2026-05-03T13:51:12.566Z</time></trkpt><trkpt lat="43.219542" lon="10.8967171"><ele>610.0</ele><time>2026-05-03T13:51:13.567Z</time></trkpt><trkpt lat="43.219692" lon="10.8966226"><ele>608.0</ele><time>2026-05-03T13:51:14.566Z</time></trkpt><trkpt lat="43.2198416" lon="10.8965254"><ele>607.0</ele><time>2026-05-03T13:51:15.566Z</time></trkpt><trkpt lat="43.2199862" lon="10.8964297"><ele>606.0</ele><time>2026-05-03T13:51:16.568Z</time></trkpt><trkpt lat="43.2201189" lon="10.8963181"><ele>605.0</ele><time>2026-05-03T13:51:17.566Z</time></trkpt><trkpt lat="43.2202381" lon="10.8961894"><ele>605.0</ele><time>2026-05-03T13:51:18.565Z</time></trkpt><trkpt lat="43.2203421" lon="10.8960425"><ele>605.0</ele><time>2026-05-03T13:51:19.568Z</time></trkpt><trkpt lat="43.2204297" lon="10.8958858"><ele>605.0</ele><time>2026-05-03T13:51:20.566Z</time></trkpt><trkpt lat="43.2205084" lon="10.8957127"><ele>605.0</ele><time>2026-05-03T13:51:21.565Z</time></trkpt><trkpt lat="43.2205764" lon="10.8955285"><ele>602.0</ele><time>2026-05-03T13:51:22.566Z</time></trkpt><trkpt lat="43.2206256" lon="10.8953295"><ele>599.0</ele><time>2026-05-03T13:51:23.566Z</time></trkpt><trkpt lat="43.2206575" lon="10.8951183"><ele>596.0</ele><time>2026-05-03T13:51:24.565Z</time></trkpt><trkpt lat="43.2206685" lon="10.8949064"><ele>595.0</ele><time>2026-05-03T13:51:25.565Z</time></trkpt><trkpt lat="43.2206587" lon="10.8946836"><ele>594.0</ele><time>2026-05-03T13:51:26.566Z</time></trkpt><trkpt lat="43.220632" lon="10.894451"><ele>593.0</ele><time>2026-05-03T13:51:27.567Z</time></trkpt><trkpt lat="43.2205974" lon="10.894218"><ele>591.6666666666666</ele><time>2026-05-03T13:51:28.567Z</time></trkpt><trkpt lat="43.2205548" lon="10.8939821"><ele>590.3333333333334</ele><time>2026-05-03T13:51:29.567Z</time></trkpt><trkpt lat="43.2205116" lon="10.8937439"><ele>589.0</ele><time>2026-05-03T13:51:30.567Z</time></trkpt><trkpt lat="43.2204781" lon="10.8935077"><ele>585.6666666666667</ele><time>2026-05-03T13:51:31.566Z</time></trkpt><trkpt lat="43.2204424" lon="10.8932631"><ele>582.3333333333334</ele><time>2026-05-03T13:51:32.567Z</time></trkpt><trkpt lat="43.220406" lon="10.8930191"><ele>579.0</ele><time>2026-05-03T13:51:33.565Z</time></trkpt><trkpt lat="43.22037" lon="10.8927861"><ele>575.3333333333334</ele><time>2026-05-03T13:51:34.566Z</time></trkpt><trkpt lat="43.2203297" lon="10.892543"><ele>571.6666666666667</ele><time>2026-05-03T13:51:35.567Z</time></trkpt><trkpt lat="43.2202929" lon="10.8923008"><ele>568.0</ele><time>2026-05-03T13:51:36.566Z</time></trkpt><trkpt lat="43.2202575" lon="10.8920694"><ele>568.0</ele><time>2026-05-03T13:51:37.567Z</time></trkpt><trkpt lat="43.2202255" lon="10.891845"><ele>568.0</ele><time>2026-05-03T13:51:38.567Z</time></trkpt><trkpt lat="43.2202238" lon="10.8916413"><ele>568.0</ele><time>2026-05-03T13:51:39.565Z</time></trkpt><trkpt lat="43.2202455" lon="10.8914435"><ele>565.75</ele><time>2026-05-03T13:51:40.566Z</time></trkpt><trkpt lat="43.2202971" lon="10.8912554"><ele>563.5</ele><time>2026-05-03T13:51:41.566Z</time></trkpt><trkpt lat="43.2203702" lon="10.8910881"><ele>561.25</ele><time>2026-05-03T13:51:42.565Z</time></trkpt><trkpt lat="43.2204722" lon="10.8909498"><ele>559.0</ele><time>2026-05-03T13:51:43.567Z</time></trkpt><trkpt lat="43.220601" lon="10.89085"><ele>554.3333333333334</ele><time>2026-05-03T13:51:44.567Z</time></trkpt><trkpt lat="43.2207484" lon="10.8907879"><ele>549.6666666666666</ele><time>2026-05-03T13:51:45.567Z</time></trkpt><trkpt lat="43.2209067" lon="10.8907846"><ele>545.0</ele><time>2026-05-03T13:51:46.566Z</time></trkpt><trkpt lat="43.2210696" lon="10.8908297"><ele>545.0</ele><time>2026-05-03T13:51:47.565Z</time></trkpt><trkpt lat="43.2212292" lon="10.8908938"><ele>545.0</ele><time>2026-05-03T13:51:48.567Z</time></trkpt><trkpt lat="43.221381" lon="10.8909665"><ele>545.0</ele><time>2026-05-03T13:51:49.568Z</time></trkpt><trkpt lat="43.221529" lon="10.8910316"><ele>544.6666666666666</ele><time>2026-05-03T13:51:50.566Z</time></trkpt><trkpt lat="43.221676" lon="10.8910705"><ele>544.3333333333334</ele><time>2026-05-03T13:51:51.567Z</time></trkpt><trkpt lat="43.2218273" lon="10.8910724"><ele>544.0</ele><time>2026-05-03T13:51:52.565Z</time></trkpt><trkpt lat="43.2219757" lon="10.8910341"><ele>544.0</ele><time>2026-05-03T13:51:53.566Z</time></trkpt><trkpt lat="43.2221231" lon="10.8909609"><ele>544.0</ele><time>2026-05-03T13:51:54.567Z</time></trkpt><trkpt lat="43.222262" lon="10.8908582"><ele>544.0</ele><time>2026-05-03T13:51:55.566Z</time></trkpt><trkpt lat="43.2224058" lon="10.8907787"><ele>540.5</ele><time>2026-05-03T13:51:56.566Z</time></trkpt><trkpt lat="43.2225507" lon="10.890757"><ele>537.0</ele><time>2026-05-03T13:51:57.565Z</time></trkpt><trkpt lat="43.2226943" lon="10.8907633"><ele>533.5</ele><time>2026-05-03T13:51:58.567Z</time></trkpt><trkpt lat="43.2228311" lon="10.8908122"><ele>530.0</ele><time>2026-05-03T13:51:59.568Z</time></trkpt><trkpt lat="43.2229662" lon="10.8908928"><ele>533.0</ele><time>2026-05-03T13:52:00.567Z</time></trkpt><trkpt lat="43.2231051" lon="10.8909915"><ele>536.0</ele><time>2026-05-03T13:52:01.565Z</time></trkpt><trkpt lat="43.2232462" lon="10.8911029"><ele>539.0</ele><time>2026-05-03T13:52:02.566Z</time></trkpt><trkpt lat="43.2233898" lon="10.8912202"><ele>532.6666666666666</ele><time>2026-05-03T13:52:03.566Z</time></trkpt><trkpt lat="43.2235344" lon="10.8913436"><ele>526.3333333333334</ele><time>2026-05-03T13:52:04.567Z</time></trkpt><trkpt lat="43.2236788" lon="10.8914672"><ele>520.0</ele><time>2026-05-03T13:52:05.567Z</time></trkpt><trkpt lat="43.2238223" lon="10.8915788"><ele>520.0</ele><time>2026-05-03T13:52:06.568Z</time></trkpt><trkpt lat="43.2239582" lon="10.8916874"><ele>520.0</ele><time>2026-05-03T13:52:07.566Z</time></trkpt><trkpt lat="43.2240843" lon="10.8917793"><ele>520.0</ele><time>2026-05-03T13:52:08.566Z</time></trkpt><trkpt lat="43.2242083" lon="10.8918362"><ele>520.0</ele><time>2026-05-03T13:52:09.566Z</time></trkpt><trkpt lat="43.2243361" lon="10.8918602"><ele>522.25</ele><time>2026-05-03T13:52:10.567Z</time></trkpt><trkpt lat="43.2244619" lon="10.8918177"><ele>524.5</ele><time>2026-05-03T13:52:11.567Z</time></trkpt><trkpt lat="43.2245717" lon="10.8917426"><ele>526.75</ele><time>2026-05-03T13:52:12.566Z</time></trkpt><trkpt lat="43.224656" lon="10.8916428"><ele>529.0</ele><time>2026-05-03T13:52:13.567Z</time></trkpt><trkpt lat="43.224709" lon="10.8915152"><ele>524.5</ele><time>2026-05-03T13:52:14.567Z</time></trkpt><trkpt lat="43.2247284" lon="10.8913639"><ele>520.0</ele><time>2026-05-03T13:52:15.567Z</time></trkpt><trkpt lat="43.224712" lon="10.8912001"><ele>515.5</ele><time>2026-05-03T13:52:16.568Z</time></trkpt><trkpt lat="43.2246603" lon="10.891044"><ele>511.0</ele><time>2026-05-03T13:52:17.567Z</time></trkpt><trkpt lat="43.224574" lon="10.8908937"><ele>507.33333333333337</ele><time>2026-05-03T13:52:18.566Z</time></trkpt><trkpt lat="43.2244728" lon="10.8907418"><ele>503.66666666666663</ele><time>2026-05-03T13:52:19.567Z</time></trkpt><trkpt lat="43.224362" lon="10.890571"><ele>500.0</ele><time>2026-05-03T13:52:20.567Z</time></trkpt><trkpt lat="43.2242577" lon="10.8903922"><ele>500.0</ele><time>2026-05-03T13:52:21.567Z</time></trkpt><trkpt lat="43.2241593" lon="10.8902163"><ele>500.0</ele><time>2026-05-03T13:52:22.566Z</time></trkpt><trkpt lat="43.2240751" lon="10.8900587"><ele>500.0</ele><time>2026-05-03T13:52:23.567Z</time></trkpt><trkpt lat="43.2240022" lon="10.8899097"><ele>500.0</ele><time>2026-05-03T13:52:24.567Z</time></trkpt><trkpt lat="43.2239549" lon="10.8897549"><ele>501.4</ele><time>2026-05-03T13:52:25.566Z</time></trkpt><trkpt lat="43.2239488" lon="10.889598"><ele>502.8</ele><time>2026-05-03T13:52:26.566Z</time></trkpt><trkpt lat="43.223979" lon="10.8894523"><ele>504.20000000000005</ele><time>2026-05-03T13:52:27.566Z</time></trkpt><trkpt lat="43.2240466" lon="10.8893537"><ele>505.6</ele><time>2026-05-03T13:52:28.567Z</time></trkpt><trkpt lat="43.2241375" lon="10.8893032"><ele>507.0</ele><time>2026-05-03T13:52:29.566Z</time></trkpt><trkpt lat="43.2242557" lon="10.8893108"><ele>503.25</ele><time>2026-05-03T13:52:30.565Z</time></trkpt><trkpt lat="43.2243973" lon="10.88935"><ele>499.5</ele><time>2026-05-03T13:52:31.567Z</time></trkpt><trkpt lat="43.2245454" lon="10.8894029"><ele>495.75</ele><time>2026-05-03T13:52:32.567Z</time></trkpt><trkpt lat="43.2246815" lon="10.8894609"><ele>492.0</ele><time>2026-05-03T13:52:33.567Z</time></trkpt><trkpt lat="43.2247996" lon="10.8895086"><ele>491.0</ele><time>2026-05-03T13:52:34.567Z</time></trkpt><trkpt lat="43.2248976" lon="10.8895398"><ele>490.0</ele><time>2026-05-03T13:52:35.566Z</time></trkpt><trkpt lat="43.2249813" lon="10.8895346"><ele>489.0</ele><time>2026-05-03T13:52:36.567Z</time></trkpt><trkpt lat="43.2250418" lon="10.8894792"><ele>488.0</ele><time>2026-05-03T13:52:37.565Z</time></trkpt><trkpt lat="43.225067" lon="10.88939"><ele>487.0</ele><time>2026-05-03T13:52:38.567Z</time></trkpt><trkpt lat="43.2250433" lon="10.8892914"><ele>486.0</ele><time>2026-05-03T13:52:39.566Z</time></trkpt><trkpt lat="43.2249848" lon="10.8892127"><ele>485.25</ele><time>2026-05-03T13:52:40.568Z</time></trkpt><trkpt lat="43.2248788" lon="10.8891556"><ele>484.5</ele><time>2026-05-03T13:52:41.566Z</time></trkpt><trkpt lat="43.2247595" lon="10.889094"><ele>483.75</ele><time>2026-05-03T13:52:42.567Z</time></trkpt><trkpt lat="43.2246531" lon="10.8890274"><ele>483.0</ele><time>2026-05-03T13:52:43.566Z</time></trkpt><trkpt lat="43.2245629" lon="10.8889718"><ele>483.0</ele><time>2026-05-03T13:52:44.566Z</time></trkpt><trkpt lat="43.224488" lon="10.8889095"><ele>483.0</ele><time>2026-05-03T13:52:45.565Z</time></trkpt><trkpt lat="43.2244396" lon="10.8888407"><ele>483.0</ele><time>2026-05-03T13:52:46.566Z</time></trkpt><trkpt lat="43.2244108" lon="10.8887542"><ele>483.0</ele><time>2026-05-03T13:52:47.566Z</time></trkpt><trkpt lat="43.2244581" lon="10.8886836"><ele>483.0</ele><time>2026-05-03T13:52:48.567Z</time></trkpt><trkpt lat="43.2245728" lon="10.8886783"><ele>483.0</ele><time>2026-05-03T13:52:50.566Z</time></trkpt><trkpt lat="43.2246568" lon="10.8887269"><ele>483.0</ele><time>2026-05-03T13:52:51.567Z</time></trkpt><trkpt lat="43.2247597" lon="10.8887914"><ele>482.99999999999994</ele><time>2026-05-03T13:52:52.566Z</time></trkpt><trkpt lat="43.2248641" lon="10.8888589"><ele>482.99999999999994</ele><time>2026-05-03T13:52:53.566Z</time></trkpt><trkpt lat="43.2249553" lon="10.8889112"><ele>483.0</ele><time>2026-05-03T13:52:54.567Z</time></trkpt><trkpt lat="43.2250407" lon="10.8889187"><ele>483.0</ele><time>2026-05-03T13:52:55.567Z</time></trkpt><trkpt lat="43.2251097" lon="10.8888879"><ele>481.6666666666667</ele><time>2026-05-03T13:52:56.566Z</time></trkpt><trkpt lat="43.2251456" lon="10.8888133"><ele>480.33333333333337</ele><time>2026-05-03T13:52:57.566Z</time></trkpt><trkpt lat="43.2251433" lon="10.8887244"><ele>479.0</ele><time>2026-05-03T13:52:58.566Z</time></trkpt><trkpt lat="43.2251001" lon="10.8886359"><ele>477.6666666666667</ele><time>2026-05-03T13:52:59.566Z</time></trkpt><trkpt lat="43.2250166" lon="10.8885566"><ele>476.33333333333337</ele><time>2026-05-03T13:53:00.567Z</time></trkpt><trkpt lat="43.2249156" lon="10.8884673"><ele>475.0</ele><time>2026-05-03T13:53:01.567Z</time></trkpt><trkpt lat="43.2248104" lon="10.888377"><ele>472.8</ele><time>2026-05-03T13:53:02.567Z</time></trkpt><trkpt lat="43.2247087" lon="10.8882844"><ele>470.6</ele><time>2026-05-03T13:53:03.566Z</time></trkpt><trkpt lat="43.224612" lon="10.8881983"><ele>468.4</ele><time>2026-05-03T13:53:04.566Z</time></trkpt><trkpt lat="43.2245284" lon="10.8881144"><ele>466.2</ele><time>2026-05-03T13:53:05.567Z</time></trkpt><trkpt lat="43.2244528" lon="10.8880365"><ele>464.0</ele><time>2026-05-03T13:53:06.567Z</time></trkpt><trkpt lat="43.2243888" lon="10.8879714"><ele>463.99999999999994</ele><time>2026-05-03T13:53:07.566Z</time></trkpt><trkpt lat="43.2243312" lon="10.8879118"><ele>464.0</ele><time>2026-05-03T13:53:08.565Z</time></trkpt><trkpt lat="43.2243084" lon="10.8878278"><ele>464.0</ele><time>2026-05-03T13:53:09.565Z</time></trkpt><trkpt lat="43.2243156" lon="10.8877409"><ele>464.0</ele><time>2026-05-03T13:53:10.565Z</time></trkpt><trkpt lat="43.2243431" lon="10.8876541"><ele>463.99999999999994</ele><time>2026-05-03T13:53:11.566Z</time></trkpt><trkpt lat="43.2244064" lon="10.8875749"><ele>464.0</ele><time>2026-05-03T13:53:12.566Z</time></trkpt><trkpt lat="43.2244842" lon="10.8875026"><ele>463.25</ele><time>2026-05-03T13:53:13.567Z</time></trkpt><trkpt lat="43.2245867" lon="10.8874366"><ele>462.5</ele><time>2026-05-03T13:53:14.567Z</time></trkpt><trkpt lat="43.2247034" lon="10.8873681"><ele>461.75</ele><time>2026-05-03T13:53:15.566Z</time></trkpt><trkpt lat="43.2248058" lon="10.8872702"><ele>461.0</ele><time>2026-05-03T13:53:16.568Z</time></trkpt><trkpt lat="43.2249269" lon="10.8871636"><ele>461.0</ele><time>2026-05-03T13:53:17.566Z</time></trkpt><trkpt lat="43.2250861" lon="10.8870736"><ele>461.0</ele><time>2026-05-03T13:53:18.566Z</time></trkpt><trkpt lat="43.2252439" lon="10.8869724"><ele>461.0</ele><time>2026-05-03T13:53:19.567Z</time></trkpt><trkpt lat="43.2253904" lon="10.8868763"><ele>461.0</ele><time>2026-05-03T13:53:20.565Z</time></trkpt><trkpt lat="43.2255324" lon="10.8867843"><ele>461.0</ele><time>2026-05-03T13:53:21.566Z</time></trkpt><trkpt lat="43.2256563" lon="10.8867017"><ele>461.0</ele><time>2026-05-03T13:53:22.568Z</time></trkpt><trkpt lat="43.2257595" lon="10.886604"><ele>461.0</ele><time>2026-05-03T13:53:23.566Z</time></trkpt><trkpt lat="43.2258446" lon="10.8864817"><ele>460.0</ele><time>2026-05-03T13:53:24.567Z</time></trkpt><trkpt lat="43.2259058" lon="10.8863304"><ele>459.0</ele><time>2026-05-03T13:53:25.566Z</time></trkpt><trkpt lat="43.2259488" lon="10.8861437"><ele>458.0</ele><time>2026-05-03T13:53:26.566Z</time></trkpt><trkpt lat="43.2259855" lon="10.8859238"><ele>457.0</ele><time>2026-05-03T13:53:27.565Z</time></trkpt><trkpt lat="43.2260212" lon="10.8856807"><ele>461.33333333333337</ele><time>2026-05-03T13:53:28.567Z</time></trkpt><trkpt lat="43.2260645" lon="10.8854077"><ele>465.66666666666663</ele><time>2026-05-03T13:53:29.566Z</time></trkpt><trkpt lat="43.2261208" lon="10.8851087"><ele>470.0</ele><time>2026-05-03T13:53:30.567Z</time></trkpt><trkpt lat="43.2261712" lon="10.884811"><ele>475.5</ele><time>2026-05-03T13:53:31.567Z</time></trkpt><trkpt lat="43.2262248" lon="10.8844849"><ele>481.0</ele><time>2026-05-03T13:53:32.568Z</time></trkpt><trkpt lat="43.2262758" lon="10.8841555"><ele>481.33333333333337</ele><time>2026-05-03T13:53:33.567Z</time></trkpt><trkpt lat="43.2263224" lon="10.883859"><ele>481.66666666666663</ele><time>2026-05-03T13:53:34.566Z</time></trkpt><trkpt lat="43.2263653" lon="10.8835818"><ele>482.0</ele><time>2026-05-03T13:53:35.567Z</time></trkpt><trkpt lat="43.2264162" lon="10.8833179"><ele>483.66666666666663</ele><time>2026-05-03T13:53:36.566Z</time></trkpt><trkpt lat="43.2264534" lon="10.8830846"><ele>485.33333333333337</ele><time>2026-05-03T13:53:37.565Z</time></trkpt><trkpt lat="43.2264938" lon="10.8828717"><ele>487.0</ele><time>2026-05-03T13:53:38.567Z</time></trkpt><trkpt lat="43.2265439" lon="10.8826771"><ele>482.33333333333337</ele><time>2026-05-03T13:53:39.566Z</time></trkpt><trkpt lat="43.2266315" lon="10.8824957"><ele>477.66666666666663</ele><time>2026-05-03T13:53:40.566Z</time></trkpt><trkpt lat="43.2267355" lon="10.8823217"><ele>473.0</ele><time>2026-05-03T13:53:41.567Z</time></trkpt><trkpt lat="43.2268592" lon="10.882151"><ele>473.0</ele><time>2026-05-03T13:53:42.566Z</time></trkpt><trkpt lat="43.2269981" lon="10.8819702"><ele>473.0</ele><time>2026-05-03T13:53:43.565Z</time></trkpt><trkpt lat="43.2271499" lon="10.8817874"><ele>473.0</ele><time>2026-05-03T13:53:44.566Z</time></trkpt><trkpt lat="43.2273071" lon="10.8816105"><ele>474.3333333333333</ele><time>2026-05-03T13:53:45.566Z</time></trkpt><trkpt lat="43.2274686" lon="10.8814403"><ele>475.66666666666663</ele><time>2026-05-03T13:53:46.566Z</time></trkpt><trkpt lat="43.227631" lon="10.8812845"><ele>477.0</ele><time>2026-05-03T13:53:47.567Z</time></trkpt><trkpt lat="43.2277866" lon="10.8811327"><ele>477.0</ele><time>2026-05-03T13:53:48.566Z</time></trkpt><trkpt lat="43.2279377" lon="10.8809843"><ele>477.0</ele><time>2026-05-03T13:53:49.567Z</time></trkpt><trkpt lat="43.2280853" lon="10.8808348"><ele>477.0</ele><time>2026-05-03T13:53:50.565Z</time></trkpt><trkpt lat="43.2282185" lon="10.8806722"><ele>477.0</ele><time>2026-05-03T13:53:51.567Z</time></trkpt><trkpt lat="43.2283424" lon="10.8804816"><ele>477.0</ele><time>2026-05-03T13:53:52.567Z</time></trkpt><trkpt lat="43.2284485" lon="10.8802652"><ele>477.0</ele><time>2026-05-03T13:53:53.566Z</time></trkpt><trkpt lat="43.2285406" lon="10.8800159"><ele>479.33333333333337</ele><time>2026-05-03T13:53:54.566Z</time></trkpt><trkpt lat="43.2286225" lon="10.8797309"><ele>481.6666666666667</ele><time>2026-05-03T13:53:55.566Z</time></trkpt><trkpt lat="43.228699" lon="10.8794536"><ele>484.0</ele><time>2026-05-03T13:53:56.567Z</time></trkpt><trkpt lat="43.2287673" lon="10.8791916"><ele>485.33333333333337</ele><time>2026-05-03T13:53:57.567Z</time></trkpt><trkpt lat="43.2288157" lon="10.8789415"><ele>486.66666666666663</ele><time>2026-05-03T13:53:58.566Z</time></trkpt><trkpt lat="43.228835" lon="10.8786896"><ele>488.0</ele><time>2026-05-03T13:53:59.566Z</time></trkpt><trkpt lat="43.2288218" lon="10.8784481"><ele>489.0</ele><time>2026-05-03T13:54:00.566Z</time></trkpt><trkpt lat="43.2287857" lon="10.8782013"><ele>490.0</ele><time>2026-05-03T13:54:01.566Z</time></trkpt><trkpt lat="43.2287581" lon="10.8779535"><ele>491.0</ele><time>2026-05-03T13:54:02.567Z</time></trkpt><trkpt lat="43.2287687" lon="10.8776939"><ele>494.66666666666663</ele><time>2026-05-03T13:54:03.566Z</time></trkpt><trkpt lat="43.2288078" lon="10.877423"><ele>498.33333333333337</ele><time>2026-05-03T13:54:04.567Z</time></trkpt><trkpt lat="43.2288614" lon="10.8771709"><ele>502.0</ele><time>2026-05-03T13:54:05.567Z</time></trkpt><trkpt lat="43.2289223" lon="10.8769419"><ele>495.6666666666667</ele><time>2026-05-03T13:54:06.567Z</time></trkpt><trkpt lat="43.228999" lon="10.8767435"><ele>489.33333333333337</ele><time>2026-05-03T13:54:07.567Z</time></trkpt><trkpt lat="43.229102" lon="10.8765819"><ele>483.0</ele><time>2026-05-03T13:54:08.567Z</time></trkpt><trkpt lat="43.2292319" lon="10.8764651"><ele>483.0</ele><time>2026-05-03T13:54:09.566Z</time></trkpt><trkpt lat="43.2293906" lon="10.8763814"><ele>483.0</ele><time>2026-05-03T13:54:10.566Z</time></trkpt><trkpt lat="43.2295719" lon="10.8763257"><ele>483.0</ele><time>2026-05-03T13:54:11.565Z</time></trkpt><trkpt lat="43.229773" lon="10.8762864"><ele>481.0</ele><time>2026-05-03T13:54:12.567Z</time></trkpt><trkpt lat="43.2299891" lon="10.8762485"><ele>479.0</ele><time>2026-05-03T13:54:13.566Z</time></trkpt><trkpt lat="43.2302206" lon="10.8762075"><ele>479.0</ele><time>2026-05-03T13:54:14.567Z</time></trkpt><trkpt lat="43.2304631" lon="10.8761561"><ele>479.0</ele><time>2026-05-03T13:54:15.567Z</time></trkpt><trkpt lat="43.2307089" lon="10.8761006"><ele>478.0</ele><time>2026-05-03T13:54:16.565Z</time></trkpt><trkpt lat="43.2309467" lon="10.8760317"><ele>477.0</ele><time>2026-05-03T13:54:17.566Z</time></trkpt><trkpt lat="43.2311687" lon="10.8759549"><ele>480.0</ele><time>2026-05-03T13:54:18.566Z</time></trkpt><trkpt lat="43.231379" lon="10.8758835"><ele>483.0</ele><time>2026-05-03T13:54:19.565Z</time></trkpt><trkpt lat="43.2315865" lon="10.8758013"><ele>486.0</ele><time>2026-05-03T13:54:20.565Z</time></trkpt><trkpt lat="43.2317942" lon="10.8757095"><ele>486.0</ele><time>2026-05-03T13:54:21.566Z</time></trkpt><trkpt lat="43.2320114" lon="10.8756184"><ele>486.0</ele><time>2026-05-03T13:54:22.566Z</time></trkpt><trkpt lat="43.2322236" lon="10.8755285"><ele>486.0</ele><time>2026-05-03T13:54:23.566Z</time></trkpt><trkpt lat="43.2324264" lon="10.8754336"><ele>485.0</ele><time>2026-05-03T13:54:24.565Z</time></trkpt><trkpt lat="43.2326199" lon="10.8753392"><ele>484.0</ele><time>2026-05-03T13:54:25.566Z</time></trkpt><trkpt lat="43.2328134" lon="10.8752248"><ele>483.0</ele><time>2026-05-03T13:54:26.567Z</time></trkpt><trkpt lat="43.2329957" lon="10.8751025"><ele>478.66666666666663</ele><time>2026-05-03T13:54:27.566Z</time></trkpt><trkpt lat="43.2331693" lon="10.8749798"><ele>474.3333333333333</ele><time>2026-05-03T13:54:28.567Z</time></trkpt><trkpt lat="43.2333513" lon="10.8748748"><ele>470.0</ele><time>2026-05-03T13:54:29.566Z</time></trkpt><trkpt lat="43.2335381" lon="10.8748124"><ele>470.0</ele><time>2026-05-03T13:54:30.566Z</time></trkpt><trkpt lat="43.2337373" lon="10.8747725"><ele>470.0</ele><time>2026-05-03T13:54:31.566Z</time></trkpt><trkpt lat="43.2339333" lon="10.8747339"><ele>470.0</ele><time>2026-05-03T13:54:32.565Z</time></trkpt><trkpt lat="43.2341249" lon="10.8746627"><ele>466.66666666666663</ele><time>2026-05-03T13:54:33.567Z</time></trkpt><trkpt lat="43.2343076" lon="10.8745616"><ele>463.33333333333337</ele><time>2026-05-03T13:54:34.566Z</time></trkpt><trkpt lat="43.2344836" lon="10.8744299"><ele>460.0</ele><time>2026-05-03T13:54:35.566Z</time></trkpt><trkpt lat="43.2346614" lon="10.8742891"><ele>458.6666666666667</ele><time>2026-05-03T13:54:36.567Z</time></trkpt><trkpt lat="43.2348481" lon="10.8741839"><ele>457.33333333333337</ele><time>2026-05-03T13:54:37.566Z</time></trkpt><trkpt lat="43.2350448" lon="10.874114"><ele>456.0</ele><time>2026-05-03T13:54:38.566Z</time></trkpt><trkpt lat="43.2352499" lon="10.8740945"><ele>456.0</ele><time>2026-05-03T13:54:39.567Z</time></trkpt><trkpt lat="43.2354578" lon="10.874105"><ele>456.0</ele><time>2026-05-03T13:54:40.565Z</time></trkpt><trkpt lat="43.2356722" lon="10.8741344"><ele>456.0</ele><time>2026-05-03T13:54:41.566Z</time></trkpt><trkpt lat="43.2358901" lon="10.8741686"><ele>455.33333333333337</ele><time>2026-05-03T13:54:42.565Z</time></trkpt><trkpt lat="43.2361037" lon="10.8741988"><ele>454.6666666666667</ele><time>2026-05-03T13:54:43.566Z</time></trkpt><trkpt lat="43.2363131" lon="10.8742254"><ele>454.0</ele><time>2026-05-03T13:54:44.566Z</time></trkpt><trkpt lat="43.2365179" lon="10.8742516"><ele>450.33333333333337</ele><time>2026-05-03T13:54:45.567Z</time></trkpt><trkpt lat="43.2367222" lon="10.8742827"><ele>446.66666666666663</ele><time>2026-05-03T13:54:46.566Z</time></trkpt><trkpt lat="43.2369251" lon="10.8743305"><ele>443.0</ele><time>2026-05-03T13:54:47.567Z</time></trkpt><trkpt lat="43.2371262" lon="10.8744069"><ele>440.0</ele><time>2026-05-03T13:54:48.566Z</time></trkpt><trkpt lat="43.2373244" lon="10.8745045"><ele>437.0</ele><time>2026-05-03T13:54:49.565Z</time></trkpt><trkpt lat="43.2376921" lon="10.8747079"><ele>437.0</ele><time>2026-05-03T13:54:51.566Z</time></trkpt><trkpt lat="43.2378599" lon="10.8748021"><ele>437.0</ele><time>2026-05-03T13:54:52.567Z</time></trkpt><trkpt lat="43.2380153" lon="10.8749145"><ele>437.0</ele><time>2026-05-03T13:54:53.566Z</time></trkpt><trkpt lat="43.2381565" lon="10.87506"><ele>435.66666666666663</ele><time>2026-05-03T13:54:54.566Z</time></trkpt><trkpt lat="43.2382635" lon="10.8752323"><ele>434.33333333333337</ele><time>2026-05-03T13:54:55.566Z</time></trkpt><trkpt lat="43.2383654" lon="10.8754064"><ele>433.0</ele><time>2026-05-03T13:54:56.566Z</time></trkpt><trkpt lat="43.2384906" lon="10.8755467"><ele>433.0</ele><time>2026-05-03T13:54:57.567Z</time></trkpt><trkpt lat="43.2386175" lon="10.8756673"><ele>433.0</ele><time>2026-05-03T13:54:58.566Z</time></trkpt><trkpt lat="43.2387635" lon="10.8757471"><ele>433.0</ele><time>2026-05-03T13:54:59.566Z</time></trkpt><trkpt lat="43.2389075" lon="10.8758121"><ele>433.5</ele><time>2026-05-03T13:55:00.567Z</time></trkpt><trkpt lat="43.2390467" lon="10.8758812"><ele>434.0</ele><time>2026-05-03T13:55:01.565Z</time></trkpt><trkpt lat="43.2391677" lon="10.875979"><ele>434.5</ele><time>2026-05-03T13:55:02.567Z</time></trkpt><trkpt lat="43.2392722" lon="10.87611"><ele>435.0</ele><time>2026-05-03T13:55:03.566Z</time></trkpt><trkpt lat="43.2393531" lon="10.8762854"><ele>432.66666666666663</ele><time>2026-05-03T13:55:04.565Z</time></trkpt><trkpt lat="43.2394095" lon="10.8764891"><ele>430.3333333333333</ele><time>2026-05-03T13:55:05.567Z</time></trkpt><trkpt lat="43.239447" lon="10.8767099"><ele>428.0</ele><time>2026-05-03T13:55:06.566Z</time></trkpt><trkpt lat="43.2394793" lon="10.8769174"><ele>428.0</ele><time>2026-05-03T13:55:07.567Z</time></trkpt><trkpt lat="43.2395025" lon="10.8771211"><ele>428.0</ele><time>2026-05-03T13:55:08.566Z</time></trkpt><trkpt lat="43.2395291" lon="10.8773218"><ele>428.0</ele><time>2026-05-03T13:55:09.565Z</time></trkpt><trkpt lat="43.239574" lon="10.8775081"><ele>428.0</ele><time>2026-05-03T13:55:10.567Z</time></trkpt><trkpt lat="43.2396474" lon="10.8776849"><ele>428.0</ele><time>2026-05-03T13:55:11.567Z</time></trkpt><trkpt lat="43.2397477" lon="10.877834"><ele>428.0</ele><time>2026-05-03T13:55:12.566Z</time></trkpt><trkpt lat="43.239867" lon="10.8779429"><ele>428.0</ele><time>2026-05-03T13:55:13.568Z</time></trkpt><trkpt lat="43.2399956" lon="10.8780079"><ele>428.0</ele><time>2026-05-03T13:55:14.566Z</time></trkpt><trkpt lat="43.2401338" lon="10.878034"><ele>424.3333333333333</ele><time>2026-05-03T13:55:15.568Z</time></trkpt><trkpt lat="43.240278" lon="10.8780106"><ele>420.66666666666663</ele><time>2026-05-03T13:55:16.565Z</time></trkpt><trkpt lat="43.2404219" lon="10.8779438"><ele>417.0</ele><time>2026-05-03T13:55:17.565Z</time></trkpt><trkpt lat="43.2405728" lon="10.8778374"><ele>416.33333333333337</ele><time>2026-05-03T13:55:18.566Z</time></trkpt><trkpt lat="43.2407298" lon="10.8777"><ele>415.6666666666667</ele><time>2026-05-03T13:55:19.566Z</time></trkpt><trkpt lat="43.2408982" lon="10.8775589"><ele>415.0</ele><time>2026-05-03T13:55:20.566Z</time></trkpt><trkpt lat="43.241072" lon="10.8774194"><ele>415.0</ele><time>2026-05-03T13:55:21.566Z</time></trkpt><trkpt lat="43.2412524" lon="10.8772716"><ele>415.0</ele><time>2026-05-03T13:55:22.567Z</time></trkpt><trkpt lat="43.2414269" lon="10.8771284"><ele>415.0</ele><time>2026-05-03T13:55:23.566Z</time></trkpt><trkpt lat="43.2416017" lon="10.8769866"><ele>414.6666666666667</ele><time>2026-05-03T13:55:24.567Z</time></trkpt><trkpt lat="43.241772" lon="10.8768663"><ele>414.33333333333337</ele><time>2026-05-03T13:55:25.567Z</time></trkpt><trkpt lat="43.2419517" lon="10.8767787"><ele>414.0</ele><time>2026-05-03T13:55:26.566Z</time></trkpt><trkpt lat="43.2421318" lon="10.8767178"><ele>411.66666666666663</ele><time>2026-05-03T13:55:27.565Z</time></trkpt><trkpt lat="43.2423138" lon="10.8766949"><ele>409.3333333333333</ele><time>2026-05-03T13:55:28.566Z</time></trkpt><trkpt lat="43.2424994" lon="10.8766937"><ele>407.0</ele><time>2026-05-03T13:55:29.567Z</time></trkpt><trkpt lat="43.24268" lon="10.876721"><ele>404.3333333333333</ele><time>2026-05-03T13:55:30.565Z</time></trkpt><trkpt lat="43.2428737" lon="10.8767751"><ele>401.66666666666663</ele><time>2026-05-03T13:55:31.565Z</time></trkpt><trkpt lat="43.2430616" lon="10.8768624"><ele>399.0</ele><time>2026-05-03T13:55:32.567Z</time></trkpt><trkpt lat="43.2432309" lon="10.8769689"><ele>399.0</ele><time>2026-05-03T13:55:33.565Z</time></trkpt><trkpt lat="43.2433848" lon="10.8770842"><ele>399.0</ele><time>2026-05-03T13:55:34.567Z</time></trkpt><trkpt lat="43.243531" lon="10.8771932"><ele>399.0</ele><time>2026-05-03T13:55:35.566Z</time></trkpt><trkpt lat="43.2436785" lon="10.8772799"><ele>399.0</ele><time>2026-05-03T13:55:36.566Z</time></trkpt><trkpt lat="43.2438364" lon="10.87733"><ele>399.0</ele><time>2026-05-03T13:55:37.567Z</time></trkpt><trkpt lat="43.2440046" lon="10.8773541"><ele>399.0</ele><time>2026-05-03T13:55:38.567Z</time></trkpt><trkpt lat="43.2441776" lon="10.8773321"><ele>398.0</ele><time>2026-05-03T13:55:39.566Z</time></trkpt><trkpt lat="43.2443605" lon="10.8772779"><ele>397.0</ele><time>2026-05-03T13:55:40.566Z</time></trkpt><trkpt lat="43.2445452" lon="10.8771972"><ele>396.0</ele><time>2026-05-03T13:55:41.566Z</time></trkpt><trkpt lat="43.2447242" lon="10.8771144"><ele>393.0</ele><time>2026-05-03T13:55:42.566Z</time></trkpt><trkpt lat="43.2448986" lon="10.8770429"><ele>390.0</ele><time>2026-05-03T13:55:43.567Z</time></trkpt><trkpt lat="43.2450607" lon="10.8769735"><ele>387.0</ele><time>2026-05-03T13:55:44.566Z</time></trkpt><trkpt lat="43.2452129" lon="10.8769062"><ele>387.0</ele><time>2026-05-03T13:55:45.566Z</time></trkpt><trkpt lat="43.2453493" lon="10.8768486"><ele>387.0</ele><time>2026-05-03T13:55:46.566Z</time></trkpt><trkpt lat="43.2454833" lon="10.8768113"><ele>387.0</ele><time>2026-05-03T13:55:47.566Z</time></trkpt><trkpt lat="43.245606" lon="10.8768273"><ele>387.0</ele><time>2026-05-03T13:55:48.566Z</time></trkpt><trkpt lat="43.2457291" lon="10.8768781"><ele>386.25</ele><time>2026-05-03T13:55:49.566Z</time></trkpt><trkpt lat="43.2458401" lon="10.8769748"><ele>385.5</ele><time>2026-05-03T13:55:50.565Z</time></trkpt><trkpt lat="43.2459478" lon="10.8771019"><ele>384.75</ele><time>2026-05-03T13:55:51.567Z</time></trkpt><trkpt lat="43.2460674" lon="10.877235"><ele>384.0</ele><time>2026-05-03T13:55:52.565Z</time></trkpt><trkpt lat="43.2462056" lon="10.8773505"><ele>384.0</ele><time>2026-05-03T13:55:53.565Z</time></trkpt><trkpt lat="43.2463505" lon="10.8774342"><ele>384.0</ele><time>2026-05-03T13:55:54.567Z</time></trkpt><trkpt lat="43.2464942" lon="10.877494"><ele>384.0</ele><time>2026-05-03T13:55:55.566Z</time></trkpt><trkpt lat="43.2466281" lon="10.8774974"><ele>384.0</ele><time>2026-05-03T13:55:56.566Z</time></trkpt><trkpt lat="43.2467483" lon="10.8774685"><ele>385.79999999999995</ele><time>2026-05-03T13:55:57.567Z</time></trkpt><trkpt lat="43.2468524" lon="10.8774051"><ele>387.59999999999997</ele><time>2026-05-03T13:55:58.565Z</time></trkpt><trkpt lat="43.2469492" lon="10.8773544"><ele>389.4</ele><time>2026-05-03T13:55:59.566Z</time></trkpt><trkpt lat="43.2470427" lon="10.8773245"><ele>391.2</ele><time>2026-05-03T13:56:00.566Z</time></trkpt><trkpt lat="43.247127" lon="10.877341"><ele>393.0</ele><time>2026-05-03T13:56:01.566Z</time></trkpt><trkpt lat="43.247187" lon="10.8774022"><ele>393.0</ele><time>2026-05-03T13:56:02.566Z</time></trkpt><trkpt lat="43.2472143" lon="10.8775021"><ele>393.0</ele><time>2026-05-03T13:56:03.566Z</time></trkpt><trkpt lat="43.2472137" lon="10.8776305"><ele>393.0</ele><time>2026-05-03T13:56:04.566Z</time></trkpt><trkpt lat="43.2472032" lon="10.8777754"><ele>393.0</ele><time>2026-05-03T13:56:05.566Z</time></trkpt><trkpt lat="43.2472159" lon="10.8779089"><ele>393.0</ele><time>2026-05-03T13:56:06.566Z</time></trkpt><trkpt lat="43.2472587" lon="10.8780318"><ele>394.0</ele><time>2026-05-03T13:56:07.567Z</time></trkpt><trkpt lat="43.2473131" lon="10.8781215"><ele>395.0</ele><time>2026-05-03T13:56:08.567Z</time></trkpt><trkpt lat="43.2474279" lon="10.8781627"><ele>396.0</ele><time>2026-05-03T13:56:09.565Z</time></trkpt><trkpt lat="43.2475269" lon="10.8781765"><ele>397.0</ele><time>2026-05-03T13:56:10.567Z</time></trkpt><trkpt lat="43.2476564" lon="10.8781489"><ele>398.0</ele><time>2026-05-03T13:56:11.566Z</time></trkpt><trkpt lat="43.2477786" lon="10.8781283"><ele>398.0</ele><time>2026-05-03T13:56:12.566Z</time></trkpt><trkpt lat="43.2478977" lon="10.8781464"><ele>398.0</ele><time>2026-05-03T13:56:13.567Z</time></trkpt><trkpt lat="43.2479987" lon="10.8782216"><ele>398.0</ele><time>2026-05-03T13:56:14.566Z</time></trkpt><trkpt lat="43.2480939" lon="10.878345"><ele>398.0</ele><time>2026-05-03T13:56:15.566Z</time></trkpt><trkpt lat="43.2481815" lon="10.8784563"><ele>397.79999999999995</ele><time>2026-05-03T13:56:16.567Z</time></trkpt><trkpt lat="43.2482783" lon="10.8785508"><ele>397.6</ele><time>2026-05-03T13:56:17.566Z</time></trkpt><trkpt lat="43.2483707" lon="10.8786344"><ele>397.4</ele><time>2026-05-03T13:56:18.566Z</time></trkpt><trkpt lat="43.2484504" lon="10.8787027"><ele>397.20000000000005</ele><time>2026-05-03T13:56:19.566Z</time></trkpt><trkpt lat="43.2485304" lon="10.8787585"><ele>397.0</ele><time>2026-05-03T13:56:20.567Z</time></trkpt><trkpt lat="43.2486044" lon="10.8788048"><ele>397.0</ele><time>2026-05-03T13:56:21.566Z</time></trkpt><trkpt lat="43.248679" lon="10.8788316"><ele>397.0</ele><time>2026-05-03T13:56:22.567Z</time></trkpt><trkpt lat="43.2487772" lon="10.8788366"><ele>397.0</ele><time>2026-05-03T13:56:23.566Z</time></trkpt><trkpt lat="43.2489037" lon="10.8788538"><ele>397.0</ele><time>2026-05-03T13:56:24.567Z</time></trkpt><trkpt lat="43.2490448" lon="10.878881"><ele>397.0</ele><time>2026-05-03T13:56:25.566Z</time></trkpt><trkpt lat="43.2492006" lon="10.8789306"><ele>400.25</ele><time>2026-05-03T13:56:26.566Z</time></trkpt><trkpt lat="43.2493522" lon="10.8789792"><ele>403.5</ele><time>2026-05-03T13:56:27.567Z</time></trkpt><trkpt lat="43.2494862" lon="10.8790145"><ele>406.75</ele><time>2026-05-03T13:56:28.566Z</time></trkpt><trkpt lat="43.2495927" lon="10.8790463"><ele>410.0</ele><time>2026-05-03T13:56:29.566Z</time></trkpt><trkpt lat="43.2496766" lon="10.8791115"><ele>410.0</ele><time>2026-05-03T13:56:30.567Z</time></trkpt><trkpt lat="43.2497556" lon="10.8791873"><ele>410.0</ele><time>2026-05-03T13:56:31.567Z</time></trkpt><trkpt lat="43.2497611" lon="10.8793003"><ele>410.0</ele><time>2026-05-03T13:56:32.566Z</time></trkpt><trkpt lat="43.2497647" lon="10.8794174"><ele>410.0</ele><time>2026-05-03T13:56:33.565Z</time></trkpt><trkpt lat="43.2496899" lon="10.8795471"><ele>410.0</ele><time>2026-05-03T13:56:34.566Z</time></trkpt><trkpt lat="43.2496234" lon="10.8796986"><ele>409.5</ele><time>2026-05-03T13:56:35.566Z</time></trkpt><trkpt lat="43.2495525" lon="10.8798537"><ele>409.0</ele><time>2026-05-03T13:56:36.565Z</time></trkpt><trkpt lat="43.249488" lon="10.8799907"><ele>408.5</ele><time>2026-05-03T13:56:37.566Z</time></trkpt><trkpt lat="43.2494323" lon="10.8801073"><ele>408.0</ele><time>2026-05-03T13:56:38.567Z</time></trkpt><trkpt lat="43.2493923" lon="10.8802293"><ele>407.4</ele><time>2026-05-03T13:56:39.567Z</time></trkpt><trkpt lat="43.2493807" lon="10.8803467"><ele>406.79999999999995</ele><time>2026-05-03T13:56:40.566Z</time></trkpt><trkpt lat="43.2494096" lon="10.8804517"><ele>406.2</ele><time>2026-05-03T13:56:41.567Z</time></trkpt><trkpt lat="43.2494695" lon="10.8805311"><ele>405.6</ele><time>2026-05-03T13:56:42.565Z</time></trkpt><trkpt lat="43.2495582" lon="10.8805654"><ele>405.0</ele><time>2026-05-03T13:56:43.565Z</time></trkpt><trkpt lat="43.2496714" lon="10.8805672"><ele>408.5</ele><time>2026-05-03T13:56:44.566Z</time></trkpt><trkpt lat="43.2498086" lon="10.8805502"><ele>412.0</ele><time>2026-05-03T13:56:45.565Z</time></trkpt><trkpt lat="43.2499511" lon="10.8805151"><ele>415.5</ele><time>2026-05-03T13:56:46.566Z</time></trkpt><trkpt lat="43.2500967" lon="10.8804503"><ele>419.0</ele><time>2026-05-03T13:56:47.567Z</time></trkpt><trkpt lat="43.2502607" lon="10.8803331"><ele>419.0</ele><time>2026-05-03T13:56:48.566Z</time></trkpt><trkpt lat="43.2504411" lon="10.8801968"><ele>419.0</ele><time>2026-05-03T13:56:49.565Z</time></trkpt><trkpt lat="43.2506221" lon="10.8800491"><ele>419.0</ele><time>2026-05-03T13:56:50.565Z</time></trkpt><trkpt lat="43.2508158" lon="10.8798989"><ele>423.0</ele><time>2026-05-03T13:56:51.567Z</time></trkpt><trkpt lat="43.2510255" lon="10.8797483"><ele>427.0</ele><time>2026-05-03T13:56:52.567Z</time></trkpt><trkpt lat="43.25123" lon="10.8795885"><ele>427.0</ele><time>2026-05-03T13:56:53.565Z</time></trkpt><trkpt lat="43.2514188" lon="10.8794348"><ele>427.0</ele><time>2026-05-03T13:56:54.565Z</time></trkpt><trkpt lat="43.2515952" lon="10.8792908"><ele>427.0</ele><time>2026-05-03T13:56:55.566Z</time></trkpt><trkpt lat="43.2517601" lon="10.8791575"><ele>428.0</ele><time>2026-05-03T13:56:56.566Z</time></trkpt><trkpt lat="43.2519203" lon="10.8790252"><ele>429.0</ele><time>2026-05-03T13:56:57.566Z</time></trkpt><trkpt lat="43.2520756" lon="10.8788909"><ele>430.0</ele><time>2026-05-03T13:56:58.566Z</time></trkpt><trkpt lat="43.2522311" lon="10.8787563"><ele>429.33333333333337</ele><time>2026-05-03T13:56:59.566Z</time></trkpt><trkpt lat="43.2523837" lon="10.87862"><ele>428.66666666666663</ele><time>2026-05-03T13:57:00.566Z</time></trkpt><trkpt lat="43.2525303" lon="10.8784761"><ele>428.0</ele><time>2026-05-03T13:57:01.566Z</time></trkpt><trkpt lat="43.2526694" lon="10.8783308"><ele>429.66666666666663</ele><time>2026-05-03T13:57:02.565Z</time></trkpt><trkpt lat="43.2527932" lon="10.8781864"><ele>431.33333333333337</ele><time>2026-05-03T13:57:03.567Z</time></trkpt><trkpt lat="43.2529185" lon="10.878074"><ele>433.0</ele><time>2026-05-03T13:57:04.566Z</time></trkpt><trkpt lat="43.2530531" lon="10.8780003"><ele>432.6666666666667</ele><time>2026-05-03T13:57:05.566Z</time></trkpt><trkpt lat="43.2532057" lon="10.877977"><ele>432.33333333333337</ele><time>2026-05-03T13:57:06.566Z</time></trkpt><trkpt lat="43.253366" lon="10.8779961"><ele>432.0</ele><time>2026-05-03T13:57:07.566Z</time></trkpt><trkpt lat="43.2535155" lon="10.8780726"><ele>432.0</ele><time>2026-05-03T13:57:08.567Z</time></trkpt><trkpt lat="43.2536561" lon="10.8781696"><ele>432.0</ele><time>2026-05-03T13:57:09.565Z</time></trkpt><trkpt lat="43.2537985" lon="10.8782383"><ele>432.0</ele><time>2026-05-03T13:57:10.565Z</time></trkpt><trkpt lat="43.2539498" lon="10.8782622"><ele>431.0</ele><time>2026-05-03T13:57:11.566Z</time></trkpt><trkpt lat="43.2541227" lon="10.8782445"><ele>430.0</ele><time>2026-05-03T13:57:12.567Z</time></trkpt><trkpt lat="43.2543074" lon="10.8781938"><ele>429.0</ele><time>2026-05-03T13:57:13.567Z</time></trkpt><trkpt lat="43.2544942" lon="10.8781241"><ele>429.0</ele><time>2026-05-03T13:57:14.568Z</time></trkpt><trkpt lat="43.2546787" lon="10.8780498"><ele>429.0</ele><time>2026-05-03T13:57:15.566Z</time></trkpt><trkpt lat="43.2548593" lon="10.8779849"><ele>429.0</ele><time>2026-05-03T13:57:16.565Z</time></trkpt><trkpt lat="43.2550323" lon="10.8779431"><ele>429.33333333333337</ele><time>2026-05-03T13:57:17.566Z</time></trkpt><trkpt lat="43.2551948" lon="10.8779201"><ele>429.6666666666667</ele><time>2026-05-03T13:57:18.566Z</time></trkpt><trkpt lat="43.2553484" lon="10.8778922"><ele>430.0</ele><time>2026-05-03T13:57:19.565Z</time></trkpt><trkpt lat="43.2554893" lon="10.8778315"><ele>430.0</ele><time>2026-05-03T13:57:20.566Z</time></trkpt><trkpt lat="43.2556142" lon="10.8777267"><ele>430.0</ele><time>2026-05-03T13:57:21.566Z</time></trkpt><trkpt lat="43.2557323" lon="10.8775908"><ele>430.0</ele><time>2026-05-03T13:57:22.566Z</time></trkpt><trkpt lat="43.2558519" lon="10.8774496"><ele>425.6666666666667</ele><time>2026-05-03T13:57:23.566Z</time></trkpt><trkpt lat="43.2559852" lon="10.8773389"><ele>421.33333333333337</ele><time>2026-05-03T13:57:24.565Z</time></trkpt><trkpt lat="43.2561409" lon="10.877275"><ele>417.0</ele><time>2026-05-03T13:57:25.566Z</time></trkpt><trkpt lat="43.2563184" lon="10.8772378"><ele>418.66666666666663</ele><time>2026-05-03T13:57:26.567Z</time></trkpt><trkpt lat="43.2564988" lon="10.8772318"><ele>420.3333333333333</ele><time>2026-05-03T13:57:27.565Z</time></trkpt><trkpt lat="43.2566689" lon="10.8772347"><ele>422.0</ele><time>2026-05-03T13:57:28.566Z</time></trkpt><trkpt lat="43.2568278" lon="10.877254"><ele>422.0</ele><time>2026-05-03T13:57:29.566Z</time></trkpt><trkpt lat="43.2569733" lon="10.8772947"><ele>422.0</ele><time>2026-05-03T13:57:30.567Z</time></trkpt><trkpt lat="43.2571133" lon="10.877374"><ele>422.0</ele><time>2026-05-03T13:57:31.566Z</time></trkpt><trkpt lat="43.2572482" lon="10.8775011"><ele>424.0</ele><time>2026-05-03T13:57:32.566Z</time></trkpt><trkpt lat="43.2573821" lon="10.8776377"><ele>426.0</ele><time>2026-05-03T13:57:33.566Z</time></trkpt><trkpt lat="43.2575269" lon="10.8777479"><ele>428.0</ele><time>2026-05-03T13:57:34.566Z</time></trkpt><trkpt lat="43.2576823" lon="10.8778207"><ele>428.0</ele><time>2026-05-03T13:57:35.566Z</time></trkpt><trkpt lat="43.2578478" lon="10.8778498"><ele>428.0</ele><time>2026-05-03T13:57:36.566Z</time></trkpt><trkpt lat="43.2580078" lon="10.8778362"><ele>428.0</ele><time>2026-05-03T13:57:37.565Z</time></trkpt><trkpt lat="43.2581747" lon="10.8778372"><ele>424.3333333333333</ele><time>2026-05-03T13:57:38.566Z</time></trkpt><trkpt lat="43.2583453" lon="10.8778605"><ele>420.66666666666663</ele><time>2026-05-03T13:57:39.566Z</time></trkpt><trkpt lat="43.2584983" lon="10.8779253"><ele>417.0</ele><time>2026-05-03T13:57:40.566Z</time></trkpt><trkpt lat="43.2586489" lon="10.8780326"><ele>417.0</ele><time>2026-05-03T13:57:41.566Z</time></trkpt><trkpt lat="43.2587857" lon="10.8781776"><ele>417.0</ele><time>2026-05-03T13:57:42.567Z</time></trkpt><trkpt lat="43.2589185" lon="10.8783542"><ele>417.0</ele><time>2026-05-03T13:57:43.565Z</time></trkpt><trkpt lat="43.2590625" lon="10.8785289"><ele>414.33333333333337</ele><time>2026-05-03T13:57:44.565Z</time></trkpt><trkpt lat="43.2592307" lon="10.8786924"><ele>411.6666666666667</ele><time>2026-05-03T13:57:45.566Z</time></trkpt><trkpt lat="43.2593901" lon="10.8788477"><ele>409.0</ele><time>2026-05-03T13:57:46.566Z</time></trkpt><trkpt lat="43.2595378" lon="10.8789957"><ele>409.0</ele><time>2026-05-03T13:57:47.567Z</time></trkpt><trkpt lat="43.2596701" lon="10.8791342"><ele>409.0</ele><time>2026-05-03T13:57:48.565Z</time></trkpt><trkpt lat="43.2597804" lon="10.8792805"><ele>409.0</ele><time>2026-05-03T13:57:49.565Z</time></trkpt><trkpt lat="43.2598628" lon="10.879444"><ele>403.75</ele><time>2026-05-03T13:57:50.566Z</time></trkpt><trkpt lat="43.2599055" lon="10.8796262"><ele>398.5</ele><time>2026-05-03T13:57:51.567Z</time></trkpt><trkpt lat="43.2599082" lon="10.8798236"><ele>393.25</ele><time>2026-05-03T13:57:52.566Z</time></trkpt><trkpt lat="43.2598805" lon="10.880038"><ele>388.0</ele><time>2026-05-03T13:57:53.566Z</time></trkpt><trkpt lat="43.2598608" lon="10.8802611"><ele>387.33333333333337</ele><time>2026-05-03T13:57:54.567Z</time></trkpt><trkpt lat="43.2598797" lon="10.880501"><ele>386.66666666666663</ele><time>2026-05-03T13:57:55.571Z</time></trkpt><trkpt lat="43.2599237" lon="10.8807478"><ele>386.0</ele><time>2026-05-03T13:57:56.565Z</time></trkpt><trkpt lat="43.2599959" lon="10.8809895"><ele>386.0</ele><time>2026-05-03T13:57:57.566Z</time></trkpt><trkpt lat="43.2600662" lon="10.8812176"><ele>386.0</ele><time>2026-05-03T13:57:58.567Z</time></trkpt><trkpt lat="43.2601195" lon="10.881444"><ele>386.0</ele><time>2026-05-03T13:57:59.566Z</time></trkpt><trkpt lat="43.2601431" lon="10.8816589"><ele>384.0</ele><time>2026-05-03T13:58:00.566Z</time></trkpt><trkpt lat="43.2601747" lon="10.881853"><ele>382.0</ele><time>2026-05-03T13:58:01.566Z</time></trkpt><trkpt lat="43.2603163" lon="10.8821689"><ele>380.0</ele><time>2026-05-03T13:58:03.566Z</time></trkpt><trkpt lat="43.2604347" lon="10.8823012"><ele>380.0</ele><time>2026-05-03T13:58:04.566Z</time></trkpt><trkpt lat="43.2605701" lon="10.8823966"><ele>380.0</ele><time>2026-05-03T13:58:05.566Z</time></trkpt><trkpt lat="43.2607175" lon="10.8824368"><ele>380.0</ele><time>2026-05-03T13:58:06.565Z</time></trkpt><trkpt lat="43.260868" lon="10.8824296"><ele>380.0</ele><time>2026-05-03T13:58:07.566Z</time></trkpt><trkpt lat="43.2610112" lon="10.8823724"><ele>380.0</ele><time>2026-05-03T13:58:08.566Z</time></trkpt><trkpt lat="43.2611447" lon="10.8822691"><ele>380.0</ele><time>2026-05-03T13:58:09.567Z</time></trkpt><trkpt lat="43.2612706" lon="10.8821103"><ele>380.0</ele><time>2026-05-03T13:58:10.567Z</time></trkpt><trkpt lat="43.2614021" lon="10.8819281"><ele>380.0</ele><time>2026-05-03T13:58:11.566Z</time></trkpt><trkpt lat="43.2615499" lon="10.8817442"><ele>380.0</ele><time>2026-05-03T13:58:12.566Z</time></trkpt><trkpt lat="43.2617104" lon="10.8815845"><ele>378.6666666666667</ele><time>2026-05-03T13:58:13.566Z</time></trkpt><trkpt lat="43.2618648" lon="10.881444"><ele>377.3333333333333</ele><time>2026-05-03T13:58:14.566Z</time></trkpt><trkpt lat="43.2620088" lon="10.8812922"><ele>376.0</ele><time>2026-05-03T13:58:15.566Z</time></trkpt><trkpt lat="43.2621314" lon="10.8811176"><ele>376.0</ele><time>2026-05-03T13:58:16.565Z</time></trkpt><trkpt lat="43.2622381" lon="10.8809389"><ele>376.0</ele><time>2026-05-03T13:58:17.566Z</time></trkpt><trkpt lat="43.2623466" lon="10.8807701"><ele>376.0</ele><time>2026-05-03T13:58:18.566Z</time></trkpt><trkpt lat="43.262471" lon="10.8806451"><ele>374.75</ele><time>2026-05-03T13:58:19.566Z</time></trkpt><trkpt lat="43.2626108" lon="10.8805639"><ele>373.5</ele><time>2026-05-03T13:58:20.565Z</time></trkpt><trkpt lat="43.2627625" lon="10.8805361"><ele>372.25</ele><time>2026-05-03T13:58:21.567Z</time></trkpt><trkpt lat="43.2629047" lon="10.8805209"><ele>371.0</ele><time>2026-05-03T13:58:22.565Z</time></trkpt><trkpt lat="43.2630337" lon="10.8804618"><ele>370.0</ele><time>2026-05-03T13:58:23.567Z</time></trkpt><trkpt lat="43.2631443" lon="10.8803474"><ele>369.0</ele><time>2026-05-03T13:58:24.567Z</time></trkpt><trkpt lat="43.2632387" lon="10.8801825"><ele>368.0</ele><time>2026-05-03T13:58:25.566Z</time></trkpt><trkpt lat="43.2633378" lon="10.8799845"><ele>368.0</ele><time>2026-05-03T13:58:26.566Z</time></trkpt><trkpt lat="43.263452" lon="10.8797935"><ele>368.0</ele><time>2026-05-03T13:58:27.566Z</time></trkpt><trkpt lat="43.2635686" lon="10.8796075"><ele>368.0</ele><time>2026-05-03T13:58:28.565Z</time></trkpt><trkpt lat="43.2637331" lon="10.8795074"><ele>368.0</ele><time>2026-05-03T13:58:29.566Z</time></trkpt><trkpt lat="43.2638736" lon="10.8793901"><ele>368.0</ele><time>2026-05-03T13:58:30.567Z</time></trkpt><trkpt lat="43.2639945" lon="10.879264"><ele>368.0</ele><time>2026-05-03T13:58:31.567Z</time></trkpt><trkpt lat="43.2640892" lon="10.8791039"><ele>367.33333333333337</ele><time>2026-05-03T13:58:32.566Z</time></trkpt><trkpt lat="43.264156" lon="10.8789148"><ele>366.6666666666667</ele><time>2026-05-03T13:58:33.566Z</time></trkpt><trkpt lat="43.2642122" lon="10.878713"><ele>366.0</ele><time>2026-05-03T13:58:34.566Z</time></trkpt><trkpt lat="43.264294" lon="10.8785219"><ele>359.6666666666667</ele><time>2026-05-03T13:58:35.566Z</time></trkpt><trkpt lat="43.2643924" lon="10.8783585"><ele>353.33333333333337</ele><time>2026-05-03T13:58:36.566Z</time></trkpt><trkpt lat="43.2645245" lon="10.8782418"><ele>347.0</ele><time>2026-05-03T13:58:37.566Z</time></trkpt><trkpt lat="43.2646857" lon="10.8781727"><ele>353.33333333333337</ele><time>2026-05-03T13:58:38.566Z</time></trkpt><trkpt lat="43.2648564" lon="10.878115"><ele>359.6666666666667</ele><time>2026-05-03T13:58:39.565Z</time></trkpt><trkpt lat="43.2650281" lon="10.8780683"><ele>366.0</ele><time>2026-05-03T13:58:40.566Z</time></trkpt><trkpt lat="43.2652031" lon="10.8780677"><ele>366.0</ele><time>2026-05-03T13:58:41.566Z</time></trkpt><trkpt lat="43.2653922" lon="10.8781054"><ele>366.0</ele><time>2026-05-03T13:58:42.566Z</time></trkpt><trkpt lat="43.2655708" lon="10.878169"><ele>366.0</ele><time>2026-05-03T13:58:43.567Z</time></trkpt><trkpt lat="43.2657418" lon="10.8782145"><ele>365.3333333333333</ele><time>2026-05-03T13:58:44.566Z</time></trkpt><trkpt lat="43.2659059" lon="10.87823"><ele>364.66666666666663</ele><time>2026-05-03T13:58:45.566Z</time></trkpt><trkpt lat="43.2660732" lon="10.8781893"><ele>364.0</ele><time>2026-05-03T13:58:46.566Z</time></trkpt><trkpt lat="43.2662351" lon="10.8781069"><ele>364.0</ele><time>2026-05-03T13:58:47.566Z</time></trkpt><trkpt lat="43.2663812" lon="10.8780061"><ele>364.0</ele><time>2026-05-03T13:58:48.566Z</time></trkpt><trkpt lat="43.2665105" lon="10.8778924"><ele>364.0</ele><time>2026-05-03T13:58:49.566Z</time></trkpt><trkpt lat="43.266645" lon="10.8777975"><ele>364.75</ele><time>2026-05-03T13:58:50.566Z</time></trkpt><trkpt lat="43.2667827" lon="10.8777453"><ele>365.5</ele><time>2026-05-03T13:58:51.566Z</time></trkpt><trkpt lat="43.2669227" lon="10.8777265"><ele>366.25</ele><time>2026-05-03T13:58:52.566Z</time></trkpt><trkpt lat="43.267057" lon="10.8778118"><ele>367.0</ele><time>2026-05-03T13:58:53.566Z</time></trkpt><trkpt lat="43.2671964" lon="10.8779145"><ele>360.0</ele><time>2026-05-03T13:58:54.567Z</time></trkpt><trkpt lat="43.2673454" lon="10.878043"><ele>353.0</ele><time>2026-05-03T13:58:55.565Z</time></trkpt><trkpt lat="43.2674826" lon="10.8781859"><ele>346.0</ele><time>2026-05-03T13:58:56.566Z</time></trkpt><trkpt lat="43.2675969" lon="10.8783666"><ele>350.3333333333333</ele><time>2026-05-03T13:58:57.567Z</time></trkpt><trkpt lat="43.2676927" lon="10.8785701"><ele>354.6666666666667</ele><time>2026-05-03T13:58:58.566Z</time></trkpt><trkpt lat="43.2677809" lon="10.8787686"><ele>359.0</ele><time>2026-05-03T13:58:59.567Z</time></trkpt><trkpt lat="43.2678876" lon="10.8789433"><ele>359.0</ele><time>2026-05-03T13:59:00.566Z</time></trkpt><trkpt lat="43.2679978" lon="10.8790928"><ele>359.0</ele><time>2026-05-03T13:59:01.565Z</time></trkpt><trkpt lat="43.2681048" lon="10.8792282"><ele>359.0</ele><time>2026-05-03T13:59:02.566Z</time></trkpt><trkpt lat="43.2681985" lon="10.8793565"><ele>359.0</ele><time>2026-05-03T13:59:03.566Z</time></trkpt><trkpt lat="43.2682786" lon="10.87948"><ele>354.0</ele><time>2026-05-03T13:59:04.565Z</time></trkpt><trkpt lat="43.2683362" lon="10.8796165"><ele>349.0</ele><time>2026-05-03T13:59:05.566Z</time></trkpt><trkpt lat="43.2683361" lon="10.8797682"><ele>344.0</ele><time>2026-05-03T13:59:06.566Z</time></trkpt><trkpt lat="43.2682973" lon="10.8799315"><ele>339.0</ele><time>2026-05-03T13:59:07.565Z</time></trkpt><trkpt lat="43.2682374" lon="10.8801261"><ele>337.3333333333333</ele><time>2026-05-03T13:59:08.566Z</time></trkpt><trkpt lat="43.2681847" lon="10.8803487"><ele>335.66666666666663</ele><time>2026-05-03T13:59:09.567Z</time></trkpt><trkpt lat="43.26814" lon="10.8805746"><ele>334.0</ele><time>2026-05-03T13:59:10.567Z</time></trkpt><trkpt lat="43.2681043" lon="10.8807917"><ele>336.3333333333333</ele><time>2026-05-03T13:59:11.566Z</time></trkpt><trkpt lat="43.2680645" lon="10.8809882"><ele>338.6666666666667</ele><time>2026-05-03T13:59:12.567Z</time></trkpt><trkpt lat="43.2679968" lon="10.8811759"><ele>341.0</ele><time>2026-05-03T13:59:13.567Z</time></trkpt><trkpt lat="43.2678984" lon="10.8813473"><ele>341.0</ele><time>2026-05-03T13:59:14.565Z</time></trkpt><trkpt lat="43.2677711" lon="10.881516"><ele>341.0</ele><time>2026-05-03T13:59:15.567Z</time></trkpt><trkpt lat="43.2676563" lon="10.8816946"><ele>341.0</ele><time>2026-05-03T13:59:16.565Z</time></trkpt><trkpt lat="43.2675753" lon="10.8818881"><ele>337.33333333333337</ele><time>2026-05-03T13:59:17.566Z</time></trkpt><trkpt lat="43.2675046" lon="10.8821046"><ele>333.6666666666667</ele><time>2026-05-03T13:59:18.565Z</time></trkpt><trkpt lat="43.2674521" lon="10.8823517"><ele>330.0</ele><time>2026-05-03T13:59:19.566Z</time></trkpt><trkpt lat="43.2674022" lon="10.8825995"><ele>329.5</ele><time>2026-05-03T13:59:20.566Z</time></trkpt><trkpt lat="43.2673545" lon="10.8828194"><ele>329.0</ele><time>2026-05-03T13:59:21.567Z</time></trkpt><trkpt lat="43.2673046" lon="10.8830026"><ele>328.5</ele><time>2026-05-03T13:59:22.567Z</time></trkpt><trkpt lat="43.2672705" lon="10.8831612"><ele>328.0</ele><time>2026-05-03T13:59:23.565Z</time></trkpt><trkpt lat="43.2672519" lon="10.8833086"><ele>328.79999999999995</ele><time>2026-05-03T13:59:24.567Z</time></trkpt><trkpt lat="43.2672684" lon="10.8834419"><ele>329.6</ele><time>2026-05-03T13:59:25.566Z</time></trkpt><trkpt lat="43.2673241" lon="10.8835549"><ele>330.4</ele><time>2026-05-03T13:59:26.566Z</time></trkpt><trkpt lat="43.2674227" lon="10.8836325"><ele>331.20000000000005</ele><time>2026-05-03T13:59:27.567Z</time></trkpt><trkpt lat="43.2675532" lon="10.8836928"><ele>332.0</ele><time>2026-05-03T13:59:28.566Z</time></trkpt><trkpt lat="43.2677056" lon="10.8837414"><ele>332.0</ele><time>2026-05-03T13:59:29.567Z</time></trkpt><trkpt lat="43.2678593" lon="10.8838183"><ele>332.0</ele><time>2026-05-03T13:59:30.566Z</time></trkpt><trkpt lat="43.268007" lon="10.8839351"><ele>332.0</ele><time>2026-05-03T13:59:31.566Z</time></trkpt><trkpt lat="43.2681492" lon="10.8840841"><ele>330.0</ele><time>2026-05-03T13:59:32.566Z</time></trkpt><trkpt lat="43.2682917" lon="10.8842522"><ele>328.0</ele><time>2026-05-03T13:59:33.566Z</time></trkpt><trkpt lat="43.2684227" lon="10.8844114"><ele>326.0</ele><time>2026-05-03T13:59:34.566Z</time></trkpt><trkpt lat="43.2685376" lon="10.8845513"><ele>326.0</ele><time>2026-05-03T13:59:35.567Z</time></trkpt><trkpt lat="43.2686357" lon="10.8846813"><ele>326.0</ele><time>2026-05-03T13:59:36.565Z</time></trkpt><trkpt lat="43.2687025" lon="10.8848228"><ele>326.0</ele><time>2026-05-03T13:59:37.566Z</time></trkpt><trkpt lat="43.2687242" lon="10.8849827"><ele>326.0</ele><time>2026-05-03T13:59:38.567Z</time></trkpt><trkpt lat="43.268713" lon="10.8851611"><ele>326.75</ele><time>2026-05-03T13:59:39.566Z</time></trkpt><trkpt lat="43.2687064" lon="10.8853302"><ele>327.5</ele><time>2026-05-03T13:59:40.566Z</time></trkpt><trkpt lat="43.2687188" lon="10.8854947"><ele>328.25</ele><time>2026-05-03T13:59:41.566Z</time></trkpt><trkpt lat="43.2687726" lon="10.885651"><ele>329.0</ele><time>2026-05-03T13:59:42.566Z</time></trkpt><trkpt lat="43.268862" lon="10.8857936"><ele>325.75</ele><time>2026-05-03T13:59:43.567Z</time></trkpt><trkpt lat="43.268977" lon="10.8859221"><ele>322.5</ele><time>2026-05-03T13:59:44.566Z</time></trkpt><trkpt lat="43.2691034" lon="10.8860256"><ele>319.25</ele><time>2026-05-03T13:59:45.566Z</time></trkpt><trkpt lat="43.2692215" lon="10.886115"><ele>316.0</ele><time>2026-05-03T13:59:46.566Z</time></trkpt><trkpt lat="43.2693045" lon="10.8862116"><ele>316.0</ele><time>2026-05-03T13:59:47.566Z</time></trkpt><trkpt lat="43.2693595" lon="10.8863381"><ele>316.0</ele><time>2026-05-03T13:59:48.566Z</time></trkpt><trkpt lat="43.2693723" lon="10.8864826"><ele>316.0</ele><time>2026-05-03T13:59:49.567Z</time></trkpt><trkpt lat="43.2693345" lon="10.8866432"><ele>316.0</ele><time>2026-05-03T13:59:50.566Z</time></trkpt><trkpt lat="43.2692747" lon="10.8868211"><ele>314.66666666666663</ele><time>2026-05-03T13:59:51.566Z</time></trkpt><trkpt lat="43.2692302" lon="10.8870263"><ele>313.3333333333333</ele><time>2026-05-03T13:59:52.566Z</time></trkpt><trkpt lat="43.2692018" lon="10.8872422"><ele>312.0</ele><time>2026-05-03T13:59:53.566Z</time></trkpt><trkpt lat="43.2692034" lon="10.8874639"><ele>310.6666666666667</ele><time>2026-05-03T13:59:54.567Z</time></trkpt><trkpt lat="43.2692274" lon="10.8876835"><ele>309.33333333333337</ele><time>2026-05-03T13:59:55.566Z</time></trkpt><trkpt lat="43.2692587" lon="10.8878967"><ele>308.0</ele><time>2026-05-03T13:59:56.566Z</time></trkpt><trkpt lat="43.269282" lon="10.8881038"><ele>308.0</ele><time>2026-05-03T13:59:57.566Z</time></trkpt><trkpt lat="43.269257" lon="10.8883037"><ele>308.0</ele><time>2026-05-03T13:59:58.566Z</time></trkpt><trkpt lat="43.2692148" lon="10.8884885"><ele>308.0</ele><time>2026-05-03T13:59:59.567Z</time></trkpt><trkpt lat="43.2691793" lon="10.8886749"><ele>308.0</ele><time>2026-05-03T14:00:00.566Z</time></trkpt><trkpt lat="43.2691834" lon="10.8888817"><ele>307.33333333333337</ele><time>2026-05-03T14:00:01.567Z</time></trkpt><trkpt lat="43.2692118" lon="10.8891111"><ele>306.6666666666667</ele><time>2026-05-03T14:00:02.566Z</time></trkpt><trkpt lat="43.2692529" lon="10.8893489"><ele>306.0</ele><time>2026-05-03T14:00:03.565Z</time></trkpt><trkpt lat="43.269299" lon="10.889588"><ele>305.0</ele><time>2026-05-03T14:00:04.568Z</time></trkpt><trkpt lat="43.2693301" lon="10.8898067"><ele>304.0</ele><time>2026-05-03T14:00:05.566Z</time></trkpt><trkpt lat="43.2693509" lon="10.8900168"><ele>303.0</ele><time>2026-05-03T14:00:06.567Z</time></trkpt><trkpt lat="43.2693477" lon="10.890219"><ele>301.6666666666667</ele><time>2026-05-03T14:00:07.567Z</time></trkpt><trkpt lat="43.2693292" lon="10.8904217"><ele>300.33333333333337</ele><time>2026-05-03T14:00:08.566Z</time></trkpt><trkpt lat="43.2692971" lon="10.8906297"><ele>299.0</ele><time>2026-05-03T14:00:09.567Z</time></trkpt><trkpt lat="43.2692518" lon="10.8908443"><ele>295.6666666666667</ele><time>2026-05-03T14:00:10.566Z</time></trkpt><trkpt lat="43.2692101" lon="10.8910673"><ele>292.3333333333333</ele><time>2026-05-03T14:00:11.567Z</time></trkpt><trkpt lat="43.2691655" lon="10.8912831"><ele>289.0</ele><time>2026-05-03T14:00:12.566Z</time></trkpt><trkpt lat="43.2691272" lon="10.8914913"><ele>289.0</ele><time>2026-05-03T14:00:13.566Z</time></trkpt><trkpt lat="43.2690824" lon="10.8916899"><ele>289.0</ele><time>2026-05-03T14:00:14.567Z</time></trkpt><trkpt lat="43.2690225" lon="10.8918587"><ele>289.0</ele><time>2026-05-03T14:00:15.567Z</time></trkpt><trkpt lat="43.2689436" lon="10.8919905"><ele>289.0</ele><time>2026-05-03T14:00:16.566Z</time></trkpt><trkpt lat="43.2688606" lon="10.8920998"><ele>288.0</ele><time>2026-05-03T14:00:17.565Z</time></trkpt><trkpt lat="43.2688071" lon="10.8922141"><ele>287.0</ele><time>2026-05-03T14:00:18.566Z</time></trkpt><trkpt lat="43.2687992" lon="10.8923342"><ele>286.0</ele><time>2026-05-03T14:00:19.566Z</time></trkpt><trkpt lat="43.2688299" lon="10.8924461"><ele>285.0</ele><time>2026-05-03T14:00:20.567Z</time></trkpt><trkpt lat="43.2689029" lon="10.8925683"><ele>284.0</ele><time>2026-05-03T14:00:21.565Z</time></trkpt><trkpt lat="43.2690152" lon="10.892683"><ele>284.0</ele><time>2026-05-03T14:00:22.566Z</time></trkpt><trkpt lat="43.2691547" lon="10.8928128"><ele>284.0</ele><time>2026-05-03T14:00:23.566Z</time></trkpt><trkpt lat="43.2693065" lon="10.8929541"><ele>284.0</ele><time>2026-05-03T14:00:24.566Z</time></trkpt><trkpt lat="43.269488" lon="10.8931041"><ele>284.0</ele><time>2026-05-03T14:00:25.567Z</time></trkpt><trkpt lat="43.2696621" lon="10.8932553"><ele>284.0</ele><time>2026-05-03T14:00:26.565Z</time></trkpt><trkpt lat="43.2698418" lon="10.8934082"><ele>284.0</ele><time>2026-05-03T14:00:27.566Z</time></trkpt><trkpt lat="43.2700185" lon="10.893567"><ele>282.33333333333337</ele><time>2026-05-03T14:00:28.566Z</time></trkpt><trkpt lat="43.2701981" lon="10.8937188"><ele>280.6666666666667</ele><time>2026-05-03T14:00:29.567Z</time></trkpt><trkpt lat="43.2703867" lon="10.8938591"><ele>279.0</ele><time>2026-05-03T14:00:30.566Z</time></trkpt><trkpt lat="43.2705854" lon="10.8939702"><ele>280.3333333333333</ele><time>2026-05-03T14:00:31.565Z</time></trkpt><trkpt lat="43.2707862" lon="10.8940538"><ele>281.66666666666663</ele><time>2026-05-03T14:00:32.565Z</time></trkpt><trkpt lat="43.2709874" lon="10.8941144"><ele>283.0</ele><time>2026-05-03T14:00:33.566Z</time></trkpt><trkpt lat="43.2711863" lon="10.894165"><ele>283.0</ele><time>2026-05-03T14:00:34.566Z</time></trkpt><trkpt lat="43.2713869" lon="10.8942267"><ele>283.0</ele><time>2026-05-03T14:00:35.566Z</time></trkpt><trkpt lat="43.2715843" lon="10.8942739"><ele>283.0</ele><time>2026-05-03T14:00:36.567Z</time></trkpt><trkpt lat="43.2717758" lon="10.8942936"><ele>282.3333333333333</ele><time>2026-05-03T14:00:37.566Z</time></trkpt><trkpt lat="43.2719672" lon="10.8942831"><ele>281.6666666666667</ele><time>2026-05-03T14:00:38.566Z</time></trkpt><trkpt lat="43.2721559" lon="10.894242"><ele>281.0</ele><time>2026-05-03T14:00:39.567Z</time></trkpt><trkpt lat="43.2723428" lon="10.894176"><ele>278.6666666666667</ele><time>2026-05-03T14:00:40.568Z</time></trkpt><trkpt lat="43.2725267" lon="10.8940965"><ele>276.3333333333333</ele><time>2026-05-03T14:00:41.566Z</time></trkpt><trkpt lat="43.2727095" lon="10.8940077"><ele>274.0</ele><time>2026-05-03T14:00:42.565Z</time></trkpt><trkpt lat="43.272891" lon="10.8939198"><ele>274.0</ele><time>2026-05-03T14:00:43.567Z</time></trkpt><trkpt lat="43.2730728" lon="10.8938375"><ele>274.0</ele><time>2026-05-03T14:00:44.566Z</time></trkpt><trkpt lat="43.2732531" lon="10.8937556"><ele>274.0</ele><time>2026-05-03T14:00:45.565Z</time></trkpt><trkpt lat="43.2734338" lon="10.8936764"><ele>274.3333333333333</ele><time>2026-05-03T14:00:46.566Z</time></trkpt><trkpt lat="43.2736118" lon="10.893602"><ele>274.6666666666667</ele><time>2026-05-03T14:00:47.566Z</time></trkpt><trkpt lat="43.2737906" lon="10.8935332"><ele>275.0</ele><time>2026-05-03T14:00:48.567Z</time></trkpt><trkpt lat="43.2739735" lon="10.8934864"><ele>277.0</ele><time>2026-05-03T14:00:49.566Z</time></trkpt><trkpt lat="43.2741595" lon="10.8934628"><ele>279.0</ele><time>2026-05-03T14:00:50.566Z</time></trkpt><trkpt lat="43.2743393" lon="10.8934844"><ele>281.0</ele><time>2026-05-03T14:00:51.567Z</time></trkpt><trkpt lat="43.2745258" lon="10.893541"><ele>281.0</ele><time>2026-05-03T14:00:52.566Z</time></trkpt><trkpt lat="43.2747146" lon="10.8936232"><ele>281.0</ele><time>2026-05-03T14:00:53.565Z</time></trkpt><trkpt lat="43.2749103" lon="10.8937145"><ele>281.0</ele><time>2026-05-03T14:00:54.566Z</time></trkpt><trkpt lat="43.2751068" lon="10.8938042"><ele>281.0</ele><time>2026-05-03T14:00:55.565Z</time></trkpt><trkpt lat="43.2753029" lon="10.8938939"><ele>281.0</ele><time>2026-05-03T14:00:56.566Z</time></trkpt><trkpt lat="43.2755053" lon="10.8939828"><ele>281.0</ele><time>2026-05-03T14:00:57.566Z</time></trkpt><trkpt lat="43.2757085" lon="10.894077"><ele>280.33333333333337</ele><time>2026-05-03T14:00:58.566Z</time></trkpt><trkpt lat="43.275913" lon="10.8941486"><ele>279.6666666666667</ele><time>2026-05-03T14:00:59.566Z</time></trkpt><trkpt lat="43.2761192" lon="10.8941982"><ele>279.0</ele><time>2026-05-03T14:01:00.566Z</time></trkpt><trkpt lat="43.2763289" lon="10.8942084"><ele>278.5</ele><time>2026-05-03T14:01:01.567Z</time></trkpt><trkpt lat="43.276554" lon="10.8941704"><ele>278.0</ele><time>2026-05-03T14:01:02.565Z</time></trkpt><trkpt lat="43.2767797" lon="10.8941159"><ele>278.0</ele><time>2026-05-03T14:01:03.566Z</time></trkpt><trkpt lat="43.2770272" lon="10.8940297"><ele>278.0</ele><time>2026-05-03T14:01:04.565Z</time></trkpt><trkpt lat="43.2772865" lon="10.8939417"><ele>279.5</ele><time>2026-05-03T14:01:05.565Z</time></trkpt><trkpt lat="43.2775504" lon="10.8938524"><ele>281.0</ele><time>2026-05-03T14:01:06.566Z</time></trkpt><trkpt lat="43.2778163" lon="10.8937639"><ele>281.0</ele><time>2026-05-03T14:01:07.565Z</time></trkpt><trkpt lat="43.278066" lon="10.8936792"><ele>281.0</ele><time>2026-05-03T14:01:08.565Z</time></trkpt><trkpt lat="43.2783029" lon="10.8936014"><ele>280.0</ele><time>2026-05-03T14:01:09.566Z</time></trkpt><trkpt lat="43.2785348" lon="10.8935252"><ele>279.0</ele><time>2026-05-03T14:01:10.565Z</time></trkpt><trkpt lat="43.2787603" lon="10.8934364"><ele>280.5</ele><time>2026-05-03T14:01:11.566Z</time></trkpt><trkpt lat="43.2789797" lon="10.8933289"><ele>282.0</ele><time>2026-05-03T14:01:12.566Z</time></trkpt><trkpt lat="43.2791876" lon="10.8931587"><ele>282.0</ele><time>2026-05-03T14:01:13.568Z</time></trkpt><trkpt lat="43.2794044" lon="10.892994"><ele>282.0</ele><time>2026-05-03T14:01:14.566Z</time></trkpt><trkpt lat="43.2796291" lon="10.8928545"><ele>281.5</ele><time>2026-05-03T14:01:15.565Z</time></trkpt><trkpt lat="43.2798605" lon="10.8927659"><ele>281.0</ele><time>2026-05-03T14:01:16.565Z</time></trkpt><trkpt lat="43.2800808" lon="10.8927037"><ele>281.0</ele><time>2026-05-03T14:01:17.566Z</time></trkpt><trkpt lat="43.2802826" lon="10.8926522"><ele>281.0</ele><time>2026-05-03T14:01:18.566Z</time></trkpt><trkpt lat="43.2804677" lon="10.8925875"><ele>281.0</ele><time>2026-05-03T14:01:19.565Z</time></trkpt><trkpt lat="43.2806381" lon="10.8924919"><ele>285.0</ele><time>2026-05-03T14:01:20.566Z</time></trkpt><trkpt lat="43.2807941" lon="10.8923553"><ele>289.0</ele><time>2026-05-03T14:01:21.565Z</time></trkpt><trkpt lat="43.280936" lon="10.8921788"><ele>293.0</ele><time>2026-05-03T14:01:22.566Z</time></trkpt><trkpt lat="43.2810577" lon="10.8919705"><ele>293.33333333333337</ele><time>2026-05-03T14:01:23.566Z</time></trkpt><trkpt lat="43.2811812" lon="10.8917568"><ele>293.6666666666667</ele><time>2026-05-03T14:01:24.567Z</time></trkpt><trkpt lat="43.2813234" lon="10.8915621"><ele>294.0</ele><time>2026-05-03T14:01:25.565Z</time></trkpt><trkpt lat="43.2814891" lon="10.8914067"><ele>295.0</ele><time>2026-05-03T14:01:26.566Z</time></trkpt><trkpt lat="43.281681" lon="10.8912939"><ele>296.0</ele><time>2026-05-03T14:01:27.566Z</time></trkpt><trkpt lat="43.2819016" lon="10.891206"><ele>297.0</ele><time>2026-05-03T14:01:28.566Z</time></trkpt><trkpt lat="43.2821332" lon="10.891121"><ele>298.5</ele><time>2026-05-03T14:01:29.566Z</time></trkpt><trkpt lat="43.282362" lon="10.8910388"><ele>300.0</ele><time>2026-05-03T14:01:30.566Z</time></trkpt><trkpt lat="43.282572" lon="10.8909533"><ele>302.3333333333333</ele><time>2026-05-03T14:01:31.566Z</time></trkpt><trkpt lat="43.2827798" lon="10.8908836"><ele>304.66666666666663</ele><time>2026-05-03T14:01:32.566Z</time></trkpt><trkpt lat="43.2829892" lon="10.8908316"><ele>307.0</ele><time>2026-05-03T14:01:33.565Z</time></trkpt><trkpt lat="43.2832096" lon="10.8908247"><ele>308.0</ele><time>2026-05-03T14:01:34.566Z</time></trkpt><trkpt lat="43.2834501" lon="10.8908525"><ele>309.0</ele><time>2026-05-03T14:01:35.566Z</time></trkpt><trkpt lat="43.2836753" lon="10.8908832"><ele>308.0</ele><time>2026-05-03T14:01:36.567Z</time></trkpt><trkpt lat="43.2838897" lon="10.8909246"><ele>307.0</ele><time>2026-05-03T14:01:37.566Z</time></trkpt><trkpt lat="43.2841029" lon="10.8909471"><ele>306.0</ele><time>2026-05-03T14:01:38.566Z</time></trkpt><trkpt lat="43.2843181" lon="10.8909293"><ele>309.0</ele><time>2026-05-03T14:01:39.565Z</time></trkpt><trkpt lat="43.2845396" lon="10.8908708"><ele>312.0</ele><time>2026-05-03T14:01:40.566Z</time></trkpt><trkpt lat="43.284772" lon="10.8907889"><ele>313.0</ele><time>2026-05-03T14:01:41.566Z</time></trkpt><trkpt lat="43.2850064" lon="10.8906943"><ele>314.0</ele><time>2026-05-03T14:01:42.567Z</time></trkpt><trkpt lat="43.2852357" lon="10.8906122"><ele>314.0</ele><time>2026-05-03T14:01:43.567Z</time></trkpt><trkpt lat="43.2854428" lon="10.8905302"><ele>314.0</ele><time>2026-05-03T14:01:44.567Z</time></trkpt><trkpt lat="43.2856391" lon="10.8904554"><ele>314.0</ele><time>2026-05-03T14:01:45.566Z</time></trkpt><trkpt lat="43.2858272" lon="10.8903695"><ele>314.6666666666667</ele><time>2026-05-03T14:01:46.566Z</time></trkpt><trkpt lat="43.2860031" lon="10.8902379"><ele>315.3333333333333</ele><time>2026-05-03T14:01:47.566Z</time></trkpt><trkpt lat="43.2861614" lon="10.8900809"><ele>316.0</ele><time>2026-05-03T14:01:48.567Z</time></trkpt><trkpt lat="43.2862872" lon="10.8899015"><ele>317.3333333333333</ele><time>2026-05-03T14:01:49.566Z</time></trkpt><trkpt lat="43.2863884" lon="10.8896912"><ele>318.6666666666667</ele><time>2026-05-03T14:01:50.566Z</time></trkpt><trkpt lat="43.286457" lon="10.8894491"><ele>320.0</ele><time>2026-05-03T14:01:51.566Z</time></trkpt><trkpt lat="43.286488" lon="10.8891957"><ele>320.0</ele><time>2026-05-03T14:01:52.567Z</time></trkpt><trkpt lat="43.2864896" lon="10.8889396"><ele>320.0</ele><time>2026-05-03T14:01:53.566Z</time></trkpt><trkpt lat="43.2864551" lon="10.8886874"><ele>320.0</ele><time>2026-05-03T14:01:54.566Z</time></trkpt><trkpt lat="43.2863784" lon="10.888457"><ele>319.0</ele><time>2026-05-03T14:01:55.566Z</time></trkpt><trkpt lat="43.2862761" lon="10.8882465"><ele>318.0</ele><time>2026-05-03T14:01:56.566Z</time></trkpt><trkpt lat="43.2861671" lon="10.8880534"><ele>317.0</ele><time>2026-05-03T14:01:57.566Z</time></trkpt><trkpt lat="43.28607" lon="10.8878604"><ele>317.0</ele><time>2026-05-03T14:01:58.566Z</time></trkpt><trkpt lat="43.2859944" lon="10.8876497"><ele>317.0</ele><time>2026-05-03T14:01:59.566Z</time></trkpt><trkpt lat="43.2859451" lon="10.8874161"><ele>317.0</ele><time>2026-05-03T14:02:00.565Z</time></trkpt><trkpt lat="43.285927" lon="10.8871751"><ele>319.0</ele><time>2026-05-03T14:02:01.566Z</time></trkpt><trkpt lat="43.2859439" lon="10.8869209"><ele>321.0</ele><time>2026-05-03T14:02:02.567Z</time></trkpt><trkpt lat="43.2860029" lon="10.8866696"><ele>323.0</ele><time>2026-05-03T14:02:03.566Z</time></trkpt><trkpt lat="43.2860814" lon="10.8864522"><ele>323.0</ele><time>2026-05-03T14:02:04.566Z</time></trkpt><trkpt lat="43.2861934" lon="10.8862484"><ele>323.0</ele><time>2026-05-03T14:02:05.567Z</time></trkpt><trkpt lat="43.2863311" lon="10.8860419"><ele>323.0</ele><time>2026-05-03T14:02:06.566Z</time></trkpt><trkpt lat="43.2864713" lon="10.8858289"><ele>325.6666666666667</ele><time>2026-05-03T14:02:07.565Z</time></trkpt><trkpt lat="43.2866212" lon="10.8856293"><ele>328.3333333333333</ele><time>2026-05-03T14:02:08.567Z</time></trkpt><trkpt lat="43.2867936" lon="10.8854587"><ele>331.0</ele><time>2026-05-03T14:02:09.566Z</time></trkpt><trkpt lat="43.2869737" lon="10.8853059"><ele>331.0</ele><time>2026-05-03T14:02:10.567Z</time></trkpt><trkpt lat="43.2871522" lon="10.8851606"><ele>331.0</ele><time>2026-05-03T14:02:11.566Z</time></trkpt><trkpt lat="43.2873161" lon="10.88502"><ele>331.0</ele><time>2026-05-03T14:02:12.565Z</time></trkpt><trkpt lat="43.2874672" lon="10.8848674"><ele>330.66666666666663</ele><time>2026-05-03T14:02:13.566Z</time></trkpt><trkpt lat="43.2875976" lon="10.8846864"><ele>330.3333333333333</ele><time>2026-05-03T14:02:14.566Z</time></trkpt><trkpt lat="43.2877118" lon="10.8844942"><ele>330.0</ele><time>2026-05-03T14:02:15.567Z</time></trkpt><trkpt lat="43.2878292" lon="10.8843142"><ele>328.6666666666667</ele><time>2026-05-03T14:02:16.566Z</time></trkpt><trkpt lat="43.2879773" lon="10.8841691"><ele>327.33333333333337</ele><time>2026-05-03T14:02:17.566Z</time></trkpt><trkpt lat="43.2881391" lon="10.8840506"><ele>326.0</ele><time>2026-05-03T14:02:18.566Z</time></trkpt><trkpt lat="43.2883065" lon="10.8839367"><ele>326.0</ele><time>2026-05-03T14:02:19.565Z</time></trkpt><trkpt lat="43.2884666" lon="10.883804"><ele>326.0</ele><time>2026-05-03T14:02:20.567Z</time></trkpt><trkpt lat="43.2886021" lon="10.8836465"><ele>326.0</ele><time>2026-05-03T14:02:21.566Z</time></trkpt><trkpt lat="43.2887139" lon="10.8834618"><ele>323.0</ele><time>2026-05-03T14:02:22.567Z</time></trkpt><trkpt lat="43.288793" lon="10.8832372"><ele>320.0</ele><time>2026-05-03T14:02:23.566Z</time></trkpt><trkpt lat="43.2888509" lon="10.8829923"><ele>317.0</ele><time>2026-05-03T14:02:24.566Z</time></trkpt><trkpt lat="43.2888743" lon="10.8827414"><ele>315.33333333333337</ele><time>2026-05-03T14:02:25.565Z</time></trkpt><trkpt lat="43.2888673" lon="10.8824821"><ele>313.6666666666667</ele><time>2026-05-03T14:02:26.565Z</time></trkpt><trkpt lat="43.2888288" lon="10.882228"><ele>312.0</ele><time>2026-05-03T14:02:27.565Z</time></trkpt><trkpt lat="43.2887615" lon="10.8819783"><ele>311.3333333333333</ele><time>2026-05-03T14:02:28.565Z</time></trkpt><trkpt lat="43.2886846" lon="10.8817288"><ele>310.66666666666663</ele><time>2026-05-03T14:02:29.566Z</time></trkpt><trkpt lat="43.2886146" lon="10.8814727"><ele>310.0</ele><time>2026-05-03T14:02:30.566Z</time></trkpt><trkpt lat="43.2885602" lon="10.8812108"><ele>310.0</ele><time>2026-05-03T14:02:31.565Z</time></trkpt><trkpt lat="43.2885186" lon="10.8809443"><ele>310.0</ele><time>2026-05-03T14:02:32.566Z</time></trkpt><trkpt lat="43.2884977" lon="10.8806751"><ele>310.0</ele><time>2026-05-03T14:02:33.566Z</time></trkpt><trkpt lat="43.2885029" lon="10.8804026"><ele>310.66666666666663</ele><time>2026-05-03T14:02:34.565Z</time></trkpt><trkpt lat="43.28853" lon="10.8801321"><ele>311.3333333333333</ele><time>2026-05-03T14:02:35.566Z</time></trkpt><trkpt lat="43.2885788" lon="10.8798656"><ele>312.0</ele><time>2026-05-03T14:02:36.565Z</time></trkpt><trkpt lat="43.2886456" lon="10.8796077"><ele>313.5</ele><time>2026-05-03T14:02:37.566Z</time></trkpt><trkpt lat="43.288757" lon="10.8793488"><ele>315.0</ele><time>2026-05-03T14:02:38.566Z</time></trkpt><trkpt lat="43.288898" lon="10.8790899"><ele>313.0</ele><time>2026-05-03T14:02:39.566Z</time></trkpt><trkpt lat="43.2890608" lon="10.8788101"><ele>311.0</ele><time>2026-05-03T14:02:40.566Z</time></trkpt><trkpt lat="43.2892241" lon="10.8785262"><ele>313.0</ele><time>2026-05-03T14:02:41.566Z</time></trkpt><trkpt lat="43.2893879" lon="10.8782248"><ele>315.0</ele><time>2026-05-03T14:02:42.566Z</time></trkpt><trkpt lat="43.2895633" lon="10.8779162"><ele>315.0</ele><time>2026-05-03T14:02:43.566Z</time></trkpt><trkpt lat="43.2897364" lon="10.8776205"><ele>315.0</ele><time>2026-05-03T14:02:44.566Z</time></trkpt><trkpt lat="43.2899009" lon="10.8773477"><ele>315.0</ele><time>2026-05-03T14:02:45.566Z</time></trkpt><trkpt lat="43.2900523" lon="10.8770774"><ele>315.0</ele><time>2026-05-03T14:02:46.567Z</time></trkpt><trkpt lat="43.2901944" lon="10.8768206"><ele>316.0</ele><time>2026-05-03T14:02:47.566Z</time></trkpt><trkpt lat="43.2903329" lon="10.8765948"><ele>317.0</ele><time>2026-05-03T14:02:48.566Z</time></trkpt><trkpt lat="43.2904779" lon="10.876382"><ele>318.0</ele><time>2026-05-03T14:02:49.567Z</time></trkpt><trkpt lat="43.2906468" lon="10.8762051"><ele>319.0</ele><time>2026-05-03T14:02:50.567Z</time></trkpt><trkpt lat="43.290839" lon="10.876061"><ele>320.0</ele><time>2026-05-03T14:02:51.566Z</time></trkpt><trkpt lat="43.2910579" lon="10.8759598"><ele>322.0</ele><time>2026-05-03T14:02:52.567Z</time></trkpt><trkpt lat="43.2912842" lon="10.8758778"><ele>324.0</ele><time>2026-05-03T14:02:53.566Z</time></trkpt><trkpt lat="43.2914979" lon="10.8758156"><ele>325.3333333333333</ele><time>2026-05-03T14:02:54.566Z</time></trkpt><trkpt lat="43.291708" lon="10.875741"><ele>326.66666666666663</ele><time>2026-05-03T14:02:55.566Z</time></trkpt><trkpt lat="43.2919097" lon="10.875636"><ele>328.0</ele><time>2026-05-03T14:02:56.566Z</time></trkpt><trkpt lat="43.2921037" lon="10.8754964"><ele>328.0</ele><time>2026-05-03T14:02:57.567Z</time></trkpt><trkpt lat="43.2923021" lon="10.8753306"><ele>328.0</ele><time>2026-05-03T14:02:58.566Z</time></trkpt><trkpt lat="43.2925137" lon="10.8751549"><ele>330.5</ele><time>2026-05-03T14:02:59.566Z</time></trkpt><trkpt lat="43.2927365" lon="10.8749889"><ele>333.0</ele><time>2026-05-03T14:03:00.566Z</time></trkpt><trkpt lat="43.2929541" lon="10.8748254"><ele>331.0</ele><time>2026-05-03T14:03:01.566Z</time></trkpt><trkpt lat="43.2931572" lon="10.8746717"><ele>329.0</ele><time>2026-05-03T14:03:02.565Z</time></trkpt><trkpt lat="43.2933604" lon="10.8745297"><ele>329.0</ele><time>2026-05-03T14:03:03.566Z</time></trkpt><trkpt lat="43.2935704" lon="10.874396"><ele>329.0</ele><time>2026-05-03T14:03:04.566Z</time></trkpt><trkpt lat="43.2937979" lon="10.8742886"><ele>332.5</ele><time>2026-05-03T14:03:05.567Z</time></trkpt><trkpt lat="43.2940365" lon="10.8742036"><ele>336.0</ele><time>2026-05-03T14:03:06.567Z</time></trkpt><trkpt lat="43.2942825" lon="10.8741243"><ele>336.0</ele><time>2026-05-03T14:03:07.565Z</time></trkpt><trkpt lat="43.2945217" lon="10.8740654"><ele>336.0</ele><time>2026-05-03T14:03:08.565Z</time></trkpt><trkpt lat="43.2947491" lon="10.8740178"><ele>338.3333333333333</ele><time>2026-05-03T14:03:09.566Z</time></trkpt><trkpt lat="43.2949555" lon="10.8739727"><ele>340.66666666666663</ele><time>2026-05-03T14:03:10.567Z</time></trkpt><trkpt lat="43.2951427" lon="10.8739301"><ele>343.0</ele><time>2026-05-03T14:03:11.565Z</time></trkpt><trkpt lat="43.2953042" lon="10.8738937"><ele>343.0</ele><time>2026-05-03T14:03:12.566Z</time></trkpt><trkpt lat="43.2954431" lon="10.8738644"><ele>343.0</ele><time>2026-05-03T14:03:13.565Z</time></trkpt><trkpt lat="43.2955606" lon="10.8738464"><ele>343.0</ele><time>2026-05-03T14:03:14.567Z</time></trkpt><trkpt lat="43.2956703" lon="10.8738485"><ele>343.0</ele><time>2026-05-03T14:03:15.566Z</time></trkpt><trkpt lat="43.2957598" lon="10.8738788"><ele>344.0</ele><time>2026-05-03T14:03:16.566Z</time></trkpt><trkpt lat="43.2958512" lon="10.8739112"><ele>345.0</ele><time>2026-05-03T14:03:17.567Z</time></trkpt><trkpt lat="43.295938" lon="10.8739242"><ele>346.0</ele><time>2026-05-03T14:03:18.566Z</time></trkpt><trkpt lat="43.2960205" lon="10.8739068"><ele>347.0</ele><time>2026-05-03T14:03:19.565Z</time></trkpt><trkpt lat="43.2960977" lon="10.8738506"><ele>348.0</ele><time>2026-05-03T14:03:20.566Z</time></trkpt><trkpt lat="43.2961717" lon="10.873766"><ele>349.0</ele><time>2026-05-03T14:03:21.566Z</time></trkpt><trkpt lat="43.296278" lon="10.8737012"><ele>349.0</ele><time>2026-05-03T14:03:22.567Z</time></trkpt><trkpt lat="43.2964039" lon="10.8736597"><ele>349.0</ele><time>2026-05-03T14:03:23.567Z</time></trkpt><trkpt lat="43.2965459" lon="10.8736134"><ele>349.0</ele><time>2026-05-03T14:03:24.567Z</time></trkpt><trkpt lat="43.2967029" lon="10.8735534"><ele>349.0</ele><time>2026-05-03T14:03:25.565Z</time></trkpt><trkpt lat="43.2968671" lon="10.8734676"><ele>351.3333333333333</ele><time>2026-05-03T14:03:26.565Z</time></trkpt><trkpt lat="43.2970504" lon="10.8733572"><ele>353.6666666666667</ele><time>2026-05-03T14:03:27.565Z</time></trkpt><trkpt lat="43.2972281" lon="10.8732291"><ele>356.0</ele><time>2026-05-03T14:03:28.566Z</time></trkpt><trkpt lat="43.2974082" lon="10.8730773"><ele>356.33333333333337</ele><time>2026-05-03T14:03:29.566Z</time></trkpt><trkpt lat="43.2975935" lon="10.8729022"><ele>356.6666666666667</ele><time>2026-05-03T14:03:30.566Z</time></trkpt><trkpt lat="43.2977699" lon="10.8727158"><ele>357.0</ele><time>2026-05-03T14:03:31.566Z</time></trkpt><trkpt lat="43.2979297" lon="10.8725323"><ele>357.6666666666667</ele><time>2026-05-03T14:03:32.565Z</time></trkpt><trkpt lat="43.2980696" lon="10.8723508"><ele>358.33333333333337</ele><time>2026-05-03T14:03:33.567Z</time></trkpt><trkpt lat="43.2981945" lon="10.8721875"><ele>359.0</ele><time>2026-05-03T14:03:34.566Z</time></trkpt><trkpt lat="43.2983053" lon="10.8720384"><ele>359.0</ele><time>2026-05-03T14:03:35.566Z</time></trkpt><trkpt lat="43.2984032" lon="10.8719098"><ele>359.0</ele><time>2026-05-03T14:03:36.566Z</time></trkpt><trkpt lat="43.2984913" lon="10.8718004"><ele>359.0</ele><time>2026-05-03T14:03:37.567Z</time></trkpt><trkpt lat="43.2985793" lon="10.8717098"><ele>359.0</ele><time>2026-05-03T14:03:38.566Z</time></trkpt><trkpt lat="43.2986651" lon="10.8716569"><ele>359.83333333333337</ele><time>2026-05-03T14:03:39.566Z</time></trkpt><trkpt lat="43.2987391" lon="10.8716016"><ele>360.6666666666667</ele><time>2026-05-03T14:03:40.566Z</time></trkpt><trkpt lat="43.2987931" lon="10.8715291"><ele>361.5</ele><time>2026-05-03T14:03:41.567Z</time></trkpt><trkpt lat="43.298834" lon="10.8714312"><ele>362.3333333333333</ele><time>2026-05-03T14:03:42.565Z</time></trkpt><trkpt lat="43.2988771" lon="10.8713139"><ele>363.16666666666663</ele><time>2026-05-03T14:03:43.566Z</time></trkpt><trkpt lat="43.2989343" lon="10.8712143"><ele>364.0</ele><time>2026-05-03T14:03:44.567Z</time></trkpt><trkpt lat="43.2989871" lon="10.8711187"><ele>364.0</ele><time>2026-05-03T14:03:45.566Z</time></trkpt><trkpt lat="43.2990487" lon="10.8710283"><ele>364.0</ele><time>2026-05-03T14:03:46.566Z</time></trkpt><trkpt lat="43.2991069" lon="10.8709404"><ele>364.0</ele><time>2026-05-03T14:03:47.566Z</time></trkpt><trkpt lat="43.2991634" lon="10.8708561"><ele>364.0</ele><time>2026-05-03T14:03:48.566Z</time></trkpt><trkpt lat="43.2992167" lon="10.8707759"><ele>364.0</ele><time>2026-05-03T14:03:49.567Z</time></trkpt><trkpt lat="43.2992781" lon="10.870679"><ele>364.0</ele><time>2026-05-03T14:03:50.566Z</time></trkpt><trkpt lat="43.2993475" lon="10.8705619"><ele>364.0</ele><time>2026-05-03T14:03:51.566Z</time></trkpt><trkpt lat="43.2994254" lon="10.8704278"><ele>364.0</ele><time>2026-05-03T14:03:52.566Z</time></trkpt><trkpt lat="43.2995114" lon="10.8702807"><ele>364.0</ele><time>2026-05-03T14:03:53.567Z</time></trkpt><trkpt lat="43.2996067" lon="10.870124"><ele>364.0</ele><time>2026-05-03T14:03:54.566Z</time></trkpt><trkpt lat="43.2997007" lon="10.8699634"><ele>361.66666666666663</ele><time>2026-05-03T14:03:55.566Z</time></trkpt><trkpt lat="43.2997964" lon="10.8697999"><ele>359.3333333333333</ele><time>2026-05-03T14:03:56.566Z</time></trkpt><trkpt lat="43.299892" lon="10.8696396"><ele>357.0</ele><time>2026-05-03T14:03:57.565Z</time></trkpt><trkpt lat="43.2999821" lon="10.8694736"><ele>357.0</ele><time>2026-05-03T14:03:58.567Z</time></trkpt><trkpt lat="43.3000773" lon="10.8693085"><ele>357.0</ele><time>2026-05-03T14:03:59.566Z</time></trkpt><trkpt lat="43.3001715" lon="10.8691443"><ele>357.0</ele><time>2026-05-03T14:04:00.567Z</time></trkpt><trkpt lat="43.3002652" lon="10.8689801"><ele>355.3333333333333</ele><time>2026-05-03T14:04:01.567Z</time></trkpt><trkpt lat="43.3003556" lon="10.8688172"><ele>353.66666666666663</ele><time>2026-05-03T14:04:02.565Z</time></trkpt><trkpt lat="43.3004344" lon="10.8686424"><ele>352.0</ele><time>2026-05-03T14:04:03.566Z</time></trkpt><trkpt lat="43.3005036" lon="10.868457"><ele>353.0</ele><time>2026-05-03T14:04:04.566Z</time></trkpt><trkpt lat="43.300561" lon="10.8682606"><ele>354.0</ele><time>2026-05-03T14:04:05.565Z</time></trkpt><trkpt lat="43.3006101" lon="10.8680731"><ele>355.0</ele><time>2026-05-03T14:04:06.566Z</time></trkpt><trkpt lat="43.3006475" lon="10.8678668"><ele>352.3333333333333</ele><time>2026-05-03T14:04:07.565Z</time></trkpt><trkpt lat="43.3006728" lon="10.8676567"><ele>349.6666666666667</ele><time>2026-05-03T14:04:08.566Z</time></trkpt><trkpt lat="43.3006859" lon="10.8674552"><ele>347.0</ele><time>2026-05-03T14:04:09.567Z</time></trkpt><trkpt lat="43.3006912" lon="10.8672449"><ele>345.33333333333337</ele><time>2026-05-03T14:04:10.566Z</time></trkpt><trkpt lat="43.3006927" lon="10.8670268"><ele>343.6666666666667</ele><time>2026-05-03T14:04:11.566Z</time></trkpt><trkpt lat="43.300699" lon="10.8668111"><ele>342.0</ele><time>2026-05-03T14:04:12.566Z</time></trkpt><trkpt lat="43.3007089" lon="10.8665921"><ele>340.6666666666667</ele><time>2026-05-03T14:04:13.566Z</time></trkpt><trkpt lat="43.3007307" lon="10.8663703"><ele>339.33333333333337</ele><time>2026-05-03T14:04:14.567Z</time></trkpt><trkpt lat="43.300754" lon="10.8661471"><ele>338.0</ele><time>2026-05-03T14:04:15.567Z</time></trkpt><trkpt lat="43.3007841" lon="10.8659419"><ele>338.0</ele><time>2026-05-03T14:04:16.566Z</time></trkpt><trkpt lat="43.3008052" lon="10.8657478"><ele>338.0</ele><time>2026-05-03T14:04:17.566Z</time></trkpt><trkpt lat="43.3008183" lon="10.8655668"><ele>338.0</ele><time>2026-05-03T14:04:18.566Z</time></trkpt><trkpt lat="43.3008112" lon="10.865391"><ele>338.0</ele><time>2026-05-03T14:04:19.566Z</time></trkpt><trkpt lat="43.300781" lon="10.8652351"><ele>336.25</ele><time>2026-05-03T14:04:20.566Z</time></trkpt><trkpt lat="43.3007217" lon="10.8650875"><ele>334.5</ele><time>2026-05-03T14:04:21.566Z</time></trkpt><trkpt lat="43.300634" lon="10.86494"><ele>332.75</ele><time>2026-05-03T14:04:22.566Z</time></trkpt><trkpt lat="43.30054" lon="10.8647935"><ele>331.0</ele><time>2026-05-03T14:04:23.566Z</time></trkpt><trkpt lat="43.3004546" lon="10.8646222"><ele>333.66666666666663</ele><time>2026-05-03T14:04:24.567Z</time></trkpt><trkpt lat="43.3003873" lon="10.8644357"><ele>336.3333333333333</ele><time>2026-05-03T14:04:25.566Z</time></trkpt><trkpt lat="43.3003238" lon="10.8642441"><ele>339.0</ele><time>2026-05-03T14:04:26.566Z</time></trkpt><trkpt lat="43.3002628" lon="10.8640599"><ele>339.0</ele><time>2026-05-03T14:04:27.566Z</time></trkpt><trkpt lat="43.3001994" lon="10.8638806"><ele>339.0</ele><time>2026-05-03T14:04:28.566Z</time></trkpt><trkpt lat="43.300137" lon="10.8637072"><ele>339.0</ele><time>2026-05-03T14:04:29.566Z</time></trkpt><trkpt lat="43.3000854" lon="10.8635249"><ele>339.0</ele><time>2026-05-03T14:04:30.566Z</time></trkpt><trkpt lat="43.3000489" lon="10.8633273"><ele>336.0</ele><time>2026-05-03T14:04:31.567Z</time></trkpt><trkpt lat="43.300023" lon="10.8631244"><ele>333.0</ele><time>2026-05-03T14:04:32.565Z</time></trkpt><trkpt lat="43.3000187" lon="10.8629171"><ele>330.0</ele><time>2026-05-03T14:04:33.566Z</time></trkpt><trkpt lat="43.3000398" lon="10.8627092"><ele>330.0</ele><time>2026-05-03T14:04:34.566Z</time></trkpt><trkpt lat="43.3000765" lon="10.8625139"><ele>330.0</ele><time>2026-05-03T14:04:35.565Z</time></trkpt><trkpt lat="43.3001247" lon="10.8623358"><ele>330.0</ele><time>2026-05-03T14:04:36.567Z</time></trkpt><trkpt lat="43.3001767" lon="10.8621678"><ele>330.0</ele><time>2026-05-03T14:04:37.567Z</time></trkpt><trkpt lat="43.3002262" lon="10.8620064"><ele>330.0</ele><time>2026-05-03T14:04:38.567Z</time></trkpt><trkpt lat="43.3002804" lon="10.8618493"><ele>330.0</ele><time>2026-05-03T14:04:39.566Z</time></trkpt><trkpt lat="43.3003287" lon="10.8617008"><ele>330.0</ele><time>2026-05-03T14:04:40.566Z</time></trkpt><trkpt lat="43.3003731" lon="10.8615519"><ele>330.0</ele><time>2026-05-03T14:04:41.567Z</time></trkpt><trkpt lat="43.3003996" lon="10.8613935"><ele>330.4</ele><time>2026-05-03T14:04:42.566Z</time></trkpt><trkpt lat="43.3004089" lon="10.8612332"><ele>330.8</ele><time>2026-05-03T14:04:43.566Z</time></trkpt><trkpt lat="43.300394" lon="10.8610911"><ele>331.20000000000005</ele><time>2026-05-03T14:04:44.566Z</time></trkpt><trkpt lat="43.3003473" lon="10.8609499"><ele>331.6</ele><time>2026-05-03T14:04:45.565Z</time></trkpt><trkpt lat="43.3002951" lon="10.8608199"><ele>332.0</ele><time>2026-05-03T14:04:46.566Z</time></trkpt><trkpt lat="43.3002432" lon="10.8606903"><ele>331.0</ele><time>2026-05-03T14:04:47.565Z</time></trkpt><trkpt lat="43.3001914" lon="10.8605591"><ele>330.0</ele><time>2026-05-03T14:04:48.566Z</time></trkpt><trkpt lat="43.3001469" lon="10.8604254"><ele>329.0</ele><time>2026-05-03T14:04:49.566Z</time></trkpt><trkpt lat="43.3001146" lon="10.8602853"><ele>328.0</ele><time>2026-05-03T14:04:50.566Z</time></trkpt><trkpt lat="43.3000828" lon="10.8601333"><ele>327.0</ele><time>2026-05-03T14:04:51.565Z</time></trkpt><trkpt lat="43.3000508" lon="10.8599823"><ele>324.6</ele><time>2026-05-03T14:04:52.566Z</time></trkpt><trkpt lat="43.300024" lon="10.8598297"><ele>322.20000000000005</ele><time>2026-05-03T14:04:53.566Z</time></trkpt><trkpt lat="43.3000039" lon="10.8596812"><ele>319.8</ele><time>2026-05-03T14:04:54.566Z</time></trkpt><trkpt lat="43.2999887" lon="10.8595342"><ele>317.4</ele><time>2026-05-03T14:04:55.566Z</time></trkpt><trkpt lat="43.299978" lon="10.8593923"><ele>315.0</ele><time>2026-05-03T14:04:56.567Z</time></trkpt><trkpt lat="43.2999669" lon="10.8592488"><ele>313.8</ele><time>2026-05-03T14:04:57.566Z</time></trkpt><trkpt lat="43.2999572" lon="10.8591082"><ele>312.6</ele><time>2026-05-03T14:04:58.565Z</time></trkpt><trkpt lat="43.2999426" lon="10.8589595"><ele>311.4</ele><time>2026-05-03T14:04:59.565Z</time></trkpt><trkpt lat="43.2999434" lon="10.8588174"><ele>310.2</ele><time>2026-05-03T14:05:00.566Z</time></trkpt><trkpt lat="43.299962" lon="10.8586757"><ele>309.0</ele><time>2026-05-03T14:05:01.566Z</time></trkpt><trkpt lat="43.3" lon="10.8585374"><ele>309.2</ele><time>2026-05-03T14:05:02.565Z</time></trkpt><trkpt lat="43.300056" lon="10.8584065"><ele>309.4</ele><time>2026-05-03T14:05:03.566Z</time></trkpt><trkpt lat="43.3001198" lon="10.8582812"><ele>309.6</ele><time>2026-05-03T14:05:04.566Z</time></trkpt><trkpt lat="43.3001744" lon="10.8581506"><ele>309.8</ele><time>2026-05-03T14:05:05.566Z</time></trkpt><trkpt lat="43.300218" lon="10.8580202"><ele>310.0</ele><time>2026-05-03T14:05:06.566Z</time></trkpt><trkpt lat="43.3002498" lon="10.8578819"><ele>310.0</ele><time>2026-05-03T14:05:07.567Z</time></trkpt><trkpt lat="43.3002645" lon="10.8577419"><ele>310.0</ele><time>2026-05-03T14:05:08.565Z</time></trkpt><trkpt lat="43.3002667" lon="10.857602"><ele>310.0</ele><time>2026-05-03T14:05:09.566Z</time></trkpt><trkpt lat="43.3002615" lon="10.8574645"><ele>310.0</ele><time>2026-05-03T14:05:10.566Z</time></trkpt><trkpt lat="43.3002469" lon="10.8573301"><ele>310.0</ele><time>2026-05-03T14:05:11.565Z</time></trkpt><trkpt lat="43.3002281" lon="10.8571959"><ele>309.6</ele><time>2026-05-03T14:05:12.566Z</time></trkpt><trkpt lat="43.3002208" lon="10.8570621"><ele>309.2</ele><time>2026-05-03T14:05:13.566Z</time></trkpt><trkpt lat="43.3002266" lon="10.8569282"><ele>308.8</ele><time>2026-05-03T14:05:14.566Z</time></trkpt><trkpt lat="43.3002493" lon="10.8567885"><ele>308.4</ele><time>2026-05-03T14:05:15.566Z</time></trkpt><trkpt lat="43.3002846" lon="10.8566488"><ele>308.0</ele><time>2026-05-03T14:05:16.565Z</time></trkpt><trkpt lat="43.3003356" lon="10.856521"><ele>305.75</ele><time>2026-05-03T14:05:17.566Z</time></trkpt><trkpt lat="43.3004067" lon="10.8563906"><ele>303.5</ele><time>2026-05-03T14:05:18.566Z</time></trkpt><trkpt lat="43.3004923" lon="10.8562798"><ele>301.25</ele><time>2026-05-03T14:05:19.566Z</time></trkpt><trkpt lat="43.3005872" lon="10.8561708"><ele>299.0</ele><time>2026-05-03T14:05:20.566Z</time></trkpt><trkpt lat="43.3006885" lon="10.8560833"><ele>296.5</ele><time>2026-05-03T14:05:21.565Z</time></trkpt><trkpt lat="43.3007958" lon="10.8560033"><ele>294.0</ele><time>2026-05-03T14:05:22.565Z</time></trkpt><trkpt lat="43.3008929" lon="10.8559318"><ele>291.5</ele><time>2026-05-03T14:05:23.566Z</time></trkpt><trkpt lat="43.3009895" lon="10.8558635"><ele>289.0</ele><time>2026-05-03T14:05:24.566Z</time></trkpt><trkpt lat="43.3010875" lon="10.8557978"><ele>287.75</ele><time>2026-05-03T14:05:25.566Z</time></trkpt><trkpt lat="43.3011874" lon="10.8557582"><ele>286.5</ele><time>2026-05-03T14:05:26.566Z</time></trkpt><trkpt lat="43.3012998" lon="10.8557496"><ele>285.25</ele><time>2026-05-03T14:05:27.566Z</time></trkpt><trkpt lat="43.301419" lon="10.8557725"><ele>284.0</ele><time>2026-05-03T14:05:28.566Z</time></trkpt><trkpt lat="43.3015398" lon="10.8558198"><ele>282.25</ele><time>2026-05-03T14:05:29.566Z</time></trkpt><trkpt lat="43.3016642" lon="10.8558588"><ele>280.5</ele><time>2026-05-03T14:05:30.567Z</time></trkpt><trkpt lat="43.3017875" lon="10.8558795"><ele>278.75</ele><time>2026-05-03T14:05:31.566Z</time></trkpt><trkpt lat="43.3019122" lon="10.8558924"><ele>277.0</ele><time>2026-05-03T14:05:32.566Z</time></trkpt><trkpt lat="43.3020402" lon="10.8559005"><ele>277.0</ele><time>2026-05-03T14:05:33.566Z</time></trkpt><trkpt lat="43.3021661" lon="10.8559174"><ele>277.0</ele><time>2026-05-03T14:05:34.567Z</time></trkpt><trkpt lat="43.3022906" lon="10.8559245"><ele>277.0</ele><time>2026-05-03T14:05:35.566Z</time></trkpt><trkpt lat="43.3024149" lon="10.8559193"><ele>277.0</ele><time>2026-05-03T14:05:36.565Z</time></trkpt><trkpt lat="43.302536" lon="10.8558867"><ele>275.75</ele><time>2026-05-03T14:05:37.567Z</time></trkpt><trkpt lat="43.3026523" lon="10.8558272"><ele>274.5</ele><time>2026-05-03T14:05:38.567Z</time></trkpt><trkpt lat="43.302754" lon="10.8557489"><ele>273.25</ele><time>2026-05-03T14:05:39.566Z</time></trkpt><trkpt lat="43.302849" lon="10.8556333"><ele>272.0</ele><time>2026-05-03T14:05:40.565Z</time></trkpt><trkpt lat="43.3029334" lon="10.8554802"><ele>272.0</ele><time>2026-05-03T14:05:41.566Z</time></trkpt><trkpt lat="43.3030309" lon="10.8553165"><ele>272.0</ele><time>2026-05-03T14:05:42.566Z</time></trkpt><trkpt lat="43.3031508" lon="10.8551398"><ele>272.0</ele><time>2026-05-03T14:05:43.566Z</time></trkpt><trkpt lat="43.3032834" lon="10.854941"><ele>273.6666666666667</ele><time>2026-05-03T14:05:44.567Z</time></trkpt><trkpt lat="43.3034121" lon="10.8547338"><ele>275.3333333333333</ele><time>2026-05-03T14:05:45.566Z</time></trkpt><trkpt lat="43.3035428" lon="10.8544988"><ele>277.0</ele><time>2026-05-03T14:05:46.566Z</time></trkpt><trkpt lat="43.3036875" lon="10.8542474"><ele>278.0</ele><time>2026-05-03T14:05:47.567Z</time></trkpt><trkpt lat="43.3038399" lon="10.8539993"><ele>279.0</ele><time>2026-05-03T14:05:48.567Z</time></trkpt><trkpt lat="43.3040003" lon="10.853769"><ele>280.5</ele><time>2026-05-03T14:05:49.567Z</time></trkpt><trkpt lat="43.3041688" lon="10.8535489"><ele>282.0</ele><time>2026-05-03T14:05:50.566Z</time></trkpt><trkpt lat="43.3043486" lon="10.8533563"><ele>282.0</ele><time>2026-05-03T14:05:51.565Z</time></trkpt><trkpt lat="43.3045392" lon="10.8531819"><ele>282.0</ele><time>2026-05-03T14:05:52.566Z</time></trkpt><trkpt lat="43.304746" lon="10.8530202"><ele>278.0</ele><time>2026-05-03T14:05:53.566Z</time></trkpt><trkpt lat="43.3049769" lon="10.8528668"><ele>274.0</ele><time>2026-05-03T14:05:54.566Z</time></trkpt><trkpt lat="43.3052351" lon="10.8527317"><ele>275.5</ele><time>2026-05-03T14:05:55.565Z</time></trkpt><trkpt lat="43.3055029" lon="10.8526132"><ele>277.0</ele><time>2026-05-03T14:05:56.566Z</time></trkpt><trkpt lat="43.3057825" lon="10.8524948"><ele>277.0</ele><time>2026-05-03T14:05:57.565Z</time></trkpt><trkpt lat="43.3060675" lon="10.8523716"><ele>277.0</ele><time>2026-05-03T14:05:58.565Z</time></trkpt><trkpt lat="43.3063607" lon="10.852222"><ele>274.0</ele><time>2026-05-03T14:05:59.566Z</time></trkpt><trkpt lat="43.3066585" lon="10.8520443"><ele>271.0</ele><time>2026-05-03T14:06:00.565Z</time></trkpt><trkpt lat="43.3069454" lon="10.8518547"><ele>271.5</ele><time>2026-05-03T14:06:01.566Z</time></trkpt><trkpt lat="43.3072191" lon="10.8516604"><ele>272.0</ele><time>2026-05-03T14:06:02.565Z</time></trkpt><trkpt lat="43.307481" lon="10.8514703"><ele>272.0</ele><time>2026-05-03T14:06:03.565Z</time></trkpt><trkpt lat="43.3077367" lon="10.8512794"><ele>272.0</ele><time>2026-05-03T14:06:04.566Z</time></trkpt><trkpt lat="43.3079769" lon="10.8510943"><ele>273.5</ele><time>2026-05-03T14:06:05.566Z</time></trkpt><trkpt lat="43.3082003" lon="10.85092"><ele>275.0</ele><time>2026-05-03T14:06:06.566Z</time></trkpt><trkpt lat="43.3084125" lon="10.8507561"><ele>275.0</ele><time>2026-05-03T14:06:07.566Z</time></trkpt><trkpt lat="43.3086122" lon="10.8506"><ele>275.0</ele><time>2026-05-03T14:06:08.565Z</time></trkpt><trkpt lat="43.308794" lon="10.8504499"><ele>275.0</ele><time>2026-05-03T14:06:09.566Z</time></trkpt><trkpt lat="43.308957" lon="10.8502789"><ele>276.0</ele><time>2026-05-03T14:06:10.566Z</time></trkpt><trkpt lat="43.3091001" lon="10.8500764"><ele>277.0</ele><time>2026-05-03T14:06:11.567Z</time></trkpt><trkpt lat="43.3092216" lon="10.8498374"><ele>278.0</ele><time>2026-05-03T14:06:12.566Z</time></trkpt><trkpt lat="43.3093221" lon="10.8495795"><ele>278.0</ele><time>2026-05-03T14:06:13.566Z</time></trkpt><trkpt lat="43.3094128" lon="10.8493408"><ele>278.0</ele><time>2026-05-03T14:06:14.566Z</time></trkpt><trkpt lat="43.3094964" lon="10.849134"><ele>278.0</ele><time>2026-05-03T14:06:15.565Z</time></trkpt><trkpt lat="43.3095914" lon="10.8489623"><ele>278.6666666666667</ele><time>2026-05-03T14:06:16.565Z</time></trkpt><trkpt lat="43.309711" lon="10.8488142"><ele>279.3333333333333</ele><time>2026-05-03T14:06:17.566Z</time></trkpt><trkpt lat="43.3098578" lon="10.8486888"><ele>280.0</ele><time>2026-05-03T14:06:18.566Z</time></trkpt><trkpt lat="43.3100256" lon="10.8485742"><ele>279.0</ele><time>2026-05-03T14:06:19.566Z</time></trkpt><trkpt lat="43.3101971" lon="10.8484222"><ele>278.0</ele><time>2026-05-03T14:06:20.566Z</time></trkpt><trkpt lat="43.3103769" lon="10.8482363"><ele>277.0</ele><time>2026-05-03T14:06:21.566Z</time></trkpt><trkpt lat="43.3105481" lon="10.8480411"><ele>278.3333333333333</ele><time>2026-05-03T14:06:22.566Z</time></trkpt><trkpt lat="43.3107128" lon="10.8478586"><ele>279.6666666666667</ele><time>2026-05-03T14:06:23.566Z</time></trkpt><trkpt lat="43.3108692" lon="10.8476979"><ele>281.0</ele><time>2026-05-03T14:06:24.566Z</time></trkpt><trkpt lat="43.3110065" lon="10.847548"><ele>279.0</ele><time>2026-05-03T14:06:25.567Z</time></trkpt><trkpt lat="43.3111371" lon="10.8474302"><ele>277.0</ele><time>2026-05-03T14:06:26.567Z</time></trkpt><trkpt lat="43.3112618" lon="10.8473463"><ele>275.0</ele><time>2026-05-03T14:06:27.566Z</time></trkpt><trkpt lat="43.311388" lon="10.8473001"><ele>273.0</ele><time>2026-05-03T14:06:28.566Z</time></trkpt><trkpt lat="43.3115177" lon="10.8473152"><ele>272.75</ele><time>2026-05-03T14:06:29.566Z</time></trkpt><trkpt lat="43.3116448" lon="10.847393"><ele>272.5</ele><time>2026-05-03T14:06:30.566Z</time></trkpt><trkpt lat="43.3117593" lon="10.8475271"><ele>272.25</ele><time>2026-05-03T14:06:31.566Z</time></trkpt><trkpt lat="43.3118595" lon="10.8476737"><ele>272.0</ele><time>2026-05-03T14:06:32.566Z</time></trkpt><trkpt lat="43.311957" lon="10.8478028"><ele>272.25</ele><time>2026-05-03T14:06:33.567Z</time></trkpt><trkpt lat="43.3120788" lon="10.847903"><ele>272.5</ele><time>2026-05-03T14:06:34.566Z</time></trkpt><trkpt lat="43.3122141" lon="10.8479703"><ele>272.75</ele><time>2026-05-03T14:06:35.567Z</time></trkpt><trkpt lat="43.3123667" lon="10.8479629"><ele>273.0</ele><time>2026-05-03T14:06:36.565Z</time></trkpt><trkpt lat="43.3125173" lon="10.847922"><ele>273.0</ele><time>2026-05-03T14:06:37.565Z</time></trkpt><trkpt lat="43.3126588" lon="10.8478669"><ele>273.0</ele><time>2026-05-03T14:06:38.566Z</time></trkpt><trkpt lat="43.3127896" lon="10.8478222"><ele>273.0</ele><time>2026-05-03T14:06:39.567Z</time></trkpt><trkpt lat="43.312902" lon="10.8478195"><ele>273.0</ele><time>2026-05-03T14:06:40.566Z</time></trkpt><trkpt lat="43.3130156" lon="10.8478598"><ele>271.75</ele><time>2026-05-03T14:06:41.566Z</time></trkpt><trkpt lat="43.3131178" lon="10.8479494"><ele>270.5</ele><time>2026-05-03T14:06:42.566Z</time></trkpt><trkpt lat="43.3132256" lon="10.8480461"><ele>269.25</ele><time>2026-05-03T14:06:43.566Z</time></trkpt><trkpt lat="43.3133525" lon="10.8481064"><ele>268.0</ele><time>2026-05-03T14:06:44.566Z</time></trkpt><trkpt lat="43.3134982" lon="10.8481069"><ele>268.0</ele><time>2026-05-03T14:06:45.565Z</time></trkpt><trkpt lat="43.3136567" lon="10.8480728"><ele>268.0</ele><time>2026-05-03T14:06:46.565Z</time></trkpt><trkpt lat="43.3138341" lon="10.848004"><ele>268.0</ele><time>2026-05-03T14:06:47.566Z</time></trkpt><trkpt lat="43.3140016" lon="10.8479284"><ele>268.0</ele><time>2026-05-03T14:06:48.566Z</time></trkpt><trkpt lat="43.3141621" lon="10.8478638"><ele>268.0</ele><time>2026-05-03T14:06:49.567Z</time></trkpt><trkpt lat="43.3143216" lon="10.8478081"><ele>268.0</ele><time>2026-05-03T14:06:50.567Z</time></trkpt><trkpt lat="43.3144773" lon="10.8477808"><ele>268.0</ele><time>2026-05-03T14:06:51.565Z</time></trkpt><trkpt lat="43.314626" lon="10.8477989"><ele>268.0</ele><time>2026-05-03T14:06:52.566Z</time></trkpt><trkpt lat="43.3147633" lon="10.8478577"><ele>268.0</ele><time>2026-05-03T14:06:53.566Z</time></trkpt><trkpt lat="43.3148903" lon="10.8479117"><ele>268.0</ele><time>2026-05-03T14:06:54.565Z</time></trkpt><trkpt lat="43.3150221" lon="10.8479228"><ele>266.5</ele><time>2026-05-03T14:06:55.565Z</time></trkpt><trkpt lat="43.3151437" lon="10.8478822"><ele>265.0</ele><time>2026-05-03T14:06:56.566Z</time></trkpt><trkpt lat="43.315255" lon="10.847793"><ele>263.5</ele><time>2026-05-03T14:06:57.566Z</time></trkpt><trkpt lat="43.3153704" lon="10.8477031"><ele>262.0</ele><time>2026-05-03T14:06:58.566Z</time></trkpt><trkpt lat="43.3155041" lon="10.847657"><ele>259.75</ele><time>2026-05-03T14:06:59.566Z</time></trkpt><trkpt lat="43.315637" lon="10.8476396"><ele>257.5</ele><time>2026-05-03T14:07:00.566Z</time></trkpt><trkpt lat="43.3157866" lon="10.8476631"><ele>255.25</ele><time>2026-05-03T14:07:01.565Z</time></trkpt><trkpt lat="43.3159498" lon="10.8476786"><ele>253.0</ele><time>2026-05-03T14:07:02.566Z</time></trkpt><trkpt lat="43.3161336" lon="10.8477067"><ele>253.0</ele><time>2026-05-03T14:07:03.566Z</time></trkpt><trkpt lat="43.3163182" lon="10.8477298"><ele>253.0</ele><time>2026-05-03T14:07:04.566Z</time></trkpt><trkpt lat="43.3165149" lon="10.8477642"><ele>253.0</ele><time>2026-05-03T14:07:05.566Z</time></trkpt><trkpt lat="43.3167064" lon="10.8477995"><ele>249.66666666666666</ele><time>2026-05-03T14:07:06.565Z</time></trkpt><trkpt lat="43.3169005" lon="10.8478391"><ele>246.33333333333331</ele><time>2026-05-03T14:07:07.565Z</time></trkpt><trkpt lat="43.317084" lon="10.8478704"><ele>243.0</ele><time>2026-05-03T14:07:08.565Z</time></trkpt><trkpt lat="43.3172582" lon="10.8478977"><ele>241.5</ele><time>2026-05-03T14:07:09.566Z</time></trkpt><trkpt lat="43.3174173" lon="10.8479215"><ele>240.0</ele><time>2026-05-03T14:07:10.565Z</time></trkpt><trkpt lat="43.3177212" lon="10.8479159"><ele>240.0</ele><time>2026-05-03T14:07:12.567Z</time></trkpt><trkpt lat="43.3178673" lon="10.8478757"><ele>240.0</ele><time>2026-05-03T14:07:13.566Z</time></trkpt><trkpt lat="43.3180125" lon="10.847818"><ele>240.0</ele><time>2026-05-03T14:07:14.566Z</time></trkpt><trkpt lat="43.3181617" lon="10.847721"><ele>240.66666666666669</ele><time>2026-05-03T14:07:15.565Z</time></trkpt><trkpt lat="43.3182989" lon="10.8475996"><ele>241.33333333333334</ele><time>2026-05-03T14:07:16.565Z</time></trkpt><trkpt lat="43.3184221" lon="10.847465"><ele>242.0</ele><time>2026-05-03T14:07:17.565Z</time></trkpt><trkpt lat="43.3185395" lon="10.8473325"><ele>242.0</ele><time>2026-05-03T14:07:18.565Z</time></trkpt><trkpt lat="43.318648" lon="10.8472118"><ele>242.0</ele><time>2026-05-03T14:07:19.566Z</time></trkpt><trkpt lat="43.3187455" lon="10.8471054"><ele>242.0</ele><time>2026-05-03T14:07:20.566Z</time></trkpt><trkpt lat="43.3188383" lon="10.8470246"><ele>242.0</ele><time>2026-05-03T14:07:21.565Z</time></trkpt><trkpt lat="43.3189342" lon="10.8469868"><ele>239.39999999999998</ele><time>2026-05-03T14:07:22.566Z</time></trkpt><trkpt lat="43.319028" lon="10.8470067"><ele>236.79999999999998</ele><time>2026-05-03T14:07:23.565Z</time></trkpt><trkpt lat="43.3191039" lon="10.8470888"><ele>234.2</ele><time>2026-05-03T14:07:24.566Z</time></trkpt><trkpt lat="43.3191529" lon="10.8472168"><ele>231.6</ele><time>2026-05-03T14:07:25.566Z</time></trkpt><trkpt lat="43.3191664" lon="10.8473931"><ele>229.0</ele><time>2026-05-03T14:07:26.566Z</time></trkpt><trkpt lat="43.3191569" lon="10.8476087"><ele>228.33333333333331</ele><time>2026-05-03T14:07:27.566Z</time></trkpt><trkpt lat="43.3191588" lon="10.8478453"><ele>227.66666666666669</ele><time>2026-05-03T14:07:28.566Z</time></trkpt><trkpt lat="43.319184" lon="10.8480801"><ele>227.0</ele><time>2026-05-03T14:07:29.565Z</time></trkpt><trkpt lat="43.3192265" lon="10.8483168"><ele>227.33333333333334</ele><time>2026-05-03T14:07:30.566Z</time></trkpt><trkpt lat="43.3192937" lon="10.8485656"><ele>227.66666666666669</ele><time>2026-05-03T14:07:31.566Z</time></trkpt><trkpt lat="43.3193783" lon="10.8488229"><ele>228.0</ele><time>2026-05-03T14:07:32.566Z</time></trkpt><trkpt lat="43.3194768" lon="10.8490775"><ele>226.33333333333331</ele><time>2026-05-03T14:07:33.566Z</time></trkpt><trkpt lat="43.3195811" lon="10.8493367"><ele>224.66666666666666</ele><time>2026-05-03T14:07:34.566Z</time></trkpt><trkpt lat="43.3196946" lon="10.8495912"><ele>223.0</ele><time>2026-05-03T14:07:35.565Z</time></trkpt><trkpt lat="43.3198068" lon="10.8498516"><ele>220.0</ele><time>2026-05-03T14:07:36.566Z</time></trkpt><trkpt lat="43.319916" lon="10.8501091"><ele>217.0</ele><time>2026-05-03T14:07:37.565Z</time></trkpt><trkpt lat="43.3200262" lon="10.8503717"><ele>214.0</ele><time>2026-05-03T14:07:38.566Z</time></trkpt><trkpt lat="43.3201472" lon="10.8506471"><ele>212.0</ele><time>2026-05-03T14:07:39.566Z</time></trkpt><trkpt lat="43.3202746" lon="10.8509187"><ele>210.0</ele><time>2026-05-03T14:07:40.566Z</time></trkpt><trkpt lat="43.3204238" lon="10.8511839"><ele>206.5</ele><time>2026-05-03T14:07:41.565Z</time></trkpt><trkpt lat="43.3205793" lon="10.851442"><ele>203.0</ele><time>2026-05-03T14:07:42.565Z</time></trkpt><trkpt lat="43.3207445" lon="10.8516998"><ele>200.0</ele><time>2026-05-03T14:07:43.566Z</time></trkpt><trkpt lat="43.3209102" lon="10.851947"><ele>197.0</ele><time>2026-05-03T14:07:44.566Z</time></trkpt><trkpt lat="43.3210759" lon="10.8521993"><ele>197.0</ele><time>2026-05-03T14:07:45.566Z</time></trkpt><trkpt lat="43.3212387" lon="10.8524522"><ele>197.0</ele><time>2026-05-03T14:07:46.566Z</time></trkpt><trkpt lat="43.3214033" lon="10.8527027"><ele>196.0</ele><time>2026-05-03T14:07:47.566Z</time></trkpt><trkpt lat="43.3215708" lon="10.8529476"><ele>195.0</ele><time>2026-05-03T14:07:48.566Z</time></trkpt><trkpt lat="43.3217345" lon="10.8531953"><ele>195.0</ele><time>2026-05-03T14:07:49.566Z</time></trkpt><trkpt lat="43.321897" lon="10.8534363"><ele>195.0</ele><time>2026-05-03T14:07:50.566Z</time></trkpt><trkpt lat="43.3220538" lon="10.8536741"><ele>194.66666666666669</ele><time>2026-05-03T14:07:51.565Z</time></trkpt><trkpt lat="43.3222063" lon="10.8539029"><ele>194.33333333333334</ele><time>2026-05-03T14:07:52.566Z</time></trkpt><trkpt lat="43.3223486" lon="10.8541263"><ele>194.0</ele><time>2026-05-03T14:07:53.565Z</time></trkpt><trkpt lat="43.3224741" lon="10.8543413"><ele>192.0</ele><time>2026-05-03T14:07:54.566Z</time></trkpt><trkpt lat="43.3225718" lon="10.8545715"><ele>190.0</ele><time>2026-05-03T14:07:55.566Z</time></trkpt><trkpt lat="43.3226365" lon="10.8548176"><ele>188.0</ele><time>2026-05-03T14:07:56.566Z</time></trkpt><trkpt lat="43.3226862" lon="10.8550739"><ele>186.0</ele><time>2026-05-03T14:07:57.566Z</time></trkpt><trkpt lat="43.3227263" lon="10.8553266"><ele>184.0</ele><time>2026-05-03T14:07:58.566Z</time></trkpt><trkpt lat="43.3227714" lon="10.8555606"><ele>182.0</ele><time>2026-05-03T14:07:59.566Z</time></trkpt><trkpt lat="43.3228333" lon="10.8557729"><ele>180.0</ele><time>2026-05-03T14:08:00.566Z</time></trkpt><trkpt lat="43.3229167" lon="10.8559561"><ele>178.0</ele><time>2026-05-03T14:08:01.565Z</time></trkpt><trkpt lat="43.3230396" lon="10.8561116"><ele>176.0</ele><time>2026-05-03T14:08:02.565Z</time></trkpt><trkpt lat="43.3231893" lon="10.8562485"><ele>176.0</ele><time>2026-05-03T14:08:03.565Z</time></trkpt><trkpt lat="43.3233637" lon="10.8563824"><ele>176.0</ele><time>2026-05-03T14:08:04.566Z</time></trkpt><trkpt lat="43.3235322" lon="10.8565137"><ele>176.0</ele><time>2026-05-03T14:08:05.566Z</time></trkpt><trkpt lat="43.3236891" lon="10.8566376"><ele>176.0</ele><time>2026-05-03T14:08:06.567Z</time></trkpt><trkpt lat="43.3238351" lon="10.8567523"><ele>176.0</ele><time>2026-05-03T14:08:07.566Z</time></trkpt><trkpt lat="43.3239741" lon="10.8568433"><ele>176.0</ele><time>2026-05-03T14:08:08.566Z</time></trkpt><trkpt lat="43.3241098" lon="10.8568889"><ele>174.75</ele><time>2026-05-03T14:08:09.566Z</time></trkpt><trkpt lat="43.3242396" lon="10.8568974"><ele>173.5</ele><time>2026-05-03T14:08:10.565Z</time></trkpt><trkpt lat="43.3243494" lon="10.8568635"><ele>172.25</ele><time>2026-05-03T14:08:11.565Z</time></trkpt><trkpt lat="43.324441" lon="10.8567961"><ele>171.0</ele><time>2026-05-03T14:08:12.566Z</time></trkpt><trkpt lat="43.3245058" lon="10.8566711"><ele>171.0</ele><time>2026-05-03T14:08:13.566Z</time></trkpt><trkpt lat="43.3245353" lon="10.8565186"><ele>171.0</ele><time>2026-05-03T14:08:14.566Z</time></trkpt><trkpt lat="43.3245321" lon="10.8563418"><ele>171.0</ele><time>2026-05-03T14:08:15.567Z</time></trkpt><trkpt lat="43.3244973" lon="10.8561803"><ele>171.0</ele><time>2026-05-03T14:08:16.566Z</time></trkpt><trkpt lat="43.3243969" lon="10.8560298"><ele>170.0</ele><time>2026-05-03T14:08:17.565Z</time></trkpt><trkpt lat="43.3242965" lon="10.8558822"><ele>169.0</ele><time>2026-05-03T14:08:18.566Z</time></trkpt><trkpt lat="43.3242156" lon="10.8557147"><ele>168.0</ele><time>2026-05-03T14:08:19.565Z</time></trkpt><trkpt lat="43.3241561" lon="10.8555225"><ele>167.0</ele><time>2026-05-03T14:08:20.567Z</time></trkpt><trkpt lat="43.3241231" lon="10.8553186"><ele>165.0</ele><time>2026-05-03T14:08:21.565Z</time></trkpt><trkpt lat="43.324109" lon="10.855099"><ele>163.0</ele><time>2026-05-03T14:08:22.567Z</time></trkpt><trkpt lat="43.3241015" lon="10.8548712"><ele>161.0</ele><time>2026-05-03T14:08:23.565Z</time></trkpt><trkpt lat="43.3240773" lon="10.8546679"><ele>161.0</ele><time>2026-05-03T14:08:24.566Z</time></trkpt><trkpt lat="43.324044" lon="10.8544728"><ele>161.0</ele><time>2026-05-03T14:08:25.567Z</time></trkpt><trkpt lat="43.3240218" lon="10.8542836"><ele>161.0</ele><time>2026-05-03T14:08:26.567Z</time></trkpt><trkpt lat="43.3240417" lon="10.8540756"><ele>161.0</ele><time>2026-05-03T14:08:27.565Z</time></trkpt><trkpt lat="43.3240891" lon="10.8538761"><ele>159.75</ele><time>2026-05-03T14:08:28.566Z</time></trkpt><trkpt lat="43.3241591" lon="10.8537008"><ele>158.5</ele><time>2026-05-03T14:08:29.565Z</time></trkpt><trkpt lat="43.3242537" lon="10.8535625"><ele>157.25</ele><time>2026-05-03T14:08:30.566Z</time></trkpt><trkpt lat="43.3243738" lon="10.853473"><ele>156.0</ele><time>2026-05-03T14:08:31.566Z</time></trkpt><trkpt lat="43.3245219" lon="10.8534214"><ele>155.66666666666666</ele><time>2026-05-03T14:08:32.565Z</time></trkpt><trkpt lat="43.3246908" lon="10.8534191"><ele>155.33333333333331</ele><time>2026-05-03T14:08:33.566Z</time></trkpt><trkpt lat="43.3248769" lon="10.8534252"><ele>155.0</ele><time>2026-05-03T14:08:34.566Z</time></trkpt><trkpt lat="43.3250697" lon="10.8534419"><ele>152.0</ele><time>2026-05-03T14:08:35.566Z</time></trkpt><trkpt lat="43.3252678" lon="10.8534798"><ele>149.0</ele><time>2026-05-03T14:08:36.566Z</time></trkpt><trkpt lat="43.3254681" lon="10.8535266"><ele>146.0</ele><time>2026-05-03T14:08:37.565Z</time></trkpt><trkpt lat="43.3256583" lon="10.8536"><ele>144.33333333333331</ele><time>2026-05-03T14:08:38.567Z</time></trkpt><trkpt lat="43.3258386" lon="10.8536917"><ele>142.66666666666666</ele><time>2026-05-03T14:08:39.565Z</time></trkpt><trkpt lat="43.3260132" lon="10.8538015"><ele>141.0</ele><time>2026-05-03T14:08:40.566Z</time></trkpt><trkpt lat="43.3261769" lon="10.8539329"><ele>141.0</ele><time>2026-05-03T14:08:41.567Z</time></trkpt><trkpt lat="43.3263307" lon="10.8540854"><ele>141.0</ele><time>2026-05-03T14:08:42.565Z</time></trkpt><trkpt lat="43.3264788" lon="10.8542429"><ele>141.0</ele><time>2026-05-03T14:08:43.566Z</time></trkpt><trkpt lat="43.3266197" lon="10.8544145"><ele>138.66666666666666</ele><time>2026-05-03T14:08:44.566Z</time></trkpt><trkpt lat="43.3267541" lon="10.8545945"><ele>136.33333333333331</ele><time>2026-05-03T14:08:45.566Z</time></trkpt><trkpt lat="43.326883" lon="10.8547827"><ele>134.0</ele><time>2026-05-03T14:08:46.566Z</time></trkpt><trkpt lat="43.3270026" lon="10.8549851"><ele>134.66666666666666</ele><time>2026-05-03T14:08:47.567Z</time></trkpt><trkpt lat="43.3270994" lon="10.8552041"><ele>135.33333333333334</ele><time>2026-05-03T14:08:48.566Z</time></trkpt><trkpt lat="43.3271713" lon="10.8554264"><ele>136.0</ele><time>2026-05-03T14:08:49.566Z</time></trkpt><trkpt lat="43.3272541" lon="10.8556307"><ele>135.33333333333334</ele><time>2026-05-03T14:08:50.566Z</time></trkpt><trkpt lat="43.3273514" lon="10.8558186"><ele>134.66666666666666</ele><time>2026-05-03T14:08:51.566Z</time></trkpt><trkpt lat="43.3275031" lon="10.8559911"><ele>134.0</ele><time>2026-05-03T14:08:52.566Z</time></trkpt><trkpt lat="43.3276575" lon="10.8561573"><ele>134.0</ele><time>2026-05-03T14:08:53.566Z</time></trkpt><trkpt lat="43.3278179" lon="10.8563213"><ele>134.0</ele><time>2026-05-03T14:08:54.565Z</time></trkpt><trkpt lat="43.3279808" lon="10.8564702"><ele>134.0</ele><time>2026-05-03T14:08:55.566Z</time></trkpt><trkpt lat="43.3281527" lon="10.8565941"><ele>133.0</ele><time>2026-05-03T14:08:56.565Z</time></trkpt><trkpt lat="43.3283317" lon="10.8566968"><ele>132.0</ele><time>2026-05-03T14:08:57.566Z</time></trkpt><trkpt lat="43.3285147" lon="10.8567863"><ele>131.0</ele><time>2026-05-03T14:08:58.566Z</time></trkpt><trkpt lat="43.3286922" lon="10.8568731"><ele>131.0</ele><time>2026-05-03T14:08:59.566Z</time></trkpt><trkpt lat="43.3288596" lon="10.8569458"><ele>131.0</ele><time>2026-05-03T14:09:00.565Z</time></trkpt><trkpt lat="43.3290295" lon="10.8569916"><ele>131.0</ele><time>2026-05-03T14:09:01.566Z</time></trkpt><trkpt lat="43.329191" lon="10.8570134"><ele>127.5</ele><time>2026-05-03T14:09:02.566Z</time></trkpt><trkpt lat="43.3293393" lon="10.8570272"><ele>124.0</ele><time>2026-05-03T14:09:03.564Z</time></trkpt><trkpt lat="43.329469" lon="10.8570877"><ele>120.5</ele><time>2026-05-03T14:09:04.566Z</time></trkpt><trkpt lat="43.3295741" lon="10.8571847"><ele>117.0</ele><time>2026-05-03T14:09:05.565Z</time></trkpt><trkpt lat="43.3296599" lon="10.8573216"><ele>117.0</ele><time>2026-05-03T14:09:06.566Z</time></trkpt><trkpt lat="43.3297118" lon="10.8574913"><ele>117.0</ele><time>2026-05-03T14:09:07.565Z</time></trkpt><trkpt lat="43.3297426" lon="10.8577028"><ele>117.0</ele><time>2026-05-03T14:09:08.566Z</time></trkpt><trkpt lat="43.3297645" lon="10.8579439"><ele>110.33333333333334</ele><time>2026-05-03T14:09:09.566Z</time></trkpt><trkpt lat="43.3297898" lon="10.8581822"><ele>103.66666666666667</ele><time>2026-05-03T14:09:10.564Z</time></trkpt><trkpt lat="43.329828" lon="10.8583982"><ele>97.0</ele><time>2026-05-03T14:09:11.566Z</time></trkpt><trkpt lat="43.3298824" lon="10.8585889"><ele>97.0</ele><time>2026-05-03T14:09:12.566Z</time></trkpt><trkpt lat="43.3299552" lon="10.858752"><ele>97.0</ele><time>2026-05-03T14:09:13.566Z</time></trkpt><trkpt lat="43.3300519" lon="10.8588887"><ele>97.0</ele><time>2026-05-03T14:09:14.565Z</time></trkpt><trkpt lat="43.3301878" lon="10.8589757"><ele>97.0</ele><time>2026-05-03T14:09:15.566Z</time></trkpt><trkpt lat="43.3303514" lon="10.8590097"><ele>97.0</ele><time>2026-05-03T14:09:16.566Z</time></trkpt><trkpt lat="43.3305341" lon="10.8590016"><ele>97.0</ele><time>2026-05-03T14:09:17.564Z</time></trkpt><trkpt lat="43.3307427" lon="10.8589802"><ele>97.0</ele><time>2026-05-03T14:09:18.566Z</time></trkpt><trkpt lat="43.3309689" lon="10.8589579"><ele>92.5</ele><time>2026-05-03T14:09:19.564Z</time></trkpt><trkpt lat="43.3312157" lon="10.858939"><ele>88.0</ele><time>2026-05-03T14:09:20.566Z</time></trkpt><trkpt lat="43.3314707" lon="10.8589184"><ele>87.0</ele><time>2026-05-03T14:09:21.566Z</time></trkpt><trkpt lat="43.3317171" lon="10.8589001"><ele>86.0</ele><time>2026-05-03T14:09:22.566Z</time></trkpt><trkpt lat="43.3319572" lon="10.8588788"><ele>86.0</ele><time>2026-05-03T14:09:23.565Z</time></trkpt><trkpt lat="43.3321957" lon="10.858864"><ele>86.0</ele><time>2026-05-03T14:09:24.566Z</time></trkpt><trkpt lat="43.3324233" lon="10.8588475"><ele>84.5</ele><time>2026-05-03T14:09:25.566Z</time></trkpt><trkpt lat="43.3326548" lon="10.8588262"><ele>83.0</ele><time>2026-05-03T14:09:26.566Z</time></trkpt><trkpt lat="43.3328816" lon="10.85881"><ele>83.66666666666667</ele><time>2026-05-03T14:09:27.566Z</time></trkpt><trkpt lat="43.3330997" lon="10.85875"><ele>84.33333333333333</ele><time>2026-05-03T14:09:28.565Z</time></trkpt><trkpt lat="43.3333164" lon="10.8586584"><ele>85.0</ele><time>2026-05-03T14:09:29.566Z</time></trkpt><trkpt lat="43.333531" lon="10.85855"><ele>84.0</ele><time>2026-05-03T14:09:30.565Z</time></trkpt><trkpt lat="43.3337458" lon="10.8584247"><ele>83.0</ele><time>2026-05-03T14:09:31.565Z</time></trkpt><trkpt lat="43.3339631" lon="10.8582812"><ele>83.0</ele><time>2026-05-03T14:09:32.566Z</time></trkpt><trkpt lat="43.3341712" lon="10.8581192"><ele>83.0</ele><time>2026-05-03T14:09:33.566Z</time></trkpt><trkpt lat="43.3343737" lon="10.857936"><ele>83.0</ele><time>2026-05-03T14:09:34.566Z</time></trkpt><trkpt lat="43.3345651" lon="10.857739"><ele>83.0</ele><time>2026-05-03T14:09:35.565Z</time></trkpt><trkpt lat="43.3347477" lon="10.857521"><ele>86.0</ele><time>2026-05-03T14:09:36.567Z</time></trkpt><trkpt lat="43.3349162" lon="10.8572926"><ele>89.0</ele><time>2026-05-03T14:09:37.566Z</time></trkpt><trkpt lat="43.335075" lon="10.8570447"><ele>89.0</ele><time>2026-05-03T14:09:38.566Z</time></trkpt><trkpt lat="43.3352226" lon="10.8567912"><ele>89.0</ele><time>2026-05-03T14:09:39.564Z</time></trkpt><trkpt lat="43.3353558" lon="10.8565303"><ele>87.33333333333334</ele><time>2026-05-03T14:09:40.566Z</time></trkpt><trkpt lat="43.335464" lon="10.856275"><ele>85.66666666666667</ele><time>2026-05-03T14:09:41.566Z</time></trkpt><trkpt lat="43.3355609" lon="10.8560184"><ele>84.0</ele><time>2026-05-03T14:09:42.565Z</time></trkpt><trkpt lat="43.3356591" lon="10.8557627"><ele>85.66666666666667</ele><time>2026-05-03T14:09:43.565Z</time></trkpt><trkpt lat="43.3357512" lon="10.8555231"><ele>87.33333333333334</ele><time>2026-05-03T14:09:44.564Z</time></trkpt><trkpt lat="43.3358519" lon="10.8552983"><ele>89.0</ele><time>2026-05-03T14:09:45.565Z</time></trkpt><trkpt lat="43.3359508" lon="10.8550989"><ele>89.0</ele><time>2026-05-03T14:09:46.566Z</time></trkpt><trkpt lat="43.3360587" lon="10.8549194"><ele>89.0</ele><time>2026-05-03T14:09:47.566Z</time></trkpt><trkpt lat="43.3361542" lon="10.8547538"><ele>89.0</ele><time>2026-05-03T14:09:48.566Z</time></trkpt><trkpt lat="43.3362454" lon="10.8546021"><ele>89.0</ele><time>2026-05-03T14:09:49.566Z</time></trkpt><trkpt lat="43.3363343" lon="10.8544488"><ele>89.0</ele><time>2026-05-03T14:09:50.566Z</time></trkpt><trkpt lat="43.3364181" lon="10.8542739"><ele>89.0</ele><time>2026-05-03T14:09:51.565Z</time></trkpt><trkpt lat="43.3365234" lon="10.8538851"><ele>89.0</ele><time>2026-05-03T14:09:53.566Z</time></trkpt><trkpt lat="43.3365508" lon="10.8536909"><ele>89.0</ele><time>2026-05-03T14:09:54.566Z</time></trkpt><trkpt lat="43.3365779" lon="10.8534968"><ele>89.0</ele><time>2026-05-03T14:09:55.566Z</time></trkpt><trkpt lat="43.3366216" lon="10.8533066"><ele>89.0</ele><time>2026-05-03T14:09:56.566Z</time></trkpt><trkpt lat="43.336675" lon="10.8531216"><ele>89.0</ele><time>2026-05-03T14:09:57.565Z</time></trkpt><trkpt lat="43.336731" lon="10.8529417"><ele>89.0</ele><time>2026-05-03T14:09:58.566Z</time></trkpt><trkpt lat="43.3367853" lon="10.8527553"><ele>89.0</ele><time>2026-05-03T14:09:59.566Z</time></trkpt><trkpt lat="43.3368407" lon="10.8525767"><ele>89.0</ele><time>2026-05-03T14:10:00.566Z</time></trkpt><trkpt lat="43.3368962" lon="10.852393"><ele>88.0</ele><time>2026-05-03T14:10:01.567Z</time></trkpt><trkpt lat="43.3369512" lon="10.8522151"><ele>87.0</ele><time>2026-05-03T14:10:02.565Z</time></trkpt><trkpt lat="43.3370133" lon="10.8520289"><ele>86.0</ele><time>2026-05-03T14:10:03.566Z</time></trkpt><trkpt lat="43.337082" lon="10.851839"><ele>85.0</ele><time>2026-05-03T14:10:04.566Z</time></trkpt><trkpt lat="43.3371536" lon="10.8516373"><ele>86.66666666666666</ele><time>2026-05-03T14:10:05.565Z</time></trkpt><trkpt lat="43.3372361" lon="10.851433"><ele>88.33333333333333</ele><time>2026-05-03T14:10:06.564Z</time></trkpt><trkpt lat="43.3373239" lon="10.8512211"><ele>90.0</ele><time>2026-05-03T14:10:07.566Z</time></trkpt><trkpt lat="43.3374168" lon="10.8510084"><ele>88.0</ele><time>2026-05-03T14:10:08.565Z</time></trkpt><trkpt lat="43.3375084" lon="10.8507872"><ele>86.0</ele><time>2026-05-03T14:10:09.565Z</time></trkpt><trkpt lat="43.3376022" lon="10.8505666"><ele>84.0</ele><time>2026-05-03T14:10:10.565Z</time></trkpt><trkpt lat="43.3376953" lon="10.8503324"><ele>83.66666666666667</ele><time>2026-05-03T14:10:11.566Z</time></trkpt><trkpt lat="43.3377904" lon="10.8500772"><ele>83.33333333333334</ele><time>2026-05-03T14:10:12.566Z</time></trkpt><trkpt lat="43.3378962" lon="10.8498113"><ele>83.0</ele><time>2026-05-03T14:10:13.566Z</time></trkpt><trkpt lat="43.3380193" lon="10.8495372"><ele>84.0</ele><time>2026-05-03T14:10:14.566Z</time></trkpt><trkpt lat="43.3381511" lon="10.8492463"><ele>85.0</ele><time>2026-05-03T14:10:15.565Z</time></trkpt><trkpt lat="43.338294" lon="10.84895"><ele>85.0</ele><time>2026-05-03T14:10:16.566Z</time></trkpt><trkpt lat="43.3384296" lon="10.8486394"><ele>85.0</ele><time>2026-05-03T14:10:17.566Z</time></trkpt><trkpt lat="43.3385646" lon="10.8483183"><ele>84.0</ele><time>2026-05-03T14:10:18.565Z</time></trkpt><trkpt lat="43.338689" lon="10.8480121"><ele>83.0</ele><time>2026-05-03T14:10:19.566Z</time></trkpt><trkpt lat="43.3388122" lon="10.8477354"><ele>86.0</ele><time>2026-05-03T14:10:20.565Z</time></trkpt><trkpt lat="43.3389312" lon="10.8474644"><ele>89.0</ele><time>2026-05-03T14:10:21.566Z</time></trkpt><trkpt lat="43.3390628" lon="10.8471931"><ele>89.0</ele><time>2026-05-03T14:10:22.565Z</time></trkpt><trkpt lat="43.3392116" lon="10.8469296"><ele>89.0</ele><time>2026-05-03T14:10:23.565Z</time></trkpt><trkpt lat="43.3393679" lon="10.8466596"><ele>87.0</ele><time>2026-05-03T14:10:24.566Z</time></trkpt><trkpt lat="43.3395232" lon="10.8464031"><ele>85.0</ele><time>2026-05-03T14:10:25.566Z</time></trkpt><trkpt lat="43.3396687" lon="10.8461583"><ele>85.33333333333333</ele><time>2026-05-03T14:10:26.566Z</time></trkpt><trkpt lat="43.3398097" lon="10.8459274"><ele>85.66666666666667</ele><time>2026-05-03T14:10:27.566Z</time></trkpt><trkpt lat="43.339951" lon="10.8457172"><ele>86.0</ele><time>2026-05-03T14:10:28.566Z</time></trkpt><trkpt lat="43.3401046" lon="10.8455292"><ele>86.0</ele><time>2026-05-03T14:10:29.566Z</time></trkpt><trkpt lat="43.3402867" lon="10.8453706"><ele>86.0</ele><time>2026-05-03T14:10:30.566Z</time></trkpt><trkpt lat="43.3404858" lon="10.845212"><ele>86.0</ele><time>2026-05-03T14:10:31.566Z</time></trkpt><trkpt lat="43.3406955" lon="10.8450472"><ele>85.0</ele><time>2026-05-03T14:10:32.566Z</time></trkpt><trkpt lat="43.3409101" lon="10.8448805"><ele>84.0</ele><time>2026-05-03T14:10:33.566Z</time></trkpt><trkpt lat="43.3411254" lon="10.8447133"><ele>84.0</ele><time>2026-05-03T14:10:34.566Z</time></trkpt><trkpt lat="43.341338" lon="10.8445528"><ele>84.0</ele><time>2026-05-03T14:10:35.566Z</time></trkpt><trkpt lat="43.3415506" lon="10.8443887"><ele>83.33333333333333</ele><time>2026-05-03T14:10:36.566Z</time></trkpt><trkpt lat="43.3417525" lon="10.8442347"><ele>82.66666666666666</ele><time>2026-05-03T14:10:37.566Z</time></trkpt><trkpt lat="43.3419435" lon="10.844097"><ele>82.0</ele><time>2026-05-03T14:10:38.566Z</time></trkpt><trkpt lat="43.3421223" lon="10.843961"><ele>82.33333333333333</ele><time>2026-05-03T14:10:39.566Z</time></trkpt><trkpt lat="43.3422846" lon="10.8437967"><ele>82.66666666666667</ele><time>2026-05-03T14:10:40.566Z</time></trkpt><trkpt lat="43.3424357" lon="10.8435911"><ele>83.0</ele><time>2026-05-03T14:10:41.565Z</time></trkpt><trkpt lat="43.3425713" lon="10.8433471"><ele>83.0</ele><time>2026-05-03T14:10:42.566Z</time></trkpt><trkpt lat="43.3427069" lon="10.8430764"><ele>83.0</ele><time>2026-05-03T14:10:43.565Z</time></trkpt><trkpt lat="43.3428448" lon="10.8427887"><ele>81.0</ele><time>2026-05-03T14:10:44.566Z</time></trkpt><trkpt lat="43.3429895" lon="10.8424966"><ele>79.0</ele><time>2026-05-03T14:10:45.566Z</time></trkpt><trkpt lat="43.343135" lon="10.8422049"><ele>80.5</ele><time>2026-05-03T14:10:46.565Z</time></trkpt><trkpt lat="43.3432813" lon="10.8419143"><ele>82.0</ele><time>2026-05-03T14:10:47.566Z</time></trkpt><trkpt lat="43.3434209" lon="10.8416273"><ele>82.0</ele><time>2026-05-03T14:10:48.567Z</time></trkpt><trkpt lat="43.3435582" lon="10.841341"><ele>82.0</ele><time>2026-05-03T14:10:49.565Z</time></trkpt><trkpt lat="43.3436912" lon="10.8410564"><ele>83.5</ele><time>2026-05-03T14:10:50.566Z</time></trkpt><trkpt lat="43.3438234" lon="10.8407792"><ele>85.0</ele><time>2026-05-03T14:10:51.566Z</time></trkpt><trkpt lat="43.3439557" lon="10.8404989"><ele>85.0</ele><time>2026-05-03T14:10:52.564Z</time></trkpt><trkpt lat="43.3440862" lon="10.8402196"><ele>85.0</ele><time>2026-05-03T14:10:53.566Z</time></trkpt><trkpt lat="43.344215" lon="10.839948"><ele>83.66666666666666</ele><time>2026-05-03T14:10:54.566Z</time></trkpt><trkpt lat="43.3443434" lon="10.8396926"><ele>82.33333333333333</ele><time>2026-05-03T14:10:55.567Z</time></trkpt><trkpt lat="43.3444683" lon="10.8394574"><ele>81.0</ele><time>2026-05-03T14:10:56.566Z</time></trkpt><trkpt lat="43.3446026" lon="10.8392544"><ele>81.66666666666667</ele><time>2026-05-03T14:10:57.565Z</time></trkpt><trkpt lat="43.3447549" lon="10.8390967"><ele>82.33333333333334</ele><time>2026-05-03T14:10:58.565Z</time></trkpt><trkpt lat="43.3449322" lon="10.8389801"><ele>83.0</ele><time>2026-05-03T14:10:59.565Z</time></trkpt><trkpt lat="43.3451194" lon="10.8388602"><ele>83.0</ele><time>2026-05-03T14:11:00.566Z</time></trkpt><trkpt lat="43.3453075" lon="10.838712"><ele>83.0</ele><time>2026-05-03T14:11:01.566Z</time></trkpt><trkpt lat="43.3454845" lon="10.8385408"><ele>83.0</ele><time>2026-05-03T14:11:02.565Z</time></trkpt><trkpt lat="43.3456571" lon="10.8383685"><ele>82.33333333333334</ele><time>2026-05-03T14:11:03.566Z</time></trkpt><trkpt lat="43.3458219" lon="10.8381986"><ele>81.66666666666667</ele><time>2026-05-03T14:11:04.566Z</time></trkpt><trkpt lat="43.345946" lon="10.8379992"><ele>81.0</ele><time>2026-05-03T14:11:05.566Z</time></trkpt><trkpt lat="43.3460615" lon="10.837784"><ele>79.66666666666667</ele><time>2026-05-03T14:11:06.566Z</time></trkpt><trkpt lat="43.3461595" lon="10.837547"><ele>78.33333333333334</ele><time>2026-05-03T14:11:07.565Z</time></trkpt><trkpt lat="43.3462458" lon="10.8372805"><ele>77.0</ele><time>2026-05-03T14:11:08.566Z</time></trkpt><trkpt lat="43.3463167" lon="10.8369963"><ele>82.0</ele><time>2026-05-03T14:11:09.565Z</time></trkpt><trkpt lat="43.3463836" lon="10.8366998"><ele>87.0</ele><time>2026-05-03T14:11:10.564Z</time></trkpt><trkpt lat="43.3464587" lon="10.8363901"><ele>87.0</ele><time>2026-05-03T14:11:11.565Z</time></trkpt><trkpt lat="43.346538" lon="10.8360687"><ele>87.0</ele><time>2026-05-03T14:11:12.565Z</time></trkpt><trkpt lat="43.346624" lon="10.835757"><ele>84.5</ele><time>2026-05-03T14:11:13.565Z</time></trkpt><trkpt lat="43.3467165" lon="10.8354498"><ele>82.0</ele><time>2026-05-03T14:11:14.566Z</time></trkpt><trkpt lat="43.3468128" lon="10.8351501"><ele>79.0</ele><time>2026-05-03T14:11:15.566Z</time></trkpt><trkpt lat="43.3469008" lon="10.8348434"><ele>76.0</ele><time>2026-05-03T14:11:16.566Z</time></trkpt><trkpt lat="43.346981" lon="10.8345203"><ele>75.0</ele><time>2026-05-03T14:11:17.566Z</time></trkpt><trkpt lat="43.3470645" lon="10.8341813"><ele>74.0</ele><time>2026-05-03T14:11:18.565Z</time></trkpt><trkpt lat="43.3471645" lon="10.8338509"><ele>77.0</ele><time>2026-05-03T14:11:19.565Z</time></trkpt><trkpt lat="43.3472588" lon="10.8335174"><ele>80.0</ele><time>2026-05-03T14:11:20.566Z</time></trkpt><trkpt lat="43.3473505" lon="10.8331969"><ele>80.0</ele><time>2026-05-03T14:11:21.567Z</time></trkpt><trkpt lat="43.3474306" lon="10.832888"><ele>80.0</ele><time>2026-05-03T14:11:22.566Z</time></trkpt><trkpt lat="43.3475117" lon="10.8325897"><ele>80.0</ele><time>2026-05-03T14:11:23.566Z</time></trkpt><trkpt lat="43.3476166" lon="10.8323199"><ele>80.0</ele><time>2026-05-03T14:11:24.565Z</time></trkpt><trkpt lat="43.3477488" lon="10.8320712"><ele>80.0</ele><time>2026-05-03T14:11:25.567Z</time></trkpt><trkpt lat="43.3479089" lon="10.8318396"><ele>86.0</ele><time>2026-05-03T14:11:26.565Z</time></trkpt><trkpt lat="43.3480683" lon="10.8315936"><ele>92.0</ele><time>2026-05-03T14:11:27.565Z</time></trkpt><trkpt lat="43.3482364" lon="10.8313387"><ele>92.0</ele><time>2026-05-03T14:11:28.566Z</time></trkpt><trkpt lat="43.3484066" lon="10.8310801"><ele>92.0</ele><time>2026-05-03T14:11:29.565Z</time></trkpt><trkpt lat="43.3485713" lon="10.8308287"><ele>88.5</ele><time>2026-05-03T14:11:30.566Z</time></trkpt><trkpt lat="43.3487318" lon="10.8305925"><ele>85.0</ele><time>2026-05-03T14:11:31.565Z</time></trkpt><trkpt lat="43.3488837" lon="10.8303642"><ele>89.33333333333333</ele><time>2026-05-03T14:11:32.566Z</time></trkpt><trkpt lat="43.3490269" lon="10.8301403"><ele>93.66666666666666</ele><time>2026-05-03T14:11:33.566Z</time></trkpt><trkpt lat="43.3491521" lon="10.8299229"><ele>98.0</ele><time>2026-05-03T14:11:34.566Z</time></trkpt><trkpt lat="43.3492577" lon="10.829712"><ele>98.0</ele><time>2026-05-03T14:11:35.566Z</time></trkpt><trkpt lat="43.3493651" lon="10.8295179"><ele>98.0</ele><time>2026-05-03T14:11:36.566Z</time></trkpt><trkpt lat="43.3494869" lon="10.8293364"><ele>98.0</ele><time>2026-05-03T14:11:37.566Z</time></trkpt><trkpt lat="43.3496289" lon="10.8291648"><ele>101.33333333333333</ele><time>2026-05-03T14:11:38.565Z</time></trkpt><trkpt lat="43.3497703" lon="10.8290057"><ele>104.66666666666666</ele><time>2026-05-03T14:11:39.565Z</time></trkpt><trkpt lat="43.3499069" lon="10.8288607"><ele>108.0</ele><time>2026-05-03T14:11:40.565Z</time></trkpt><trkpt lat="43.3500373" lon="10.8287286"><ele>108.0</ele><time>2026-05-03T14:11:41.566Z</time></trkpt><trkpt lat="43.3501642" lon="10.828597"><ele>108.0</ele><time>2026-05-03T14:11:42.566Z</time></trkpt><trkpt lat="43.3502879" lon="10.8284653"><ele>108.0</ele><time>2026-05-03T14:11:43.564Z</time></trkpt><trkpt lat="43.350406" lon="10.8283182"><ele>106.33333333333334</ele><time>2026-05-03T14:11:44.566Z</time></trkpt><trkpt lat="43.350516" lon="10.8281549"><ele>104.66666666666667</ele><time>2026-05-03T14:11:45.566Z</time></trkpt><trkpt lat="43.3506153" lon="10.8279808"><ele>103.0</ele><time>2026-05-03T14:11:46.565Z</time></trkpt><trkpt lat="43.350694" lon="10.8277916"><ele>108.33333333333334</ele><time>2026-05-03T14:11:47.565Z</time></trkpt><trkpt lat="43.3507655" lon="10.8275936"><ele>113.66666666666666</ele><time>2026-05-03T14:11:48.565Z</time></trkpt><trkpt lat="43.3508353" lon="10.8274052"><ele>119.0</ele><time>2026-05-03T14:11:49.564Z</time></trkpt><trkpt lat="43.3509134" lon="10.827226"><ele>119.0</ele><time>2026-05-03T14:11:50.565Z</time></trkpt><trkpt lat="43.3510039" lon="10.8270652"><ele>119.0</ele><time>2026-05-03T14:11:51.566Z</time></trkpt><trkpt lat="43.3511019" lon="10.8269335"><ele>119.0</ele><time>2026-05-03T14:11:52.565Z</time></trkpt><trkpt lat="43.3512191" lon="10.8268076"><ele>119.0</ele><time>2026-05-03T14:11:53.566Z</time></trkpt><trkpt lat="43.3513419" lon="10.8266739"><ele>122.66666666666666</ele><time>2026-05-03T14:11:54.566Z</time></trkpt><trkpt lat="43.3514637" lon="10.826535"><ele>126.33333333333334</ele><time>2026-05-03T14:11:55.566Z</time></trkpt><trkpt lat="43.351574" lon="10.8263821"><ele>130.0</ele><time>2026-05-03T14:11:56.566Z</time></trkpt><trkpt lat="43.3516578" lon="10.8262065"><ele>130.0</ele><time>2026-05-03T14:11:57.567Z</time></trkpt><trkpt lat="43.3517104" lon="10.8260206"><ele>130.0</ele><time>2026-05-03T14:11:58.566Z</time></trkpt><trkpt lat="43.3517485" lon="10.8258255"><ele>130.0</ele><time>2026-05-03T14:11:59.566Z</time></trkpt><trkpt lat="43.3518019" lon="10.8256381"><ele>130.0</ele><time>2026-05-03T14:12:00.566Z</time></trkpt><trkpt lat="43.3518745" lon="10.8254603"><ele>131.0</ele><time>2026-05-03T14:12:01.566Z</time></trkpt><trkpt lat="43.3520807" lon="10.8251696"><ele>132.0</ele><time>2026-05-03T14:12:03.566Z</time></trkpt><trkpt lat="43.3522102" lon="10.8250668"><ele>133.0</ele><time>2026-05-03T14:12:04.565Z</time></trkpt><trkpt lat="43.3523545" lon="10.8249943"><ele>133.0</ele><time>2026-05-03T14:12:05.566Z</time></trkpt><trkpt lat="43.3525054" lon="10.8249488"><ele>133.0</ele><time>2026-05-03T14:12:06.564Z</time></trkpt><trkpt lat="43.3526583" lon="10.8248844"><ele>133.0</ele><time>2026-05-03T14:12:07.564Z</time></trkpt><trkpt lat="43.3527992" lon="10.8247934"><ele>133.0</ele><time>2026-05-03T14:12:08.566Z</time></trkpt><trkpt lat="43.3529218" lon="10.8246615"><ele>133.0</ele><time>2026-05-03T14:12:09.566Z</time></trkpt><trkpt lat="43.353028" lon="10.8245065"><ele>133.0</ele><time>2026-05-03T14:12:10.567Z</time></trkpt><trkpt lat="43.3531082" lon="10.8243247"><ele>134.0</ele><time>2026-05-03T14:12:11.567Z</time></trkpt><trkpt lat="43.353158" lon="10.8241195"><ele>135.0</ele><time>2026-05-03T14:12:12.565Z</time></trkpt><trkpt lat="43.3531791" lon="10.8239028"><ele>136.0</ele><time>2026-05-03T14:12:13.565Z</time></trkpt><trkpt lat="43.3531739" lon="10.8236742"><ele>135.0</ele><time>2026-05-03T14:12:14.564Z</time></trkpt><trkpt lat="43.353157" lon="10.823443"><ele>134.0</ele><time>2026-05-03T14:12:15.565Z</time></trkpt><trkpt lat="43.3531402" lon="10.8232124"><ele>133.0</ele><time>2026-05-03T14:12:16.566Z</time></trkpt><trkpt lat="43.3531459" lon="10.8229818"><ele>133.0</ele><time>2026-05-03T14:12:17.566Z</time></trkpt><trkpt lat="43.353202" lon="10.8227536"><ele>133.0</ele><time>2026-05-03T14:12:18.565Z</time></trkpt><trkpt lat="43.3532637" lon="10.822515"><ele>133.0</ele><time>2026-05-03T14:12:19.566Z</time></trkpt><trkpt lat="43.3533398" lon="10.8222984"><ele>132.33333333333334</ele><time>2026-05-03T14:12:20.566Z</time></trkpt><trkpt lat="43.3534221" lon="10.8220862"><ele>131.66666666666666</ele><time>2026-05-03T14:12:21.565Z</time></trkpt><trkpt lat="43.3534999" lon="10.8218723"><ele>131.0</ele><time>2026-05-03T14:12:22.566Z</time></trkpt><trkpt lat="43.3535624" lon="10.8216637"><ele>130.33333333333331</ele><time>2026-05-03T14:12:23.566Z</time></trkpt><trkpt lat="43.3535941" lon="10.8214393"><ele>129.66666666666666</ele><time>2026-05-03T14:12:24.566Z</time></trkpt><trkpt lat="43.3536021" lon="10.8212047"><ele>129.0</ele><time>2026-05-03T14:12:25.566Z</time></trkpt><trkpt lat="43.3535853" lon="10.8209704"><ele>128.66666666666666</ele><time>2026-05-03T14:12:26.566Z</time></trkpt><trkpt lat="43.3535493" lon="10.8207404"><ele>128.33333333333331</ele><time>2026-05-03T14:12:27.566Z</time></trkpt><trkpt lat="43.3535057" lon="10.8205224"><ele>128.0</ele><time>2026-05-03T14:12:28.566Z</time></trkpt><trkpt lat="43.3534667" lon="10.8203077"><ele>128.66666666666666</ele><time>2026-05-03T14:12:29.565Z</time></trkpt><trkpt lat="43.3534336" lon="10.8200946"><ele>129.33333333333334</ele><time>2026-05-03T14:12:30.566Z</time></trkpt><trkpt lat="43.35341" lon="10.8198859"><ele>130.0</ele><time>2026-05-03T14:12:31.566Z</time></trkpt><trkpt lat="43.3534067" lon="10.8196793"><ele>130.0</ele><time>2026-05-03T14:12:32.566Z</time></trkpt><trkpt lat="43.353428" lon="10.8194582"><ele>130.0</ele><time>2026-05-03T14:12:33.566Z</time></trkpt><trkpt lat="43.3534703" lon="10.8192317"><ele>130.0</ele><time>2026-05-03T14:12:34.565Z</time></trkpt><trkpt lat="43.3535379" lon="10.8190296"><ele>129.66666666666669</ele><time>2026-05-03T14:12:35.566Z</time></trkpt><trkpt lat="43.3536067" lon="10.8188247"><ele>129.33333333333334</ele><time>2026-05-03T14:12:36.566Z</time></trkpt><trkpt lat="43.3536715" lon="10.8186353"><ele>129.0</ele><time>2026-05-03T14:12:37.564Z</time></trkpt><trkpt lat="43.3537379" lon="10.8184574"><ele>128.25</ele><time>2026-05-03T14:12:38.566Z</time></trkpt><trkpt lat="43.3538127" lon="10.8182959"><ele>127.5</ele><time>2026-05-03T14:12:39.566Z</time></trkpt><trkpt lat="43.3539139" lon="10.8181593"><ele>126.75</ele><time>2026-05-03T14:12:40.565Z</time></trkpt><trkpt lat="43.3540332" lon="10.8180595"><ele>126.0</ele><time>2026-05-03T14:12:41.566Z</time></trkpt><trkpt lat="43.354165" lon="10.8179934"><ele>125.75</ele><time>2026-05-03T14:12:42.565Z</time></trkpt><trkpt lat="43.3543033" lon="10.8179487"><ele>125.5</ele><time>2026-05-03T14:12:43.566Z</time></trkpt><trkpt lat="43.3544436" lon="10.8178819"><ele>125.25</ele><time>2026-05-03T14:12:44.566Z</time></trkpt><trkpt lat="43.3545769" lon="10.8177877"><ele>125.0</ele><time>2026-05-03T14:12:45.565Z</time></trkpt><trkpt lat="43.354697" lon="10.8176669"><ele>124.33333333333333</ele><time>2026-05-03T14:12:46.565Z</time></trkpt><trkpt lat="43.3548073" lon="10.8175254"><ele>123.66666666666666</ele><time>2026-05-03T14:12:47.565Z</time></trkpt><trkpt lat="43.3549013" lon="10.8173546"><ele>123.0</ele><time>2026-05-03T14:12:48.566Z</time></trkpt><trkpt lat="43.3549833" lon="10.8171603"><ele>123.0</ele><time>2026-05-03T14:12:49.566Z</time></trkpt><trkpt lat="43.3550434" lon="10.8169285"><ele>123.0</ele><time>2026-05-03T14:12:50.566Z</time></trkpt><trkpt lat="43.3551006" lon="10.8166712"><ele>123.0</ele><time>2026-05-03T14:12:51.565Z</time></trkpt><trkpt lat="43.3551767" lon="10.81639"><ele>124.33333333333334</ele><time>2026-05-03T14:12:52.565Z</time></trkpt><trkpt lat="43.3552605" lon="10.8160974"><ele>125.66666666666667</ele><time>2026-05-03T14:12:53.566Z</time></trkpt><trkpt lat="43.3553379" lon="10.8158267"><ele>127.0</ele><time>2026-05-03T14:12:54.566Z</time></trkpt><trkpt lat="43.3554038" lon="10.8155634"><ele>128.33333333333334</ele><time>2026-05-03T14:12:55.565Z</time></trkpt><trkpt lat="43.355466" lon="10.8153203"><ele>129.66666666666666</ele><time>2026-05-03T14:12:56.566Z</time></trkpt><trkpt lat="43.3555209" lon="10.8150898"><ele>131.0</ele><time>2026-05-03T14:12:57.567Z</time></trkpt><trkpt lat="43.3555693" lon="10.814885"><ele>128.75</ele><time>2026-05-03T14:12:58.566Z</time></trkpt><trkpt lat="43.3556263" lon="10.8146997"><ele>126.5</ele><time>2026-05-03T14:12:59.566Z</time></trkpt><trkpt lat="43.3556961" lon="10.8145465"><ele>124.25</ele><time>2026-05-03T14:13:00.565Z</time></trkpt><trkpt lat="43.3558022" lon="10.8144181"><ele>122.0</ele><time>2026-05-03T14:13:01.566Z</time></trkpt><trkpt lat="43.3559416" lon="10.8143163"><ele>122.0</ele><time>2026-05-03T14:13:02.567Z</time></trkpt><trkpt lat="43.3561076" lon="10.814216"><ele>122.0</ele><time>2026-05-03T14:13:03.565Z</time></trkpt><trkpt lat="43.3562753" lon="10.8141221"><ele>122.0</ele><time>2026-05-03T14:13:04.566Z</time></trkpt><trkpt lat="43.3564279" lon="10.8140191"><ele>118.33333333333333</ele><time>2026-05-03T14:13:05.565Z</time></trkpt><trkpt lat="43.3565677" lon="10.8139006"><ele>114.66666666666666</ele><time>2026-05-03T14:13:06.566Z</time></trkpt><trkpt lat="43.3566922" lon="10.8137706"><ele>111.0</ele><time>2026-05-03T14:13:07.566Z</time></trkpt><trkpt lat="43.356801" lon="10.8136097"><ele>111.66666666666666</ele><time>2026-05-03T14:13:08.565Z</time></trkpt><trkpt lat="43.3569176" lon="10.8134328"><ele>112.33333333333333</ele><time>2026-05-03T14:13:09.565Z</time></trkpt><trkpt lat="43.3570324" lon="10.8132605"><ele>113.0</ele><time>2026-05-03T14:13:10.565Z</time></trkpt><trkpt lat="43.3571447" lon="10.8131035"><ele>111.75</ele><time>2026-05-03T14:13:11.566Z</time></trkpt><trkpt lat="43.3572423" lon="10.8129533"><ele>110.5</ele><time>2026-05-03T14:13:12.565Z</time></trkpt><trkpt lat="43.3573344" lon="10.8128269"><ele>109.25</ele><time>2026-05-03T14:13:13.566Z</time></trkpt><trkpt lat="43.3574266" lon="10.8127161"><ele>108.0</ele><time>2026-05-03T14:13:14.565Z</time></trkpt><trkpt lat="43.3575316" lon="10.8126392"><ele>108.0</ele><time>2026-05-03T14:13:15.565Z</time></trkpt><trkpt lat="43.357662" lon="10.8126196"><ele>108.0</ele><time>2026-05-03T14:13:16.564Z</time></trkpt><trkpt lat="43.3578119" lon="10.8126132"><ele>108.0</ele><time>2026-05-03T14:13:17.565Z</time></trkpt><trkpt lat="43.3579565" lon="10.8126178"><ele>108.0</ele><time>2026-05-03T14:13:18.564Z</time></trkpt><trkpt lat="43.3580779" lon="10.8126374"><ele>105.0</ele><time>2026-05-03T14:13:19.565Z</time></trkpt><trkpt lat="43.3581842" lon="10.8126859"><ele>102.00000000000001</ele><time>2026-05-03T14:13:20.566Z</time></trkpt><trkpt lat="43.3582621" lon="10.8127728"><ele>99.0</ele><time>2026-05-03T14:13:21.565Z</time></trkpt><trkpt lat="43.358302" lon="10.812885"><ele>96.0</ele><time>2026-05-03T14:13:22.566Z</time></trkpt><trkpt lat="43.3582965" lon="10.8130074"><ele>93.0</ele><time>2026-05-03T14:13:23.566Z</time></trkpt><trkpt lat="43.3582536" lon="10.8131467"><ele>93.0</ele><time>2026-05-03T14:13:24.566Z</time></trkpt><trkpt lat="43.3581752" lon="10.8132945"><ele>93.0</ele><time>2026-05-03T14:13:25.566Z</time></trkpt><trkpt lat="43.3580678" lon="10.8134524"><ele>93.0</ele><time>2026-05-03T14:13:26.566Z</time></trkpt><trkpt lat="43.3579483" lon="10.8136288"><ele>93.5</ele><time>2026-05-03T14:13:27.566Z</time></trkpt><trkpt lat="43.3578353" lon="10.8137982"><ele>94.0</ele><time>2026-05-03T14:13:28.565Z</time></trkpt><trkpt lat="43.3576255" lon="10.8140955"><ele>94.0</ele><time>2026-05-03T14:13:30.566Z</time></trkpt><trkpt lat="43.3575373" lon="10.814218"><ele>94.0</ele><time>2026-05-03T14:13:31.564Z</time></trkpt><trkpt lat="43.3574642" lon="10.8143286"><ele>94.0</ele><time>2026-05-03T14:13:32.565Z</time></trkpt><trkpt lat="43.3574156" lon="10.8144271"><ele>94.0</ele><time>2026-05-03T14:13:33.565Z</time></trkpt><trkpt lat="43.3574083" lon="10.8145223"><ele>94.0</ele><time>2026-05-03T14:13:34.567Z</time></trkpt><trkpt lat="43.3574401" lon="10.8146094"><ele>92.25</ele><time>2026-05-03T14:13:35.566Z</time></trkpt><trkpt lat="43.3575054" lon="10.8146636"><ele>90.5</ele><time>2026-05-03T14:13:36.566Z</time></trkpt><trkpt lat="43.3575981" lon="10.8146832"><ele>88.75</ele><time>2026-05-03T14:13:37.565Z</time></trkpt><trkpt lat="43.357726" lon="10.8146391"><ele>87.0</ele><time>2026-05-03T14:13:38.566Z</time></trkpt><trkpt lat="43.3578703" lon="10.8145739"><ele>87.0</ele><time>2026-05-03T14:13:39.566Z</time></trkpt><trkpt lat="43.3580204" lon="10.814512"><ele>87.0</ele><time>2026-05-03T14:13:40.567Z</time></trkpt><trkpt lat="43.358199" lon="10.8144331"><ele>87.0</ele><time>2026-05-03T14:13:41.565Z</time></trkpt><trkpt lat="43.3583673" lon="10.8143747"><ele>86.66666666666667</ele><time>2026-05-03T14:13:42.566Z</time></trkpt><trkpt lat="43.3585256" lon="10.8143085"><ele>86.33333333333334</ele><time>2026-05-03T14:13:43.565Z</time></trkpt><trkpt lat="43.3586674" lon="10.8142521"><ele>86.0</ele><time>2026-05-03T14:13:44.565Z</time></trkpt><trkpt lat="43.3587971" lon="10.8141755"><ele>82.66666666666667</ele><time>2026-05-03T14:13:45.564Z</time></trkpt><trkpt lat="43.3589223" lon="10.8140772"><ele>79.33333333333333</ele><time>2026-05-03T14:13:46.566Z</time></trkpt><trkpt lat="43.3590448" lon="10.8139523"><ele>76.0</ele><time>2026-05-03T14:13:47.565Z</time></trkpt><trkpt lat="43.3591531" lon="10.8137763"><ele>76.0</ele><time>2026-05-03T14:13:48.565Z</time></trkpt><trkpt lat="43.3592672" lon="10.8136272"><ele>76.0</ele><time>2026-05-03T14:13:49.565Z</time></trkpt><trkpt lat="43.3593743" lon="10.8134832"><ele>76.0</ele><time>2026-05-03T14:13:50.566Z</time></trkpt><trkpt lat="43.3594755" lon="10.8133543"><ele>76.0</ele><time>2026-05-03T14:13:51.566Z</time></trkpt><trkpt lat="43.3595711" lon="10.8132275"><ele>75.6</ele><time>2026-05-03T14:13:52.565Z</time></trkpt><trkpt lat="43.3596536" lon="10.8131152"><ele>75.19999999999999</ele><time>2026-05-03T14:13:53.565Z</time></trkpt><trkpt lat="43.3597199" lon="10.8130168"><ele>74.80000000000001</ele><time>2026-05-03T14:13:54.565Z</time></trkpt><trkpt lat="43.3597766" lon="10.8129271"><ele>74.4</ele><time>2026-05-03T14:13:55.566Z</time></trkpt><trkpt lat="43.3598284" lon="10.8128537"><ele>74.0</ele><time>2026-05-03T14:13:56.564Z</time></trkpt><trkpt lat="43.3599024" lon="10.8127471"><ele>74.0</ele><time>2026-05-03T14:13:58.566Z</time></trkpt><trkpt lat="43.3599544" lon="10.8126785"><ele>74.0</ele><time>2026-05-03T14:14:01.566Z</time></trkpt><trkpt lat="43.3600461" lon="10.8125608"><ele>74.0</ele><time>2026-05-03T14:14:21.565Z</time></trkpt><trkpt lat="43.3601106" lon="10.8125081"><ele>74.0</ele><time>2026-05-03T14:14:22.565Z</time></trkpt><trkpt lat="43.3601967" lon="10.8124429"><ele>74.0</ele><time>2026-05-03T14:14:23.565Z</time></trkpt><trkpt lat="43.3602593" lon="10.8123744"><ele>73.83333333333334</ele><time>2026-05-03T14:14:24.566Z</time></trkpt><trkpt lat="43.3603181" lon="10.812312"><ele>73.66666666666667</ele><time>2026-05-03T14:14:25.566Z</time></trkpt><trkpt lat="43.3603776" lon="10.8122618"><ele>73.5</ele><time>2026-05-03T14:14:26.565Z</time></trkpt><trkpt lat="43.3604541" lon="10.8122401"><ele>73.33333333333333</ele><time>2026-05-03T14:14:27.566Z</time></trkpt><trkpt lat="43.3605496" lon="10.812267"><ele>73.16666666666666</ele><time>2026-05-03T14:14:28.566Z</time></trkpt><trkpt lat="43.3606642" lon="10.8123149"><ele>73.0</ele><time>2026-05-03T14:14:29.567Z</time></trkpt><trkpt lat="43.3607888" lon="10.8123373"><ele>73.0</ele><time>2026-05-03T14:14:30.566Z</time></trkpt><trkpt lat="43.3609234" lon="10.8123335"><ele>73.0</ele><time>2026-05-03T14:14:31.565Z</time></trkpt><trkpt lat="43.3610482" lon="10.8123034"><ele>73.0</ele><time>2026-05-03T14:14:32.566Z</time></trkpt><trkpt lat="43.3611539" lon="10.8122675"><ele>73.0</ele><time>2026-05-03T14:14:33.566Z</time></trkpt><trkpt lat="43.3612304" lon="10.8122462"><ele>73.0</ele><time>2026-05-03T14:14:34.567Z</time></trkpt><trkpt lat="43.3613276" lon="10.8122451"><ele>73.6</ele><time>2026-05-03T14:14:36.564Z</time></trkpt><trkpt lat="43.3613913" lon="10.8122744"><ele>74.19999999999999</ele><time>2026-05-03T14:14:37.565Z</time></trkpt><trkpt lat="43.3614723" lon="10.8123316"><ele>74.8</ele><time>2026-05-03T14:14:38.566Z</time></trkpt><trkpt lat="43.3615786" lon="10.8124035"><ele>75.39999999999999</ele><time>2026-05-03T14:14:39.566Z</time></trkpt><trkpt lat="43.3616867" lon="10.812468"><ele>76.0</ele><time>2026-05-03T14:14:40.566Z</time></trkpt><trkpt lat="43.3618023" lon="10.8125181"><ele>76.0</ele><time>2026-05-03T14:14:41.566Z</time></trkpt><trkpt lat="43.3619254" lon="10.8125569"><ele>76.0</ele><time>2026-05-03T14:14:42.565Z</time></trkpt><trkpt lat="43.3620516" lon="10.812591"><ele>76.0</ele><time>2026-05-03T14:14:43.565Z</time></trkpt><trkpt lat="43.3621819" lon="10.8126125"><ele>76.0</ele><time>2026-05-03T14:14:44.565Z</time></trkpt><trkpt lat="43.3623126" lon="10.8126253"><ele>76.75</ele><time>2026-05-03T14:14:45.566Z</time></trkpt><trkpt lat="43.3624496" lon="10.8126268"><ele>77.5</ele><time>2026-05-03T14:14:46.565Z</time></trkpt><trkpt lat="43.3625927" lon="10.8126264"><ele>78.25</ele><time>2026-05-03T14:14:47.566Z</time></trkpt><trkpt lat="43.3627305" lon="10.8126296"><ele>79.0</ele><time>2026-05-03T14:14:48.567Z</time></trkpt><trkpt lat="43.3628804" lon="10.8126308"><ele>79.0</ele><time>2026-05-03T14:14:49.566Z</time></trkpt><trkpt lat="43.3630306" lon="10.812632"><ele>79.0</ele><time>2026-05-03T14:14:50.567Z</time></trkpt><trkpt lat="43.3631813" lon="10.812635"><ele>79.0</ele><time>2026-05-03T14:14:51.566Z</time></trkpt><trkpt lat="43.3633247" lon="10.8126389"><ele>79.0</ele><time>2026-05-03T14:14:52.566Z</time></trkpt><trkpt lat="43.3634553" lon="10.8126422"><ele>79.0</ele><time>2026-05-03T14:14:53.567Z</time></trkpt><trkpt lat="43.3635731" lon="10.8126547"><ele>79.0</ele><time>2026-05-03T14:14:54.564Z</time></trkpt><trkpt lat="43.3636828" lon="10.8126792"><ele>79.0</ele><time>2026-05-03T14:14:55.565Z</time></trkpt><trkpt lat="43.3637849" lon="10.8127279"><ele>79.0</ele><time>2026-05-03T14:14:56.565Z</time></trkpt><trkpt lat="43.3638802" lon="10.8127924"><ele>79.0</ele><time>2026-05-03T14:14:57.566Z</time></trkpt><trkpt lat="43.3639798" lon="10.8128739"><ele>78.75</ele><time>2026-05-03T14:14:58.566Z</time></trkpt><trkpt lat="43.3640876" lon="10.8129757"><ele>78.5</ele><time>2026-05-03T14:14:59.565Z</time></trkpt><trkpt lat="43.3642013" lon="10.8130832"><ele>78.25</ele><time>2026-05-03T14:15:00.565Z</time></trkpt><trkpt lat="43.3643264" lon="10.8132043"><ele>78.0</ele><time>2026-05-03T14:15:01.566Z</time></trkpt><trkpt lat="43.3644549" lon="10.8133293"><ele>78.0</ele><time>2026-05-03T14:15:02.566Z</time></trkpt><trkpt lat="43.3646195" lon="10.813477"><ele>78.0</ele><time>2026-05-03T14:15:03.566Z</time></trkpt><trkpt lat="43.3647923" lon="10.8136296"><ele>78.0</ele><time>2026-05-03T14:15:04.565Z</time></trkpt><trkpt lat="43.3649664" lon="10.8137929"><ele>78.5</ele><time>2026-05-03T14:15:05.565Z</time></trkpt><trkpt lat="43.3651548" lon="10.8139701"><ele>79.0</ele><time>2026-05-03T14:15:06.565Z</time></trkpt><trkpt lat="43.365362" lon="10.8141586"><ele>81.0</ele><time>2026-05-03T14:15:07.566Z</time></trkpt><trkpt lat="43.3655582" lon="10.8143391"><ele>83.0</ele><time>2026-05-03T14:15:08.566Z</time></trkpt><trkpt lat="43.3657452" lon="10.8145067"><ele>83.0</ele><time>2026-05-03T14:15:09.566Z</time></trkpt><trkpt lat="43.3659345" lon="10.8146524"><ele>83.0</ele><time>2026-05-03T14:15:10.566Z</time></trkpt><trkpt lat="43.3661306" lon="10.8147802"><ele>83.0</ele><time>2026-05-03T14:15:11.565Z</time></trkpt><trkpt lat="43.3663277" lon="10.8148888"><ele>86.0</ele><time>2026-05-03T14:15:12.567Z</time></trkpt><trkpt lat="43.3665189" lon="10.8149792"><ele>89.0</ele><time>2026-05-03T14:15:13.565Z</time></trkpt><trkpt lat="43.3667" lon="10.8150603"><ele>92.0</ele><time>2026-05-03T14:15:14.564Z</time></trkpt><trkpt lat="43.3668734" lon="10.8151127"><ele>92.0</ele><time>2026-05-03T14:15:15.566Z</time></trkpt><trkpt lat="43.3670455" lon="10.8151223"><ele>92.0</ele><time>2026-05-03T14:15:16.564Z</time></trkpt><trkpt lat="43.3672241" lon="10.8150725"><ele>92.0</ele><time>2026-05-03T14:15:17.565Z</time></trkpt><trkpt lat="43.3674028" lon="10.8149874"><ele>92.66666666666667</ele><time>2026-05-03T14:15:18.566Z</time></trkpt><trkpt lat="43.3675855" lon="10.8148932"><ele>93.33333333333333</ele><time>2026-05-03T14:15:19.566Z</time></trkpt><trkpt lat="43.3677642" lon="10.8148321"><ele>94.0</ele><time>2026-05-03T14:15:20.565Z</time></trkpt><trkpt lat="43.367931" lon="10.8147906"><ele>94.5</ele><time>2026-05-03T14:15:21.565Z</time></trkpt><trkpt lat="43.3680757" lon="10.8147719"><ele>95.0</ele><time>2026-05-03T14:15:22.567Z</time></trkpt><trkpt lat="43.3682138" lon="10.8147762"><ele>95.5</ele><time>2026-05-03T14:15:23.565Z</time></trkpt><trkpt lat="43.3683305" lon="10.8148323"><ele>96.0</ele><time>2026-05-03T14:15:24.565Z</time></trkpt><trkpt lat="43.3684258" lon="10.8149268"><ele>96.0</ele><time>2026-05-03T14:15:25.567Z</time></trkpt><trkpt lat="43.3684887" lon="10.8150813"><ele>96.0</ele><time>2026-05-03T14:15:26.564Z</time></trkpt><trkpt lat="43.368506" lon="10.8152709"><ele>96.0</ele><time>2026-05-03T14:15:27.566Z</time></trkpt><trkpt lat="43.3684977" lon="10.8155007"><ele>96.0</ele><time>2026-05-03T14:15:28.566Z</time></trkpt><trkpt lat="43.3684949" lon="10.8157339"><ele>97.25</ele><time>2026-05-03T14:15:29.565Z</time></trkpt><trkpt lat="43.3685133" lon="10.8159401"><ele>98.5</ele><time>2026-05-03T14:15:30.564Z</time></trkpt><trkpt lat="43.3685512" lon="10.8161308"><ele>99.75</ele><time>2026-05-03T14:15:31.566Z</time></trkpt><trkpt lat="43.3686288" lon="10.8162928"><ele>101.0</ele><time>2026-05-03T14:15:32.565Z</time></trkpt><trkpt lat="43.3687327" lon="10.816413"><ele>101.75</ele><time>2026-05-03T14:15:33.565Z</time></trkpt><trkpt lat="43.3688438" lon="10.8165222"><ele>102.5</ele><time>2026-05-03T14:15:34.565Z</time></trkpt><trkpt lat="43.368939" lon="10.8166578"><ele>103.25</ele><time>2026-05-03T14:15:35.566Z</time></trkpt><trkpt lat="43.3690117" lon="10.8168464"><ele>104.0</ele><time>2026-05-03T14:15:36.566Z</time></trkpt><trkpt lat="43.3690813" lon="10.8170758"><ele>106.33333333333333</ele><time>2026-05-03T14:15:37.565Z</time></trkpt><trkpt lat="43.3691573" lon="10.8173304"><ele>108.66666666666666</ele><time>2026-05-03T14:15:38.566Z</time></trkpt><trkpt lat="43.3692324" lon="10.8175986"><ele>111.0</ele><time>2026-05-03T14:15:39.567Z</time></trkpt><trkpt lat="43.369325" lon="10.8178872"><ele>113.66666666666666</ele><time>2026-05-03T14:15:40.566Z</time></trkpt><trkpt lat="43.3694022" lon="10.8181508"><ele>116.33333333333333</ele><time>2026-05-03T14:15:41.565Z</time></trkpt><trkpt lat="43.3694876" lon="10.8184047"><ele>119.0</ele><time>2026-05-03T14:15:42.566Z</time></trkpt><trkpt lat="43.3695884" lon="10.8186535"><ele>117.0</ele><time>2026-05-03T14:15:43.567Z</time></trkpt><trkpt lat="43.3697106" lon="10.8189048"><ele>115.0</ele><time>2026-05-03T14:15:44.566Z</time></trkpt><trkpt lat="43.3698467" lon="10.8191616"><ele>117.66666666666667</ele><time>2026-05-03T14:15:45.566Z</time></trkpt><trkpt lat="43.3699768" lon="10.8194075"><ele>120.33333333333334</ele><time>2026-05-03T14:15:46.565Z</time></trkpt><trkpt lat="43.3701002" lon="10.8196411"><ele>123.0</ele><time>2026-05-03T14:15:47.566Z</time></trkpt><trkpt lat="43.3702281" lon="10.8198591"><ele>123.0</ele><time>2026-05-03T14:15:48.565Z</time></trkpt><trkpt lat="43.3703632" lon="10.8200613"><ele>123.0</ele><time>2026-05-03T14:15:49.565Z</time></trkpt><trkpt lat="43.3705336" lon="10.8202364"><ele>123.0</ele><time>2026-05-03T14:15:50.567Z</time></trkpt><trkpt lat="43.3707197" lon="10.820403"><ele>123.0</ele><time>2026-05-03T14:15:51.565Z</time></trkpt><trkpt lat="43.3709223" lon="10.8205797"><ele>123.0</ele><time>2026-05-03T14:15:52.566Z</time></trkpt><trkpt lat="43.3711186" lon="10.8207609"><ele>123.0</ele><time>2026-05-03T14:15:53.565Z</time></trkpt><trkpt lat="43.3713087" lon="10.8209304"><ele>123.0</ele><time>2026-05-03T14:15:54.565Z</time></trkpt><trkpt lat="43.371485" lon="10.8210881"><ele>123.0</ele><time>2026-05-03T14:15:55.565Z</time></trkpt><trkpt lat="43.3716507" lon="10.8212386"><ele>123.33333333333334</ele><time>2026-05-03T14:15:56.565Z</time></trkpt><trkpt lat="43.3718163" lon="10.8213751"><ele>123.66666666666667</ele><time>2026-05-03T14:15:57.566Z</time></trkpt><trkpt lat="43.3719663" lon="10.8215112"><ele>124.0</ele><time>2026-05-03T14:15:58.567Z</time></trkpt><trkpt lat="43.3721151" lon="10.8216327"><ele>124.0</ele><time>2026-05-03T14:15:59.566Z</time></trkpt><trkpt lat="43.3722589" lon="10.821723"><ele>124.0</ele><time>2026-05-03T14:16:00.566Z</time></trkpt><trkpt lat="43.3724019" lon="10.8217619"><ele>124.0</ele><time>2026-05-03T14:16:01.566Z</time></trkpt><trkpt lat="43.3725462" lon="10.8217485"><ele>124.0</ele><time>2026-05-03T14:16:02.567Z</time></trkpt><trkpt lat="43.372688" lon="10.8217257"><ele>124.0</ele><time>2026-05-03T14:16:03.564Z</time></trkpt><trkpt lat="43.372832" lon="10.8217501"><ele>124.0</ele><time>2026-05-03T14:16:04.566Z</time></trkpt><trkpt lat="43.3729727" lon="10.8218132"><ele>124.0</ele><time>2026-05-03T14:16:05.566Z</time></trkpt><trkpt lat="43.37309" lon="10.821979"><ele>124.66666666666667</ele><time>2026-05-03T14:16:06.565Z</time></trkpt><trkpt lat="43.3732163" lon="10.822151"><ele>125.33333333333334</ele><time>2026-05-03T14:16:07.565Z</time></trkpt><trkpt lat="43.37335" lon="10.8223025"><ele>126.0</ele><time>2026-05-03T14:16:08.566Z</time></trkpt><trkpt lat="43.3735007" lon="10.8224201"><ele>126.0</ele><time>2026-05-03T14:16:09.566Z</time></trkpt><trkpt lat="43.373656" lon="10.8224885"><ele>126.0</ele><time>2026-05-03T14:16:10.565Z</time></trkpt><trkpt lat="43.3738406" lon="10.8225212"><ele>126.0</ele><time>2026-05-03T14:16:11.566Z</time></trkpt><trkpt lat="43.374036" lon="10.8225082"><ele>128.33333333333334</ele><time>2026-05-03T14:16:12.566Z</time></trkpt><trkpt lat="43.3742279" lon="10.8224558"><ele>130.66666666666669</ele><time>2026-05-03T14:16:13.565Z</time></trkpt><trkpt lat="43.3744202" lon="10.8223703"><ele>133.0</ele><time>2026-05-03T14:16:14.565Z</time></trkpt><trkpt lat="43.3745965" lon="10.8222753"><ele>133.0</ele><time>2026-05-03T14:16:15.566Z</time></trkpt><trkpt lat="43.3747563" lon="10.8221954"><ele>133.0</ele><time>2026-05-03T14:16:16.566Z</time></trkpt><trkpt lat="43.374908" lon="10.8221564"><ele>133.0</ele><time>2026-05-03T14:16:17.565Z</time></trkpt><trkpt lat="43.3750715" lon="10.8221714"><ele>133.0</ele><time>2026-05-03T14:16:18.565Z</time></trkpt><trkpt lat="43.3752586" lon="10.8222284"><ele>133.0</ele><time>2026-05-03T14:16:19.565Z</time></trkpt><trkpt lat="43.3754615" lon="10.8222827"><ele>133.0</ele><time>2026-05-03T14:16:20.564Z</time></trkpt><trkpt lat="43.3756859" lon="10.8223243"><ele>131.0</ele><time>2026-05-03T14:16:21.567Z</time></trkpt><trkpt lat="43.3759239" lon="10.8223565"><ele>129.0</ele><time>2026-05-03T14:16:22.565Z</time></trkpt><trkpt lat="43.376159" lon="10.8223785"><ele>129.0</ele><time>2026-05-03T14:16:23.565Z</time></trkpt><trkpt lat="43.3763875" lon="10.8223962"><ele>129.0</ele><time>2026-05-03T14:16:24.566Z</time></trkpt><trkpt lat="43.376607" lon="10.8224159"><ele>129.0</ele><time>2026-05-03T14:16:25.565Z</time></trkpt><trkpt lat="43.3768159" lon="10.8224324"><ele>129.0</ele><time>2026-05-03T14:16:26.566Z</time></trkpt><trkpt lat="43.3770155" lon="10.8224499"><ele>129.0</ele><time>2026-05-03T14:16:27.564Z</time></trkpt><trkpt lat="43.3771978" lon="10.8224785"><ele>129.0</ele><time>2026-05-03T14:16:28.566Z</time></trkpt><trkpt lat="43.3773541" lon="10.8225436"><ele>129.66666666666666</ele><time>2026-05-03T14:16:29.565Z</time></trkpt><trkpt lat="43.3774955" lon="10.8226609"><ele>130.33333333333331</ele><time>2026-05-03T14:16:30.566Z</time></trkpt><trkpt lat="43.3776182" lon="10.8228304"><ele>131.0</ele><time>2026-05-03T14:16:31.565Z</time></trkpt><trkpt lat="43.377723" lon="10.8230448"><ele>131.0</ele><time>2026-05-03T14:16:32.564Z</time></trkpt><trkpt lat="43.3778299" lon="10.8232422"><ele>131.0</ele><time>2026-05-03T14:16:33.565Z</time></trkpt><trkpt lat="43.3779472" lon="10.8234027"><ele>131.0</ele><time>2026-05-03T14:16:34.565Z</time></trkpt><trkpt lat="43.3780978" lon="10.8235156"><ele>133.0</ele><time>2026-05-03T14:16:35.565Z</time></trkpt><trkpt lat="43.3782685" lon="10.8235945"><ele>135.0</ele><time>2026-05-03T14:16:36.565Z</time></trkpt><trkpt lat="43.3784492" lon="10.8236453"><ele>137.0</ele><time>2026-05-03T14:16:37.566Z</time></trkpt><trkpt lat="43.3786235" lon="10.823716"><ele>137.0</ele><time>2026-05-03T14:16:38.565Z</time></trkpt><trkpt lat="43.3787894" lon="10.823804"><ele>137.0</ele><time>2026-05-03T14:16:39.566Z</time></trkpt><trkpt lat="43.378951" lon="10.8239362"><ele>137.0</ele><time>2026-05-03T14:16:40.565Z</time></trkpt><trkpt lat="43.3791077" lon="10.82411"><ele>139.33333333333331</ele><time>2026-05-03T14:16:41.566Z</time></trkpt><trkpt lat="43.3792753" lon="10.8243013"><ele>141.66666666666666</ele><time>2026-05-03T14:16:42.565Z</time></trkpt><trkpt lat="43.3794632" lon="10.8244602"><ele>144.0</ele><time>2026-05-03T14:16:43.565Z</time></trkpt><trkpt lat="43.3796525" lon="10.8245789"><ele>147.0</ele><time>2026-05-03T14:16:44.565Z</time></trkpt><trkpt lat="43.3798302" lon="10.8246808"><ele>150.0</ele><time>2026-05-03T14:16:45.565Z</time></trkpt><trkpt lat="43.3799834" lon="10.8247967"><ele>153.0</ele><time>2026-05-03T14:16:46.565Z</time></trkpt><trkpt lat="43.3801087" lon="10.8249248"><ele>153.0</ele><time>2026-05-03T14:16:47.566Z</time></trkpt><trkpt lat="43.3802102" lon="10.8250703"><ele>153.0</ele><time>2026-05-03T14:16:48.566Z</time></trkpt><trkpt lat="43.3802837" lon="10.825256"><ele>153.0</ele><time>2026-05-03T14:16:49.564Z</time></trkpt><trkpt lat="43.3803174" lon="10.8254885"><ele>154.66666666666666</ele><time>2026-05-03T14:16:50.566Z</time></trkpt><trkpt lat="43.380326" lon="10.8257537"><ele>156.33333333333331</ele><time>2026-05-03T14:16:51.566Z</time></trkpt><trkpt lat="43.3803304" lon="10.8260267"><ele>158.0</ele><time>2026-05-03T14:16:52.565Z</time></trkpt><trkpt lat="43.3803404" lon="10.826265"><ele>158.0</ele><time>2026-05-03T14:16:53.565Z</time></trkpt><trkpt lat="43.3803557" lon="10.8264745"><ele>158.0</ele><time>2026-05-03T14:16:54.565Z</time></trkpt><trkpt lat="43.3803967" lon="10.8266626"><ele>158.0</ele><time>2026-05-03T14:16:55.565Z</time></trkpt><trkpt lat="43.3804728" lon="10.8268235"><ele>158.0</ele><time>2026-05-03T14:16:56.565Z</time></trkpt><trkpt lat="43.3805818" lon="10.8269499"><ele>161.0</ele><time>2026-05-03T14:16:57.566Z</time></trkpt><trkpt lat="43.3807108" lon="10.8270689"><ele>164.0</ele><time>2026-05-03T14:16:58.565Z</time></trkpt><trkpt lat="43.3809106" lon="10.827375"><ele>164.0</ele><time>2026-05-03T14:17:00.566Z</time></trkpt><trkpt lat="43.3809815" lon="10.8275945"><ele>164.0</ele><time>2026-05-03T14:17:01.566Z</time></trkpt><trkpt lat="43.3810407" lon="10.8278223"><ele>164.0</ele><time>2026-05-03T14:17:02.565Z</time></trkpt><trkpt lat="43.3810747" lon="10.8280428"><ele>163.0</ele><time>2026-05-03T14:17:03.565Z</time></trkpt><trkpt lat="43.3810746" lon="10.8282758"><ele>162.0</ele><time>2026-05-03T14:17:04.565Z</time></trkpt><trkpt lat="43.3810167" lon="10.8288387"><ele>161.0</ele><time>2026-05-03T14:17:06.565Z</time></trkpt><trkpt lat="43.3809843" lon="10.829163"><ele>160.0</ele><time>2026-05-03T14:17:07.566Z</time></trkpt><trkpt lat="43.3809456" lon="10.8295029"><ele>160.0</ele><time>2026-05-03T14:17:08.566Z</time></trkpt><trkpt lat="43.3809067" lon="10.8298466"><ele>160.0</ele><time>2026-05-03T14:17:09.566Z</time></trkpt><trkpt lat="43.3808648" lon="10.8301979"><ele>160.5</ele><time>2026-05-03T14:17:10.565Z</time></trkpt><trkpt lat="43.3808302" lon="10.8305364"><ele>161.0</ele><time>2026-05-03T14:17:11.566Z</time></trkpt><trkpt lat="43.3808094" lon="10.8308588"><ele>162.33333333333331</ele><time>2026-05-03T14:17:12.566Z</time></trkpt><trkpt lat="43.3808143" lon="10.8311693"><ele>163.66666666666666</ele><time>2026-05-03T14:17:13.566Z</time></trkpt><trkpt lat="43.3808554" lon="10.8314676"><ele>165.0</ele><time>2026-05-03T14:17:14.565Z</time></trkpt><trkpt lat="43.3809106" lon="10.8317679"><ele>165.0</ele><time>2026-05-03T14:17:15.565Z</time></trkpt><trkpt lat="43.3809744" lon="10.8320731"><ele>165.0</ele><time>2026-05-03T14:17:16.567Z</time></trkpt><trkpt lat="43.3810853" lon="10.8323677"><ele>165.0</ele><time>2026-05-03T14:17:17.566Z</time></trkpt><trkpt lat="43.3812053" lon="10.8326608"><ele>165.0</ele><time>2026-05-03T14:17:18.566Z</time></trkpt><trkpt lat="43.3813399" lon="10.832949"><ele>166.5</ele><time>2026-05-03T14:17:19.567Z</time></trkpt><trkpt lat="43.3814942" lon="10.8332375"><ele>168.0</ele><time>2026-05-03T14:17:20.566Z</time></trkpt><trkpt lat="43.3816592" lon="10.8335272"><ele>171.5</ele><time>2026-05-03T14:17:21.566Z</time></trkpt><trkpt lat="43.38182" lon="10.8338211"><ele>175.0</ele><time>2026-05-03T14:17:22.565Z</time></trkpt><trkpt lat="43.3819784" lon="10.8341052"><ele>174.0</ele><time>2026-05-03T14:17:23.565Z</time></trkpt><trkpt lat="43.3821387" lon="10.8343739"><ele>173.0</ele><time>2026-05-03T14:17:24.565Z</time></trkpt><trkpt lat="43.3823111" lon="10.8346376"><ele>174.5</ele><time>2026-05-03T14:17:25.566Z</time></trkpt><trkpt lat="43.382489" lon="10.8348966"><ele>176.0</ele><time>2026-05-03T14:17:26.566Z</time></trkpt><trkpt lat="43.3826696" lon="10.8351407"><ele>176.0</ele><time>2026-05-03T14:17:27.566Z</time></trkpt><trkpt lat="43.3828369" lon="10.8353684"><ele>176.0</ele><time>2026-05-03T14:17:28.565Z</time></trkpt><trkpt lat="43.3829899" lon="10.8355842"><ele>176.66666666666666</ele><time>2026-05-03T14:17:29.565Z</time></trkpt><trkpt lat="43.383141" lon="10.8357918"><ele>177.33333333333334</ele><time>2026-05-03T14:17:30.566Z</time></trkpt><trkpt lat="43.3833027" lon="10.8359918"><ele>178.0</ele><time>2026-05-03T14:17:31.565Z</time></trkpt><trkpt lat="43.3834759" lon="10.836189"><ele>178.0</ele><time>2026-05-03T14:17:32.564Z</time></trkpt><trkpt lat="43.3836524" lon="10.8363904"><ele>178.0</ele><time>2026-05-03T14:17:33.567Z</time></trkpt><trkpt lat="43.383833" lon="10.8365991"><ele>178.66666666666669</ele><time>2026-05-03T14:17:34.565Z</time></trkpt><trkpt lat="43.3840095" lon="10.8368062"><ele>179.33333333333334</ele><time>2026-05-03T14:17:35.566Z</time></trkpt><trkpt lat="43.384174" lon="10.8369927"><ele>180.0</ele><time>2026-05-03T14:17:36.566Z</time></trkpt><trkpt lat="43.3843281" lon="10.8371711"><ele>180.0</ele><time>2026-05-03T14:17:37.566Z</time></trkpt><trkpt lat="43.3844737" lon="10.8373337"><ele>180.0</ele><time>2026-05-03T14:17:38.565Z</time></trkpt><trkpt lat="43.3846148" lon="10.8374598"><ele>180.0</ele><time>2026-05-03T14:17:39.565Z</time></trkpt><trkpt lat="43.38477" lon="10.8375531"><ele>182.66666666666666</ele><time>2026-05-03T14:17:40.566Z</time></trkpt><trkpt lat="43.3849459" lon="10.8376064"><ele>185.33333333333331</ele><time>2026-05-03T14:17:41.565Z</time></trkpt><trkpt lat="43.3851216" lon="10.8376187"><ele>188.0</ele><time>2026-05-03T14:17:42.565Z</time></trkpt><trkpt lat="43.3853077" lon="10.8376308"><ele>188.66666666666666</ele><time>2026-05-03T14:17:43.566Z</time></trkpt><trkpt lat="43.3855036" lon="10.8376572"><ele>189.33333333333334</ele><time>2026-05-03T14:17:44.566Z</time></trkpt><trkpt lat="43.3857163" lon="10.8377226"><ele>190.0</ele><time>2026-05-03T14:17:45.564Z</time></trkpt><trkpt lat="43.385934" lon="10.8378188"><ele>194.0</ele><time>2026-05-03T14:17:46.566Z</time></trkpt><trkpt lat="43.3861543" lon="10.8379309"><ele>198.0</ele><time>2026-05-03T14:17:47.565Z</time></trkpt><trkpt lat="43.386364" lon="10.8380494"><ele>199.33333333333331</ele><time>2026-05-03T14:17:48.566Z</time></trkpt><trkpt lat="43.3865516" lon="10.8381655"><ele>200.66666666666666</ele><time>2026-05-03T14:17:49.565Z</time></trkpt><trkpt lat="43.3867224" lon="10.8382777"><ele>202.0</ele><time>2026-05-03T14:17:50.565Z</time></trkpt><trkpt lat="43.3868724" lon="10.8384033"><ele>205.33333333333331</ele><time>2026-05-03T14:17:51.567Z</time></trkpt><trkpt lat="43.3869948" lon="10.8385519"><ele>208.66666666666669</ele><time>2026-05-03T14:17:52.565Z</time></trkpt><trkpt lat="43.3870824" lon="10.8387332"><ele>212.0</ele><time>2026-05-03T14:17:53.566Z</time></trkpt><trkpt lat="43.3871399" lon="10.8389086"><ele>213.5</ele><time>2026-05-03T14:17:54.566Z</time></trkpt><trkpt lat="43.3872075" lon="10.8390857"><ele>215.0</ele><time>2026-05-03T14:17:55.565Z</time></trkpt><trkpt lat="43.3872992" lon="10.8392359"><ele>216.5</ele><time>2026-05-03T14:17:56.565Z</time></trkpt><trkpt lat="43.3873973" lon="10.8393535"><ele>218.0</ele><time>2026-05-03T14:17:57.567Z</time></trkpt><trkpt lat="43.3874979" lon="10.839451"><ele>218.0</ele><time>2026-05-03T14:17:58.566Z</time></trkpt><trkpt lat="43.3875941" lon="10.8395562"><ele>218.0</ele><time>2026-05-03T14:17:59.565Z</time></trkpt><trkpt lat="43.3876912" lon="10.839662"><ele>218.0</ele><time>2026-05-03T14:18:00.565Z</time></trkpt><trkpt lat="43.3877919" lon="10.8397759"><ele>218.0</ele><time>2026-05-03T14:18:01.566Z</time></trkpt><trkpt lat="43.3878974" lon="10.8398941"><ele>218.0</ele><time>2026-05-03T14:18:02.566Z</time></trkpt><trkpt lat="43.3880075" lon="10.8400118"><ele>218.0</ele><time>2026-05-03T14:18:03.567Z</time></trkpt><trkpt lat="43.3881122" lon="10.8401346"><ele>218.0</ele><time>2026-05-03T14:18:04.565Z</time></trkpt><trkpt lat="43.3882189" lon="10.8402539"><ele>218.0</ele><time>2026-05-03T14:18:05.565Z</time></trkpt><trkpt lat="43.3883163" lon="10.8403777"><ele>218.75</ele><time>2026-05-03T14:18:06.565Z</time></trkpt><trkpt lat="43.3884084" lon="10.8405062"><ele>219.5</ele><time>2026-05-03T14:18:07.564Z</time></trkpt><trkpt lat="43.3885007" lon="10.8406314"><ele>220.25</ele><time>2026-05-03T14:18:08.565Z</time></trkpt><trkpt lat="43.3885851" lon="10.8407502"><ele>221.0</ele><time>2026-05-03T14:18:09.564Z</time></trkpt><trkpt lat="43.3886718" lon="10.8408636"><ele>222.0</ele><time>2026-05-03T14:18:10.565Z</time></trkpt><trkpt lat="43.388758" lon="10.8409775"><ele>223.00000000000003</ele><time>2026-05-03T14:18:11.565Z</time></trkpt><trkpt lat="43.3888317" lon="10.8410922"><ele>224.00000000000003</ele><time>2026-05-03T14:18:12.565Z</time></trkpt><trkpt lat="43.3888988" lon="10.8412113"><ele>225.0</ele><time>2026-05-03T14:18:13.564Z</time></trkpt><trkpt lat="43.3889356" lon="10.8413407"><ele>226.0</ele><time>2026-05-03T14:18:14.565Z</time></trkpt><trkpt lat="43.3889822" lon="10.8414625"><ele>226.0</ele><time>2026-05-03T14:18:15.565Z</time></trkpt><trkpt lat="43.3890547" lon="10.8415731"><ele>226.00000000000003</ele><time>2026-05-03T14:18:16.566Z</time></trkpt><trkpt lat="43.3891317" lon="10.8416553"><ele>226.00000000000003</ele><time>2026-05-03T14:18:17.566Z</time></trkpt><trkpt lat="43.3892247" lon="10.841711"><ele>226.0</ele><time>2026-05-03T14:18:18.566Z</time></trkpt><trkpt lat="43.3893468" lon="10.8417338"><ele>226.0</ele><time>2026-05-03T14:18:19.565Z</time></trkpt><trkpt lat="43.3896303" lon="10.8417225"><ele>226.66666666666666</ele><time>2026-05-03T14:18:21.564Z</time></trkpt><trkpt lat="43.3897982" lon="10.8417271"><ele>227.33333333333331</ele><time>2026-05-03T14:18:22.565Z</time></trkpt><trkpt lat="43.3899547" lon="10.8417299"><ele>228.0</ele><time>2026-05-03T14:18:23.565Z</time></trkpt><trkpt lat="43.3901021" lon="10.8417386"><ele>228.0</ele><time>2026-05-03T14:18:24.565Z</time></trkpt><trkpt lat="43.3902295" lon="10.8417338"><ele>228.0</ele><time>2026-05-03T14:18:25.567Z</time></trkpt><trkpt lat="43.3903499" lon="10.8417277"><ele>228.0</ele><time>2026-05-03T14:18:26.565Z</time></trkpt><trkpt lat="43.3904666" lon="10.8417239"><ele>228.0</ele><time>2026-05-03T14:18:27.567Z</time></trkpt><trkpt lat="43.3905808" lon="10.8417369"><ele>228.0</ele><time>2026-05-03T14:18:28.566Z</time></trkpt><trkpt lat="43.3906892" lon="10.8417731"><ele>228.0</ele><time>2026-05-03T14:18:29.565Z</time></trkpt><trkpt lat="43.3907926" lon="10.8418248"><ele>228.0</ele><time>2026-05-03T14:18:30.566Z</time></trkpt><trkpt lat="43.3908876" lon="10.8418967"><ele>228.0</ele><time>2026-05-03T14:18:31.566Z</time></trkpt><trkpt lat="43.3909693" lon="10.8419842"><ele>228.0</ele><time>2026-05-03T14:18:32.566Z</time></trkpt><trkpt lat="43.3910427" lon="10.8420756"><ele>230.60000000000002</ele><time>2026-05-03T14:18:33.565Z</time></trkpt><trkpt lat="43.3911141" lon="10.8421677"><ele>233.20000000000002</ele><time>2026-05-03T14:18:34.565Z</time></trkpt><trkpt lat="43.3911887" lon="10.8422551"><ele>235.8</ele><time>2026-05-03T14:18:35.565Z</time></trkpt><trkpt lat="43.39126" lon="10.8423467"><ele>238.4</ele><time>2026-05-03T14:18:36.565Z</time></trkpt><trkpt lat="43.3913003" lon="10.8424513"><ele>241.0</ele><time>2026-05-03T14:18:37.566Z</time></trkpt><trkpt lat="43.3913252" lon="10.8425635"><ele>240.99999999999997</ele><time>2026-05-03T14:18:38.566Z</time></trkpt><trkpt lat="43.391277" lon="10.8426602"><ele>241.0</ele><time>2026-05-03T14:18:39.567Z</time></trkpt><trkpt lat="43.3912082" lon="10.842719"><ele>241.0</ele><time>2026-05-03T14:18:40.564Z</time></trkpt><trkpt lat="43.3911358" lon="10.842731"><ele>241.0</ele><time>2026-05-03T14:18:41.565Z</time></trkpt><trkpt lat="43.3910622" lon="10.8427263"><ele>240.99999999999997</ele><time>2026-05-03T14:18:42.566Z</time></trkpt><trkpt lat="43.3909886" lon="10.8426525"><ele>241.0</ele><time>2026-05-03T14:18:43.564Z</time></trkpt><trkpt lat="43.3909032" lon="10.8425775"><ele>241.0</ele><time>2026-05-03T14:18:44.566Z</time></trkpt><trkpt lat="43.3908059" lon="10.8425056"><ele>241.00000000000003</ele><time>2026-05-03T14:18:45.565Z</time></trkpt><trkpt lat="43.3907046" lon="10.8424446"><ele>241.00000000000003</ele><time>2026-05-03T14:18:46.566Z</time></trkpt><trkpt lat="43.3906004" lon="10.8424384"><ele>241.0</ele><time>2026-05-03T14:18:47.566Z</time></trkpt><trkpt lat="43.3905061" lon="10.842466"><ele>241.0</ele><time>2026-05-03T14:18:48.565Z</time></trkpt><trkpt lat="43.3904273" lon="10.842542"><ele>243.8</ele><time>2026-05-03T14:18:49.566Z</time></trkpt><trkpt lat="43.3903632" lon="10.8426442"><ele>246.60000000000002</ele><time>2026-05-03T14:18:50.565Z</time></trkpt><trkpt lat="43.3903173" lon="10.8427826"><ele>249.4</ele><time>2026-05-03T14:18:51.566Z</time></trkpt><trkpt lat="43.3902957" lon="10.8429206"><ele>252.2</ele><time>2026-05-03T14:18:52.565Z</time></trkpt><trkpt lat="43.3902989" lon="10.8430634"><ele>255.0</ele><time>2026-05-03T14:18:53.566Z</time></trkpt><trkpt lat="43.390328" lon="10.8431895"><ele>255.0</ele><time>2026-05-03T14:18:54.565Z</time></trkpt><trkpt lat="43.3903856" lon="10.8432937"><ele>255.0</ele><time>2026-05-03T14:18:55.566Z</time></trkpt><trkpt lat="43.3904664" lon="10.8433911"><ele>255.0</ele><time>2026-05-03T14:18:56.565Z</time></trkpt><trkpt lat="43.3905612" lon="10.8434824"><ele>255.0</ele><time>2026-05-03T14:18:57.565Z</time></trkpt><trkpt lat="43.3906615" lon="10.84357"><ele>255.0</ele><time>2026-05-03T14:18:58.566Z</time></trkpt><trkpt lat="43.3907554" lon="10.8436497"><ele>256.0</ele><time>2026-05-03T14:18:59.566Z</time></trkpt><trkpt lat="43.3908459" lon="10.8437276"><ele>257.0</ele><time>2026-05-03T14:19:00.564Z</time></trkpt><trkpt lat="43.3909233" lon="10.8438131"><ele>258.0</ele><time>2026-05-03T14:19:01.565Z</time></trkpt><trkpt lat="43.3909812" lon="10.8439146"><ele>259.0</ele><time>2026-05-03T14:19:02.565Z</time></trkpt><trkpt lat="43.3909924" lon="10.8440366"><ele>260.0</ele><time>2026-05-03T14:19:03.566Z</time></trkpt><trkpt lat="43.3909645" lon="10.8441493"><ele>260.0</ele><time>2026-05-03T14:19:04.567Z</time></trkpt><trkpt lat="43.390907" lon="10.8442406"><ele>260.0</ele><time>2026-05-03T14:19:05.565Z</time></trkpt><trkpt lat="43.3908247" lon="10.8442958"><ele>260.0</ele><time>2026-05-03T14:19:06.566Z</time></trkpt><trkpt lat="43.3907286" lon="10.8443033"><ele>260.0</ele><time>2026-05-03T14:19:07.566Z</time></trkpt><trkpt lat="43.3906146" lon="10.8442992"><ele>260.0</ele><time>2026-05-03T14:19:08.565Z</time></trkpt><trkpt lat="43.3904586" lon="10.8442516"><ele>261.6666666666667</ele><time>2026-05-03T14:19:09.566Z</time></trkpt><trkpt lat="43.3902913" lon="10.8441936"><ele>263.3333333333333</ele><time>2026-05-03T14:19:10.566Z</time></trkpt><trkpt lat="43.3901242" lon="10.8441457"><ele>265.0</ele><time>2026-05-03T14:19:11.564Z</time></trkpt><trkpt lat="43.3899507" lon="10.8441326"><ele>265.0</ele><time>2026-05-03T14:19:12.566Z</time></trkpt><trkpt lat="43.3897701" lon="10.8441651"><ele>265.0</ele><time>2026-05-03T14:19:13.564Z</time></trkpt><trkpt lat="43.3895723" lon="10.8442196"><ele>265.0</ele><time>2026-05-03T14:19:14.566Z</time></trkpt><trkpt lat="43.3893916" lon="10.8442686"><ele>268.66666666666663</ele><time>2026-05-03T14:19:15.565Z</time></trkpt><trkpt lat="43.3892276" lon="10.8443157"><ele>272.3333333333333</ele><time>2026-05-03T14:19:16.566Z</time></trkpt><trkpt lat="43.389086" lon="10.8443722"><ele>276.0</ele><time>2026-05-03T14:19:17.565Z</time></trkpt><trkpt lat="43.3889628" lon="10.844454"><ele>276.0</ele><time>2026-05-03T14:19:18.566Z</time></trkpt><trkpt lat="43.3888585" lon="10.8445797"><ele>276.0</ele><time>2026-05-03T14:19:19.565Z</time></trkpt><trkpt lat="43.3887806" lon="10.8447515"><ele>276.0</ele><time>2026-05-03T14:19:20.567Z</time></trkpt><trkpt lat="43.3887273" lon="10.8449588"><ele>276.0</ele><time>2026-05-03T14:19:21.565Z</time></trkpt><trkpt lat="43.3886924" lon="10.8451989"><ele>272.0</ele><time>2026-05-03T14:19:22.566Z</time></trkpt><trkpt lat="43.3886834" lon="10.845423"><ele>268.0</ele><time>2026-05-03T14:19:23.566Z</time></trkpt><trkpt lat="43.3886985" lon="10.8456263"><ele>264.0</ele><time>2026-05-03T14:19:24.567Z</time></trkpt><trkpt lat="43.3887503" lon="10.8458129"><ele>264.0</ele><time>2026-05-03T14:19:25.565Z</time></trkpt><trkpt lat="43.3888332" lon="10.8459539"><ele>264.0</ele><time>2026-05-03T14:19:26.565Z</time></trkpt><trkpt lat="43.3889501" lon="10.8460696"><ele>264.0</ele><time>2026-05-03T14:19:27.565Z</time></trkpt><trkpt lat="43.3890993" lon="10.8461704"><ele>264.0</ele><time>2026-05-03T14:19:28.564Z</time></trkpt><trkpt lat="43.3892539" lon="10.8462588"><ele>267.25</ele><time>2026-05-03T14:19:29.567Z</time></trkpt><trkpt lat="43.3893939" lon="10.846317"><ele>270.5</ele><time>2026-05-03T14:19:30.567Z</time></trkpt><trkpt lat="43.3895402" lon="10.8463329"><ele>273.75</ele><time>2026-05-03T14:19:31.566Z</time></trkpt><trkpt lat="43.3896777" lon="10.8462886"><ele>277.0</ele><time>2026-05-03T14:19:32.566Z</time></trkpt><trkpt lat="43.3898134" lon="10.8462294"><ele>281.3333333333333</ele><time>2026-05-03T14:19:33.566Z</time></trkpt><trkpt lat="43.3899648" lon="10.8461055"><ele>285.6666666666667</ele><time>2026-05-03T14:19:34.566Z</time></trkpt><trkpt lat="43.3901099" lon="10.8460275"><ele>290.0</ele><time>2026-05-03T14:19:35.565Z</time></trkpt><trkpt lat="43.3902531" lon="10.8459876"><ele>290.0</ele><time>2026-05-03T14:19:36.565Z</time></trkpt><trkpt lat="43.3904" lon="10.845989"><ele>290.0</ele><time>2026-05-03T14:19:37.565Z</time></trkpt><trkpt lat="43.3905352" lon="10.8460315"><ele>290.0</ele><time>2026-05-03T14:19:38.564Z</time></trkpt><trkpt lat="43.3906427" lon="10.8461438"><ele>290.0</ele><time>2026-05-03T14:19:39.566Z</time></trkpt><trkpt lat="43.3907445" lon="10.8463037"><ele>290.33333333333337</ele><time>2026-05-03T14:19:40.565Z</time></trkpt><trkpt lat="43.3908376" lon="10.8465133"><ele>290.6666666666667</ele><time>2026-05-03T14:19:41.565Z</time></trkpt><trkpt lat="43.3909421" lon="10.8467528"><ele>291.0</ele><time>2026-05-03T14:19:42.564Z</time></trkpt><trkpt lat="43.3910485" lon="10.8469966"><ele>291.0</ele><time>2026-05-03T14:19:43.566Z</time></trkpt><trkpt lat="43.3911624" lon="10.847259"><ele>291.0</ele><time>2026-05-03T14:19:44.566Z</time></trkpt><trkpt lat="43.3912732" lon="10.8475162"><ele>291.0</ele><time>2026-05-03T14:19:45.565Z</time></trkpt><trkpt lat="43.3913911" lon="10.8477453"><ele>291.0</ele><time>2026-05-03T14:19:46.565Z</time></trkpt><trkpt lat="43.391542" lon="10.8479536"><ele>291.0</ele><time>2026-05-03T14:19:47.565Z</time></trkpt><trkpt lat="43.3917171" lon="10.8481591"><ele>291.0</ele><time>2026-05-03T14:19:48.566Z</time></trkpt><trkpt lat="43.3919032" lon="10.8483602"><ele>293.6666666666667</ele><time>2026-05-03T14:19:49.566Z</time></trkpt><trkpt lat="43.3920823" lon="10.8485499"><ele>296.33333333333337</ele><time>2026-05-03T14:19:50.565Z</time></trkpt><trkpt lat="43.3922531" lon="10.8487176"><ele>299.0</ele><time>2026-05-03T14:19:51.566Z</time></trkpt><trkpt lat="43.3924262" lon="10.8488571"><ele>299.0</ele><time>2026-05-03T14:19:52.566Z</time></trkpt><trkpt lat="43.3926136" lon="10.8489611"><ele>299.0</ele><time>2026-05-03T14:19:53.565Z</time></trkpt><trkpt lat="43.3928077" lon="10.849041"><ele>299.0</ele><time>2026-05-03T14:19:54.566Z</time></trkpt><trkpt lat="43.3930116" lon="10.8490828"><ele>302.6666666666667</ele><time>2026-05-03T14:19:55.565Z</time></trkpt><trkpt lat="43.3932276" lon="10.8490868"><ele>306.3333333333333</ele><time>2026-05-03T14:19:56.565Z</time></trkpt><trkpt lat="43.3934418" lon="10.8490592"><ele>310.0</ele><time>2026-05-03T14:19:57.567Z</time></trkpt><trkpt lat="43.3936508" lon="10.8490384"><ele>311.3333333333333</ele><time>2026-05-03T14:19:58.566Z</time></trkpt><trkpt lat="43.3938515" lon="10.849054"><ele>312.6666666666667</ele><time>2026-05-03T14:19:59.565Z</time></trkpt><trkpt lat="43.39403" lon="10.8490911"><ele>314.0</ele><time>2026-05-03T14:20:00.566Z</time></trkpt><trkpt lat="43.3941844" lon="10.8491232"><ele>314.0</ele><time>2026-05-03T14:20:01.566Z</time></trkpt><trkpt lat="43.3943261" lon="10.8491293"><ele>314.0</ele><time>2026-05-03T14:20:02.566Z</time></trkpt><trkpt lat="43.3944529" lon="10.8490733"><ele>314.0</ele><time>2026-05-03T14:20:03.565Z</time></trkpt><trkpt lat="43.3945594" lon="10.8489706"><ele>314.0</ele><time>2026-05-03T14:20:04.564Z</time></trkpt><trkpt lat="43.394646" lon="10.8488213"><ele>315.6666666666667</ele><time>2026-05-03T14:20:05.565Z</time></trkpt><trkpt lat="43.3947103" lon="10.8486241"><ele>317.3333333333333</ele><time>2026-05-03T14:20:06.565Z</time></trkpt><trkpt lat="43.3947757" lon="10.8484152"><ele>319.0</ele><time>2026-05-03T14:20:07.564Z</time></trkpt><trkpt lat="43.3948595" lon="10.8482463"><ele>319.0</ele><time>2026-05-03T14:20:08.566Z</time></trkpt><trkpt lat="43.3949579" lon="10.8481126"><ele>319.0</ele><time>2026-05-03T14:20:09.566Z</time></trkpt><trkpt lat="43.3950722" lon="10.8480525"><ele>319.0</ele><time>2026-05-03T14:20:10.565Z</time></trkpt><trkpt lat="43.395167" lon="10.8480437"><ele>319.0</ele><time>2026-05-03T14:20:11.566Z</time></trkpt><trkpt lat="43.3952491" lon="10.8480965"><ele>319.0</ele><time>2026-05-03T14:20:12.565Z</time></trkpt><trkpt lat="43.3952969" lon="10.8482031"><ele>319.0</ele><time>2026-05-03T14:20:13.565Z</time></trkpt><trkpt lat="43.3952921" lon="10.8483443"><ele>319.0</ele><time>2026-05-03T14:20:14.566Z</time></trkpt><trkpt lat="43.3952531" lon="10.8485219"><ele>319.0</ele><time>2026-05-03T14:20:15.564Z</time></trkpt><trkpt lat="43.3952041" lon="10.8487426"><ele>319.0</ele><time>2026-05-03T14:20:16.566Z</time></trkpt><trkpt lat="43.3950838" lon="10.8492509"><ele>324.0</ele><time>2026-05-03T14:20:18.565Z</time></trkpt><trkpt lat="43.3950163" lon="10.8495127"><ele>329.0</ele><time>2026-05-03T14:20:19.567Z</time></trkpt><trkpt lat="43.394939" lon="10.8497416"><ele>334.0</ele><time>2026-05-03T14:20:20.565Z</time></trkpt><trkpt lat="43.394867" lon="10.8499375"><ele>334.0</ele><time>2026-05-03T14:20:21.566Z</time></trkpt><trkpt lat="43.3948095" lon="10.8500987"><ele>334.0</ele><time>2026-05-03T14:20:22.565Z</time></trkpt><trkpt lat="43.3947656" lon="10.8502227"><ele>334.0</ele><time>2026-05-03T14:20:23.566Z</time></trkpt><trkpt lat="43.3947545" lon="10.8503286"><ele>334.0</ele><time>2026-05-03T14:20:24.564Z</time></trkpt><trkpt lat="43.3947752" lon="10.850427"><ele>334.0</ele><time>2026-05-03T14:20:25.565Z</time></trkpt><trkpt lat="43.3948344" lon="10.8504914"><ele>334.0</ele><time>2026-05-03T14:20:26.565Z</time></trkpt><trkpt lat="43.394902" lon="10.8504874"><ele>334.0</ele><time>2026-05-03T14:20:27.565Z</time></trkpt><trkpt lat="43.3949615" lon="10.8504279"><ele>334.0</ele><time>2026-05-03T14:20:28.565Z</time></trkpt><trkpt lat="43.3950088" lon="10.8503128"><ele>334.0</ele><time>2026-05-03T14:20:29.564Z</time></trkpt><trkpt lat="43.3950479" lon="10.8501547"><ele>334.0</ele><time>2026-05-03T14:20:30.564Z</time></trkpt><trkpt lat="43.3951189" lon="10.8499768"><ele>334.0</ele><time>2026-05-03T14:20:31.566Z</time></trkpt><trkpt lat="43.3952194" lon="10.8498189"><ele>334.0</ele><time>2026-05-03T14:20:32.565Z</time></trkpt><trkpt lat="43.3953519" lon="10.8496656"><ele>334.0</ele><time>2026-05-03T14:20:33.567Z</time></trkpt><trkpt lat="43.3955123" lon="10.8495112"><ele>335.3333333333333</ele><time>2026-05-03T14:20:34.565Z</time></trkpt><trkpt lat="43.3956877" lon="10.8493741"><ele>336.6666666666667</ele><time>2026-05-03T14:20:35.566Z</time></trkpt><trkpt lat="43.3958768" lon="10.8492626"><ele>338.0</ele><time>2026-05-03T14:20:36.564Z</time></trkpt><trkpt lat="43.396052" lon="10.8491777"><ele>338.0</ele><time>2026-05-03T14:20:37.566Z</time></trkpt><trkpt lat="43.3962115" lon="10.8491093"><ele>338.0</ele><time>2026-05-03T14:20:38.564Z</time></trkpt><trkpt lat="43.3963547" lon="10.849018"><ele>338.0</ele><time>2026-05-03T14:20:39.564Z</time></trkpt><trkpt lat="43.3964854" lon="10.8488921"><ele>340.0</ele><time>2026-05-03T14:20:40.566Z</time></trkpt><trkpt lat="43.3966073" lon="10.8487366"><ele>342.0</ele><time>2026-05-03T14:20:41.565Z</time></trkpt><trkpt lat="43.396726" lon="10.8485687"><ele>344.0</ele><time>2026-05-03T14:20:42.566Z</time></trkpt><trkpt lat="43.3968374" lon="10.8484207"><ele>344.0</ele><time>2026-05-03T14:20:43.566Z</time></trkpt><trkpt lat="43.3969454" lon="10.8483091"><ele>344.0</ele><time>2026-05-03T14:20:44.565Z</time></trkpt><trkpt lat="43.3970407" lon="10.8482548"><ele>344.0</ele><time>2026-05-03T14:20:45.565Z</time></trkpt><trkpt lat="43.3971386" lon="10.8482584"><ele>344.0</ele><time>2026-05-03T14:20:46.566Z</time></trkpt><trkpt lat="43.3972133" lon="10.8483308"><ele>344.0</ele><time>2026-05-03T14:20:47.566Z</time></trkpt><trkpt lat="43.3972495" lon="10.8484471"><ele>345.5</ele><time>2026-05-03T14:20:48.566Z</time></trkpt><trkpt lat="43.3972501" lon="10.8485819"><ele>347.0</ele><time>2026-05-03T14:20:49.564Z</time></trkpt><trkpt lat="43.3972046" lon="10.8487347"><ele>348.5</ele><time>2026-05-03T14:20:50.565Z</time></trkpt><trkpt lat="43.3971266" lon="10.8488985"><ele>350.0</ele><time>2026-05-03T14:20:51.566Z</time></trkpt><trkpt lat="43.3970359" lon="10.8490912"><ele>353.33333333333337</ele><time>2026-05-03T14:20:52.565Z</time></trkpt><trkpt lat="43.396942" lon="10.8492927"><ele>356.6666666666667</ele><time>2026-05-03T14:20:53.566Z</time></trkpt><trkpt lat="43.3968556" lon="10.8494964"><ele>360.0</ele><time>2026-05-03T14:20:54.566Z</time></trkpt><trkpt lat="43.3967729" lon="10.849694"><ele>360.0</ele><time>2026-05-03T14:20:55.564Z</time></trkpt><trkpt lat="43.3967086" lon="10.8498821"><ele>360.0</ele><time>2026-05-03T14:20:56.565Z</time></trkpt><trkpt lat="43.3966571" lon="10.8500582"><ele>360.0</ele><time>2026-05-03T14:20:57.565Z</time></trkpt><trkpt lat="43.3966205" lon="10.8502295"><ele>360.0</ele><time>2026-05-03T14:20:58.565Z</time></trkpt><trkpt lat="43.3965918" lon="10.8503969"><ele>362.0</ele><time>2026-05-03T14:20:59.566Z</time></trkpt><trkpt lat="43.3965662" lon="10.8505668"><ele>364.0</ele><time>2026-05-03T14:21:00.566Z</time></trkpt><trkpt lat="43.3965297" lon="10.8507332"><ele>366.0</ele><time>2026-05-03T14:21:01.565Z</time></trkpt><trkpt lat="43.3964908" lon="10.8509041"><ele>368.0</ele><time>2026-05-03T14:21:02.565Z</time></trkpt><trkpt lat="43.3964549" lon="10.8510805"><ele>369.5</ele><time>2026-05-03T14:21:03.566Z</time></trkpt><trkpt lat="43.3964256" lon="10.8512618"><ele>371.0</ele><time>2026-05-03T14:21:04.565Z</time></trkpt><trkpt lat="43.3964092" lon="10.8514465"><ele>372.5</ele><time>2026-05-03T14:21:05.565Z</time></trkpt><trkpt lat="43.3963938" lon="10.8516287"><ele>374.0</ele><time>2026-05-03T14:21:06.566Z</time></trkpt><trkpt lat="43.3963825" lon="10.8517994"><ele>376.0</ele><time>2026-05-03T14:21:07.565Z</time></trkpt><trkpt lat="43.3963739" lon="10.8519622"><ele>378.0</ele><time>2026-05-03T14:21:08.566Z</time></trkpt><trkpt lat="43.3963547" lon="10.8521406"><ele>380.0</ele><time>2026-05-03T14:21:09.564Z</time></trkpt><trkpt lat="43.3963198" lon="10.8523287"><ele>382.0</ele><time>2026-05-03T14:21:10.566Z</time></trkpt><trkpt lat="43.3962569" lon="10.8525112"><ele>379.5</ele><time>2026-05-03T14:21:11.564Z</time></trkpt><trkpt lat="43.3961719" lon="10.8526635"><ele>377.0</ele><time>2026-05-03T14:21:12.566Z</time></trkpt><trkpt lat="43.3960643" lon="10.85277"><ele>374.5</ele><time>2026-05-03T14:21:13.565Z</time></trkpt><trkpt lat="43.395961" lon="10.8528533"><ele>372.0</ele><time>2026-05-03T14:21:14.565Z</time></trkpt><trkpt lat="43.3958709" lon="10.8529343"><ele>372.0</ele><time>2026-05-03T14:21:15.565Z</time></trkpt><trkpt lat="43.3958049" lon="10.8530145"><ele>372.0</ele><time>2026-05-03T14:21:16.565Z</time></trkpt><trkpt lat="43.395753" lon="10.8531053"><ele>372.0</ele><time>2026-05-03T14:21:17.566Z</time></trkpt><trkpt lat="43.3957249" lon="10.8532073"><ele>372.0</ele><time>2026-05-03T14:21:18.565Z</time></trkpt><trkpt lat="43.3957175" lon="10.8533027"><ele>372.0</ele><time>2026-05-03T14:21:19.565Z</time></trkpt><trkpt lat="43.3957376" lon="10.8533952"><ele>372.0</ele><time>2026-05-03T14:21:20.565Z</time></trkpt><trkpt lat="43.3958387" lon="10.8534754"><ele>372.0</ele><time>2026-05-03T14:21:22.565Z</time></trkpt><trkpt lat="43.3959649" lon="10.853402"><ele>372.0</ele><time>2026-05-03T14:21:24.565Z</time></trkpt><trkpt lat="43.3960501" lon="10.8533107"><ele>372.0</ele><time>2026-05-03T14:21:25.567Z</time></trkpt><trkpt lat="43.3961507" lon="10.8532071"><ele>372.0</ele><time>2026-05-03T14:21:26.566Z</time></trkpt><trkpt lat="43.3963098" lon="10.8531025"><ele>377.33333333333337</ele><time>2026-05-03T14:21:27.566Z</time></trkpt><trkpt lat="43.3964797" lon="10.8529901"><ele>382.6666666666667</ele><time>2026-05-03T14:21:28.565Z</time></trkpt><trkpt lat="43.396648" lon="10.8528639"><ele>388.0</ele><time>2026-05-03T14:21:29.565Z</time></trkpt><trkpt lat="43.3968099" lon="10.8527232"><ele>386.0</ele><time>2026-05-03T14:21:30.566Z</time></trkpt><trkpt lat="43.3969607" lon="10.8525463"><ele>384.0</ele><time>2026-05-03T14:21:31.565Z</time></trkpt><trkpt lat="43.3971043" lon="10.8523437"><ele>382.0</ele><time>2026-05-03T14:21:32.566Z</time></trkpt><trkpt lat="43.3972347" lon="10.8521136"><ele>384.0</ele><time>2026-05-03T14:21:33.565Z</time></trkpt><trkpt lat="43.3973621" lon="10.8519097"><ele>386.0</ele><time>2026-05-03T14:21:34.565Z</time></trkpt><trkpt lat="43.3974888" lon="10.8517288"><ele>388.0</ele><time>2026-05-03T14:21:35.566Z</time></trkpt><trkpt lat="43.3976275" lon="10.8515673"><ele>388.0</ele><time>2026-05-03T14:21:36.565Z</time></trkpt><trkpt lat="43.3977781" lon="10.8514597"><ele>388.0</ele><time>2026-05-03T14:21:37.564Z</time></trkpt><trkpt lat="43.397917" lon="10.8513635"><ele>388.0</ele><time>2026-05-03T14:21:38.565Z</time></trkpt><trkpt lat="43.3980326" lon="10.8512706"><ele>390.0</ele><time>2026-05-03T14:21:39.565Z</time></trkpt><trkpt lat="43.3981262" lon="10.8511961"><ele>392.0</ele><time>2026-05-03T14:21:40.565Z</time></trkpt><trkpt lat="43.3982182" lon="10.8511451"><ele>394.0</ele><time>2026-05-03T14:21:41.567Z</time></trkpt><trkpt lat="43.3983212" lon="10.8511798"><ele>396.0</ele><time>2026-05-03T14:21:42.564Z</time></trkpt><trkpt lat="43.3984179" lon="10.851252"><ele>398.0</ele><time>2026-05-03T14:21:43.564Z</time></trkpt><trkpt lat="43.3984901" lon="10.8513771"><ele>398.0</ele><time>2026-05-03T14:21:44.565Z</time></trkpt><trkpt lat="43.3985501" lon="10.8515454"><ele>398.0</ele><time>2026-05-03T14:21:45.566Z</time></trkpt><trkpt lat="43.3986023" lon="10.8517638"><ele>398.0</ele><time>2026-05-03T14:21:46.565Z</time></trkpt><trkpt lat="43.3986548" lon="10.8519908"><ele>399.0</ele><time>2026-05-03T14:21:47.566Z</time></trkpt><trkpt lat="43.3987114" lon="10.8521962"><ele>400.0</ele><time>2026-05-03T14:21:48.564Z</time></trkpt><trkpt lat="43.3987937" lon="10.8523827"><ele>401.0</ele><time>2026-05-03T14:21:49.565Z</time></trkpt><trkpt lat="43.3989064" lon="10.8525573"><ele>404.0</ele><time>2026-05-03T14:21:50.564Z</time></trkpt><trkpt lat="43.3990395" lon="10.8527209"><ele>407.0</ele><time>2026-05-03T14:21:51.565Z</time></trkpt><trkpt lat="43.3991601" lon="10.852868"><ele>410.0</ele><time>2026-05-03T14:21:52.566Z</time></trkpt><trkpt lat="43.3992654" lon="10.852984"><ele>410.0</ele><time>2026-05-03T14:21:53.567Z</time></trkpt><trkpt lat="43.3993686" lon="10.8530714"><ele>410.0</ele><time>2026-05-03T14:21:54.566Z</time></trkpt><trkpt lat="43.3994739" lon="10.8531051"><ele>410.0</ele><time>2026-05-03T14:21:55.565Z</time></trkpt><trkpt lat="43.3995906" lon="10.8530776"><ele>410.0</ele><time>2026-05-03T14:21:56.565Z</time></trkpt><trkpt lat="43.399689" lon="10.8529961"><ele>410.25</ele><time>2026-05-03T14:21:57.566Z</time></trkpt><trkpt lat="43.399779" lon="10.8528656"><ele>410.5</ele><time>2026-05-03T14:21:58.565Z</time></trkpt><trkpt lat="43.3998679" lon="10.852699"><ele>410.75</ele><time>2026-05-03T14:21:59.565Z</time></trkpt><trkpt lat="43.3999744" lon="10.8525351"><ele>411.0</ele><time>2026-05-03T14:22:00.565Z</time></trkpt><trkpt lat="43.4001077" lon="10.852386"><ele>411.0</ele><time>2026-05-03T14:22:01.565Z</time></trkpt><trkpt lat="43.4002672" lon="10.8522428"><ele>411.0</ele><time>2026-05-03T14:22:02.565Z</time></trkpt><trkpt lat="43.4004343" lon="10.8521074"><ele>411.0</ele><time>2026-05-03T14:22:03.565Z</time></trkpt><trkpt lat="43.4005917" lon="10.8519573"><ele>411.66666666666663</ele><time>2026-05-03T14:22:04.565Z</time></trkpt><trkpt lat="43.4007361" lon="10.8518185"><ele>412.3333333333333</ele><time>2026-05-03T14:22:05.565Z</time></trkpt><trkpt lat="43.4008678" lon="10.8517072"><ele>413.0</ele><time>2026-05-03T14:22:06.564Z</time></trkpt><trkpt lat="43.4010009" lon="10.8516243"><ele>413.0</ele><time>2026-05-03T14:22:07.565Z</time></trkpt><trkpt lat="43.4011415" lon="10.8515527"><ele>413.0</ele><time>2026-05-03T14:22:08.565Z</time></trkpt><trkpt lat="43.4013063" lon="10.8514982"><ele>413.0</ele><time>2026-05-03T14:22:09.565Z</time></trkpt><trkpt lat="43.4014775" lon="10.8514303"><ele>416.25</ele><time>2026-05-03T14:22:10.566Z</time></trkpt><trkpt lat="43.4016336" lon="10.8513717"><ele>419.5</ele><time>2026-05-03T14:22:11.565Z</time></trkpt><trkpt lat="43.4017628" lon="10.8513309"><ele>422.75</ele><time>2026-05-03T14:22:12.565Z</time></trkpt><trkpt lat="43.4018663" lon="10.8513032"><ele>426.0</ele><time>2026-05-03T14:22:13.564Z</time></trkpt><trkpt lat="43.4019493" lon="10.8513035"><ele>426.0</ele><time>2026-05-03T14:22:14.566Z</time></trkpt><trkpt lat="43.4020086" lon="10.8513482"><ele>426.0</ele><time>2026-05-03T14:22:15.565Z</time></trkpt><trkpt lat="43.4020182" lon="10.8514798"><ele>426.0</ele><time>2026-05-03T14:22:17.566Z</time></trkpt><trkpt lat="43.4019632" lon="10.8515556"><ele>426.0</ele><time>2026-05-03T14:22:18.564Z</time></trkpt><trkpt lat="43.4018646" lon="10.8516181"><ele>426.0</ele><time>2026-05-03T14:22:19.565Z</time></trkpt><trkpt lat="43.4017297" lon="10.8517055"><ele>425.0</ele><time>2026-05-03T14:22:20.566Z</time></trkpt><trkpt lat="43.4015852" lon="10.8518092"><ele>424.0</ele><time>2026-05-03T14:22:21.565Z</time></trkpt><trkpt lat="43.4014387" lon="10.8519264"><ele>423.0</ele><time>2026-05-03T14:22:22.564Z</time></trkpt><trkpt lat="43.4013102" lon="10.8520798"><ele>423.0</ele><time>2026-05-03T14:22:23.566Z</time></trkpt><trkpt lat="43.4011936" lon="10.8522233"><ele>423.0</ele><time>2026-05-03T14:22:24.566Z</time></trkpt><trkpt lat="43.4011079" lon="10.8523753"><ele>423.0</ele><time>2026-05-03T14:22:25.565Z</time></trkpt><trkpt lat="43.401063" lon="10.8525451"><ele>423.0</ele><time>2026-05-03T14:22:26.565Z</time></trkpt><trkpt lat="43.401042" lon="10.8527435"><ele>425.66666666666663</ele><time>2026-05-03T14:22:27.566Z</time></trkpt><trkpt lat="43.4010115" lon="10.8529578"><ele>428.3333333333333</ele><time>2026-05-03T14:22:28.566Z</time></trkpt><trkpt lat="43.4009501" lon="10.8531766"><ele>431.0</ele><time>2026-05-03T14:22:29.565Z</time></trkpt><trkpt lat="43.4008738" lon="10.8533958"><ele>433.66666666666663</ele><time>2026-05-03T14:22:30.565Z</time></trkpt><trkpt lat="43.4008041" lon="10.8536042"><ele>436.33333333333337</ele><time>2026-05-03T14:22:31.566Z</time></trkpt><trkpt lat="43.4007592" lon="10.8538122"><ele>439.0</ele><time>2026-05-03T14:22:32.564Z</time></trkpt><trkpt lat="43.4007278" lon="10.8540352"><ele>439.0</ele><time>2026-05-03T14:22:33.565Z</time></trkpt><trkpt lat="43.4006991" lon="10.8542466"><ele>439.0</ele><time>2026-05-03T14:22:34.565Z</time></trkpt><trkpt lat="43.4006463" lon="10.8544323"><ele>439.0</ele><time>2026-05-03T14:22:35.566Z</time></trkpt><trkpt lat="43.4005626" lon="10.8546108"><ele>439.33333333333337</ele><time>2026-05-03T14:22:36.565Z</time></trkpt><trkpt lat="43.4004438" lon="10.8547525"><ele>439.66666666666663</ele><time>2026-05-03T14:22:37.565Z</time></trkpt><trkpt lat="43.4002927" lon="10.8548847"><ele>440.0</ele><time>2026-05-03T14:22:38.565Z</time></trkpt><trkpt lat="43.4001241" lon="10.8550139"><ele>444.0</ele><time>2026-05-03T14:22:39.566Z</time></trkpt><trkpt lat="43.3999438" lon="10.8551549"><ele>448.0</ele><time>2026-05-03T14:22:40.564Z</time></trkpt><trkpt lat="43.3997663" lon="10.8552781"><ele>452.0</ele><time>2026-05-03T14:22:41.567Z</time></trkpt><trkpt lat="43.3995946" lon="10.8553643"><ele>452.0</ele><time>2026-05-03T14:22:42.566Z</time></trkpt><trkpt lat="43.3994306" lon="10.8554201"><ele>452.0</ele><time>2026-05-03T14:22:43.564Z</time></trkpt><trkpt lat="43.3992827" lon="10.8554361"><ele>452.0</ele><time>2026-05-03T14:22:44.564Z</time></trkpt><trkpt lat="43.3991486" lon="10.855459"><ele>452.0</ele><time>2026-05-03T14:22:45.565Z</time></trkpt><trkpt lat="43.3990383" lon="10.855509"><ele>452.0</ele><time>2026-05-03T14:22:46.565Z</time></trkpt><trkpt lat="43.3989505" lon="10.8555996"><ele>452.0</ele><time>2026-05-03T14:22:47.564Z</time></trkpt><trkpt lat="43.3988829" lon="10.8557308"><ele>452.0</ele><time>2026-05-03T14:22:48.565Z</time></trkpt><trkpt lat="43.3988604" lon="10.8558906"><ele>450.66666666666663</ele><time>2026-05-03T14:22:49.565Z</time></trkpt><trkpt lat="43.3988418" lon="10.856078"><ele>449.33333333333337</ele><time>2026-05-03T14:22:50.566Z</time></trkpt><trkpt lat="43.3988309" lon="10.856297"><ele>448.0</ele><time>2026-05-03T14:22:51.566Z</time></trkpt><trkpt lat="43.3988102" lon="10.8565367"><ele>448.0</ele><time>2026-05-03T14:22:52.566Z</time></trkpt><trkpt lat="43.398816" lon="10.8567652"><ele>448.0</ele><time>2026-05-03T14:22:53.565Z</time></trkpt><trkpt lat="43.3988162" lon="10.8569958"><ele>448.0</ele><time>2026-05-03T14:22:54.565Z</time></trkpt><trkpt lat="43.3987911" lon="10.8572336"><ele>450.0</ele><time>2026-05-03T14:22:55.565Z</time></trkpt><trkpt lat="43.3987322" lon="10.8574637"><ele>452.0</ele><time>2026-05-03T14:22:56.565Z</time></trkpt><trkpt lat="43.3986674" lon="10.857664"><ele>454.0</ele><time>2026-05-03T14:22:57.566Z</time></trkpt><trkpt lat="43.3986101" lon="10.8578332"><ele>454.5</ele><time>2026-05-03T14:22:58.565Z</time></trkpt><trkpt lat="43.3985628" lon="10.85798"><ele>455.0</ele><time>2026-05-03T14:22:59.566Z</time></trkpt><trkpt lat="43.3985398" lon="10.8581335"><ele>455.5</ele><time>2026-05-03T14:23:00.565Z</time></trkpt><trkpt lat="43.3985773" lon="10.8583511"><ele>456.0</ele><time>2026-05-03T14:23:01.564Z</time></trkpt><trkpt lat="43.3985991" lon="10.8585665"><ele>456.25</ele><time>2026-05-03T14:23:02.564Z</time></trkpt><trkpt lat="43.3986136" lon="10.8587684"><ele>456.5</ele><time>2026-05-03T14:23:03.566Z</time></trkpt><trkpt lat="43.3986213" lon="10.8589441"><ele>456.75</ele><time>2026-05-03T14:23:04.565Z</time></trkpt><trkpt lat="43.3986246" lon="10.8590898"><ele>457.0</ele><time>2026-05-03T14:23:05.565Z</time></trkpt><trkpt lat="43.3986371" lon="10.85921"><ele>457.50000000000006</ele><time>2026-05-03T14:23:06.565Z</time></trkpt><trkpt lat="43.3986596" lon="10.859305"><ele>458.0</ele><time>2026-05-03T14:23:07.565Z</time></trkpt><trkpt lat="43.3987425" lon="10.8593872"><ele>458.5</ele><time>2026-05-03T14:23:09.565Z</time></trkpt><trkpt lat="43.3987999" lon="10.8593514"><ele>459.0</ele><time>2026-05-03T14:23:10.565Z</time></trkpt><trkpt lat="43.3988549" lon="10.8592697"><ele>459.50000000000006</ele><time>2026-05-03T14:23:11.564Z</time></trkpt><trkpt lat="43.3989017" lon="10.8591425"><ele>460.0</ele><time>2026-05-03T14:23:12.565Z</time></trkpt><trkpt lat="43.3989497" lon="10.8590101"><ele>463.33333333333337</ele><time>2026-05-03T14:23:13.565Z</time></trkpt><trkpt lat="43.3989991" lon="10.8589003"><ele>466.6666666666667</ele><time>2026-05-03T14:23:14.565Z</time></trkpt><trkpt lat="43.3990515" lon="10.858798"><ele>470.0</ele><time>2026-05-03T14:23:15.566Z</time></trkpt><trkpt lat="43.3991065" lon="10.8587112"><ele>473.33333333333337</ele><time>2026-05-03T14:23:16.566Z</time></trkpt><trkpt lat="43.3991651" lon="10.8586322"><ele>476.6666666666667</ele><time>2026-05-03T14:23:17.566Z</time></trkpt><trkpt lat="43.3992289" lon="10.8585581"><ele>480.0</ele><time>2026-05-03T14:23:18.566Z</time></trkpt><trkpt lat="43.3992974" lon="10.8584972"><ele>481.2</ele><time>2026-05-03T14:23:19.565Z</time></trkpt><trkpt lat="43.3993722" lon="10.8584461"><ele>482.4</ele><time>2026-05-03T14:23:20.566Z</time></trkpt><trkpt lat="43.3994548" lon="10.8584085"><ele>483.6</ele><time>2026-05-03T14:23:21.566Z</time></trkpt><trkpt lat="43.3995423" lon="10.8583736"><ele>484.8</ele><time>2026-05-03T14:23:22.566Z</time></trkpt><trkpt lat="43.3996418" lon="10.8583367"><ele>486.0</ele><time>2026-05-03T14:23:23.564Z</time></trkpt><trkpt lat="43.3997489" lon="10.8582966"><ele>486.0</ele><time>2026-05-03T14:23:24.565Z</time></trkpt><trkpt lat="43.3998611" lon="10.8582557"><ele>486.0</ele><time>2026-05-03T14:23:25.566Z</time></trkpt><trkpt lat="43.3999784" lon="10.8582145"><ele>486.0</ele><time>2026-05-03T14:23:26.565Z</time></trkpt><trkpt lat="43.4000881" lon="10.858182"><ele>486.0</ele><time>2026-05-03T14:23:27.566Z</time></trkpt><trkpt lat="43.4001758" lon="10.858148"><ele>486.0</ele><time>2026-05-03T14:23:28.564Z</time></trkpt><trkpt lat="43.4002489" lon="10.8581022"><ele>486.0</ele><time>2026-05-03T14:23:29.566Z</time></trkpt><trkpt lat="43.4003438" lon="10.8580548"><ele>486.0</ele><time>2026-05-03T14:23:31.566Z</time></trkpt><trkpt lat="43.4004072" lon="10.8580369"><ele>486.0</ele><time>2026-05-03T14:23:34.566Z</time></trkpt><trkpt lat="43.4004956" lon="10.8580686"><ele>486.0</ele><time>2026-05-03T14:23:37.565Z</time></trkpt><trkpt lat="43.4005983" lon="10.8580664"><ele>486.0</ele><time>2026-05-03T14:23:39.564Z</time></trkpt><trkpt lat="43.4006561" lon="10.8580182"><ele>486.0</ele><time>2026-05-03T14:23:40.566Z</time></trkpt><trkpt lat="43.400714" lon="10.8579542"><ele>487.75</ele><time>2026-05-03T14:23:41.565Z</time></trkpt><trkpt lat="43.4007835" lon="10.8578696"><ele>489.5</ele><time>2026-05-03T14:23:42.565Z</time></trkpt><trkpt lat="43.4008617" lon="10.8577713"><ele>491.25</ele><time>2026-05-03T14:23:43.564Z</time></trkpt><trkpt lat="43.400944" lon="10.8576385"><ele>493.0</ele><time>2026-05-03T14:23:44.565Z</time></trkpt><trkpt lat="43.4010476" lon="10.8574816"><ele>493.0</ele><time>2026-05-03T14:23:45.565Z</time></trkpt><trkpt lat="43.4011739" lon="10.8573184"><ele>493.0</ele><time>2026-05-03T14:23:46.565Z</time></trkpt><trkpt lat="43.4013164" lon="10.8571543"><ele>493.0</ele><time>2026-05-03T14:23:47.565Z</time></trkpt><trkpt lat="43.4014529" lon="10.8569843"><ele>494.6666666666667</ele><time>2026-05-03T14:23:48.565Z</time></trkpt><trkpt lat="43.4015739" lon="10.8568199"><ele>496.33333333333337</ele><time>2026-05-03T14:23:49.566Z</time></trkpt><trkpt lat="43.4016826" lon="10.8566691"><ele>498.0</ele><time>2026-05-03T14:23:50.565Z</time></trkpt><trkpt lat="43.4017882" lon="10.8565344"><ele>498.0</ele><time>2026-05-03T14:23:51.566Z</time></trkpt><trkpt lat="43.4018977" lon="10.8564148"><ele>498.0</ele><time>2026-05-03T14:23:52.565Z</time></trkpt><trkpt lat="43.4020123" lon="10.8563038"><ele>498.0</ele><time>2026-05-03T14:23:53.566Z</time></trkpt><trkpt lat="43.4021443" lon="10.856202"><ele>498.0</ele><time>2026-05-03T14:23:54.565Z</time></trkpt><trkpt lat="43.4022853" lon="10.8561112"><ele>495.66666666666663</ele><time>2026-05-03T14:23:55.565Z</time></trkpt><trkpt lat="43.4024392" lon="10.8560278"><ele>493.3333333333333</ele><time>2026-05-03T14:23:56.564Z</time></trkpt><trkpt lat="43.4025861" lon="10.8559565"><ele>491.0</ele><time>2026-05-03T14:23:57.565Z</time></trkpt><trkpt lat="43.4027241" lon="10.8558909"><ele>491.0</ele><time>2026-05-03T14:23:58.565Z</time></trkpt><trkpt lat="43.4028542" lon="10.8558444"><ele>491.0</ele><time>2026-05-03T14:23:59.565Z</time></trkpt><trkpt lat="43.402968" lon="10.8557798"><ele>491.0</ele><time>2026-05-03T14:24:00.566Z</time></trkpt><trkpt lat="43.4030596" lon="10.8556942"><ele>491.0</ele><time>2026-05-03T14:24:01.565Z</time></trkpt><trkpt lat="43.4031244" lon="10.8555748"><ele>493.0</ele><time>2026-05-03T14:24:02.565Z</time></trkpt><trkpt lat="43.4031717" lon="10.8554243"><ele>495.0</ele><time>2026-05-03T14:24:03.566Z</time></trkpt><trkpt lat="43.4032444" lon="10.8552707"><ele>497.0</ele><time>2026-05-03T14:24:04.566Z</time></trkpt><trkpt lat="43.4033409" lon="10.855114"><ele>499.0</ele><time>2026-05-03T14:24:05.563Z</time></trkpt><trkpt lat="43.4034478" lon="10.8549563"><ele>499.0</ele><time>2026-05-03T14:24:06.564Z</time></trkpt><trkpt lat="43.4035515" lon="10.8548188"><ele>499.0</ele><time>2026-05-03T14:24:07.565Z</time></trkpt><trkpt lat="43.4036522" lon="10.8547106"><ele>499.0</ele><time>2026-05-03T14:24:08.566Z</time></trkpt><trkpt lat="43.4037424" lon="10.8546391"><ele>499.0</ele><time>2026-05-03T14:24:09.565Z</time></trkpt><trkpt lat="43.4038159" lon="10.8545913"><ele>501.00000000000006</ele><time>2026-05-03T14:24:10.565Z</time></trkpt><trkpt lat="43.4038885" lon="10.8545844"><ele>503.0</ele><time>2026-05-03T14:24:11.565Z</time></trkpt><trkpt lat="43.4039519" lon="10.8546184"><ele>505.0</ele><time>2026-05-03T14:24:12.565Z</time></trkpt><trkpt lat="43.4040062" lon="10.8546811"><ele>507.0</ele><time>2026-05-03T14:24:13.565Z</time></trkpt><trkpt lat="43.404068" lon="10.8547701"><ele>509.00000000000006</ele><time>2026-05-03T14:24:14.566Z</time></trkpt><trkpt lat="43.4041425" lon="10.8548671"><ele>511.0</ele><time>2026-05-03T14:24:15.565Z</time></trkpt><trkpt lat="43.4042174" lon="10.8549418"><ele>511.0</ele><time>2026-05-03T14:24:16.566Z</time></trkpt><trkpt lat="43.4043081" lon="10.8550073"><ele>511.0</ele><time>2026-05-03T14:24:17.565Z</time></trkpt><trkpt lat="43.4044074" lon="10.8550375"><ele>511.0</ele><time>2026-05-03T14:24:18.564Z</time></trkpt><trkpt lat="43.4045081" lon="10.8550499"><ele>511.0</ele><time>2026-05-03T14:24:19.566Z</time></trkpt><trkpt lat="43.404606" lon="10.8550579"><ele>511.0</ele><time>2026-05-03T14:24:20.566Z</time></trkpt><trkpt lat="43.4046753" lon="10.8550594"><ele>510.20000000000005</ele><time>2026-05-03T14:24:21.565Z</time></trkpt><trkpt lat="43.4047564" lon="10.8550295"><ele>509.40000000000003</ele><time>2026-05-03T14:24:28.566Z</time></trkpt><trkpt lat="43.4048443" lon="10.8550282"><ele>508.6</ele><time>2026-05-03T14:24:30.565Z</time></trkpt><trkpt lat="43.4049461" lon="10.8550363"><ele>507.8</ele><time>2026-05-03T14:24:32.565Z</time></trkpt><trkpt lat="43.4050736" lon="10.8550544"><ele>507.0</ele><time>2026-05-03T14:24:34.565Z</time></trkpt><trkpt lat="43.4051516" lon="10.8550566"><ele>507.0</ele><time>2026-05-03T14:24:35.565Z</time></trkpt><trkpt lat="43.4052268" lon="10.8550519"><ele>507.0</ele><time>2026-05-03T14:24:36.565Z</time></trkpt><trkpt lat="43.4053098" lon="10.8550608"><ele>507.0</ele><time>2026-05-03T14:24:37.564Z</time></trkpt><trkpt lat="43.4053799" lon="10.8550519"><ele>507.0</ele><time>2026-05-03T14:24:38.565Z</time></trkpt><trkpt lat="43.4054481" lon="10.8550212"><ele>507.0</ele><time>2026-05-03T14:24:39.565Z</time></trkpt><trkpt lat="43.4055155" lon="10.8549753"><ele>507.0</ele><time>2026-05-03T14:24:40.565Z</time></trkpt><trkpt lat="43.4055918" lon="10.8549105"><ele>504.40000000000003</ele><time>2026-05-03T14:24:41.565Z</time></trkpt><trkpt lat="43.4056667" lon="10.8548397"><ele>501.80000000000007</ele><time>2026-05-03T14:24:42.565Z</time></trkpt><trkpt lat="43.4057576" lon="10.8547645"><ele>499.2</ele><time>2026-05-03T14:24:43.565Z</time></trkpt><trkpt lat="43.4058412" lon="10.8546776"><ele>496.6</ele><time>2026-05-03T14:24:44.565Z</time></trkpt><trkpt lat="43.4059223" lon="10.8546021"><ele>494.0</ele><time>2026-05-03T14:24:45.566Z</time></trkpt><trkpt lat="43.4060001" lon="10.8545331"><ele>494.0</ele><time>2026-05-03T14:24:46.564Z</time></trkpt><trkpt lat="43.4060779" lon="10.8544555"><ele>494.0</ele><time>2026-05-03T14:24:47.566Z</time></trkpt><trkpt lat="43.4061484" lon="10.8543879"><ele>494.0</ele><time>2026-05-03T14:24:48.565Z</time></trkpt><trkpt lat="43.4062227" lon="10.8543176"><ele>494.0</ele><time>2026-05-03T14:24:49.566Z</time></trkpt><trkpt lat="43.4063006" lon="10.8542489"><ele>494.0</ele><time>2026-05-03T14:24:50.565Z</time></trkpt><trkpt lat="43.4063705" lon="10.854176"><ele>492.3333333333333</ele><time>2026-05-03T14:24:51.565Z</time></trkpt><trkpt lat="43.4064468" lon="10.8541168"><ele>490.66666666666663</ele><time>2026-05-03T14:24:52.565Z</time></trkpt><trkpt lat="43.4065168" lon="10.8540654"><ele>489.0</ele><time>2026-05-03T14:24:53.566Z</time></trkpt><trkpt lat="43.406602" lon="10.8540261"><ele>487.33333333333337</ele><time>2026-05-03T14:24:54.565Z</time></trkpt><trkpt lat="43.4066905" lon="10.8539891"><ele>485.6666666666667</ele><time>2026-05-03T14:24:55.565Z</time></trkpt><trkpt lat="43.4067747" lon="10.8539586"><ele>484.0</ele><time>2026-05-03T14:24:56.565Z</time></trkpt><trkpt lat="43.4068726" lon="10.8539261"><ele>484.0</ele><time>2026-05-03T14:24:57.567Z</time></trkpt><trkpt lat="43.4069823" lon="10.8538888"><ele>484.0</ele><time>2026-05-03T14:24:58.565Z</time></trkpt><trkpt lat="43.4070944" lon="10.8538494"><ele>484.0</ele><time>2026-05-03T14:24:59.564Z</time></trkpt><trkpt lat="43.407214" lon="10.8538069"><ele>484.0</ele><time>2026-05-03T14:25:00.566Z</time></trkpt><trkpt lat="43.4073221" lon="10.8537633"><ele>482.75</ele><time>2026-05-03T14:25:01.566Z</time></trkpt><trkpt lat="43.4074407" lon="10.8537246"><ele>481.5</ele><time>2026-05-03T14:25:02.565Z</time></trkpt><trkpt lat="43.4075628" lon="10.8536901"><ele>480.25</ele><time>2026-05-03T14:25:03.565Z</time></trkpt><trkpt lat="43.407676" lon="10.8536498"><ele>479.0</ele><time>2026-05-03T14:25:04.565Z</time></trkpt><trkpt lat="43.4077795" lon="10.8536198"><ele>479.0</ele><time>2026-05-03T14:25:05.566Z</time></trkpt><trkpt lat="43.4078892" lon="10.8535831"><ele>479.0</ele><time>2026-05-03T14:25:06.564Z</time></trkpt><trkpt lat="43.4079878" lon="10.8535446"><ele>479.0</ele><time>2026-05-03T14:25:07.567Z</time></trkpt><trkpt lat="43.4080856" lon="10.8534915"><ele>479.0</ele><time>2026-05-03T14:25:08.565Z</time></trkpt><trkpt lat="43.4081714" lon="10.8534303"><ele>479.0</ele><time>2026-05-03T14:25:09.566Z</time></trkpt><trkpt lat="43.408241" lon="10.8533561"><ele>477.99999999999994</ele><time>2026-05-03T14:25:10.564Z</time></trkpt><trkpt lat="43.4083087" lon="10.8532657"><ele>477.0</ele><time>2026-05-03T14:25:11.566Z</time></trkpt><trkpt lat="43.4083709" lon="10.853161"><ele>476.0</ele><time>2026-05-03T14:25:12.565Z</time></trkpt><trkpt lat="43.4084136" lon="10.8530734"><ele>475.0</ele><time>2026-05-03T14:25:13.565Z</time></trkpt><trkpt lat="43.4084516" lon="10.8529913"><ele>473.99999999999994</ele><time>2026-05-03T14:25:14.565Z</time></trkpt><trkpt lat="43.4085113" lon="10.8529352"><ele>473.0</ele><time>2026-05-03T14:25:15.565Z</time></trkpt><trkpt lat="43.4085913" lon="10.8528522"><ele>472.99999999999994</ele><time>2026-05-03T14:25:17.564Z</time></trkpt><trkpt lat="43.4086191" lon="10.8527377"><ele>473.0</ele><time>2026-05-03T14:25:19.566Z</time></trkpt><trkpt lat="43.4085707" lon="10.8526546"><ele>473.0</ele><time>2026-05-03T14:25:21.565Z</time></trkpt><trkpt lat="43.4085008" lon="10.8527189"><ele>473.0</ele><time>2026-05-03T14:25:23.565Z</time></trkpt><trkpt lat="43.4084774" lon="10.8528152"><ele>472.99999999999994</ele><time>2026-05-03T14:25:24.565Z</time></trkpt><trkpt lat="43.4084407" lon="10.8529586"><ele>473.0</ele><time>2026-05-03T14:25:25.564Z</time></trkpt><trkpt lat="43.4083807" lon="10.8531022"><ele>473.0</ele><time>2026-05-03T14:25:26.564Z</time></trkpt><trkpt lat="43.4083003" lon="10.8532387"><ele>473.0</ele><time>2026-05-03T14:25:27.564Z</time></trkpt><trkpt lat="43.4081942" lon="10.853361"><ele>473.0</ele><time>2026-05-03T14:25:28.564Z</time></trkpt><trkpt lat="43.4080537" lon="10.853455"><ele>473.0</ele><time>2026-05-03T14:25:29.566Z</time></trkpt><trkpt lat="43.4078827" lon="10.8535351"><ele>475.0</ele><time>2026-05-03T14:25:30.566Z</time></trkpt><trkpt lat="43.407702" lon="10.8535974"><ele>477.0</ele><time>2026-05-03T14:25:31.565Z</time></trkpt><trkpt lat="43.4075198" lon="10.8536695"><ele>479.0</ele><time>2026-05-03T14:25:32.566Z</time></trkpt><trkpt lat="43.4073375" lon="10.8537339"><ele>480.66666666666663</ele><time>2026-05-03T14:25:33.565Z</time></trkpt><trkpt lat="43.4071542" lon="10.8537888"><ele>482.33333333333337</ele><time>2026-05-03T14:25:34.564Z</time></trkpt><trkpt lat="43.406981" lon="10.8538451"><ele>484.0</ele><time>2026-05-03T14:25:35.564Z</time></trkpt><trkpt lat="43.4068084" lon="10.8538898"><ele>484.0</ele><time>2026-05-03T14:25:36.565Z</time></trkpt><trkpt lat="43.4066377" lon="10.8539621"><ele>484.0</ele><time>2026-05-03T14:25:37.566Z</time></trkpt><trkpt lat="43.4064695" lon="10.8540636"><ele>484.0</ele><time>2026-05-03T14:25:38.565Z</time></trkpt><trkpt lat="43.4063038" lon="10.8541892"><ele>487.33333333333337</ele><time>2026-05-03T14:25:39.565Z</time></trkpt><trkpt lat="43.4061445" lon="10.8543281"><ele>490.66666666666663</ele><time>2026-05-03T14:25:40.564Z</time></trkpt><trkpt lat="43.4059942" lon="10.854487"><ele>494.0</ele><time>2026-05-03T14:25:41.564Z</time></trkpt><trkpt lat="43.4058501" lon="10.8546342"><ele>494.0</ele><time>2026-05-03T14:25:42.565Z</time></trkpt><trkpt lat="43.4057142" lon="10.8547607"><ele>494.0</ele><time>2026-05-03T14:25:43.566Z</time></trkpt><trkpt lat="43.4055985" lon="10.854873"><ele>494.0</ele><time>2026-05-03T14:25:44.565Z</time></trkpt><trkpt lat="43.4054994" lon="10.8549634"><ele>494.0</ele><time>2026-05-03T14:25:45.564Z</time></trkpt><trkpt lat="43.4054011" lon="10.8550221"><ele>497.25</ele><time>2026-05-03T14:25:46.564Z</time></trkpt><trkpt lat="43.4053048" lon="10.8550303"><ele>500.5</ele><time>2026-05-03T14:25:47.565Z</time></trkpt><trkpt lat="43.405107" lon="10.8550273"><ele>503.75</ele><time>2026-05-03T14:25:49.565Z</time></trkpt><trkpt lat="43.4050041" lon="10.8550258"><ele>507.0</ele><time>2026-05-03T14:25:50.566Z</time></trkpt><trkpt lat="43.4048977" lon="10.8550275"><ele>507.0</ele><time>2026-05-03T14:25:51.565Z</time></trkpt><trkpt lat="43.4048004" lon="10.8550163"><ele>507.0</ele><time>2026-05-03T14:25:52.565Z</time></trkpt><trkpt lat="43.404716" lon="10.8550004"><ele>507.0</ele><time>2026-05-03T14:25:53.566Z</time></trkpt><trkpt lat="43.4046524" lon="10.8549898"><ele>507.0</ele><time>2026-05-03T14:25:54.565Z</time></trkpt><trkpt lat="43.4045573" lon="10.8549771"><ele>507.0</ele><time>2026-05-03T14:25:56.564Z</time></trkpt><trkpt lat="43.4044563" lon="10.854971"><ele>507.0</ele><time>2026-05-03T14:25:58.566Z</time></trkpt><trkpt lat="43.404374" lon="10.8549526"><ele>507.6666666666667</ele><time>2026-05-03T14:26:00.565Z</time></trkpt><trkpt lat="43.4042925" lon="10.854929"><ele>508.33333333333337</ele><time>2026-05-03T14:26:02.565Z</time></trkpt><trkpt lat="43.4042005" lon="10.8548493"><ele>509.0</ele><time>2026-05-03T14:26:04.565Z</time></trkpt><trkpt lat="43.4041426" lon="10.8547758"><ele>509.6666666666667</ele><time>2026-05-03T14:26:05.565Z</time></trkpt><trkpt lat="43.4040881" lon="10.8547012"><ele>510.33333333333337</ele><time>2026-05-03T14:26:06.566Z</time></trkpt><trkpt lat="43.4040422" lon="10.8546342"><ele>511.0</ele><time>2026-05-03T14:26:07.564Z</time></trkpt><trkpt lat="43.4039845" lon="10.8545755"><ele>511.00000000000006</ele><time>2026-05-03T14:26:08.564Z</time></trkpt><trkpt lat="43.4038797" lon="10.8545156"><ele>511.0</ele><time>2026-05-03T14:26:10.567Z</time></trkpt><trkpt lat="43.4038151" lon="10.8545246"><ele>511.0</ele><time>2026-05-03T14:26:11.565Z</time></trkpt><trkpt lat="43.4037452" lon="10.8545619"><ele>511.0</ele><time>2026-05-03T14:26:12.566Z</time></trkpt><trkpt lat="43.4036765" lon="10.8546236"><ele>511.00000000000006</ele><time>2026-05-03T14:26:13.566Z</time></trkpt><trkpt lat="43.4036094" lon="10.8546972"><ele>511.0</ele><time>2026-05-03T14:26:14.566Z</time></trkpt><trkpt lat="43.4035471" lon="10.8547653"><ele>510.6666666666667</ele><time>2026-05-03T14:26:15.566Z</time></trkpt><trkpt lat="43.4034869" lon="10.8548345"><ele>510.33333333333337</ele><time>2026-05-03T14:26:16.565Z</time></trkpt><trkpt lat="43.4034344" lon="10.8549099"><ele>510.0</ele><time>2026-05-03T14:26:17.565Z</time></trkpt><trkpt lat="43.4033833" lon="10.8549887"><ele>509.66666666666663</ele><time>2026-05-03T14:26:18.564Z</time></trkpt><trkpt lat="43.403328" lon="10.8550619"><ele>509.3333333333333</ele><time>2026-05-03T14:26:19.564Z</time></trkpt><trkpt lat="43.4032746" lon="10.8551475"><ele>509.0</ele><time>2026-05-03T14:26:20.564Z</time></trkpt><trkpt lat="43.4032204" lon="10.8552387"><ele>508.99999999999994</ele><time>2026-05-03T14:26:21.564Z</time></trkpt><trkpt lat="43.4031721" lon="10.8553387"><ele>509.0</ele><time>2026-05-03T14:26:22.565Z</time></trkpt><trkpt lat="43.4031471" lon="10.8554375"><ele>509.0</ele><time>2026-05-03T14:26:23.565Z</time></trkpt><trkpt lat="43.4031193" lon="10.8555367"><ele>509.0</ele><time>2026-05-03T14:26:24.565Z</time></trkpt><trkpt lat="43.4030802" lon="10.8556179"><ele>508.99999999999994</ele><time>2026-05-03T14:26:25.565Z</time></trkpt><trkpt lat="43.4030195" lon="10.8556793"><ele>509.0</ele><time>2026-05-03T14:26:26.566Z</time></trkpt><trkpt lat="43.4029475" lon="10.8557274"><ele>510.3333333333333</ele><time>2026-05-03T14:26:27.565Z</time></trkpt><trkpt lat="43.402875" lon="10.8557671"><ele>511.66666666666663</ele><time>2026-05-03T14:26:28.564Z</time></trkpt><trkpt lat="43.4027979" lon="10.8558081"><ele>513.0</ele><time>2026-05-03T14:26:29.565Z</time></trkpt><trkpt lat="43.4027002" lon="10.8558435"><ele>514.3333333333334</ele><time>2026-05-03T14:26:30.567Z</time></trkpt><trkpt lat="43.402608" lon="10.8558822"><ele>515.6666666666667</ele><time>2026-05-03T14:26:31.565Z</time></trkpt><trkpt lat="43.4025229" lon="10.8559175"><ele>517.0</ele><time>2026-05-03T14:26:32.564Z</time></trkpt><trkpt lat="43.4024492" lon="10.8559579"><ele>517.0</ele><time>2026-05-03T14:26:33.565Z</time></trkpt><trkpt lat="43.4023745" lon="10.8559917"><ele>517.0</ele><time>2026-05-03T14:26:34.565Z</time></trkpt><trkpt lat="43.4022956" lon="10.8560352"><ele>517.0</ele><time>2026-05-03T14:26:35.565Z</time></trkpt><trkpt lat="43.4022136" lon="10.8560826"><ele>517.0</ele><time>2026-05-03T14:26:36.567Z</time></trkpt><trkpt lat="43.4021298" lon="10.856139"><ele>517.0</ele><time>2026-05-03T14:26:37.565Z</time></trkpt><trkpt lat="43.4020467" lon="10.8562009"><ele>517.0</ele><time>2026-05-03T14:26:38.565Z</time></trkpt><trkpt lat="43.4019566" lon="10.8562716"><ele>513.8333333333334</ele><time>2026-05-03T14:26:39.567Z</time></trkpt><trkpt lat="43.4018751" lon="10.8563492"><ele>510.6666666666667</ele><time>2026-05-03T14:26:40.565Z</time></trkpt><trkpt lat="43.4018039" lon="10.8564265"><ele>507.5</ele><time>2026-05-03T14:26:41.565Z</time></trkpt><trkpt lat="43.4017404" lon="10.8565047"><ele>504.33333333333337</ele><time>2026-05-03T14:26:42.564Z</time></trkpt><trkpt lat="43.4016782" lon="10.8565809"><ele>501.1666666666667</ele><time>2026-05-03T14:26:43.566Z</time></trkpt><trkpt lat="43.4016214" lon="10.8566569"><ele>498.0</ele><time>2026-05-03T14:26:44.565Z</time></trkpt><trkpt lat="43.4015669" lon="10.856728"><ele>497.1666666666667</ele><time>2026-05-03T14:26:45.565Z</time></trkpt><trkpt lat="43.4015112" lon="10.8568013"><ele>496.33333333333337</ele><time>2026-05-03T14:26:46.566Z</time></trkpt><trkpt lat="43.4014654" lon="10.8568817"><ele>495.5</ele><time>2026-05-03T14:26:47.565Z</time></trkpt><trkpt lat="43.4014056" lon="10.8569618"><ele>494.6666666666667</ele><time>2026-05-03T14:26:48.565Z</time></trkpt><trkpt lat="43.401339" lon="10.8570506"><ele>493.83333333333337</ele><time>2026-05-03T14:26:49.566Z</time></trkpt><trkpt lat="43.4012616" lon="10.8571445"><ele>493.0</ele><time>2026-05-03T14:26:50.565Z</time></trkpt><trkpt lat="43.4011822" lon="10.8572433"><ele>493.00000000000006</ele><time>2026-05-03T14:26:51.565Z</time></trkpt><trkpt lat="43.4011093" lon="10.8573446"><ele>493.0</ele><time>2026-05-03T14:26:52.564Z</time></trkpt><trkpt lat="43.4010426" lon="10.8574328"><ele>493.0</ele><time>2026-05-03T14:26:53.565Z</time></trkpt><trkpt lat="43.4009774" lon="10.8575187"><ele>493.0</ele><time>2026-05-03T14:26:54.564Z</time></trkpt><trkpt lat="43.4009253" lon="10.8575905"><ele>493.00000000000006</ele><time>2026-05-03T14:26:55.566Z</time></trkpt><trkpt lat="43.4008748" lon="10.8576554"><ele>493.0</ele><time>2026-05-03T14:26:56.565Z</time></trkpt><trkpt lat="43.4007918" lon="10.8577621"><ele>491.59999999999997</ele><time>2026-05-03T14:26:58.565Z</time></trkpt><trkpt lat="43.4007266" lon="10.8578378"><ele>490.19999999999993</ele><time>2026-05-03T14:27:00.565Z</time></trkpt><trkpt lat="43.4006386" lon="10.8578959"><ele>488.8</ele><time>2026-05-03T14:27:07.565Z</time></trkpt><trkpt lat="43.400551" lon="10.8579386"><ele>487.4</ele><time>2026-05-03T14:27:09.566Z</time></trkpt><trkpt lat="43.4004751" lon="10.8580557"><ele>486.0</ele><time>2026-05-03T14:27:11.564Z</time></trkpt><trkpt lat="43.40044" lon="10.8581564"><ele>486.0</ele><time>2026-05-03T14:27:12.565Z</time></trkpt><trkpt lat="43.4003815" lon="10.8582676"><ele>486.0</ele><time>2026-05-03T14:27:13.565Z</time></trkpt><trkpt lat="43.400308" lon="10.8583851"><ele>486.0</ele><time>2026-05-03T14:27:14.564Z</time></trkpt><trkpt lat="43.4002326" lon="10.8584898"><ele>486.0</ele><time>2026-05-03T14:27:15.565Z</time></trkpt><trkpt lat="43.4001592" lon="10.8585922"><ele>486.0</ele><time>2026-05-03T14:27:16.565Z</time></trkpt><trkpt lat="43.4000895" lon="10.8586877"><ele>488.1666666666667</ele><time>2026-05-03T14:27:17.564Z</time></trkpt><trkpt lat="43.4000289" lon="10.8587788"><ele>490.33333333333337</ele><time>2026-05-03T14:27:18.565Z</time></trkpt><trkpt lat="43.3999691" lon="10.8588662"><ele>492.5</ele><time>2026-05-03T14:27:19.565Z</time></trkpt><trkpt lat="43.3999059" lon="10.8589464"><ele>494.6666666666667</ele><time>2026-05-03T14:27:20.566Z</time></trkpt><trkpt lat="43.3998456" lon="10.8590272"><ele>496.83333333333337</ele><time>2026-05-03T14:27:21.565Z</time></trkpt><trkpt lat="43.3997876" lon="10.8591154"><ele>499.0</ele><time>2026-05-03T14:27:22.564Z</time></trkpt><trkpt lat="43.3997254" lon="10.8591994"><ele>496.83333333333337</ele><time>2026-05-03T14:27:23.565Z</time></trkpt><trkpt lat="43.3996624" lon="10.8592987"><ele>494.6666666666667</ele><time>2026-05-03T14:27:24.565Z</time></trkpt><trkpt lat="43.3996125" lon="10.8594117"><ele>492.5</ele><time>2026-05-03T14:27:25.565Z</time></trkpt><trkpt lat="43.3995807" lon="10.8595312"><ele>490.33333333333337</ele><time>2026-05-03T14:27:26.565Z</time></trkpt><trkpt lat="43.3995669" lon="10.8596412"><ele>488.1666666666667</ele><time>2026-05-03T14:27:27.564Z</time></trkpt><trkpt lat="43.3995626" lon="10.8597403"><ele>486.0</ele><time>2026-05-03T14:27:28.564Z</time></trkpt><trkpt lat="43.3995565" lon="10.8598271"><ele>486.0</ele><time>2026-05-03T14:27:29.565Z</time></trkpt><trkpt lat="43.3995478" lon="10.8599629"><ele>486.0</ele><time>2026-05-03T14:27:31.564Z</time></trkpt><trkpt lat="43.3995472" lon="10.860095"><ele>486.0</ele><time>2026-05-03T14:27:33.565Z</time></trkpt><trkpt lat="43.3995432" lon="10.8602053"><ele>486.0</ele><time>2026-05-03T14:27:37.564Z</time></trkpt><trkpt lat="43.399544" lon="10.8603142"><ele>486.0</ele><time>2026-05-03T14:27:39.565Z</time></trkpt><trkpt lat="43.3995348" lon="10.8605118"><ele>487.0</ele><time>2026-05-03T14:27:41.565Z</time></trkpt><trkpt lat="43.3995248" lon="10.8606467"><ele>488.0</ele><time>2026-05-03T14:27:42.565Z</time></trkpt><trkpt lat="43.399515" lon="10.8608118"><ele>489.0</ele><time>2026-05-03T14:27:43.565Z</time></trkpt><trkpt lat="43.399502" lon="10.8609822"><ele>490.0</ele><time>2026-05-03T14:27:44.565Z</time></trkpt><trkpt lat="43.3994874" lon="10.8611836"><ele>491.6666666666667</ele><time>2026-05-03T14:27:45.565Z</time></trkpt><trkpt lat="43.3994716" lon="10.8613974"><ele>493.33333333333337</ele><time>2026-05-03T14:27:46.565Z</time></trkpt><trkpt lat="43.3994541" lon="10.861639"><ele>495.0</ele><time>2026-05-03T14:27:47.565Z</time></trkpt><trkpt lat="43.39943" lon="10.8618981"><ele>497.66666666666663</ele><time>2026-05-03T14:27:48.565Z</time></trkpt><trkpt lat="43.3994086" lon="10.862168"><ele>500.3333333333333</ele><time>2026-05-03T14:27:49.565Z</time></trkpt><trkpt lat="43.3993883" lon="10.8624629"><ele>503.0</ele><time>2026-05-03T14:27:50.564Z</time></trkpt><trkpt lat="43.3993488" lon="10.863041"><ele>505.3333333333333</ele><time>2026-05-03T14:27:52.565Z</time></trkpt><trkpt lat="43.3993311" lon="10.8633012"><ele>507.66666666666663</ele><time>2026-05-03T14:27:53.565Z</time></trkpt><trkpt lat="43.3993132" lon="10.8635386"><ele>510.0</ele><time>2026-05-03T14:27:54.565Z</time></trkpt><trkpt lat="43.3992976" lon="10.8637645"><ele>511.66666666666663</ele><time>2026-05-03T14:27:55.565Z</time></trkpt><trkpt lat="43.3992839" lon="10.8639813"><ele>513.3333333333333</ele><time>2026-05-03T14:27:56.565Z</time></trkpt><trkpt lat="43.3992717" lon="10.8641909"><ele>515.0</ele><time>2026-05-03T14:27:57.565Z</time></trkpt><trkpt lat="43.3992557" lon="10.8644037"><ele>515.5</ele><time>2026-05-03T14:27:58.565Z</time></trkpt><trkpt lat="43.3992395" lon="10.8646003"><ele>516.0</ele><time>2026-05-03T14:27:59.565Z</time></trkpt><trkpt lat="43.3992232" lon="10.8647896"><ele>516.5</ele><time>2026-05-03T14:28:00.567Z</time></trkpt><trkpt lat="43.3992056" lon="10.8649477"><ele>517.0</ele><time>2026-05-03T14:28:01.565Z</time></trkpt><trkpt lat="43.3991927" lon="10.8650878"><ele>517.1666666666667</ele><time>2026-05-03T14:28:02.565Z</time></trkpt><trkpt lat="43.3991881" lon="10.8651996"><ele>517.3333333333334</ele><time>2026-05-03T14:28:03.564Z</time></trkpt><trkpt lat="43.3991876" lon="10.8652997"><ele>517.5</ele><time>2026-05-03T14:28:04.564Z</time></trkpt><trkpt lat="43.3991879" lon="10.8653924"><ele>517.6666666666666</ele><time>2026-05-03T14:28:05.565Z</time></trkpt><trkpt lat="43.3992077" lon="10.8654832"><ele>517.8333333333333</ele><time>2026-05-03T14:28:06.565Z</time></trkpt><trkpt lat="43.3992325" lon="10.8655793"><ele>518.0</ele><time>2026-05-03T14:28:07.565Z</time></trkpt><trkpt lat="43.3992651" lon="10.8657045"><ele>518.0</ele><time>2026-05-03T14:28:08.565Z</time></trkpt><trkpt lat="43.3992884" lon="10.8658535"><ele>518.0</ele><time>2026-05-03T14:28:09.564Z</time></trkpt><trkpt lat="43.3992943" lon="10.8660621"><ele>518.0</ele><time>2026-05-03T14:28:10.565Z</time></trkpt><trkpt lat="43.3992843" lon="10.8663104"><ele>518.0</ele><time>2026-05-03T14:28:11.565Z</time></trkpt><trkpt lat="43.3992704" lon="10.8665536"><ele>514.3333333333333</ele><time>2026-05-03T14:28:12.565Z</time></trkpt><trkpt lat="43.3992733" lon="10.8667992"><ele>510.66666666666663</ele><time>2026-05-03T14:28:13.565Z</time></trkpt><trkpt lat="43.3992746" lon="10.8670144"><ele>507.0</ele><time>2026-05-03T14:28:14.566Z</time></trkpt><trkpt lat="43.3992723" lon="10.8672329"><ele>507.0</ele><time>2026-05-03T14:28:15.566Z</time></trkpt><trkpt lat="43.3992786" lon="10.8674347"><ele>507.0</ele><time>2026-05-03T14:28:16.565Z</time></trkpt><trkpt lat="43.3992879" lon="10.8676358"><ele>507.0</ele><time>2026-05-03T14:28:17.564Z</time></trkpt><trkpt lat="43.3993122" lon="10.8678244"><ele>507.0</ele><time>2026-05-03T14:28:18.565Z</time></trkpt><trkpt lat="43.3993475" lon="10.8680112"><ele>505.5</ele><time>2026-05-03T14:28:19.565Z</time></trkpt><trkpt lat="43.3993797" lon="10.8681946"><ele>504.0</ele><time>2026-05-03T14:28:20.565Z</time></trkpt><trkpt lat="43.3994148" lon="10.8683654"><ele>502.5</ele><time>2026-05-03T14:28:21.564Z</time></trkpt><trkpt lat="43.3994463" lon="10.8685343"><ele>501.0</ele><time>2026-05-03T14:28:22.564Z</time></trkpt><trkpt lat="43.3994813" lon="10.8687073"><ele>501.0</ele><time>2026-05-03T14:28:23.565Z</time></trkpt><trkpt lat="43.399518" lon="10.8688803"><ele>501.0</ele><time>2026-05-03T14:28:24.565Z</time></trkpt><trkpt lat="43.3995517" lon="10.8690493"><ele>501.0</ele><time>2026-05-03T14:28:25.565Z</time></trkpt><trkpt lat="43.3995827" lon="10.8692217"><ele>501.0</ele><time>2026-05-03T14:28:26.564Z</time></trkpt><trkpt lat="43.3996095" lon="10.8693992"><ele>500.75</ele><time>2026-05-03T14:28:27.564Z</time></trkpt><trkpt lat="43.3996302" lon="10.8695787"><ele>500.5</ele><time>2026-05-03T14:28:28.566Z</time></trkpt><trkpt lat="43.3996479" lon="10.8697572"><ele>500.25</ele><time>2026-05-03T14:28:29.565Z</time></trkpt><trkpt lat="43.3996645" lon="10.8699347"><ele>500.0</ele><time>2026-05-03T14:28:30.565Z</time></trkpt><trkpt lat="43.3996813" lon="10.8701038"><ele>499.25</ele><time>2026-05-03T14:28:31.565Z</time></trkpt><trkpt lat="43.3996999" lon="10.8702701"><ele>498.5</ele><time>2026-05-03T14:28:32.565Z</time></trkpt><trkpt lat="43.399713" lon="10.8704362"><ele>497.75</ele><time>2026-05-03T14:28:33.566Z</time></trkpt><trkpt lat="43.3997224" lon="10.8705981"><ele>497.0</ele><time>2026-05-03T14:28:34.566Z</time></trkpt><trkpt lat="43.3997175" lon="10.8707569"><ele>497.0</ele><time>2026-05-03T14:28:35.565Z</time></trkpt><trkpt lat="43.3997076" lon="10.8709112"><ele>497.00000000000006</ele><time>2026-05-03T14:28:36.565Z</time></trkpt><trkpt lat="43.3996821" lon="10.8710604"><ele>497.00000000000006</ele><time>2026-05-03T14:28:37.565Z</time></trkpt><trkpt lat="43.3996562" lon="10.8712"><ele>497.0</ele><time>2026-05-03T14:28:38.565Z</time></trkpt><trkpt lat="43.3996237" lon="10.8713355"><ele>497.0</ele><time>2026-05-03T14:28:39.564Z</time></trkpt><trkpt lat="43.3995822" lon="10.8714687"><ele>496.0</ele><time>2026-05-03T14:28:40.565Z</time></trkpt><trkpt lat="43.399531" lon="10.8715959"><ele>495.00000000000006</ele><time>2026-05-03T14:28:41.565Z</time></trkpt><trkpt lat="43.3994769" lon="10.8717242"><ele>494.00000000000006</ele><time>2026-05-03T14:28:42.566Z</time></trkpt><trkpt lat="43.3994109" lon="10.8718496"><ele>493.0</ele><time>2026-05-03T14:28:43.565Z</time></trkpt><trkpt lat="43.3993386" lon="10.871964"><ele>492.0</ele><time>2026-05-03T14:28:44.565Z</time></trkpt><trkpt lat="43.3992614" lon="10.872077"><ele>491.5</ele><time>2026-05-03T14:28:45.565Z</time></trkpt><trkpt lat="43.3991766" lon="10.8721958"><ele>491.0</ele><time>2026-05-03T14:28:46.567Z</time></trkpt><trkpt lat="43.3990855" lon="10.8723019"><ele>490.5</ele><time>2026-05-03T14:28:47.565Z</time></trkpt><trkpt lat="43.3990131" lon="10.8724204"><ele>490.0</ele><time>2026-05-03T14:28:48.564Z</time></trkpt><trkpt lat="43.3989411" lon="10.8725421"><ele>491.0</ele><time>2026-05-03T14:28:49.563Z</time></trkpt><trkpt lat="43.3988741" lon="10.8726648"><ele>492.0</ele><time>2026-05-03T14:28:50.565Z</time></trkpt><trkpt lat="43.398803" lon="10.8727862"><ele>493.0</ele><time>2026-05-03T14:28:51.565Z</time></trkpt><trkpt lat="43.3987375" lon="10.8729101"><ele>494.0</ele><time>2026-05-03T14:28:52.565Z</time></trkpt><trkpt lat="43.3986726" lon="10.873037"><ele>495.0</ele><time>2026-05-03T14:28:53.565Z</time></trkpt><trkpt lat="43.3986095" lon="10.8731686"><ele>492.2</ele><time>2026-05-03T14:28:54.565Z</time></trkpt><trkpt lat="43.3985552" lon="10.8732927"><ele>489.4</ele><time>2026-05-03T14:28:55.564Z</time></trkpt><trkpt lat="43.3984964" lon="10.8734175"><ele>486.6</ele><time>2026-05-03T14:28:56.565Z</time></trkpt><trkpt lat="43.3984378" lon="10.8735421"><ele>483.8</ele><time>2026-05-03T14:28:57.566Z</time></trkpt><trkpt lat="43.3983741" lon="10.8736636"><ele>481.0</ele><time>2026-05-03T14:28:58.565Z</time></trkpt><trkpt lat="43.3982984" lon="10.8737816"><ele>481.0</ele><time>2026-05-03T14:28:59.566Z</time></trkpt><trkpt lat="43.3982162" lon="10.873897"><ele>481.0</ele><time>2026-05-03T14:29:00.565Z</time></trkpt><trkpt lat="43.3981247" lon="10.8740204"><ele>481.0</ele><time>2026-05-03T14:29:01.564Z</time></trkpt><trkpt lat="43.3980399" lon="10.874143"><ele>481.0</ele><time>2026-05-03T14:29:02.564Z</time></trkpt><trkpt lat="43.3979518" lon="10.8742616"><ele>476.75</ele><time>2026-05-03T14:29:03.564Z</time></trkpt><trkpt lat="43.3978708" lon="10.8743797"><ele>472.5</ele><time>2026-05-03T14:29:04.566Z</time></trkpt><trkpt lat="43.3978024" lon="10.8745023"><ele>468.25</ele><time>2026-05-03T14:29:05.566Z</time></trkpt><trkpt lat="43.39774" lon="10.8746367"><ele>464.0</ele><time>2026-05-03T14:29:06.565Z</time></trkpt><trkpt lat="43.3976876" lon="10.8747778"><ele>464.0</ele><time>2026-05-03T14:29:07.565Z</time></trkpt><trkpt lat="43.3976379" lon="10.8749197"><ele>464.0</ele><time>2026-05-03T14:29:08.565Z</time></trkpt><trkpt lat="43.3975933" lon="10.8750664"><ele>464.0</ele><time>2026-05-03T14:29:09.565Z</time></trkpt><trkpt lat="43.3975485" lon="10.8752115"><ele>464.0</ele><time>2026-05-03T14:29:10.565Z</time></trkpt><trkpt lat="43.3975" lon="10.875351"><ele>464.6</ele><time>2026-05-03T14:29:11.566Z</time></trkpt><trkpt lat="43.3974466" lon="10.8754949"><ele>465.2</ele><time>2026-05-03T14:29:12.565Z</time></trkpt><trkpt lat="43.3973967" lon="10.8756204"><ele>465.80000000000007</ele><time>2026-05-03T14:29:13.565Z</time></trkpt><trkpt lat="43.3973475" lon="10.875751"><ele>466.40000000000003</ele><time>2026-05-03T14:29:14.566Z</time></trkpt><trkpt lat="43.3972984" lon="10.8758922"><ele>467.0</ele><time>2026-05-03T14:29:15.565Z</time></trkpt><trkpt lat="43.397245" lon="10.8760495"><ele>467.0</ele><time>2026-05-03T14:29:16.565Z</time></trkpt><trkpt lat="43.397199" lon="10.8762183"><ele>467.0</ele><time>2026-05-03T14:29:17.565Z</time></trkpt><trkpt lat="43.3971599" lon="10.8763857"><ele>467.0</ele><time>2026-05-03T14:29:18.565Z</time></trkpt><trkpt lat="43.3971363" lon="10.8765556"><ele>467.0</ele><time>2026-05-03T14:29:19.565Z</time></trkpt><trkpt lat="43.3971177" lon="10.8767309"><ele>460.0</ele><time>2026-05-03T14:29:20.565Z</time></trkpt><trkpt lat="43.397106" lon="10.8769113"><ele>453.0</ele><time>2026-05-03T14:29:21.565Z</time></trkpt><trkpt lat="43.3970885" lon="10.8770893"><ele>446.0</ele><time>2026-05-03T14:29:22.565Z</time></trkpt><trkpt lat="43.3970658" lon="10.8772641"><ele>439.0</ele><time>2026-05-03T14:29:23.564Z</time></trkpt><trkpt lat="43.3970381" lon="10.8774349"><ele>439.0</ele><time>2026-05-03T14:29:24.565Z</time></trkpt><trkpt lat="43.3970081" lon="10.8776066"><ele>439.0</ele><time>2026-05-03T14:29:25.564Z</time></trkpt><trkpt lat="43.3969766" lon="10.8777691"><ele>439.0</ele><time>2026-05-03T14:29:26.564Z</time></trkpt><trkpt lat="43.3969464" lon="10.8779199"><ele>439.0</ele><time>2026-05-03T14:29:27.565Z</time></trkpt><trkpt lat="43.3969143" lon="10.8780771"><ele>439.0</ele><time>2026-05-03T14:29:28.566Z</time></trkpt><trkpt lat="43.3968753" lon="10.878227"><ele>439.0</ele><time>2026-05-03T14:29:29.565Z</time></trkpt><trkpt lat="43.3968185" lon="10.8783607"><ele>439.0</ele><time>2026-05-03T14:29:30.565Z</time></trkpt><trkpt lat="43.3967571" lon="10.8784923"><ele>439.0</ele><time>2026-05-03T14:29:31.565Z</time></trkpt><trkpt lat="43.3967143" lon="10.8786386"><ele>439.25</ele><time>2026-05-03T14:29:32.564Z</time></trkpt><trkpt lat="43.3966859" lon="10.8788086"><ele>439.5</ele><time>2026-05-03T14:29:33.565Z</time></trkpt><trkpt lat="43.3966712" lon="10.8789762"><ele>439.75</ele><time>2026-05-03T14:29:34.565Z</time></trkpt><trkpt lat="43.3966591" lon="10.8791456"><ele>440.0</ele><time>2026-05-03T14:29:35.565Z</time></trkpt><trkpt lat="43.3966691" lon="10.8793139"><ele>438.25</ele><time>2026-05-03T14:29:36.565Z</time></trkpt><trkpt lat="43.3966867" lon="10.8794821"><ele>436.5</ele><time>2026-05-03T14:29:37.565Z</time></trkpt><trkpt lat="43.3967123" lon="10.8796468"><ele>434.75</ele><time>2026-05-03T14:29:38.565Z</time></trkpt><trkpt lat="43.3967374" lon="10.8798032"><ele>433.0</ele><time>2026-05-03T14:29:39.565Z</time></trkpt><trkpt lat="43.3967686" lon="10.8799548"><ele>431.2</ele><time>2026-05-03T14:29:40.565Z</time></trkpt><trkpt lat="43.3967863" lon="10.8801066"><ele>429.4</ele><time>2026-05-03T14:29:41.565Z</time></trkpt><trkpt lat="43.3967972" lon="10.8802531"><ele>427.59999999999997</ele><time>2026-05-03T14:29:42.565Z</time></trkpt><trkpt lat="43.3968104" lon="10.8803911"><ele>425.79999999999995</ele><time>2026-05-03T14:29:43.565Z</time></trkpt><trkpt lat="43.3968222" lon="10.880541"><ele>424.0</ele><time>2026-05-03T14:29:44.565Z</time></trkpt><trkpt lat="43.3968375" lon="10.8806893"><ele>424.0</ele><time>2026-05-03T14:29:45.565Z</time></trkpt><trkpt lat="43.3968649" lon="10.8808415"><ele>424.0</ele><time>2026-05-03T14:29:46.564Z</time></trkpt><trkpt lat="43.3968873" lon="10.8809852"><ele>424.0</ele><time>2026-05-03T14:29:47.565Z</time></trkpt><trkpt lat="43.3969135" lon="10.8811289"><ele>424.0</ele><time>2026-05-03T14:29:48.564Z</time></trkpt><trkpt lat="43.3969439" lon="10.8812748"><ele>424.0</ele><time>2026-05-03T14:29:49.565Z</time></trkpt><trkpt lat="43.3969727" lon="10.8814225"><ele>421.5</ele><time>2026-05-03T14:29:50.564Z</time></trkpt><trkpt lat="43.3970006" lon="10.8815723"><ele>419.0</ele><time>2026-05-03T14:29:51.566Z</time></trkpt><trkpt lat="43.3970272" lon="10.8817298"><ele>416.5</ele><time>2026-05-03T14:29:52.565Z</time></trkpt><trkpt lat="43.3970569" lon="10.8818859"><ele>414.0</ele><time>2026-05-03T14:29:53.563Z</time></trkpt><trkpt lat="43.3970923" lon="10.8820493"><ele>411.0</ele><time>2026-05-03T14:29:54.564Z</time></trkpt><trkpt lat="43.3971262" lon="10.8822165"><ele>408.0</ele><time>2026-05-03T14:29:55.566Z</time></trkpt><trkpt lat="43.3971402" lon="10.8823856"><ele>405.0</ele><time>2026-05-03T14:29:56.566Z</time></trkpt><trkpt lat="43.3971368" lon="10.8825636"><ele>402.0</ele><time>2026-05-03T14:29:57.564Z</time></trkpt><trkpt lat="43.3971345" lon="10.8827536"><ele>400.0</ele><time>2026-05-03T14:29:58.565Z</time></trkpt><trkpt lat="43.3971562" lon="10.8831147"><ele>398.0</ele><time>2026-05-03T14:30:00.566Z</time></trkpt><trkpt lat="43.3971809" lon="10.8832849"><ele>396.0</ele><time>2026-05-03T14:30:01.565Z</time></trkpt><trkpt lat="43.3972089" lon="10.8834507"><ele>398.6</ele><time>2026-05-03T14:30:02.565Z</time></trkpt><trkpt lat="43.3972351" lon="10.8836086"><ele>401.20000000000005</ele><time>2026-05-03T14:30:03.565Z</time></trkpt><trkpt lat="43.3972519" lon="10.8837531"><ele>403.79999999999995</ele><time>2026-05-03T14:30:04.565Z</time></trkpt><trkpt lat="43.3972563" lon="10.8838914"><ele>406.4</ele><time>2026-05-03T14:30:05.564Z</time></trkpt><trkpt lat="43.3972439" lon="10.8840226"><ele>409.0</ele><time>2026-05-03T14:30:06.566Z</time></trkpt><trkpt lat="43.3972094" lon="10.884149"><ele>408.4</ele><time>2026-05-03T14:30:07.565Z</time></trkpt><trkpt lat="43.3971629" lon="10.8842637"><ele>407.79999999999995</ele><time>2026-05-03T14:30:08.564Z</time></trkpt><trkpt lat="43.3971132" lon="10.8843625"><ele>407.20000000000005</ele><time>2026-05-03T14:30:09.563Z</time></trkpt><trkpt lat="43.3970582" lon="10.8844603"><ele>406.6</ele><time>2026-05-03T14:30:10.565Z</time></trkpt><trkpt lat="43.3969999" lon="10.8845639"><ele>406.0</ele><time>2026-05-03T14:30:11.566Z</time></trkpt><trkpt lat="43.3969391" lon="10.8846765"><ele>406.00000000000006</ele><time>2026-05-03T14:30:12.565Z</time></trkpt><trkpt lat="43.3968765" lon="10.8847847"><ele>406.0</ele><time>2026-05-03T14:30:13.565Z</time></trkpt><trkpt lat="43.3968172" lon="10.8848891"><ele>406.0</ele><time>2026-05-03T14:30:14.566Z</time></trkpt><trkpt lat="43.3967626" lon="10.8849772"><ele>406.0</ele><time>2026-05-03T14:30:15.565Z</time></trkpt><trkpt lat="43.3967092" lon="10.885062"><ele>406.00000000000006</ele><time>2026-05-03T14:30:16.566Z</time></trkpt><trkpt lat="43.3966539" lon="10.8851498"><ele>406.0</ele><time>2026-05-03T14:30:17.565Z</time></trkpt><trkpt lat="43.396594" lon="10.8852417"><ele>406.6</ele><time>2026-05-03T14:30:18.564Z</time></trkpt><trkpt lat="43.3965307" lon="10.8853392"><ele>407.20000000000005</ele><time>2026-05-03T14:30:19.565Z</time></trkpt><trkpt lat="43.3964707" lon="10.8854391"><ele>407.79999999999995</ele><time>2026-05-03T14:30:20.566Z</time></trkpt><trkpt lat="43.3964031" lon="10.8855505"><ele>408.4</ele><time>2026-05-03T14:30:21.564Z</time></trkpt><trkpt lat="43.3963341" lon="10.8856694"><ele>409.0</ele><time>2026-05-03T14:30:22.563Z</time></trkpt><trkpt lat="43.3962618" lon="10.8857986"><ele>407.2</ele><time>2026-05-03T14:30:23.565Z</time></trkpt><trkpt lat="43.3961847" lon="10.8859257"><ele>405.4</ele><time>2026-05-03T14:30:24.565Z</time></trkpt><trkpt lat="43.3961167" lon="10.8860443"><ele>403.6</ele><time>2026-05-03T14:30:25.564Z</time></trkpt><trkpt lat="43.3960536" lon="10.8861578"><ele>401.8</ele><time>2026-05-03T14:30:26.565Z</time></trkpt><trkpt lat="43.3960023" lon="10.8862696"><ele>400.0</ele><time>2026-05-03T14:30:27.565Z</time></trkpt><trkpt lat="43.3959705" lon="10.8863913"><ele>400.00000000000006</ele><time>2026-05-03T14:30:28.565Z</time></trkpt><trkpt lat="43.3959489" lon="10.8865239"><ele>400.0</ele><time>2026-05-03T14:30:29.566Z</time></trkpt><trkpt lat="43.395937" lon="10.8866437"><ele>400.0</ele><time>2026-05-03T14:30:30.564Z</time></trkpt><trkpt lat="43.395935" lon="10.8867648"><ele>400.0</ele><time>2026-05-03T14:30:31.565Z</time></trkpt><trkpt lat="43.3959431" lon="10.8868812"><ele>400.00000000000006</ele><time>2026-05-03T14:30:32.565Z</time></trkpt><trkpt lat="43.3959668" lon="10.8869974"><ele>400.0</ele><time>2026-05-03T14:30:33.565Z</time></trkpt><trkpt lat="43.3959976" lon="10.8871127"><ele>399.50000000000006</ele><time>2026-05-03T14:30:34.565Z</time></trkpt><trkpt lat="43.3960289" lon="10.8872273"><ele>399.0</ele><time>2026-05-03T14:30:35.566Z</time></trkpt><trkpt lat="43.3960554" lon="10.8873392"><ele>398.5</ele><time>2026-05-03T14:30:36.565Z</time></trkpt><trkpt lat="43.3960746" lon="10.8874527"><ele>398.0</ele><time>2026-05-03T14:30:37.565Z</time></trkpt><trkpt lat="43.3960737" lon="10.8875766"><ele>397.50000000000006</ele><time>2026-05-03T14:30:38.565Z</time></trkpt><trkpt lat="43.3960447" lon="10.8876972"><ele>397.0</ele><time>2026-05-03T14:30:39.563Z</time></trkpt><trkpt lat="43.3959816" lon="10.8877946"><ele>395.8</ele><time>2026-05-03T14:30:40.565Z</time></trkpt><trkpt lat="43.395902" lon="10.8878715"><ele>394.6</ele><time>2026-05-03T14:30:41.566Z</time></trkpt><trkpt lat="43.3958149" lon="10.8879336"><ele>393.40000000000003</ele><time>2026-05-03T14:30:42.565Z</time></trkpt><trkpt lat="43.3957329" lon="10.8880034"><ele>392.20000000000005</ele><time>2026-05-03T14:30:43.565Z</time></trkpt><trkpt lat="43.3956604" lon="10.8880938"><ele>391.0</ele><time>2026-05-03T14:30:44.565Z</time></trkpt><trkpt lat="43.3956084" lon="10.8882023"><ele>391.0</ele><time>2026-05-03T14:30:45.565Z</time></trkpt><trkpt lat="43.3955619" lon="10.888315"><ele>391.0</ele><time>2026-05-03T14:30:46.564Z</time></trkpt><trkpt lat="43.395515" lon="10.8884245"><ele>391.0</ele><time>2026-05-03T14:30:47.564Z</time></trkpt><trkpt lat="43.3954716" lon="10.888534"><ele>391.0</ele><time>2026-05-03T14:30:48.565Z</time></trkpt><trkpt lat="43.3954258" lon="10.8886472"><ele>391.0</ele><time>2026-05-03T14:30:49.566Z</time></trkpt><trkpt lat="43.3953816" lon="10.8887605"><ele>390.4</ele><time>2026-05-03T14:30:50.564Z</time></trkpt><trkpt lat="43.3953375" lon="10.8888688"><ele>389.8</ele><time>2026-05-03T14:30:51.566Z</time></trkpt><trkpt lat="43.395294" lon="10.888975"><ele>389.2</ele><time>2026-05-03T14:30:52.566Z</time></trkpt><trkpt lat="43.3952525" lon="10.8890739"><ele>388.59999999999997</ele><time>2026-05-03T14:30:53.565Z</time></trkpt><trkpt lat="43.3952056" lon="10.8891597"><ele>388.0</ele><time>2026-05-03T14:30:54.565Z</time></trkpt><trkpt lat="43.3950847" lon="10.889271"><ele>388.0</ele><time>2026-05-03T14:30:56.565Z</time></trkpt><trkpt lat="43.395009" lon="10.8892845"><ele>388.0</ele><time>2026-05-03T14:30:57.564Z</time></trkpt><trkpt lat="43.3949468" lon="10.8892544"><ele>388.0</ele><time>2026-05-03T14:30:58.564Z</time></trkpt><trkpt lat="43.3949095" lon="10.8891787"><ele>388.0</ele><time>2026-05-03T14:30:59.565Z</time></trkpt><trkpt lat="43.3948908" lon="10.8890845"><ele>388.0</ele><time>2026-05-03T14:31:00.563Z</time></trkpt><trkpt lat="43.3948826" lon="10.8889763"><ele>388.0</ele><time>2026-05-03T14:31:01.565Z</time></trkpt><trkpt lat="43.3948878" lon="10.8888605"><ele>388.0</ele><time>2026-05-03T14:31:02.564Z</time></trkpt><trkpt lat="43.3948981" lon="10.8887485"><ele>387.33333333333337</ele><time>2026-05-03T14:31:03.565Z</time></trkpt><trkpt lat="43.3949171" lon="10.8886411"><ele>386.6666666666667</ele><time>2026-05-03T14:31:04.565Z</time></trkpt><trkpt lat="43.3949326" lon="10.8885347"><ele>386.0</ele><time>2026-05-03T14:31:05.564Z</time></trkpt><trkpt lat="43.3949363" lon="10.8884302"><ele>385.33333333333337</ele><time>2026-05-03T14:31:06.564Z</time></trkpt><trkpt lat="43.3949291" lon="10.8883255"><ele>384.6666666666667</ele><time>2026-05-03T14:31:07.565Z</time></trkpt><trkpt lat="43.3949089" lon="10.8882277"><ele>384.0</ele><time>2026-05-03T14:31:08.565Z</time></trkpt><trkpt lat="43.3948734" lon="10.8881316"><ele>383.5</ele><time>2026-05-03T14:31:09.564Z</time></trkpt><trkpt lat="43.3948219" lon="10.8880583"><ele>383.0</ele><time>2026-05-03T14:31:10.565Z</time></trkpt><trkpt lat="43.3947563" lon="10.8880272"><ele>382.5</ele><time>2026-05-03T14:31:11.565Z</time></trkpt><trkpt lat="43.3946841" lon="10.8880424"><ele>382.0</ele><time>2026-05-03T14:31:12.564Z</time></trkpt><trkpt lat="43.3946224" lon="10.888099"><ele>381.5</ele><time>2026-05-03T14:31:13.565Z</time></trkpt><trkpt lat="43.3945695" lon="10.8881875"><ele>381.0</ele><time>2026-05-03T14:31:14.565Z</time></trkpt><trkpt lat="43.3945354" lon="10.8882958"><ele>380.0</ele><time>2026-05-03T14:31:15.565Z</time></trkpt><trkpt lat="43.3945004" lon="10.8884126"><ele>379.0</ele><time>2026-05-03T14:31:16.565Z</time></trkpt><trkpt lat="43.3944549" lon="10.8885341"><ele>378.0</ele><time>2026-05-03T14:31:17.565Z</time></trkpt><trkpt lat="43.3943922" lon="10.8886476"><ele>377.0</ele><time>2026-05-03T14:31:18.564Z</time></trkpt><trkpt lat="43.3943107" lon="10.8887416"><ele>376.0</ele><time>2026-05-03T14:31:19.565Z</time></trkpt><trkpt lat="43.394214" lon="10.888823"><ele>376.0</ele><time>2026-05-03T14:31:20.565Z</time></trkpt><trkpt lat="43.3941079" lon="10.8888977"><ele>376.0</ele><time>2026-05-03T14:31:21.566Z</time></trkpt><trkpt lat="43.3940042" lon="10.8889772"><ele>376.0</ele><time>2026-05-03T14:31:22.565Z</time></trkpt><trkpt lat="43.3938929" lon="10.8890675"><ele>376.0</ele><time>2026-05-03T14:31:23.565Z</time></trkpt><trkpt lat="43.3937885" lon="10.8891532"><ele>373.25</ele><time>2026-05-03T14:31:24.565Z</time></trkpt><trkpt lat="43.3936935" lon="10.8892471"><ele>370.5</ele><time>2026-05-03T14:31:25.564Z</time></trkpt><trkpt lat="43.3936089" lon="10.8893696"><ele>367.75</ele><time>2026-05-03T14:31:26.565Z</time></trkpt><trkpt lat="43.3935289" lon="10.8895125"><ele>365.0</ele><time>2026-05-03T14:31:27.564Z</time></trkpt><trkpt lat="43.3934612" lon="10.8896679"><ele>365.0</ele><time>2026-05-03T14:31:28.564Z</time></trkpt><trkpt lat="43.3933961" lon="10.8898216"><ele>365.0</ele><time>2026-05-03T14:31:29.565Z</time></trkpt><trkpt lat="43.3933335" lon="10.889965"><ele>365.0</ele><time>2026-05-03T14:31:30.565Z</time></trkpt><trkpt lat="43.3932666" lon="10.8901124"><ele>365.0</ele><time>2026-05-03T14:31:31.565Z</time></trkpt><trkpt lat="43.3932032" lon="10.8902558"><ele>365.4</ele><time>2026-05-03T14:31:32.565Z</time></trkpt><trkpt lat="43.3931429" lon="10.8904043"><ele>365.8</ele><time>2026-05-03T14:31:33.565Z</time></trkpt><trkpt lat="43.3930985" lon="10.8905471"><ele>366.20000000000005</ele><time>2026-05-03T14:31:34.566Z</time></trkpt><trkpt lat="43.3930741" lon="10.8906818"><ele>366.6</ele><time>2026-05-03T14:31:35.565Z</time></trkpt><trkpt lat="43.3930783" lon="10.8908137"><ele>367.0</ele><time>2026-05-03T14:31:36.564Z</time></trkpt><trkpt lat="43.3931077" lon="10.8909452"><ele>363.5</ele><time>2026-05-03T14:31:37.566Z</time></trkpt><trkpt lat="43.3931558" lon="10.8910838"><ele>360.0</ele><time>2026-05-03T14:31:38.563Z</time></trkpt><trkpt lat="43.3932145" lon="10.891226"><ele>356.5</ele><time>2026-05-03T14:31:39.564Z</time></trkpt><trkpt lat="43.3932745" lon="10.8913767"><ele>353.0</ele><time>2026-05-03T14:31:40.566Z</time></trkpt><trkpt lat="43.3933397" lon="10.8915297"><ele>353.0</ele><time>2026-05-03T14:31:41.563Z</time></trkpt><trkpt lat="43.3934104" lon="10.8916728"><ele>353.0</ele><time>2026-05-03T14:31:42.565Z</time></trkpt><trkpt lat="43.3934893" lon="10.8918004"><ele>353.0</ele><time>2026-05-03T14:31:43.565Z</time></trkpt><trkpt lat="43.3935792" lon="10.8919142"><ele>353.0</ele><time>2026-05-03T14:31:44.565Z</time></trkpt><trkpt lat="43.3936706" lon="10.8920259"><ele>352.59999999999997</ele><time>2026-05-03T14:31:45.564Z</time></trkpt><trkpt lat="43.3937594" lon="10.8921293"><ele>352.2</ele><time>2026-05-03T14:31:46.565Z</time></trkpt><trkpt lat="43.393836" lon="10.8922395"><ele>351.8</ele><time>2026-05-03T14:31:47.564Z</time></trkpt><trkpt lat="43.3938968" lon="10.8923557"><ele>351.4</ele><time>2026-05-03T14:31:48.565Z</time></trkpt><trkpt lat="43.3939344" lon="10.8924949"><ele>351.0</ele><time>2026-05-03T14:31:49.565Z</time></trkpt><trkpt lat="43.3939393" lon="10.8926545"><ele>348.5</ele><time>2026-05-03T14:31:50.565Z</time></trkpt><trkpt lat="43.3939209" lon="10.8928217"><ele>346.0</ele><time>2026-05-03T14:31:51.564Z</time></trkpt><trkpt lat="43.3938714" lon="10.8929824"><ele>343.5</ele><time>2026-05-03T14:31:52.564Z</time></trkpt><trkpt lat="43.3938076" lon="10.8931313"><ele>341.0</ele><time>2026-05-03T14:31:53.564Z</time></trkpt><trkpt lat="43.39374" lon="10.8932722"><ele>340.75</ele><time>2026-05-03T14:31:54.565Z</time></trkpt><trkpt lat="43.3936697" lon="10.893403"><ele>340.5</ele><time>2026-05-03T14:31:55.565Z</time></trkpt><trkpt lat="43.3935961" lon="10.8935145"><ele>340.25</ele><time>2026-05-03T14:31:56.566Z</time></trkpt><trkpt lat="43.3935075" lon="10.8936057"><ele>340.0</ele><time>2026-05-03T14:31:57.565Z</time></trkpt><trkpt lat="43.3934101" lon="10.893687"><ele>338.25</ele><time>2026-05-03T14:31:58.566Z</time></trkpt><trkpt lat="43.3933049" lon="10.8937586"><ele>336.5</ele><time>2026-05-03T14:31:59.565Z</time></trkpt><trkpt lat="43.3931996" lon="10.8938324"><ele>334.75</ele><time>2026-05-03T14:32:00.565Z</time></trkpt><trkpt lat="43.3930996" lon="10.8939135"><ele>333.0</ele><time>2026-05-03T14:32:01.564Z</time></trkpt><trkpt lat="43.3930053" lon="10.893999"><ele>333.0</ele><time>2026-05-03T14:32:02.565Z</time></trkpt><trkpt lat="43.3929219" lon="10.8940902"><ele>333.0</ele><time>2026-05-03T14:32:03.564Z</time></trkpt><trkpt lat="43.3928385" lon="10.8941821"><ele>333.0</ele><time>2026-05-03T14:32:04.564Z</time></trkpt><trkpt lat="43.3927592" lon="10.8942763"><ele>333.0</ele><time>2026-05-03T14:32:05.565Z</time></trkpt><trkpt lat="43.392685" lon="10.8943688"><ele>333.0</ele><time>2026-05-03T14:32:06.565Z</time></trkpt><trkpt lat="43.3926138" lon="10.8944756"><ele>333.0</ele><time>2026-05-03T14:32:07.565Z</time></trkpt><trkpt lat="43.392556" lon="10.8945955"><ele>333.0</ele><time>2026-05-03T14:32:08.565Z</time></trkpt><trkpt lat="43.3925204" lon="10.8947469"><ele>333.0</ele><time>2026-05-03T14:32:09.565Z</time></trkpt><trkpt lat="43.3924975" lon="10.8949155"><ele>333.0</ele><time>2026-05-03T14:32:10.565Z</time></trkpt><trkpt lat="43.392482" lon="10.895099"><ele>333.0</ele><time>2026-05-03T14:32:11.565Z</time></trkpt><trkpt lat="43.3924644" lon="10.8952916"><ele>333.0</ele><time>2026-05-03T14:32:12.564Z</time></trkpt><trkpt lat="43.3924371" lon="10.8954912"><ele>333.0</ele><time>2026-05-03T14:32:13.565Z</time></trkpt><trkpt lat="43.3923988" lon="10.895684"><ele>333.0</ele><time>2026-05-03T14:32:14.565Z</time></trkpt><trkpt lat="43.3923514" lon="10.8958736"><ele>331.6666666666667</ele><time>2026-05-03T14:32:15.565Z</time></trkpt><trkpt lat="43.3922992" lon="10.8960616"><ele>330.33333333333337</ele><time>2026-05-03T14:32:16.566Z</time></trkpt><trkpt lat="43.3922361" lon="10.8962633"><ele>329.0</ele><time>2026-05-03T14:32:17.563Z</time></trkpt><trkpt lat="43.3921639" lon="10.8964802"><ele>328.33333333333337</ele><time>2026-05-03T14:32:18.563Z</time></trkpt><trkpt lat="43.3920803" lon="10.8966793"><ele>327.6666666666667</ele><time>2026-05-03T14:32:19.564Z</time></trkpt><trkpt lat="43.3919855" lon="10.8968666"><ele>327.0</ele><time>2026-05-03T14:32:20.564Z</time></trkpt><trkpt lat="43.3918798" lon="10.8970488"><ele>327.0</ele><time>2026-05-03T14:32:21.564Z</time></trkpt><trkpt lat="43.3917699" lon="10.8972252"><ele>327.0</ele><time>2026-05-03T14:32:22.564Z</time></trkpt><trkpt lat="43.3916515" lon="10.8974013"><ele>327.0</ele><time>2026-05-03T14:32:23.566Z</time></trkpt><trkpt lat="43.391521" lon="10.8975953"><ele>327.0</ele><time>2026-05-03T14:32:24.565Z</time></trkpt><trkpt lat="43.3913727" lon="10.8977932"><ele>327.0</ele><time>2026-05-03T14:32:25.563Z</time></trkpt><trkpt lat="43.3912053" lon="10.8979965"><ele>327.0</ele><time>2026-05-03T14:32:26.565Z</time></trkpt><trkpt lat="43.3910241" lon="10.8981909"><ele>328.3333333333333</ele><time>2026-05-03T14:32:27.564Z</time></trkpt><trkpt lat="43.3908538" lon="10.8983597"><ele>329.66666666666663</ele><time>2026-05-03T14:32:28.565Z</time></trkpt><trkpt lat="43.3906952" lon="10.8985234"><ele>331.0</ele><time>2026-05-03T14:32:29.564Z</time></trkpt><trkpt lat="43.3905543" lon="10.8986974"><ele>334.0</ele><time>2026-05-03T14:32:30.564Z</time></trkpt><trkpt lat="43.3904245" lon="10.8988756"><ele>337.0</ele><time>2026-05-03T14:32:31.565Z</time></trkpt><trkpt lat="43.3903085" lon="10.8990578"><ele>340.0</ele><time>2026-05-03T14:32:32.566Z</time></trkpt><trkpt lat="43.3902029" lon="10.8992314"><ele>339.66666666666663</ele><time>2026-05-03T14:32:33.565Z</time></trkpt><trkpt lat="43.3901057" lon="10.8993975"><ele>339.3333333333333</ele><time>2026-05-03T14:32:34.564Z</time></trkpt><trkpt lat="43.3900092" lon="10.8995592"><ele>339.0</ele><time>2026-05-03T14:32:35.564Z</time></trkpt><trkpt lat="43.389912" lon="10.8997084"><ele>339.0</ele><time>2026-05-03T14:32:36.565Z</time></trkpt><trkpt lat="43.3898093" lon="10.8998554"><ele>339.0</ele><time>2026-05-03T14:32:37.565Z</time></trkpt><trkpt lat="43.3896992" lon="10.9000174"><ele>339.0</ele><time>2026-05-03T14:32:38.564Z</time></trkpt><trkpt lat="43.3895742" lon="10.9001983"><ele>340.3333333333333</ele><time>2026-05-03T14:32:39.564Z</time></trkpt><trkpt lat="43.3894398" lon="10.9003769"><ele>341.66666666666663</ele><time>2026-05-03T14:32:40.565Z</time></trkpt><trkpt lat="43.3892981" lon="10.9005538"><ele>343.0</ele><time>2026-05-03T14:32:41.565Z</time></trkpt><trkpt lat="43.3891553" lon="10.9007364"><ele>342.66666666666663</ele><time>2026-05-03T14:32:42.565Z</time></trkpt><trkpt lat="43.3890134" lon="10.9009248"><ele>342.3333333333333</ele><time>2026-05-03T14:32:43.564Z</time></trkpt><trkpt lat="43.3888736" lon="10.9011169"><ele>342.0</ele><time>2026-05-03T14:32:44.566Z</time></trkpt><trkpt lat="43.3887383" lon="10.9013179"><ele>344.3333333333333</ele><time>2026-05-03T14:32:45.563Z</time></trkpt><trkpt lat="43.3886083" lon="10.9015175"><ele>346.66666666666663</ele><time>2026-05-03T14:32:46.564Z</time></trkpt><trkpt lat="43.3884928" lon="10.9017009"><ele>349.0</ele><time>2026-05-03T14:32:47.565Z</time></trkpt><trkpt lat="43.388377" lon="10.9018666"><ele>349.0</ele><time>2026-05-03T14:32:48.566Z</time></trkpt><trkpt lat="43.3882558" lon="10.9020087"><ele>349.0</ele><time>2026-05-03T14:32:49.564Z</time></trkpt><trkpt lat="43.3881322" lon="10.9021332"><ele>349.0</ele><time>2026-05-03T14:32:50.565Z</time></trkpt><trkpt lat="43.3880193" lon="10.9022415"><ele>350.4</ele><time>2026-05-03T14:32:51.564Z</time></trkpt><trkpt lat="43.3879169" lon="10.9023447"><ele>351.79999999999995</ele><time>2026-05-03T14:32:52.565Z</time></trkpt><trkpt lat="43.3878251" lon="10.9024393"><ele>353.20000000000005</ele><time>2026-05-03T14:32:53.565Z</time></trkpt><trkpt lat="43.3877413" lon="10.9025349"><ele>354.6</ele><time>2026-05-03T14:32:54.564Z</time></trkpt><trkpt lat="43.3876683" lon="10.9026137"><ele>356.0</ele><time>2026-05-03T14:32:55.565Z</time></trkpt><trkpt lat="43.3876002" lon="10.9026784"><ele>356.0</ele><time>2026-05-03T14:32:56.563Z</time></trkpt><trkpt lat="43.3875346" lon="10.9027351"><ele>356.0</ele><time>2026-05-03T14:32:57.565Z</time></trkpt><trkpt lat="43.3874686" lon="10.9027801"><ele>356.0</ele><time>2026-05-03T14:32:58.566Z</time></trkpt><trkpt lat="43.3873971" lon="10.9028223"><ele>356.0</ele><time>2026-05-03T14:32:59.564Z</time></trkpt><trkpt lat="43.3873148" lon="10.9028554"><ele>356.0</ele><time>2026-05-03T14:33:00.565Z</time></trkpt><trkpt lat="43.3872305" lon="10.9028888"><ele>356.0</ele><time>2026-05-03T14:33:01.564Z</time></trkpt><trkpt lat="43.3871439" lon="10.9029258"><ele>357.8</ele><time>2026-05-03T14:33:02.565Z</time></trkpt><trkpt lat="43.3870558" lon="10.9029544"><ele>359.6</ele><time>2026-05-03T14:33:03.565Z</time></trkpt><trkpt lat="43.3869644" lon="10.9029824"><ele>361.4</ele><time>2026-05-03T14:33:04.565Z</time></trkpt><trkpt lat="43.3868696" lon="10.9029966"><ele>363.2</ele><time>2026-05-03T14:33:05.564Z</time></trkpt><trkpt lat="43.3867773" lon="10.9030016"><ele>365.0</ele><time>2026-05-03T14:33:06.565Z</time></trkpt><trkpt lat="43.3866891" lon="10.9029985"><ele>365.0</ele><time>2026-05-03T14:33:07.564Z</time></trkpt><trkpt lat="43.3866007" lon="10.9030092"><ele>365.0</ele><time>2026-05-03T14:33:08.565Z</time></trkpt><trkpt lat="43.3865271" lon="10.9030506"><ele>365.0</ele><time>2026-05-03T14:33:09.565Z</time></trkpt><trkpt lat="43.3864693" lon="10.9031215"><ele>365.0</ele><time>2026-05-03T14:33:10.564Z</time></trkpt><trkpt lat="43.3864297" lon="10.9032146"><ele>365.0</ele><time>2026-05-03T14:33:11.564Z</time></trkpt><trkpt lat="43.3864188" lon="10.9033111"><ele>365.0</ele><time>2026-05-03T14:33:12.564Z</time></trkpt><trkpt lat="43.3864227" lon="10.9034156"><ele>365.4</ele><time>2026-05-03T14:33:13.564Z</time></trkpt><trkpt lat="43.3864298" lon="10.9035263"><ele>365.8</ele><time>2026-05-03T14:33:14.566Z</time></trkpt><trkpt lat="43.386442" lon="10.9036596"><ele>366.20000000000005</ele><time>2026-05-03T14:33:15.566Z</time></trkpt><trkpt lat="43.3864501" lon="10.9038145"><ele>366.6</ele><time>2026-05-03T14:33:16.565Z</time></trkpt><trkpt lat="43.3864646" lon="10.9039647"><ele>367.0</ele><time>2026-05-03T14:33:17.564Z</time></trkpt><trkpt lat="43.3864795" lon="10.9041255"><ele>367.8</ele><time>2026-05-03T14:33:18.565Z</time></trkpt><trkpt lat="43.386484" lon="10.9042835"><ele>368.6</ele><time>2026-05-03T14:33:19.565Z</time></trkpt><trkpt lat="43.3864685" lon="10.9044371"><ele>369.40000000000003</ele><time>2026-05-03T14:33:20.565Z</time></trkpt><trkpt lat="43.3864266" lon="10.90457"><ele>370.20000000000005</ele><time>2026-05-03T14:33:21.564Z</time></trkpt><trkpt lat="43.3863614" lon="10.9046784"><ele>371.0</ele><time>2026-05-03T14:33:22.566Z</time></trkpt><trkpt lat="43.386282" lon="10.904766"><ele>372.4</ele><time>2026-05-03T14:33:23.564Z</time></trkpt><trkpt lat="43.3862089" lon="10.9048621"><ele>373.8</ele><time>2026-05-03T14:33:24.564Z</time></trkpt><trkpt lat="43.3861552" lon="10.9049826"><ele>375.2</ele><time>2026-05-03T14:33:25.564Z</time></trkpt><trkpt lat="43.3861377" lon="10.9051338"><ele>376.59999999999997</ele><time>2026-05-03T14:33:26.565Z</time></trkpt><trkpt lat="43.3861452" lon="10.9052882"><ele>378.0</ele><time>2026-05-03T14:33:27.565Z</time></trkpt><trkpt lat="43.3861682" lon="10.9054566"><ele>379.2</ele><time>2026-05-03T14:33:28.564Z</time></trkpt><trkpt lat="43.3861876" lon="10.9056159"><ele>380.4</ele><time>2026-05-03T14:33:29.564Z</time></trkpt><trkpt lat="43.3862019" lon="10.9057657"><ele>381.59999999999997</ele><time>2026-05-03T14:33:30.565Z</time></trkpt><trkpt lat="43.3862099" lon="10.9059095"><ele>382.79999999999995</ele><time>2026-05-03T14:33:31.564Z</time></trkpt><trkpt lat="43.3862184" lon="10.9060468"><ele>384.0</ele><time>2026-05-03T14:33:32.565Z</time></trkpt><trkpt lat="43.3862167" lon="10.9061858"><ele>385.2</ele><time>2026-05-03T14:33:33.564Z</time></trkpt><trkpt lat="43.3862105" lon="10.9063165"><ele>386.4</ele><time>2026-05-03T14:33:34.564Z</time></trkpt><trkpt lat="43.3862039" lon="10.9064464"><ele>387.6</ele><time>2026-05-03T14:33:35.564Z</time></trkpt><trkpt lat="43.3861866" lon="10.9066034"><ele>388.8</ele><time>2026-05-03T14:33:36.565Z</time></trkpt><trkpt lat="43.3861736" lon="10.9067567"><ele>390.0</ele><time>2026-05-03T14:33:37.564Z</time></trkpt><trkpt lat="43.3861711" lon="10.9068881"><ele>390.6666666666667</ele><time>2026-05-03T14:33:38.564Z</time></trkpt><trkpt lat="43.3861749" lon="10.9069846"><ele>391.33333333333337</ele><time>2026-05-03T14:33:39.563Z</time></trkpt><trkpt lat="43.3861653" lon="10.9070752"><ele>392.0</ele><time>2026-05-03T14:33:41.564Z</time></trkpt><trkpt lat="43.3861798" lon="10.9071719"><ele>392.6666666666667</ele><time>2026-05-03T14:35:39.564Z</time></trkpt><trkpt lat="43.3862048" lon="10.9072675"><ele>393.33333333333337</ele><time>2026-05-03T14:35:40.565Z</time></trkpt><trkpt lat="43.3862236" lon="10.907396"><ele>394.0</ele><time>2026-05-03T14:35:41.564Z</time></trkpt><trkpt lat="43.3862292" lon="10.9075525"><ele>394.79999999999995</ele><time>2026-05-03T14:35:42.565Z</time></trkpt><trkpt lat="43.3862191" lon="10.9077021"><ele>395.59999999999997</ele><time>2026-05-03T14:35:43.565Z</time></trkpt><trkpt lat="43.3861885" lon="10.9078399"><ele>396.4</ele><time>2026-05-03T14:35:44.564Z</time></trkpt><trkpt lat="43.3861345" lon="10.9079523"><ele>397.2</ele><time>2026-05-03T14:35:45.564Z</time></trkpt><trkpt lat="43.3860523" lon="10.9080445"><ele>398.0</ele><time>2026-05-03T14:35:46.564Z</time></trkpt><trkpt lat="43.3859482" lon="10.9081433"><ele>398.0</ele><time>2026-05-03T14:35:47.564Z</time></trkpt><trkpt lat="43.3858302" lon="10.908262"><ele>398.0</ele><time>2026-05-03T14:35:48.564Z</time></trkpt><trkpt lat="43.385698" lon="10.9084059"><ele>398.0</ele><time>2026-05-03T14:35:49.565Z</time></trkpt><trkpt lat="43.3855737" lon="10.9085697"><ele>402.0</ele><time>2026-05-03T14:35:50.565Z</time></trkpt><trkpt lat="43.3854708" lon="10.9087443"><ele>406.0</ele><time>2026-05-03T14:35:51.565Z</time></trkpt><trkpt lat="43.3853874" lon="10.9089412"><ele>410.0</ele><time>2026-05-03T14:35:52.564Z</time></trkpt><trkpt lat="43.3853132" lon="10.9091566"><ele>409.0</ele><time>2026-05-03T14:35:53.565Z</time></trkpt><trkpt lat="43.3852417" lon="10.9093662"><ele>408.0</ele><time>2026-05-03T14:35:54.564Z</time></trkpt><trkpt lat="43.3851744" lon="10.9095537"><ele>407.0</ele><time>2026-05-03T14:35:55.565Z</time></trkpt><trkpt lat="43.3851201" lon="10.909743"><ele>407.0</ele><time>2026-05-03T14:35:56.564Z</time></trkpt><trkpt lat="43.3851019" lon="10.9099232"><ele>407.0</ele><time>2026-05-03T14:35:57.564Z</time></trkpt><trkpt lat="43.3851186" lon="10.9101127"><ele>407.0</ele><time>2026-05-03T14:35:58.566Z</time></trkpt><trkpt lat="43.385171" lon="10.910291"><ele>407.0</ele><time>2026-05-03T14:35:59.565Z</time></trkpt><trkpt lat="43.3852596" lon="10.9104659"><ele>407.66666666666663</ele><time>2026-05-03T14:36:00.564Z</time></trkpt><trkpt lat="43.3853776" lon="10.9106354"><ele>408.33333333333337</ele><time>2026-05-03T14:36:01.565Z</time></trkpt><trkpt lat="43.385523" lon="10.910809"><ele>409.0</ele><time>2026-05-03T14:36:02.564Z</time></trkpt><trkpt lat="43.3856697" lon="10.9110086"><ele>409.0</ele><time>2026-05-03T14:36:03.565Z</time></trkpt><trkpt lat="43.3858066" lon="10.9112315"><ele>409.0</ele><time>2026-05-03T14:36:04.565Z</time></trkpt><trkpt lat="43.3859446" lon="10.9114803"><ele>409.0</ele><time>2026-05-03T14:36:05.563Z</time></trkpt><trkpt lat="43.3860978" lon="10.9117196"><ele>407.0</ele><time>2026-05-03T14:36:06.564Z</time></trkpt><trkpt lat="43.3862721" lon="10.9119429"><ele>405.0</ele><time>2026-05-03T14:36:07.564Z</time></trkpt><trkpt lat="43.3864556" lon="10.9121541"><ele>405.0</ele><time>2026-05-03T14:36:08.565Z</time></trkpt><trkpt lat="43.3866381" lon="10.9123348"><ele>405.0</ele><time>2026-05-03T14:36:09.564Z</time></trkpt><trkpt lat="43.3868005" lon="10.9125174"><ele>405.0</ele><time>2026-05-03T14:36:10.566Z</time></trkpt><trkpt lat="43.386939" lon="10.9127016"><ele>404.33333333333337</ele><time>2026-05-03T14:36:11.564Z</time></trkpt><trkpt lat="43.3870558" lon="10.912892"><ele>403.6666666666667</ele><time>2026-05-03T14:36:12.564Z</time></trkpt><trkpt lat="43.3871472" lon="10.9130988"><ele>403.0</ele><time>2026-05-03T14:36:13.564Z</time></trkpt><trkpt lat="43.3872139" lon="10.9133322"><ele>404.0</ele><time>2026-05-03T14:36:14.564Z</time></trkpt><trkpt lat="43.387269" lon="10.9135827"><ele>405.0</ele><time>2026-05-03T14:36:15.564Z</time></trkpt><trkpt lat="43.3873321" lon="10.9138144"><ele>406.0</ele><time>2026-05-03T14:36:16.564Z</time></trkpt><trkpt lat="43.3874037" lon="10.9140103"><ele>406.0</ele><time>2026-05-03T14:36:17.565Z</time></trkpt><trkpt lat="43.3874678" lon="10.9141743"><ele>406.0</ele><time>2026-05-03T14:36:18.564Z</time></trkpt><trkpt lat="43.3875171" lon="10.9143239"><ele>406.0</ele><time>2026-05-03T14:36:19.565Z</time></trkpt><trkpt lat="43.3875329" lon="10.9144845"><ele>406.0</ele><time>2026-05-03T14:36:20.565Z</time></trkpt><trkpt lat="43.3875101" lon="10.9146597"><ele>405.33333333333337</ele><time>2026-05-03T14:36:21.565Z</time></trkpt><trkpt lat="43.3874691" lon="10.9148578"><ele>404.66666666666663</ele><time>2026-05-03T14:36:22.564Z</time></trkpt><trkpt lat="43.3874102" lon="10.9150761"><ele>404.0</ele><time>2026-05-03T14:36:23.565Z</time></trkpt><trkpt lat="43.3873137" lon="10.9153113"><ele>404.66666666666663</ele><time>2026-05-03T14:36:24.564Z</time></trkpt><trkpt lat="43.3871994" lon="10.9155489"><ele>405.33333333333337</ele><time>2026-05-03T14:36:25.565Z</time></trkpt><trkpt lat="43.3870849" lon="10.9157731"><ele>406.0</ele><time>2026-05-03T14:36:26.565Z</time></trkpt><trkpt lat="43.3869791" lon="10.9159811"><ele>404.33333333333337</ele><time>2026-05-03T14:36:27.565Z</time></trkpt><trkpt lat="43.3868852" lon="10.9161862"><ele>402.66666666666663</ele><time>2026-05-03T14:36:28.564Z</time></trkpt><trkpt lat="43.3868152" lon="10.9164048"><ele>401.0</ele><time>2026-05-03T14:36:29.566Z</time></trkpt><trkpt lat="43.3867662" lon="10.9166134"><ele>400.25</ele><time>2026-05-03T14:36:30.565Z</time></trkpt><trkpt lat="43.3867371" lon="10.9168069"><ele>399.5</ele><time>2026-05-03T14:36:31.563Z</time></trkpt><trkpt lat="43.3867338" lon="10.9169865"><ele>398.75</ele><time>2026-05-03T14:36:32.564Z</time></trkpt><trkpt lat="43.3867703" lon="10.9171558"><ele>398.0</ele><time>2026-05-03T14:36:33.564Z</time></trkpt><trkpt lat="43.3868418" lon="10.9173171"><ele>398.0</ele><time>2026-05-03T14:36:34.564Z</time></trkpt><trkpt lat="43.3869533" lon="10.9174746"><ele>398.0</ele><time>2026-05-03T14:36:35.565Z</time></trkpt><trkpt lat="43.3870938" lon="10.9176566"><ele>398.0</ele><time>2026-05-03T14:36:36.565Z</time></trkpt><trkpt lat="43.3872305" lon="10.9178319"><ele>395.66666666666663</ele><time>2026-05-03T14:36:37.564Z</time></trkpt><trkpt lat="43.3873562" lon="10.9179958"><ele>393.33333333333337</ele><time>2026-05-03T14:36:38.564Z</time></trkpt><trkpt lat="43.3874731" lon="10.9181618"><ele>391.0</ele><time>2026-05-03T14:36:39.565Z</time></trkpt><trkpt lat="43.3875836" lon="10.9183182"><ele>389.6666666666667</ele><time>2026-05-03T14:36:40.565Z</time></trkpt><trkpt lat="43.3876728" lon="10.9184845"><ele>388.33333333333337</ele><time>2026-05-03T14:36:41.565Z</time></trkpt><trkpt lat="43.3877416" lon="10.9186759"><ele>387.0</ele><time>2026-05-03T14:36:42.564Z</time></trkpt><trkpt lat="43.3877777" lon="10.9188689"><ele>387.0</ele><time>2026-05-03T14:36:43.564Z</time></trkpt><trkpt lat="43.3878017" lon="10.9190399"><ele>387.0</ele><time>2026-05-03T14:36:44.565Z</time></trkpt><trkpt lat="43.3878112" lon="10.9192038"><ele>387.0</ele><time>2026-05-03T14:36:45.564Z</time></trkpt><trkpt lat="43.3877881" lon="10.9193552"><ele>387.0</ele><time>2026-05-03T14:36:46.564Z</time></trkpt><trkpt lat="43.3877194" lon="10.919465"><ele>384.25</ele><time>2026-05-03T14:36:47.565Z</time></trkpt><trkpt lat="43.3876147" lon="10.9195564"><ele>381.5</ele><time>2026-05-03T14:36:48.564Z</time></trkpt><trkpt lat="43.3874856" lon="10.9196548"><ele>378.75</ele><time>2026-05-03T14:36:49.566Z</time></trkpt><trkpt lat="43.3873419" lon="10.9197508"><ele>376.0</ele><time>2026-05-03T14:36:50.565Z</time></trkpt><trkpt lat="43.3871951" lon="10.9198285"><ele>374.66666666666663</ele><time>2026-05-03T14:36:51.563Z</time></trkpt><trkpt lat="43.3870407" lon="10.9198564"><ele>373.3333333333333</ele><time>2026-05-03T14:36:52.564Z</time></trkpt><trkpt lat="43.3868838" lon="10.9198573"><ele>372.0</ele><time>2026-05-03T14:36:53.564Z</time></trkpt><trkpt lat="43.3867276" lon="10.9198331"><ele>372.0</ele><time>2026-05-03T14:36:54.563Z</time></trkpt><trkpt lat="43.3865653" lon="10.9197899"><ele>372.0</ele><time>2026-05-03T14:36:55.565Z</time></trkpt><trkpt lat="43.3864179" lon="10.9197193"><ele>372.0</ele><time>2026-05-03T14:36:56.565Z</time></trkpt><trkpt lat="43.3862914" lon="10.9196205"><ele>372.5</ele><time>2026-05-03T14:36:57.563Z</time></trkpt><trkpt lat="43.3861863" lon="10.9195003"><ele>373.0</ele><time>2026-05-03T14:36:58.565Z</time></trkpt><trkpt lat="43.3860956" lon="10.9193739"><ele>373.5</ele><time>2026-05-03T14:36:59.564Z</time></trkpt><trkpt lat="43.3860078" lon="10.9192735"><ele>374.0</ele><time>2026-05-03T14:37:00.564Z</time></trkpt><trkpt lat="43.3859144" lon="10.9192108"><ele>374.0</ele><time>2026-05-03T14:37:01.565Z</time></trkpt><trkpt lat="43.3858201" lon="10.919205"><ele>374.0</ele><time>2026-05-03T14:37:02.565Z</time></trkpt><trkpt lat="43.3857341" lon="10.9192389"><ele>374.0</ele><time>2026-05-03T14:37:03.565Z</time></trkpt><trkpt lat="43.3856678" lon="10.9193451"><ele>374.0</ele><time>2026-05-03T14:37:04.564Z</time></trkpt><trkpt lat="43.3856636" lon="10.9195171"><ele>374.0</ele><time>2026-05-03T14:37:05.565Z</time></trkpt><trkpt lat="43.3856708" lon="10.9196926"><ele>370.6666666666667</ele><time>2026-05-03T14:37:06.565Z</time></trkpt><trkpt lat="43.3857007" lon="10.9198908"><ele>367.3333333333333</ele><time>2026-05-03T14:37:07.564Z</time></trkpt><trkpt lat="43.3857145" lon="10.9201249"><ele>364.0</ele><time>2026-05-03T14:37:08.564Z</time></trkpt><trkpt lat="43.3856931" lon="10.9203856"><ele>361.3333333333333</ele><time>2026-05-03T14:37:09.565Z</time></trkpt><trkpt lat="43.3856601" lon="10.9206364"><ele>358.6666666666667</ele><time>2026-05-03T14:37:10.566Z</time></trkpt><trkpt lat="43.3856212" lon="10.9208818"><ele>356.0</ele><time>2026-05-03T14:37:11.565Z</time></trkpt><trkpt lat="43.3855822" lon="10.9211043"><ele>354.0</ele><time>2026-05-03T14:37:12.565Z</time></trkpt><trkpt lat="43.3855219" lon="10.921308"><ele>352.0</ele><time>2026-05-03T14:37:13.564Z</time></trkpt><trkpt lat="43.3854214" lon="10.9214949"><ele>350.0</ele><time>2026-05-03T14:37:14.565Z</time></trkpt><trkpt lat="43.3852878" lon="10.9216682"><ele>349.6666666666667</ele><time>2026-05-03T14:37:15.565Z</time></trkpt><trkpt lat="43.385129" lon="10.9218538"><ele>349.3333333333333</ele><time>2026-05-03T14:37:16.565Z</time></trkpt><trkpt lat="43.3849596" lon="10.9220561"><ele>349.0</ele><time>2026-05-03T14:37:17.564Z</time></trkpt><trkpt lat="43.3848015" lon="10.9222507"><ele>350.3333333333333</ele><time>2026-05-03T14:37:18.564Z</time></trkpt><trkpt lat="43.3846497" lon="10.9224311"><ele>351.6666666666667</ele><time>2026-05-03T14:37:19.566Z</time></trkpt><trkpt lat="43.3845046" lon="10.9225883"><ele>353.0</ele><time>2026-05-03T14:37:20.563Z</time></trkpt><trkpt lat="43.3843598" lon="10.9227192"><ele>353.0</ele><time>2026-05-03T14:37:21.563Z</time></trkpt><trkpt lat="43.3842017" lon="10.9228296"><ele>353.0</ele><time>2026-05-03T14:37:22.564Z</time></trkpt><trkpt lat="43.38404" lon="10.9229334"><ele>353.0</ele><time>2026-05-03T14:37:23.564Z</time></trkpt><trkpt lat="43.383876" lon="10.9230519"><ele>353.0</ele><time>2026-05-03T14:37:24.564Z</time></trkpt><trkpt lat="43.3837113" lon="10.9231813"><ele>353.0</ele><time>2026-05-03T14:37:25.563Z</time></trkpt><trkpt lat="43.383548" lon="10.9233289"><ele>353.0</ele><time>2026-05-03T14:37:26.564Z</time></trkpt><trkpt lat="43.3833949" lon="10.923506"><ele>352.0</ele><time>2026-05-03T14:37:27.564Z</time></trkpt><trkpt lat="43.3832589" lon="10.9237118"><ele>351.0</ele><time>2026-05-03T14:37:28.564Z</time></trkpt><trkpt lat="43.383142" lon="10.9239449"><ele>350.0</ele><time>2026-05-03T14:37:29.565Z</time></trkpt><trkpt lat="43.3830486" lon="10.9242064"><ele>356.5</ele><time>2026-05-03T14:37:30.565Z</time></trkpt><trkpt lat="43.3829732" lon="10.9245108"><ele>363.0</ele><time>2026-05-03T14:37:31.564Z</time></trkpt><trkpt lat="43.3829121" lon="10.924841"><ele>364.0</ele><time>2026-05-03T14:37:32.564Z</time></trkpt><trkpt lat="43.3828567" lon="10.9251511"><ele>365.0</ele><time>2026-05-03T14:37:33.564Z</time></trkpt><trkpt lat="43.3827831" lon="10.9254149"><ele>366.0</ele><time>2026-05-03T14:37:34.566Z</time></trkpt><trkpt lat="43.3826968" lon="10.9256522"><ele>366.0</ele><time>2026-05-03T14:37:35.566Z</time></trkpt><trkpt lat="43.3825934" lon="10.9258878"><ele>366.0</ele><time>2026-05-03T14:37:36.563Z</time></trkpt><trkpt lat="43.3824838" lon="10.9260935"><ele>366.0</ele><time>2026-05-03T14:37:37.563Z</time></trkpt><trkpt lat="43.3824051" lon="10.9263148"><ele>365.0</ele><time>2026-05-03T14:37:38.564Z</time></trkpt><trkpt lat="43.382349" lon="10.9265445"><ele>364.0</ele><time>2026-05-03T14:37:39.565Z</time></trkpt><trkpt lat="43.3823224" lon="10.9267923"><ele>363.0</ele><time>2026-05-03T14:37:40.564Z</time></trkpt><trkpt lat="43.3823199" lon="10.9270371"><ele>363.0</ele><time>2026-05-03T14:37:41.565Z</time></trkpt><trkpt lat="43.3823437" lon="10.9272787"><ele>363.0</ele><time>2026-05-03T14:37:42.564Z</time></trkpt><trkpt lat="43.3823994" lon="10.9275164"><ele>363.0</ele><time>2026-05-03T14:37:43.564Z</time></trkpt><trkpt lat="43.3824776" lon="10.9277526"><ele>363.0</ele><time>2026-05-03T14:37:44.564Z</time></trkpt><trkpt lat="43.3825537" lon="10.9279745"><ele>363.0</ele><time>2026-05-03T14:37:45.565Z</time></trkpt><trkpt lat="43.3826093" lon="10.9281994"><ele>363.0</ele><time>2026-05-03T14:37:46.565Z</time></trkpt><trkpt lat="43.3826449" lon="10.9284398"><ele>363.0</ele><time>2026-05-03T14:37:47.564Z</time></trkpt><trkpt lat="43.3826678" lon="10.9287009"><ele>363.0</ele><time>2026-05-03T14:37:48.564Z</time></trkpt><trkpt lat="43.3826757" lon="10.9289909"><ele>363.0</ele><time>2026-05-03T14:37:49.563Z</time></trkpt><trkpt lat="43.3826916" lon="10.9292679"><ele>359.6666666666667</ele><time>2026-05-03T14:37:50.565Z</time></trkpt><trkpt lat="43.3826935" lon="10.929544"><ele>356.33333333333337</ele><time>2026-05-03T14:37:51.565Z</time></trkpt><trkpt lat="43.3826708" lon="10.92981"><ele>353.0</ele><time>2026-05-03T14:37:52.565Z</time></trkpt><trkpt lat="43.3826151" lon="10.9300597"><ele>350.33333333333337</ele><time>2026-05-03T14:37:53.564Z</time></trkpt><trkpt lat="43.3825312" lon="10.9302989"><ele>347.6666666666667</ele><time>2026-05-03T14:37:54.565Z</time></trkpt><trkpt lat="43.3824252" lon="10.9305266"><ele>345.0</ele><time>2026-05-03T14:37:55.564Z</time></trkpt><trkpt lat="43.3823144" lon="10.9307397"><ele>343.3333333333333</ele><time>2026-05-03T14:37:56.566Z</time></trkpt><trkpt lat="43.3822088" lon="10.9309601"><ele>341.66666666666663</ele><time>2026-05-03T14:37:57.564Z</time></trkpt><trkpt lat="43.382121" lon="10.9311998"><ele>340.0</ele><time>2026-05-03T14:37:58.564Z</time></trkpt><trkpt lat="43.3820604" lon="10.9314637"><ele>338.66666666666663</ele><time>2026-05-03T14:37:59.564Z</time></trkpt><trkpt lat="43.382041" lon="10.931736"><ele>337.3333333333333</ele><time>2026-05-03T14:38:00.565Z</time></trkpt><trkpt lat="43.382057" lon="10.9320209"><ele>336.0</ele><time>2026-05-03T14:38:01.565Z</time></trkpt><trkpt lat="43.3821028" lon="10.9323099"><ele>339.0</ele><time>2026-05-03T14:38:02.565Z</time></trkpt><trkpt lat="43.3821829" lon="10.9326137"><ele>342.0</ele><time>2026-05-03T14:38:03.564Z</time></trkpt><trkpt lat="43.3822857" lon="10.9329269"><ele>342.0</ele><time>2026-05-03T14:38:04.564Z</time></trkpt><trkpt lat="43.3823974" lon="10.9332542"><ele>342.0</ele><time>2026-05-03T14:38:05.564Z</time></trkpt><trkpt lat="43.382498" lon="10.933562"><ele>342.3333333333333</ele><time>2026-05-03T14:38:06.565Z</time></trkpt><trkpt lat="43.3825919" lon="10.9338507"><ele>342.66666666666663</ele><time>2026-05-03T14:38:07.565Z</time></trkpt><trkpt lat="43.3826637" lon="10.9341323"><ele>343.0</ele><time>2026-05-03T14:38:08.565Z</time></trkpt><trkpt lat="43.3827111" lon="10.9344092"><ele>343.0</ele><time>2026-05-03T14:38:09.565Z</time></trkpt><trkpt lat="43.3827419" lon="10.934674"><ele>343.0</ele><time>2026-05-03T14:38:10.565Z</time></trkpt><trkpt lat="43.3827744" lon="10.9349346"><ele>343.0</ele><time>2026-05-03T14:38:11.563Z</time></trkpt><trkpt lat="43.3828371" lon="10.9352061"><ele>343.0</ele><time>2026-05-03T14:38:12.565Z</time></trkpt><trkpt lat="43.3829223" lon="10.935491"><ele>343.0</ele><time>2026-05-03T14:38:13.563Z</time></trkpt><trkpt lat="43.3830317" lon="10.9357814"><ele>345.0</ele><time>2026-05-03T14:38:14.565Z</time></trkpt><trkpt lat="43.3833143" lon="10.9363689"><ele>345.0</ele><time>2026-05-03T14:38:16.563Z</time></trkpt><trkpt lat="43.3834818" lon="10.9366408"><ele>345.0</ele><time>2026-05-03T14:38:17.565Z</time></trkpt><trkpt lat="43.3836747" lon="10.9368995"><ele>350.0</ele><time>2026-05-03T14:38:18.563Z</time></trkpt><trkpt lat="43.3838839" lon="10.9371558"><ele>355.0</ele><time>2026-05-03T14:38:19.564Z</time></trkpt><trkpt lat="43.3841012" lon="10.9374095"><ele>358.0</ele><time>2026-05-03T14:38:20.565Z</time></trkpt><trkpt lat="43.384321" lon="10.9376714"><ele>361.0</ele><time>2026-05-03T14:38:21.565Z</time></trkpt><trkpt lat="43.3845478" lon="10.9379359"><ele>361.0</ele><time>2026-05-03T14:38:22.564Z</time></trkpt><trkpt lat="43.3847713" lon="10.9381949"><ele>361.0</ele><time>2026-05-03T14:38:23.565Z</time></trkpt><trkpt lat="43.3849886" lon="10.9384521"><ele>364.5</ele><time>2026-05-03T14:38:24.565Z</time></trkpt><trkpt lat="43.3851991" lon="10.9386934"><ele>368.0</ele><time>2026-05-03T14:38:25.564Z</time></trkpt><trkpt lat="43.3853985" lon="10.9389274"><ele>367.0</ele><time>2026-05-03T14:38:26.566Z</time></trkpt><trkpt lat="43.3855942" lon="10.9391659"><ele>366.0</ele><time>2026-05-03T14:38:27.564Z</time></trkpt><trkpt lat="43.3857868" lon="10.939419"><ele>368.5</ele><time>2026-05-03T14:38:28.564Z</time></trkpt><trkpt lat="43.3859689" lon="10.9396959"><ele>371.0</ele><time>2026-05-03T14:38:29.565Z</time></trkpt><trkpt lat="43.3861474" lon="10.9399939"><ele>367.5</ele><time>2026-05-03T14:38:30.563Z</time></trkpt><trkpt lat="43.3863129" lon="10.9403093"><ele>364.0</ele><time>2026-05-03T14:38:31.564Z</time></trkpt><trkpt lat="43.3864754" lon="10.9406391"><ele>367.5</ele><time>2026-05-03T14:38:32.564Z</time></trkpt><trkpt lat="43.3866387" lon="10.940968"><ele>371.0</ele><time>2026-05-03T14:38:33.565Z</time></trkpt><trkpt lat="43.3867935" lon="10.9412784"><ele>371.0</ele><time>2026-05-03T14:38:34.565Z</time></trkpt><trkpt lat="43.3869474" lon="10.9415782"><ele>371.0</ele><time>2026-05-03T14:38:35.565Z</time></trkpt><trkpt lat="43.3870956" lon="10.9418704"><ele>377.5</ele><time>2026-05-03T14:38:36.564Z</time></trkpt><trkpt lat="43.3872433" lon="10.9421674"><ele>384.0</ele><time>2026-05-03T14:38:37.563Z</time></trkpt><trkpt lat="43.3873798" lon="10.9424855"><ele>382.0</ele><time>2026-05-03T14:38:38.564Z</time></trkpt><trkpt lat="43.3874982" lon="10.9428194"><ele>380.0</ele><time>2026-05-03T14:38:39.564Z</time></trkpt><trkpt lat="43.3876049" lon="10.9431728"><ele>379.5</ele><time>2026-05-03T14:38:40.564Z</time></trkpt><trkpt lat="43.3877027" lon="10.9435294"><ele>379.0</ele><time>2026-05-03T14:38:41.565Z</time></trkpt><trkpt lat="43.3877926" lon="10.9439036"><ele>378.5</ele><time>2026-05-03T14:38:42.565Z</time></trkpt><trkpt lat="43.3878778" lon="10.9442858"><ele>378.0</ele><time>2026-05-03T14:38:43.566Z</time></trkpt><trkpt lat="43.3879609" lon="10.9446727"><ele>385.5</ele><time>2026-05-03T14:38:44.565Z</time></trkpt><trkpt lat="43.3880458" lon="10.9450613"><ele>393.0</ele><time>2026-05-03T14:38:45.565Z</time></trkpt><trkpt lat="43.3881359" lon="10.9454342"><ele>393.0</ele><time>2026-05-03T14:38:46.565Z</time></trkpt><trkpt lat="43.3882231" lon="10.9458032"><ele>393.0</ele><time>2026-05-03T14:38:47.564Z</time></trkpt><trkpt lat="43.3883083" lon="10.9461698"><ele>395.0</ele><time>2026-05-03T14:38:48.563Z</time></trkpt><trkpt lat="43.3883899" lon="10.9465332"><ele>397.0</ele><time>2026-05-03T14:38:49.564Z</time></trkpt><trkpt lat="43.388466" lon="10.9468924"><ele>397.5</ele><time>2026-05-03T14:38:50.564Z</time></trkpt><trkpt lat="43.3885425" lon="10.9472527"><ele>398.0</ele><time>2026-05-03T14:38:51.564Z</time></trkpt><trkpt lat="43.3887048" lon="10.9479824"><ele>396.0</ele><time>2026-05-03T14:38:53.563Z</time></trkpt><trkpt lat="43.3887859" lon="10.9483494"><ele>394.0</ele><time>2026-05-03T14:38:54.564Z</time></trkpt><trkpt lat="43.3889531" lon="10.9490823"><ele>401.5</ele><time>2026-05-03T14:38:56.564Z</time></trkpt><trkpt lat="43.3890397" lon="10.9494414"><ele>409.0</ele><time>2026-05-03T14:38:57.564Z</time></trkpt><trkpt lat="43.3891427" lon="10.9497916"><ele>413.5</ele><time>2026-05-03T14:38:58.564Z</time></trkpt><trkpt lat="43.3892644" lon="10.9501314"><ele>418.0</ele><time>2026-05-03T14:38:59.564Z</time></trkpt><trkpt lat="43.3893981" lon="10.9504591"><ele>418.0</ele><time>2026-05-03T14:39:00.565Z</time></trkpt><trkpt lat="43.3895491" lon="10.9507752"><ele>418.0</ele><time>2026-05-03T14:39:01.564Z</time></trkpt><trkpt lat="43.3897168" lon="10.9510779"><ele>417.0</ele><time>2026-05-03T14:39:02.564Z</time></trkpt><trkpt lat="43.3899" lon="10.9513728"><ele>416.0</ele><time>2026-05-03T14:39:03.564Z</time></trkpt><trkpt lat="43.3900972" lon="10.9516614"><ele>415.5</ele><time>2026-05-03T14:39:04.564Z</time></trkpt><trkpt lat="43.3903077" lon="10.9519485"><ele>415.0</ele><time>2026-05-03T14:39:05.564Z</time></trkpt><trkpt lat="43.3905227" lon="10.9522344"><ele>417.5</ele><time>2026-05-03T14:39:06.564Z</time></trkpt><trkpt lat="43.3907369" lon="10.9525181"><ele>420.0</ele><time>2026-05-03T14:39:07.565Z</time></trkpt><trkpt lat="43.390956" lon="10.952786"><ele>421.5</ele><time>2026-05-03T14:39:08.564Z</time></trkpt><trkpt lat="43.3911755" lon="10.9530338"><ele>423.0</ele><time>2026-05-03T14:39:09.565Z</time></trkpt><trkpt lat="43.3913975" lon="10.9532758"><ele>427.0</ele><time>2026-05-03T14:39:10.563Z</time></trkpt><trkpt lat="43.3916197" lon="10.9534943"><ele>431.0</ele><time>2026-05-03T14:39:11.565Z</time></trkpt><trkpt lat="43.3918538" lon="10.953698"><ele>431.0</ele><time>2026-05-03T14:39:12.564Z</time></trkpt><trkpt lat="43.3921018" lon="10.9538901"><ele>431.0</ele><time>2026-05-03T14:39:13.566Z</time></trkpt><trkpt lat="43.3923626" lon="10.9540656"><ele>434.5</ele><time>2026-05-03T14:39:14.564Z</time></trkpt><trkpt lat="43.3926325" lon="10.9542438"><ele>438.0</ele><time>2026-05-03T14:39:15.563Z</time></trkpt><trkpt lat="43.3929051" lon="10.9544124"><ele>435.0</ele><time>2026-05-03T14:39:16.565Z</time></trkpt><trkpt lat="43.3931726" lon="10.9545755"><ele>432.0</ele><time>2026-05-03T14:39:17.564Z</time></trkpt><trkpt lat="43.3934274" lon="10.9547329"><ele>432.0</ele><time>2026-05-03T14:39:18.564Z</time></trkpt><trkpt lat="43.3936698" lon="10.9548959"><ele>432.0</ele><time>2026-05-03T14:39:19.565Z</time></trkpt><trkpt lat="43.393893" lon="10.9550775"><ele>430.5</ele><time>2026-05-03T14:39:20.564Z</time></trkpt><trkpt lat="43.3941051" lon="10.9552759"><ele>429.0</ele><time>2026-05-03T14:39:21.564Z</time></trkpt><trkpt lat="43.3942982" lon="10.9554941"><ele>429.0</ele><time>2026-05-03T14:39:22.564Z</time></trkpt><trkpt lat="43.3944696" lon="10.955739"><ele>429.0</ele><time>2026-05-03T14:39:23.564Z</time></trkpt><trkpt lat="43.3946214" lon="10.9560164"><ele>425.5</ele><time>2026-05-03T14:39:24.563Z</time></trkpt><trkpt lat="43.3947648" lon="10.9563155"><ele>422.0</ele><time>2026-05-03T14:39:25.564Z</time></trkpt><trkpt lat="43.3949007" lon="10.9566416"><ele>422.0</ele><time>2026-05-03T14:39:26.565Z</time></trkpt><trkpt lat="43.3950323" lon="10.956993"><ele>422.0</ele><time>2026-05-03T14:39:27.565Z</time></trkpt><trkpt lat="43.3951568" lon="10.957354"><ele>423.5</ele><time>2026-05-03T14:39:28.564Z</time></trkpt><trkpt lat="43.3952836" lon="10.9577213"><ele>425.0</ele><time>2026-05-03T14:39:29.563Z</time></trkpt><trkpt lat="43.3954023" lon="10.9580764"><ele>416.0</ele><time>2026-05-03T14:39:30.564Z</time></trkpt><trkpt lat="43.3955251" lon="10.9584222"><ele>407.0</ele><time>2026-05-03T14:39:31.564Z</time></trkpt><trkpt lat="43.3956503" lon="10.9587633"><ele>407.0</ele><time>2026-05-03T14:39:32.565Z</time></trkpt><trkpt lat="43.3957761" lon="10.9590989"><ele>407.0</ele><time>2026-05-03T14:39:33.564Z</time></trkpt><trkpt lat="43.3959195" lon="10.959421"><ele>407.5</ele><time>2026-05-03T14:39:34.564Z</time></trkpt><trkpt lat="43.3960752" lon="10.9597328"><ele>408.0</ele><time>2026-05-03T14:39:35.563Z</time></trkpt><trkpt lat="43.3962532" lon="10.9600347"><ele>407.5</ele><time>2026-05-03T14:39:36.564Z</time></trkpt><trkpt lat="43.3964491" lon="10.9603264"><ele>407.0</ele><time>2026-05-03T14:39:37.564Z</time></trkpt><trkpt lat="43.3966621" lon="10.9606151"><ele>406.5</ele><time>2026-05-03T14:39:38.565Z</time></trkpt><trkpt lat="43.3968823" lon="10.9609036"><ele>406.0</ele><time>2026-05-03T14:39:39.564Z</time></trkpt><trkpt lat="43.3971108" lon="10.9611825"><ele>409.0</ele><time>2026-05-03T14:39:40.565Z</time></trkpt><trkpt lat="43.397336" lon="10.9614561"><ele>412.0</ele><time>2026-05-03T14:39:41.565Z</time></trkpt><trkpt lat="43.3975522" lon="10.9617245"><ele>413.5</ele><time>2026-05-03T14:39:42.563Z</time></trkpt><trkpt lat="43.3977669" lon="10.9619908"><ele>415.0</ele><time>2026-05-03T14:39:43.564Z</time></trkpt><trkpt lat="43.3979815" lon="10.962257"><ele>415.0</ele><time>2026-05-03T14:39:44.565Z</time></trkpt><trkpt lat="43.3981954" lon="10.9625227"><ele>415.0</ele><time>2026-05-03T14:39:45.564Z</time></trkpt><trkpt lat="43.3984054" lon="10.962785"><ele>415.0</ele><time>2026-05-03T14:39:46.564Z</time></trkpt><trkpt lat="43.3986164" lon="10.9630409"><ele>415.0</ele><time>2026-05-03T14:39:47.564Z</time></trkpt><trkpt lat="43.3988241" lon="10.963298"><ele>417.0</ele><time>2026-05-03T14:39:48.565Z</time></trkpt><trkpt lat="43.3990287" lon="10.9635563"><ele>419.0</ele><time>2026-05-03T14:39:49.564Z</time></trkpt><trkpt lat="43.3992319" lon="10.9638195"><ele>419.0</ele><time>2026-05-03T14:39:50.564Z</time></trkpt><trkpt lat="43.3994283" lon="10.9640896"><ele>419.0</ele><time>2026-05-03T14:39:51.564Z</time></trkpt><trkpt lat="43.3996156" lon="10.964375"><ele>419.0</ele><time>2026-05-03T14:39:52.564Z</time></trkpt><trkpt lat="43.3997948" lon="10.9646787"><ele>419.0</ele><time>2026-05-03T14:39:53.564Z</time></trkpt><trkpt lat="43.3999674" lon="10.9649884"><ele>421.0</ele><time>2026-05-03T14:39:54.565Z</time></trkpt><trkpt lat="43.4001279" lon="10.9653112"><ele>423.0</ele><time>2026-05-03T14:39:55.564Z</time></trkpt><trkpt lat="43.4002794" lon="10.9656437"><ele>424.5</ele><time>2026-05-03T14:39:56.564Z</time></trkpt><trkpt lat="43.4004277" lon="10.9659806"><ele>426.0</ele><time>2026-05-03T14:39:57.565Z</time></trkpt><trkpt lat="43.4005731" lon="10.9663196"><ele>426.5</ele><time>2026-05-03T14:39:58.563Z</time></trkpt><trkpt lat="43.400716" lon="10.9666595"><ele>427.0</ele><time>2026-05-03T14:39:59.563Z</time></trkpt><trkpt lat="43.4008497" lon="10.9670076"><ele>428.5</ele><time>2026-05-03T14:40:00.563Z</time></trkpt><trkpt lat="43.4009754" lon="10.9673616"><ele>430.0</ele><time>2026-05-03T14:40:01.565Z</time></trkpt><trkpt lat="43.4011" lon="10.9677143"><ele>431.0</ele><time>2026-05-03T14:40:02.564Z</time></trkpt><trkpt lat="43.4012241" lon="10.9680696"><ele>432.0</ele><time>2026-05-03T14:40:03.564Z</time></trkpt><trkpt lat="43.4013427" lon="10.9684288"><ele>436.5</ele><time>2026-05-03T14:40:04.564Z</time></trkpt><trkpt lat="43.401462" lon="10.9687823"><ele>441.0</ele><time>2026-05-03T14:40:05.564Z</time></trkpt><trkpt lat="43.4015817" lon="10.969131"><ele>443.5</ele><time>2026-05-03T14:40:06.565Z</time></trkpt><trkpt lat="43.4017089" lon="10.9694697"><ele>446.0</ele><time>2026-05-03T14:40:07.564Z</time></trkpt><trkpt lat="43.4018432" lon="10.9698079"><ele>446.5</ele><time>2026-05-03T14:40:08.563Z</time></trkpt><trkpt lat="43.4020126" lon="10.9701263"><ele>447.0</ele><time>2026-05-03T14:40:09.564Z</time></trkpt><trkpt lat="43.4021835" lon="10.970436"><ele>447.0</ele><time>2026-05-03T14:40:10.565Z</time></trkpt><trkpt lat="43.4023593" lon="10.9707316"><ele>447.0</ele><time>2026-05-03T14:40:11.564Z</time></trkpt><trkpt lat="43.4025194" lon="10.971009"><ele>452.0</ele><time>2026-05-03T14:40:12.565Z</time></trkpt><trkpt lat="43.4026672" lon="10.971281"><ele>457.0</ele><time>2026-05-03T14:40:13.565Z</time></trkpt><trkpt lat="43.4028021" lon="10.971532"><ele>457.6666666666667</ele><time>2026-05-03T14:40:14.564Z</time></trkpt><trkpt lat="43.402921" lon="10.9717734"><ele>458.33333333333337</ele><time>2026-05-03T14:40:15.564Z</time></trkpt><trkpt lat="43.4030299" lon="10.9720117"><ele>459.0</ele><time>2026-05-03T14:40:16.564Z</time></trkpt><trkpt lat="43.4031345" lon="10.9722359"><ele>459.0</ele><time>2026-05-03T14:40:17.565Z</time></trkpt><trkpt lat="43.4032364" lon="10.9724596"><ele>459.0</ele><time>2026-05-03T14:40:18.565Z</time></trkpt><trkpt lat="43.4033316" lon="10.9726713"><ele>459.0</ele><time>2026-05-03T14:40:19.564Z</time></trkpt><trkpt lat="43.4034199" lon="10.9728775"><ele>459.33333333333337</ele><time>2026-05-03T14:40:20.563Z</time></trkpt><trkpt lat="43.4035019" lon="10.9730735"><ele>459.6666666666667</ele><time>2026-05-03T14:40:21.564Z</time></trkpt><trkpt lat="43.403581" lon="10.9732489"><ele>460.0</ele><time>2026-05-03T14:40:22.565Z</time></trkpt><trkpt lat="43.4036583" lon="10.9734215"><ele>460.0</ele><time>2026-05-03T14:40:23.565Z</time></trkpt><trkpt lat="43.4037282" lon="10.9735885"><ele>460.0</ele><time>2026-05-03T14:40:24.564Z</time></trkpt><trkpt lat="43.4037952" lon="10.9737487"><ele>460.0</ele><time>2026-05-03T14:40:25.565Z</time></trkpt><trkpt lat="43.4038661" lon="10.9739017"><ele>460.0</ele><time>2026-05-03T14:40:26.564Z</time></trkpt><trkpt lat="43.403923" lon="10.9740555"><ele>462.0</ele><time>2026-05-03T14:40:27.563Z</time></trkpt><trkpt lat="43.4039804" lon="10.9742022"><ele>464.0</ele><time>2026-05-03T14:40:28.564Z</time></trkpt><trkpt lat="43.4040307" lon="10.9743423"><ele>466.0</ele><time>2026-05-03T14:40:29.564Z</time></trkpt><trkpt lat="43.4040784" lon="10.9744791"><ele>468.0</ele><time>2026-05-03T14:40:30.563Z</time></trkpt><trkpt lat="43.4041229" lon="10.9746003"><ele>470.0</ele><time>2026-05-03T14:40:31.564Z</time></trkpt><trkpt lat="43.4041802" lon="10.9746817"><ele>470.0</ele><time>2026-05-03T14:40:32.565Z</time></trkpt><trkpt lat="43.4042533" lon="10.9747293"><ele>470.0</ele><time>2026-05-03T14:40:33.564Z</time></trkpt><trkpt lat="43.4043409" lon="10.9747383"><ele>470.0</ele><time>2026-05-03T14:40:34.564Z</time></trkpt><trkpt lat="43.4044407" lon="10.9747178"><ele>470.0</ele><time>2026-05-03T14:40:35.565Z</time></trkpt><trkpt lat="43.4045607" lon="10.9747071"><ele>470.0</ele><time>2026-05-03T14:40:36.565Z</time></trkpt><trkpt lat="43.4046953" lon="10.974679"><ele>472.5</ele><time>2026-05-03T14:40:37.565Z</time></trkpt><trkpt lat="43.4048366" lon="10.9746138"><ele>475.0</ele><time>2026-05-03T14:40:38.564Z</time></trkpt><trkpt lat="43.404971" lon="10.9745174"><ele>477.5</ele><time>2026-05-03T14:40:39.563Z</time></trkpt><trkpt lat="43.4050966" lon="10.9744239"><ele>480.0</ele><time>2026-05-03T14:40:40.565Z</time></trkpt><trkpt lat="43.4052271" lon="10.9743855"><ele>480.0</ele><time>2026-05-03T14:40:41.563Z</time></trkpt><trkpt lat="43.4053543" lon="10.974394"><ele>480.0</ele><time>2026-05-03T14:40:42.564Z</time></trkpt><trkpt lat="43.4054814" lon="10.9744593"><ele>480.0</ele><time>2026-05-03T14:40:43.564Z</time></trkpt><trkpt lat="43.4056182" lon="10.9745649"><ele>480.0</ele><time>2026-05-03T14:40:44.565Z</time></trkpt><trkpt lat="43.4057688" lon="10.9746888"><ele>479.33333333333337</ele><time>2026-05-03T14:40:45.563Z</time></trkpt><trkpt lat="43.4059344" lon="10.9748142"><ele>478.6666666666667</ele><time>2026-05-03T14:40:46.564Z</time></trkpt><trkpt lat="43.406118" lon="10.9749425"><ele>478.0</ele><time>2026-05-03T14:40:47.564Z</time></trkpt><trkpt lat="43.4063145" lon="10.9750709"><ele>480.5</ele><time>2026-05-03T14:40:48.564Z</time></trkpt><trkpt lat="43.4065268" lon="10.9752042"><ele>483.0</ele><time>2026-05-03T14:40:49.564Z</time></trkpt><trkpt lat="43.4067377" lon="10.9753364"><ele>483.0</ele><time>2026-05-03T14:40:50.565Z</time></trkpt><trkpt lat="43.4069429" lon="10.9754823"><ele>483.0</ele><time>2026-05-03T14:40:51.564Z</time></trkpt><trkpt lat="43.4071598" lon="10.975636"><ele>482.5</ele><time>2026-05-03T14:40:52.564Z</time></trkpt><trkpt lat="43.4073803" lon="10.9757861"><ele>482.0</ele><time>2026-05-03T14:40:53.564Z</time></trkpt><trkpt lat="43.4075961" lon="10.9759235"><ele>484.66666666666663</ele><time>2026-05-03T14:40:54.564Z</time></trkpt><trkpt lat="43.4077946" lon="10.976039"><ele>487.33333333333337</ele><time>2026-05-03T14:40:55.565Z</time></trkpt><trkpt lat="43.4079744" lon="10.976151"><ele>490.0</ele><time>2026-05-03T14:40:56.564Z</time></trkpt><trkpt lat="43.4081383" lon="10.9762831"><ele>490.0</ele><time>2026-05-03T14:40:57.564Z</time></trkpt><trkpt lat="43.4082855" lon="10.976452"><ele>490.0</ele><time>2026-05-03T14:40:58.564Z</time></trkpt><trkpt lat="43.4084129" lon="10.9766221"><ele>490.0</ele><time>2026-05-03T14:40:59.565Z</time></trkpt><trkpt lat="43.4085249" lon="10.9767676"><ele>492.5</ele><time>2026-05-03T14:41:00.564Z</time></trkpt><trkpt lat="43.4086361" lon="10.9768861"><ele>495.0</ele><time>2026-05-03T14:41:01.563Z</time></trkpt><trkpt lat="43.4087504" lon="10.9769596"><ele>497.5</ele><time>2026-05-03T14:41:02.564Z</time></trkpt><trkpt lat="43.4088782" lon="10.9769819"><ele>500.0</ele><time>2026-05-03T14:41:03.564Z</time></trkpt><trkpt lat="43.4090174" lon="10.9769538"><ele>500.3333333333333</ele><time>2026-05-03T14:41:04.565Z</time></trkpt><trkpt lat="43.4091709" lon="10.9769325"><ele>500.66666666666663</ele><time>2026-05-03T14:41:05.564Z</time></trkpt><trkpt lat="43.4093268" lon="10.9769641"><ele>501.0</ele><time>2026-05-03T14:41:06.564Z</time></trkpt><trkpt lat="43.4094854" lon="10.9770082"><ele>501.0</ele><time>2026-05-03T14:41:07.563Z</time></trkpt><trkpt lat="43.4096301" lon="10.9770727"><ele>501.0</ele><time>2026-05-03T14:41:08.563Z</time></trkpt><trkpt lat="43.4097598" lon="10.97717"><ele>501.0</ele><time>2026-05-03T14:41:09.563Z</time></trkpt><trkpt lat="43.4098603" lon="10.977314"><ele>501.0</ele><time>2026-05-03T14:41:10.565Z</time></trkpt><trkpt lat="43.4099444" lon="10.9774974"><ele>502.0</ele><time>2026-05-03T14:41:11.563Z</time></trkpt><trkpt lat="43.4100199" lon="10.9777015"><ele>503.0</ele><time>2026-05-03T14:41:12.564Z</time></trkpt><trkpt lat="43.4101046" lon="10.9778902"><ele>504.0</ele><time>2026-05-03T14:41:13.563Z</time></trkpt><trkpt lat="43.410209" lon="10.9780356"><ele>504.0</ele><time>2026-05-03T14:41:14.564Z</time></trkpt><trkpt lat="43.4103183" lon="10.9781314"><ele>504.0</ele><time>2026-05-03T14:41:15.563Z</time></trkpt><trkpt lat="43.4104415" lon="10.9781836"><ele>504.0</ele><time>2026-05-03T14:41:16.564Z</time></trkpt><trkpt lat="43.410574" lon="10.9781772"><ele>504.0</ele><time>2026-05-03T14:41:17.564Z</time></trkpt><trkpt lat="43.4107074" lon="10.9781081"><ele>506.33333333333337</ele><time>2026-05-03T14:41:18.564Z</time></trkpt><trkpt lat="43.4108259" lon="10.9779889"><ele>508.6666666666667</ele><time>2026-05-03T14:41:19.565Z</time></trkpt><trkpt lat="43.4109328" lon="10.9778393"><ele>511.0</ele><time>2026-05-03T14:41:20.564Z</time></trkpt><trkpt lat="43.4110454" lon="10.9777008"><ele>511.0</ele><time>2026-05-03T14:41:21.565Z</time></trkpt><trkpt lat="43.4111574" lon="10.9775689"><ele>511.0</ele><time>2026-05-03T14:41:22.565Z</time></trkpt><trkpt lat="43.4112592" lon="10.9774287"><ele>511.0</ele><time>2026-05-03T14:41:23.564Z</time></trkpt><trkpt lat="43.4113685" lon="10.977322"><ele>511.0</ele><time>2026-05-03T14:41:24.563Z</time></trkpt><trkpt lat="43.4114873" lon="10.9772485"><ele>512.5</ele><time>2026-05-03T14:41:25.564Z</time></trkpt><trkpt lat="43.4116158" lon="10.9772164"><ele>514.0</ele><time>2026-05-03T14:41:26.564Z</time></trkpt><trkpt lat="43.411765" lon="10.9772554"><ele>515.5</ele><time>2026-05-03T14:41:27.566Z</time></trkpt><trkpt lat="43.4119162" lon="10.9773185"><ele>517.0</ele><time>2026-05-03T14:41:28.564Z</time></trkpt><trkpt lat="43.4120651" lon="10.9773826"><ele>518.75</ele><time>2026-05-03T14:41:29.564Z</time></trkpt><trkpt lat="43.4122045" lon="10.9774267"><ele>520.5</ele><time>2026-05-03T14:41:30.565Z</time></trkpt><trkpt lat="43.4123375" lon="10.9774425"><ele>522.25</ele><time>2026-05-03T14:41:31.564Z</time></trkpt><trkpt lat="43.4124678" lon="10.9774118"><ele>524.0</ele><time>2026-05-03T14:41:32.563Z</time></trkpt><trkpt lat="43.4125982" lon="10.9773501"><ele>524.0</ele><time>2026-05-03T14:41:33.563Z</time></trkpt><trkpt lat="43.4127297" lon="10.977272"><ele>524.0</ele><time>2026-05-03T14:41:34.564Z</time></trkpt><trkpt lat="43.412865" lon="10.9771915"><ele>524.0</ele><time>2026-05-03T14:41:35.564Z</time></trkpt><trkpt lat="43.4129984" lon="10.9771127"><ele>524.0</ele><time>2026-05-03T14:41:36.563Z</time></trkpt><trkpt lat="43.4131366" lon="10.9770565"><ele>526.25</ele><time>2026-05-03T14:41:37.564Z</time></trkpt><trkpt lat="43.413272" lon="10.9770466"><ele>528.5</ele><time>2026-05-03T14:41:38.564Z</time></trkpt><trkpt lat="43.4134054" lon="10.9770764"><ele>530.75</ele><time>2026-05-03T14:41:39.564Z</time></trkpt><trkpt lat="43.4135419" lon="10.9771625"><ele>533.0</ele><time>2026-05-03T14:41:40.564Z</time></trkpt><trkpt lat="43.4136845" lon="10.977251"><ele>533.3333333333333</ele><time>2026-05-03T14:41:41.564Z</time></trkpt><trkpt lat="43.4138389" lon="10.9773016"><ele>533.6666666666666</ele><time>2026-05-03T14:41:42.565Z</time></trkpt><trkpt lat="43.4139932" lon="10.9773374"><ele>534.0</ele><time>2026-05-03T14:41:43.565Z</time></trkpt><trkpt lat="43.4141666" lon="10.977332"><ele>534.0</ele><time>2026-05-03T14:41:44.565Z</time></trkpt><trkpt lat="43.4143439" lon="10.9772977"><ele>534.0</ele><time>2026-05-03T14:41:45.564Z</time></trkpt><trkpt lat="43.414512" lon="10.9772523"><ele>534.0</ele><time>2026-05-03T14:41:46.563Z</time></trkpt><trkpt lat="43.4146745" lon="10.9772048"><ele>533.5</ele><time>2026-05-03T14:41:47.564Z</time></trkpt><trkpt lat="43.4148247" lon="10.9771657"><ele>533.0</ele><time>2026-05-03T14:41:48.563Z</time></trkpt><trkpt lat="43.4149601" lon="10.9771516"><ele>532.5</ele><time>2026-05-03T14:41:49.564Z</time></trkpt><trkpt lat="43.4150818" lon="10.9771875"><ele>532.0</ele><time>2026-05-03T14:41:50.564Z</time></trkpt><trkpt lat="43.4151834" lon="10.9772581"><ele>532.0</ele><time>2026-05-03T14:41:51.564Z</time></trkpt><trkpt lat="43.4152852" lon="10.9773566"><ele>532.0</ele><time>2026-05-03T14:41:52.564Z</time></trkpt><trkpt lat="43.41541" lon="10.9774342"><ele>532.0</ele><time>2026-05-03T14:41:53.564Z</time></trkpt><trkpt lat="43.4155384" lon="10.9774736"><ele>532.0</ele><time>2026-05-03T14:41:54.564Z</time></trkpt><trkpt lat="43.4156774" lon="10.9774852"><ele>530.75</ele><time>2026-05-03T14:41:55.565Z</time></trkpt><trkpt lat="43.4158073" lon="10.9774732"><ele>529.5</ele><time>2026-05-03T14:41:56.563Z</time></trkpt><trkpt lat="43.4159189" lon="10.9774328"><ele>528.25</ele><time>2026-05-03T14:41:57.563Z</time></trkpt><trkpt lat="43.4160193" lon="10.9773534"><ele>527.0</ele><time>2026-05-03T14:41:58.563Z</time></trkpt><trkpt lat="43.4161046" lon="10.9772125"><ele>527.0</ele><time>2026-05-03T14:41:59.564Z</time></trkpt><trkpt lat="43.4161712" lon="10.97704"><ele>527.0</ele><time>2026-05-03T14:42:00.564Z</time></trkpt><trkpt lat="43.4162269" lon="10.9768417"><ele>527.0</ele><time>2026-05-03T14:42:01.565Z</time></trkpt><trkpt lat="43.4162877" lon="10.9766718"><ele>527.0</ele><time>2026-05-03T14:42:02.563Z</time></trkpt><trkpt lat="43.4163545" lon="10.9765226"><ele>526.25</ele><time>2026-05-03T14:42:03.564Z</time></trkpt><trkpt lat="43.4164514" lon="10.9764091"><ele>525.5</ele><time>2026-05-03T14:42:04.565Z</time></trkpt><trkpt lat="43.4165708" lon="10.9763263"><ele>524.75</ele><time>2026-05-03T14:42:05.564Z</time></trkpt><trkpt lat="43.4166975" lon="10.9762737"><ele>524.0</ele><time>2026-05-03T14:42:06.564Z</time></trkpt><trkpt lat="43.4168329" lon="10.9762706"><ele>524.0</ele><time>2026-05-03T14:42:07.564Z</time></trkpt><trkpt lat="43.4169696" lon="10.9763067"><ele>524.0</ele><time>2026-05-03T14:42:08.564Z</time></trkpt><trkpt lat="43.4170925" lon="10.97636"><ele>524.0</ele><time>2026-05-03T14:42:09.564Z</time></trkpt><trkpt lat="43.4172023" lon="10.9763705"><ele>524.0</ele><time>2026-05-03T14:42:10.563Z</time></trkpt><trkpt lat="43.4173136" lon="10.9763278"><ele>524.75</ele><time>2026-05-03T14:42:11.564Z</time></trkpt><trkpt lat="43.417437" lon="10.9762535"><ele>525.5</ele><time>2026-05-03T14:42:12.564Z</time></trkpt><trkpt lat="43.4175704" lon="10.9761658"><ele>526.25</ele><time>2026-05-03T14:42:13.564Z</time></trkpt><trkpt lat="43.4177309" lon="10.9761216"><ele>527.0</ele><time>2026-05-03T14:42:14.563Z</time></trkpt><trkpt lat="43.4178985" lon="10.9760848"><ele>526.0</ele><time>2026-05-03T14:42:15.564Z</time></trkpt><trkpt lat="43.4180552" lon="10.9760417"><ele>525.0</ele><time>2026-05-03T14:42:16.564Z</time></trkpt><trkpt lat="43.4182115" lon="10.9760178"><ele>524.0</ele><time>2026-05-03T14:42:17.564Z</time></trkpt><trkpt lat="43.4183636" lon="10.9760186"><ele>524.0</ele><time>2026-05-03T14:42:18.565Z</time></trkpt><trkpt lat="43.4185003" lon="10.9760853"><ele>524.0</ele><time>2026-05-03T14:42:19.565Z</time></trkpt><trkpt lat="43.4186144" lon="10.9761794"><ele>524.0</ele><time>2026-05-03T14:42:20.565Z</time></trkpt><trkpt lat="43.4187189" lon="10.9762457"><ele>524.0</ele><time>2026-05-03T14:42:21.565Z</time></trkpt><trkpt lat="43.4188319" lon="10.9762781"><ele>522.3333333333333</ele><time>2026-05-03T14:42:22.565Z</time></trkpt><trkpt lat="43.4189683" lon="10.9762497"><ele>520.6666666666666</ele><time>2026-05-03T14:42:23.565Z</time></trkpt><trkpt lat="43.4191084" lon="10.9761949"><ele>519.0</ele><time>2026-05-03T14:42:24.565Z</time></trkpt><trkpt lat="43.4192703" lon="10.9761228"><ele>519.0</ele><time>2026-05-03T14:42:25.563Z</time></trkpt><trkpt lat="43.419443" lon="10.9760441"><ele>519.0</ele><time>2026-05-03T14:42:26.564Z</time></trkpt><trkpt lat="43.4196116" lon="10.9759627"><ele>519.0</ele><time>2026-05-03T14:42:27.564Z</time></trkpt><trkpt lat="43.4197759" lon="10.9758869"><ele>518.3333333333334</ele><time>2026-05-03T14:42:28.564Z</time></trkpt><trkpt lat="43.4199302" lon="10.9758169"><ele>517.6666666666667</ele><time>2026-05-03T14:42:29.564Z</time></trkpt><trkpt lat="43.4200896" lon="10.9757695"><ele>517.0</ele><time>2026-05-03T14:42:30.564Z</time></trkpt><trkpt lat="43.420247" lon="10.9757524"><ele>517.0</ele><time>2026-05-03T14:42:31.564Z</time></trkpt><trkpt lat="43.4203974" lon="10.9757377"><ele>517.0</ele><time>2026-05-03T14:42:32.565Z</time></trkpt><trkpt lat="43.4205271" lon="10.9757249"><ele>517.0</ele><time>2026-05-03T14:42:33.564Z</time></trkpt><trkpt lat="43.4206667" lon="10.9757435"><ele>517.0</ele><time>2026-05-03T14:42:34.564Z</time></trkpt><trkpt lat="43.4208094" lon="10.975788"><ele>518.0</ele><time>2026-05-03T14:42:35.563Z</time></trkpt><trkpt lat="43.4210803" lon="10.9758974"><ele>519.0</ele><time>2026-05-03T14:42:37.563Z</time></trkpt><trkpt lat="43.4212343" lon="10.9759177"><ele>520.0</ele><time>2026-05-03T14:42:38.564Z</time></trkpt><trkpt lat="43.4214001" lon="10.9758954"><ele>515.6666666666667</ele><time>2026-05-03T14:42:39.564Z</time></trkpt><trkpt lat="43.421564" lon="10.9758521"><ele>511.33333333333337</ele><time>2026-05-03T14:42:40.564Z</time></trkpt><trkpt lat="43.421732" lon="10.9758061"><ele>507.0</ele><time>2026-05-03T14:42:41.564Z</time></trkpt><trkpt lat="43.4218673" lon="10.9757858"><ele>507.0</ele><time>2026-05-03T14:42:42.564Z</time></trkpt><trkpt lat="43.4219824" lon="10.9758079"><ele>507.0</ele><time>2026-05-03T14:42:43.565Z</time></trkpt><trkpt lat="43.4220982" lon="10.9758605"><ele>507.0</ele><time>2026-05-03T14:42:44.564Z</time></trkpt><trkpt lat="43.4221918" lon="10.9759889"><ele>507.0</ele><time>2026-05-03T14:42:45.563Z</time></trkpt><trkpt lat="43.4222956" lon="10.9761169"><ele>503.33333333333337</ele><time>2026-05-03T14:42:46.564Z</time></trkpt><trkpt lat="43.4224236" lon="10.9762191"><ele>499.6666666666667</ele><time>2026-05-03T14:42:47.564Z</time></trkpt><trkpt lat="43.4225744" lon="10.9762683"><ele>496.0</ele><time>2026-05-03T14:42:48.564Z</time></trkpt><trkpt lat="43.4227295" lon="10.9762783"><ele>496.0</ele><time>2026-05-03T14:42:49.564Z</time></trkpt><trkpt lat="43.422884" lon="10.9762314"><ele>496.0</ele><time>2026-05-03T14:42:50.563Z</time></trkpt><trkpt lat="43.4230385" lon="10.9761486"><ele>496.0</ele><time>2026-05-03T14:42:51.565Z</time></trkpt><trkpt lat="43.4232014" lon="10.9760465"><ele>495.33333333333337</ele><time>2026-05-03T14:42:52.564Z</time></trkpt><trkpt lat="43.4233568" lon="10.9759242"><ele>494.66666666666663</ele><time>2026-05-03T14:42:53.563Z</time></trkpt><trkpt lat="43.4235174" lon="10.9757999"><ele>494.0</ele><time>2026-05-03T14:42:54.565Z</time></trkpt><trkpt lat="43.423683" lon="10.9756839"><ele>493.66666666666663</ele><time>2026-05-03T14:42:55.566Z</time></trkpt><trkpt lat="43.423867" lon="10.9755697"><ele>493.33333333333337</ele><time>2026-05-03T14:42:56.564Z</time></trkpt><trkpt lat="43.4240572" lon="10.9754695"><ele>493.0</ele><time>2026-05-03T14:42:57.564Z</time></trkpt><trkpt lat="43.4242431" lon="10.9753798"><ele>493.0</ele><time>2026-05-03T14:42:58.563Z</time></trkpt><trkpt lat="43.4244109" lon="10.9752928"><ele>493.0</ele><time>2026-05-03T14:42:59.564Z</time></trkpt><trkpt lat="43.4245474" lon="10.9751999"><ele>493.0</ele><time>2026-05-03T14:43:00.563Z</time></trkpt><trkpt lat="43.4246601" lon="10.9750756"><ele>493.33333333333337</ele><time>2026-05-03T14:43:01.565Z</time></trkpt><trkpt lat="43.4247586" lon="10.9749248"><ele>493.66666666666663</ele><time>2026-05-03T14:43:02.564Z</time></trkpt><trkpt lat="43.4248473" lon="10.9747166"><ele>494.0</ele><time>2026-05-03T14:43:03.564Z</time></trkpt><trkpt lat="43.4249399" lon="10.9744998"><ele>494.0</ele><time>2026-05-03T14:43:04.564Z</time></trkpt><trkpt lat="43.425001" lon="10.9742826"><ele>494.0</ele><time>2026-05-03T14:43:05.564Z</time></trkpt><trkpt lat="43.4250325" lon="10.9740732"><ele>494.0</ele><time>2026-05-03T14:43:06.563Z</time></trkpt><trkpt lat="43.4250507" lon="10.9738723"><ele>495.0</ele><time>2026-05-03T14:43:07.565Z</time></trkpt><trkpt lat="43.4250754" lon="10.973691"><ele>496.0</ele><time>2026-05-03T14:43:08.564Z</time></trkpt><trkpt lat="43.4251072" lon="10.973537"><ele>497.0</ele><time>2026-05-03T14:43:09.565Z</time></trkpt><trkpt lat="43.425155" lon="10.9734047"><ele>498.0</ele><time>2026-05-03T14:43:10.563Z</time></trkpt><trkpt lat="43.4252356" lon="10.9733059"><ele>498.0</ele><time>2026-05-03T14:43:11.564Z</time></trkpt><trkpt lat="43.4253473" lon="10.973263"><ele>498.0</ele><time>2026-05-03T14:43:12.564Z</time></trkpt><trkpt lat="43.4254847" lon="10.973274"><ele>498.0</ele><time>2026-05-03T14:43:13.565Z</time></trkpt><trkpt lat="43.425623" lon="10.9733236"><ele>498.0</ele><time>2026-05-03T14:43:14.563Z</time></trkpt><trkpt lat="43.4257569" lon="10.9734175"><ele>500.5</ele><time>2026-05-03T14:43:15.565Z</time></trkpt><trkpt lat="43.4258691" lon="10.9735449"><ele>503.0</ele><time>2026-05-03T14:43:16.564Z</time></trkpt><trkpt lat="43.4259754" lon="10.9736513"><ele>505.5</ele><time>2026-05-03T14:43:17.563Z</time></trkpt><trkpt lat="43.4261012" lon="10.9737221"><ele>508.0</ele><time>2026-05-03T14:43:18.564Z</time></trkpt><trkpt lat="43.4262462" lon="10.9737443"><ele>508.6666666666667</ele><time>2026-05-03T14:43:19.565Z</time></trkpt><trkpt lat="43.4264034" lon="10.9737195"><ele>509.33333333333337</ele><time>2026-05-03T14:43:20.565Z</time></trkpt><trkpt lat="43.4265672" lon="10.9736694"><ele>510.0</ele><time>2026-05-03T14:43:21.564Z</time></trkpt><trkpt lat="43.4267158" lon="10.9735906"><ele>510.0</ele><time>2026-05-03T14:43:22.565Z</time></trkpt><trkpt lat="43.4268746" lon="10.9734679"><ele>510.0</ele><time>2026-05-03T14:43:23.563Z</time></trkpt><trkpt lat="43.4270297" lon="10.9733103"><ele>510.0</ele><time>2026-05-03T14:43:24.565Z</time></trkpt><trkpt lat="43.4271795" lon="10.9731371"><ele>510.66666666666663</ele><time>2026-05-03T14:43:25.563Z</time></trkpt><trkpt lat="43.4273154" lon="10.9729615"><ele>511.3333333333333</ele><time>2026-05-03T14:43:26.564Z</time></trkpt><trkpt lat="43.4274397" lon="10.9727913"><ele>512.0</ele><time>2026-05-03T14:43:27.563Z</time></trkpt><trkpt lat="43.4275583" lon="10.9726195"><ele>512.3333333333333</ele><time>2026-05-03T14:43:28.564Z</time></trkpt><trkpt lat="43.4276811" lon="10.972438"><ele>512.6666666666666</ele><time>2026-05-03T14:43:29.564Z</time></trkpt><trkpt lat="43.4278003" lon="10.9722427"><ele>513.0</ele><time>2026-05-03T14:43:30.565Z</time></trkpt><trkpt lat="43.4279102" lon="10.9720458"><ele>516.3333333333334</ele><time>2026-05-03T14:43:31.564Z</time></trkpt><trkpt lat="43.4280067" lon="10.9718616"><ele>519.6666666666667</ele><time>2026-05-03T14:43:32.564Z</time></trkpt><trkpt lat="43.4280795" lon="10.9716769"><ele>523.0</ele><time>2026-05-03T14:43:33.564Z</time></trkpt><trkpt lat="43.4281251" lon="10.9714814"><ele>523.3333333333334</ele><time>2026-05-03T14:43:34.565Z</time></trkpt><trkpt lat="43.4281261" lon="10.9712534"><ele>523.6666666666666</ele><time>2026-05-03T14:43:35.564Z</time></trkpt><trkpt lat="43.4281171" lon="10.9710365"><ele>524.0</ele><time>2026-05-03T14:43:36.564Z</time></trkpt><trkpt lat="43.4281066" lon="10.9708393"><ele>524.6</ele><time>2026-05-03T14:43:37.563Z</time></trkpt><trkpt lat="43.4281151" lon="10.9706736"><ele>525.2</ele><time>2026-05-03T14:43:38.564Z</time></trkpt><trkpt lat="43.4281415" lon="10.9705388"><ele>525.8000000000001</ele><time>2026-05-03T14:43:39.564Z</time></trkpt><trkpt lat="43.4281992" lon="10.9704284"><ele>526.4</ele><time>2026-05-03T14:43:40.563Z</time></trkpt><trkpt lat="43.4283078" lon="10.9703641"><ele>527.0</ele><time>2026-05-03T14:43:41.564Z</time></trkpt><trkpt lat="43.4284368" lon="10.9703167"><ele>527.0</ele><time>2026-05-03T14:43:42.564Z</time></trkpt><trkpt lat="43.428597" lon="10.9702858"><ele>527.0</ele><time>2026-05-03T14:43:43.564Z</time></trkpt><trkpt lat="43.4287643" lon="10.9702563"><ele>527.0</ele><time>2026-05-03T14:43:44.563Z</time></trkpt><trkpt lat="43.4289163" lon="10.9702153"><ele>528.3333333333333</ele><time>2026-05-03T14:43:45.565Z</time></trkpt><trkpt lat="43.4290484" lon="10.9701372"><ele>529.6666666666666</ele><time>2026-05-03T14:43:46.564Z</time></trkpt><trkpt lat="43.4291747" lon="10.970026"><ele>531.0</ele><time>2026-05-03T14:43:47.565Z</time></trkpt><trkpt lat="43.429283" lon="10.9698651"><ele>531.0</ele><time>2026-05-03T14:43:48.564Z</time></trkpt><trkpt lat="43.4293866" lon="10.9696438"><ele>531.0</ele><time>2026-05-03T14:43:49.564Z</time></trkpt><trkpt lat="43.4294873" lon="10.9694189"><ele>531.0</ele><time>2026-05-03T14:43:50.563Z</time></trkpt><trkpt lat="43.4296062" lon="10.9691801"><ele>533.3333333333334</ele><time>2026-05-03T14:43:51.566Z</time></trkpt><trkpt lat="43.4297371" lon="10.9689516"><ele>535.6666666666667</ele><time>2026-05-03T14:43:52.564Z</time></trkpt><trkpt lat="43.4298817" lon="10.9687498"><ele>538.0</ele><time>2026-05-03T14:43:53.565Z</time></trkpt><trkpt lat="43.4300434" lon="10.9685679"><ele>538.0</ele><time>2026-05-03T14:43:54.563Z</time></trkpt><trkpt lat="43.4301889" lon="10.9684039"><ele>538.0</ele><time>2026-05-03T14:43:55.563Z</time></trkpt><trkpt lat="43.4303236" lon="10.9682668"><ele>538.0</ele><time>2026-05-03T14:43:56.564Z</time></trkpt><trkpt lat="43.4304602" lon="10.9681659"><ele>541.3333333333334</ele><time>2026-05-03T14:43:57.563Z</time></trkpt><trkpt lat="43.4306062" lon="10.9681067"><ele>544.6666666666666</ele><time>2026-05-03T14:43:58.563Z</time></trkpt><trkpt lat="43.4307653" lon="10.9681009"><ele>548.0</ele><time>2026-05-03T14:43:59.565Z</time></trkpt><trkpt lat="43.430942" lon="10.9681303"><ele>548.0</ele><time>2026-05-03T14:44:00.564Z</time></trkpt><trkpt lat="43.4311127" lon="10.9682026"><ele>548.0</ele><time>2026-05-03T14:44:01.564Z</time></trkpt><trkpt lat="43.4312851" lon="10.9683039"><ele>548.0</ele><time>2026-05-03T14:44:02.563Z</time></trkpt><trkpt lat="43.4314809" lon="10.9683945"><ele>548.6666666666666</ele><time>2026-05-03T14:44:03.564Z</time></trkpt><trkpt lat="43.4316673" lon="10.9684757"><ele>549.3333333333334</ele><time>2026-05-03T14:44:04.565Z</time></trkpt><trkpt lat="43.4318475" lon="10.9685254"><ele>550.0</ele><time>2026-05-03T14:44:05.565Z</time></trkpt><trkpt lat="43.4320142" lon="10.9685476"><ele>550.0</ele><time>2026-05-03T14:44:06.564Z</time></trkpt><trkpt lat="43.4321377" lon="10.9685069"><ele>550.0</ele><time>2026-05-03T14:44:07.564Z</time></trkpt><trkpt lat="43.4322797" lon="10.968452"><ele>550.0</ele><time>2026-05-03T14:44:08.564Z</time></trkpt><trkpt lat="43.4323358" lon="10.9682944"><ele>550.0</ele><time>2026-05-03T14:44:09.564Z</time></trkpt><trkpt lat="43.4324211" lon="10.9681507"><ele>553.3333333333334</ele><time>2026-05-03T14:44:10.564Z</time></trkpt><trkpt lat="43.4325329" lon="10.9680131"><ele>556.6666666666666</ele><time>2026-05-03T14:44:11.563Z</time></trkpt><trkpt lat="43.4326831" lon="10.9679206"><ele>560.0</ele><time>2026-05-03T14:44:12.564Z</time></trkpt><trkpt lat="43.4328463" lon="10.9678508"><ele>559.3333333333333</ele><time>2026-05-03T14:44:13.565Z</time></trkpt><trkpt lat="43.4330322" lon="10.9677794"><ele>558.6666666666666</ele><time>2026-05-03T14:44:14.565Z</time></trkpt><trkpt lat="43.4331976" lon="10.9676853"><ele>558.0</ele><time>2026-05-03T14:44:15.564Z</time></trkpt><trkpt lat="43.4333946" lon="10.9675448"><ele>559.0</ele><time>2026-05-03T14:44:16.563Z</time></trkpt><trkpt lat="43.4335922" lon="10.9674172"><ele>560.0</ele><time>2026-05-03T14:44:17.564Z</time></trkpt><trkpt lat="43.4337721" lon="10.9672958"><ele>561.0</ele><time>2026-05-03T14:44:18.564Z</time></trkpt><trkpt lat="43.4339334" lon="10.967175"><ele>561.6666666666666</ele><time>2026-05-03T14:44:19.564Z</time></trkpt><trkpt lat="43.43409" lon="10.9670289"><ele>562.3333333333333</ele><time>2026-05-03T14:44:20.564Z</time></trkpt><trkpt lat="43.4342337" lon="10.9668491"><ele>563.0</ele><time>2026-05-03T14:44:21.565Z</time></trkpt><trkpt lat="43.4343631" lon="10.9666267"><ele>563.6666666666666</ele><time>2026-05-03T14:44:22.564Z</time></trkpt><trkpt lat="43.4344921" lon="10.966416"><ele>564.3333333333334</ele><time>2026-05-03T14:44:23.564Z</time></trkpt><trkpt lat="43.4346322" lon="10.9662275"><ele>565.0</ele><time>2026-05-03T14:44:24.565Z</time></trkpt><trkpt lat="43.434778" lon="10.9660456"><ele>568.6666666666667</ele><time>2026-05-03T14:44:25.566Z</time></trkpt><trkpt lat="43.4349127" lon="10.9658489"><ele>572.3333333333334</ele><time>2026-05-03T14:44:26.564Z</time></trkpt><trkpt lat="43.4350452" lon="10.9656287"><ele>576.0</ele><time>2026-05-03T14:44:27.565Z</time></trkpt><trkpt lat="43.4351542" lon="10.9653598"><ele>576.0</ele><time>2026-05-03T14:44:28.564Z</time></trkpt><trkpt lat="43.4352761" lon="10.9651144"><ele>576.0</ele><time>2026-05-03T14:44:29.563Z</time></trkpt><trkpt lat="43.4353965" lon="10.9648855"><ele>576.0</ele><time>2026-05-03T14:44:30.565Z</time></trkpt><trkpt lat="43.4355177" lon="10.9646757"><ele>575.0</ele><time>2026-05-03T14:44:31.564Z</time></trkpt><trkpt lat="43.4356923" lon="10.9642371"><ele>574.0</ele><time>2026-05-03T14:44:33.564Z</time></trkpt><trkpt lat="43.435777" lon="10.9639933"><ele>579.0</ele><time>2026-05-03T14:44:34.563Z</time></trkpt><trkpt lat="43.4360041" lon="10.9635182"><ele>584.0</ele><time>2026-05-03T14:44:36.563Z</time></trkpt><trkpt lat="43.4361276" lon="10.963337"><ele>584.0</ele><time>2026-05-03T14:44:37.564Z</time></trkpt><trkpt lat="43.4362598" lon="10.9631784"><ele>584.0</ele><time>2026-05-03T14:44:38.564Z</time></trkpt><trkpt lat="43.4363924" lon="10.9630727"><ele>584.0</ele><time>2026-05-03T14:44:39.563Z</time></trkpt><trkpt lat="43.4365138" lon="10.9629629"><ele>584.5</ele><time>2026-05-03T14:44:40.564Z</time></trkpt><trkpt lat="43.4366236" lon="10.9628398"><ele>585.0</ele><time>2026-05-03T14:44:41.564Z</time></trkpt><trkpt lat="43.4367174" lon="10.9626916"><ele>585.5</ele><time>2026-05-03T14:44:42.564Z</time></trkpt><trkpt lat="43.4367941" lon="10.9625162"><ele>586.0</ele><time>2026-05-03T14:44:43.564Z</time></trkpt><trkpt lat="43.4368446" lon="10.9622796"><ele>586.0</ele><time>2026-05-03T14:44:44.564Z</time></trkpt><trkpt lat="43.4368885" lon="10.9620446"><ele>586.0</ele><time>2026-05-03T14:44:45.564Z</time></trkpt><trkpt lat="43.4369401" lon="10.9618257"><ele>586.0</ele><time>2026-05-03T14:44:46.564Z</time></trkpt><trkpt lat="43.4369996" lon="10.9616287"><ele>585.0</ele><time>2026-05-03T14:44:47.564Z</time></trkpt><trkpt lat="43.4370671" lon="10.9614406"><ele>584.0</ele><time>2026-05-03T14:44:48.564Z</time></trkpt><trkpt lat="43.437169" lon="10.9612776"><ele>583.0</ele><time>2026-05-03T14:44:49.564Z</time></trkpt><trkpt lat="43.4372999" lon="10.9611401"><ele>585.0</ele><time>2026-05-03T14:44:50.564Z</time></trkpt><trkpt lat="43.4374737" lon="10.96102"><ele>587.0</ele><time>2026-05-03T14:44:51.565Z</time></trkpt><trkpt lat="43.4376592" lon="10.9609107"><ele>589.0</ele><time>2026-05-03T14:44:52.564Z</time></trkpt><trkpt lat="43.4378553" lon="10.9607842"><ele>590.0</ele><time>2026-05-03T14:44:53.563Z</time></trkpt><trkpt lat="43.4380654" lon="10.960624"><ele>591.0</ele><time>2026-05-03T14:44:54.564Z</time></trkpt><trkpt lat="43.4382754" lon="10.9604545"><ele>591.0</ele><time>2026-05-03T14:44:55.564Z</time></trkpt><trkpt lat="43.4384686" lon="10.960292"><ele>591.0</ele><time>2026-05-03T14:44:56.564Z</time></trkpt><trkpt lat="43.4386509" lon="10.9601366"><ele>591.0</ele><time>2026-05-03T14:44:57.564Z</time></trkpt><trkpt lat="43.4388206" lon="10.9599914"><ele>590.6666666666666</ele><time>2026-05-03T14:44:58.564Z</time></trkpt><trkpt lat="43.4389733" lon="10.9598501"><ele>590.3333333333333</ele><time>2026-05-03T14:44:59.564Z</time></trkpt><trkpt lat="43.4391096" lon="10.9597012"><ele>590.0</ele><time>2026-05-03T14:45:00.564Z</time></trkpt><trkpt lat="43.4392322" lon="10.9595229"><ele>590.0</ele><time>2026-05-03T14:45:01.564Z</time></trkpt><trkpt lat="43.4393482" lon="10.959331"><ele>590.0</ele><time>2026-05-03T14:45:02.564Z</time></trkpt><trkpt lat="43.4394633" lon="10.9591288"><ele>590.0</ele><time>2026-05-03T14:45:03.564Z</time></trkpt><trkpt lat="43.4395899" lon="10.958927"><ele>590.6666666666666</ele><time>2026-05-03T14:45:04.563Z</time></trkpt><trkpt lat="43.4397192" lon="10.9587173"><ele>591.3333333333334</ele><time>2026-05-03T14:45:05.565Z</time></trkpt><trkpt lat="43.4398432" lon="10.9585027"><ele>592.0</ele><time>2026-05-03T14:45:06.564Z</time></trkpt><trkpt lat="43.4399666" lon="10.9582806"><ele>594.0</ele><time>2026-05-03T14:45:07.563Z</time></trkpt><trkpt lat="43.4400906" lon="10.9580571"><ele>596.0</ele><time>2026-05-03T14:45:08.563Z</time></trkpt><trkpt lat="43.440218" lon="10.9578407"><ele>598.0</ele><time>2026-05-03T14:45:09.563Z</time></trkpt><trkpt lat="43.4403483" lon="10.9576317"><ele>599.3333333333334</ele><time>2026-05-03T14:45:10.564Z</time></trkpt><trkpt lat="43.4404769" lon="10.9574217"><ele>600.6666666666666</ele><time>2026-05-03T14:45:11.564Z</time></trkpt><trkpt lat="43.4406113" lon="10.957221"><ele>602.0</ele><time>2026-05-03T14:45:12.564Z</time></trkpt><trkpt lat="43.4407427" lon="10.9570245"><ele>600.5</ele><time>2026-05-03T14:45:13.565Z</time></trkpt><trkpt lat="43.4409967" lon="10.9566296"><ele>599.0</ele><time>2026-05-03T14:45:15.563Z</time></trkpt><trkpt lat="43.4411217" lon="10.9564343"><ele>599.0</ele><time>2026-05-03T14:45:16.565Z</time></trkpt><trkpt lat="43.4412424" lon="10.9562316"><ele>599.0</ele><time>2026-05-03T14:45:17.563Z</time></trkpt><trkpt lat="43.4413498" lon="10.9560122"><ele>599.0</ele><time>2026-05-03T14:45:18.564Z</time></trkpt><trkpt lat="43.4414421" lon="10.9557875"><ele>599.6666666666666</ele><time>2026-05-03T14:45:19.564Z</time></trkpt><trkpt lat="43.4415127" lon="10.9555545"><ele>600.3333333333334</ele><time>2026-05-03T14:45:20.564Z</time></trkpt><trkpt lat="43.4415701" lon="10.95532"><ele>601.0</ele><time>2026-05-03T14:45:21.564Z</time></trkpt><trkpt lat="43.4416211" lon="10.9550785"><ele>601.6666666666667</ele><time>2026-05-03T14:45:22.564Z</time></trkpt><trkpt lat="43.4416683" lon="10.9548293"><ele>602.3333333333334</ele><time>2026-05-03T14:45:23.564Z</time></trkpt><trkpt lat="43.441708" lon="10.9545719"><ele>603.0</ele><time>2026-05-03T14:45:24.564Z</time></trkpt><trkpt lat="43.4417351" lon="10.9543151"><ele>603.3333333333334</ele><time>2026-05-03T14:45:25.563Z</time></trkpt><trkpt lat="43.4417423" lon="10.9540479"><ele>603.6666666666667</ele><time>2026-05-03T14:45:26.564Z</time></trkpt><trkpt lat="43.441739" lon="10.9537882"><ele>604.0</ele><time>2026-05-03T14:45:27.564Z</time></trkpt><trkpt lat="43.4417217" lon="10.9535427"><ele>604.0</ele><time>2026-05-03T14:45:28.564Z</time></trkpt><trkpt lat="43.4417017" lon="10.9533037"><ele>604.0</ele><time>2026-05-03T14:45:29.564Z</time></trkpt><trkpt lat="43.4416883" lon="10.9530834"><ele>604.0</ele><time>2026-05-03T14:45:30.563Z</time></trkpt><trkpt lat="43.4416879" lon="10.9529002"><ele>604.0</ele><time>2026-05-03T14:45:31.564Z</time></trkpt><trkpt lat="43.4416956" lon="10.9527434"><ele>604.0</ele><time>2026-05-03T14:45:32.564Z</time></trkpt><trkpt lat="43.441727" lon="10.9526114"><ele>604.0</ele><time>2026-05-03T14:45:33.564Z</time></trkpt><trkpt lat="43.4417808" lon="10.9524942"><ele>604.0</ele><time>2026-05-03T14:45:34.564Z</time></trkpt><trkpt lat="43.4418661" lon="10.9524014"><ele>604.0</ele><time>2026-05-03T14:45:35.564Z</time></trkpt><trkpt lat="43.4419843" lon="10.9523422"><ele>603.0</ele><time>2026-05-03T14:45:36.564Z</time></trkpt><trkpt lat="43.4421375" lon="10.9523085"><ele>602.0</ele><time>2026-05-03T14:45:37.563Z</time></trkpt><trkpt lat="43.442319" lon="10.9522798"><ele>601.0</ele><time>2026-05-03T14:45:38.563Z</time></trkpt><trkpt lat="43.442509" lon="10.9522426"><ele>601.0</ele><time>2026-05-03T14:45:39.563Z</time></trkpt><trkpt lat="43.4426977" lon="10.9521874"><ele>601.0</ele><time>2026-05-03T14:45:40.564Z</time></trkpt><trkpt lat="43.4428876" lon="10.9521245"><ele>601.0</ele><time>2026-05-03T14:45:41.565Z</time></trkpt><trkpt lat="43.4430687" lon="10.9520785"><ele>599.0</ele><time>2026-05-03T14:45:42.564Z</time></trkpt><trkpt lat="43.4432535" lon="10.9520625"><ele>597.0</ele><time>2026-05-03T14:45:43.564Z</time></trkpt><trkpt lat="43.4434386" lon="10.952071"><ele>595.0</ele><time>2026-05-03T14:45:44.564Z</time></trkpt><trkpt lat="43.4436198" lon="10.9520811"><ele>594.3333333333334</ele><time>2026-05-03T14:45:45.564Z</time></trkpt><trkpt lat="43.4437995" lon="10.9520773"><ele>593.6666666666666</ele><time>2026-05-03T14:45:46.564Z</time></trkpt><trkpt lat="43.4439811" lon="10.9520505"><ele>593.0</ele><time>2026-05-03T14:45:47.564Z</time></trkpt><trkpt lat="43.4441636" lon="10.952013"><ele>593.0</ele><time>2026-05-03T14:45:48.563Z</time></trkpt><trkpt lat="43.4443513" lon="10.9520095"><ele>593.0</ele><time>2026-05-03T14:45:49.563Z</time></trkpt><trkpt lat="43.4445551" lon="10.9520302"><ele>593.0</ele><time>2026-05-03T14:45:50.564Z</time></trkpt><trkpt lat="43.4447494" lon="10.9520654"><ele>592.6666666666666</ele><time>2026-05-03T14:45:51.564Z</time></trkpt><trkpt lat="43.4449353" lon="10.9520935"><ele>592.3333333333334</ele><time>2026-05-03T14:45:52.564Z</time></trkpt><trkpt lat="43.4451139" lon="10.952122"><ele>592.0</ele><time>2026-05-03T14:45:53.564Z</time></trkpt><trkpt lat="43.4452879" lon="10.9521671"><ele>592.0</ele><time>2026-05-03T14:45:54.563Z</time></trkpt><trkpt lat="43.4454575" lon="10.9522258"><ele>592.0</ele><time>2026-05-03T14:45:55.565Z</time></trkpt><trkpt lat="43.4456268" lon="10.9523062"><ele>592.0</ele><time>2026-05-03T14:45:56.563Z</time></trkpt><trkpt lat="43.4457952" lon="10.9524"><ele>591.6666666666667</ele><time>2026-05-03T14:45:57.564Z</time></trkpt><trkpt lat="43.4459596" lon="10.9524941"><ele>591.3333333333334</ele><time>2026-05-03T14:45:58.565Z</time></trkpt><trkpt lat="43.4461223" lon="10.9525704"><ele>591.0</ele><time>2026-05-03T14:45:59.564Z</time></trkpt><trkpt lat="43.4462926" lon="10.9526184"><ele>589.0</ele><time>2026-05-03T14:46:00.564Z</time></trkpt><trkpt lat="43.4464782" lon="10.9526341"><ele>587.0</ele><time>2026-05-03T14:46:01.564Z</time></trkpt><trkpt lat="43.4466643" lon="10.9526225"><ele>585.0</ele><time>2026-05-03T14:46:02.564Z</time></trkpt><trkpt lat="43.4468519" lon="10.9525905"><ele>585.0</ele><time>2026-05-03T14:46:03.564Z</time></trkpt><trkpt lat="43.4470266" lon="10.9525586"><ele>585.0</ele><time>2026-05-03T14:46:04.563Z</time></trkpt><trkpt lat="43.4471814" lon="10.9525234"><ele>585.0</ele><time>2026-05-03T14:46:05.564Z</time></trkpt><trkpt lat="43.4473228" lon="10.9524756"><ele>587.5</ele><time>2026-05-03T14:46:06.564Z</time></trkpt><trkpt lat="43.4474396" lon="10.952392"><ele>590.0</ele><time>2026-05-03T14:46:07.564Z</time></trkpt><trkpt lat="43.4475331" lon="10.9522535"><ele>592.5</ele><time>2026-05-03T14:46:08.563Z</time></trkpt><trkpt lat="43.44762" lon="10.9520738"><ele>595.0</ele><time>2026-05-03T14:46:09.563Z</time></trkpt><trkpt lat="43.4477033" lon="10.9518761"><ele>596.3333333333334</ele><time>2026-05-03T14:46:10.564Z</time></trkpt><trkpt lat="43.4477938" lon="10.951667"><ele>597.6666666666666</ele><time>2026-05-03T14:46:11.564Z</time></trkpt><trkpt lat="43.4478936" lon="10.9514421"><ele>599.0</ele><time>2026-05-03T14:46:12.565Z</time></trkpt><trkpt lat="43.448008" lon="10.9512194"><ele>599.0</ele><time>2026-05-03T14:46:13.563Z</time></trkpt><trkpt lat="43.4481297" lon="10.9509998"><ele>599.0</ele><time>2026-05-03T14:46:14.563Z</time></trkpt><trkpt lat="43.448243" lon="10.9507814"><ele>599.0</ele><time>2026-05-03T14:46:15.564Z</time></trkpt><trkpt lat="43.4483682" lon="10.9505865"><ele>600.6666666666666</ele><time>2026-05-03T14:46:16.564Z</time></trkpt><trkpt lat="43.448484" lon="10.9504087"><ele>602.3333333333334</ele><time>2026-05-03T14:46:17.565Z</time></trkpt><trkpt lat="43.4485993" lon="10.9502454"><ele>604.0</ele><time>2026-05-03T14:46:18.565Z</time></trkpt><trkpt lat="43.4487135" lon="10.950115"><ele>605.5</ele><time>2026-05-03T14:46:19.563Z</time></trkpt><trkpt lat="43.4488349" lon="10.9500398"><ele>607.0</ele><time>2026-05-03T14:46:20.564Z</time></trkpt><trkpt lat="43.4489546" lon="10.9500129"><ele>608.5</ele><time>2026-05-03T14:46:21.565Z</time></trkpt><trkpt lat="43.4490964" lon="10.950052"><ele>610.0</ele><time>2026-05-03T14:46:22.564Z</time></trkpt><trkpt lat="43.4492281" lon="10.9501045"><ele>610.5</ele><time>2026-05-03T14:46:23.564Z</time></trkpt><trkpt lat="43.4493542" lon="10.9501406"><ele>611.0</ele><time>2026-05-03T14:46:24.564Z</time></trkpt><trkpt lat="43.4494897" lon="10.9501205"><ele>611.5</ele><time>2026-05-03T14:46:25.564Z</time></trkpt><trkpt lat="43.4496233" lon="10.9500633"><ele>612.0</ele><time>2026-05-03T14:46:26.565Z</time></trkpt><trkpt lat="43.4497644" lon="10.9499785"><ele>612.0</ele><time>2026-05-03T14:46:27.564Z</time></trkpt><trkpt lat="43.4498946" lon="10.9498945"><ele>612.0</ele><time>2026-05-03T14:46:28.563Z</time></trkpt><trkpt lat="43.4500104" lon="10.9498433"><ele>612.0</ele><time>2026-05-03T14:46:29.565Z</time></trkpt><trkpt lat="43.4501187" lon="10.9498272"><ele>612.0</ele><time>2026-05-03T14:46:30.563Z</time></trkpt><trkpt lat="43.4502191" lon="10.9498615"><ele>612.0</ele><time>2026-05-03T14:46:31.565Z</time></trkpt><trkpt lat="43.4503094" lon="10.9499356"><ele>612.0</ele><time>2026-05-03T14:46:32.564Z</time></trkpt><trkpt lat="43.4503899" lon="10.9500292"><ele>612.0</ele><time>2026-05-03T14:46:33.564Z</time></trkpt><trkpt lat="43.4504803" lon="10.9501122"><ele>612.0</ele><time>2026-05-03T14:46:34.565Z</time></trkpt><trkpt lat="43.4505843" lon="10.9501477"><ele>612.0</ele><time>2026-05-03T14:46:35.563Z</time></trkpt><trkpt lat="43.4507008" lon="10.9501402"><ele>611.0</ele><time>2026-05-03T14:46:36.563Z</time></trkpt><trkpt lat="43.4508395" lon="10.950082"><ele>610.0</ele><time>2026-05-03T14:46:37.564Z</time></trkpt><trkpt lat="43.4509843" lon="10.9500074"><ele>609.0</ele><time>2026-05-03T14:46:38.564Z</time></trkpt><trkpt lat="43.4513093" lon="10.9497868"><ele>609.0</ele><time>2026-05-03T14:46:40.564Z</time></trkpt><trkpt lat="43.4514564" lon="10.9496626"><ele>609.0</ele><time>2026-05-03T14:46:41.564Z</time></trkpt><trkpt lat="43.4515901" lon="10.9495287"><ele>609.0</ele><time>2026-05-03T14:46:42.564Z</time></trkpt><trkpt lat="43.4517323" lon="10.9494062"><ele>609.0</ele><time>2026-05-03T14:46:43.564Z</time></trkpt><trkpt lat="43.4518641" lon="10.9493233"><ele>609.0</ele><time>2026-05-03T14:46:44.564Z</time></trkpt><trkpt lat="43.4520188" lon="10.9492686"><ele>609.0</ele><time>2026-05-03T14:46:45.564Z</time></trkpt><trkpt lat="43.4521597" lon="10.94921"><ele>604.5</ele><time>2026-05-03T14:46:46.565Z</time></trkpt><trkpt lat="43.4522886" lon="10.9491793"><ele>600.0</ele><time>2026-05-03T14:46:47.564Z</time></trkpt><trkpt lat="43.4524078" lon="10.9491425"><ele>595.5</ele><time>2026-05-03T14:46:48.564Z</time></trkpt><trkpt lat="43.4525256" lon="10.9490901"><ele>591.0</ele><time>2026-05-03T14:46:49.564Z</time></trkpt><trkpt lat="43.4526086" lon="10.948925"><ele>591.0</ele><time>2026-05-03T14:46:50.564Z</time></trkpt><trkpt lat="43.4526966" lon="10.9487923"><ele>591.0</ele><time>2026-05-03T14:46:51.564Z</time></trkpt><trkpt lat="43.4527951" lon="10.948681"><ele>591.0</ele><time>2026-05-03T14:46:52.564Z</time></trkpt><trkpt lat="43.4528952" lon="10.9485738"><ele>591.0</ele><time>2026-05-03T14:46:53.564Z</time></trkpt><trkpt lat="43.4529794" lon="10.9484722"><ele>589.8</ele><time>2026-05-03T14:46:54.564Z</time></trkpt><trkpt lat="43.4530578" lon="10.948463"><ele>588.6</ele><time>2026-05-03T14:46:55.564Z</time></trkpt><trkpt lat="43.4531272" lon="10.9485167"><ele>587.4</ele><time>2026-05-03T14:46:56.563Z</time></trkpt><trkpt lat="43.4531758" lon="10.9486042"><ele>586.2</ele><time>2026-05-03T14:46:57.564Z</time></trkpt><trkpt lat="43.453233" lon="10.9487224"><ele>585.0</ele><time>2026-05-03T14:46:58.564Z</time></trkpt><trkpt lat="43.4533314" lon="10.9488257"><ele>585.0</ele><time>2026-05-03T14:46:59.563Z</time></trkpt><trkpt lat="43.4534549" lon="10.9489112"><ele>585.0</ele><time>2026-05-03T14:47:00.564Z</time></trkpt><trkpt lat="43.4535972" lon="10.9489704"><ele>585.0</ele><time>2026-05-03T14:47:01.563Z</time></trkpt><trkpt lat="43.4537761" lon="10.9490391"><ele>581.6666666666666</ele><time>2026-05-03T14:47:02.563Z</time></trkpt><trkpt lat="43.4539283" lon="10.949143"><ele>578.3333333333333</ele><time>2026-05-03T14:47:03.564Z</time></trkpt><trkpt lat="43.4540728" lon="10.949246"><ele>575.0</ele><time>2026-05-03T14:47:04.564Z</time></trkpt><trkpt lat="43.4542052" lon="10.949333"><ele>575.0</ele><time>2026-05-03T14:47:05.563Z</time></trkpt><trkpt lat="43.4543362" lon="10.9493833"><ele>575.0</ele><time>2026-05-03T14:47:06.564Z</time></trkpt><trkpt lat="43.4544443" lon="10.9494357"><ele>575.0</ele><time>2026-05-03T14:47:07.565Z</time></trkpt><trkpt lat="43.4545315" lon="10.949509"><ele>575.0</ele><time>2026-05-03T14:47:08.564Z</time></trkpt><trkpt lat="43.4545881" lon="10.9496265"><ele>575.25</ele><time>2026-05-03T14:47:09.564Z</time></trkpt><trkpt lat="43.4546274" lon="10.9497987"><ele>575.5</ele><time>2026-05-03T14:47:10.564Z</time></trkpt><trkpt lat="43.454631" lon="10.9499969"><ele>575.75</ele><time>2026-05-03T14:47:11.563Z</time></trkpt><trkpt lat="43.4546184" lon="10.9501973"><ele>576.0</ele><time>2026-05-03T14:47:12.564Z</time></trkpt><trkpt lat="43.4546139" lon="10.9503654"><ele>576.0</ele><time>2026-05-03T14:47:13.564Z</time></trkpt><trkpt lat="43.4546105" lon="10.9505028"><ele>576.0</ele><time>2026-05-03T14:47:14.564Z</time></trkpt><trkpt lat="43.4546356" lon="10.9506226"><ele>576.0</ele><time>2026-05-03T14:47:15.564Z</time></trkpt><trkpt lat="43.4546967" lon="10.950694"><ele>576.0</ele><time>2026-05-03T14:47:16.563Z</time></trkpt><trkpt lat="43.4547692" lon="10.9507405"><ele>576.0</ele><time>2026-05-03T14:47:17.564Z</time></trkpt><trkpt lat="43.4548648" lon="10.9507204"><ele>576.0</ele><time>2026-05-03T14:47:18.563Z</time></trkpt><trkpt lat="43.4549264" lon="10.9506292"><ele>571.6</ele><time>2026-05-03T14:47:19.564Z</time></trkpt><trkpt lat="43.4549872" lon="10.9505224"><ele>567.2</ele><time>2026-05-03T14:47:20.564Z</time></trkpt><trkpt lat="43.4550611" lon="10.9504512"><ele>562.8</ele><time>2026-05-03T14:47:21.564Z</time></trkpt><trkpt lat="43.4551581" lon="10.9504692"><ele>558.4</ele><time>2026-05-03T14:47:22.563Z</time></trkpt><trkpt lat="43.4552465" lon="10.9505268"><ele>554.0</ele><time>2026-05-03T14:47:23.564Z</time></trkpt><trkpt lat="43.4553313" lon="10.9505939"><ele>554.0</ele><time>2026-05-03T14:47:24.564Z</time></trkpt><trkpt lat="43.4554141" lon="10.9506407"><ele>554.0</ele><time>2026-05-03T14:47:25.565Z</time></trkpt><trkpt lat="43.4555461" lon="10.9506427"><ele>554.0</ele><time>2026-05-03T14:47:26.565Z</time></trkpt><trkpt lat="43.4556958" lon="10.9505958"><ele>554.0</ele><time>2026-05-03T14:47:27.564Z</time></trkpt><trkpt lat="43.4558291" lon="10.9504658"><ele>550.75</ele><time>2026-05-03T14:47:28.564Z</time></trkpt><trkpt lat="43.4559539" lon="10.9503767"><ele>547.5</ele><time>2026-05-03T14:47:29.564Z</time></trkpt><trkpt lat="43.4560905" lon="10.9503277"><ele>544.25</ele><time>2026-05-03T14:47:30.564Z</time></trkpt><trkpt lat="43.4562317" lon="10.9502857"><ele>541.0</ele><time>2026-05-03T14:47:31.564Z</time></trkpt><trkpt lat="43.4563952" lon="10.9502621"><ele>539.3333333333334</ele><time>2026-05-03T14:47:32.564Z</time></trkpt><trkpt lat="43.4565703" lon="10.9502629"><ele>537.6666666666666</ele><time>2026-05-03T14:47:33.563Z</time></trkpt><trkpt lat="43.4567507" lon="10.9502787"><ele>536.0</ele><time>2026-05-03T14:47:34.563Z</time></trkpt><trkpt lat="43.4569651" lon="10.9502771"><ele>535.6666666666666</ele><time>2026-05-03T14:47:35.563Z</time></trkpt><trkpt lat="43.4571828" lon="10.9502647"><ele>535.3333333333334</ele><time>2026-05-03T14:47:36.564Z</time></trkpt><trkpt lat="43.4573984" lon="10.9502411"><ele>535.0</ele><time>2026-05-03T14:47:37.563Z</time></trkpt><trkpt lat="43.4578251" lon="10.9502122"><ele>534.0</ele><time>2026-05-03T14:47:39.565Z</time></trkpt><trkpt lat="43.458033" lon="10.9502022"><ele>533.0</ele><time>2026-05-03T14:47:40.563Z</time></trkpt><trkpt lat="43.4582269" lon="10.9501959"><ele>532.0</ele><time>2026-05-03T14:47:41.564Z</time></trkpt><trkpt lat="43.4584315" lon="10.9502122"><ele>532.0</ele><time>2026-05-03T14:47:42.564Z</time></trkpt><trkpt lat="43.4586397" lon="10.9502422"><ele>532.0</ele><time>2026-05-03T14:47:43.565Z</time></trkpt><trkpt lat="43.4588407" lon="10.9502805"><ele>532.0</ele><time>2026-05-03T14:47:44.564Z</time></trkpt><trkpt lat="43.4590493" lon="10.9503128"><ele>533.6666666666667</ele><time>2026-05-03T14:47:45.563Z</time></trkpt><trkpt lat="43.459258" lon="10.9503345"><ele>535.3333333333334</ele><time>2026-05-03T14:47:46.564Z</time></trkpt><trkpt lat="43.4594687" lon="10.9503422"><ele>537.0</ele><time>2026-05-03T14:47:47.564Z</time></trkpt><trkpt lat="43.4596625" lon="10.9503448"><ele>537.0</ele><time>2026-05-03T14:47:48.564Z</time></trkpt><trkpt lat="43.4598581" lon="10.9503382"><ele>537.0</ele><time>2026-05-03T14:47:49.565Z</time></trkpt><trkpt lat="43.4600501" lon="10.9503468"><ele>537.0</ele><time>2026-05-03T14:47:50.563Z</time></trkpt><trkpt lat="43.460221" lon="10.9503789"><ele>537.0</ele><time>2026-05-03T14:47:51.564Z</time></trkpt><trkpt lat="43.4603989" lon="10.9504329"><ele>537.0</ele><time>2026-05-03T14:47:52.564Z</time></trkpt><trkpt lat="43.4605674" lon="10.9505006"><ele>537.0</ele><time>2026-05-03T14:47:53.564Z</time></trkpt><trkpt lat="43.4607369" lon="10.9505573"><ele>535.0</ele><time>2026-05-03T14:47:54.564Z</time></trkpt><trkpt lat="43.4609168" lon="10.9505856"><ele>533.0</ele><time>2026-05-03T14:47:55.564Z</time></trkpt><trkpt lat="43.4610809" lon="10.9505589"><ele>531.0</ele><time>2026-05-03T14:47:56.564Z</time></trkpt><trkpt lat="43.4612249" lon="10.9505148"><ele>530.0</ele><time>2026-05-03T14:47:57.564Z</time></trkpt><trkpt lat="43.4613596" lon="10.9504751"><ele>529.0</ele><time>2026-05-03T14:47:58.565Z</time></trkpt><trkpt lat="43.4614963" lon="10.9504787"><ele>528.0</ele><time>2026-05-03T14:47:59.564Z</time></trkpt><trkpt lat="43.4616276" lon="10.950525"><ele>527.0</ele><time>2026-05-03T14:48:00.563Z</time></trkpt><trkpt lat="43.4617644" lon="10.9506217"><ele>527.0</ele><time>2026-05-03T14:48:01.564Z</time></trkpt><trkpt lat="43.4618774" lon="10.9507656"><ele>527.0</ele><time>2026-05-03T14:48:02.563Z</time></trkpt><trkpt lat="43.4620017" lon="10.9508962"><ele>527.0</ele><time>2026-05-03T14:48:03.563Z</time></trkpt><trkpt lat="43.4623222" lon="10.9511024"><ele>523.6666666666666</ele><time>2026-05-03T14:48:05.564Z</time></trkpt><trkpt lat="43.4624934" lon="10.9511816"><ele>520.3333333333334</ele><time>2026-05-03T14:48:06.565Z</time></trkpt><trkpt lat="43.4626414" lon="10.9512388"><ele>517.0</ele><time>2026-05-03T14:48:07.564Z</time></trkpt><trkpt lat="43.4627867" lon="10.9513021"><ele>517.0</ele><time>2026-05-03T14:48:08.564Z</time></trkpt><trkpt lat="43.4629077" lon="10.9513888"><ele>517.0</ele><time>2026-05-03T14:48:09.565Z</time></trkpt><trkpt lat="43.4630237" lon="10.951509"><ele>517.0</ele><time>2026-05-03T14:48:10.564Z</time></trkpt><trkpt lat="43.4631" lon="10.9516659"><ele>517.0</ele><time>2026-05-03T14:48:11.565Z</time></trkpt><trkpt lat="43.4631742" lon="10.9518117"><ele>514.5</ele><time>2026-05-03T14:48:12.564Z</time></trkpt><trkpt lat="43.46327" lon="10.9519535"><ele>512.0</ele><time>2026-05-03T14:48:13.562Z</time></trkpt><trkpt lat="43.4633895" lon="10.9520717"><ele>509.5</ele><time>2026-05-03T14:48:14.565Z</time></trkpt><trkpt lat="43.4635403" lon="10.9521213"><ele>507.0</ele><time>2026-05-03T14:48:15.563Z</time></trkpt><trkpt lat="43.4636902" lon="10.9521529"><ele>504.33333333333337</ele><time>2026-05-03T14:48:16.565Z</time></trkpt><trkpt lat="43.46387" lon="10.9520988"><ele>501.6666666666667</ele><time>2026-05-03T14:48:17.563Z</time></trkpt><trkpt lat="43.4640633" lon="10.9520284"><ele>499.0</ele><time>2026-05-03T14:48:18.563Z</time></trkpt><trkpt lat="43.4642748" lon="10.9519427"><ele>499.0</ele><time>2026-05-03T14:48:19.564Z</time></trkpt><trkpt lat="43.4645163" lon="10.9518672"><ele>499.0</ele><time>2026-05-03T14:48:20.563Z</time></trkpt><trkpt lat="43.4647547" lon="10.9517934"><ele>501.0</ele><time>2026-05-03T14:48:21.563Z</time></trkpt><trkpt lat="43.464981" lon="10.9517126"><ele>503.0</ele><time>2026-05-03T14:48:22.564Z</time></trkpt><trkpt lat="43.4652221" lon="10.9516424"><ele>503.0</ele><time>2026-05-03T14:48:23.564Z</time></trkpt><trkpt lat="43.4654337" lon="10.9515695"><ele>503.0</ele><time>2026-05-03T14:48:24.564Z</time></trkpt><trkpt lat="43.4656539" lon="10.9515011"><ele>503.0</ele><time>2026-05-03T14:48:25.563Z</time></trkpt><trkpt lat="43.4658537" lon="10.9514449"><ele>501.0</ele><time>2026-05-03T14:48:26.563Z</time></trkpt><trkpt lat="43.4660416" lon="10.9513773"><ele>499.0</ele><time>2026-05-03T14:48:27.564Z</time></trkpt><trkpt lat="43.4662086" lon="10.9512843"><ele>497.0</ele><time>2026-05-03T14:48:28.564Z</time></trkpt><trkpt lat="43.4663715" lon="10.9511626"><ele>497.66666666666663</ele><time>2026-05-03T14:48:29.564Z</time></trkpt><trkpt lat="43.4665335" lon="10.9510117"><ele>498.33333333333337</ele><time>2026-05-03T14:48:30.564Z</time></trkpt><trkpt lat="43.46671" lon="10.9508442"><ele>499.0</ele><time>2026-05-03T14:48:31.564Z</time></trkpt><trkpt lat="43.4668804" lon="10.9506682"><ele>499.0</ele><time>2026-05-03T14:48:32.563Z</time></trkpt><trkpt lat="43.4670633" lon="10.9504846"><ele>499.0</ele><time>2026-05-03T14:48:33.564Z</time></trkpt><trkpt lat="43.467264" lon="10.9503099"><ele>496.0</ele><time>2026-05-03T14:48:34.564Z</time></trkpt><trkpt lat="43.4674571" lon="10.950153"><ele>493.0</ele><time>2026-05-03T14:48:35.564Z</time></trkpt><trkpt lat="43.4676386" lon="10.9500355"><ele>490.0</ele><time>2026-05-03T14:48:36.563Z</time></trkpt><trkpt lat="43.4678111" lon="10.9499367"><ele>488.33333333333337</ele><time>2026-05-03T14:48:37.564Z</time></trkpt><trkpt lat="43.4679627" lon="10.9498635"><ele>486.66666666666663</ele><time>2026-05-03T14:48:38.564Z</time></trkpt><trkpt lat="43.468113" lon="10.9498129"><ele>485.0</ele><time>2026-05-03T14:48:39.564Z</time></trkpt><trkpt lat="43.4682766" lon="10.9498016"><ele>485.0</ele><time>2026-05-03T14:48:40.564Z</time></trkpt><trkpt lat="43.4684413" lon="10.9498273"><ele>485.0</ele><time>2026-05-03T14:48:41.565Z</time></trkpt><trkpt lat="43.4685975" lon="10.9498795"><ele>485.0</ele><time>2026-05-03T14:48:42.564Z</time></trkpt><trkpt lat="43.4687203" lon="10.9499881"><ele>483.0</ele><time>2026-05-03T14:48:43.563Z</time></trkpt><trkpt lat="43.4688318" lon="10.9501453"><ele>481.0</ele><time>2026-05-03T14:48:44.563Z</time></trkpt><trkpt lat="43.4689162" lon="10.9503404"><ele>479.0</ele><time>2026-05-03T14:48:45.564Z</time></trkpt><trkpt lat="43.4690137" lon="10.9505343"><ele>479.0</ele><time>2026-05-03T14:48:46.563Z</time></trkpt><trkpt lat="43.4691215" lon="10.950695"><ele>479.0</ele><time>2026-05-03T14:48:47.564Z</time></trkpt><trkpt lat="43.4692312" lon="10.9508265"><ele>479.0</ele><time>2026-05-03T14:48:48.563Z</time></trkpt><trkpt lat="43.4693763" lon="10.9509356"><ele>474.66666666666663</ele><time>2026-05-03T14:48:49.564Z</time></trkpt><trkpt lat="43.4695781" lon="10.9509956"><ele>470.33333333333337</ele><time>2026-05-03T14:48:50.564Z</time></trkpt><trkpt lat="43.4697889" lon="10.9510284"><ele>466.0</ele><time>2026-05-03T14:48:51.564Z</time></trkpt><trkpt lat="43.4700052" lon="10.9510511"><ele>466.0</ele><time>2026-05-03T14:48:52.564Z</time></trkpt><trkpt lat="43.4702245" lon="10.9510743"><ele>466.0</ele><time>2026-05-03T14:48:53.563Z</time></trkpt><trkpt lat="43.4704302" lon="10.9511397"><ele>466.0</ele><time>2026-05-03T14:48:54.563Z</time></trkpt><trkpt lat="43.470634" lon="10.9512014"><ele>464.0</ele><time>2026-05-03T14:48:55.564Z</time></trkpt><trkpt lat="43.4708357" lon="10.9512678"><ele>462.0</ele><time>2026-05-03T14:48:56.564Z</time></trkpt><trkpt lat="43.4710099" lon="10.9513209"><ele>460.0</ele><time>2026-05-03T14:48:57.564Z</time></trkpt><trkpt lat="43.4712016" lon="10.9513587"><ele>460.0</ele><time>2026-05-03T14:48:58.564Z</time></trkpt><trkpt lat="43.4714" lon="10.9513348"><ele>460.0</ele><time>2026-05-03T14:48:59.564Z</time></trkpt><trkpt lat="43.4715963" lon="10.9513022"><ele>460.0</ele><time>2026-05-03T14:49:00.564Z</time></trkpt><trkpt lat="43.471772" lon="10.9512469"><ele>460.0</ele><time>2026-05-03T14:49:01.563Z</time></trkpt><trkpt lat="43.4719572" lon="10.9512084"><ele>460.0</ele><time>2026-05-03T14:49:02.564Z</time></trkpt><trkpt lat="43.4721363" lon="10.9512007"><ele>460.0</ele><time>2026-05-03T14:49:03.564Z</time></trkpt><trkpt lat="43.4722978" lon="10.951238"><ele>460.6666666666667</ele><time>2026-05-03T14:49:04.564Z</time></trkpt><trkpt lat="43.4724529" lon="10.9513278"><ele>461.33333333333337</ele><time>2026-05-03T14:49:05.564Z</time></trkpt><trkpt lat="43.4726217" lon="10.9514214"><ele>462.0</ele><time>2026-05-03T14:49:06.564Z</time></trkpt><trkpt lat="43.4727915" lon="10.9514856"><ele>464.0</ele><time>2026-05-03T14:49:07.564Z</time></trkpt><trkpt lat="43.47296" lon="10.9515385"><ele>466.0</ele><time>2026-05-03T14:49:08.564Z</time></trkpt><trkpt lat="43.4731347" lon="10.9515718"><ele>468.0</ele><time>2026-05-03T14:49:09.563Z</time></trkpt><trkpt lat="43.4733014" lon="10.951617"><ele>462.0</ele><time>2026-05-03T14:49:10.564Z</time></trkpt><trkpt lat="43.4734466" lon="10.9517133"><ele>456.0</ele><time>2026-05-03T14:49:11.564Z</time></trkpt><trkpt lat="43.4735752" lon="10.9518424"><ele>450.0</ele><time>2026-05-03T14:49:12.563Z</time></trkpt><trkpt lat="43.4736856" lon="10.9519881"><ele>453.0</ele><time>2026-05-03T14:49:13.563Z</time></trkpt><trkpt lat="43.4737894" lon="10.9521116"><ele>456.0</ele><time>2026-05-03T14:49:14.564Z</time></trkpt><trkpt lat="43.4738953" lon="10.9522088"><ele>459.0</ele><time>2026-05-03T14:49:15.565Z</time></trkpt><trkpt lat="43.4740119" lon="10.9522701"><ele>462.0</ele><time>2026-05-03T14:49:16.563Z</time></trkpt><trkpt lat="43.4741365" lon="10.9522997"><ele>462.0</ele><time>2026-05-03T14:49:17.564Z</time></trkpt><trkpt lat="43.4743078" lon="10.9522964"><ele>462.0</ele><time>2026-05-03T14:49:18.564Z</time></trkpt><trkpt lat="43.4744826" lon="10.9523099"><ele>462.0</ele><time>2026-05-03T14:49:19.564Z</time></trkpt><trkpt lat="43.4746654" lon="10.9523707"><ele>462.66666666666663</ele><time>2026-05-03T14:49:20.562Z</time></trkpt><trkpt lat="43.4748579" lon="10.9524639"><ele>463.3333333333333</ele><time>2026-05-03T14:49:21.563Z</time></trkpt><trkpt lat="43.4750686" lon="10.9525772"><ele>464.0</ele><time>2026-05-03T14:49:22.564Z</time></trkpt><trkpt lat="43.4752909" lon="10.952685"><ele>460.5</ele><time>2026-05-03T14:49:23.564Z</time></trkpt><trkpt lat="43.4755236" lon="10.9527807"><ele>457.0</ele><time>2026-05-03T14:49:24.564Z</time></trkpt><trkpt lat="43.475765" lon="10.9528799"><ele>457.0</ele><time>2026-05-03T14:49:25.564Z</time></trkpt><trkpt lat="43.4759845" lon="10.9529988"><ele>457.0</ele><time>2026-05-03T14:49:26.564Z</time></trkpt><trkpt lat="43.4761665" lon="10.9531256"><ele>457.0</ele><time>2026-05-03T14:49:27.564Z</time></trkpt><trkpt lat="43.4763518" lon="10.9532693"><ele>460.0</ele><time>2026-05-03T14:49:28.564Z</time></trkpt><trkpt lat="43.4765466" lon="10.9534232"><ele>463.0</ele><time>2026-05-03T14:49:29.562Z</time></trkpt><trkpt lat="43.4767482" lon="10.9535781"><ele>463.0</ele><time>2026-05-03T14:49:30.563Z</time></trkpt><trkpt lat="43.4769551" lon="10.9537356"><ele>463.0</ele><time>2026-05-03T14:49:31.564Z</time></trkpt><trkpt lat="43.4771508" lon="10.9538932"><ele>462.33333333333337</ele><time>2026-05-03T14:49:32.564Z</time></trkpt><trkpt lat="43.4773333" lon="10.954042"><ele>461.66666666666663</ele><time>2026-05-03T14:49:33.564Z</time></trkpt><trkpt lat="43.477499" lon="10.9541817"><ele>461.0</ele><time>2026-05-03T14:49:34.563Z</time></trkpt><trkpt lat="43.4776488" lon="10.9542967"><ele>461.0</ele><time>2026-05-03T14:49:35.564Z</time></trkpt><trkpt lat="43.4777897" lon="10.9543816"><ele>461.0</ele><time>2026-05-03T14:49:36.563Z</time></trkpt><trkpt lat="43.4779355" lon="10.9544177"><ele>461.0</ele><time>2026-05-03T14:49:37.567Z</time></trkpt><trkpt lat="43.478088" lon="10.9544266"><ele>465.66666666666663</ele><time>2026-05-03T14:49:38.562Z</time></trkpt><trkpt lat="43.4782451" lon="10.9544341"><ele>470.33333333333337</ele><time>2026-05-03T14:49:39.563Z</time></trkpt><trkpt lat="43.4784032" lon="10.9544574"><ele>475.0</ele><time>2026-05-03T14:49:40.563Z</time></trkpt><trkpt lat="43.4785828" lon="10.9544634"><ele>474.6666666666667</ele><time>2026-05-03T14:49:41.564Z</time></trkpt><trkpt lat="43.4787737" lon="10.9544434"><ele>474.33333333333337</ele><time>2026-05-03T14:49:42.562Z</time></trkpt><trkpt lat="43.4789497" lon="10.9544257"><ele>474.0</ele><time>2026-05-03T14:49:43.565Z</time></trkpt><trkpt lat="43.4791301" lon="10.9543839"><ele>474.0</ele><time>2026-05-03T14:49:44.563Z</time></trkpt><trkpt lat="43.4793099" lon="10.9543346"><ele>474.0</ele><time>2026-05-03T14:49:45.563Z</time></trkpt><trkpt lat="43.4794688" lon="10.9542618"><ele>474.0</ele><time>2026-05-03T14:49:46.566Z</time></trkpt><trkpt lat="43.4797817" lon="10.9541198"><ele>472.75</ele><time>2026-05-03T14:49:48.563Z</time></trkpt><trkpt lat="43.4799268" lon="10.9540559"><ele>471.5</ele><time>2026-05-03T14:49:49.564Z</time></trkpt><trkpt lat="43.4800631" lon="10.9539958"><ele>470.25</ele><time>2026-05-03T14:49:50.563Z</time></trkpt><trkpt lat="43.4801945" lon="10.9539372"><ele>469.0</ele><time>2026-05-03T14:49:51.563Z</time></trkpt><trkpt lat="43.4803184" lon="10.9538815"><ele>469.0</ele><time>2026-05-03T14:49:52.564Z</time></trkpt><trkpt lat="43.480426" lon="10.9538315"><ele>469.0</ele><time>2026-05-03T14:49:53.563Z</time></trkpt><trkpt lat="43.4805151" lon="10.9537906"><ele>469.0</ele><time>2026-05-03T14:49:54.564Z</time></trkpt><trkpt lat="43.4806174" lon="10.9537733"><ele>469.0</ele><time>2026-05-03T14:49:56.563Z</time></trkpt><trkpt lat="43.4806967" lon="10.9537398"><ele>469.0</ele><time>2026-05-03T14:55:00.563Z</time></trkpt><trkpt lat="43.4808071" lon="10.9536537"><ele>469.0</ele><time>2026-05-03T14:55:02.563Z</time></trkpt><trkpt lat="43.4808875" lon="10.9535732"><ele>469.0</ele><time>2026-05-03T14:55:03.563Z</time></trkpt><trkpt lat="43.4809902" lon="10.9534739"><ele>469.0</ele><time>2026-05-03T14:55:04.562Z</time></trkpt><trkpt lat="43.481099" lon="10.9533782"><ele>469.0</ele><time>2026-05-03T14:55:05.564Z</time></trkpt><trkpt lat="43.4812108" lon="10.9532768"><ele>469.0</ele><time>2026-05-03T14:55:06.564Z</time></trkpt><trkpt lat="43.4813264" lon="10.9531603"><ele>469.0</ele><time>2026-05-03T14:55:07.565Z</time></trkpt><trkpt lat="43.4814354" lon="10.953029"><ele>469.0</ele><time>2026-05-03T14:55:08.563Z</time></trkpt><trkpt lat="43.4815345" lon="10.9528992"><ele>469.0</ele><time>2026-05-03T14:55:09.564Z</time></trkpt><trkpt lat="43.4816309" lon="10.9527897"><ele>469.0</ele><time>2026-05-03T14:55:10.563Z</time></trkpt><trkpt lat="43.4817234" lon="10.9526967"><ele>469.0</ele><time>2026-05-03T14:55:11.563Z</time></trkpt><trkpt lat="43.4818282" lon="10.9526418"><ele>469.0</ele><time>2026-05-03T14:55:12.563Z</time></trkpt><trkpt lat="43.4819535" lon="10.9526461"><ele>469.0</ele><time>2026-05-03T14:55:13.563Z</time></trkpt><trkpt lat="43.4820769" lon="10.9526721"><ele>470.0</ele><time>2026-05-03T14:55:14.563Z</time></trkpt><trkpt lat="43.4821988" lon="10.9527172"><ele>471.0</ele><time>2026-05-03T14:55:15.564Z</time></trkpt><trkpt lat="43.4823333" lon="10.9527669"><ele>472.0</ele><time>2026-05-03T14:55:16.564Z</time></trkpt><trkpt lat="43.4825133" lon="10.9527729"><ele>473.0</ele><time>2026-05-03T14:55:17.564Z</time></trkpt><trkpt lat="43.4826704" lon="10.9527825"><ele>473.0</ele><time>2026-05-03T14:55:18.563Z</time></trkpt><trkpt lat="43.4828592" lon="10.9528047"><ele>473.0</ele><time>2026-05-03T14:55:19.562Z</time></trkpt><trkpt lat="43.4830825" lon="10.9528095"><ele>473.0</ele><time>2026-05-03T14:55:20.563Z</time></trkpt><trkpt lat="43.4832812" lon="10.9527989"><ele>471.3333333333333</ele><time>2026-05-03T14:55:21.564Z</time></trkpt><trkpt lat="43.4834702" lon="10.9527829"><ele>469.66666666666663</ele><time>2026-05-03T14:55:22.563Z</time></trkpt><trkpt lat="43.4836539" lon="10.9527651"><ele>468.0</ele><time>2026-05-03T14:55:23.563Z</time></trkpt><trkpt lat="43.483816" lon="10.9527587"><ele>468.0</ele><time>2026-05-03T14:55:24.563Z</time></trkpt><trkpt lat="43.4839704" lon="10.9527501"><ele>468.0</ele><time>2026-05-03T14:55:25.562Z</time></trkpt><trkpt lat="43.4841087" lon="10.95274"><ele>468.0</ele><time>2026-05-03T14:55:26.563Z</time></trkpt><trkpt lat="43.4842384" lon="10.9527012"><ele>468.0</ele><time>2026-05-03T14:55:27.563Z</time></trkpt><trkpt lat="43.4843616" lon="10.9526144"><ele>466.66666666666663</ele><time>2026-05-03T14:55:28.564Z</time></trkpt><trkpt lat="43.4844685" lon="10.9524747"><ele>465.3333333333333</ele><time>2026-05-03T14:55:29.562Z</time></trkpt><trkpt lat="43.4845711" lon="10.9523142"><ele>464.0</ele><time>2026-05-03T14:55:30.563Z</time></trkpt><trkpt lat="43.4846603" lon="10.9521264"><ele>463.25</ele><time>2026-05-03T14:55:31.563Z</time></trkpt><trkpt lat="43.4847532" lon="10.9519556"><ele>462.5</ele><time>2026-05-03T14:55:32.564Z</time></trkpt><trkpt lat="43.4848296" lon="10.9517908"><ele>461.75</ele><time>2026-05-03T14:55:33.563Z</time></trkpt><trkpt lat="43.4848863" lon="10.9516216"><ele>461.0</ele><time>2026-05-03T14:55:34.563Z</time></trkpt><trkpt lat="43.4849099" lon="10.9514416"><ele>461.0</ele><time>2026-05-03T14:55:35.563Z</time></trkpt><trkpt lat="43.4849135" lon="10.9512655"><ele>461.0</ele><time>2026-05-03T14:55:36.563Z</time></trkpt><trkpt lat="43.4848906" lon="10.9510923"><ele>461.0</ele><time>2026-05-03T14:55:37.564Z</time></trkpt><trkpt lat="43.4848726" lon="10.9509087"><ele>461.0</ele><time>2026-05-03T14:55:38.564Z</time></trkpt><trkpt lat="43.484871" lon="10.9507647"><ele>461.0</ele><time>2026-05-03T14:55:39.564Z</time></trkpt><trkpt lat="43.4848762" lon="10.9506278"><ele>461.0</ele><time>2026-05-03T14:55:40.562Z</time></trkpt><trkpt lat="43.4849091" lon="10.950503"><ele>461.0</ele><time>2026-05-03T14:55:41.563Z</time></trkpt><trkpt lat="43.4849503" lon="10.9504008"><ele>461.0</ele><time>2026-05-03T14:55:42.564Z</time></trkpt><trkpt lat="43.4850781" lon="10.9503735"><ele>461.0</ele><time>2026-05-03T14:55:43.563Z</time></trkpt><trkpt lat="43.4851858" lon="10.9503119"><ele>461.0</ele><time>2026-05-03T14:55:44.563Z</time></trkpt><trkpt lat="43.4852914" lon="10.9502188"><ele>461.0</ele><time>2026-05-03T14:55:45.562Z</time></trkpt><trkpt lat="43.4853749" lon="10.9501003"><ele>461.0</ele><time>2026-05-03T14:55:46.563Z</time></trkpt><trkpt lat="43.4854559" lon="10.9499756"><ele>461.0</ele><time>2026-05-03T14:55:47.564Z</time></trkpt><trkpt lat="43.4854269" lon="10.9497143"><ele>458.0</ele><time>2026-05-03T14:55:48.563Z</time></trkpt><trkpt lat="43.4854311" lon="10.9495067"><ele>455.0</ele><time>2026-05-03T14:55:49.563Z</time></trkpt><trkpt lat="43.4854089" lon="10.9492473"><ele>452.0</ele><time>2026-05-03T14:55:50.563Z</time></trkpt><trkpt lat="43.4853998" lon="10.9489803"><ele>447.3333333333333</ele><time>2026-05-03T14:55:51.563Z</time></trkpt><trkpt lat="43.4853925" lon="10.9487319"><ele>442.66666666666663</ele><time>2026-05-03T14:55:52.563Z</time></trkpt><trkpt lat="43.4853875" lon="10.9484907"><ele>438.0</ele><time>2026-05-03T14:55:53.564Z</time></trkpt><trkpt lat="43.4854121" lon="10.9482693"><ele>440.0</ele><time>2026-05-03T14:55:54.564Z</time></trkpt><trkpt lat="43.4854575" lon="10.94804"><ele>442.0</ele><time>2026-05-03T14:55:55.564Z</time></trkpt><trkpt lat="43.4855169" lon="10.947799"><ele>444.0</ele><time>2026-05-03T14:55:56.564Z</time></trkpt><trkpt lat="43.4855849" lon="10.9475482"><ele>444.0</ele><time>2026-05-03T14:55:57.564Z</time></trkpt><trkpt lat="43.4856555" lon="10.9472892"><ele>444.0</ele><time>2026-05-03T14:55:58.563Z</time></trkpt><trkpt lat="43.4857244" lon="10.947031"><ele>444.0</ele><time>2026-05-03T14:55:59.564Z</time></trkpt><trkpt lat="43.485791" lon="10.9467818"><ele>443.66666666666663</ele><time>2026-05-03T14:56:00.564Z</time></trkpt><trkpt lat="43.4858548" lon="10.9465518"><ele>443.3333333333333</ele><time>2026-05-03T14:56:01.564Z</time></trkpt><trkpt lat="43.485918" lon="10.9463405"><ele>443.0</ele><time>2026-05-03T14:56:02.564Z</time></trkpt><trkpt lat="43.4859904" lon="10.946141"><ele>443.0</ele><time>2026-05-03T14:56:03.565Z</time></trkpt><trkpt lat="43.4860959" lon="10.9459677"><ele>443.0</ele><time>2026-05-03T14:56:04.563Z</time></trkpt><trkpt lat="43.4862149" lon="10.9457926"><ele>443.0</ele><time>2026-05-03T14:56:05.563Z</time></trkpt><trkpt lat="43.4863471" lon="10.9456182"><ele>443.0</ele><time>2026-05-03T14:56:06.563Z</time></trkpt><trkpt lat="43.4864767" lon="10.9454336"><ele>443.0</ele><time>2026-05-03T14:56:07.564Z</time></trkpt><trkpt lat="43.4865861" lon="10.9452265"><ele>443.0</ele><time>2026-05-03T14:56:08.564Z</time></trkpt><trkpt lat="43.4866832" lon="10.9449953"><ele>443.0</ele><time>2026-05-03T14:56:09.564Z</time></trkpt><trkpt lat="43.4867657" lon="10.9447297"><ele>443.0</ele><time>2026-05-03T14:56:10.563Z</time></trkpt><trkpt lat="43.4868383" lon="10.9444667"><ele>443.0</ele><time>2026-05-03T14:56:11.563Z</time></trkpt><trkpt lat="43.4869024" lon="10.9442089"><ele>443.0</ele><time>2026-05-03T14:56:12.563Z</time></trkpt><trkpt lat="43.486965" lon="10.9439581"><ele>443.0</ele><time>2026-05-03T14:56:13.563Z</time></trkpt><trkpt lat="43.4870302" lon="10.9437264"><ele>443.0</ele><time>2026-05-03T14:56:14.564Z</time></trkpt><trkpt lat="43.4870918" lon="10.9435351"><ele>448.3333333333333</ele><time>2026-05-03T14:56:15.564Z</time></trkpt><trkpt lat="43.4871862" lon="10.9433615"><ele>453.66666666666663</ele><time>2026-05-03T14:56:16.563Z</time></trkpt><trkpt lat="43.4872934" lon="10.9431985"><ele>459.0</ele><time>2026-05-03T14:56:17.563Z</time></trkpt><trkpt lat="43.4874236" lon="10.9430383"><ele>459.0</ele><time>2026-05-03T14:56:18.564Z</time></trkpt><trkpt lat="43.4875536" lon="10.9428763"><ele>459.0</ele><time>2026-05-03T14:56:19.564Z</time></trkpt><trkpt lat="43.4876782" lon="10.9427161"><ele>459.0</ele><time>2026-05-03T14:56:20.564Z</time></trkpt><trkpt lat="43.4877993" lon="10.942566"><ele>459.66666666666663</ele><time>2026-05-03T14:56:21.563Z</time></trkpt><trkpt lat="43.4879066" lon="10.9423914"><ele>460.3333333333333</ele><time>2026-05-03T14:56:22.563Z</time></trkpt><trkpt lat="43.4879981" lon="10.9421805"><ele>461.0</ele><time>2026-05-03T14:56:23.564Z</time></trkpt><trkpt lat="43.4880671" lon="10.9419472"><ele>459.3333333333333</ele><time>2026-05-03T14:56:24.564Z</time></trkpt><trkpt lat="43.4881065" lon="10.9417126"><ele>457.66666666666663</ele><time>2026-05-03T14:56:25.564Z</time></trkpt><trkpt lat="43.4881471" lon="10.9415049"><ele>456.0</ele><time>2026-05-03T14:56:26.564Z</time></trkpt><trkpt lat="43.4881845" lon="10.9413043"><ele>456.0</ele><time>2026-05-03T14:56:27.564Z</time></trkpt><trkpt lat="43.4882319" lon="10.9411235"><ele>456.0</ele><time>2026-05-03T14:56:28.564Z</time></trkpt><trkpt lat="43.4883195" lon="10.940988"><ele>456.0</ele><time>2026-05-03T14:56:29.563Z</time></trkpt><trkpt lat="43.4884296" lon="10.9408708"><ele>456.0</ele><time>2026-05-03T14:56:30.564Z</time></trkpt><trkpt lat="43.4885745" lon="10.9407812"><ele>454.0</ele><time>2026-05-03T14:56:31.564Z</time></trkpt><trkpt lat="43.4887375" lon="10.9406868"><ele>452.0</ele><time>2026-05-03T14:56:32.564Z</time></trkpt><trkpt lat="43.4888976" lon="10.9405873"><ele>450.0</ele><time>2026-05-03T14:56:33.563Z</time></trkpt><trkpt lat="43.4890483" lon="10.940491"><ele>450.0</ele><time>2026-05-03T14:56:34.564Z</time></trkpt><trkpt lat="43.489182" lon="10.9403852"><ele>450.0</ele><time>2026-05-03T14:56:35.563Z</time></trkpt><trkpt lat="43.4892928" lon="10.9402536"><ele>450.0</ele><time>2026-05-03T14:56:36.564Z</time></trkpt><trkpt lat="43.4893614" lon="10.9400794"><ele>450.0</ele><time>2026-05-03T14:56:37.564Z</time></trkpt><trkpt lat="43.4894083" lon="10.9398806"><ele>451.0</ele><time>2026-05-03T14:56:38.563Z</time></trkpt><trkpt lat="43.4894377" lon="10.9396533"><ele>452.0</ele><time>2026-05-03T14:56:39.563Z</time></trkpt><trkpt lat="43.4894659" lon="10.9393836"><ele>453.0</ele><time>2026-05-03T14:56:40.564Z</time></trkpt><trkpt lat="43.4895008" lon="10.939095"><ele>453.0</ele><time>2026-05-03T14:56:41.563Z</time></trkpt><trkpt lat="43.4895345" lon="10.9387935"><ele>453.0</ele><time>2026-05-03T14:56:42.564Z</time></trkpt><trkpt lat="43.4895682" lon="10.9384426"><ele>450.0</ele><time>2026-05-03T14:56:43.565Z</time></trkpt><trkpt lat="43.4896007" lon="10.938105"><ele>447.0</ele><time>2026-05-03T14:56:44.563Z</time></trkpt><trkpt lat="43.4896305" lon="10.937755"><ele>448.0</ele><time>2026-05-03T14:56:45.564Z</time></trkpt><trkpt lat="43.4896654" lon="10.9373864"><ele>449.0</ele><time>2026-05-03T14:56:46.563Z</time></trkpt><trkpt lat="43.4897129" lon="10.9370031"><ele>449.5</ele><time>2026-05-03T14:56:47.563Z</time></trkpt><trkpt lat="43.4897524" lon="10.9366304"><ele>450.0</ele><time>2026-05-03T14:56:48.563Z</time></trkpt><trkpt lat="43.4897886" lon="10.9362747"><ele>450.0</ele><time>2026-05-03T14:56:49.563Z</time></trkpt><trkpt lat="43.4898238" lon="10.9359464"><ele>450.0</ele><time>2026-05-03T14:56:50.562Z</time></trkpt><trkpt lat="43.4898535" lon="10.9356296"><ele>451.33333333333337</ele><time>2026-05-03T14:56:51.563Z</time></trkpt><trkpt lat="43.4898867" lon="10.9353249"><ele>452.6666666666667</ele><time>2026-05-03T14:56:52.563Z</time></trkpt><trkpt lat="43.4899164" lon="10.935021"><ele>454.0</ele><time>2026-05-03T14:56:53.563Z</time></trkpt><trkpt lat="43.489945" lon="10.9347152"><ele>455.33333333333337</ele><time>2026-05-03T14:56:54.563Z</time></trkpt><trkpt lat="43.4899776" lon="10.9344054"><ele>456.66666666666663</ele><time>2026-05-03T14:56:55.565Z</time></trkpt><trkpt lat="43.4900034" lon="10.9341049"><ele>458.0</ele><time>2026-05-03T14:56:56.563Z</time></trkpt><trkpt lat="43.490034" lon="10.9338163"><ele>458.0</ele><time>2026-05-03T14:56:57.562Z</time></trkpt><trkpt lat="43.4900657" lon="10.9335411"><ele>458.0</ele><time>2026-05-03T14:56:58.563Z</time></trkpt><trkpt lat="43.4900854" lon="10.9332784"><ele>458.0</ele><time>2026-05-03T14:56:59.563Z</time></trkpt><trkpt lat="43.4900978" lon="10.9330301"><ele>458.0</ele><time>2026-05-03T14:57:00.562Z</time></trkpt><trkpt lat="43.4901071" lon="10.9327966"><ele>458.0</ele><time>2026-05-03T14:57:01.563Z</time></trkpt><trkpt lat="43.4901073" lon="10.9325792"><ele>458.0</ele><time>2026-05-03T14:57:02.562Z</time></trkpt><trkpt lat="43.4901074" lon="10.9323692"><ele>458.0</ele><time>2026-05-03T14:57:03.563Z</time></trkpt><trkpt lat="43.4901069" lon="10.9321605"><ele>458.0</ele><time>2026-05-03T14:57:04.564Z</time></trkpt><trkpt lat="43.4901093" lon="10.9319457"><ele>458.0</ele><time>2026-05-03T14:57:05.562Z</time></trkpt><trkpt lat="43.4901103" lon="10.9317145"><ele>459.0</ele><time>2026-05-03T14:57:06.563Z</time></trkpt><trkpt lat="43.4901148" lon="10.9314813"><ele>460.0</ele><time>2026-05-03T14:57:07.562Z</time></trkpt><trkpt lat="43.4901206" lon="10.9312511"><ele>461.0</ele><time>2026-05-03T14:57:08.562Z</time></trkpt><trkpt lat="43.4901418" lon="10.9310251"><ele>461.3333333333333</ele><time>2026-05-03T14:57:09.564Z</time></trkpt><trkpt lat="43.4901857" lon="10.9307942"><ele>461.66666666666663</ele><time>2026-05-03T14:57:10.564Z</time></trkpt><trkpt lat="43.4902488" lon="10.9305769"><ele>462.0</ele><time>2026-05-03T14:57:11.564Z</time></trkpt><trkpt lat="43.4903248" lon="10.9303611"><ele>462.0</ele><time>2026-05-03T14:57:12.563Z</time></trkpt><trkpt lat="43.4904011" lon="10.9301568"><ele>462.0</ele><time>2026-05-03T14:57:13.562Z</time></trkpt><trkpt lat="43.4904889" lon="10.9299522"><ele>462.0</ele><time>2026-05-03T14:57:14.564Z</time></trkpt><trkpt lat="43.4905819" lon="10.9297482"><ele>466.33333333333337</ele><time>2026-05-03T14:57:15.564Z</time></trkpt><trkpt lat="43.490672" lon="10.9295578"><ele>470.6666666666667</ele><time>2026-05-03T14:57:16.563Z</time></trkpt><trkpt lat="43.4907637" lon="10.9293677"><ele>475.0</ele><time>2026-05-03T14:57:17.563Z</time></trkpt><trkpt lat="43.4908605" lon="10.929189"><ele>475.0</ele><time>2026-05-03T14:57:18.563Z</time></trkpt><trkpt lat="43.4909337" lon="10.9290007"><ele>475.0</ele><time>2026-05-03T14:57:19.564Z</time></trkpt><trkpt lat="43.4910173" lon="10.9288344"><ele>475.0</ele><time>2026-05-03T14:57:20.563Z</time></trkpt><trkpt lat="43.491103" lon="10.928698"><ele>475.0</ele><time>2026-05-03T14:57:21.563Z</time></trkpt><trkpt lat="43.4912009" lon="10.9285909"><ele>477.2</ele><time>2026-05-03T14:57:22.563Z</time></trkpt><trkpt lat="43.4913017" lon="10.9285357"><ele>479.4</ele><time>2026-05-03T14:57:23.564Z</time></trkpt><trkpt lat="43.4914068" lon="10.9285195"><ele>481.6</ele><time>2026-05-03T14:57:24.563Z</time></trkpt><trkpt lat="43.4915072" lon="10.9285427"><ele>483.8</ele><time>2026-05-03T14:57:25.563Z</time></trkpt><trkpt lat="43.4916066" lon="10.9285914"><ele>486.0</ele><time>2026-05-03T14:57:26.563Z</time></trkpt><trkpt lat="43.4917019" lon="10.9286587"><ele>486.0</ele><time>2026-05-03T14:57:27.563Z</time></trkpt><trkpt lat="43.4917962" lon="10.9287232"><ele>486.0</ele><time>2026-05-03T14:57:28.563Z</time></trkpt><trkpt lat="43.4918932" lon="10.9287779"><ele>486.0</ele><time>2026-05-03T14:57:29.563Z</time></trkpt><trkpt lat="43.4919919" lon="10.9288217"><ele>486.0</ele><time>2026-05-03T14:57:30.563Z</time></trkpt><trkpt lat="43.4920942" lon="10.9288299"><ele>486.0</ele><time>2026-05-03T14:57:31.563Z</time></trkpt><trkpt lat="43.4921985" lon="10.9288131"><ele>485.6</ele><time>2026-05-03T14:57:32.564Z</time></trkpt><trkpt lat="43.4922968" lon="10.9287767"><ele>485.20000000000005</ele><time>2026-05-03T14:57:33.563Z</time></trkpt><trkpt lat="43.4923951" lon="10.9287175"><ele>484.79999999999995</ele><time>2026-05-03T14:57:34.562Z</time></trkpt><trkpt lat="43.492493" lon="10.9286379"><ele>484.4</ele><time>2026-05-03T14:57:35.563Z</time></trkpt><trkpt lat="43.4925801" lon="10.92854"><ele>484.0</ele><time>2026-05-03T14:57:36.563Z</time></trkpt><trkpt lat="43.4926695" lon="10.9284272"><ele>484.33333333333337</ele><time>2026-05-03T14:57:37.562Z</time></trkpt><trkpt lat="43.492752" lon="10.9283123"><ele>484.66666666666663</ele><time>2026-05-03T14:57:38.563Z</time></trkpt><trkpt lat="43.4928348" lon="10.9281953"><ele>485.0</ele><time>2026-05-03T14:57:39.563Z</time></trkpt><trkpt lat="43.4930075" lon="10.9279446"><ele>487.25</ele><time>2026-05-03T14:57:41.564Z</time></trkpt><trkpt lat="43.4930853" lon="10.9278121"><ele>489.5</ele><time>2026-05-03T14:57:42.563Z</time></trkpt><trkpt lat="43.4931667" lon="10.9276822"><ele>491.75</ele><time>2026-05-03T14:57:43.564Z</time></trkpt><trkpt lat="43.4932468" lon="10.9275517"><ele>494.0</ele><time>2026-05-03T14:57:44.563Z</time></trkpt><trkpt lat="43.493338" lon="10.9274372"><ele>495.0</ele><time>2026-05-03T14:57:45.562Z</time></trkpt><trkpt lat="43.4934222" lon="10.9273087"><ele>496.0</ele><time>2026-05-03T14:57:46.563Z</time></trkpt><trkpt lat="43.4935041" lon="10.9271814"><ele>497.0</ele><time>2026-05-03T14:57:47.563Z</time></trkpt><trkpt lat="43.4935756" lon="10.927058"><ele>498.0</ele><time>2026-05-03T14:57:48.565Z</time></trkpt><trkpt lat="43.4936573" lon="10.9269486"><ele>498.0</ele><time>2026-05-03T14:57:49.564Z</time></trkpt><trkpt lat="43.4937382" lon="10.926853"><ele>498.0</ele><time>2026-05-03T14:57:50.563Z</time></trkpt><trkpt lat="43.4938161" lon="10.9267821"><ele>498.0</ele><time>2026-05-03T14:57:51.563Z</time></trkpt><trkpt lat="43.4938776" lon="10.926706"><ele>498.0</ele><time>2026-05-03T14:57:52.563Z</time></trkpt><trkpt lat="43.4939165" lon="10.9266159"><ele>498.0</ele><time>2026-05-03T14:57:53.563Z</time></trkpt><trkpt lat="43.4939228" lon="10.9265073"><ele>498.0</ele><time>2026-05-03T14:57:54.564Z</time></trkpt><trkpt lat="43.4939439" lon="10.9263854"><ele>498.0</ele><time>2026-05-03T14:57:55.563Z</time></trkpt><trkpt lat="43.4939449" lon="10.9262246"><ele>498.0</ele><time>2026-05-03T14:57:56.562Z</time></trkpt><trkpt lat="43.4939496" lon="10.9260401"><ele>498.0</ele><time>2026-05-03T14:57:57.563Z</time></trkpt><trkpt lat="43.4939593" lon="10.9258419"><ele>498.0</ele><time>2026-05-03T14:57:58.562Z</time></trkpt><trkpt lat="43.4939631" lon="10.9256303"><ele>499.25</ele><time>2026-05-03T14:57:59.563Z</time></trkpt><trkpt lat="43.4939651" lon="10.9254186"><ele>500.5</ele><time>2026-05-03T14:58:00.562Z</time></trkpt><trkpt lat="43.493998" lon="10.925223"><ele>501.75</ele><time>2026-05-03T14:58:01.562Z</time></trkpt><trkpt lat="43.4940437" lon="10.9250348"><ele>503.0</ele><time>2026-05-03T14:58:02.562Z</time></trkpt><trkpt lat="43.4941311" lon="10.924868"><ele>504.3333333333333</ele><time>2026-05-03T14:58:03.562Z</time></trkpt><trkpt lat="43.4942267" lon="10.924701"><ele>505.66666666666663</ele><time>2026-05-03T14:58:04.564Z</time></trkpt><trkpt lat="43.4943726" lon="10.9245107"><ele>507.0</ele><time>2026-05-03T14:58:05.564Z</time></trkpt><trkpt lat="43.4945048" lon="10.9243306"><ele>509.66666666666663</ele><time>2026-05-03T14:58:06.563Z</time></trkpt><trkpt lat="43.4946429" lon="10.9241328"><ele>512.3333333333333</ele><time>2026-05-03T14:58:07.563Z</time></trkpt><trkpt lat="43.4947887" lon="10.9239445"><ele>515.0</ele><time>2026-05-03T14:58:08.563Z</time></trkpt><trkpt lat="43.4949376" lon="10.9237618"><ele>515.0</ele><time>2026-05-03T14:58:09.563Z</time></trkpt><trkpt lat="43.4950686" lon="10.9235922"><ele>515.0</ele><time>2026-05-03T14:58:10.564Z</time></trkpt><trkpt lat="43.4951923" lon="10.9234495"><ele>515.0</ele><time>2026-05-03T14:58:11.563Z</time></trkpt><trkpt lat="43.4953081" lon="10.9233167"><ele>514.0</ele><time>2026-05-03T14:58:12.564Z</time></trkpt><trkpt lat="43.4954187" lon="10.9231854"><ele>513.0</ele><time>2026-05-03T14:58:13.563Z</time></trkpt><trkpt lat="43.495526" lon="10.923051"><ele>512.0</ele><time>2026-05-03T14:58:14.564Z</time></trkpt><trkpt lat="43.495639" lon="10.9228997"><ele>511.0</ele><time>2026-05-03T14:58:15.563Z</time></trkpt><trkpt lat="43.4957393" lon="10.9227282"><ele>513.0</ele><time>2026-05-03T14:58:16.562Z</time></trkpt><trkpt lat="43.4958424" lon="10.9225096"><ele>515.0</ele><time>2026-05-03T14:58:17.563Z</time></trkpt><trkpt lat="43.495957" lon="10.9222828"><ele>517.0</ele><time>2026-05-03T14:58:18.563Z</time></trkpt><trkpt lat="43.4960829" lon="10.9220334"><ele>517.0</ele><time>2026-05-03T14:58:19.564Z</time></trkpt><trkpt lat="43.4962026" lon="10.9218013"><ele>517.0</ele><time>2026-05-03T14:58:20.564Z</time></trkpt><trkpt lat="43.4963148" lon="10.9215916"><ele>517.0</ele><time>2026-05-03T14:58:21.562Z</time></trkpt><trkpt lat="43.496432" lon="10.9214079"><ele>517.3333333333334</ele><time>2026-05-03T14:58:22.563Z</time></trkpt><trkpt lat="43.4965559" lon="10.9212415"><ele>517.6666666666666</ele><time>2026-05-03T14:58:23.563Z</time></trkpt><trkpt lat="43.4967334" lon="10.9211681"><ele>518.0</ele><time>2026-05-03T14:58:24.563Z</time></trkpt><trkpt lat="43.4968884" lon="10.9210922"><ele>518.0</ele><time>2026-05-03T14:58:25.563Z</time></trkpt><trkpt lat="43.4970284" lon="10.9210171"><ele>518.0</ele><time>2026-05-03T14:58:26.563Z</time></trkpt><trkpt lat="43.4971678" lon="10.9209488"><ele>518.0</ele><time>2026-05-03T14:58:27.563Z</time></trkpt><trkpt lat="43.4973394" lon="10.9207371"><ele>520.25</ele><time>2026-05-03T14:58:29.562Z</time></trkpt><trkpt lat="43.4974006" lon="10.9206162"><ele>522.5</ele><time>2026-05-03T14:58:30.563Z</time></trkpt><trkpt lat="43.4974626" lon="10.9205072"><ele>524.75</ele><time>2026-05-03T14:58:31.563Z</time></trkpt><trkpt lat="43.4975026" lon="10.9203724"><ele>527.0</ele><time>2026-05-03T14:58:32.563Z</time></trkpt><trkpt lat="43.4974459" lon="10.9201014"><ele>528.6666666666666</ele><time>2026-05-03T14:58:33.563Z</time></trkpt><trkpt lat="43.497438" lon="10.9198551"><ele>530.3333333333334</ele><time>2026-05-03T14:58:34.563Z</time></trkpt><trkpt lat="43.4974972" lon="10.9196304"><ele>532.0</ele><time>2026-05-03T14:58:35.563Z</time></trkpt><trkpt lat="43.4975671" lon="10.9193946"><ele>534.0</ele><time>2026-05-03T14:58:36.562Z</time></trkpt><trkpt lat="43.4976386" lon="10.9191621"><ele>536.0</ele><time>2026-05-03T14:58:37.563Z</time></trkpt><trkpt lat="43.4977112" lon="10.9189406"><ele>538.0</ele><time>2026-05-03T14:58:38.563Z</time></trkpt><trkpt lat="43.4977661" lon="10.9187334"><ele>538.0</ele><time>2026-05-03T14:58:39.563Z</time></trkpt><trkpt lat="43.4978286" lon="10.9185462"><ele>538.0</ele><time>2026-05-03T14:58:40.563Z</time></trkpt><trkpt lat="43.4978778" lon="10.9183637"><ele>538.0</ele><time>2026-05-03T14:58:41.563Z</time></trkpt><trkpt lat="43.4979207" lon="10.9181942"><ele>538.0</ele><time>2026-05-03T14:58:42.562Z</time></trkpt><trkpt lat="43.497985" lon="10.9180402"><ele>538.0</ele><time>2026-05-03T14:58:43.563Z</time></trkpt><trkpt lat="43.4980517" lon="10.917905"><ele>538.0</ele><time>2026-05-03T14:58:44.563Z</time></trkpt><trkpt lat="43.4981427" lon="10.9178059"><ele>538.0</ele><time>2026-05-03T14:58:45.563Z</time></trkpt><trkpt lat="43.4982579" lon="10.9177428"><ele>538.0</ele><time>2026-05-03T14:58:46.564Z</time></trkpt><trkpt lat="43.4983961" lon="10.9177221"><ele>538.0</ele><time>2026-05-03T14:58:47.563Z</time></trkpt><trkpt lat="43.4985272" lon="10.9176907"><ele>538.0</ele><time>2026-05-03T14:58:48.562Z</time></trkpt><trkpt lat="43.4986528" lon="10.9176464"><ele>538.0</ele><time>2026-05-03T14:58:49.563Z</time></trkpt><trkpt lat="43.4987756" lon="10.9175781"><ele>538.0</ele><time>2026-05-03T14:58:50.563Z</time></trkpt><trkpt lat="43.4988984" lon="10.9174868"><ele>539.6666666666667</ele><time>2026-05-03T14:58:51.564Z</time></trkpt><trkpt lat="43.4990181" lon="10.9173838"><ele>541.3333333333334</ele><time>2026-05-03T14:58:52.562Z</time></trkpt><trkpt lat="43.4991515" lon="10.9172819"><ele>543.0</ele><time>2026-05-03T14:58:53.564Z</time></trkpt><trkpt lat="43.4992901" lon="10.9171702"><ele>543.0</ele><time>2026-05-03T14:58:54.562Z</time></trkpt><trkpt lat="43.499444" lon="10.9170529"><ele>543.0</ele><time>2026-05-03T14:58:55.563Z</time></trkpt><trkpt lat="43.499589" lon="10.9169406"><ele>543.0</ele><time>2026-05-03T14:58:56.563Z</time></trkpt><trkpt lat="43.4997182" lon="10.9168261"><ele>541.0</ele><time>2026-05-03T14:58:57.563Z</time></trkpt><trkpt lat="43.4998345" lon="10.916699"><ele>539.0</ele><time>2026-05-03T14:58:58.563Z</time></trkpt><trkpt lat="43.4999266" lon="10.9165546"><ele>537.0</ele><time>2026-05-03T14:58:59.564Z</time></trkpt><trkpt lat="43.4999902" lon="10.916382"><ele>535.0</ele><time>2026-05-03T14:59:00.563Z</time></trkpt><trkpt lat="43.5000264" lon="10.9161852"><ele>535.0</ele><time>2026-05-03T14:59:01.564Z</time></trkpt><trkpt lat="43.5000286" lon="10.9159722"><ele>535.0</ele><time>2026-05-03T14:59:02.563Z</time></trkpt><trkpt lat="43.5000107" lon="10.9157629"><ele>535.0</ele><time>2026-05-03T14:59:03.564Z</time></trkpt><trkpt lat="43.4999855" lon="10.9155642"><ele>535.5</ele><time>2026-05-03T14:59:04.562Z</time></trkpt><trkpt lat="43.4999606" lon="10.9153787"><ele>536.0</ele><time>2026-05-03T14:59:05.563Z</time></trkpt><trkpt lat="43.4999401" lon="10.915198"><ele>536.5</ele><time>2026-05-03T14:59:06.564Z</time></trkpt><trkpt lat="43.4999184" lon="10.9150233"><ele>537.0</ele><time>2026-05-03T14:59:07.563Z</time></trkpt><trkpt lat="43.4998937" lon="10.914848"><ele>537.25</ele><time>2026-05-03T14:59:08.563Z</time></trkpt><trkpt lat="43.4998756" lon="10.9146703"><ele>537.5</ele><time>2026-05-03T14:59:09.563Z</time></trkpt><trkpt lat="43.4998758" lon="10.9144913"><ele>537.75</ele><time>2026-05-03T14:59:10.563Z</time></trkpt><trkpt lat="43.499902" lon="10.9143265"><ele>538.0</ele><time>2026-05-03T14:59:11.562Z</time></trkpt><trkpt lat="43.4999481" lon="10.9141697"><ele>538.0</ele><time>2026-05-03T14:59:12.564Z</time></trkpt><trkpt lat="43.5000022" lon="10.914021"><ele>538.0</ele><time>2026-05-03T14:59:13.564Z</time></trkpt><trkpt lat="43.5000752" lon="10.9138736"><ele>538.0</ele><time>2026-05-03T14:59:14.563Z</time></trkpt><trkpt lat="43.5001422" lon="10.9137275"><ele>538.0</ele><time>2026-05-03T14:59:15.562Z</time></trkpt><trkpt lat="43.5002083" lon="10.9135844"><ele>538.0</ele><time>2026-05-03T14:59:16.564Z</time></trkpt><trkpt lat="43.5002747" lon="10.9134481"><ele>538.0</ele><time>2026-05-03T14:59:17.562Z</time></trkpt><trkpt lat="43.5003389" lon="10.9133024"><ele>538.0</ele><time>2026-05-03T14:59:18.563Z</time></trkpt><trkpt lat="43.5004061" lon="10.9131575"><ele>538.0</ele><time>2026-05-03T14:59:19.563Z</time></trkpt><trkpt lat="43.5004726" lon="10.9130066"><ele>537.75</ele><time>2026-05-03T14:59:20.563Z</time></trkpt><trkpt lat="43.5005353" lon="10.9128494"><ele>537.5</ele><time>2026-05-03T14:59:21.563Z</time></trkpt><trkpt lat="43.5005914" lon="10.912688"><ele>537.25</ele><time>2026-05-03T14:59:22.563Z</time></trkpt><trkpt lat="43.5006488" lon="10.9125266"><ele>537.0</ele><time>2026-05-03T14:59:23.563Z</time></trkpt><trkpt lat="43.5007031" lon="10.9123739"><ele>538.0</ele><time>2026-05-03T14:59:24.564Z</time></trkpt><trkpt lat="43.5007552" lon="10.9122264"><ele>539.0</ele><time>2026-05-03T14:59:25.562Z</time></trkpt><trkpt lat="43.5007925" lon="10.9120488"><ele>540.0</ele><time>2026-05-03T14:59:26.563Z</time></trkpt><trkpt lat="43.5008129" lon="10.9118633"><ele>541.0</ele><time>2026-05-03T14:59:27.563Z</time></trkpt><trkpt lat="43.5008141" lon="10.9116824"><ele>542.25</ele><time>2026-05-03T14:59:28.564Z</time></trkpt><trkpt lat="43.5007999" lon="10.9114964"><ele>543.5</ele><time>2026-05-03T14:59:29.562Z</time></trkpt><trkpt lat="43.5007716" lon="10.9113189"><ele>544.75</ele><time>2026-05-03T14:59:30.563Z</time></trkpt><trkpt lat="43.5007369" lon="10.9111644"><ele>546.0</ele><time>2026-05-03T14:59:31.563Z</time></trkpt><trkpt lat="43.5007016" lon="10.9110038"><ele>546.0</ele><time>2026-05-03T14:59:32.563Z</time></trkpt><trkpt lat="43.5006773" lon="10.910851"><ele>546.0</ele><time>2026-05-03T14:59:33.563Z</time></trkpt><trkpt lat="43.5006584" lon="10.9106906"><ele>546.0</ele><time>2026-05-03T14:59:34.563Z</time></trkpt><trkpt lat="43.5006394" lon="10.9105259"><ele>546.0</ele><time>2026-05-03T14:59:35.562Z</time></trkpt><trkpt lat="43.5006197" lon="10.9103536"><ele>546.0</ele><time>2026-05-03T14:59:36.564Z</time></trkpt><trkpt lat="43.5006139" lon="10.910157"><ele>546.0</ele><time>2026-05-03T14:59:37.563Z</time></trkpt><trkpt lat="43.5006283" lon="10.9099689"><ele>546.0</ele><time>2026-05-03T14:59:38.564Z</time></trkpt><trkpt lat="43.5006602" lon="10.9097687"><ele>546.0</ele><time>2026-05-03T14:59:39.563Z</time></trkpt><trkpt lat="43.5007061" lon="10.9095684"><ele>545.0</ele><time>2026-05-03T14:59:40.564Z</time></trkpt><trkpt lat="43.500756" lon="10.9093671"><ele>544.0</ele><time>2026-05-03T14:59:41.563Z</time></trkpt><trkpt lat="43.5008072" lon="10.9091755"><ele>543.0</ele><time>2026-05-03T14:59:42.564Z</time></trkpt><trkpt lat="43.5008571" lon="10.9089877"><ele>542.0</ele><time>2026-05-03T14:59:43.562Z</time></trkpt><trkpt lat="43.5009096" lon="10.9087957"><ele>542.0</ele><time>2026-05-03T14:59:44.562Z</time></trkpt><trkpt lat="43.5009785" lon="10.9086295"><ele>542.0</ele><time>2026-05-03T14:59:45.563Z</time></trkpt><trkpt lat="43.5010562" lon="10.908466"><ele>542.0</ele><time>2026-05-03T14:59:46.563Z</time></trkpt><trkpt lat="43.5011387" lon="10.908301"><ele>542.0</ele><time>2026-05-03T14:59:47.562Z</time></trkpt><trkpt lat="43.5012248" lon="10.9081372"><ele>540.75</ele><time>2026-05-03T14:59:48.563Z</time></trkpt><trkpt lat="43.5013207" lon="10.9080023"><ele>539.5</ele><time>2026-05-03T14:59:49.562Z</time></trkpt><trkpt lat="43.5014227" lon="10.9078794"><ele>538.25</ele><time>2026-05-03T14:59:50.563Z</time></trkpt><trkpt lat="43.5015374" lon="10.9077872"><ele>537.0</ele><time>2026-05-03T14:59:51.562Z</time></trkpt><trkpt lat="43.5016514" lon="10.9077087"><ele>537.0</ele><time>2026-05-03T14:59:52.563Z</time></trkpt><trkpt lat="43.5017729" lon="10.9076768"><ele>537.0</ele><time>2026-05-03T14:59:53.563Z</time></trkpt><trkpt lat="43.501898" lon="10.9076577"><ele>537.0</ele><time>2026-05-03T14:59:54.563Z</time></trkpt><trkpt lat="43.5020166" lon="10.9076564"><ele>537.0</ele><time>2026-05-03T14:59:55.562Z</time></trkpt><trkpt lat="43.5021419" lon="10.9076639"><ele>536.0</ele><time>2026-05-03T14:59:56.563Z</time></trkpt><trkpt lat="43.5022865" lon="10.9076688"><ele>535.0</ele><time>2026-05-03T14:59:57.563Z</time></trkpt><trkpt lat="43.5024376" lon="10.9076986"><ele>534.0</ele><time>2026-05-03T14:59:58.563Z</time></trkpt><trkpt lat="43.5025903" lon="10.9077249"><ele>534.0</ele><time>2026-05-03T14:59:59.563Z</time></trkpt><trkpt lat="43.5027296" lon="10.9077551"><ele>534.0</ele><time>2026-05-03T15:00:00.563Z</time></trkpt><trkpt lat="43.5028725" lon="10.9077715"><ele>534.0</ele><time>2026-05-03T15:00:01.562Z</time></trkpt><trkpt lat="43.5030319" lon="10.9077887"><ele>534.0</ele><time>2026-05-03T15:00:02.563Z</time></trkpt><trkpt lat="43.5031852" lon="10.9078174"><ele>534.6666666666666</ele><time>2026-05-03T15:00:03.562Z</time></trkpt><trkpt lat="43.5033259" lon="10.9078505"><ele>535.3333333333333</ele><time>2026-05-03T15:00:04.563Z</time></trkpt><trkpt lat="43.5034788" lon="10.9078692"><ele>536.0</ele><time>2026-05-03T15:00:05.562Z</time></trkpt><trkpt lat="43.5036317" lon="10.9078886"><ele>535.3333333333333</ele><time>2026-05-03T15:00:06.563Z</time></trkpt><trkpt lat="43.5037742" lon="10.9079155"><ele>534.6666666666666</ele><time>2026-05-03T15:00:07.563Z</time></trkpt><trkpt lat="43.5039206" lon="10.907945"><ele>534.0</ele><time>2026-05-03T15:00:08.562Z</time></trkpt><trkpt lat="43.5040879" lon="10.9079568"><ele>534.0</ele><time>2026-05-03T15:00:09.563Z</time></trkpt><trkpt lat="43.5042595" lon="10.9079887"><ele>534.0</ele><time>2026-05-03T15:00:10.563Z</time></trkpt><trkpt lat="43.5044208" lon="10.9080232"><ele>534.0</ele><time>2026-05-03T15:00:11.564Z</time></trkpt><trkpt lat="43.5045705" lon="10.9080583"><ele>532.5</ele><time>2026-05-03T15:00:12.563Z</time></trkpt><trkpt lat="43.5047159" lon="10.9080884"><ele>531.0</ele><time>2026-05-03T15:00:13.562Z</time></trkpt><trkpt lat="43.5048551" lon="10.9081128"><ele>529.5</ele><time>2026-05-03T15:00:14.562Z</time></trkpt><trkpt lat="43.5049901" lon="10.908134"><ele>528.0</ele><time>2026-05-03T15:00:15.563Z</time></trkpt><trkpt lat="43.5051195" lon="10.9081504"><ele>528.0</ele><time>2026-05-03T15:00:16.563Z</time></trkpt><trkpt lat="43.5052401" lon="10.9081697"><ele>528.0</ele><time>2026-05-03T15:00:17.563Z</time></trkpt><trkpt lat="43.505363" lon="10.9081854"><ele>528.0</ele><time>2026-05-03T15:00:18.562Z</time></trkpt><trkpt lat="43.5054895" lon="10.908188"><ele>528.0</ele><time>2026-05-03T15:00:19.562Z</time></trkpt><trkpt lat="43.5056052" lon="10.9081671"><ele>527.0</ele><time>2026-05-03T15:00:20.563Z</time></trkpt><trkpt lat="43.50572" lon="10.9081361"><ele>526.0</ele><time>2026-05-03T15:00:21.563Z</time></trkpt><trkpt lat="43.5058371" lon="10.9080858"><ele>525.0</ele><time>2026-05-03T15:00:22.563Z</time></trkpt><trkpt lat="43.5059261" lon="10.9080246"><ele>524.0</ele><time>2026-05-03T15:00:23.563Z</time></trkpt><trkpt lat="43.5060395" lon="10.907927"><ele>524.0</ele><time>2026-05-03T15:00:24.564Z</time></trkpt><trkpt lat="43.5061659" lon="10.9077934"><ele>524.0</ele><time>2026-05-03T15:00:25.564Z</time></trkpt><trkpt lat="43.5063042" lon="10.9076413"><ele>524.0</ele><time>2026-05-03T15:00:26.563Z</time></trkpt><trkpt lat="43.5064851" lon="10.9074397"><ele>522.0</ele><time>2026-05-03T15:00:27.563Z</time></trkpt><trkpt lat="43.5066724" lon="10.9072372"><ele>520.0</ele><time>2026-05-03T15:00:28.563Z</time></trkpt><trkpt lat="43.5068692" lon="10.9070309"><ele>520.0</ele><time>2026-05-03T15:00:29.562Z</time></trkpt><trkpt lat="43.5070544" lon="10.9068297"><ele>520.0</ele><time>2026-05-03T15:00:30.562Z</time></trkpt><trkpt lat="43.5072223" lon="10.906646"><ele>516.6666666666667</ele><time>2026-05-03T15:00:31.563Z</time></trkpt><trkpt lat="43.5074047" lon="10.9064581"><ele>513.3333333333334</ele><time>2026-05-03T15:00:32.563Z</time></trkpt><trkpt lat="43.5075845" lon="10.9063046"><ele>510.0</ele><time>2026-05-03T15:00:33.563Z</time></trkpt><trkpt lat="43.5077928" lon="10.9061994"><ele>508.5</ele><time>2026-05-03T15:00:34.563Z</time></trkpt><trkpt lat="43.5080104" lon="10.9061005"><ele>507.0</ele><time>2026-05-03T15:00:35.563Z</time></trkpt><trkpt lat="43.5082496" lon="10.9060076"><ele>507.0</ele><time>2026-05-03T15:00:36.562Z</time></trkpt><trkpt lat="43.5084922" lon="10.9059212"><ele>507.0</ele><time>2026-05-03T15:00:37.562Z</time></trkpt><trkpt lat="43.508757" lon="10.905827"><ele>503.0</ele><time>2026-05-03T15:00:38.564Z</time></trkpt><trkpt lat="43.5090341" lon="10.9057215"><ele>499.0</ele><time>2026-05-03T15:00:39.563Z</time></trkpt><trkpt lat="43.5093103" lon="10.9056106"><ele>499.0</ele><time>2026-05-03T15:00:40.563Z</time></trkpt><trkpt lat="43.5095716" lon="10.9055106"><ele>499.0</ele><time>2026-05-03T15:00:41.562Z</time></trkpt><trkpt lat="43.5098222" lon="10.9054202"><ele>495.0</ele><time>2026-05-03T15:00:42.564Z</time></trkpt><trkpt lat="43.5100712" lon="10.9053284"><ele>491.0</ele><time>2026-05-03T15:00:43.563Z</time></trkpt><trkpt lat="43.5103105" lon="10.9052442"><ele>488.0</ele><time>2026-05-03T15:00:44.562Z</time></trkpt><trkpt lat="43.5105385" lon="10.9051579"><ele>485.0</ele><time>2026-05-03T15:00:45.563Z</time></trkpt><trkpt lat="43.510764" lon="10.9050829"><ele>486.0</ele><time>2026-05-03T15:00:46.564Z</time></trkpt><trkpt lat="43.5109799" lon="10.9050101"><ele>487.0</ele><time>2026-05-03T15:00:47.564Z</time></trkpt><trkpt lat="43.5111934" lon="10.9049328"><ele>488.0</ele><time>2026-05-03T15:00:48.563Z</time></trkpt><trkpt lat="43.5113793" lon="10.9048658"><ele>488.66666666666663</ele><time>2026-05-03T15:00:49.563Z</time></trkpt><trkpt lat="43.51154" lon="10.9047986"><ele>489.33333333333337</ele><time>2026-05-03T15:00:50.564Z</time></trkpt><trkpt lat="43.5116912" lon="10.9047196"><ele>490.0</ele><time>2026-05-03T15:00:51.563Z</time></trkpt><trkpt lat="43.5118285" lon="10.904613"><ele>490.0</ele><time>2026-05-03T15:00:52.563Z</time></trkpt><trkpt lat="43.5119519" lon="10.9044569"><ele>490.0</ele><time>2026-05-03T15:00:53.562Z</time></trkpt><trkpt lat="43.5120448" lon="10.9042591"><ele>490.0</ele><time>2026-05-03T15:00:54.563Z</time></trkpt><trkpt lat="43.5121198" lon="10.9040262"><ele>488.33333333333337</ele><time>2026-05-03T15:00:55.562Z</time></trkpt><trkpt lat="43.5121631" lon="10.9037716"><ele>486.66666666666663</ele><time>2026-05-03T15:00:56.563Z</time></trkpt><trkpt lat="43.5121884" lon="10.9034979"><ele>485.0</ele><time>2026-05-03T15:00:57.562Z</time></trkpt><trkpt lat="43.5122169" lon="10.9032055"><ele>484.66666666666663</ele><time>2026-05-03T15:00:58.562Z</time></trkpt><trkpt lat="43.5122347" lon="10.9029341"><ele>484.33333333333337</ele><time>2026-05-03T15:00:59.563Z</time></trkpt><trkpt lat="43.5122427" lon="10.9026583"><ele>484.0</ele><time>2026-05-03T15:01:00.564Z</time></trkpt><trkpt lat="43.5122283" lon="10.9023825"><ele>484.0</ele><time>2026-05-03T15:01:01.563Z</time></trkpt><trkpt lat="43.512183" lon="10.9021096"><ele>484.0</ele><time>2026-05-03T15:01:02.563Z</time></trkpt><trkpt lat="43.5121179" lon="10.9018434"><ele>484.0</ele><time>2026-05-03T15:01:03.563Z</time></trkpt><trkpt lat="43.5120321" lon="10.9015688"><ele>484.0</ele><time>2026-05-03T15:01:04.563Z</time></trkpt><trkpt lat="43.5119445" lon="10.9012811"><ele>484.0</ele><time>2026-05-03T15:01:05.563Z</time></trkpt><trkpt lat="43.5118682" lon="10.9009937"><ele>484.0</ele><time>2026-05-03T15:01:06.563Z</time></trkpt><trkpt lat="43.5118305" lon="10.9007148"><ele>484.0</ele><time>2026-05-03T15:01:07.563Z</time></trkpt><trkpt lat="43.5118094" lon="10.9004355"><ele>484.0</ele><time>2026-05-03T15:01:08.562Z</time></trkpt><trkpt lat="43.5118154" lon="10.9001637"><ele>484.0</ele><time>2026-05-03T15:01:09.564Z</time></trkpt><trkpt lat="43.5118418" lon="10.8998974"><ele>484.33333333333337</ele><time>2026-05-03T15:01:10.562Z</time></trkpt><trkpt lat="43.5119055" lon="10.8996607"><ele>484.66666666666663</ele><time>2026-05-03T15:01:11.563Z</time></trkpt><trkpt lat="43.5120021" lon="10.8994374"><ele>485.0</ele><time>2026-05-03T15:01:12.562Z</time></trkpt><trkpt lat="43.5121352" lon="10.8992621"><ele>482.66666666666663</ele><time>2026-05-03T15:01:13.563Z</time></trkpt><trkpt lat="43.5122755" lon="10.8990998"><ele>480.33333333333337</ele><time>2026-05-03T15:01:14.562Z</time></trkpt><trkpt lat="43.5124504" lon="10.8989966"><ele>478.0</ele><time>2026-05-03T15:01:15.563Z</time></trkpt><trkpt lat="43.5126392" lon="10.8989423"><ele>478.0</ele><time>2026-05-03T15:01:16.563Z</time></trkpt><trkpt lat="43.5128278" lon="10.8989268"><ele>478.0</ele><time>2026-05-03T15:01:17.563Z</time></trkpt><trkpt lat="43.5130088" lon="10.8989616"><ele>478.0</ele><time>2026-05-03T15:01:18.563Z</time></trkpt><trkpt lat="43.5132129" lon="10.8990565"><ele>477.0</ele><time>2026-05-03T15:01:19.563Z</time></trkpt><trkpt lat="43.5134124" lon="10.899186"><ele>476.0</ele><time>2026-05-03T15:01:20.564Z</time></trkpt><trkpt lat="43.5136155" lon="10.8993455"><ele>477.0</ele><time>2026-05-03T15:01:21.564Z</time></trkpt><trkpt lat="43.513813" lon="10.8995607"><ele>478.0</ele><time>2026-05-03T15:01:22.563Z</time></trkpt><trkpt lat="43.5140022" lon="10.8997585"><ele>478.0</ele><time>2026-05-03T15:01:23.563Z</time></trkpt><trkpt lat="43.5141939" lon="10.8999568"><ele>478.0</ele><time>2026-05-03T15:01:24.562Z</time></trkpt><trkpt lat="43.5144035" lon="10.9001495"><ele>475.5</ele><time>2026-05-03T15:01:25.563Z</time></trkpt><trkpt lat="43.5146198" lon="10.9003167"><ele>473.0</ele><time>2026-05-03T15:01:26.563Z</time></trkpt><trkpt lat="43.5148508" lon="10.9004726"><ele>473.0</ele><time>2026-05-03T15:01:27.564Z</time></trkpt><trkpt lat="43.5150833" lon="10.9006191"><ele>473.0</ele><time>2026-05-03T15:01:28.563Z</time></trkpt><trkpt lat="43.5153039" lon="10.9007624"><ele>473.0</ele><time>2026-05-03T15:01:29.562Z</time></trkpt><trkpt lat="43.5155147" lon="10.9009057"><ele>473.0</ele><time>2026-05-03T15:01:30.563Z</time></trkpt><trkpt lat="43.5157246" lon="10.9010463"><ele>468.5</ele><time>2026-05-03T15:01:31.563Z</time></trkpt><trkpt lat="43.5159224" lon="10.9011817"><ele>464.0</ele><time>2026-05-03T15:01:32.562Z</time></trkpt><trkpt lat="43.5161234" lon="10.9013354"><ele>463.0</ele><time>2026-05-03T15:01:33.563Z</time></trkpt><trkpt lat="43.5163063" lon="10.9015053"><ele>462.0</ele><time>2026-05-03T15:01:34.562Z</time></trkpt><trkpt lat="43.516482" lon="10.9016928"><ele>461.0</ele><time>2026-05-03T15:01:35.563Z</time></trkpt><trkpt lat="43.5166476" lon="10.901885"><ele>461.0</ele><time>2026-05-03T15:01:36.562Z</time></trkpt><trkpt lat="43.5168041" lon="10.9020761"><ele>461.0</ele><time>2026-05-03T15:01:37.563Z</time></trkpt><trkpt lat="43.5169542" lon="10.9022638"><ele>461.0</ele><time>2026-05-03T15:01:38.563Z</time></trkpt><trkpt lat="43.5170968" lon="10.9024035"><ele>457.3333333333333</ele><time>2026-05-03T15:01:39.562Z</time></trkpt><trkpt lat="43.5172474" lon="10.9025295"><ele>453.66666666666663</ele><time>2026-05-03T15:01:40.562Z</time></trkpt><trkpt lat="43.5174096" lon="10.9026426"><ele>450.0</ele><time>2026-05-03T15:01:41.563Z</time></trkpt><trkpt lat="43.517601" lon="10.9026988"><ele>450.0</ele><time>2026-05-03T15:01:42.563Z</time></trkpt><trkpt lat="43.5178129" lon="10.9027183"><ele>450.0</ele><time>2026-05-03T15:01:43.564Z</time></trkpt><trkpt lat="43.5180548" lon="10.9027226"><ele>445.5</ele><time>2026-05-03T15:01:44.563Z</time></trkpt><trkpt lat="43.5182878" lon="10.9027123"><ele>441.0</ele><time>2026-05-03T15:01:45.563Z</time></trkpt><trkpt lat="43.5185156" lon="10.9027028"><ele>441.0</ele><time>2026-05-03T15:01:46.563Z</time></trkpt><trkpt lat="43.518722" lon="10.9026988"><ele>441.0</ele><time>2026-05-03T15:01:47.563Z</time></trkpt><trkpt lat="43.5189569" lon="10.9026813"><ele>441.0</ele><time>2026-05-03T15:01:48.564Z</time></trkpt><trkpt lat="43.5191781" lon="10.9026414"><ele>441.0</ele><time>2026-05-03T15:01:49.564Z</time></trkpt><trkpt lat="43.519405" lon="10.9025657"><ele>441.0</ele><time>2026-05-03T15:01:50.563Z</time></trkpt><trkpt lat="43.5196056" lon="10.9024582"><ele>441.0</ele><time>2026-05-03T15:01:51.564Z</time></trkpt><trkpt lat="43.5198085" lon="10.9023062"><ele>438.5</ele><time>2026-05-03T15:01:52.563Z</time></trkpt><trkpt lat="43.5199963" lon="10.9021216"><ele>436.0</ele><time>2026-05-03T15:01:53.564Z</time></trkpt><trkpt lat="43.5201901" lon="10.9019165"><ele>435.5</ele><time>2026-05-03T15:01:54.563Z</time></trkpt><trkpt lat="43.5203948" lon="10.901694"><ele>435.0</ele><time>2026-05-03T15:01:55.563Z</time></trkpt><trkpt lat="43.52061" lon="10.9014646"><ele>437.0</ele><time>2026-05-03T15:01:56.563Z</time></trkpt><trkpt lat="43.5208121" lon="10.9012484"><ele>439.0</ele><time>2026-05-03T15:01:57.563Z</time></trkpt><trkpt lat="43.5210136" lon="10.9010326"><ele>440.0</ele><time>2026-05-03T15:01:58.563Z</time></trkpt><trkpt lat="43.5212004" lon="10.9008254"><ele>441.0</ele><time>2026-05-03T15:01:59.563Z</time></trkpt><trkpt lat="43.5213766" lon="10.9006234"><ele>438.33333333333337</ele><time>2026-05-03T15:02:00.563Z</time></trkpt><trkpt lat="43.5215494" lon="10.9004326"><ele>435.6666666666667</ele><time>2026-05-03T15:02:01.562Z</time></trkpt><trkpt lat="43.5217212" lon="10.9002617"><ele>433.0</ele><time>2026-05-03T15:02:02.563Z</time></trkpt><trkpt lat="43.5219004" lon="10.9001172"><ele>431.33333333333337</ele><time>2026-05-03T15:02:03.563Z</time></trkpt><trkpt lat="43.5220955" lon="10.8999943"><ele>429.66666666666663</ele><time>2026-05-03T15:02:04.562Z</time></trkpt><trkpt lat="43.5223041" lon="10.8998981"><ele>428.0</ele><time>2026-05-03T15:02:05.562Z</time></trkpt><trkpt lat="43.5225101" lon="10.8998052"><ele>428.0</ele><time>2026-05-03T15:02:06.564Z</time></trkpt><trkpt lat="43.5227112" lon="10.8997175"><ele>428.0</ele><time>2026-05-03T15:02:07.563Z</time></trkpt><trkpt lat="43.5229104" lon="10.8996267"><ele>428.0</ele><time>2026-05-03T15:02:08.563Z</time></trkpt><trkpt lat="43.5230874" lon="10.8995189"><ele>427.3333333333333</ele><time>2026-05-03T15:02:09.563Z</time></trkpt><trkpt lat="43.5232719" lon="10.8993955"><ele>426.66666666666663</ele><time>2026-05-03T15:02:10.562Z</time></trkpt><trkpt lat="43.5234518" lon="10.8992612"><ele>426.0</ele><time>2026-05-03T15:02:11.563Z</time></trkpt><trkpt lat="43.5235937" lon="10.8991158"><ele>426.66666666666663</ele><time>2026-05-03T15:02:12.562Z</time></trkpt><trkpt lat="43.5237385" lon="10.8989677"><ele>427.3333333333333</ele><time>2026-05-03T15:02:13.563Z</time></trkpt><trkpt lat="43.5238647" lon="10.8988167"><ele>428.0</ele><time>2026-05-03T15:02:14.563Z</time></trkpt><trkpt lat="43.5239827" lon="10.8986704"><ele>428.0</ele><time>2026-05-03T15:02:15.563Z</time></trkpt><trkpt lat="43.5240995" lon="10.8985324"><ele>428.0</ele><time>2026-05-03T15:02:16.564Z</time></trkpt><trkpt lat="43.5242123" lon="10.8984068"><ele>428.0</ele><time>2026-05-03T15:02:17.563Z</time></trkpt><trkpt lat="43.5243092" lon="10.8982909"><ele>428.0</ele><time>2026-05-03T15:02:18.563Z</time></trkpt><trkpt lat="43.5244061" lon="10.8981766"><ele>425.5</ele><time>2026-05-03T15:02:19.563Z</time></trkpt><trkpt lat="43.524495" lon="10.8980581"><ele>423.0</ele><time>2026-05-03T15:02:20.563Z</time></trkpt><trkpt lat="43.5245737" lon="10.897927"><ele>420.5</ele><time>2026-05-03T15:02:21.562Z</time></trkpt><trkpt lat="43.5246561" lon="10.8977868"><ele>418.0</ele><time>2026-05-03T15:02:22.563Z</time></trkpt><trkpt lat="43.5247439" lon="10.8976464"><ele>416.6666666666667</ele><time>2026-05-03T15:02:23.562Z</time></trkpt><trkpt lat="43.5248338" lon="10.8974797"><ele>415.33333333333337</ele><time>2026-05-03T15:02:24.563Z</time></trkpt><trkpt lat="43.5249254" lon="10.8973048"><ele>414.0</ele><time>2026-05-03T15:02:25.562Z</time></trkpt><trkpt lat="43.5250166" lon="10.8971283"><ele>414.0</ele><time>2026-05-03T15:02:26.563Z</time></trkpt><trkpt lat="43.5251198" lon="10.8969646"><ele>414.0</ele><time>2026-05-03T15:02:27.563Z</time></trkpt><trkpt lat="43.5252323" lon="10.8968199"><ele>414.0</ele><time>2026-05-03T15:02:28.563Z</time></trkpt><trkpt lat="43.5253353" lon="10.8966873"><ele>411.5</ele><time>2026-05-03T15:02:29.564Z</time></trkpt><trkpt lat="43.5254567" lon="10.8965888"><ele>409.0</ele><time>2026-05-03T15:02:30.563Z</time></trkpt><trkpt lat="43.5255707" lon="10.896526"><ele>406.5</ele><time>2026-05-03T15:02:31.561Z</time></trkpt><trkpt lat="43.5256621" lon="10.8964693"><ele>404.0</ele><time>2026-05-03T15:02:32.563Z</time></trkpt><trkpt lat="43.5257522" lon="10.8964495"><ele>404.0</ele><time>2026-05-03T15:02:33.562Z</time></trkpt><trkpt lat="43.525848" lon="10.8964435"><ele>404.0</ele><time>2026-05-03T15:02:34.563Z</time></trkpt><trkpt lat="43.5259366" lon="10.8964566"><ele>404.0</ele><time>2026-05-03T15:02:35.563Z</time></trkpt><trkpt lat="43.5260059" lon="10.8964781"><ele>404.0</ele><time>2026-05-03T15:02:36.563Z</time></trkpt><trkpt lat="43.5261026" lon="10.8965026"><ele>404.0</ele><time>2026-05-03T15:02:38.563Z</time></trkpt><trkpt lat="43.5262547" lon="10.8964871"><ele>401.79999999999995</ele><time>2026-05-03T15:02:44.563Z</time></trkpt><trkpt lat="43.5263227" lon="10.8964653"><ele>399.59999999999997</ele><time>2026-05-03T15:02:45.563Z</time></trkpt><trkpt lat="43.5263955" lon="10.8964482"><ele>397.4</ele><time>2026-05-03T15:02:46.562Z</time></trkpt><trkpt lat="43.5265018" lon="10.8964547"><ele>395.2</ele><time>2026-05-03T15:02:47.563Z</time></trkpt><trkpt lat="43.5266017" lon="10.8964964"><ele>393.0</ele><time>2026-05-03T15:02:48.563Z</time></trkpt><trkpt lat="43.5267325" lon="10.8965265"><ele>393.0</ele><time>2026-05-03T15:02:49.563Z</time></trkpt><trkpt lat="43.526853" lon="10.8965683"><ele>393.0</ele><time>2026-05-03T15:02:50.563Z</time></trkpt><trkpt lat="43.5269625" lon="10.8965921"><ele>393.0</ele><time>2026-05-03T15:02:51.562Z</time></trkpt><trkpt lat="43.5270643" lon="10.8966248"><ele>393.0</ele><time>2026-05-03T15:02:52.563Z</time></trkpt><trkpt lat="43.5271614" lon="10.8966464"><ele>393.0</ele><time>2026-05-03T15:02:53.563Z</time></trkpt><trkpt lat="43.5272693" lon="10.8966271"><ele>392.2</ele><time>2026-05-03T15:02:54.562Z</time></trkpt><trkpt lat="43.5273517" lon="10.8965616"><ele>391.4</ele><time>2026-05-03T15:02:55.562Z</time></trkpt><trkpt lat="43.5274266" lon="10.8964611"><ele>390.59999999999997</ele><time>2026-05-03T15:02:56.563Z</time></trkpt><trkpt lat="43.5274785" lon="10.8963344"><ele>389.79999999999995</ele><time>2026-05-03T15:02:57.563Z</time></trkpt><trkpt lat="43.5275212" lon="10.8961964"><ele>389.0</ele><time>2026-05-03T15:02:58.561Z</time></trkpt><trkpt lat="43.5275606" lon="10.89605"><ele>389.0</ele><time>2026-05-03T15:02:59.563Z</time></trkpt><trkpt lat="43.5276063" lon="10.895922"><ele>389.0</ele><time>2026-05-03T15:03:00.563Z</time></trkpt><trkpt lat="43.5276792" lon="10.8958159"><ele>389.0</ele><time>2026-05-03T15:03:01.563Z</time></trkpt><trkpt lat="43.5277567" lon="10.8957259"><ele>389.0</ele><time>2026-05-03T15:03:02.562Z</time></trkpt><trkpt lat="43.5278514" lon="10.8956274"><ele>389.0</ele><time>2026-05-03T15:03:03.563Z</time></trkpt><trkpt lat="43.5279304" lon="10.8955305"><ele>387.75</ele><time>2026-05-03T15:03:04.562Z</time></trkpt><trkpt lat="43.527997" lon="10.8953976"><ele>386.5</ele><time>2026-05-03T15:03:05.562Z</time></trkpt><trkpt lat="43.5280263" lon="10.8952333"><ele>385.25</ele><time>2026-05-03T15:03:06.563Z</time></trkpt><trkpt lat="43.5280319" lon="10.8950499"><ele>384.0</ele><time>2026-05-03T15:03:07.562Z</time></trkpt><trkpt lat="43.5280228" lon="10.8948647"><ele>380.4</ele><time>2026-05-03T15:03:08.563Z</time></trkpt><trkpt lat="43.5280043" lon="10.8946915"><ele>376.79999999999995</ele><time>2026-05-03T15:03:09.562Z</time></trkpt><trkpt lat="43.5279844" lon="10.8945405"><ele>373.20000000000005</ele><time>2026-05-03T15:03:10.562Z</time></trkpt><trkpt lat="43.5279745" lon="10.8944034"><ele>369.6</ele><time>2026-05-03T15:03:11.563Z</time></trkpt><trkpt lat="43.5279843" lon="10.8942633"><ele>366.0</ele><time>2026-05-03T15:03:12.562Z</time></trkpt><trkpt lat="43.5280216" lon="10.8941387"><ele>363.25</ele><time>2026-05-03T15:03:13.562Z</time></trkpt><trkpt lat="43.5280997" lon="10.8940308"><ele>360.5</ele><time>2026-05-03T15:03:14.562Z</time></trkpt><trkpt lat="43.5281965" lon="10.8939395"><ele>357.75</ele><time>2026-05-03T15:03:15.563Z</time></trkpt><trkpt lat="43.5283006" lon="10.8938374"><ele>355.0</ele><time>2026-05-03T15:03:16.563Z</time></trkpt><trkpt lat="43.5285297" lon="10.8936001"><ele>355.0</ele><time>2026-05-03T15:03:18.561Z</time></trkpt><trkpt lat="43.5286585" lon="10.8934737"><ele>355.0</ele><time>2026-05-03T15:03:19.563Z</time></trkpt><trkpt lat="43.5287786" lon="10.8933514"><ele>355.0</ele><time>2026-05-03T15:03:20.564Z</time></trkpt><trkpt lat="43.5288962" lon="10.8932298"><ele>352.5</ele><time>2026-05-03T15:03:21.563Z</time></trkpt><trkpt lat="43.5290134" lon="10.8931212"><ele>350.0</ele><time>2026-05-03T15:03:22.562Z</time></trkpt><trkpt lat="43.5291328" lon="10.8930099"><ele>347.5</ele><time>2026-05-03T15:03:23.562Z</time></trkpt><trkpt lat="43.5292674" lon="10.8929038"><ele>345.0</ele><time>2026-05-03T15:03:24.563Z</time></trkpt><trkpt lat="43.5294103" lon="10.8928065"><ele>345.0</ele><time>2026-05-03T15:03:25.563Z</time></trkpt><trkpt lat="43.5295581" lon="10.8927172"><ele>345.0</ele><time>2026-05-03T15:03:26.563Z</time></trkpt><trkpt lat="43.5297224" lon="10.8926449"><ele>345.0</ele><time>2026-05-03T15:03:27.563Z</time></trkpt><trkpt lat="43.5298915" lon="10.892586"><ele>345.0</ele><time>2026-05-03T15:03:28.563Z</time></trkpt><trkpt lat="43.5300548" lon="10.8925452"><ele>345.0</ele><time>2026-05-03T15:03:29.563Z</time></trkpt><trkpt lat="43.5302017" lon="10.8925084"><ele>345.0</ele><time>2026-05-03T15:03:30.563Z</time></trkpt><trkpt lat="43.5303365" lon="10.8924706"><ele>345.5</ele><time>2026-05-03T15:03:31.562Z</time></trkpt><trkpt lat="43.5304599" lon="10.8924258"><ele>346.0</ele><time>2026-05-03T15:03:32.563Z</time></trkpt><trkpt lat="43.5305988" lon="10.8923752"><ele>346.5</ele><time>2026-05-03T15:03:33.562Z</time></trkpt><trkpt lat="43.5307466" lon="10.8923081"><ele>347.0</ele><time>2026-05-03T15:03:34.562Z</time></trkpt><trkpt lat="43.5309118" lon="10.8922543"><ele>347.0</ele><time>2026-05-03T15:03:35.563Z</time></trkpt><trkpt lat="43.531116" lon="10.8921847"><ele>347.0</ele><time>2026-05-03T15:03:36.564Z</time></trkpt><trkpt lat="43.5313173" lon="10.8921282"><ele>347.0</ele><time>2026-05-03T15:03:37.563Z</time></trkpt><trkpt lat="43.5315355" lon="10.8920878"><ele>344.6666666666667</ele><time>2026-05-03T15:03:38.563Z</time></trkpt><trkpt lat="43.5317546" lon="10.8920662"><ele>342.3333333333333</ele><time>2026-05-03T15:03:39.563Z</time></trkpt><trkpt lat="43.5319642" lon="10.892059"><ele>340.0</ele><time>2026-05-03T15:03:40.563Z</time></trkpt><trkpt lat="43.532179" lon="10.8920628"><ele>340.0</ele><time>2026-05-03T15:03:41.562Z</time></trkpt><trkpt lat="43.5323902" lon="10.8920957"><ele>340.0</ele><time>2026-05-03T15:03:42.562Z</time></trkpt><trkpt lat="43.5325959" lon="10.8921437"><ele>340.0</ele><time>2026-05-03T15:03:43.562Z</time></trkpt><trkpt lat="43.5327945" lon="10.8921911"><ele>340.0</ele><time>2026-05-03T15:03:44.562Z</time></trkpt><trkpt lat="43.5329897" lon="10.8922441"><ele>340.0</ele><time>2026-05-03T15:03:45.563Z</time></trkpt><trkpt lat="43.5331699" lon="10.8923032"><ele>340.0</ele><time>2026-05-03T15:03:46.562Z</time></trkpt><trkpt lat="43.5333359" lon="10.8923599"><ele>340.0</ele><time>2026-05-03T15:03:47.563Z</time></trkpt><trkpt lat="43.5334778" lon="10.8923902"><ele>340.0</ele><time>2026-05-03T15:03:48.563Z</time></trkpt><trkpt lat="43.5336329" lon="10.892393"><ele>340.0</ele><time>2026-05-03T15:03:49.563Z</time></trkpt><trkpt lat="43.5337902" lon="10.8923543"><ele>336.3333333333333</ele><time>2026-05-03T15:03:50.564Z</time></trkpt><trkpt lat="43.5339427" lon="10.8922561"><ele>332.6666666666667</ele><time>2026-05-03T15:03:51.562Z</time></trkpt><trkpt lat="43.5340908" lon="10.8920943"><ele>329.0</ele><time>2026-05-03T15:03:52.561Z</time></trkpt><trkpt lat="43.5342367" lon="10.8919094"><ele>333.0</ele><time>2026-05-03T15:03:53.563Z</time></trkpt><trkpt lat="43.5344001" lon="10.8916934"><ele>337.0</ele><time>2026-05-03T15:03:54.563Z</time></trkpt><trkpt lat="43.5345888" lon="10.8914675"><ele>328.5</ele><time>2026-05-03T15:03:55.562Z</time></trkpt><trkpt lat="43.5347783" lon="10.891228"><ele>320.0</ele><time>2026-05-03T15:03:56.563Z</time></trkpt><trkpt lat="43.5349729" lon="10.8909691"><ele>322.5</ele><time>2026-05-03T15:03:57.562Z</time></trkpt><trkpt lat="43.5351773" lon="10.8907094"><ele>325.0</ele><time>2026-05-03T15:03:58.563Z</time></trkpt><trkpt lat="43.5353527" lon="10.8904712"><ele>326.0</ele><time>2026-05-03T15:03:59.562Z</time></trkpt><trkpt lat="43.5355402" lon="10.8902508"><ele>327.0</ele><time>2026-05-03T15:04:00.564Z</time></trkpt><trkpt lat="43.5357143" lon="10.8900365"><ele>327.0</ele><time>2026-05-03T15:04:01.563Z</time></trkpt><trkpt lat="43.5358755" lon="10.8898342"><ele>327.0</ele><time>2026-05-03T15:04:02.563Z</time></trkpt><trkpt lat="43.5360358" lon="10.8896268"><ele>327.0</ele><time>2026-05-03T15:04:03.563Z</time></trkpt><trkpt lat="43.5361992" lon="10.8894241"><ele>328.3333333333333</ele><time>2026-05-03T15:04:04.563Z</time></trkpt><trkpt lat="43.5363898" lon="10.8892632"><ele>329.66666666666663</ele><time>2026-05-03T15:04:05.563Z</time></trkpt><trkpt lat="43.5365772" lon="10.8891271"><ele>331.0</ele><time>2026-05-03T15:04:06.563Z</time></trkpt><trkpt lat="43.5369281" lon="10.8889083"><ele>332.3333333333333</ele><time>2026-05-03T15:04:08.563Z</time></trkpt><trkpt lat="43.537078" lon="10.8887682"><ele>333.6666666666667</ele><time>2026-05-03T15:04:09.564Z</time></trkpt><trkpt lat="43.5372183" lon="10.8885808"><ele>335.0</ele><time>2026-05-03T15:04:10.561Z</time></trkpt><trkpt lat="43.5373546" lon="10.888387"><ele>335.0</ele><time>2026-05-03T15:04:11.564Z</time></trkpt><trkpt lat="43.5374362" lon="10.8881995"><ele>335.0</ele><time>2026-05-03T15:04:12.563Z</time></trkpt><trkpt lat="43.537512" lon="10.8879886"><ele>335.0</ele><time>2026-05-03T15:04:13.564Z</time></trkpt><trkpt lat="43.5375591" lon="10.8877477"><ele>335.33333333333337</ele><time>2026-05-03T15:04:14.562Z</time></trkpt><trkpt lat="43.5375888" lon="10.8874919"><ele>335.6666666666667</ele><time>2026-05-03T15:04:15.562Z</time></trkpt><trkpt lat="43.537605" lon="10.8872217"><ele>336.0</ele><time>2026-05-03T15:04:16.563Z</time></trkpt><trkpt lat="43.5376334" lon="10.8869775"><ele>336.0</ele><time>2026-05-03T15:04:17.562Z</time></trkpt><trkpt lat="43.5376807" lon="10.8867644"><ele>336.0</ele><time>2026-05-03T15:04:18.562Z</time></trkpt><trkpt lat="43.5377591" lon="10.8865712"><ele>336.0</ele><time>2026-05-03T15:04:19.564Z</time></trkpt><trkpt lat="43.5378518" lon="10.8864144"><ele>333.3333333333333</ele><time>2026-05-03T15:04:20.563Z</time></trkpt><trkpt lat="43.5379643" lon="10.8862893"><ele>330.66666666666663</ele><time>2026-05-03T15:04:21.563Z</time></trkpt><trkpt lat="43.5381326" lon="10.886238"><ele>328.0</ele><time>2026-05-03T15:04:22.563Z</time></trkpt><trkpt lat="43.5383044" lon="10.8862028"><ele>328.0</ele><time>2026-05-03T15:04:23.562Z</time></trkpt><trkpt lat="43.5384806" lon="10.8861821"><ele>328.0</ele><time>2026-05-03T15:04:24.563Z</time></trkpt><trkpt lat="43.5386572" lon="10.8861479"><ele>328.0</ele><time>2026-05-03T15:04:25.561Z</time></trkpt><trkpt lat="43.5387961" lon="10.8860929"><ele>330.3333333333333</ele><time>2026-05-03T15:04:26.563Z</time></trkpt><trkpt lat="43.5389496" lon="10.8860141"><ele>332.6666666666667</ele><time>2026-05-03T15:04:27.562Z</time></trkpt><trkpt lat="43.5390889" lon="10.8858853"><ele>335.0</ele><time>2026-05-03T15:04:28.563Z</time></trkpt><trkpt lat="43.5392263" lon="10.8857527"><ele>335.0</ele><time>2026-05-03T15:04:29.563Z</time></trkpt><trkpt lat="43.5393522" lon="10.8855305"><ele>335.0</ele><time>2026-05-03T15:04:30.564Z</time></trkpt><trkpt lat="43.5394714" lon="10.8853305"><ele>335.0</ele><time>2026-05-03T15:04:31.563Z</time></trkpt><trkpt lat="43.5395651" lon="10.8851138"><ele>329.33333333333337</ele><time>2026-05-03T15:04:32.563Z</time></trkpt><trkpt lat="43.5396443" lon="10.8848797"><ele>323.6666666666667</ele><time>2026-05-03T15:04:33.563Z</time></trkpt><trkpt lat="43.5396926" lon="10.8846059"><ele>318.0</ele><time>2026-05-03T15:04:34.563Z</time></trkpt><trkpt lat="43.539729" lon="10.8843136"><ele>320.0</ele><time>2026-05-03T15:04:35.563Z</time></trkpt><trkpt lat="43.539777" lon="10.8839939"><ele>322.0</ele><time>2026-05-03T15:04:36.563Z</time></trkpt><trkpt lat="43.5398362" lon="10.8836418"><ele>321.0</ele><time>2026-05-03T15:04:37.563Z</time></trkpt><trkpt lat="43.5399308" lon="10.8832995"><ele>320.0</ele><time>2026-05-03T15:04:38.562Z</time></trkpt><trkpt lat="43.5400443" lon="10.8829486"><ele>320.0</ele><time>2026-05-03T15:04:39.563Z</time></trkpt><trkpt lat="43.5401497" lon="10.8825987"><ele>320.0</ele><time>2026-05-03T15:04:40.563Z</time></trkpt><trkpt lat="43.5402442" lon="10.8822582"><ele>316.5</ele><time>2026-05-03T15:04:41.564Z</time></trkpt><trkpt lat="43.5403277" lon="10.8819274"><ele>313.0</ele><time>2026-05-03T15:04:42.562Z</time></trkpt><trkpt lat="43.540405" lon="10.8816241"><ele>313.3333333333333</ele><time>2026-05-03T15:04:43.563Z</time></trkpt><trkpt lat="43.5404829" lon="10.8813318"><ele>313.6666666666667</ele><time>2026-05-03T15:04:44.562Z</time></trkpt><trkpt lat="43.5405427" lon="10.8810728"><ele>314.0</ele><time>2026-05-03T15:04:45.563Z</time></trkpt><trkpt lat="43.540599" lon="10.8808387"><ele>314.0</ele><time>2026-05-03T15:04:46.562Z</time></trkpt><trkpt lat="43.5406586" lon="10.8806273"><ele>314.0</ele><time>2026-05-03T15:04:47.562Z</time></trkpt><trkpt lat="43.5407251" lon="10.8804427"><ele>314.0</ele><time>2026-05-03T15:04:48.562Z</time></trkpt><trkpt lat="43.5408231" lon="10.880281"><ele>314.0</ele><time>2026-05-03T15:04:49.563Z</time></trkpt><trkpt lat="43.54096" lon="10.8801574"><ele>314.0</ele><time>2026-05-03T15:04:50.562Z</time></trkpt><trkpt lat="43.5411099" lon="10.880077"><ele>314.0</ele><time>2026-05-03T15:04:51.562Z</time></trkpt><trkpt lat="43.5412857" lon="10.8800263"><ele>317.0</ele><time>2026-05-03T15:04:52.563Z</time></trkpt><trkpt lat="43.5414471" lon="10.8800501"><ele>320.0</ele><time>2026-05-03T15:04:53.562Z</time></trkpt><trkpt lat="43.5416059" lon="10.8800757"><ele>323.0</ele><time>2026-05-03T15:04:54.563Z</time></trkpt><trkpt lat="43.5417448" lon="10.88008"><ele>323.0</ele><time>2026-05-03T15:04:55.562Z</time></trkpt><trkpt lat="43.5418833" lon="10.8800541"><ele>323.0</ele><time>2026-05-03T15:04:56.563Z</time></trkpt><trkpt lat="43.5420081" lon="10.8799815"><ele>323.0</ele><time>2026-05-03T15:04:57.563Z</time></trkpt><trkpt lat="43.5421245" lon="10.8798654"><ele>323.0</ele><time>2026-05-03T15:04:58.563Z</time></trkpt><trkpt lat="43.5422078" lon="10.8796994"><ele>321.0</ele><time>2026-05-03T15:04:59.563Z</time></trkpt><trkpt lat="43.5422948" lon="10.8795197"><ele>319.0</ele><time>2026-05-03T15:05:00.563Z</time></trkpt><trkpt lat="43.5423909" lon="10.8793291"><ele>317.0</ele><time>2026-05-03T15:05:01.563Z</time></trkpt><trkpt lat="43.5425079" lon="10.8791086"><ele>317.0</ele><time>2026-05-03T15:05:02.563Z</time></trkpt><trkpt lat="43.5426321" lon="10.8788617"><ele>317.0</ele><time>2026-05-03T15:05:03.562Z</time></trkpt><trkpt lat="43.542761" lon="10.8786026"><ele>317.0</ele><time>2026-05-03T15:05:04.563Z</time></trkpt><trkpt lat="43.5428893" lon="10.8783301"><ele>311.0</ele><time>2026-05-03T15:05:05.562Z</time></trkpt><trkpt lat="43.5430302" lon="10.8780471"><ele>305.0</ele><time>2026-05-03T15:05:06.563Z</time></trkpt><trkpt lat="43.5431736" lon="10.8777648"><ele>307.0</ele><time>2026-05-03T15:05:07.563Z</time></trkpt><trkpt lat="43.5433173" lon="10.8774883"><ele>309.0</ele><time>2026-05-03T15:05:08.563Z</time></trkpt><trkpt lat="43.5434522" lon="10.8772232"><ele>309.0</ele><time>2026-05-03T15:05:09.563Z</time></trkpt><trkpt lat="43.5435656" lon="10.8769554"><ele>309.0</ele><time>2026-05-03T15:05:10.562Z</time></trkpt><trkpt lat="43.543671" lon="10.8766676"><ele>309.5</ele><time>2026-05-03T15:05:11.562Z</time></trkpt><trkpt lat="43.5437314" lon="10.8763562"><ele>310.0</ele><time>2026-05-03T15:05:12.562Z</time></trkpt><trkpt lat="43.5437866" lon="10.87604"><ele>307.66666666666663</ele><time>2026-05-03T15:05:13.562Z</time></trkpt><trkpt lat="43.5438263" lon="10.8757482"><ele>305.3333333333333</ele><time>2026-05-03T15:05:14.562Z</time></trkpt><trkpt lat="43.5438545" lon="10.8754593"><ele>303.0</ele><time>2026-05-03T15:05:15.561Z</time></trkpt><trkpt lat="43.5438582" lon="10.8751582"><ele>304.0</ele><time>2026-05-03T15:05:16.564Z</time></trkpt><trkpt lat="43.5438489" lon="10.8748798"><ele>305.0</ele><time>2026-05-03T15:05:17.563Z</time></trkpt><trkpt lat="43.5438333" lon="10.8746101"><ele>306.0</ele><time>2026-05-03T15:05:18.563Z</time></trkpt><trkpt lat="43.5438189" lon="10.8743603"><ele>305.0</ele><time>2026-05-03T15:05:19.564Z</time></trkpt><trkpt lat="43.5438074" lon="10.8741202"><ele>304.0</ele><time>2026-05-03T15:05:20.563Z</time></trkpt><trkpt lat="43.5438139" lon="10.873897"><ele>303.0</ele><time>2026-05-03T15:05:21.563Z</time></trkpt><trkpt lat="43.5438478" lon="10.8736825"><ele>303.0</ele><time>2026-05-03T15:05:22.563Z</time></trkpt><trkpt lat="43.5438963" lon="10.8734643"><ele>303.0</ele><time>2026-05-03T15:05:23.562Z</time></trkpt><trkpt lat="43.5439803" lon="10.8732778"><ele>303.0</ele><time>2026-05-03T15:05:24.563Z</time></trkpt><trkpt lat="43.5440487" lon="10.8730596"><ele>299.0</ele><time>2026-05-03T15:05:25.563Z</time></trkpt><trkpt lat="43.5441061" lon="10.8728376"><ele>295.0</ele><time>2026-05-03T15:05:26.562Z</time></trkpt><trkpt lat="43.5441349" lon="10.8725956"><ele>291.0</ele><time>2026-05-03T15:05:27.563Z</time></trkpt><trkpt lat="43.5441572" lon="10.8723473"><ele>289.0</ele><time>2026-05-03T15:05:28.562Z</time></trkpt><trkpt lat="43.5441682" lon="10.8720746"><ele>287.0</ele><time>2026-05-03T15:05:29.563Z</time></trkpt><trkpt lat="43.5441764" lon="10.8717656"><ele>285.0</ele><time>2026-05-03T15:05:30.563Z</time></trkpt><trkpt lat="43.5441693" lon="10.8714343"><ele>284.0</ele><time>2026-05-03T15:05:31.562Z</time></trkpt><trkpt lat="43.5441574" lon="10.8711052"><ele>283.0</ele><time>2026-05-03T15:05:32.563Z</time></trkpt><trkpt lat="43.5441451" lon="10.8708032"><ele>282.66666666666663</ele><time>2026-05-03T15:05:33.562Z</time></trkpt><trkpt lat="43.5441431" lon="10.8705106"><ele>282.3333333333333</ele><time>2026-05-03T15:05:34.563Z</time></trkpt><trkpt lat="43.544111" lon="10.8702337"><ele>282.0</ele><time>2026-05-03T15:05:35.563Z</time></trkpt><trkpt lat="43.544054" lon="10.8699351"><ele>283.0</ele><time>2026-05-03T15:05:36.562Z</time></trkpt><trkpt lat="43.5439841" lon="10.8696588"><ele>284.0</ele><time>2026-05-03T15:05:37.562Z</time></trkpt><trkpt lat="43.5439116" lon="10.8694033"><ele>285.0</ele><time>2026-05-03T15:05:38.562Z</time></trkpt><trkpt lat="43.543849" lon="10.8691693"><ele>287.0</ele><time>2026-05-03T15:05:39.562Z</time></trkpt><trkpt lat="43.5437929" lon="10.86896"><ele>289.0</ele><time>2026-05-03T15:05:40.563Z</time></trkpt><trkpt lat="43.5437584" lon="10.8687627"><ele>291.0</ele><time>2026-05-03T15:05:41.563Z</time></trkpt><trkpt lat="43.5437495" lon="10.868556"><ele>290.6666666666667</ele><time>2026-05-03T15:05:42.562Z</time></trkpt><trkpt lat="43.5437697" lon="10.8683521"><ele>290.33333333333337</ele><time>2026-05-03T15:05:43.563Z</time></trkpt><trkpt lat="43.5438207" lon="10.8681327"><ele>290.0</ele><time>2026-05-03T15:05:44.561Z</time></trkpt><trkpt lat="43.5438823" lon="10.8679067"><ele>290.0</ele><time>2026-05-03T15:05:45.562Z</time></trkpt><trkpt lat="43.5439402" lon="10.867634"><ele>290.0</ele><time>2026-05-03T15:05:46.562Z</time></trkpt><trkpt lat="43.5439873" lon="10.8673877"><ele>290.0</ele><time>2026-05-03T15:05:47.563Z</time></trkpt><trkpt lat="43.5440399" lon="10.8671897"><ele>289.25</ele><time>2026-05-03T15:05:48.562Z</time></trkpt><trkpt lat="43.5441068" lon="10.8670291"><ele>288.5</ele><time>2026-05-03T15:05:49.563Z</time></trkpt><trkpt lat="43.5441863" lon="10.8668611"><ele>287.75</ele><time>2026-05-03T15:05:50.563Z</time></trkpt><trkpt lat="43.5443058" lon="10.8667108"><ele>287.0</ele><time>2026-05-03T15:05:51.563Z</time></trkpt><trkpt lat="43.5444519" lon="10.8665736"><ele>284.0</ele><time>2026-05-03T15:05:52.562Z</time></trkpt><trkpt lat="43.5446454" lon="10.8664437"><ele>281.0</ele><time>2026-05-03T15:05:53.562Z</time></trkpt><trkpt lat="43.5448384" lon="10.8663034"><ele>278.0</ele><time>2026-05-03T15:05:54.564Z</time></trkpt><trkpt lat="43.5450434" lon="10.8661448"><ele>278.0</ele><time>2026-05-03T15:05:55.562Z</time></trkpt><trkpt lat="43.545256" lon="10.8659936"><ele>278.0</ele><time>2026-05-03T15:05:56.562Z</time></trkpt><trkpt lat="43.5454815" lon="10.8658288"><ele>277.0</ele><time>2026-05-03T15:05:57.562Z</time></trkpt><trkpt lat="43.5456936" lon="10.8656722"><ele>276.0</ele><time>2026-05-03T15:05:58.561Z</time></trkpt><trkpt lat="43.5458915" lon="10.8655261"><ele>276.0</ele><time>2026-05-03T15:05:59.562Z</time></trkpt><trkpt lat="43.5460842" lon="10.8653871"><ele>276.0</ele><time>2026-05-03T15:06:00.563Z</time></trkpt><trkpt lat="43.5462649" lon="10.865226"><ele>276.0</ele><time>2026-05-03T15:06:01.562Z</time></trkpt><trkpt lat="43.5464459" lon="10.8650506"><ele>275.0</ele><time>2026-05-03T15:06:02.563Z</time></trkpt><trkpt lat="43.546628" lon="10.8648612"><ele>274.0</ele><time>2026-05-03T15:06:03.563Z</time></trkpt><trkpt lat="43.5468019" lon="10.86469"><ele>273.0</ele><time>2026-05-03T15:06:04.563Z</time></trkpt><trkpt lat="43.5469734" lon="10.8645214"><ele>270.6666666666667</ele><time>2026-05-03T15:06:05.563Z</time></trkpt><trkpt lat="43.5471221" lon="10.8643636"><ele>268.33333333333337</ele><time>2026-05-03T15:06:06.562Z</time></trkpt><trkpt lat="43.547259" lon="10.8642142"><ele>266.0</ele><time>2026-05-03T15:06:07.562Z</time></trkpt><trkpt lat="43.5473866" lon="10.864052"><ele>265.0</ele><time>2026-05-03T15:06:08.562Z</time></trkpt><trkpt lat="43.5474974" lon="10.8638594"><ele>264.0</ele><time>2026-05-03T15:06:09.564Z</time></trkpt><trkpt lat="43.5475921" lon="10.8636251"><ele>263.0</ele><time>2026-05-03T15:06:10.563Z</time></trkpt><trkpt lat="43.5476799" lon="10.8633664"><ele>261.0</ele><time>2026-05-03T15:06:11.563Z</time></trkpt><trkpt lat="43.5477617" lon="10.8630976"><ele>259.0</ele><time>2026-05-03T15:06:12.563Z</time></trkpt><trkpt lat="43.5478472" lon="10.8628346"><ele>257.0</ele><time>2026-05-03T15:06:13.563Z</time></trkpt><trkpt lat="43.5479296" lon="10.8625853"><ele>261.0</ele><time>2026-05-03T15:06:14.563Z</time></trkpt><trkpt lat="43.5480107" lon="10.8623371"><ele>265.0</ele><time>2026-05-03T15:06:15.563Z</time></trkpt><trkpt lat="43.5480915" lon="10.8620915"><ele>269.0</ele><time>2026-05-03T15:06:16.563Z</time></trkpt><trkpt lat="43.548171" lon="10.8618488"><ele>267.6666666666667</ele><time>2026-05-03T15:06:17.563Z</time></trkpt><trkpt lat="43.5482441" lon="10.8616112"><ele>266.3333333333333</ele><time>2026-05-03T15:06:18.563Z</time></trkpt><trkpt lat="43.5483218" lon="10.8613647"><ele>265.0</ele><time>2026-05-03T15:06:19.561Z</time></trkpt><trkpt lat="43.5484065" lon="10.8611134"><ele>264.3333333333333</ele><time>2026-05-03T15:06:20.562Z</time></trkpt><trkpt lat="43.5484881" lon="10.8608781"><ele>263.6666666666667</ele><time>2026-05-03T15:06:21.562Z</time></trkpt><trkpt lat="43.548561" lon="10.8606613"><ele>263.0</ele><time>2026-05-03T15:06:22.563Z</time></trkpt><trkpt lat="43.548619" lon="10.8604629"><ele>263.0</ele><time>2026-05-03T15:06:23.564Z</time></trkpt><trkpt lat="43.548668" lon="10.8602815"><ele>263.0</ele><time>2026-05-03T15:06:24.563Z</time></trkpt><trkpt lat="43.548705" lon="10.860114"><ele>263.0</ele><time>2026-05-03T15:06:25.562Z</time></trkpt><trkpt lat="43.5487296" lon="10.8599543"><ele>263.0</ele><time>2026-05-03T15:06:26.562Z</time></trkpt><trkpt lat="43.5487428" lon="10.8597835"><ele>263.0</ele><time>2026-05-03T15:06:27.563Z</time></trkpt><trkpt lat="43.5487544" lon="10.8595836"><ele>263.0</ele><time>2026-05-03T15:06:28.561Z</time></trkpt><trkpt lat="43.548775" lon="10.859359"><ele>263.0</ele><time>2026-05-03T15:06:29.561Z</time></trkpt><trkpt lat="43.5487943" lon="10.8591447"><ele>261.0</ele><time>2026-05-03T15:06:30.562Z</time></trkpt><trkpt lat="43.5488001" lon="10.8589218"><ele>259.0</ele><time>2026-05-03T15:06:31.562Z</time></trkpt><trkpt lat="43.5488067" lon="10.8587082"><ele>257.0</ele><time>2026-05-03T15:06:32.563Z</time></trkpt><trkpt lat="43.5488094" lon="10.858502"><ele>255.0</ele><time>2026-05-03T15:06:33.561Z</time></trkpt><trkpt lat="43.5488157" lon="10.8583075"><ele>253.0</ele><time>2026-05-03T15:06:34.563Z</time></trkpt><trkpt lat="43.5488319" lon="10.858133"><ele>251.0</ele><time>2026-05-03T15:06:35.563Z</time></trkpt><trkpt lat="43.5488675" lon="10.8579636"><ele>249.0</ele><time>2026-05-03T15:06:36.562Z</time></trkpt><trkpt lat="43.5489339" lon="10.8578069"><ele>249.0</ele><time>2026-05-03T15:06:37.563Z</time></trkpt><trkpt lat="43.5490243" lon="10.8576684"><ele>249.0</ele><time>2026-05-03T15:06:38.562Z</time></trkpt><trkpt lat="43.5491382" lon="10.8575604"><ele>249.0</ele><time>2026-05-03T15:06:39.563Z</time></trkpt><trkpt lat="43.5492726" lon="10.8574808"><ele>249.0</ele><time>2026-05-03T15:06:40.563Z</time></trkpt><trkpt lat="43.5494127" lon="10.8574217"><ele>249.5</ele><time>2026-05-03T15:06:41.562Z</time></trkpt><trkpt lat="43.5495532" lon="10.857366"><ele>250.0</ele><time>2026-05-03T15:06:42.562Z</time></trkpt><trkpt lat="43.5496817" lon="10.8572923"><ele>250.5</ele><time>2026-05-03T15:06:43.563Z</time></trkpt><trkpt lat="43.5497988" lon="10.8572061"><ele>251.0</ele><time>2026-05-03T15:06:44.561Z</time></trkpt><trkpt lat="43.5498988" lon="10.8570935"><ele>251.0</ele><time>2026-05-03T15:06:45.563Z</time></trkpt><trkpt lat="43.5499779" lon="10.8569499"><ele>251.0</ele><time>2026-05-03T15:06:46.562Z</time></trkpt><trkpt lat="43.5500362" lon="10.8567977"><ele>251.0</ele><time>2026-05-03T15:06:47.562Z</time></trkpt><trkpt lat="43.5500815" lon="10.8566575"><ele>251.0</ele><time>2026-05-03T15:06:48.562Z</time></trkpt><trkpt lat="43.5500997" lon="10.8565363"><ele>251.50000000000003</ele><time>2026-05-03T15:06:49.563Z</time></trkpt><trkpt lat="43.5501096" lon="10.8564318"><ele>252.0</ele><time>2026-05-03T15:06:50.563Z</time></trkpt><trkpt lat="43.5501161" lon="10.8563436"><ele>252.5</ele><time>2026-05-03T15:06:51.564Z</time></trkpt><trkpt lat="43.5501261" lon="10.8562152"><ele>253.0</ele><time>2026-05-03T15:06:53.563Z</time></trkpt><trkpt lat="43.5501604" lon="10.8561101"><ele>253.50000000000003</ele><time>2026-05-03T15:06:55.563Z</time></trkpt><trkpt lat="43.5501966" lon="10.8560311"><ele>254.0</ele><time>2026-05-03T15:06:57.563Z</time></trkpt><trkpt lat="43.5502168" lon="10.8558661"><ele>254.0</ele><time>2026-05-03T15:06:59.563Z</time></trkpt><trkpt lat="43.5502056" lon="10.855751"><ele>253.99999999999997</ele><time>2026-05-03T15:07:00.563Z</time></trkpt><trkpt lat="43.5502188" lon="10.8556205"><ele>253.99999999999997</ele><time>2026-05-03T15:07:01.562Z</time></trkpt><trkpt lat="43.55026" lon="10.8554827"><ele>254.0</ele><time>2026-05-03T15:07:02.561Z</time></trkpt><trkpt lat="43.550322" lon="10.8553311"><ele>254.0</ele><time>2026-05-03T15:07:03.563Z</time></trkpt><trkpt lat="43.5503968" lon="10.8551649"><ele>255.0</ele><time>2026-05-03T15:07:04.562Z</time></trkpt><trkpt lat="43.5504851" lon="10.8549473"><ele>256.0</ele><time>2026-05-03T15:07:05.563Z</time></trkpt><trkpt lat="43.5505829" lon="10.8547263"><ele>257.0</ele><time>2026-05-03T15:07:06.563Z</time></trkpt><trkpt lat="43.5506818" lon="10.854482"><ele>256.33333333333337</ele><time>2026-05-03T15:07:07.563Z</time></trkpt><trkpt lat="43.5507891" lon="10.8542397"><ele>255.66666666666669</ele><time>2026-05-03T15:07:08.563Z</time></trkpt><trkpt lat="43.5509084" lon="10.8540105"><ele>255.0</ele><time>2026-05-03T15:07:09.561Z</time></trkpt><trkpt lat="43.5510338" lon="10.8537857"><ele>255.0</ele><time>2026-05-03T15:07:10.563Z</time></trkpt><trkpt lat="43.5511645" lon="10.8535832"><ele>255.0</ele><time>2026-05-03T15:07:11.563Z</time></trkpt><trkpt lat="43.5512934" lon="10.8533765"><ele>255.0</ele><time>2026-05-03T15:07:12.563Z</time></trkpt><trkpt lat="43.5514291" lon="10.8531757"><ele>253.66666666666669</ele><time>2026-05-03T15:07:13.564Z</time></trkpt><trkpt lat="43.5515659" lon="10.8529738"><ele>252.33333333333334</ele><time>2026-05-03T15:07:14.563Z</time></trkpt><trkpt lat="43.5516989" lon="10.8527782"><ele>251.0</ele><time>2026-05-03T15:07:15.561Z</time></trkpt><trkpt lat="43.5518307" lon="10.8525781"><ele>251.0</ele><time>2026-05-03T15:07:16.563Z</time></trkpt><trkpt lat="43.5519613" lon="10.8523787"><ele>251.0</ele><time>2026-05-03T15:07:17.563Z</time></trkpt><trkpt lat="43.5521009" lon="10.852164"><ele>251.0</ele><time>2026-05-03T15:07:18.562Z</time></trkpt><trkpt lat="43.5522313" lon="10.8519528"><ele>246.33333333333334</ele><time>2026-05-03T15:07:19.563Z</time></trkpt><trkpt lat="43.552365" lon="10.8517397"><ele>241.66666666666669</ele><time>2026-05-03T15:07:20.563Z</time></trkpt><trkpt lat="43.5524916" lon="10.8515305"><ele>237.0</ele><time>2026-05-03T15:07:21.562Z</time></trkpt><trkpt lat="43.5526131" lon="10.8513265"><ele>237.0</ele><time>2026-05-03T15:07:22.564Z</time></trkpt><trkpt lat="43.5527352" lon="10.851139"><ele>237.0</ele><time>2026-05-03T15:07:23.563Z</time></trkpt><trkpt lat="43.5528646" lon="10.8509688"><ele>237.0</ele><time>2026-05-03T15:07:24.562Z</time></trkpt><trkpt lat="43.5531473" lon="10.8507264"><ele>234.66666666666669</ele><time>2026-05-03T15:07:26.563Z</time></trkpt><trkpt lat="43.5533002" lon="10.8506608"><ele>232.33333333333334</ele><time>2026-05-03T15:07:27.562Z</time></trkpt><trkpt lat="43.5534616" lon="10.8506339"><ele>230.0</ele><time>2026-05-03T15:07:28.563Z</time></trkpt><trkpt lat="43.5536254" lon="10.8506416"><ele>227.0</ele><time>2026-05-03T15:07:29.562Z</time></trkpt><trkpt lat="43.5537892" lon="10.8506751"><ele>224.0</ele><time>2026-05-03T15:07:30.562Z</time></trkpt><trkpt lat="43.5539575" lon="10.8507041"><ele>221.0</ele><time>2026-05-03T15:07:31.562Z</time></trkpt><trkpt lat="43.5541306" lon="10.850697"><ele>221.0</ele><time>2026-05-03T15:07:32.562Z</time></trkpt><trkpt lat="43.5542971" lon="10.8506514"><ele>221.0</ele><time>2026-05-03T15:07:33.563Z</time></trkpt><trkpt lat="43.5544564" lon="10.8505719"><ele>221.0</ele><time>2026-05-03T15:07:34.563Z</time></trkpt><trkpt lat="43.5546071" lon="10.8504607"><ele>218.0</ele><time>2026-05-03T15:07:35.561Z</time></trkpt><trkpt lat="43.5547606" lon="10.8503269"><ele>215.0</ele><time>2026-05-03T15:07:36.562Z</time></trkpt><trkpt lat="43.554915" lon="10.8501958"><ele>212.0</ele><time>2026-05-03T15:07:37.563Z</time></trkpt><trkpt lat="43.5550686" lon="10.8500486"><ele>212.0</ele><time>2026-05-03T15:07:38.561Z</time></trkpt><trkpt lat="43.5552161" lon="10.8498788"><ele>212.0</ele><time>2026-05-03T15:07:39.562Z</time></trkpt><trkpt lat="43.5553436" lon="10.8496903"><ele>212.0</ele><time>2026-05-03T15:07:40.562Z</time></trkpt><trkpt lat="43.5554596" lon="10.8494839"><ele>213.33333333333334</ele><time>2026-05-03T15:07:41.563Z</time></trkpt><trkpt lat="43.5555658" lon="10.8492774"><ele>214.66666666666669</ele><time>2026-05-03T15:07:42.562Z</time></trkpt><trkpt lat="43.5556757" lon="10.8490956"><ele>216.0</ele><time>2026-05-03T15:07:43.562Z</time></trkpt><trkpt lat="43.555795" lon="10.8489368"><ele>216.0</ele><time>2026-05-03T15:07:44.562Z</time></trkpt><trkpt lat="43.5559311" lon="10.8488086"><ele>216.0</ele><time>2026-05-03T15:07:45.564Z</time></trkpt><trkpt lat="43.5560752" lon="10.8486925"><ele>216.0</ele><time>2026-05-03T15:07:46.563Z</time></trkpt><trkpt lat="43.5562293" lon="10.8485862"><ele>216.66666666666669</ele><time>2026-05-03T15:07:47.563Z</time></trkpt><trkpt lat="43.5563814" lon="10.8484971"><ele>217.33333333333334</ele><time>2026-05-03T15:07:48.562Z</time></trkpt><trkpt lat="43.5565314" lon="10.8484423"><ele>218.0</ele><time>2026-05-03T15:07:49.562Z</time></trkpt><trkpt lat="43.5566816" lon="10.8484246"><ele>216.0</ele><time>2026-05-03T15:07:50.562Z</time></trkpt><trkpt lat="43.556831" lon="10.8484402"><ele>214.0</ele><time>2026-05-03T15:07:51.563Z</time></trkpt><trkpt lat="43.5571479" lon="10.848555"><ele>212.66666666666666</ele><time>2026-05-03T15:07:53.563Z</time></trkpt><trkpt lat="43.5573117" lon="10.8486264"><ele>211.33333333333331</ele><time>2026-05-03T15:07:54.563Z</time></trkpt><trkpt lat="43.5574762" lon="10.8486988"><ele>210.0</ele><time>2026-05-03T15:07:55.562Z</time></trkpt><trkpt lat="43.55764" lon="10.8487688"><ele>210.0</ele><time>2026-05-03T15:07:56.562Z</time></trkpt><trkpt lat="43.5578025" lon="10.848807"><ele>210.0</ele><time>2026-05-03T15:07:57.563Z</time></trkpt><trkpt lat="43.5579618" lon="10.8488109"><ele>210.0</ele><time>2026-05-03T15:07:58.563Z</time></trkpt><trkpt lat="43.5581189" lon="10.8487747"><ele>207.33333333333331</ele><time>2026-05-03T15:07:59.562Z</time></trkpt><trkpt lat="43.5582779" lon="10.8486964"><ele>204.66666666666666</ele><time>2026-05-03T15:08:00.563Z</time></trkpt><trkpt lat="43.5584222" lon="10.848581"><ele>202.0</ele><time>2026-05-03T15:08:01.562Z</time></trkpt><trkpt lat="43.558537" lon="10.8484259"><ele>201.33333333333331</ele><time>2026-05-03T15:08:02.562Z</time></trkpt><trkpt lat="43.5586305" lon="10.8482386"><ele>200.66666666666669</ele><time>2026-05-03T15:08:03.562Z</time></trkpt><trkpt lat="43.5586958" lon="10.8480221"><ele>200.0</ele><time>2026-05-03T15:08:04.561Z</time></trkpt><trkpt lat="43.5587349" lon="10.847771"><ele>200.33333333333334</ele><time>2026-05-03T15:08:05.562Z</time></trkpt><trkpt lat="43.5587761" lon="10.8474922"><ele>200.66666666666669</ele><time>2026-05-03T15:08:06.562Z</time></trkpt><trkpt lat="43.5588215" lon="10.8471878"><ele>201.0</ele><time>2026-05-03T15:08:07.561Z</time></trkpt><trkpt lat="43.5588755" lon="10.8468829"><ele>199.0</ele><time>2026-05-03T15:08:08.563Z</time></trkpt><trkpt lat="43.5589261" lon="10.8465666"><ele>197.0</ele><time>2026-05-03T15:08:09.563Z</time></trkpt><trkpt lat="43.5589749" lon="10.8462532"><ele>195.66666666666669</ele><time>2026-05-03T15:08:10.564Z</time></trkpt><trkpt lat="43.55902" lon="10.8459509"><ele>194.33333333333331</ele><time>2026-05-03T15:08:11.563Z</time></trkpt><trkpt lat="43.5590588" lon="10.8456603"><ele>193.0</ele><time>2026-05-03T15:08:12.562Z</time></trkpt><trkpt lat="43.5590935" lon="10.8453851"><ele>192.33333333333331</ele><time>2026-05-03T15:08:13.563Z</time></trkpt><trkpt lat="43.559132" lon="10.8451282"><ele>191.66666666666666</ele><time>2026-05-03T15:08:14.563Z</time></trkpt><trkpt lat="43.559184" lon="10.8449007"><ele>191.0</ele><time>2026-05-03T15:08:15.562Z</time></trkpt><trkpt lat="43.5592583" lon="10.8447092"><ele>191.0</ele><time>2026-05-03T15:08:16.561Z</time></trkpt><trkpt lat="43.5593619" lon="10.844556"><ele>191.0</ele><time>2026-05-03T15:08:17.561Z</time></trkpt><trkpt lat="43.5594868" lon="10.8444213"><ele>191.0</ele><time>2026-05-03T15:08:18.562Z</time></trkpt><trkpt lat="43.5596347" lon="10.8442946"><ele>192.0</ele><time>2026-05-03T15:08:19.562Z</time></trkpt><trkpt lat="43.5598002" lon="10.844167"><ele>193.0</ele><time>2026-05-03T15:08:20.562Z</time></trkpt><trkpt lat="43.5599803" lon="10.8440256"><ele>194.0</ele><time>2026-05-03T15:08:21.563Z</time></trkpt><trkpt lat="43.5601776" lon="10.8438727"><ele>191.5</ele><time>2026-05-03T15:08:22.563Z</time></trkpt><trkpt lat="43.5603812" lon="10.843715"><ele>189.0</ele><time>2026-05-03T15:08:23.563Z</time></trkpt><trkpt lat="43.5605938" lon="10.8435438"><ele>189.5</ele><time>2026-05-03T15:08:24.561Z</time></trkpt><trkpt lat="43.5608161" lon="10.8433707"><ele>190.0</ele><time>2026-05-03T15:08:25.563Z</time></trkpt><trkpt lat="43.5610282" lon="10.843209"><ele>190.5</ele><time>2026-05-03T15:08:26.563Z</time></trkpt><trkpt lat="43.5612374" lon="10.8430656"><ele>191.0</ele><time>2026-05-03T15:08:27.563Z</time></trkpt><trkpt lat="43.561439" lon="10.8429466"><ele>191.0</ele><time>2026-05-03T15:08:28.563Z</time></trkpt><trkpt lat="43.5616461" lon="10.8428498"><ele>191.0</ele><time>2026-05-03T15:08:29.562Z</time></trkpt><trkpt lat="43.5618499" lon="10.8427628"><ele>191.0</ele><time>2026-05-03T15:08:30.562Z</time></trkpt><trkpt lat="43.5620395" lon="10.8426776"><ele>193.66666666666666</ele><time>2026-05-03T15:08:31.562Z</time></trkpt><trkpt lat="43.5622083" lon="10.8425967"><ele>196.33333333333331</ele><time>2026-05-03T15:08:32.562Z</time></trkpt><trkpt lat="43.5623597" lon="10.8425181"><ele>199.0</ele><time>2026-05-03T15:08:33.562Z</time></trkpt><trkpt lat="43.5624882" lon="10.8424206"><ele>199.0</ele><time>2026-05-03T15:08:34.563Z</time></trkpt><trkpt lat="43.5626041" lon="10.8422935"><ele>199.0</ele><time>2026-05-03T15:08:35.562Z</time></trkpt><trkpt lat="43.5627124" lon="10.8421275"><ele>199.0</ele><time>2026-05-03T15:08:36.562Z</time></trkpt><trkpt lat="43.5628207" lon="10.8419283"><ele>196.66666666666666</ele><time>2026-05-03T15:08:37.563Z</time></trkpt><trkpt lat="43.5629198" lon="10.8417065"><ele>194.33333333333331</ele><time>2026-05-03T15:08:38.562Z</time></trkpt><trkpt lat="43.5630271" lon="10.8414659"><ele>192.0</ele><time>2026-05-03T15:08:39.561Z</time></trkpt><trkpt lat="43.5631418" lon="10.8412281"><ele>192.0</ele><time>2026-05-03T15:08:40.563Z</time></trkpt><trkpt lat="43.5632467" lon="10.8409904"><ele>192.0</ele><time>2026-05-03T15:08:41.563Z</time></trkpt><trkpt lat="43.5633445" lon="10.8407701"><ele>192.0</ele><time>2026-05-03T15:08:42.562Z</time></trkpt><trkpt lat="43.5634373" lon="10.8405587"><ele>191.66666666666666</ele><time>2026-05-03T15:08:43.562Z</time></trkpt><trkpt lat="43.5635212" lon="10.8403478"><ele>191.33333333333331</ele><time>2026-05-03T15:08:44.562Z</time></trkpt><trkpt lat="43.5635924" lon="10.8401248"><ele>191.0</ele><time>2026-05-03T15:08:45.563Z</time></trkpt><trkpt lat="43.5636558" lon="10.8398879"><ele>190.0</ele><time>2026-05-03T15:08:46.561Z</time></trkpt><trkpt lat="43.5637002" lon="10.8396422"><ele>189.0</ele><time>2026-05-03T15:08:47.562Z</time></trkpt><trkpt lat="43.5637405" lon="10.8393996"><ele>188.0</ele><time>2026-05-03T15:08:48.564Z</time></trkpt><trkpt lat="43.5637769" lon="10.8391491"><ele>186.0</ele><time>2026-05-03T15:08:49.562Z</time></trkpt><trkpt lat="43.5638126" lon="10.8388906"><ele>184.0</ele><time>2026-05-03T15:08:50.562Z</time></trkpt><trkpt lat="43.5638497" lon="10.8386325"><ele>182.0</ele><time>2026-05-03T15:08:51.564Z</time></trkpt><trkpt lat="43.5639014" lon="10.838373"><ele>180.0</ele><time>2026-05-03T15:08:52.562Z</time></trkpt><trkpt lat="43.563969" lon="10.8381252"><ele>178.0</ele><time>2026-05-03T15:08:53.563Z</time></trkpt><trkpt lat="43.5640537" lon="10.8378831"><ele>176.0</ele><time>2026-05-03T15:08:54.563Z</time></trkpt><trkpt lat="43.5641523" lon="10.8376505"><ele>177.66666666666666</ele><time>2026-05-03T15:08:55.563Z</time></trkpt><trkpt lat="43.564253" lon="10.8374169"><ele>179.33333333333334</ele><time>2026-05-03T15:08:56.563Z</time></trkpt><trkpt lat="43.5643498" lon="10.8371888"><ele>181.0</ele><time>2026-05-03T15:08:57.562Z</time></trkpt><trkpt lat="43.5644347" lon="10.8369666"><ele>181.66666666666669</ele><time>2026-05-03T15:08:58.563Z</time></trkpt><trkpt lat="43.5645102" lon="10.8367376"><ele>182.33333333333334</ele><time>2026-05-03T15:08:59.563Z</time></trkpt><trkpt lat="43.5645623" lon="10.8365069"><ele>183.0</ele><time>2026-05-03T15:09:00.563Z</time></trkpt><trkpt lat="43.5645924" lon="10.8362496"><ele>179.66666666666666</ele><time>2026-05-03T15:09:01.563Z</time></trkpt><trkpt lat="43.5646068" lon="10.8359667"><ele>176.33333333333331</ele><time>2026-05-03T15:09:02.563Z</time></trkpt><trkpt lat="43.5646173" lon="10.8356831"><ele>173.0</ele><time>2026-05-03T15:09:03.562Z</time></trkpt><trkpt lat="43.5646375" lon="10.8354067"><ele>173.0</ele><time>2026-05-03T15:09:04.563Z</time></trkpt><trkpt lat="43.5646816" lon="10.8351594"><ele>173.0</ele><time>2026-05-03T15:09:05.563Z</time></trkpt><trkpt lat="43.5647487" lon="10.8349104"><ele>173.0</ele><time>2026-05-03T15:09:06.562Z</time></trkpt><trkpt lat="43.564828" lon="10.8346527"><ele>170.5</ele><time>2026-05-03T15:09:07.563Z</time></trkpt><trkpt lat="43.5649168" lon="10.8343705"><ele>168.0</ele><time>2026-05-03T15:09:08.562Z</time></trkpt><trkpt lat="43.5650056" lon="10.8340568"><ele>164.0</ele><time>2026-05-03T15:09:09.562Z</time></trkpt><trkpt lat="43.5651094" lon="10.8337517"><ele>160.0</ele><time>2026-05-03T15:09:10.563Z</time></trkpt><trkpt lat="43.56521" lon="10.8334373"><ele>159.5</ele><time>2026-05-03T15:09:11.562Z</time></trkpt><trkpt lat="43.5653075" lon="10.8331365"><ele>159.0</ele><time>2026-05-03T15:09:12.561Z</time></trkpt><trkpt lat="43.5653954" lon="10.8328474"><ele>158.0</ele><time>2026-05-03T15:09:13.563Z</time></trkpt><trkpt lat="43.5654792" lon="10.8325724"><ele>157.0</ele><time>2026-05-03T15:09:14.562Z</time></trkpt><trkpt lat="43.5655598" lon="10.8323116"><ele>156.0</ele><time>2026-05-03T15:09:15.563Z</time></trkpt><trkpt lat="43.5656498" lon="10.8320609"><ele>156.0</ele><time>2026-05-03T15:09:16.563Z</time></trkpt><trkpt lat="43.5657558" lon="10.8318166"><ele>156.0</ele><time>2026-05-03T15:09:17.561Z</time></trkpt><trkpt lat="43.5658677" lon="10.831572"><ele>156.0</ele><time>2026-05-03T15:09:18.563Z</time></trkpt><trkpt lat="43.5659869" lon="10.8313236"><ele>153.5</ele><time>2026-05-03T15:09:19.563Z</time></trkpt><trkpt lat="43.5661089" lon="10.8310731"><ele>151.0</ele><time>2026-05-03T15:09:20.562Z</time></trkpt><trkpt lat="43.5663424" lon="10.8306107"><ele>148.33333333333334</ele><time>2026-05-03T15:09:22.563Z</time></trkpt><trkpt lat="43.566469" lon="10.8303939"><ele>145.66666666666666</ele><time>2026-05-03T15:09:23.563Z</time></trkpt><trkpt lat="43.5666122" lon="10.8302175"><ele>143.0</ele><time>2026-05-03T15:09:24.562Z</time></trkpt><trkpt lat="43.5667548" lon="10.8300594"><ele>144.0</ele><time>2026-05-03T15:09:25.561Z</time></trkpt><trkpt lat="43.5669203" lon="10.8299131"><ele>145.0</ele><time>2026-05-03T15:09:26.563Z</time></trkpt><trkpt lat="43.5670849" lon="10.8297735"><ele>146.0</ele><time>2026-05-03T15:09:27.563Z</time></trkpt><trkpt lat="43.5672479" lon="10.8296341"><ele>146.0</ele><time>2026-05-03T15:09:28.562Z</time></trkpt><trkpt lat="43.5674166" lon="10.8294914"><ele>146.0</ele><time>2026-05-03T15:09:29.564Z</time></trkpt><trkpt lat="43.5675648" lon="10.8293379"><ele>146.0</ele><time>2026-05-03T15:09:30.562Z</time></trkpt><trkpt lat="43.5676933" lon="10.8291443"><ele>145.66666666666666</ele><time>2026-05-03T15:09:31.562Z</time></trkpt><trkpt lat="43.5678028" lon="10.8289137"><ele>145.33333333333334</ele><time>2026-05-03T15:09:32.562Z</time></trkpt><trkpt lat="43.567888" lon="10.828657"><ele>145.0</ele><time>2026-05-03T15:09:33.563Z</time></trkpt><trkpt lat="43.5679641" lon="10.8283751"><ele>148.0</ele><time>2026-05-03T15:09:34.563Z</time></trkpt><trkpt lat="43.5680397" lon="10.8280901"><ele>151.0</ele><time>2026-05-03T15:09:35.562Z</time></trkpt><trkpt lat="43.5681057" lon="10.8278028"><ele>154.0</ele><time>2026-05-03T15:09:36.563Z</time></trkpt><trkpt lat="43.5681566" lon="10.8275106"><ele>154.0</ele><time>2026-05-03T15:09:37.562Z</time></trkpt><trkpt lat="43.5682072" lon="10.8272043"><ele>154.0</ele><time>2026-05-03T15:09:38.563Z</time></trkpt><trkpt lat="43.568255" lon="10.8268883"><ele>151.5</ele><time>2026-05-03T15:09:39.562Z</time></trkpt><trkpt lat="43.5683021" lon="10.8265801"><ele>149.0</ele><time>2026-05-03T15:09:40.563Z</time></trkpt><trkpt lat="43.5683438" lon="10.8262785"><ele>149.0</ele><time>2026-05-03T15:09:41.563Z</time></trkpt><trkpt lat="43.5683822" lon="10.825988"><ele>149.0</ele><time>2026-05-03T15:09:42.562Z</time></trkpt><trkpt lat="43.568445" lon="10.8257113"><ele>149.0</ele><time>2026-05-03T15:09:43.562Z</time></trkpt><trkpt lat="43.5685393" lon="10.825439"><ele>143.0</ele><time>2026-05-03T15:09:44.562Z</time></trkpt><trkpt lat="43.568805" lon="10.8249451"><ele>137.0</ele><time>2026-05-03T15:09:46.562Z</time></trkpt><trkpt lat="43.5689698" lon="10.8247011"><ele>137.0</ele><time>2026-05-03T15:09:47.562Z</time></trkpt><trkpt lat="43.5691213" lon="10.8244631"><ele>137.0</ele><time>2026-05-03T15:09:48.563Z</time></trkpt><trkpt lat="43.5692606" lon="10.8242352"><ele>137.0</ele><time>2026-05-03T15:09:49.561Z</time></trkpt><trkpt lat="43.5693935" lon="10.8240224"><ele>136.33333333333331</ele><time>2026-05-03T15:09:50.562Z</time></trkpt><trkpt lat="43.5695151" lon="10.8238068"><ele>135.66666666666666</ele><time>2026-05-03T15:09:51.563Z</time></trkpt><trkpt lat="43.5696269" lon="10.8235817"><ele>135.0</ele><time>2026-05-03T15:09:52.562Z</time></trkpt><trkpt lat="43.5697242" lon="10.8233406"><ele>135.0</ele><time>2026-05-03T15:09:53.563Z</time></trkpt><trkpt lat="43.569806" lon="10.8230841"><ele>135.0</ele><time>2026-05-03T15:09:54.561Z</time></trkpt><trkpt lat="43.5698795" lon="10.8228141"><ele>135.0</ele><time>2026-05-03T15:09:55.562Z</time></trkpt><trkpt lat="43.5699356" lon="10.8225375"><ele>135.33333333333334</ele><time>2026-05-03T15:09:56.562Z</time></trkpt><trkpt lat="43.56998" lon="10.8222561"><ele>135.66666666666669</ele><time>2026-05-03T15:09:57.563Z</time></trkpt><trkpt lat="43.5700291" lon="10.8219755"><ele>136.0</ele><time>2026-05-03T15:09:58.561Z</time></trkpt><trkpt lat="43.5700891" lon="10.821706"><ele>136.33333333333334</ele><time>2026-05-03T15:09:59.562Z</time></trkpt><trkpt lat="43.5701564" lon="10.8214504"><ele>136.66666666666666</ele><time>2026-05-03T15:10:00.562Z</time></trkpt><trkpt lat="43.5702235" lon="10.8212137"><ele>137.0</ele><time>2026-05-03T15:10:01.562Z</time></trkpt><trkpt lat="43.570304" lon="10.8209891"><ele>132.66666666666666</ele><time>2026-05-03T15:10:02.562Z</time></trkpt><trkpt lat="43.5704069" lon="10.8207893"><ele>128.33333333333334</ele><time>2026-05-03T15:10:03.561Z</time></trkpt><trkpt lat="43.5705305" lon="10.820617"><ele>124.0</ele><time>2026-05-03T15:10:04.562Z</time></trkpt><trkpt lat="43.5706622" lon="10.8204732"><ele>124.0</ele><time>2026-05-03T15:10:05.563Z</time></trkpt><trkpt lat="43.5708054" lon="10.8203615"><ele>124.0</ele><time>2026-05-03T15:10:06.563Z</time></trkpt><trkpt lat="43.5709653" lon="10.8202906"><ele>124.0</ele><time>2026-05-03T15:10:07.562Z</time></trkpt><trkpt lat="43.5711397" lon="10.8202672"><ele>120.0</ele><time>2026-05-03T15:10:08.562Z</time></trkpt><trkpt lat="43.5713256" lon="10.8202527"><ele>116.0</ele><time>2026-05-03T15:10:09.562Z</time></trkpt><trkpt lat="43.5715216" lon="10.8202246"><ele>112.0</ele><time>2026-05-03T15:10:10.562Z</time></trkpt><trkpt lat="43.571723" lon="10.8201957"><ele>112.0</ele><time>2026-05-03T15:10:11.561Z</time></trkpt><trkpt lat="43.5719161" lon="10.8201868"><ele>112.0</ele><time>2026-05-03T15:10:12.562Z</time></trkpt><trkpt lat="43.5721019" lon="10.8201835"><ele>112.0</ele><time>2026-05-03T15:10:13.562Z</time></trkpt><trkpt lat="43.5722697" lon="10.8201659"><ele>114.0</ele><time>2026-05-03T15:10:14.562Z</time></trkpt><trkpt lat="43.5724336" lon="10.8201254"><ele>116.0</ele><time>2026-05-03T15:10:15.562Z</time></trkpt><trkpt lat="43.5725746" lon="10.8200527"><ele>118.0</ele><time>2026-05-03T15:10:16.562Z</time></trkpt><trkpt lat="43.5726986" lon="10.8199335"><ele>118.0</ele><time>2026-05-03T15:10:17.563Z</time></trkpt><trkpt lat="43.5727993" lon="10.8197698"><ele>118.0</ele><time>2026-05-03T15:10:18.561Z</time></trkpt><trkpt lat="43.5728838" lon="10.8195629"><ele>118.0</ele><time>2026-05-03T15:10:19.563Z</time></trkpt><trkpt lat="43.572954" lon="10.8193191"><ele>115.0</ele><time>2026-05-03T15:10:20.561Z</time></trkpt><trkpt lat="43.5730143" lon="10.8190501"><ele>112.0</ele><time>2026-05-03T15:10:21.562Z</time></trkpt><trkpt lat="43.5730776" lon="10.8187627"><ele>109.0</ele><time>2026-05-03T15:10:22.562Z</time></trkpt><trkpt lat="43.5731393" lon="10.8184653"><ele>107.0</ele><time>2026-05-03T15:10:23.563Z</time></trkpt><trkpt lat="43.5731959" lon="10.8181586"><ele>105.0</ele><time>2026-05-03T15:10:24.563Z</time></trkpt><trkpt lat="43.5732529" lon="10.8178511"><ele>102.5</ele><time>2026-05-03T15:10:25.563Z</time></trkpt><trkpt lat="43.5733125" lon="10.817536"><ele>100.0</ele><time>2026-05-03T15:10:26.563Z</time></trkpt><trkpt lat="43.5733679" lon="10.8172241"><ele>100.0</ele><time>2026-05-03T15:10:27.562Z</time></trkpt><trkpt lat="43.5734235" lon="10.8169095"><ele>100.0</ele><time>2026-05-03T15:10:28.563Z</time></trkpt><trkpt lat="43.5734793" lon="10.8165935"><ele>98.5</ele><time>2026-05-03T15:10:29.562Z</time></trkpt><trkpt lat="43.5735478" lon="10.8162919"><ele>97.0</ele><time>2026-05-03T15:10:30.561Z</time></trkpt><trkpt lat="43.5736432" lon="10.8160079"><ele>94.0</ele><time>2026-05-03T15:10:31.562Z</time></trkpt><trkpt lat="43.5737627" lon="10.8157356"><ele>91.0</ele><time>2026-05-03T15:10:32.562Z</time></trkpt><trkpt lat="43.5739047" lon="10.8154659"><ele>91.0</ele><time>2026-05-03T15:10:33.562Z</time></trkpt><trkpt lat="43.5740521" lon="10.8151985"><ele>91.0</ele><time>2026-05-03T15:10:34.562Z</time></trkpt><trkpt lat="43.5741984" lon="10.8149447"><ele>90.0</ele><time>2026-05-03T15:10:35.563Z</time></trkpt><trkpt lat="43.5743357" lon="10.8146926"><ele>89.0</ele><time>2026-05-03T15:10:36.562Z</time></trkpt><trkpt lat="43.574471" lon="10.8144495"><ele>85.0</ele><time>2026-05-03T15:10:37.562Z</time></trkpt><trkpt lat="43.5746113" lon="10.8142091"><ele>81.0</ele><time>2026-05-03T15:10:38.563Z</time></trkpt><trkpt lat="43.5747522" lon="10.8139617"><ele>81.0</ele><time>2026-05-03T15:10:39.561Z</time></trkpt><trkpt lat="43.5748918" lon="10.8137098"><ele>81.0</ele><time>2026-05-03T15:10:40.561Z</time></trkpt><trkpt lat="43.5750287" lon="10.8134534"><ele>82.5</ele><time>2026-05-03T15:10:41.562Z</time></trkpt><trkpt lat="43.575174" lon="10.8131995"><ele>84.0</ele><time>2026-05-03T15:10:42.563Z</time></trkpt><trkpt lat="43.5753171" lon="10.8129462"><ele>82.0</ele><time>2026-05-03T15:10:43.564Z</time></trkpt><trkpt lat="43.5754642" lon="10.8126913"><ele>80.0</ele><time>2026-05-03T15:10:44.561Z</time></trkpt><trkpt lat="43.5756042" lon="10.8124351"><ele>80.0</ele><time>2026-05-03T15:10:45.562Z</time></trkpt><trkpt lat="43.5758918" lon="10.8119144"><ele>82.5</ele><time>2026-05-03T15:10:47.563Z</time></trkpt><trkpt lat="43.5760357" lon="10.8116566"><ele>85.0</ele><time>2026-05-03T15:10:48.562Z</time></trkpt><trkpt lat="43.5761802" lon="10.8113953"><ele>81.0</ele><time>2026-05-03T15:10:49.562Z</time></trkpt><trkpt lat="43.5763257" lon="10.8111352"><ele>77.0</ele><time>2026-05-03T15:10:50.561Z</time></trkpt><trkpt lat="43.5764724" lon="10.8108771"><ele>77.0</ele><time>2026-05-03T15:10:51.562Z</time></trkpt><trkpt lat="43.5766113" lon="10.8106228"><ele>77.0</ele><time>2026-05-03T15:10:52.562Z</time></trkpt><trkpt lat="43.5767441" lon="10.8103713"><ele>77.0</ele><time>2026-05-03T15:10:53.562Z</time></trkpt><trkpt lat="43.5768623" lon="10.8101176"><ele>77.0</ele><time>2026-05-03T15:10:54.561Z</time></trkpt><trkpt lat="43.5769663" lon="10.8098511"><ele>77.0</ele><time>2026-05-03T15:10:55.562Z</time></trkpt><trkpt lat="43.5770391" lon="10.8095938"><ele>77.0</ele><time>2026-05-03T15:10:56.563Z</time></trkpt><trkpt lat="43.5770941" lon="10.8093291"><ele>77.0</ele><time>2026-05-03T15:10:57.562Z</time></trkpt><trkpt lat="43.5771518" lon="10.8090617"><ele>77.0</ele><time>2026-05-03T15:10:58.562Z</time></trkpt><trkpt lat="43.577216" lon="10.8087886"><ele>77.0</ele><time>2026-05-03T15:10:59.563Z</time></trkpt><trkpt lat="43.5772824" lon="10.8085086"><ele>77.0</ele><time>2026-05-03T15:11:00.563Z</time></trkpt><trkpt lat="43.5773466" lon="10.8082196"><ele>77.0</ele><time>2026-05-03T15:11:01.563Z</time></trkpt><trkpt lat="43.5774125" lon="10.8079364"><ele>77.33333333333334</ele><time>2026-05-03T15:11:02.562Z</time></trkpt><trkpt lat="43.577475" lon="10.8076467"><ele>77.66666666666667</ele><time>2026-05-03T15:11:03.562Z</time></trkpt><trkpt lat="43.5775252" lon="10.8073482"><ele>78.0</ele><time>2026-05-03T15:11:04.561Z</time></trkpt><trkpt lat="43.5775554" lon="10.8070454"><ele>79.5</ele><time>2026-05-03T15:11:05.562Z</time></trkpt><trkpt lat="43.577563" lon="10.8067305"><ele>81.0</ele><time>2026-05-03T15:11:06.563Z</time></trkpt><trkpt lat="43.57754" lon="10.8064113"><ele>81.0</ele><time>2026-05-03T15:11:07.563Z</time></trkpt><trkpt lat="43.5775052" lon="10.8060762"><ele>81.0</ele><time>2026-05-03T15:11:08.561Z</time></trkpt><trkpt lat="43.5774672" lon="10.8057288"><ele>83.0</ele><time>2026-05-03T15:11:09.562Z</time></trkpt><trkpt lat="43.5774305" lon="10.8053657"><ele>85.0</ele><time>2026-05-03T15:11:10.563Z</time></trkpt><trkpt lat="43.577395" lon="10.8050113"><ele>86.5</ele><time>2026-05-03T15:11:11.563Z</time></trkpt><trkpt lat="43.577354" lon="10.8046794"><ele>88.0</ele><time>2026-05-03T15:11:12.562Z</time></trkpt><trkpt lat="43.5773198" lon="10.8043654"><ele>88.33333333333333</ele><time>2026-05-03T15:11:13.562Z</time></trkpt><trkpt lat="43.5772941" lon="10.8040665"><ele>88.66666666666667</ele><time>2026-05-03T15:11:14.562Z</time></trkpt><trkpt lat="43.5772908" lon="10.8037952"><ele>89.0</ele><time>2026-05-03T15:11:15.563Z</time></trkpt><trkpt lat="43.5773253" lon="10.8035601"><ele>88.0</ele><time>2026-05-03T15:11:16.562Z</time></trkpt><trkpt lat="43.5773875" lon="10.8033424"><ele>87.0</ele><time>2026-05-03T15:11:17.562Z</time></trkpt><trkpt lat="43.5774834" lon="10.8031106"><ele>86.0</ele><time>2026-05-03T15:11:18.564Z</time></trkpt><trkpt lat="43.5775894" lon="10.8028639"><ele>81.5</ele><time>2026-05-03T15:11:19.563Z</time></trkpt><trkpt lat="43.5777086" lon="10.8026061"><ele>77.0</ele><time>2026-05-03T15:11:20.562Z</time></trkpt><trkpt lat="43.5778324" lon="10.8023286"><ele>80.0</ele><time>2026-05-03T15:11:21.562Z</time></trkpt><trkpt lat="43.5779522" lon="10.8020388"><ele>83.0</ele><time>2026-05-03T15:11:22.561Z</time></trkpt><trkpt lat="43.5780742" lon="10.8017449"><ele>83.0</ele><time>2026-05-03T15:11:23.563Z</time></trkpt><trkpt lat="43.5782036" lon="10.8014482"><ele>83.0</ele><time>2026-05-03T15:11:24.561Z</time></trkpt><trkpt lat="43.5783294" lon="10.8011538"><ele>81.0</ele><time>2026-05-03T15:11:25.561Z</time></trkpt><trkpt lat="43.5784539" lon="10.8008635"><ele>79.0</ele><time>2026-05-03T15:11:26.562Z</time></trkpt><trkpt lat="43.5785762" lon="10.8005747"><ele>79.5</ele><time>2026-05-03T15:11:27.562Z</time></trkpt><trkpt lat="43.5786886" lon="10.8002859"><ele>80.0</ele><time>2026-05-03T15:11:28.562Z</time></trkpt><trkpt lat="43.5787766" lon="10.7999852"><ele>80.0</ele><time>2026-05-03T15:11:29.563Z</time></trkpt><trkpt lat="43.5788468" lon="10.7996745"><ele>80.0</ele><time>2026-05-03T15:11:30.563Z</time></trkpt><trkpt lat="43.5789077" lon="10.7993538"><ele>80.0</ele><time>2026-05-03T15:11:31.562Z</time></trkpt><trkpt lat="43.5789687" lon="10.7990355"><ele>80.0</ele><time>2026-05-03T15:11:32.562Z</time></trkpt><trkpt lat="43.5790217" lon="10.7987316"><ele>79.0</ele><time>2026-05-03T15:11:33.563Z</time></trkpt><trkpt lat="43.5790781" lon="10.7984468"><ele>78.0</ele><time>2026-05-03T15:11:34.562Z</time></trkpt><trkpt lat="43.5791485" lon="10.7981837"><ele>77.0</ele><time>2026-05-03T15:11:35.562Z</time></trkpt><trkpt lat="43.5792456" lon="10.7979358"><ele>77.0</ele><time>2026-05-03T15:11:36.563Z</time></trkpt><trkpt lat="43.5793658" lon="10.7977083"><ele>77.0</ele><time>2026-05-03T15:11:37.563Z</time></trkpt><trkpt lat="43.5795039" lon="10.7974841"><ele>77.0</ele><time>2026-05-03T15:11:38.563Z</time></trkpt><trkpt lat="43.5796465" lon="10.7972544"><ele>77.0</ele><time>2026-05-03T15:11:39.563Z</time></trkpt><trkpt lat="43.5797962" lon="10.7970148"><ele>77.0</ele><time>2026-05-03T15:11:40.563Z</time></trkpt><trkpt lat="43.5799459" lon="10.7967748"><ele>77.0</ele><time>2026-05-03T15:11:41.562Z</time></trkpt><trkpt lat="43.5800965" lon="10.7965395"><ele>77.0</ele><time>2026-05-03T15:11:42.561Z</time></trkpt><trkpt lat="43.5802504" lon="10.7963106"><ele>76.0</ele><time>2026-05-03T15:11:43.563Z</time></trkpt><trkpt lat="43.580412" lon="10.7960985"><ele>75.0</ele><time>2026-05-03T15:11:44.563Z</time></trkpt><trkpt lat="43.5805843" lon="10.7959037"><ele>74.0</ele><time>2026-05-03T15:11:45.562Z</time></trkpt><trkpt lat="43.5807641" lon="10.7957132"><ele>74.0</ele><time>2026-05-03T15:11:46.563Z</time></trkpt><trkpt lat="43.5809458" lon="10.7955307"><ele>74.0</ele><time>2026-05-03T15:11:47.562Z</time></trkpt><trkpt lat="43.5811263" lon="10.7953406"><ele>74.0</ele><time>2026-05-03T15:11:48.562Z</time></trkpt><trkpt lat="43.5813107" lon="10.7951508"><ele>74.0</ele><time>2026-05-03T15:11:49.562Z</time></trkpt><trkpt lat="43.5814929" lon="10.7949704"><ele>74.0</ele><time>2026-05-03T15:11:50.561Z</time></trkpt><trkpt lat="43.5816605" lon="10.7947995"><ele>74.0</ele><time>2026-05-03T15:11:51.562Z</time></trkpt><trkpt lat="43.5818127" lon="10.7946141"><ele>74.0</ele><time>2026-05-03T15:11:52.562Z</time></trkpt><trkpt lat="43.5819391" lon="10.7943961"><ele>74.0</ele><time>2026-05-03T15:11:53.563Z</time></trkpt><trkpt lat="43.5820431" lon="10.7941505"><ele>74.0</ele><time>2026-05-03T15:11:54.563Z</time></trkpt><trkpt lat="43.5821282" lon="10.793866"><ele>74.0</ele><time>2026-05-03T15:11:55.562Z</time></trkpt><trkpt lat="43.5822114" lon="10.7935606"><ele>73.0</ele><time>2026-05-03T15:11:56.562Z</time></trkpt><trkpt lat="43.5823094" lon="10.7932359"><ele>72.0</ele><time>2026-05-03T15:11:57.563Z</time></trkpt><trkpt lat="43.5824027" lon="10.7929012"><ele>72.5</ele><time>2026-05-03T15:11:58.562Z</time></trkpt><trkpt lat="43.582497" lon="10.7925594"><ele>73.0</ele><time>2026-05-03T15:11:59.562Z</time></trkpt><trkpt lat="43.5825906" lon="10.7922197"><ele>73.0</ele><time>2026-05-03T15:12:00.563Z</time></trkpt><trkpt lat="43.5826802" lon="10.7918841"><ele>73.0</ele><time>2026-05-03T15:12:01.562Z</time></trkpt><trkpt lat="43.5827713" lon="10.7915531"><ele>74.0</ele><time>2026-05-03T15:12:02.562Z</time></trkpt><trkpt lat="43.5828674" lon="10.7912161"><ele>75.0</ele><time>2026-05-03T15:12:03.562Z</time></trkpt><trkpt lat="43.5829558" lon="10.7908834"><ele>75.0</ele><time>2026-05-03T15:12:04.561Z</time></trkpt><trkpt lat="43.5830478" lon="10.790557"><ele>75.0</ele><time>2026-05-03T15:12:05.562Z</time></trkpt><trkpt lat="43.583135" lon="10.7902344"><ele>73.0</ele><time>2026-05-03T15:12:06.563Z</time></trkpt><trkpt lat="43.5832183" lon="10.7899167"><ele>71.0</ele><time>2026-05-03T15:12:07.561Z</time></trkpt><trkpt lat="43.5832911" lon="10.7895982"><ele>69.5</ele><time>2026-05-03T15:12:08.563Z</time></trkpt><trkpt lat="43.5833387" lon="10.7892666"><ele>68.0</ele><time>2026-05-03T15:12:09.562Z</time></trkpt><trkpt lat="43.583378" lon="10.7889248"><ele>68.0</ele><time>2026-05-03T15:12:10.561Z</time></trkpt><trkpt lat="43.5834184" lon="10.7885671"><ele>68.0</ele><time>2026-05-03T15:12:11.561Z</time></trkpt><trkpt lat="43.5834642" lon="10.7882061"><ele>67.5</ele><time>2026-05-03T15:12:12.561Z</time></trkpt><trkpt lat="43.5835064" lon="10.7878481"><ele>67.0</ele><time>2026-05-03T15:12:13.563Z</time></trkpt><trkpt lat="43.5835456" lon="10.7874861"><ele>67.0</ele><time>2026-05-03T15:12:14.563Z</time></trkpt><trkpt lat="43.5835858" lon="10.7871239"><ele>67.0</ele><time>2026-05-03T15:12:15.563Z</time></trkpt><trkpt lat="43.5836303" lon="10.7867662"><ele>66.5</ele><time>2026-05-03T15:12:16.562Z</time></trkpt><trkpt lat="43.583667" lon="10.7864068"><ele>66.0</ele><time>2026-05-03T15:12:17.562Z</time></trkpt><trkpt lat="43.5836992" lon="10.786033"><ele>66.0</ele><time>2026-05-03T15:12:18.563Z</time></trkpt><trkpt lat="43.5837379" lon="10.7856462"><ele>66.0</ele><time>2026-05-03T15:12:19.563Z</time></trkpt><trkpt lat="43.5837812" lon="10.7852428"><ele>66.5</ele><time>2026-05-03T15:12:20.562Z</time></trkpt><trkpt lat="43.5838376" lon="10.7848423"><ele>67.0</ele><time>2026-05-03T15:12:21.564Z</time></trkpt><trkpt lat="43.5838888" lon="10.784448"><ele>66.5</ele><time>2026-05-03T15:12:22.562Z</time></trkpt><trkpt lat="43.5839359" lon="10.784062"><ele>66.0</ele><time>2026-05-03T15:12:23.562Z</time></trkpt><trkpt lat="43.5839801" lon="10.78369"><ele>66.0</ele><time>2026-05-03T15:12:24.562Z</time></trkpt><trkpt lat="43.5840246" lon="10.7833295"><ele>66.0</ele><time>2026-05-03T15:12:25.563Z</time></trkpt><trkpt lat="43.584064" lon="10.7830007"><ele>66.0</ele><time>2026-05-03T15:12:26.562Z</time></trkpt><trkpt lat="43.5840992" lon="10.7826909"><ele>66.0</ele><time>2026-05-03T15:12:27.562Z</time></trkpt><trkpt lat="43.5841126" lon="10.7824091"><ele>66.0</ele><time>2026-05-03T15:12:28.562Z</time></trkpt><trkpt lat="43.5840969" lon="10.7821157"><ele>66.0</ele><time>2026-05-03T15:12:29.562Z</time></trkpt><trkpt lat="43.5840527" lon="10.781819"><ele>66.0</ele><time>2026-05-03T15:12:30.564Z</time></trkpt><trkpt lat="43.5839699" lon="10.7815324"><ele>66.0</ele><time>2026-05-03T15:12:31.562Z</time></trkpt><trkpt lat="43.5838745" lon="10.7812431"><ele>67.0</ele><time>2026-05-03T15:12:32.562Z</time></trkpt><trkpt lat="43.5837454" lon="10.7809342"><ele>68.0</ele><time>2026-05-03T15:12:33.563Z</time></trkpt><trkpt lat="43.58362" lon="10.7806153"><ele>66.0</ele><time>2026-05-03T15:12:34.562Z</time></trkpt><trkpt lat="43.5835042" lon="10.7803003"><ele>64.0</ele><time>2026-05-03T15:12:35.562Z</time></trkpt><trkpt lat="43.5833715" lon="10.7799695"><ele>64.0</ele><time>2026-05-03T15:12:36.563Z</time></trkpt><trkpt lat="43.5832397" lon="10.7796415"><ele>64.0</ele><time>2026-05-03T15:12:37.563Z</time></trkpt><trkpt lat="43.5831027" lon="10.7793083"><ele>64.5</ele><time>2026-05-03T15:12:38.563Z</time></trkpt><trkpt lat="43.5829651" lon="10.7789825"><ele>65.0</ele><time>2026-05-03T15:12:39.562Z</time></trkpt><trkpt lat="43.5828301" lon="10.7786594"><ele>63.0</ele><time>2026-05-03T15:12:40.562Z</time></trkpt><trkpt lat="43.5826923" lon="10.7783345"><ele>61.0</ele><time>2026-05-03T15:12:41.562Z</time></trkpt><trkpt lat="43.582559" lon="10.7780078"><ele>61.0</ele><time>2026-05-03T15:12:42.563Z</time></trkpt><trkpt lat="43.5824256" lon="10.7776864"><ele>61.0</ele><time>2026-05-03T15:12:43.561Z</time></trkpt><trkpt lat="43.5822898" lon="10.7773674"><ele>61.5</ele><time>2026-05-03T15:12:44.562Z</time></trkpt><trkpt lat="43.5821504" lon="10.7770533"><ele>62.0</ele><time>2026-05-03T15:12:45.562Z</time></trkpt><trkpt lat="43.5820087" lon="10.7767343"><ele>63.0</ele><time>2026-05-03T15:12:46.562Z</time></trkpt><trkpt lat="43.5818623" lon="10.7764292"><ele>64.0</ele><time>2026-05-03T15:12:47.562Z</time></trkpt><trkpt lat="43.5817131" lon="10.7761279"><ele>65.5</ele><time>2026-05-03T15:12:48.562Z</time></trkpt><trkpt lat="43.5815597" lon="10.77583"><ele>67.0</ele><time>2026-05-03T15:12:49.562Z</time></trkpt><trkpt lat="43.5814098" lon="10.7755293"><ele>67.0</ele><time>2026-05-03T15:12:50.563Z</time></trkpt><trkpt lat="43.5812644" lon="10.7752251"><ele>67.0</ele><time>2026-05-03T15:12:51.563Z</time></trkpt><trkpt lat="43.5811162" lon="10.7749176"><ele>66.5</ele><time>2026-05-03T15:12:52.563Z</time></trkpt><trkpt lat="43.5809733" lon="10.7746137"><ele>66.0</ele><time>2026-05-03T15:12:53.562Z</time></trkpt><trkpt lat="43.5808224" lon="10.7743142"><ele>66.0</ele><time>2026-05-03T15:12:54.562Z</time></trkpt><trkpt lat="43.5806737" lon="10.7740128"><ele>66.0</ele><time>2026-05-03T15:12:55.563Z</time></trkpt><trkpt lat="43.580523" lon="10.7737134"><ele>67.5</ele><time>2026-05-03T15:12:56.563Z</time></trkpt><trkpt lat="43.5803713" lon="10.7734159"><ele>69.0</ele><time>2026-05-03T15:12:57.562Z</time></trkpt><trkpt lat="43.5802249" lon="10.7731141"><ele>68.0</ele><time>2026-05-03T15:12:58.563Z</time></trkpt><trkpt lat="43.5800764" lon="10.7728093"><ele>67.0</ele><time>2026-05-03T15:12:59.563Z</time></trkpt><trkpt lat="43.5799247" lon="10.7725058"><ele>67.0</ele><time>2026-05-03T15:13:00.561Z</time></trkpt><trkpt lat="43.5797745" lon="10.7721997"><ele>67.0</ele><time>2026-05-03T15:13:01.563Z</time></trkpt><trkpt lat="43.5796321" lon="10.7718915"><ele>65.0</ele><time>2026-05-03T15:13:02.562Z</time></trkpt><trkpt lat="43.5794852" lon="10.7715843"><ele>63.0</ele><time>2026-05-03T15:13:03.562Z</time></trkpt><trkpt lat="43.5793418" lon="10.7712749"><ele>63.0</ele><time>2026-05-03T15:13:04.563Z</time></trkpt><trkpt lat="43.5791996" lon="10.7709607"><ele>63.0</ele><time>2026-05-03T15:13:05.563Z</time></trkpt><trkpt lat="43.5790573" lon="10.7706504"><ele>63.0</ele><time>2026-05-03T15:13:06.562Z</time></trkpt><trkpt lat="43.5789132" lon="10.7703358"><ele>63.0</ele><time>2026-05-03T15:13:07.561Z</time></trkpt><trkpt lat="43.5787665" lon="10.770023"><ele>62.0</ele><time>2026-05-03T15:13:08.562Z</time></trkpt><trkpt lat="43.5786191" lon="10.7697083"><ele>61.0</ele><time>2026-05-03T15:13:09.562Z</time></trkpt><trkpt lat="43.5784755" lon="10.769387"><ele>62.0</ele><time>2026-05-03T15:13:10.561Z</time></trkpt><trkpt lat="43.5783301" lon="10.7690653"><ele>63.0</ele><time>2026-05-03T15:13:11.561Z</time></trkpt><trkpt lat="43.578183" lon="10.7687402"><ele>62.5</ele><time>2026-05-03T15:13:12.561Z</time></trkpt><trkpt lat="43.5780323" lon="10.7684354"><ele>62.0</ele><time>2026-05-03T15:13:13.562Z</time></trkpt><trkpt lat="43.5778778" lon="10.7681453"><ele>62.5</ele><time>2026-05-03T15:13:14.562Z</time></trkpt><trkpt lat="43.5777023" lon="10.7678718"><ele>63.0</ele><time>2026-05-03T15:13:15.561Z</time></trkpt><trkpt lat="43.5775102" lon="10.7676088"><ele>63.0</ele><time>2026-05-03T15:13:16.562Z</time></trkpt><trkpt lat="43.5773063" lon="10.767354"><ele>63.0</ele><time>2026-05-03T15:13:17.561Z</time></trkpt><trkpt lat="43.5770917" lon="10.7670861"><ele>61.5</ele><time>2026-05-03T15:13:18.561Z</time></trkpt><trkpt lat="43.5768739" lon="10.7668023"><ele>60.0</ele><time>2026-05-03T15:13:19.563Z</time></trkpt><trkpt lat="43.5766435" lon="10.7665092"><ele>60.0</ele><time>2026-05-03T15:13:20.563Z</time></trkpt><trkpt lat="43.5764301" lon="10.7662351"><ele>60.0</ele><time>2026-05-03T15:13:21.563Z</time></trkpt><trkpt lat="43.5762227" lon="10.7659658"><ele>60.0</ele><time>2026-05-03T15:13:22.562Z</time></trkpt><trkpt lat="43.5760242" lon="10.7657082"><ele>60.0</ele><time>2026-05-03T15:13:23.562Z</time></trkpt><trkpt lat="43.5758282" lon="10.7654549"><ele>60.0</ele><time>2026-05-03T15:13:24.562Z</time></trkpt><trkpt lat="43.5756335" lon="10.765204"><ele>60.0</ele><time>2026-05-03T15:13:25.562Z</time></trkpt><trkpt lat="43.5754417" lon="10.7649543"><ele>60.0</ele><time>2026-05-03T15:13:26.563Z</time></trkpt><trkpt lat="43.5752433" lon="10.7647036"><ele>60.0</ele><time>2026-05-03T15:13:27.564Z</time></trkpt><trkpt lat="43.5750489" lon="10.7644498"><ele>62.0</ele><time>2026-05-03T15:13:28.563Z</time></trkpt><trkpt lat="43.5748548" lon="10.7641849"><ele>64.0</ele><time>2026-05-03T15:13:29.562Z</time></trkpt><trkpt lat="43.5746667" lon="10.7639198"><ele>64.0</ele><time>2026-05-03T15:13:30.563Z</time></trkpt><trkpt lat="43.57448" lon="10.7636582"><ele>64.0</ele><time>2026-05-03T15:13:31.562Z</time></trkpt><trkpt lat="43.574304" lon="10.763402"><ele>64.0</ele><time>2026-05-03T15:13:32.564Z</time></trkpt><trkpt lat="43.5741348" lon="10.763158"><ele>64.0</ele><time>2026-05-03T15:13:33.561Z</time></trkpt><trkpt lat="43.5739686" lon="10.7629305"><ele>64.0</ele><time>2026-05-03T15:13:34.563Z</time></trkpt><trkpt lat="43.5738173" lon="10.7627153"><ele>64.0</ele><time>2026-05-03T15:13:35.563Z</time></trkpt><trkpt lat="43.5736856" lon="10.7625255"><ele>64.0</ele><time>2026-05-03T15:13:36.562Z</time></trkpt><trkpt lat="43.5735692" lon="10.762359"><ele>63.6</ele><time>2026-05-03T15:13:37.562Z</time></trkpt><trkpt lat="43.5734747" lon="10.7622198"><ele>63.2</ele><time>2026-05-03T15:13:38.563Z</time></trkpt><trkpt lat="43.57339" lon="10.7620985"><ele>62.800000000000004</ele><time>2026-05-03T15:13:39.563Z</time></trkpt><trkpt lat="43.5733339" lon="10.7619965"><ele>62.400000000000006</ele><time>2026-05-03T15:13:40.562Z</time></trkpt><trkpt lat="43.5733017" lon="10.7619027"><ele>62.0</ele><time>2026-05-03T15:13:41.563Z</time></trkpt><trkpt lat="43.5733024" lon="10.761799"><ele>62.0</ele><time>2026-05-03T15:13:42.561Z</time></trkpt><trkpt lat="43.5733397" lon="10.7616819"><ele>62.0</ele><time>2026-05-03T15:13:43.562Z</time></trkpt><trkpt lat="43.5733901" lon="10.761541"><ele>62.0</ele><time>2026-05-03T15:13:44.561Z</time></trkpt><trkpt lat="43.5734388" lon="10.7613596"><ele>62.0</ele><time>2026-05-03T15:13:45.564Z</time></trkpt><trkpt lat="43.5734904" lon="10.7611518"><ele>63.25</ele><time>2026-05-03T15:13:46.561Z</time></trkpt><trkpt lat="43.5735436" lon="10.7609547"><ele>64.5</ele><time>2026-05-03T15:13:47.561Z</time></trkpt><trkpt lat="43.573592" lon="10.7607884"><ele>65.75</ele><time>2026-05-03T15:13:48.562Z</time></trkpt><trkpt lat="43.5736188" lon="10.7606571"><ele>67.0</ele><time>2026-05-03T15:13:49.561Z</time></trkpt><trkpt lat="43.5736225" lon="10.7605441"><ele>67.0</ele><time>2026-05-03T15:13:50.563Z</time></trkpt><trkpt lat="43.5735974" lon="10.7604579"><ele>67.0</ele><time>2026-05-03T15:13:51.562Z</time></trkpt><trkpt lat="43.5734737" lon="10.7603808"><ele>67.0</ele><time>2026-05-03T15:13:53.562Z</time></trkpt><trkpt lat="43.5733965" lon="10.7603418"><ele>67.0</ele><time>2026-05-03T15:13:54.562Z</time></trkpt><trkpt lat="43.573351" lon="10.7602798"><ele>67.0</ele><time>2026-05-03T15:13:55.561Z</time></trkpt><trkpt lat="43.5733287" lon="10.760183"><ele>67.0</ele><time>2026-05-03T15:13:56.563Z</time></trkpt><trkpt lat="43.573336" lon="10.7600549"><ele>69.0</ele><time>2026-05-03T15:13:57.563Z</time></trkpt><trkpt lat="43.5733689" lon="10.7598967"><ele>71.0</ele><time>2026-05-03T15:13:58.561Z</time></trkpt><trkpt lat="43.5734059" lon="10.7597235"><ele>73.0</ele><time>2026-05-03T15:13:59.562Z</time></trkpt><trkpt lat="43.5734702" lon="10.7595384"><ele>75.0</ele><time>2026-05-03T15:14:00.561Z</time></trkpt><trkpt lat="43.5735355" lon="10.759336"><ele>75.66666666666667</ele><time>2026-05-03T15:14:01.562Z</time></trkpt><trkpt lat="43.5736035" lon="10.7590913"><ele>76.33333333333334</ele><time>2026-05-03T15:14:02.563Z</time></trkpt><trkpt lat="43.5736534" lon="10.7588799"><ele>77.0</ele><time>2026-05-03T15:14:03.564Z</time></trkpt><trkpt lat="43.5736949" lon="10.7587019"><ele>77.0</ele><time>2026-05-03T15:14:04.564Z</time></trkpt><trkpt lat="43.5737154" lon="10.7585411"><ele>77.0</ele><time>2026-05-03T15:14:05.562Z</time></trkpt><trkpt lat="43.573714" lon="10.7583908"><ele>77.0</ele><time>2026-05-03T15:14:06.562Z</time></trkpt><trkpt lat="43.5736857" lon="10.7582344"><ele>77.0</ele><time>2026-05-03T15:14:07.562Z</time></trkpt><trkpt lat="43.5736402" lon="10.7580729"><ele>81.0</ele><time>2026-05-03T15:14:08.561Z</time></trkpt><trkpt lat="43.5735805" lon="10.7579"><ele>85.0</ele><time>2026-05-03T15:14:09.563Z</time></trkpt><trkpt lat="43.5735241" lon="10.7577297"><ele>89.0</ele><time>2026-05-03T15:14:10.562Z</time></trkpt><trkpt lat="43.5734606" lon="10.7575375"><ele>93.0</ele><time>2026-05-03T15:14:11.562Z</time></trkpt><trkpt lat="43.5733945" lon="10.7573383"><ele>94.75</ele><time>2026-05-03T15:14:12.561Z</time></trkpt><trkpt lat="43.5733451" lon="10.7571361"><ele>96.5</ele><time>2026-05-03T15:14:13.563Z</time></trkpt><trkpt lat="43.573302" lon="10.7569347"><ele>98.25</ele><time>2026-05-03T15:14:14.561Z</time></trkpt><trkpt lat="43.5732842" lon="10.7567755"><ele>100.0</ele><time>2026-05-03T15:14:15.562Z</time></trkpt><trkpt lat="43.5732849" lon="10.7566164"><ele>102.0</ele><time>2026-05-03T15:14:16.562Z</time></trkpt><trkpt lat="43.5732999" lon="10.7564741"><ele>104.0</ele><time>2026-05-03T15:14:17.563Z</time></trkpt><trkpt lat="43.5733446" lon="10.7563326"><ele>106.0</ele><time>2026-05-03T15:14:18.562Z</time></trkpt><trkpt lat="43.5734083" lon="10.7561954"><ele>108.0</ele><time>2026-05-03T15:14:19.564Z</time></trkpt><trkpt lat="43.5734855" lon="10.7560435"><ele>108.80000000000001</ele><time>2026-05-03T15:14:20.563Z</time></trkpt><trkpt lat="43.5735521" lon="10.7558905"><ele>109.60000000000001</ele><time>2026-05-03T15:14:21.562Z</time></trkpt><trkpt lat="43.5736043" lon="10.7557498"><ele>110.39999999999999</ele><time>2026-05-03T15:14:22.563Z</time></trkpt><trkpt lat="43.5736367" lon="10.7556382"><ele>111.19999999999999</ele><time>2026-05-03T15:14:23.563Z</time></trkpt><trkpt lat="43.5736622" lon="10.7555293"><ele>112.0</ele><time>2026-05-03T15:14:25.562Z</time></trkpt><trkpt lat="43.5736945" lon="10.7553778"><ele>115.25</ele><time>2026-05-03T15:14:28.563Z</time></trkpt><trkpt lat="43.5738458" lon="10.7552543"><ele>118.5</ele><time>2026-05-03T15:14:30.562Z</time></trkpt><trkpt lat="43.5739859" lon="10.7551985"><ele>121.75</ele><time>2026-05-03T15:14:31.562Z</time></trkpt><trkpt lat="43.5740906" lon="10.7551439"><ele>125.0</ele><time>2026-05-03T15:14:32.563Z</time></trkpt><trkpt lat="43.5741828" lon="10.7550793"><ele>127.5</ele><time>2026-05-03T15:14:33.562Z</time></trkpt><trkpt lat="43.5742644" lon="10.7549903"><ele>130.0</ele><time>2026-05-03T15:14:34.562Z</time></trkpt><trkpt lat="43.5743424" lon="10.7548933"><ele>132.5</ele><time>2026-05-03T15:14:35.563Z</time></trkpt><trkpt lat="43.5744063" lon="10.754748"><ele>135.0</ele><time>2026-05-03T15:14:36.562Z</time></trkpt><trkpt lat="43.5744823" lon="10.7546167"><ele>135.25</ele><time>2026-05-03T15:14:37.562Z</time></trkpt><trkpt lat="43.5745674" lon="10.7545035"><ele>135.5</ele><time>2026-05-03T15:14:38.564Z</time></trkpt><trkpt lat="43.5746833" lon="10.754371"><ele>135.75</ele><time>2026-05-03T15:14:39.562Z</time></trkpt><trkpt lat="43.5747858" lon="10.7542349"><ele>136.0</ele><time>2026-05-03T15:14:40.562Z</time></trkpt><trkpt lat="43.5748952" lon="10.7540858"><ele>139.5</ele><time>2026-05-03T15:14:41.564Z</time></trkpt><trkpt lat="43.5749919" lon="10.753959"><ele>143.0</ele><time>2026-05-03T15:14:42.562Z</time></trkpt><trkpt lat="43.5750783" lon="10.7538439"><ele>146.5</ele><time>2026-05-03T15:14:43.562Z</time></trkpt><trkpt lat="43.5751693" lon="10.753728"><ele>150.0</ele><time>2026-05-03T15:14:44.562Z</time></trkpt><trkpt lat="43.5752374" lon="10.7536813"><ele>150.0</ele><time>2026-05-03T15:14:45.562Z</time></trkpt><trkpt lat="43.5753056" lon="10.7536369"><ele>150.0</ele><time>2026-05-03T15:14:46.563Z</time></trkpt><trkpt lat="43.5753736" lon="10.7536235"><ele>150.0</ele><time>2026-05-03T15:14:47.561Z</time></trkpt><trkpt lat="43.5754458" lon="10.7536174"><ele>150.0</ele><time>2026-05-03T15:14:48.562Z</time></trkpt><trkpt lat="43.5755135" lon="10.7536327"><ele>150.0</ele><time>2026-05-03T15:14:49.562Z</time></trkpt><trkpt lat="43.5755922" lon="10.7536766"><ele>150.0</ele><time>2026-05-03T15:14:50.561Z</time></trkpt><trkpt lat="43.5756989" lon="10.753724"><ele>150.25</ele><time>2026-05-03T15:14:51.562Z</time></trkpt><trkpt lat="43.5758107" lon="10.7537682"><ele>150.5</ele><time>2026-05-03T15:14:52.563Z</time></trkpt><trkpt lat="43.5759347" lon="10.7537981"><ele>150.75</ele><time>2026-05-03T15:14:53.562Z</time></trkpt><trkpt lat="43.5760572" lon="10.7538312"><ele>151.0</ele><time>2026-05-03T15:14:54.562Z</time></trkpt><trkpt lat="43.5761895" lon="10.7538609"><ele>151.5</ele><time>2026-05-03T15:14:55.562Z</time></trkpt><trkpt lat="43.5763167" lon="10.7539011"><ele>152.0</ele><time>2026-05-03T15:14:56.563Z</time></trkpt><trkpt lat="43.5764369" lon="10.7539357"><ele>152.5</ele><time>2026-05-03T15:14:57.563Z</time></trkpt><trkpt lat="43.5765497" lon="10.7539725"><ele>153.0</ele><time>2026-05-03T15:14:58.563Z</time></trkpt><trkpt lat="43.5766575" lon="10.7540064"><ele>153.0</ele><time>2026-05-03T15:14:59.562Z</time></trkpt><trkpt lat="43.5767508" lon="10.7540303"><ele>153.0</ele><time>2026-05-03T15:15:00.562Z</time></trkpt><trkpt lat="43.5768192" lon="10.7540624"><ele>153.0</ele><time>2026-05-03T15:15:01.563Z</time></trkpt><trkpt lat="43.5769051" lon="10.7541526"><ele>153.0</ele><time>2026-05-03T15:15:03.562Z</time></trkpt><trkpt lat="43.5769511" lon="10.7542756"><ele>153.0</ele><time>2026-05-03T15:15:05.562Z</time></trkpt><trkpt lat="43.5769557" lon="10.7543821"><ele>151.8</ele><time>2026-05-03T15:15:06.563Z</time></trkpt><trkpt lat="43.5769656" lon="10.7544792"><ele>150.60000000000002</ele><time>2026-05-03T15:15:07.562Z</time></trkpt><trkpt lat="43.5769729" lon="10.7546467"><ele>149.39999999999998</ele><time>2026-05-03T15:15:08.562Z</time></trkpt><trkpt lat="43.5769784" lon="10.7548135"><ele>148.2</ele><time>2026-05-03T15:15:09.562Z</time></trkpt><trkpt lat="43.5769861" lon="10.7549757"><ele>147.0</ele><time>2026-05-03T15:15:10.562Z</time></trkpt><trkpt lat="43.5769954" lon="10.7551337"><ele>151.75</ele><time>2026-05-03T15:15:11.562Z</time></trkpt><trkpt lat="43.5770299" lon="10.7552785"><ele>156.5</ele><time>2026-05-03T15:15:12.562Z</time></trkpt><trkpt lat="43.5770673" lon="10.7554257"><ele>161.25</ele><time>2026-05-03T15:15:13.562Z</time></trkpt><trkpt lat="43.577124" lon="10.7555724"><ele>166.0</ele><time>2026-05-03T15:15:14.563Z</time></trkpt><trkpt lat="43.577189" lon="10.7557117"><ele>166.0</ele><time>2026-05-03T15:15:15.563Z</time></trkpt><trkpt lat="43.5772608" lon="10.7558491"><ele>166.0</ele><time>2026-05-03T15:15:16.562Z</time></trkpt><trkpt lat="43.577332" lon="10.7559971"><ele>166.0</ele><time>2026-05-03T15:15:17.562Z</time></trkpt><trkpt lat="43.5774001" lon="10.7561484"><ele>166.0</ele><time>2026-05-03T15:15:18.563Z</time></trkpt><trkpt lat="43.5774624" lon="10.7562982"><ele>164.75</ele><time>2026-05-03T15:15:19.562Z</time></trkpt><trkpt lat="43.5775254" lon="10.7564478"><ele>163.5</ele><time>2026-05-03T15:15:20.561Z</time></trkpt><trkpt lat="43.5775955" lon="10.7565869"><ele>162.25</ele><time>2026-05-03T15:15:21.563Z</time></trkpt><trkpt lat="43.5776859" lon="10.7567265"><ele>161.0</ele><time>2026-05-03T15:15:22.561Z</time></trkpt><trkpt lat="43.5777895" lon="10.756828"><ele>163.5</ele><time>2026-05-03T15:15:23.564Z</time></trkpt><trkpt lat="43.5779003" lon="10.7569433"><ele>166.0</ele><time>2026-05-03T15:15:24.562Z</time></trkpt><trkpt lat="43.5780056" lon="10.7570543"><ele>168.5</ele><time>2026-05-03T15:15:25.562Z</time></trkpt><trkpt lat="43.578112" lon="10.7571587"><ele>171.0</ele><time>2026-05-03T15:15:26.563Z</time></trkpt><trkpt lat="43.5782289" lon="10.7572577"><ele>171.0</ele><time>2026-05-03T15:15:27.563Z</time></trkpt><trkpt lat="43.5783378" lon="10.7573513"><ele>171.0</ele><time>2026-05-03T15:15:28.562Z</time></trkpt><trkpt lat="43.5784561" lon="10.7574319"><ele>171.0</ele><time>2026-05-03T15:15:29.562Z</time></trkpt><trkpt lat="43.5785741" lon="10.7575136"><ele>171.0</ele><time>2026-05-03T15:15:30.562Z</time></trkpt><trkpt lat="43.5786891" lon="10.7575972"><ele>170.60000000000002</ele><time>2026-05-03T15:15:31.563Z</time></trkpt><trkpt lat="43.5787946" lon="10.7576796"><ele>170.2</ele><time>2026-05-03T15:15:32.561Z</time></trkpt><trkpt lat="43.5788862" lon="10.7577481"><ele>169.8</ele><time>2026-05-03T15:15:33.563Z</time></trkpt><trkpt lat="43.5789736" lon="10.7578107"><ele>169.39999999999998</ele><time>2026-05-03T15:15:34.563Z</time></trkpt><trkpt lat="43.5790561" lon="10.7579003"><ele>169.0</ele><time>2026-05-03T15:15:35.562Z</time></trkpt><trkpt lat="43.5791495" lon="10.7579958"><ele>169.0</ele><time>2026-05-03T15:15:36.561Z</time></trkpt><trkpt lat="43.5792424" lon="10.7581001"><ele>169.0</ele><time>2026-05-03T15:15:37.563Z</time></trkpt><trkpt lat="43.5793442" lon="10.7582065"><ele>169.0</ele><time>2026-05-03T15:15:38.562Z</time></trkpt><trkpt lat="43.5794357" lon="10.7583108"><ele>169.0</ele><time>2026-05-03T15:15:39.562Z</time></trkpt><trkpt lat="43.5795284" lon="10.7584143"><ele>170.5</ele><time>2026-05-03T15:15:40.562Z</time></trkpt><trkpt lat="43.579621" lon="10.7584937"><ele>172.0</ele><time>2026-05-03T15:15:41.562Z</time></trkpt><trkpt lat="43.5797216" lon="10.7585635"><ele>173.5</ele><time>2026-05-03T15:15:42.561Z</time></trkpt><trkpt lat="43.5798437" lon="10.7585749"><ele>175.0</ele><time>2026-05-03T15:15:43.562Z</time></trkpt><trkpt lat="43.5799669" lon="10.7585703"><ele>175.0</ele><time>2026-05-03T15:15:44.563Z</time></trkpt><trkpt lat="43.5800934" lon="10.7585476"><ele>175.0</ele><time>2026-05-03T15:15:45.562Z</time></trkpt><trkpt lat="43.5802289" lon="10.7585092"><ele>175.0</ele><time>2026-05-03T15:15:46.563Z</time></trkpt><trkpt lat="43.5803581" lon="10.7584578"><ele>175.0</ele><time>2026-05-03T15:15:47.561Z</time></trkpt><trkpt lat="43.5804812" lon="10.7583968"><ele>171.75</ele><time>2026-05-03T15:15:48.562Z</time></trkpt><trkpt lat="43.5806072" lon="10.7583246"><ele>168.5</ele><time>2026-05-03T15:15:49.562Z</time></trkpt><trkpt lat="43.5807274" lon="10.7582897"><ele>165.25</ele><time>2026-05-03T15:15:50.562Z</time></trkpt><trkpt lat="43.580858" lon="10.7582832"><ele>162.0</ele><time>2026-05-03T15:15:51.562Z</time></trkpt><trkpt lat="43.5809794" lon="10.7583107"><ele>162.0</ele><time>2026-05-03T15:15:52.562Z</time></trkpt><trkpt lat="43.5811106" lon="10.7583603"><ele>162.0</ele><time>2026-05-03T15:15:53.562Z</time></trkpt><trkpt lat="43.5812538" lon="10.7584198"><ele>162.0</ele><time>2026-05-03T15:15:54.561Z</time></trkpt><trkpt lat="43.5814005" lon="10.7584737"><ele>162.0</ele><time>2026-05-03T15:15:55.563Z</time></trkpt><trkpt lat="43.5815581" lon="10.7585386"><ele>160.25</ele><time>2026-05-03T15:15:56.563Z</time></trkpt><trkpt lat="43.5817091" lon="10.7585883"><ele>158.5</ele><time>2026-05-03T15:15:57.562Z</time></trkpt><trkpt lat="43.5818481" lon="10.7586608"><ele>156.75</ele><time>2026-05-03T15:15:58.563Z</time></trkpt><trkpt lat="43.5819754" lon="10.7587259"><ele>155.0</ele><time>2026-05-03T15:15:59.562Z</time></trkpt><trkpt lat="43.5821062" lon="10.7588005"><ele>154.25</ele><time>2026-05-03T15:16:00.562Z</time></trkpt><trkpt lat="43.5822316" lon="10.7588878"><ele>153.5</ele><time>2026-05-03T15:16:01.562Z</time></trkpt><trkpt lat="43.5823494" lon="10.7590089"><ele>152.75</ele><time>2026-05-03T15:16:02.562Z</time></trkpt><trkpt lat="43.5824656" lon="10.7591354"><ele>152.0</ele><time>2026-05-03T15:16:03.563Z</time></trkpt><trkpt lat="43.5825911" lon="10.7592833"><ele>152.66666666666666</ele><time>2026-05-03T15:16:04.561Z</time></trkpt><trkpt lat="43.5827274" lon="10.75942"><ele>153.33333333333334</ele><time>2026-05-03T15:16:05.562Z</time></trkpt><trkpt lat="43.5828813" lon="10.7595463"><ele>154.0</ele><time>2026-05-03T15:16:06.561Z</time></trkpt><trkpt lat="43.583037" lon="10.7596576"><ele>152.33333333333334</ele><time>2026-05-03T15:16:07.562Z</time></trkpt><trkpt lat="43.5831847" lon="10.7597579"><ele>150.66666666666666</ele><time>2026-05-03T15:16:08.564Z</time></trkpt><trkpt lat="43.583334" lon="10.7598209"><ele>149.0</ele><time>2026-05-03T15:16:09.561Z</time></trkpt><trkpt lat="43.5834893" lon="10.7598665"><ele>149.0</ele><time>2026-05-03T15:16:10.563Z</time></trkpt><trkpt lat="43.5836589" lon="10.7598961"><ele>149.0</ele><time>2026-05-03T15:16:11.562Z</time></trkpt><trkpt lat="43.5838458" lon="10.7599253"><ele>149.0</ele><time>2026-05-03T15:16:12.563Z</time></trkpt><trkpt lat="43.5840314" lon="10.7599473"><ele>148.0</ele><time>2026-05-03T15:16:13.562Z</time></trkpt><trkpt lat="43.5842237" lon="10.7599655"><ele>147.0</ele><time>2026-05-03T15:16:14.562Z</time></trkpt><trkpt lat="43.584395" lon="10.7599693"><ele>146.0</ele><time>2026-05-03T15:16:15.562Z</time></trkpt><trkpt lat="43.5845597" lon="10.7599717"><ele>145.0</ele><time>2026-05-03T15:16:16.562Z</time></trkpt><trkpt lat="43.5847082" lon="10.7599867"><ele>144.0</ele><time>2026-05-03T15:16:17.561Z</time></trkpt><trkpt lat="43.5848472" lon="10.7600285"><ele>143.0</ele><time>2026-05-03T15:16:18.562Z</time></trkpt><trkpt lat="43.5849738" lon="10.7600916"><ele>142.0</ele><time>2026-05-03T15:16:19.563Z</time></trkpt><trkpt lat="43.5851052" lon="10.7601681"><ele>142.66666666666669</ele><time>2026-05-03T15:16:20.562Z</time></trkpt><trkpt lat="43.5852456" lon="10.7602501"><ele>143.33333333333334</ele><time>2026-05-03T15:16:21.563Z</time></trkpt><trkpt lat="43.5853811" lon="10.7603668"><ele>144.0</ele><time>2026-05-03T15:16:22.562Z</time></trkpt><trkpt lat="43.5855049" lon="10.7605238"><ele>144.0</ele><time>2026-05-03T15:16:23.562Z</time></trkpt><trkpt lat="43.5856244" lon="10.7607168"><ele>144.0</ele><time>2026-05-03T15:16:24.562Z</time></trkpt><trkpt lat="43.5857524" lon="10.7609259"><ele>144.0</ele><time>2026-05-03T15:16:25.562Z</time></trkpt><trkpt lat="43.5858936" lon="10.7611291"><ele>144.33333333333334</ele><time>2026-05-03T15:16:26.563Z</time></trkpt><trkpt lat="43.5860174" lon="10.7613257"><ele>144.66666666666669</ele><time>2026-05-03T15:16:27.562Z</time></trkpt><trkpt lat="43.5861426" lon="10.7615174"><ele>145.0</ele><time>2026-05-03T15:16:28.562Z</time></trkpt><trkpt lat="43.5862718" lon="10.7617133"><ele>143.33333333333334</ele><time>2026-05-03T15:16:29.563Z</time></trkpt><trkpt lat="43.5863951" lon="10.7619168"><ele>141.66666666666666</ele><time>2026-05-03T15:16:30.562Z</time></trkpt><trkpt lat="43.5865236" lon="10.7621172"><ele>140.0</ele><time>2026-05-03T15:16:31.562Z</time></trkpt><trkpt lat="43.5866486" lon="10.7623189"><ele>140.0</ele><time>2026-05-03T15:16:32.563Z</time></trkpt><trkpt lat="43.5867698" lon="10.7625274"><ele>140.0</ele><time>2026-05-03T15:16:33.561Z</time></trkpt><trkpt lat="43.5868797" lon="10.762748"><ele>140.0</ele><time>2026-05-03T15:16:34.561Z</time></trkpt><trkpt lat="43.5869659" lon="10.7629689"><ele>140.0</ele><time>2026-05-03T15:16:35.562Z</time></trkpt><trkpt lat="43.5870488" lon="10.7631926"><ele>140.0</ele><time>2026-05-03T15:16:36.562Z</time></trkpt><trkpt lat="43.5871319" lon="10.7634105"><ele>140.0</ele><time>2026-05-03T15:16:37.561Z</time></trkpt><trkpt lat="43.5872166" lon="10.7636263"><ele>138.0</ele><time>2026-05-03T15:16:38.562Z</time></trkpt><trkpt lat="43.587298" lon="10.7638425"><ele>136.0</ele><time>2026-05-03T15:16:39.561Z</time></trkpt><trkpt lat="43.5873793" lon="10.7640614"><ele>134.0</ele><time>2026-05-03T15:16:40.562Z</time></trkpt><trkpt lat="43.5874509" lon="10.7642886"><ele>133.33333333333331</ele><time>2026-05-03T15:16:41.562Z</time></trkpt><trkpt lat="43.5875098" lon="10.7645242"><ele>132.66666666666666</ele><time>2026-05-03T15:16:42.563Z</time></trkpt><trkpt lat="43.5875492" lon="10.7647704"><ele>132.0</ele><time>2026-05-03T15:16:43.561Z</time></trkpt><trkpt lat="43.5875426" lon="10.7650295"><ele>131.66666666666666</ele><time>2026-05-03T15:16:44.563Z</time></trkpt><trkpt lat="43.5875075" lon="10.7652851"><ele>131.33333333333331</ele><time>2026-05-03T15:16:45.562Z</time></trkpt><trkpt lat="43.5874707" lon="10.765547"><ele>131.0</ele><time>2026-05-03T15:16:46.563Z</time></trkpt><trkpt lat="43.5874391" lon="10.765829"><ele>132.0</ele><time>2026-05-03T15:16:47.562Z</time></trkpt><trkpt lat="43.587411" lon="10.7661426"><ele>133.0</ele><time>2026-05-03T15:16:48.561Z</time></trkpt><trkpt lat="43.587384" lon="10.7664438"><ele>134.0</ele><time>2026-05-03T15:16:49.561Z</time></trkpt><trkpt lat="43.5873583" lon="10.7667459"><ele>135.0</ele><time>2026-05-03T15:16:50.562Z</time></trkpt><trkpt lat="43.5873197" lon="10.7670391"><ele>136.0</ele><time>2026-05-03T15:16:51.562Z</time></trkpt><trkpt lat="43.5872564" lon="10.7673217"><ele>137.0</ele><time>2026-05-03T15:16:52.562Z</time></trkpt><trkpt lat="43.5871726" lon="10.7675858"><ele>137.0</ele><time>2026-05-03T15:16:53.562Z</time></trkpt><trkpt lat="43.58709" lon="10.7678344"><ele>137.0</ele><time>2026-05-03T15:16:54.562Z</time></trkpt><trkpt lat="43.5870408" lon="10.7680501"><ele>137.0</ele><time>2026-05-03T15:16:55.561Z</time></trkpt><trkpt lat="43.5870178" lon="10.7682798"><ele>137.0</ele><time>2026-05-03T15:16:56.563Z</time></trkpt><trkpt lat="43.5870281" lon="10.7685358"><ele>137.0</ele><time>2026-05-03T15:16:57.561Z</time></trkpt><trkpt lat="43.5870551" lon="10.7688087"><ele>137.0</ele><time>2026-05-03T15:16:58.562Z</time></trkpt><trkpt lat="43.5870898" lon="10.7690936"><ele>137.5</ele><time>2026-05-03T15:16:59.563Z</time></trkpt><trkpt lat="43.5871239" lon="10.7694259"><ele>138.0</ele><time>2026-05-03T15:17:00.562Z</time></trkpt><trkpt lat="43.5871573" lon="10.7697603"><ele>138.0</ele><time>2026-05-03T15:17:01.562Z</time></trkpt><trkpt lat="43.5871907" lon="10.7701133"><ele>138.0</ele><time>2026-05-03T15:17:02.563Z</time></trkpt><trkpt lat="43.5872257" lon="10.7704767"><ele>141.5</ele><time>2026-05-03T15:17:03.562Z</time></trkpt><trkpt lat="43.5872576" lon="10.7708359"><ele>145.0</ele><time>2026-05-03T15:17:04.561Z</time></trkpt><trkpt lat="43.5872919" lon="10.7711685"><ele>149.5</ele><time>2026-05-03T15:17:05.562Z</time></trkpt><trkpt lat="43.5873252" lon="10.771486"><ele>154.0</ele><time>2026-05-03T15:17:06.562Z</time></trkpt><trkpt lat="43.5873562" lon="10.7717881"><ele>155.5</ele><time>2026-05-03T15:17:07.562Z</time></trkpt><trkpt lat="43.5873784" lon="10.7720991"><ele>157.0</ele><time>2026-05-03T15:17:08.562Z</time></trkpt><trkpt lat="43.5873887" lon="10.7724102"><ele>158.0</ele><time>2026-05-03T15:17:09.562Z</time></trkpt><trkpt lat="43.587385" lon="10.7727161"><ele>159.0</ele><time>2026-05-03T15:17:10.562Z</time></trkpt><trkpt lat="43.5873627" lon="10.7730022"><ele>160.0</ele><time>2026-05-03T15:17:11.562Z</time></trkpt><trkpt lat="43.5873306" lon="10.7732625"><ele>160.0</ele><time>2026-05-03T15:17:12.562Z</time></trkpt><trkpt lat="43.5872999" lon="10.7735015"><ele>160.0</ele><time>2026-05-03T15:17:13.562Z</time></trkpt><trkpt lat="43.5872736" lon="10.7737198"><ele>160.0</ele><time>2026-05-03T15:17:14.563Z</time></trkpt><trkpt lat="43.5872611" lon="10.7739231"><ele>162.0</ele><time>2026-05-03T15:17:15.562Z</time></trkpt><trkpt lat="43.5872645" lon="10.7741143"><ele>164.0</ele><time>2026-05-03T15:17:16.562Z</time></trkpt><trkpt lat="43.5872994" lon="10.7743016"><ele>166.0</ele><time>2026-05-03T15:17:17.562Z</time></trkpt><trkpt lat="43.5873591" lon="10.7744959"><ele>168.0</ele><time>2026-05-03T15:17:18.562Z</time></trkpt><trkpt lat="43.587434" lon="10.7746926"><ele>168.0</ele><time>2026-05-03T15:17:19.563Z</time></trkpt><trkpt lat="43.5875288" lon="10.7748862"><ele>168.0</ele><time>2026-05-03T15:17:20.562Z</time></trkpt><trkpt lat="43.5876376" lon="10.7750703"><ele>168.0</ele><time>2026-05-03T15:17:21.562Z</time></trkpt><trkpt lat="43.5877681" lon="10.7752404"><ele>170.66666666666666</ele><time>2026-05-03T15:17:22.562Z</time></trkpt><trkpt lat="43.5879086" lon="10.7753983"><ele>173.33333333333331</ele><time>2026-05-03T15:17:23.561Z</time></trkpt><trkpt lat="43.5880573" lon="10.7755445"><ele>176.0</ele><time>2026-05-03T15:17:24.563Z</time></trkpt><trkpt lat="43.5882127" lon="10.7756864"><ele>176.0</ele><time>2026-05-03T15:17:25.561Z</time></trkpt><trkpt lat="43.5883753" lon="10.7758241"><ele>176.0</ele><time>2026-05-03T15:17:26.562Z</time></trkpt><trkpt lat="43.5885384" lon="10.7759634"><ele>176.0</ele><time>2026-05-03T15:17:27.561Z</time></trkpt><trkpt lat="43.5887013" lon="10.7761103"><ele>176.33333333333331</ele><time>2026-05-03T15:17:28.562Z</time></trkpt><trkpt lat="43.5888579" lon="10.7762463"><ele>176.66666666666666</ele><time>2026-05-03T15:17:29.561Z</time></trkpt><trkpt lat="43.5890043" lon="10.7763799"><ele>177.0</ele><time>2026-05-03T15:17:30.562Z</time></trkpt><trkpt lat="43.5891414" lon="10.7764974"><ele>177.0</ele><time>2026-05-03T15:17:31.561Z</time></trkpt><trkpt lat="43.5892899" lon="10.7766013"><ele>177.0</ele><time>2026-05-03T15:17:32.562Z</time></trkpt><trkpt lat="43.5894484" lon="10.7766896"><ele>177.0</ele><time>2026-05-03T15:17:33.562Z</time></trkpt><trkpt lat="43.58962" lon="10.7767656"><ele>176.33333333333334</ele><time>2026-05-03T15:17:34.562Z</time></trkpt><trkpt lat="43.5897988" lon="10.7768307"><ele>175.66666666666669</ele><time>2026-05-03T15:17:35.562Z</time></trkpt><trkpt lat="43.5899839" lon="10.7768971"><ele>175.0</ele><time>2026-05-03T15:17:36.562Z</time></trkpt><trkpt lat="43.590172" lon="10.7769654"><ele>178.0</ele><time>2026-05-03T15:17:37.561Z</time></trkpt><trkpt lat="43.5903678" lon="10.7770395"><ele>181.0</ele><time>2026-05-03T15:17:38.562Z</time></trkpt><trkpt lat="43.5905618" lon="10.7771094"><ele>184.0</ele><time>2026-05-03T15:17:39.562Z</time></trkpt><trkpt lat="43.5907515" lon="10.7771858"><ele>184.0</ele><time>2026-05-03T15:17:40.562Z</time></trkpt><trkpt lat="43.5909428" lon="10.7772563"><ele>184.0</ele><time>2026-05-03T15:17:41.562Z</time></trkpt><trkpt lat="43.5911277" lon="10.7773357"><ele>184.0</ele><time>2026-05-03T15:17:42.561Z</time></trkpt><trkpt lat="43.59129" lon="10.777429"><ele>185.25</ele><time>2026-05-03T15:17:43.562Z</time></trkpt><trkpt lat="43.5914444" lon="10.7775224"><ele>186.5</ele><time>2026-05-03T15:17:44.561Z</time></trkpt><trkpt lat="43.5915757" lon="10.7776124"><ele>187.75</ele><time>2026-05-03T15:17:45.562Z</time></trkpt><trkpt lat="43.5916895" lon="10.7777017"><ele>189.0</ele><time>2026-05-03T15:17:46.562Z</time></trkpt><trkpt lat="43.5917942" lon="10.7778319"><ele>189.0</ele><time>2026-05-03T15:17:47.561Z</time></trkpt><trkpt lat="43.5919092" lon="10.7779817"><ele>189.0</ele><time>2026-05-03T15:17:48.561Z</time></trkpt><trkpt lat="43.592019" lon="10.7781548"><ele>189.0</ele><time>2026-05-03T15:17:49.563Z</time></trkpt><trkpt lat="43.5921493" lon="10.7783392"><ele>190.33333333333331</ele><time>2026-05-03T15:17:50.561Z</time></trkpt><trkpt lat="43.5922596" lon="10.7785054"><ele>191.66666666666666</ele><time>2026-05-03T15:17:51.562Z</time></trkpt><trkpt lat="43.5923739" lon="10.778644"><ele>193.0</ele><time>2026-05-03T15:17:52.562Z</time></trkpt><trkpt lat="43.592494" lon="10.7787545"><ele>193.0</ele><time>2026-05-03T15:17:53.561Z</time></trkpt><trkpt lat="43.5926363" lon="10.7788421"><ele>193.0</ele><time>2026-05-03T15:17:54.561Z</time></trkpt><trkpt lat="43.5927809" lon="10.7789265"><ele>193.0</ele><time>2026-05-03T15:17:55.562Z</time></trkpt><trkpt lat="43.5929167" lon="10.7790507"><ele>196.66666666666666</ele><time>2026-05-03T15:17:56.562Z</time></trkpt><trkpt lat="43.5930488" lon="10.7792014"><ele>200.33333333333331</ele><time>2026-05-03T15:17:57.561Z</time></trkpt><trkpt lat="43.5931767" lon="10.7793528"><ele>204.0</ele><time>2026-05-03T15:17:58.562Z</time></trkpt><trkpt lat="43.5932927" lon="10.7794943"><ele>205.0</ele><time>2026-05-03T15:17:59.561Z</time></trkpt><trkpt lat="43.593382" lon="10.7796733"><ele>206.0</ele><time>2026-05-03T15:18:00.562Z</time></trkpt><trkpt lat="43.5934445" lon="10.7798791"><ele>207.0</ele><time>2026-05-03T15:18:01.562Z</time></trkpt><trkpt lat="43.593489" lon="10.7801033"><ele>207.66666666666669</ele><time>2026-05-03T15:18:02.561Z</time></trkpt><trkpt lat="43.5935435" lon="10.780332"><ele>208.33333333333334</ele><time>2026-05-03T15:18:03.562Z</time></trkpt><trkpt lat="43.5936174" lon="10.7805454"><ele>209.0</ele><time>2026-05-03T15:18:04.561Z</time></trkpt><trkpt lat="43.5937181" lon="10.7807366"><ele>209.0</ele><time>2026-05-03T15:18:05.562Z</time></trkpt><trkpt lat="43.5938326" lon="10.7808855"><ele>209.0</ele><time>2026-05-03T15:18:06.562Z</time></trkpt><trkpt lat="43.5939583" lon="10.7810041"><ele>209.0</ele><time>2026-05-03T15:18:07.562Z</time></trkpt><trkpt lat="43.5941011" lon="10.7810864"><ele>210.5</ele><time>2026-05-03T15:18:08.561Z</time></trkpt><trkpt lat="43.5942499" lon="10.7811538"><ele>212.0</ele><time>2026-05-03T15:18:09.562Z</time></trkpt><trkpt lat="43.5943839" lon="10.781239"><ele>213.5</ele><time>2026-05-03T15:18:10.563Z</time></trkpt><trkpt lat="43.5944994" lon="10.7813578"><ele>215.0</ele><time>2026-05-03T15:18:11.561Z</time></trkpt><trkpt lat="43.5945689" lon="10.7815082"><ele>214.66666666666669</ele><time>2026-05-03T15:18:12.562Z</time></trkpt><trkpt lat="43.5946408" lon="10.7816839"><ele>214.33333333333331</ele><time>2026-05-03T15:18:13.562Z</time></trkpt><trkpt lat="43.594713" lon="10.7818746"><ele>214.0</ele><time>2026-05-03T15:18:14.561Z</time></trkpt><trkpt lat="43.5947934" lon="10.782055"><ele>214.0</ele><time>2026-05-03T15:18:15.561Z</time></trkpt><trkpt lat="43.594881" lon="10.7822195"><ele>214.0</ele><time>2026-05-03T15:18:16.562Z</time></trkpt><trkpt lat="43.5949747" lon="10.7823597"><ele>214.0</ele><time>2026-05-03T15:18:17.562Z</time></trkpt><trkpt lat="43.59506" lon="10.7825007"><ele>214.0</ele><time>2026-05-03T15:18:18.561Z</time></trkpt><trkpt lat="43.5951372" lon="10.782621"><ele>214.39999999999998</ele><time>2026-05-03T15:18:19.562Z</time></trkpt><trkpt lat="43.5951889" lon="10.7827573"><ele>214.79999999999998</ele><time>2026-05-03T15:18:20.562Z</time></trkpt><trkpt lat="43.5952327" lon="10.782901"><ele>215.20000000000002</ele><time>2026-05-03T15:18:21.562Z</time></trkpt><trkpt lat="43.5952703" lon="10.7830452"><ele>215.60000000000002</ele><time>2026-05-03T15:18:22.563Z</time></trkpt><trkpt lat="43.5953171" lon="10.7831863"><ele>216.0</ele><time>2026-05-03T15:18:23.562Z</time></trkpt><trkpt lat="43.5953727" lon="10.7833396"><ele>213.75</ele><time>2026-05-03T15:18:24.562Z</time></trkpt><trkpt lat="43.5954342" lon="10.7834979"><ele>211.5</ele><time>2026-05-03T15:18:25.562Z</time></trkpt><trkpt lat="43.5955003" lon="10.7836459"><ele>209.25</ele><time>2026-05-03T15:18:26.562Z</time></trkpt><trkpt lat="43.5955911" lon="10.783786"><ele>207.0</ele><time>2026-05-03T15:18:27.563Z</time></trkpt><trkpt lat="43.5956772" lon="10.783894"><ele>207.0</ele><time>2026-05-03T15:18:28.562Z</time></trkpt><trkpt lat="43.5958052" lon="10.7839375"><ele>207.0</ele><time>2026-05-03T15:18:29.563Z</time></trkpt><trkpt lat="43.595945" lon="10.7839777"><ele>207.0</ele><time>2026-05-03T15:18:30.562Z</time></trkpt><trkpt lat="43.5961175" lon="10.7839909"><ele>207.0</ele><time>2026-05-03T15:18:31.561Z</time></trkpt><trkpt lat="43.5962876" lon="10.784013"><ele>207.0</ele><time>2026-05-03T15:18:32.561Z</time></trkpt><trkpt lat="43.5964513" lon="10.7840411"><ele>207.0</ele><time>2026-05-03T15:18:33.562Z</time></trkpt><trkpt lat="43.5966179" lon="10.7840655"><ele>207.0</ele><time>2026-05-03T15:18:34.562Z</time></trkpt><trkpt lat="43.5967785" lon="10.7841054"><ele>207.0</ele><time>2026-05-03T15:18:35.561Z</time></trkpt><trkpt lat="43.5969421" lon="10.7841615"><ele>207.0</ele><time>2026-05-03T15:18:36.561Z</time></trkpt><trkpt lat="43.5970963" lon="10.7842301"><ele>207.0</ele><time>2026-05-03T15:18:37.562Z</time></trkpt><trkpt lat="43.5972538" lon="10.7842882"><ele>206.75</ele><time>2026-05-03T15:18:38.561Z</time></trkpt><trkpt lat="43.5974061" lon="10.7843407"><ele>206.5</ele><time>2026-05-03T15:18:39.561Z</time></trkpt><trkpt lat="43.5975417" lon="10.7843825"><ele>206.25</ele><time>2026-05-03T15:18:40.561Z</time></trkpt><trkpt lat="43.5976697" lon="10.7844201"><ele>206.0</ele><time>2026-05-03T15:18:41.562Z</time></trkpt><trkpt lat="43.5977878" lon="10.7844699"><ele>208.25</ele><time>2026-05-03T15:18:42.563Z</time></trkpt><trkpt lat="43.5979052" lon="10.7845198"><ele>210.5</ele><time>2026-05-03T15:18:43.562Z</time></trkpt><trkpt lat="43.5980213" lon="10.7845742"><ele>212.75</ele><time>2026-05-03T15:18:44.561Z</time></trkpt><trkpt lat="43.5981345" lon="10.7846391"><ele>215.0</ele><time>2026-05-03T15:18:45.562Z</time></trkpt><trkpt lat="43.5982519" lon="10.7847043"><ele>215.0</ele><time>2026-05-03T15:18:46.562Z</time></trkpt><trkpt lat="43.5983741" lon="10.7847678"><ele>215.0</ele><time>2026-05-03T15:18:47.562Z</time></trkpt><trkpt lat="43.5984984" lon="10.7848246"><ele>215.0</ele><time>2026-05-03T15:18:48.562Z</time></trkpt><trkpt lat="43.5986336" lon="10.7848645"><ele>215.0</ele><time>2026-05-03T15:18:49.562Z</time></trkpt><trkpt lat="43.5987716" lon="10.7848813"><ele>216.75</ele><time>2026-05-03T15:18:50.561Z</time></trkpt><trkpt lat="43.5988918" lon="10.7848838"><ele>218.5</ele><time>2026-05-03T15:18:51.561Z</time></trkpt><trkpt lat="43.5990171" lon="10.7848424"><ele>220.25</ele><time>2026-05-03T15:18:52.561Z</time></trkpt><trkpt lat="43.5991192" lon="10.7847573"><ele>222.0</ele><time>2026-05-03T15:18:53.562Z</time></trkpt><trkpt lat="43.5992047" lon="10.7846519"><ele>222.0</ele><time>2026-05-03T15:18:54.562Z</time></trkpt><trkpt lat="43.5992933" lon="10.7845576"><ele>222.0</ele><time>2026-05-03T15:18:55.562Z</time></trkpt><trkpt lat="43.5994012" lon="10.784489"><ele>222.0</ele><time>2026-05-03T15:18:56.561Z</time></trkpt><trkpt lat="43.5995084" lon="10.7844574"><ele>222.0</ele><time>2026-05-03T15:18:57.561Z</time></trkpt><trkpt lat="43.5996346" lon="10.7844531"><ele>221.5</ele><time>2026-05-03T15:18:58.562Z</time></trkpt><trkpt lat="43.5997565" lon="10.7844712"><ele>221.0</ele><time>2026-05-03T15:18:59.562Z</time></trkpt><trkpt lat="43.5998704" lon="10.7845208"><ele>220.5</ele><time>2026-05-03T15:19:00.562Z</time></trkpt><trkpt lat="43.5999778" lon="10.7845882"><ele>220.0</ele><time>2026-05-03T15:19:01.563Z</time></trkpt><trkpt lat="43.600063" lon="10.7846662"><ele>219.99999999999997</ele><time>2026-05-03T15:19:02.562Z</time></trkpt><trkpt lat="43.6001275" lon="10.7847249"><ele>220.0</ele><time>2026-05-03T15:19:03.561Z</time></trkpt><trkpt lat="43.6001967" lon="10.7847633"><ele>220.0</ele><time>2026-05-03T15:19:04.562Z</time></trkpt><trkpt lat="43.6002595" lon="10.7847543"><ele>220.0</ele><time>2026-05-03T15:19:05.562Z</time></trkpt><trkpt lat="43.6003508" lon="10.7846181"><ele>219.99999999999997</ele><time>2026-05-03T15:19:07.562Z</time></trkpt><trkpt lat="43.6003718" lon="10.7845215"><ele>220.0</ele><time>2026-05-03T15:19:08.562Z</time></trkpt><trkpt lat="43.6003702" lon="10.784395"><ele>218.25</ele><time>2026-05-03T15:19:09.562Z</time></trkpt><trkpt lat="43.6003546" lon="10.7842658"><ele>216.5</ele><time>2026-05-03T15:19:10.563Z</time></trkpt><trkpt lat="43.600315" lon="10.7841339"><ele>214.75</ele><time>2026-05-03T15:19:11.562Z</time></trkpt><trkpt lat="43.6002497" lon="10.7839976"><ele>213.0</ele><time>2026-05-03T15:19:12.562Z</time></trkpt><trkpt lat="43.6001583" lon="10.7838557"><ele>213.0</ele><time>2026-05-03T15:19:13.562Z</time></trkpt><trkpt lat="43.6000678" lon="10.7837233"><ele>213.0</ele><time>2026-05-03T15:19:14.562Z</time></trkpt><trkpt lat="43.5999941" lon="10.7836043"><ele>213.0</ele><time>2026-05-03T15:19:15.562Z</time></trkpt><trkpt lat="43.599936" lon="10.7834842"><ele>213.0</ele><time>2026-05-03T15:19:16.561Z</time></trkpt><trkpt lat="43.5998997" lon="10.7833582"><ele>213.0</ele><time>2026-05-03T15:19:17.562Z</time></trkpt><trkpt lat="43.5998806" lon="10.7832314"><ele>211.25</ele><time>2026-05-03T15:19:18.563Z</time></trkpt><trkpt lat="43.5999093" lon="10.7830709"><ele>209.5</ele><time>2026-05-03T15:19:19.562Z</time></trkpt><trkpt lat="43.5999172" lon="10.782892"><ele>207.75</ele><time>2026-05-03T15:19:20.562Z</time></trkpt><trkpt lat="43.5999132" lon="10.7827222"><ele>206.0</ele><time>2026-05-03T15:19:21.562Z</time></trkpt><trkpt lat="43.5998966" lon="10.7825591"><ele>204.0</ele><time>2026-05-03T15:19:22.563Z</time></trkpt><trkpt lat="43.5998988" lon="10.7824146"><ele>202.0</ele><time>2026-05-03T15:19:23.562Z</time></trkpt><trkpt lat="43.5999176" lon="10.7822695"><ele>200.0</ele><time>2026-05-03T15:19:24.562Z</time></trkpt><trkpt lat="43.5999689" lon="10.7821283"><ele>198.0</ele><time>2026-05-03T15:19:25.562Z</time></trkpt><trkpt lat="43.6000463" lon="10.7820106"><ele>196.0</ele><time>2026-05-03T15:19:26.562Z</time></trkpt><trkpt lat="43.6001355" lon="10.7818962"><ele>196.0</ele><time>2026-05-03T15:19:27.562Z</time></trkpt><trkpt lat="43.6003163" lon="10.7816139"><ele>196.0</ele><time>2026-05-03T15:19:29.562Z</time></trkpt><trkpt lat="43.6004017" lon="10.7814535"><ele>196.0</ele><time>2026-05-03T15:19:30.562Z</time></trkpt><trkpt lat="43.6004932" lon="10.7813063"><ele>196.0</ele><time>2026-05-03T15:19:31.562Z</time></trkpt><trkpt lat="43.6005907" lon="10.7811779"><ele>196.0</ele><time>2026-05-03T15:19:32.562Z</time></trkpt><trkpt lat="43.6006948" lon="10.7810658"><ele>196.0</ele><time>2026-05-03T15:19:33.562Z</time></trkpt><trkpt lat="43.6007907" lon="10.7809751"><ele>196.0</ele><time>2026-05-03T15:19:34.562Z</time></trkpt><trkpt lat="43.6008955" lon="10.7809049"><ele>195.5</ele><time>2026-05-03T15:19:35.561Z</time></trkpt><trkpt lat="43.601005" lon="10.7808712"><ele>195.0</ele><time>2026-05-03T15:19:36.562Z</time></trkpt><trkpt lat="43.6011143" lon="10.780885"><ele>194.5</ele><time>2026-05-03T15:19:37.561Z</time></trkpt><trkpt lat="43.6012347" lon="10.7809405"><ele>194.0</ele><time>2026-05-03T15:19:38.562Z</time></trkpt><trkpt lat="43.6013688" lon="10.7810101"><ele>193.25</ele><time>2026-05-03T15:19:39.562Z</time></trkpt><trkpt lat="43.6015094" lon="10.7810836"><ele>192.5</ele><time>2026-05-03T15:19:40.562Z</time></trkpt><trkpt lat="43.6016499" lon="10.7811442"><ele>191.75</ele><time>2026-05-03T15:19:41.561Z</time></trkpt><trkpt lat="43.6017912" lon="10.7811738"><ele>191.0</ele><time>2026-05-03T15:19:42.563Z</time></trkpt><trkpt lat="43.6019359" lon="10.7811749"><ele>192.25</ele><time>2026-05-03T15:19:43.563Z</time></trkpt><trkpt lat="43.6020844" lon="10.7811649"><ele>193.5</ele><time>2026-05-03T15:19:44.563Z</time></trkpt><trkpt lat="43.6022163" lon="10.7811435"><ele>194.75</ele><time>2026-05-03T15:19:45.563Z</time></trkpt><trkpt lat="43.6023385" lon="10.7810887"><ele>196.0</ele><time>2026-05-03T15:19:46.561Z</time></trkpt><trkpt lat="43.6024424" lon="10.7810125"><ele>196.0</ele><time>2026-05-03T15:19:47.562Z</time></trkpt><trkpt lat="43.6025501" lon="10.7809178"><ele>196.0</ele><time>2026-05-03T15:19:48.562Z</time></trkpt><trkpt lat="43.602652" lon="10.7807769"><ele>196.0</ele><time>2026-05-03T15:19:49.561Z</time></trkpt><trkpt lat="43.6027621" lon="10.7806247"><ele>196.0</ele><time>2026-05-03T15:19:50.562Z</time></trkpt><trkpt lat="43.6028843" lon="10.7804579"><ele>201.0</ele><time>2026-05-03T15:19:51.561Z</time></trkpt><trkpt lat="43.6030126" lon="10.7802742"><ele>206.0</ele><time>2026-05-03T15:19:52.562Z</time></trkpt><trkpt lat="43.6031363" lon="10.7801001"><ele>211.0</ele><time>2026-05-03T15:19:53.563Z</time></trkpt><trkpt lat="43.6032341" lon="10.7799498"><ele>212.0</ele><time>2026-05-03T15:19:54.561Z</time></trkpt><trkpt lat="43.6033083" lon="10.7798078"><ele>213.0</ele><time>2026-05-03T15:19:55.562Z</time></trkpt><trkpt lat="43.6033496" lon="10.7796546"><ele>214.0</ele><time>2026-05-03T15:19:56.563Z</time></trkpt><trkpt lat="43.6033678" lon="10.7794869"><ele>215.0</ele><time>2026-05-03T15:19:57.561Z</time></trkpt><trkpt lat="43.6033581" lon="10.7792831"><ele>215.0</ele><time>2026-05-03T15:19:58.562Z</time></trkpt><trkpt lat="43.6033316" lon="10.7790582"><ele>215.0</ele><time>2026-05-03T15:19:59.562Z</time></trkpt><trkpt lat="43.6032918" lon="10.7788392"><ele>215.0</ele><time>2026-05-03T15:20:00.562Z</time></trkpt><trkpt lat="43.6032487" lon="10.7786259"><ele>213.5</ele><time>2026-05-03T15:20:01.561Z</time></trkpt><trkpt lat="43.6032066" lon="10.7784251"><ele>212.0</ele><time>2026-05-03T15:20:02.563Z</time></trkpt><trkpt lat="43.6031836" lon="10.7782482"><ele>210.5</ele><time>2026-05-03T15:20:03.562Z</time></trkpt><trkpt lat="43.6031783" lon="10.7780789"><ele>209.0</ele><time>2026-05-03T15:20:04.562Z</time></trkpt><trkpt lat="43.6031922" lon="10.7778994"><ele>209.0</ele><time>2026-05-03T15:20:05.563Z</time></trkpt><trkpt lat="43.6032156" lon="10.7777053"><ele>209.0</ele><time>2026-05-03T15:20:06.562Z</time></trkpt><trkpt lat="43.6032425" lon="10.7775077"><ele>209.0</ele><time>2026-05-03T15:20:07.561Z</time></trkpt><trkpt lat="43.6032633" lon="10.7773287"><ele>209.0</ele><time>2026-05-03T15:20:08.562Z</time></trkpt><trkpt lat="43.6032927" lon="10.7771723"><ele>208.79999999999998</ele><time>2026-05-03T15:20:09.561Z</time></trkpt><trkpt lat="43.6033302" lon="10.7770476"><ele>208.6</ele><time>2026-05-03T15:20:10.562Z</time></trkpt><trkpt lat="43.6033796" lon="10.7769693"><ele>208.4</ele><time>2026-05-03T15:20:11.562Z</time></trkpt><trkpt lat="43.6034477" lon="10.7768942"><ele>208.2</ele><time>2026-05-03T15:20:12.562Z</time></trkpt><trkpt lat="43.603563" lon="10.7768631"><ele>208.0</ele><time>2026-05-03T15:20:13.561Z</time></trkpt><trkpt lat="43.603679" lon="10.7768248"><ele>206.75</ele><time>2026-05-03T15:20:14.562Z</time></trkpt><trkpt lat="43.60381" lon="10.7767803"><ele>205.5</ele><time>2026-05-03T15:20:15.562Z</time></trkpt><trkpt lat="43.6039366" lon="10.7767438"><ele>204.25</ele><time>2026-05-03T15:20:16.562Z</time></trkpt><trkpt lat="43.6040602" lon="10.7767059"><ele>203.0</ele><time>2026-05-03T15:20:17.562Z</time></trkpt><trkpt lat="43.6041544" lon="10.776654"><ele>203.0</ele><time>2026-05-03T15:20:18.562Z</time></trkpt><trkpt lat="43.6042529" lon="10.7765834"><ele>203.0</ele><time>2026-05-03T15:20:19.562Z</time></trkpt><trkpt lat="43.6043427" lon="10.7764857"><ele>203.0</ele><time>2026-05-03T15:20:20.561Z</time></trkpt><trkpt lat="43.6044199" lon="10.7763771"><ele>203.0</ele><time>2026-05-03T15:20:21.561Z</time></trkpt><trkpt lat="43.6044951" lon="10.7762514"><ele>203.5</ele><time>2026-05-03T15:20:22.561Z</time></trkpt><trkpt lat="43.6045863" lon="10.7761392"><ele>204.0</ele><time>2026-05-03T15:20:23.562Z</time></trkpt><trkpt lat="43.6046908" lon="10.7760324"><ele>204.5</ele><time>2026-05-03T15:20:24.562Z</time></trkpt><trkpt lat="43.6048089" lon="10.7759614"><ele>205.0</ele><time>2026-05-03T15:20:25.561Z</time></trkpt><trkpt lat="43.604925" lon="10.7759228"><ele>205.0</ele><time>2026-05-03T15:20:26.563Z</time></trkpt><trkpt lat="43.6050373" lon="10.7758988"><ele>205.0</ele><time>2026-05-03T15:20:27.562Z</time></trkpt><trkpt lat="43.6051427" lon="10.7758631"><ele>205.0</ele><time>2026-05-03T15:20:28.562Z</time></trkpt><trkpt lat="43.6052316" lon="10.7757952"><ele>205.0</ele><time>2026-05-03T15:20:29.562Z</time></trkpt><trkpt lat="43.6053086" lon="10.7757131"><ele>205.0</ele><time>2026-05-03T15:20:30.562Z</time></trkpt><trkpt lat="43.6053613" lon="10.775628"><ele>204.49999999999997</ele><time>2026-05-03T15:20:31.562Z</time></trkpt><trkpt lat="43.6054151" lon="10.775538"><ele>204.0</ele><time>2026-05-03T15:20:33.562Z</time></trkpt><trkpt lat="43.6054231" lon="10.7754315"><ele>203.5</ele><time>2026-05-03T15:20:36.561Z</time></trkpt><trkpt lat="43.6053961" lon="10.7753373"><ele>203.0</ele><time>2026-05-03T15:20:37.561Z</time></trkpt><trkpt lat="43.6053558" lon="10.7752253"><ele>202.49999999999997</ele><time>2026-05-03T15:20:38.562Z</time></trkpt><trkpt lat="43.6053061" lon="10.7750819"><ele>202.0</ele><time>2026-05-03T15:20:39.561Z</time></trkpt><trkpt lat="43.6052566" lon="10.7749374"><ele>202.0</ele><time>2026-05-03T15:20:40.561Z</time></trkpt><trkpt lat="43.6052039" lon="10.7748059"><ele>202.0</ele><time>2026-05-03T15:20:41.562Z</time></trkpt><trkpt lat="43.6051622" lon="10.7747034"><ele>202.0</ele><time>2026-05-03T15:20:42.561Z</time></trkpt><trkpt lat="43.605129" lon="10.7745986"><ele>202.0</ele><time>2026-05-03T15:20:43.562Z</time></trkpt><trkpt lat="43.6051014" lon="10.7744926"><ele>202.0</ele><time>2026-05-03T15:20:44.563Z</time></trkpt><trkpt lat="43.6050661" lon="10.7743509"><ele>202.16666666666666</ele><time>2026-05-03T15:20:46.561Z</time></trkpt><trkpt lat="43.605077" lon="10.774255"><ele>202.33333333333331</ele><time>2026-05-03T15:20:48.562Z</time></trkpt><trkpt lat="43.6051583" lon="10.7742204"><ele>202.5</ele><time>2026-05-03T15:20:50.562Z</time></trkpt><trkpt lat="43.6052114" lon="10.774173"><ele>202.66666666666669</ele><time>2026-05-03T15:20:52.562Z</time></trkpt><trkpt lat="43.6053222" lon="10.7741297"><ele>202.83333333333334</ele><time>2026-05-03T15:20:54.562Z</time></trkpt><trkpt lat="43.6054073" lon="10.774128"><ele>203.0</ele><time>2026-05-03T15:20:55.563Z</time></trkpt><trkpt lat="43.6055084" lon="10.7741634"><ele>203.0</ele><time>2026-05-03T15:20:56.562Z</time></trkpt><trkpt lat="43.605615" lon="10.774201"><ele>203.0</ele><time>2026-05-03T15:20:57.562Z</time></trkpt><trkpt lat="43.6057247" lon="10.7742386"><ele>203.0</ele><time>2026-05-03T15:20:58.561Z</time></trkpt><trkpt lat="43.6058436" lon="10.7742915"><ele>203.0</ele><time>2026-05-03T15:20:59.561Z</time></trkpt><trkpt lat="43.6059556" lon="10.7743495"><ele>203.5</ele><time>2026-05-03T15:21:00.561Z</time></trkpt><trkpt lat="43.6060666" lon="10.7743922"><ele>204.0</ele><time>2026-05-03T15:21:01.562Z</time></trkpt><trkpt lat="43.6061695" lon="10.7744279"><ele>204.5</ele><time>2026-05-03T15:21:02.562Z</time></trkpt><trkpt lat="43.6062938" lon="10.7744603"><ele>205.0</ele><time>2026-05-03T15:21:03.561Z</time></trkpt><trkpt lat="43.6064261" lon="10.7744909"><ele>205.0</ele><time>2026-05-03T15:21:04.561Z</time></trkpt><trkpt lat="43.6065692" lon="10.7745084"><ele>205.0</ele><time>2026-05-03T15:21:05.562Z</time></trkpt><trkpt lat="43.6067042" lon="10.7745331"><ele>205.0</ele><time>2026-05-03T15:21:06.56Z</time></trkpt><trkpt lat="43.6068384" lon="10.7745483"><ele>205.0</ele><time>2026-05-03T15:21:07.562Z</time></trkpt><trkpt lat="43.6069705" lon="10.7745549"><ele>205.75</ele><time>2026-05-03T15:21:08.561Z</time></trkpt><trkpt lat="43.6071021" lon="10.774567"><ele>206.5</ele><time>2026-05-03T15:21:09.562Z</time></trkpt><trkpt lat="43.6072315" lon="10.774573"><ele>207.25</ele><time>2026-05-03T15:21:10.562Z</time></trkpt><trkpt lat="43.6073706" lon="10.7745896"><ele>208.0</ele><time>2026-05-03T15:21:11.562Z</time></trkpt><trkpt lat="43.6074872" lon="10.7745998"><ele>208.0</ele><time>2026-05-03T15:21:12.562Z</time></trkpt><trkpt lat="43.6076024" lon="10.7746088"><ele>208.0</ele><time>2026-05-03T15:21:13.562Z</time></trkpt><trkpt lat="43.6077095" lon="10.7746138"><ele>208.0</ele><time>2026-05-03T15:21:14.561Z</time></trkpt><trkpt lat="43.607827" lon="10.774619"><ele>208.0</ele><time>2026-05-03T15:21:15.562Z</time></trkpt><trkpt lat="43.6079407" lon="10.7746231"><ele>205.2</ele><time>2026-05-03T15:21:16.562Z</time></trkpt><trkpt lat="43.6080537" lon="10.7746007"><ele>202.4</ele><time>2026-05-03T15:21:17.562Z</time></trkpt><trkpt lat="43.6081548" lon="10.7745712"><ele>199.6</ele><time>2026-05-03T15:21:18.562Z</time></trkpt><trkpt lat="43.6082517" lon="10.7745162"><ele>196.79999999999998</ele><time>2026-05-03T15:21:19.56Z</time></trkpt><trkpt lat="43.6083348" lon="10.7744127"><ele>194.0</ele><time>2026-05-03T15:21:20.562Z</time></trkpt><trkpt lat="43.6083981" lon="10.7742719"><ele>194.0</ele><time>2026-05-03T15:21:21.561Z</time></trkpt><trkpt lat="43.6084381" lon="10.7741218"><ele>194.0</ele><time>2026-05-03T15:21:22.562Z</time></trkpt><trkpt lat="43.6084859" lon="10.7739841"><ele>194.0</ele><time>2026-05-03T15:21:23.562Z</time></trkpt><trkpt lat="43.6085432" lon="10.7738619"><ele>194.0</ele><time>2026-05-03T15:21:24.562Z</time></trkpt><trkpt lat="43.6086432" lon="10.7737658"><ele>193.0</ele><time>2026-05-03T15:21:25.561Z</time></trkpt><trkpt lat="43.6087424" lon="10.7736881"><ele>192.0</ele><time>2026-05-03T15:21:26.562Z</time></trkpt><trkpt lat="43.6088603" lon="10.7736275"><ele>191.0</ele><time>2026-05-03T15:21:27.561Z</time></trkpt><trkpt lat="43.608966" lon="10.7735788"><ele>190.0</ele><time>2026-05-03T15:21:28.562Z</time></trkpt><trkpt lat="43.6090712" lon="10.7735781"><ele>190.0</ele><time>2026-05-03T15:21:29.563Z</time></trkpt><trkpt lat="43.609202" lon="10.7736016"><ele>190.0</ele><time>2026-05-03T15:21:30.561Z</time></trkpt><trkpt lat="43.609372" lon="10.7736855"><ele>190.0</ele><time>2026-05-03T15:21:31.561Z</time></trkpt><trkpt lat="43.6095245" lon="10.7738036"><ele>195.0</ele><time>2026-05-03T15:21:32.562Z</time></trkpt><trkpt lat="43.6096897" lon="10.7739379"><ele>200.0</ele><time>2026-05-03T15:21:33.562Z</time></trkpt><trkpt lat="43.6098391" lon="10.7740403"><ele>205.0</ele><time>2026-05-03T15:21:34.562Z</time></trkpt><trkpt lat="43.6099817" lon="10.7741145"><ele>205.0</ele><time>2026-05-03T15:21:35.562Z</time></trkpt><trkpt lat="43.6101374" lon="10.7741412"><ele>205.0</ele><time>2026-05-03T15:21:36.562Z</time></trkpt><trkpt lat="43.610282" lon="10.7741382"><ele>205.0</ele><time>2026-05-03T15:21:37.562Z</time></trkpt><trkpt lat="43.6104364" lon="10.7741026"><ele>205.33333333333331</ele><time>2026-05-03T15:21:38.562Z</time></trkpt><trkpt lat="43.6105995" lon="10.7740623"><ele>205.66666666666669</ele><time>2026-05-03T15:21:39.562Z</time></trkpt><trkpt lat="43.610771" lon="10.7740229"><ele>206.0</ele><time>2026-05-03T15:21:40.562Z</time></trkpt><trkpt lat="43.6109309" lon="10.7739876"><ele>206.0</ele><time>2026-05-03T15:21:41.561Z</time></trkpt><trkpt lat="43.6110863" lon="10.7739394"><ele>206.0</ele><time>2026-05-03T15:21:42.561Z</time></trkpt><trkpt lat="43.611164" lon="10.7738617"><ele>206.0</ele><time>2026-05-03T15:21:43.562Z</time></trkpt><trkpt lat="43.6112349" lon="10.7737535"><ele>206.0</ele><time>2026-05-03T15:21:44.562Z</time></trkpt><trkpt lat="43.6112913" lon="10.7736132"><ele>208.25</ele><time>2026-05-03T15:21:45.561Z</time></trkpt><trkpt lat="43.6113493" lon="10.7734769"><ele>210.5</ele><time>2026-05-03T15:21:46.562Z</time></trkpt><trkpt lat="43.6114169" lon="10.7733804"><ele>212.75</ele><time>2026-05-03T15:21:47.562Z</time></trkpt><trkpt lat="43.6115207" lon="10.7733187"><ele>215.0</ele><time>2026-05-03T15:21:48.562Z</time></trkpt><trkpt lat="43.6116433" lon="10.7732781"><ele>215.0</ele><time>2026-05-03T15:21:49.561Z</time></trkpt><trkpt lat="43.6117942" lon="10.7732615"><ele>215.0</ele><time>2026-05-03T15:21:50.562Z</time></trkpt><trkpt lat="43.6119427" lon="10.7732574"><ele>215.0</ele><time>2026-05-03T15:21:51.562Z</time></trkpt><trkpt lat="43.6120793" lon="10.7732587"><ele>215.0</ele><time>2026-05-03T15:21:52.562Z</time></trkpt><trkpt lat="43.6121954" lon="10.7732175"><ele>215.66666666666669</ele><time>2026-05-03T15:21:53.561Z</time></trkpt><trkpt lat="43.6123243" lon="10.7731536"><ele>216.33333333333331</ele><time>2026-05-03T15:21:54.562Z</time></trkpt><trkpt lat="43.6124075" lon="10.7729649"><ele>217.0</ele><time>2026-05-03T15:21:55.561Z</time></trkpt><trkpt lat="43.6125037" lon="10.7727795"><ele>214.0</ele><time>2026-05-03T15:21:56.562Z</time></trkpt><trkpt lat="43.6126076" lon="10.7726002"><ele>211.0</ele><time>2026-05-03T15:21:57.562Z</time></trkpt><trkpt lat="43.6127336" lon="10.7724328"><ele>208.0</ele><time>2026-05-03T15:21:58.562Z</time></trkpt><trkpt lat="43.6128632" lon="10.772271"><ele>208.0</ele><time>2026-05-03T15:21:59.561Z</time></trkpt><trkpt lat="43.6129893" lon="10.7721165"><ele>208.0</ele><time>2026-05-03T15:22:00.562Z</time></trkpt><trkpt lat="43.6130968" lon="10.7719506"><ele>208.0</ele><time>2026-05-03T15:22:01.562Z</time></trkpt><trkpt lat="43.6132007" lon="10.771773"><ele>208.0</ele><time>2026-05-03T15:22:02.562Z</time></trkpt><trkpt lat="43.6132917" lon="10.7715904"><ele>208.0</ele><time>2026-05-03T15:22:03.561Z</time></trkpt><trkpt lat="43.6133629" lon="10.7713888"><ele>208.0</ele><time>2026-05-03T15:22:04.562Z</time></trkpt><trkpt lat="43.6134046" lon="10.7711807"><ele>207.33333333333331</ele><time>2026-05-03T15:22:05.561Z</time></trkpt><trkpt lat="43.6134103" lon="10.7709661"><ele>206.66666666666669</ele><time>2026-05-03T15:22:06.56Z</time></trkpt><trkpt lat="43.6134164" lon="10.7707559"><ele>206.0</ele><time>2026-05-03T15:22:07.562Z</time></trkpt><trkpt lat="43.6134679" lon="10.770567"><ele>206.0</ele><time>2026-05-03T15:22:08.562Z</time></trkpt><trkpt lat="43.613539" lon="10.7703569"><ele>206.0</ele><time>2026-05-03T15:22:09.562Z</time></trkpt><trkpt lat="43.6136303" lon="10.7701396"><ele>206.0</ele><time>2026-05-03T15:22:10.562Z</time></trkpt><trkpt lat="43.6136886" lon="10.7699102"><ele>200.33333333333334</ele><time>2026-05-03T15:22:11.563Z</time></trkpt><trkpt lat="43.6137148" lon="10.7696688"><ele>194.66666666666669</ele><time>2026-05-03T15:22:12.562Z</time></trkpt><trkpt lat="43.6137198" lon="10.7694194"><ele>189.0</ele><time>2026-05-03T15:22:13.561Z</time></trkpt><trkpt lat="43.6136968" lon="10.7691717"><ele>189.0</ele><time>2026-05-03T15:22:14.562Z</time></trkpt><trkpt lat="43.6136726" lon="10.7689193"><ele>189.0</ele><time>2026-05-03T15:22:15.561Z</time></trkpt><trkpt lat="43.6136467" lon="10.7686668"><ele>189.0</ele><time>2026-05-03T15:22:16.563Z</time></trkpt><trkpt lat="43.6136187" lon="10.768419"><ele>188.33333333333334</ele><time>2026-05-03T15:22:17.562Z</time></trkpt><trkpt lat="43.6135908" lon="10.7681685"><ele>187.66666666666669</ele><time>2026-05-03T15:22:18.563Z</time></trkpt><trkpt lat="43.6135617" lon="10.7679413"><ele>187.0</ele><time>2026-05-03T15:22:19.562Z</time></trkpt><trkpt lat="43.6135324" lon="10.7677215"><ele>188.66666666666669</ele><time>2026-05-03T15:22:20.562Z</time></trkpt><trkpt lat="43.6135154" lon="10.7675114"><ele>190.33333333333334</ele><time>2026-05-03T15:22:21.562Z</time></trkpt><trkpt lat="43.6135187" lon="10.7673001"><ele>192.0</ele><time>2026-05-03T15:22:22.561Z</time></trkpt><trkpt lat="43.6135278" lon="10.7670774"><ele>190.66666666666666</ele><time>2026-05-03T15:22:23.563Z</time></trkpt><trkpt lat="43.6135422" lon="10.7668436"><ele>189.33333333333331</ele><time>2026-05-03T15:22:24.561Z</time></trkpt><trkpt lat="43.6135615" lon="10.7665943"><ele>188.0</ele><time>2026-05-03T15:22:25.562Z</time></trkpt><trkpt lat="43.6135605" lon="10.766379"><ele>188.0</ele><time>2026-05-03T15:22:26.561Z</time></trkpt><trkpt lat="43.6135641" lon="10.7661218"><ele>188.0</ele><time>2026-05-03T15:22:27.561Z</time></trkpt><trkpt lat="43.6135752" lon="10.7658733"><ele>188.0</ele><time>2026-05-03T15:22:28.561Z</time></trkpt><trkpt lat="43.6135774" lon="10.7656357"><ele>184.33333333333331</ele><time>2026-05-03T15:22:29.563Z</time></trkpt><trkpt lat="43.613581" lon="10.7653845"><ele>180.66666666666666</ele><time>2026-05-03T15:22:30.561Z</time></trkpt><trkpt lat="43.61358" lon="10.7651281"><ele>177.0</ele><time>2026-05-03T15:22:31.56Z</time></trkpt><trkpt lat="43.6135802" lon="10.7648776"><ele>176.66666666666666</ele><time>2026-05-03T15:22:32.562Z</time></trkpt><trkpt lat="43.613582" lon="10.7646339"><ele>176.33333333333331</ele><time>2026-05-03T15:22:33.561Z</time></trkpt><trkpt lat="43.613575" lon="10.7644004"><ele>176.0</ele><time>2026-05-03T15:22:34.562Z</time></trkpt><trkpt lat="43.6135778" lon="10.7641864"><ele>176.0</ele><time>2026-05-03T15:22:35.561Z</time></trkpt><trkpt lat="43.6135922" lon="10.7639974"><ele>176.0</ele><time>2026-05-03T15:22:36.561Z</time></trkpt><trkpt lat="43.6136444" lon="10.7638272"><ele>176.0</ele><time>2026-05-03T15:22:37.562Z</time></trkpt><trkpt lat="43.6137287" lon="10.7636874"><ele>176.0</ele><time>2026-05-03T15:22:38.561Z</time></trkpt><trkpt lat="43.6138527" lon="10.7635657"><ele>178.0</ele><time>2026-05-03T15:22:39.562Z</time></trkpt><trkpt lat="43.6140049" lon="10.7634421"><ele>180.0</ele><time>2026-05-03T15:22:40.562Z</time></trkpt><trkpt lat="43.6141612" lon="10.7633127"><ele>182.0</ele><time>2026-05-03T15:22:41.562Z</time></trkpt><trkpt lat="43.6143136" lon="10.7631714"><ele>182.0</ele><time>2026-05-03T15:22:42.562Z</time></trkpt><trkpt lat="43.6144618" lon="10.7630191"><ele>182.0</ele><time>2026-05-03T15:22:43.562Z</time></trkpt><trkpt lat="43.6145931" lon="10.7628564"><ele>182.0</ele><time>2026-05-03T15:22:44.561Z</time></trkpt><trkpt lat="43.6147222" lon="10.7626839"><ele>182.33333333333331</ele><time>2026-05-03T15:22:45.562Z</time></trkpt><trkpt lat="43.6148384" lon="10.7625198"><ele>182.66666666666666</ele><time>2026-05-03T15:22:46.562Z</time></trkpt><trkpt lat="43.6149635" lon="10.7623754"><ele>183.0</ele><time>2026-05-03T15:22:47.56Z</time></trkpt><trkpt lat="43.6151028" lon="10.7622536"><ele>183.0</ele><time>2026-05-03T15:22:48.561Z</time></trkpt><trkpt lat="43.6152421" lon="10.7621459"><ele>183.0</ele><time>2026-05-03T15:22:49.564Z</time></trkpt><trkpt lat="43.6154029" lon="10.762055"><ele>183.0</ele><time>2026-05-03T15:22:50.562Z</time></trkpt><trkpt lat="43.6155606" lon="10.7619637"><ele>178.66666666666666</ele><time>2026-05-03T15:22:51.562Z</time></trkpt><trkpt lat="43.6157057" lon="10.7618623"><ele>174.33333333333331</ele><time>2026-05-03T15:22:52.562Z</time></trkpt><trkpt lat="43.6158586" lon="10.7617351"><ele>170.0</ele><time>2026-05-03T15:22:53.562Z</time></trkpt><trkpt lat="43.6160082" lon="10.7615959"><ele>170.0</ele><time>2026-05-03T15:22:54.562Z</time></trkpt><trkpt lat="43.6161444" lon="10.7614425"><ele>170.0</ele><time>2026-05-03T15:22:55.562Z</time></trkpt><trkpt lat="43.6162859" lon="10.7612872"><ele>170.0</ele><time>2026-05-03T15:22:56.562Z</time></trkpt><trkpt lat="43.6164282" lon="10.7611493"><ele>170.0</ele><time>2026-05-03T15:22:57.561Z</time></trkpt><trkpt lat="43.6165755" lon="10.761021"><ele>170.0</ele><time>2026-05-03T15:22:58.562Z</time></trkpt><trkpt lat="43.6167379" lon="10.7609116"><ele>170.0</ele><time>2026-05-03T15:22:59.562Z</time></trkpt><trkpt lat="43.616895" lon="10.7608041"><ele>167.33333333333331</ele><time>2026-05-03T15:23:00.562Z</time></trkpt><trkpt lat="43.6170517" lon="10.7607262"><ele>164.66666666666666</ele><time>2026-05-03T15:23:01.562Z</time></trkpt><trkpt lat="43.617205" lon="10.7606633"><ele>162.0</ele><time>2026-05-03T15:23:02.561Z</time></trkpt><trkpt lat="43.6173277" lon="10.7605976"><ele>162.0</ele><time>2026-05-03T15:23:03.562Z</time></trkpt><trkpt lat="43.6174282" lon="10.7605031"><ele>162.0</ele><time>2026-05-03T15:23:04.561Z</time></trkpt><trkpt lat="43.6175034" lon="10.7603763"><ele>162.0</ele><time>2026-05-03T15:23:05.562Z</time></trkpt><trkpt lat="43.6175573" lon="10.760216"><ele>162.0</ele><time>2026-05-03T15:23:06.562Z</time></trkpt><trkpt lat="43.6176039" lon="10.7600406"><ele>162.75</ele><time>2026-05-03T15:23:07.562Z</time></trkpt><trkpt lat="43.6176621" lon="10.7598574"><ele>163.5</ele><time>2026-05-03T15:23:08.561Z</time></trkpt><trkpt lat="43.6177381" lon="10.7596976"><ele>164.25</ele><time>2026-05-03T15:23:09.562Z</time></trkpt><trkpt lat="43.617834" lon="10.7595612"><ele>165.0</ele><time>2026-05-03T15:23:10.562Z</time></trkpt><trkpt lat="43.6179448" lon="10.7594519"><ele>165.25</ele><time>2026-05-03T15:23:11.562Z</time></trkpt><trkpt lat="43.6180553" lon="10.759371"><ele>165.5</ele><time>2026-05-03T15:23:12.561Z</time></trkpt><trkpt lat="43.6181951" lon="10.7593206"><ele>165.75</ele><time>2026-05-03T15:23:13.562Z</time></trkpt><trkpt lat="43.6183531" lon="10.7592883"><ele>166.0</ele><time>2026-05-03T15:23:14.561Z</time></trkpt><trkpt lat="43.6184948" lon="10.75927"><ele>166.0</ele><time>2026-05-03T15:23:15.562Z</time></trkpt><trkpt lat="43.6186179" lon="10.7592259"><ele>166.0</ele><time>2026-05-03T15:23:16.561Z</time></trkpt><trkpt lat="43.6187293" lon="10.7591388"><ele>166.0</ele><time>2026-05-03T15:23:17.562Z</time></trkpt><trkpt lat="43.6188276" lon="10.7590192"><ele>166.0</ele><time>2026-05-03T15:23:18.561Z</time></trkpt><trkpt lat="43.6189049" lon="10.7588608"><ele>165.33333333333334</ele><time>2026-05-03T15:23:19.561Z</time></trkpt><trkpt lat="43.6189712" lon="10.7586801"><ele>164.66666666666666</ele><time>2026-05-03T15:23:20.562Z</time></trkpt><trkpt lat="43.6190225" lon="10.7584707"><ele>164.0</ele><time>2026-05-03T15:23:21.562Z</time></trkpt><trkpt lat="43.6190689" lon="10.7582617"><ele>165.5</ele><time>2026-05-03T15:23:22.562Z</time></trkpt><trkpt lat="43.6191017" lon="10.7580671"><ele>167.0</ele><time>2026-05-03T15:23:23.562Z</time></trkpt><trkpt lat="43.6191001" lon="10.7579012"><ele>168.5</ele><time>2026-05-03T15:23:24.561Z</time></trkpt><trkpt lat="43.6191023" lon="10.7577345"><ele>170.0</ele><time>2026-05-03T15:23:25.563Z</time></trkpt><trkpt lat="43.6190722" lon="10.7575969"><ele>171.25</ele><time>2026-05-03T15:23:26.561Z</time></trkpt><trkpt lat="43.6190277" lon="10.7574885"><ele>172.5</ele><time>2026-05-03T15:23:27.561Z</time></trkpt><trkpt lat="43.6188923" lon="10.7574657"><ele>173.75</ele><time>2026-05-03T15:23:28.562Z</time></trkpt><trkpt lat="43.6187801" lon="10.757418"><ele>175.0</ele><time>2026-05-03T15:23:29.561Z</time></trkpt><trkpt lat="43.6186661" lon="10.7573433"><ele>173.0</ele><time>2026-05-03T15:23:30.562Z</time></trkpt><trkpt lat="43.6185656" lon="10.7572679"><ele>171.0</ele><time>2026-05-03T15:23:31.562Z</time></trkpt><trkpt lat="43.618468" lon="10.7571902"><ele>169.0</ele><time>2026-05-03T15:23:32.562Z</time></trkpt><trkpt lat="43.6183805" lon="10.7570809"><ele>167.0</ele><time>2026-05-03T15:23:33.56Z</time></trkpt><trkpt lat="43.6182942" lon="10.7569296"><ele>165.66666666666666</ele><time>2026-05-03T15:23:34.561Z</time></trkpt><trkpt lat="43.618205" lon="10.7567441"><ele>164.33333333333334</ele><time>2026-05-03T15:23:35.561Z</time></trkpt><trkpt lat="43.618119" lon="10.7565565"><ele>163.0</ele><time>2026-05-03T15:23:36.562Z</time></trkpt><trkpt lat="43.6180236" lon="10.7563672"><ele>163.0</ele><time>2026-05-03T15:23:37.562Z</time></trkpt><trkpt lat="43.6179447" lon="10.7561794"><ele>163.0</ele><time>2026-05-03T15:23:38.56Z</time></trkpt><trkpt lat="43.6178794" lon="10.7560003"><ele>163.0</ele><time>2026-05-03T15:23:39.561Z</time></trkpt><trkpt lat="43.6178416" lon="10.7558217"><ele>163.0</ele><time>2026-05-03T15:23:40.562Z</time></trkpt><trkpt lat="43.6178417" lon="10.7556425"><ele>160.5</ele><time>2026-05-03T15:23:41.561Z</time></trkpt><trkpt lat="43.6178633" lon="10.7554624"><ele>158.0</ele><time>2026-05-03T15:23:42.562Z</time></trkpt><trkpt lat="43.6178932" lon="10.7552857"><ele>155.5</ele><time>2026-05-03T15:23:43.561Z</time></trkpt><trkpt lat="43.6179254" lon="10.7551036"><ele>153.0</ele><time>2026-05-03T15:23:44.562Z</time></trkpt><trkpt lat="43.6179575" lon="10.7549321"><ele>151.5</ele><time>2026-05-03T15:23:45.561Z</time></trkpt><trkpt lat="43.6179802" lon="10.7547564"><ele>150.0</ele><time>2026-05-03T15:23:46.561Z</time></trkpt><trkpt lat="43.6179888" lon="10.7545724"><ele>148.5</ele><time>2026-05-03T15:23:47.561Z</time></trkpt><trkpt lat="43.6179867" lon="10.7543783"><ele>147.0</ele><time>2026-05-03T15:23:48.562Z</time></trkpt><trkpt lat="43.6179865" lon="10.7541799"><ele>146.75</ele><time>2026-05-03T15:23:49.562Z</time></trkpt><trkpt lat="43.6179804" lon="10.7539829"><ele>146.5</ele><time>2026-05-03T15:23:50.562Z</time></trkpt><trkpt lat="43.6179752" lon="10.7537878"><ele>146.25</ele><time>2026-05-03T15:23:51.562Z</time></trkpt><trkpt lat="43.617971" lon="10.7536002"><ele>146.0</ele><time>2026-05-03T15:23:52.56Z</time></trkpt><trkpt lat="43.6179586" lon="10.7534154"><ele>146.0</ele><time>2026-05-03T15:23:53.562Z</time></trkpt><trkpt lat="43.6179515" lon="10.7532326"><ele>146.0</ele><time>2026-05-03T15:23:54.561Z</time></trkpt><trkpt lat="43.6179703" lon="10.7530469"><ele>146.0</ele><time>2026-05-03T15:23:55.562Z</time></trkpt><trkpt lat="43.6180054" lon="10.752868"><ele>146.0</ele><time>2026-05-03T15:23:56.561Z</time></trkpt><trkpt lat="43.6180661" lon="10.7527068"><ele>149.5</ele><time>2026-05-03T15:23:57.561Z</time></trkpt><trkpt lat="43.6181474" lon="10.7525536"><ele>153.0</ele><time>2026-05-03T15:23:58.562Z</time></trkpt><trkpt lat="43.6182376" lon="10.7523973"><ele>156.5</ele><time>2026-05-03T15:23:59.562Z</time></trkpt><trkpt lat="43.6183272" lon="10.752218"><ele>160.0</ele><time>2026-05-03T15:24:00.562Z</time></trkpt><trkpt lat="43.618418" lon="10.7520092"><ele>160.33333333333334</ele><time>2026-05-03T15:24:01.561Z</time></trkpt><trkpt lat="43.6184908" lon="10.7517931"><ele>160.66666666666666</ele><time>2026-05-03T15:24:02.561Z</time></trkpt><trkpt lat="43.6185514" lon="10.7515694"><ele>161.0</ele><time>2026-05-03T15:24:03.561Z</time></trkpt><trkpt lat="43.6185968" lon="10.7513404"><ele>161.0</ele><time>2026-05-03T15:24:04.561Z</time></trkpt><trkpt lat="43.6186305" lon="10.7511093"><ele>161.0</ele><time>2026-05-03T15:24:05.562Z</time></trkpt><trkpt lat="43.6186667" lon="10.7508785"><ele>161.0</ele><time>2026-05-03T15:24:06.562Z</time></trkpt><trkpt lat="43.6187063" lon="10.7506559"><ele>156.33333333333331</ele><time>2026-05-03T15:24:07.56Z</time></trkpt><trkpt lat="43.6187635" lon="10.7504422"><ele>151.66666666666666</ele><time>2026-05-03T15:24:08.562Z</time></trkpt><trkpt lat="43.6188347" lon="10.7502491"><ele>147.0</ele><time>2026-05-03T15:24:09.562Z</time></trkpt><trkpt lat="43.6189147" lon="10.750049"><ele>147.0</ele><time>2026-05-03T15:24:10.563Z</time></trkpt><trkpt lat="43.6189915" lon="10.7498588"><ele>147.0</ele><time>2026-05-03T15:24:11.562Z</time></trkpt><trkpt lat="43.6190625" lon="10.7496797"><ele>147.0</ele><time>2026-05-03T15:24:12.563Z</time></trkpt><trkpt lat="43.6191343" lon="10.7495124"><ele>147.0</ele><time>2026-05-03T15:24:13.562Z</time></trkpt><trkpt lat="43.6191823" lon="10.7493406"><ele>147.5</ele><time>2026-05-03T15:24:14.562Z</time></trkpt><trkpt lat="43.6191969" lon="10.7491641"><ele>148.0</ele><time>2026-05-03T15:24:15.561Z</time></trkpt><trkpt lat="43.6191727" lon="10.7489908"><ele>148.5</ele><time>2026-05-03T15:24:16.56Z</time></trkpt><trkpt lat="43.619112" lon="10.7488273"><ele>149.0</ele><time>2026-05-03T15:24:17.568Z</time></trkpt><trkpt lat="43.6190112" lon="10.7486672"><ele>147.66666666666666</ele><time>2026-05-03T15:24:18.57Z</time></trkpt><trkpt lat="43.6188857" lon="10.7485219"><ele>146.33333333333334</ele><time>2026-05-03T15:24:19.562Z</time></trkpt><trkpt lat="43.6187488" lon="10.7483577"><ele>145.0</ele><time>2026-05-03T15:24:20.561Z</time></trkpt><trkpt lat="43.6186235" lon="10.7481769"><ele>146.33333333333334</ele><time>2026-05-03T15:24:21.561Z</time></trkpt><trkpt lat="43.6185054" lon="10.7480092"><ele>147.66666666666666</ele><time>2026-05-03T15:24:22.561Z</time></trkpt><trkpt lat="43.6184038" lon="10.747843"><ele>149.0</ele><time>2026-05-03T15:24:23.561Z</time></trkpt><trkpt lat="43.6183177" lon="10.7476664"><ele>149.0</ele><time>2026-05-03T15:24:24.561Z</time></trkpt><trkpt lat="43.6182423" lon="10.7474764"><ele>149.0</ele><time>2026-05-03T15:24:25.562Z</time></trkpt><trkpt lat="43.6181741" lon="10.7472761"><ele>149.0</ele><time>2026-05-03T15:24:26.562Z</time></trkpt><trkpt lat="43.6181028" lon="10.7470763"><ele>150.33333333333331</ele><time>2026-05-03T15:24:27.561Z</time></trkpt><trkpt lat="43.6180199" lon="10.7468713"><ele>151.66666666666666</ele><time>2026-05-03T15:24:28.56Z</time></trkpt><trkpt lat="43.617932" lon="10.74667"><ele>153.0</ele><time>2026-05-03T15:24:29.561Z</time></trkpt><trkpt lat="43.6178406" lon="10.7464718"><ele>149.66666666666666</ele><time>2026-05-03T15:24:30.561Z</time></trkpt><trkpt lat="43.6177515" lon="10.7462749"><ele>146.33333333333331</ele><time>2026-05-03T15:24:31.562Z</time></trkpt><trkpt lat="43.6176809" lon="10.7460824"><ele>143.0</ele><time>2026-05-03T15:24:32.561Z</time></trkpt><trkpt lat="43.6176125" lon="10.7459093"><ele>143.0</ele><time>2026-05-03T15:24:33.561Z</time></trkpt><trkpt lat="43.6175651" lon="10.7457424"><ele>143.0</ele><time>2026-05-03T15:24:34.561Z</time></trkpt><trkpt lat="43.617554" lon="10.7455796"><ele>143.0</ele><time>2026-05-03T15:24:35.561Z</time></trkpt><trkpt lat="43.6175722" lon="10.7454086"><ele>143.0</ele><time>2026-05-03T15:24:36.562Z</time></trkpt><trkpt lat="43.6176307" lon="10.7452308"><ele>142.0</ele><time>2026-05-03T15:24:37.562Z</time></trkpt><trkpt lat="43.6177152" lon="10.7450455"><ele>141.0</ele><time>2026-05-03T15:24:38.56Z</time></trkpt><trkpt lat="43.6178006" lon="10.7448397"><ele>140.0</ele><time>2026-05-03T15:24:39.562Z</time></trkpt><trkpt lat="43.617878" lon="10.7446094"><ele>142.0</ele><time>2026-05-03T15:24:40.562Z</time></trkpt><trkpt lat="43.6179577" lon="10.7443781"><ele>144.0</ele><time>2026-05-03T15:24:41.562Z</time></trkpt><trkpt lat="43.6180295" lon="10.7441583"><ele>146.0</ele><time>2026-05-03T15:24:42.561Z</time></trkpt><trkpt lat="43.6181017" lon="10.7439571"><ele>146.0</ele><time>2026-05-03T15:24:43.561Z</time></trkpt><trkpt lat="43.6181619" lon="10.7437635"><ele>146.0</ele><time>2026-05-03T15:24:44.562Z</time></trkpt><trkpt lat="43.6182009" lon="10.7435818"><ele>146.0</ele><time>2026-05-03T15:24:45.561Z</time></trkpt><trkpt lat="43.6182199" lon="10.7434068"><ele>146.0</ele><time>2026-05-03T15:24:46.562Z</time></trkpt><trkpt lat="43.6182022" lon="10.7432156"><ele>146.0</ele><time>2026-05-03T15:24:47.562Z</time></trkpt><trkpt lat="43.6181637" lon="10.7430009"><ele>146.0</ele><time>2026-05-03T15:24:48.563Z</time></trkpt><trkpt lat="43.6181184" lon="10.7427678"><ele>146.0</ele><time>2026-05-03T15:24:49.562Z</time></trkpt><trkpt lat="43.6180807" lon="10.7425267"><ele>146.0</ele><time>2026-05-03T15:24:50.562Z</time></trkpt><trkpt lat="43.6180343" lon="10.7422759"><ele>146.0</ele><time>2026-05-03T15:24:51.561Z</time></trkpt><trkpt lat="43.6179818" lon="10.7420353"><ele>146.0</ele><time>2026-05-03T15:24:52.561Z</time></trkpt><trkpt lat="43.6179201" lon="10.7418013"><ele>145.0</ele><time>2026-05-03T15:24:53.561Z</time></trkpt><trkpt lat="43.6178404" lon="10.7415673"><ele>144.0</ele><time>2026-05-03T15:24:54.56Z</time></trkpt><trkpt lat="43.617745" lon="10.7413073"><ele>143.0</ele><time>2026-05-03T15:24:55.561Z</time></trkpt><trkpt lat="43.6176461" lon="10.7410577"><ele>142.33333333333331</ele><time>2026-05-03T15:24:56.562Z</time></trkpt><trkpt lat="43.6175569" lon="10.7408192"><ele>141.66666666666666</ele><time>2026-05-03T15:24:57.562Z</time></trkpt><trkpt lat="43.61747" lon="10.7406009"><ele>141.0</ele><time>2026-05-03T15:24:58.562Z</time></trkpt><trkpt lat="43.6173902" lon="10.7403801"><ele>140.0</ele><time>2026-05-03T15:24:59.562Z</time></trkpt><trkpt lat="43.617319" lon="10.7401728"><ele>139.0</ele><time>2026-05-03T15:25:00.562Z</time></trkpt><trkpt lat="43.6172652" lon="10.7399613"><ele>138.0</ele><time>2026-05-03T15:25:01.562Z</time></trkpt><trkpt lat="43.6172398" lon="10.7397485"><ele>138.0</ele><time>2026-05-03T15:25:02.563Z</time></trkpt><trkpt lat="43.617227" lon="10.7395394"><ele>138.0</ele><time>2026-05-03T15:25:03.562Z</time></trkpt><trkpt lat="43.6172175" lon="10.7393342"><ele>138.0</ele><time>2026-05-03T15:25:04.562Z</time></trkpt><trkpt lat="43.6172292" lon="10.7391532"><ele>138.0</ele><time>2026-05-03T15:25:05.562Z</time></trkpt><trkpt lat="43.6172283" lon="10.7389325"><ele>136.66666666666666</ele><time>2026-05-03T15:25:06.562Z</time></trkpt><trkpt lat="43.6172304" lon="10.7387122"><ele>135.33333333333331</ele><time>2026-05-03T15:25:07.562Z</time></trkpt><trkpt lat="43.6172513" lon="10.7384941"><ele>134.0</ele><time>2026-05-03T15:25:08.562Z</time></trkpt><trkpt lat="43.6173187" lon="10.738314"><ele>134.0</ele><time>2026-05-03T15:25:09.562Z</time></trkpt><trkpt lat="43.6173798" lon="10.7380945"><ele>134.0</ele><time>2026-05-03T15:25:10.563Z</time></trkpt><trkpt lat="43.6174492" lon="10.737872"><ele>134.0</ele><time>2026-05-03T15:25:11.561Z</time></trkpt><trkpt lat="43.6175012" lon="10.7376298"><ele>134.33333333333331</ele><time>2026-05-03T15:25:12.562Z</time></trkpt><trkpt lat="43.6175377" lon="10.7373682"><ele>134.66666666666666</ele><time>2026-05-03T15:25:13.563Z</time></trkpt><trkpt lat="43.6175697" lon="10.7370942"><ele>135.0</ele><time>2026-05-03T15:25:14.56Z</time></trkpt><trkpt lat="43.6176032" lon="10.7368259"><ele>135.33333333333334</ele><time>2026-05-03T15:25:15.561Z</time></trkpt><trkpt lat="43.617618" lon="10.7365586"><ele>135.66666666666669</ele><time>2026-05-03T15:25:16.561Z</time></trkpt><trkpt lat="43.6176475" lon="10.7363342"><ele>136.0</ele><time>2026-05-03T15:25:17.561Z</time></trkpt><trkpt lat="43.6176581" lon="10.7361111"><ele>137.33333333333334</ele><time>2026-05-03T15:25:18.562Z</time></trkpt><trkpt lat="43.6176325" lon="10.7358915"><ele>138.66666666666666</ele><time>2026-05-03T15:25:19.56Z</time></trkpt><trkpt lat="43.6175736" lon="10.7356879"><ele>140.0</ele><time>2026-05-03T15:25:20.561Z</time></trkpt><trkpt lat="43.617487" lon="10.7354783"><ele>140.0</ele><time>2026-05-03T15:25:21.562Z</time></trkpt><trkpt lat="43.617385" lon="10.7352949"><ele>140.0</ele><time>2026-05-03T15:25:22.562Z</time></trkpt><trkpt lat="43.6172817" lon="10.7351198"><ele>140.0</ele><time>2026-05-03T15:25:23.561Z</time></trkpt><trkpt lat="43.6172375" lon="10.734944"><ele>142.75</ele><time>2026-05-03T15:25:24.562Z</time></trkpt><trkpt lat="43.6172209" lon="10.7347649"><ele>145.5</ele><time>2026-05-03T15:25:25.561Z</time></trkpt><trkpt lat="43.6172271" lon="10.7345583"><ele>148.25</ele><time>2026-05-03T15:25:26.562Z</time></trkpt><trkpt lat="43.6172495" lon="10.7343381"><ele>151.0</ele><time>2026-05-03T15:25:27.561Z</time></trkpt><trkpt lat="43.6172704" lon="10.7341031"><ele>152.0</ele><time>2026-05-03T15:25:28.561Z</time></trkpt><trkpt lat="43.6172905" lon="10.7338649"><ele>153.0</ele><time>2026-05-03T15:25:29.56Z</time></trkpt><trkpt lat="43.6173136" lon="10.7336239"><ele>154.0</ele><time>2026-05-03T15:25:30.563Z</time></trkpt><trkpt lat="43.6173376" lon="10.7334093"><ele>154.0</ele><time>2026-05-03T15:25:31.562Z</time></trkpt><trkpt lat="43.6173738" lon="10.733211"><ele>154.0</ele><time>2026-05-03T15:25:32.562Z</time></trkpt><trkpt lat="43.6174272" lon="10.7330151"><ele>154.0</ele><time>2026-05-03T15:25:33.562Z</time></trkpt><trkpt lat="43.6175051" lon="10.7328196"><ele>151.0</ele><time>2026-05-03T15:25:34.562Z</time></trkpt><trkpt lat="43.6175972" lon="10.732614"><ele>148.0</ele><time>2026-05-03T15:25:35.562Z</time></trkpt><trkpt lat="43.617699" lon="10.7323891"><ele>145.0</ele><time>2026-05-03T15:25:36.561Z</time></trkpt><trkpt lat="43.6177941" lon="10.732179"><ele>148.66666666666669</ele><time>2026-05-03T15:25:37.561Z</time></trkpt><trkpt lat="43.617895" lon="10.7320025"><ele>152.33333333333334</ele><time>2026-05-03T15:25:38.563Z</time></trkpt><trkpt lat="43.6179718" lon="10.7318248"><ele>156.0</ele><time>2026-05-03T15:25:39.563Z</time></trkpt><trkpt lat="43.6180363" lon="10.7316098"><ele>156.0</ele><time>2026-05-03T15:25:40.562Z</time></trkpt><trkpt lat="43.6180779" lon="10.7313891"><ele>156.0</ele><time>2026-05-03T15:25:41.56Z</time></trkpt><trkpt lat="43.6181234" lon="10.731155"><ele>156.0</ele><time>2026-05-03T15:25:42.561Z</time></trkpt><trkpt lat="43.6181943" lon="10.7309306"><ele>155.0</ele><time>2026-05-03T15:25:43.561Z</time></trkpt><trkpt lat="43.6182725" lon="10.7307167"><ele>154.0</ele><time>2026-05-03T15:25:44.563Z</time></trkpt><trkpt lat="43.6183285" lon="10.7305237"><ele>153.0</ele><time>2026-05-03T15:25:45.562Z</time></trkpt><trkpt lat="43.6183668" lon="10.7303294"><ele>154.33333333333334</ele><time>2026-05-03T15:25:46.563Z</time></trkpt><trkpt lat="43.6183676" lon="10.7301288"><ele>155.66666666666669</ele><time>2026-05-03T15:25:47.562Z</time></trkpt><trkpt lat="43.6183167" lon="10.7299282"><ele>157.0</ele><time>2026-05-03T15:25:48.56Z</time></trkpt><trkpt lat="43.6182329" lon="10.7297294"><ele>157.0</ele><time>2026-05-03T15:25:49.562Z</time></trkpt><trkpt lat="43.6181497" lon="10.7295129"><ele>157.0</ele><time>2026-05-03T15:25:50.562Z</time></trkpt><trkpt lat="43.6180518" lon="10.72927"><ele>157.0</ele><time>2026-05-03T15:25:51.562Z</time></trkpt><trkpt lat="43.6179478" lon="10.7290057"><ele>159.0</ele><time>2026-05-03T15:25:52.562Z</time></trkpt><trkpt lat="43.6178351" lon="10.7287653"><ele>161.0</ele><time>2026-05-03T15:25:53.562Z</time></trkpt><trkpt lat="43.6177195" lon="10.7285216"><ele>163.0</ele><time>2026-05-03T15:25:54.562Z</time></trkpt><trkpt lat="43.6176146" lon="10.7282882"><ele>158.66666666666669</ele><time>2026-05-03T15:25:55.56Z</time></trkpt><trkpt lat="43.6175361" lon="10.7280654"><ele>154.33333333333334</ele><time>2026-05-03T15:25:56.561Z</time></trkpt><trkpt lat="43.6174773" lon="10.7278354"><ele>150.0</ele><time>2026-05-03T15:25:57.561Z</time></trkpt><trkpt lat="43.6174422" lon="10.7276022"><ele>149.66666666666666</ele><time>2026-05-03T15:25:58.561Z</time></trkpt><trkpt lat="43.617428" lon="10.7273573"><ele>149.33333333333331</ele><time>2026-05-03T15:25:59.56Z</time></trkpt><trkpt lat="43.6174276" lon="10.72711"><ele>149.0</ele><time>2026-05-03T15:26:00.563Z</time></trkpt><trkpt lat="43.6174371" lon="10.7268618"><ele>147.66666666666666</ele><time>2026-05-03T15:26:01.562Z</time></trkpt><trkpt lat="43.6174633" lon="10.7266115"><ele>146.33333333333334</ele><time>2026-05-03T15:26:02.562Z</time></trkpt><trkpt lat="43.6175112" lon="10.7263693"><ele>145.0</ele><time>2026-05-03T15:26:03.563Z</time></trkpt><trkpt lat="43.617569" lon="10.7261266"><ele>145.33333333333334</ele><time>2026-05-03T15:26:04.561Z</time></trkpt><trkpt lat="43.6176126" lon="10.7259018"><ele>145.66666666666666</ele><time>2026-05-03T15:26:05.56Z</time></trkpt><trkpt lat="43.6176266" lon="10.7256764"><ele>146.0</ele><time>2026-05-03T15:26:06.562Z</time></trkpt><trkpt lat="43.6176071" lon="10.7254487"><ele>146.33333333333331</ele><time>2026-05-03T15:26:07.561Z</time></trkpt><trkpt lat="43.617583" lon="10.7252118"><ele>146.66666666666666</ele><time>2026-05-03T15:26:08.56Z</time></trkpt><trkpt lat="43.6175752" lon="10.7249689"><ele>147.0</ele><time>2026-05-03T15:26:09.562Z</time></trkpt><trkpt lat="43.6175993" lon="10.7247227"><ele>147.0</ele><time>2026-05-03T15:26:10.562Z</time></trkpt><trkpt lat="43.6176465" lon="10.7245053"><ele>147.0</ele><time>2026-05-03T15:26:11.563Z</time></trkpt><trkpt lat="43.6177149" lon="10.7243182"><ele>147.0</ele><time>2026-05-03T15:26:12.561Z</time></trkpt><trkpt lat="43.6177988" lon="10.7241301"><ele>150.25</ele><time>2026-05-03T15:26:13.562Z</time></trkpt><trkpt lat="43.6178891" lon="10.7239649"><ele>153.5</ele><time>2026-05-03T15:26:14.562Z</time></trkpt><trkpt lat="43.6179897" lon="10.723818"><ele>156.75</ele><time>2026-05-03T15:26:15.561Z</time></trkpt><trkpt lat="43.6180959" lon="10.7236997"><ele>160.0</ele><time>2026-05-03T15:26:16.561Z</time></trkpt><trkpt lat="43.618217" lon="10.7236019"><ele>162.66666666666669</ele><time>2026-05-03T15:26:17.561Z</time></trkpt><trkpt lat="43.6183651" lon="10.7235582"><ele>165.33333333333334</ele><time>2026-05-03T15:26:18.561Z</time></trkpt><trkpt lat="43.6185338" lon="10.7235249"><ele>168.0</ele><time>2026-05-03T15:26:19.562Z</time></trkpt><trkpt lat="43.6186605" lon="10.7234784"><ele>164.0</ele><time>2026-05-03T15:26:20.561Z</time></trkpt><trkpt lat="43.6187759" lon="10.7234067"><ele>160.0</ele><time>2026-05-03T15:26:21.561Z</time></trkpt><trkpt lat="43.6188601" lon="10.7232763"><ele>156.0</ele><time>2026-05-03T15:26:22.562Z</time></trkpt><trkpt lat="43.6189301" lon="10.7231249"><ele>152.0</ele><time>2026-05-03T15:26:23.562Z</time></trkpt><trkpt lat="43.6189645" lon="10.7229553"><ele>152.0</ele><time>2026-05-03T15:26:24.561Z</time></trkpt><trkpt lat="43.6189767" lon="10.7227934"><ele>152.0</ele><time>2026-05-03T15:26:25.562Z</time></trkpt><trkpt lat="43.6188982" lon="10.7226062"><ele>152.0</ele><time>2026-05-03T15:26:26.561Z</time></trkpt><trkpt lat="43.6188294" lon="10.722428"><ele>152.0</ele><time>2026-05-03T15:26:27.561Z</time></trkpt><trkpt lat="43.6187685" lon="10.7222232"><ele>152.33333333333331</ele><time>2026-05-03T15:26:28.562Z</time></trkpt><trkpt lat="43.6187091" lon="10.7219954"><ele>152.66666666666666</ele><time>2026-05-03T15:26:29.562Z</time></trkpt><trkpt lat="43.6186623" lon="10.7217599"><ele>153.0</ele><time>2026-05-03T15:26:30.562Z</time></trkpt><trkpt lat="43.6186199" lon="10.7215234"><ele>151.5</ele><time>2026-05-03T15:26:31.562Z</time></trkpt><trkpt lat="43.6186216" lon="10.7213509"><ele>150.0</ele><time>2026-05-03T15:26:32.561Z</time></trkpt><trkpt lat="43.6186267" lon="10.7211628"><ele>148.5</ele><time>2026-05-03T15:26:33.562Z</time></trkpt><trkpt lat="43.6186817" lon="10.7210626"><ele>147.0</ele><time>2026-05-03T15:26:34.562Z</time></trkpt><trkpt lat="43.6187615" lon="10.7208852"><ele>147.0</ele><time>2026-05-03T15:26:35.563Z</time></trkpt><trkpt lat="43.6188285" lon="10.7206947"><ele>147.0</ele><time>2026-05-03T15:26:36.562Z</time></trkpt><trkpt lat="43.6188541" lon="10.7204994"><ele>147.0</ele><time>2026-05-03T15:26:37.561Z</time></trkpt><trkpt lat="43.6188614" lon="10.7202363"><ele>148.66666666666666</ele><time>2026-05-03T15:26:38.561Z</time></trkpt><trkpt lat="43.6188886" lon="10.7199734"><ele>150.33333333333331</ele><time>2026-05-03T15:26:39.563Z</time></trkpt><trkpt lat="43.6189134" lon="10.7197291"><ele>152.0</ele><time>2026-05-03T15:26:40.562Z</time></trkpt><trkpt lat="43.6189437" lon="10.7195179"><ele>151.66666666666666</ele><time>2026-05-03T15:26:41.561Z</time></trkpt><trkpt lat="43.6189861" lon="10.7193144"><ele>151.33333333333334</ele><time>2026-05-03T15:26:42.562Z</time></trkpt><trkpt lat="43.619063" lon="10.7191245"><ele>151.0</ele><time>2026-05-03T15:26:43.561Z</time></trkpt><trkpt lat="43.6191378" lon="10.7189478"><ele>151.0</ele><time>2026-05-03T15:26:44.562Z</time></trkpt><trkpt lat="43.619218" lon="10.7187685"><ele>151.0</ele><time>2026-05-03T15:26:45.561Z</time></trkpt><trkpt lat="43.6193136" lon="10.718568"><ele>151.0</ele><time>2026-05-03T15:26:46.561Z</time></trkpt><trkpt lat="43.6193991" lon="10.7183787"><ele>154.66666666666669</ele><time>2026-05-03T15:26:47.561Z</time></trkpt><trkpt lat="43.6194906" lon="10.718207"><ele>158.33333333333334</ele><time>2026-05-03T15:26:48.561Z</time></trkpt><trkpt lat="43.6196022" lon="10.7180521"><ele>162.0</ele><time>2026-05-03T15:26:49.561Z</time></trkpt><trkpt lat="43.6197236" lon="10.7179291"><ele>162.0</ele><time>2026-05-03T15:26:50.561Z</time></trkpt><trkpt lat="43.6198572" lon="10.7178368"><ele>162.0</ele><time>2026-05-03T15:26:51.561Z</time></trkpt><trkpt lat="43.6200132" lon="10.7177692"><ele>162.0</ele><time>2026-05-03T15:26:52.562Z</time></trkpt><trkpt lat="43.6201578" lon="10.7177021"><ele>159.25</ele><time>2026-05-03T15:26:53.561Z</time></trkpt><trkpt lat="43.6203017" lon="10.7176427"><ele>156.5</ele><time>2026-05-03T15:26:54.562Z</time></trkpt><trkpt lat="43.6204448" lon="10.7176148"><ele>153.75</ele><time>2026-05-03T15:26:55.562Z</time></trkpt><trkpt lat="43.6205906" lon="10.7176091"><ele>151.0</ele><time>2026-05-03T15:26:56.561Z</time></trkpt><trkpt lat="43.6207457" lon="10.7176175"><ele>151.0</ele><time>2026-05-03T15:26:57.561Z</time></trkpt><trkpt lat="43.6208997" lon="10.717626"><ele>151.0</ele><time>2026-05-03T15:26:58.563Z</time></trkpt><trkpt lat="43.6210542" lon="10.7176432"><ele>151.0</ele><time>2026-05-03T15:26:59.562Z</time></trkpt><trkpt lat="43.6212066" lon="10.7176413"><ele>152.25</ele><time>2026-05-03T15:27:00.561Z</time></trkpt><trkpt lat="43.6213631" lon="10.717614"><ele>153.5</ele><time>2026-05-03T15:27:01.561Z</time></trkpt><trkpt lat="43.6215135" lon="10.7175703"><ele>154.75</ele><time>2026-05-03T15:27:02.561Z</time></trkpt><trkpt lat="43.6216479" lon="10.717529"><ele>156.0</ele><time>2026-05-03T15:27:03.562Z</time></trkpt><trkpt lat="43.6217432" lon="10.7174935"><ele>156.0</ele><time>2026-05-03T15:27:04.562Z</time></trkpt><trkpt lat="43.6218074" lon="10.7174629"><ele>156.0</ele><time>2026-05-03T15:27:05.562Z</time></trkpt><trkpt lat="43.621879" lon="10.717351"><ele>156.0</ele><time>2026-05-03T15:27:07.562Z</time></trkpt><trkpt lat="43.6219085" lon="10.717262"><ele>156.0</ele><time>2026-05-03T15:27:08.561Z</time></trkpt><trkpt lat="43.6219456" lon="10.7171511"><ele>156.0</ele><time>2026-05-03T15:27:09.56Z</time></trkpt><trkpt lat="43.621995" lon="10.7170216"><ele>156.0</ele><time>2026-05-03T15:27:10.561Z</time></trkpt><trkpt lat="43.6220421" lon="10.7168672"><ele>157.0</ele><time>2026-05-03T15:27:11.563Z</time></trkpt><trkpt lat="43.6220802" lon="10.7166995"><ele>158.0</ele><time>2026-05-03T15:27:12.562Z</time></trkpt><trkpt lat="43.6221038" lon="10.7165184"><ele>159.0</ele><time>2026-05-03T15:27:13.561Z</time></trkpt><trkpt lat="43.6221142" lon="10.7163437"><ele>160.0</ele><time>2026-05-03T15:27:14.561Z</time></trkpt><trkpt lat="43.6221225" lon="10.7161828"><ele>160.2</ele><time>2026-05-03T15:27:15.561Z</time></trkpt><trkpt lat="43.6221359" lon="10.716041"><ele>160.4</ele><time>2026-05-03T15:27:16.561Z</time></trkpt><trkpt lat="43.6221546" lon="10.7159162"><ele>160.60000000000002</ele><time>2026-05-03T15:27:17.561Z</time></trkpt><trkpt lat="43.6221859" lon="10.7157826"><ele>160.8</ele><time>2026-05-03T15:27:18.561Z</time></trkpt><trkpt lat="43.6222248" lon="10.7156316"><ele>161.0</ele><time>2026-05-03T15:27:19.562Z</time></trkpt><trkpt lat="43.6222725" lon="10.7154584"><ele>161.0</ele><time>2026-05-03T15:27:20.561Z</time></trkpt><trkpt lat="43.6223205" lon="10.7152739"><ele>161.0</ele><time>2026-05-03T15:27:21.561Z</time></trkpt><trkpt lat="43.6223672" lon="10.7150835"><ele>161.0</ele><time>2026-05-03T15:27:22.561Z</time></trkpt><trkpt lat="43.6224167" lon="10.7148528"><ele>158.33333333333331</ele><time>2026-05-03T15:27:23.561Z</time></trkpt><trkpt lat="43.6224468" lon="10.7146128"><ele>155.66666666666666</ele><time>2026-05-03T15:27:24.561Z</time></trkpt><trkpt lat="43.6224588" lon="10.7143452"><ele>153.0</ele><time>2026-05-03T15:27:25.563Z</time></trkpt><trkpt lat="43.6224499" lon="10.7140632"><ele>152.0</ele><time>2026-05-03T15:27:26.562Z</time></trkpt><trkpt lat="43.6224476" lon="10.7137876"><ele>151.0</ele><time>2026-05-03T15:27:27.562Z</time></trkpt><trkpt lat="43.6224499" lon="10.7135328"><ele>150.0</ele><time>2026-05-03T15:27:28.561Z</time></trkpt><trkpt lat="43.6224568" lon="10.7133074"><ele>150.0</ele><time>2026-05-03T15:27:29.562Z</time></trkpt><trkpt lat="43.6224634" lon="10.7131086"><ele>150.0</ele><time>2026-05-03T15:27:30.561Z</time></trkpt><trkpt lat="43.6224624" lon="10.7129238"><ele>150.0</ele><time>2026-05-03T15:27:31.562Z</time></trkpt><trkpt lat="43.6224467" lon="10.7127477"><ele>150.0</ele><time>2026-05-03T15:27:32.561Z</time></trkpt><trkpt lat="43.6224193" lon="10.7125678"><ele>150.25</ele><time>2026-05-03T15:27:33.561Z</time></trkpt><trkpt lat="43.622381" lon="10.7123881"><ele>150.5</ele><time>2026-05-03T15:27:34.562Z</time></trkpt><trkpt lat="43.6223373" lon="10.7122076"><ele>150.75</ele><time>2026-05-03T15:27:35.561Z</time></trkpt><trkpt lat="43.6222938" lon="10.7120201"><ele>151.0</ele><time>2026-05-03T15:27:36.561Z</time></trkpt><trkpt lat="43.622258" lon="10.7118376"><ele>149.75</ele><time>2026-05-03T15:27:37.562Z</time></trkpt><trkpt lat="43.6222217" lon="10.711664"><ele>148.5</ele><time>2026-05-03T15:27:38.561Z</time></trkpt><trkpt lat="43.6221981" lon="10.7114901"><ele>147.25</ele><time>2026-05-03T15:27:39.562Z</time></trkpt><trkpt lat="43.6221854" lon="10.7113205"><ele>146.0</ele><time>2026-05-03T15:27:40.562Z</time></trkpt><trkpt lat="43.6221796" lon="10.7111543"><ele>144.5</ele><time>2026-05-03T15:27:41.56Z</time></trkpt><trkpt lat="43.6221798" lon="10.7109887"><ele>143.0</ele><time>2026-05-03T15:27:42.562Z</time></trkpt><trkpt lat="43.622191" lon="10.7108268"><ele>141.5</ele><time>2026-05-03T15:27:43.562Z</time></trkpt><trkpt lat="43.6222106" lon="10.7106696"><ele>140.0</ele><time>2026-05-03T15:27:44.562Z</time></trkpt><trkpt lat="43.6222331" lon="10.7105169"><ele>140.0</ele><time>2026-05-03T15:27:45.562Z</time></trkpt><trkpt lat="43.6222675" lon="10.7103687"><ele>140.0</ele><time>2026-05-03T15:27:46.563Z</time></trkpt><trkpt lat="43.6222931" lon="10.710216"><ele>140.0</ele><time>2026-05-03T15:27:47.562Z</time></trkpt><trkpt lat="43.6223232" lon="10.7100937"><ele>140.0</ele><time>2026-05-03T15:27:48.561Z</time></trkpt><trkpt lat="43.6223324" lon="10.7099597"><ele>140.0</ele><time>2026-05-03T15:27:49.561Z</time></trkpt><trkpt lat="43.6223228" lon="10.7098405"><ele>140.0</ele><time>2026-05-03T15:27:50.561Z</time></trkpt><trkpt lat="43.6223018" lon="10.7097266"><ele>140.0</ele><time>2026-05-03T15:27:51.561Z</time></trkpt><trkpt lat="43.622284" lon="10.7095864"><ele>140.0</ele><time>2026-05-03T15:27:52.56Z</time></trkpt><trkpt lat="43.6222769" lon="10.7094547"><ele>140.0</ele><time>2026-05-03T15:27:53.56Z</time></trkpt><trkpt lat="43.6222785" lon="10.7093174"><ele>140.0</ele><time>2026-05-03T15:27:54.562Z</time></trkpt><trkpt lat="43.6222913" lon="10.7091759"><ele>140.6</ele><time>2026-05-03T15:27:55.562Z</time></trkpt><trkpt lat="43.6223058" lon="10.7090305"><ele>141.2</ele><time>2026-05-03T15:27:56.561Z</time></trkpt><trkpt lat="43.6223213" lon="10.7088842"><ele>141.8</ele><time>2026-05-03T15:27:57.561Z</time></trkpt><trkpt lat="43.6223441" lon="10.708724"><ele>142.4</ele><time>2026-05-03T15:27:58.56Z</time></trkpt><trkpt lat="43.6223725" lon="10.7085773"><ele>143.0</ele><time>2026-05-03T15:27:59.561Z</time></trkpt><trkpt lat="43.6223939" lon="10.7084379"><ele>143.20000000000002</ele><time>2026-05-03T15:28:00.562Z</time></trkpt><trkpt lat="43.6223992" lon="10.7083184"><ele>143.4</ele><time>2026-05-03T15:28:01.561Z</time></trkpt><trkpt lat="43.6223984" lon="10.7081772"><ele>143.60000000000002</ele><time>2026-05-03T15:28:02.561Z</time></trkpt><trkpt lat="43.6223995" lon="10.70803"><ele>143.8</ele><time>2026-05-03T15:28:03.561Z</time></trkpt><trkpt lat="43.6224148" lon="10.7078929"><ele>144.0</ele><time>2026-05-03T15:28:04.562Z</time></trkpt><trkpt lat="43.6224436" lon="10.707772"><ele>142.8</ele><time>2026-05-03T15:28:05.561Z</time></trkpt><trkpt lat="43.6224864" lon="10.7076519"><ele>141.60000000000002</ele><time>2026-05-03T15:28:06.562Z</time></trkpt><trkpt lat="43.6225446" lon="10.7075819"><ele>140.4</ele><time>2026-05-03T15:28:07.56Z</time></trkpt><trkpt lat="43.6226082" lon="10.7074957"><ele>139.20000000000002</ele><time>2026-05-03T15:28:08.561Z</time></trkpt><trkpt lat="43.6226679" lon="10.7074238"><ele>138.0</ele><time>2026-05-03T15:28:09.561Z</time></trkpt><trkpt lat="43.6227309" lon="10.7072981"><ele>138.0</ele><time>2026-05-03T15:28:11.561Z</time></trkpt><trkpt lat="43.6227711" lon="10.7071687"><ele>138.0</ele><time>2026-05-03T15:28:13.562Z</time></trkpt><trkpt lat="43.6228153" lon="10.7070182"><ele>138.0</ele><time>2026-05-03T15:28:15.561Z</time></trkpt><trkpt lat="43.6228614" lon="10.706926"><ele>138.0</ele><time>2026-05-03T15:28:16.561Z</time></trkpt><trkpt lat="43.6229135" lon="10.7068547"><ele>138.0</ele><time>2026-05-03T15:28:17.562Z</time></trkpt><trkpt lat="43.6229638" lon="10.7067925"><ele>138.0</ele><time>2026-05-03T15:28:18.56Z</time></trkpt><trkpt lat="43.6230447" lon="10.7067622"><ele>136.20000000000002</ele><time>2026-05-03T15:28:19.561Z</time></trkpt><trkpt lat="43.623123" lon="10.706749"><ele>134.4</ele><time>2026-05-03T15:28:20.561Z</time></trkpt><trkpt lat="43.6231984" lon="10.7067689"><ele>132.60000000000002</ele><time>2026-05-03T15:28:21.56Z</time></trkpt><trkpt lat="43.6233087" lon="10.7067938"><ele>130.8</ele><time>2026-05-03T15:28:23.561Z</time></trkpt><trkpt lat="43.6234156" lon="10.7068383"><ele>129.0</ele><time>2026-05-03T15:28:25.562Z</time></trkpt><trkpt lat="43.6235018" lon="10.7068565"><ele>129.0</ele><time>2026-05-03T15:28:27.562Z</time></trkpt><trkpt lat="43.6235897" lon="10.7068635"><ele>129.0</ele><time>2026-05-03T15:28:29.562Z</time></trkpt><trkpt lat="43.6236734" lon="10.7068431"><ele>129.0</ele><time>2026-05-03T15:28:31.561Z</time></trkpt><trkpt lat="43.62375" lon="10.7068296"><ele>129.0</ele><time>2026-05-03T15:28:33.562Z</time></trkpt><trkpt lat="43.6238702" lon="10.7067205"><ele>129.0</ele><time>2026-05-03T15:32:35.561Z</time></trkpt><trkpt lat="43.6239302" lon="10.7066149"><ele>128.0</ele><time>2026-05-03T15:32:36.56Z</time></trkpt><trkpt lat="43.6239896" lon="10.7064716"><ele>127.0</ele><time>2026-05-03T15:32:37.561Z</time></trkpt><trkpt lat="43.6240535" lon="10.7063154"><ele>126.0</ele><time>2026-05-03T15:32:38.561Z</time></trkpt><trkpt lat="43.6241017" lon="10.7061801"><ele>125.0</ele><time>2026-05-03T15:32:39.56Z</time></trkpt><trkpt lat="43.6241495" lon="10.7060637"><ele>125.0</ele><time>2026-05-03T15:32:40.561Z</time></trkpt><trkpt lat="43.6242135" lon="10.7059529"><ele>125.0</ele><time>2026-05-03T15:32:41.561Z</time></trkpt><trkpt lat="43.624294" lon="10.7058394"><ele>125.0</ele><time>2026-05-03T15:32:42.561Z</time></trkpt><trkpt lat="43.6243936" lon="10.7057195"><ele>125.0</ele><time>2026-05-03T15:32:43.561Z</time></trkpt><trkpt lat="43.6245109" lon="10.7056002"><ele>126.5</ele><time>2026-05-03T15:32:44.561Z</time></trkpt><trkpt lat="43.6246126" lon="10.7055044"><ele>128.0</ele><time>2026-05-03T15:32:45.56Z</time></trkpt><trkpt lat="43.624718" lon="10.7054268"><ele>129.5</ele><time>2026-05-03T15:32:46.562Z</time></trkpt><trkpt lat="43.6248355" lon="10.7053682"><ele>131.0</ele><time>2026-05-03T15:32:47.56Z</time></trkpt><trkpt lat="43.6249593" lon="10.7053277"><ele>131.0</ele><time>2026-05-03T15:32:48.561Z</time></trkpt><trkpt lat="43.6251053" lon="10.7052945"><ele>131.0</ele><time>2026-05-03T15:32:49.561Z</time></trkpt><trkpt lat="43.6252564" lon="10.7052621"><ele>131.0</ele><time>2026-05-03T15:32:50.561Z</time></trkpt><trkpt lat="43.625369" lon="10.7052311"><ele>131.0</ele><time>2026-05-03T15:32:51.562Z</time></trkpt><trkpt lat="43.6254594" lon="10.7052139"><ele>132.2</ele><time>2026-05-03T15:32:52.561Z</time></trkpt><trkpt lat="43.6255441" lon="10.705197"><ele>133.39999999999998</ele><time>2026-05-03T15:32:53.561Z</time></trkpt><trkpt lat="43.6256487" lon="10.7051484"><ele>134.6</ele><time>2026-05-03T15:32:54.561Z</time></trkpt><trkpt lat="43.625748" lon="10.7050922"><ele>135.79999999999998</ele><time>2026-05-03T15:32:55.561Z</time></trkpt><trkpt lat="43.6258628" lon="10.7050159"><ele>137.0</ele><time>2026-05-03T15:32:56.561Z</time></trkpt><trkpt lat="43.6259748" lon="10.7049423"><ele>137.0</ele><time>2026-05-03T15:32:57.561Z</time></trkpt><trkpt lat="43.6260863" lon="10.704862"><ele>137.0</ele><time>2026-05-03T15:32:58.561Z</time></trkpt><trkpt lat="43.6261864" lon="10.7047796"><ele>137.0</ele><time>2026-05-03T15:32:59.561Z</time></trkpt><trkpt lat="43.6262859" lon="10.7047041"><ele>137.0</ele><time>2026-05-03T15:33:00.56Z</time></trkpt><trkpt lat="43.6263908" lon="10.7046329"><ele>136.66666666666666</ele><time>2026-05-03T15:33:01.561Z</time></trkpt><trkpt lat="43.6265185" lon="10.7045072"><ele>136.33333333333334</ele><time>2026-05-03T15:33:02.561Z</time></trkpt><trkpt lat="43.6266544" lon="10.7043732"><ele>136.0</ele><time>2026-05-03T15:33:03.561Z</time></trkpt><trkpt lat="43.6267855" lon="10.7042389"><ele>136.0</ele><time>2026-05-03T15:33:04.561Z</time></trkpt><trkpt lat="43.626907" lon="10.7041203"><ele>136.0</ele><time>2026-05-03T15:33:05.561Z</time></trkpt><trkpt lat="43.6270313" lon="10.7040238"><ele>136.0</ele><time>2026-05-03T15:33:06.561Z</time></trkpt><trkpt lat="43.6271604" lon="10.7039344"><ele>136.0</ele><time>2026-05-03T15:33:07.561Z</time></trkpt><trkpt lat="43.6272939" lon="10.7038709"><ele>134.5</ele><time>2026-05-03T15:33:08.561Z</time></trkpt><trkpt lat="43.6273998" lon="10.7038364"><ele>133.0</ele><time>2026-05-03T15:33:09.561Z</time></trkpt><trkpt lat="43.6274794" lon="10.7038157"><ele>131.5</ele><time>2026-05-03T15:33:10.56Z</time></trkpt><trkpt lat="43.6275427" lon="10.703802"><ele>130.0</ele><time>2026-05-03T15:33:11.562Z</time></trkpt><trkpt lat="43.6276039" lon="10.7037752"><ele>128.5</ele><time>2026-05-03T15:33:12.56Z</time></trkpt><trkpt lat="43.6276835" lon="10.7037428"><ele>127.0</ele><time>2026-05-03T15:33:13.561Z</time></trkpt><trkpt lat="43.6278146" lon="10.7036939"><ele>126.8</ele><time>2026-05-03T15:33:14.561Z</time></trkpt><trkpt lat="43.6279207" lon="10.7036446"><ele>126.6</ele><time>2026-05-03T15:33:15.561Z</time></trkpt><trkpt lat="43.6280209" lon="10.7036104"><ele>126.39999999999999</ele><time>2026-05-03T15:33:16.56Z</time></trkpt><trkpt lat="43.6281207" lon="10.703601"><ele>126.19999999999999</ele><time>2026-05-03T15:33:17.561Z</time></trkpt><trkpt lat="43.6282165" lon="10.7036153"><ele>126.0</ele><time>2026-05-03T15:33:18.56Z</time></trkpt><trkpt lat="43.6283274" lon="10.7036636"><ele>126.0</ele><time>2026-05-03T15:33:19.561Z</time></trkpt><trkpt lat="43.6284426" lon="10.7037159"><ele>126.0</ele><time>2026-05-03T15:33:20.561Z</time></trkpt><trkpt lat="43.6285526" lon="10.7037494"><ele>126.0</ele><time>2026-05-03T15:33:21.562Z</time></trkpt><trkpt lat="43.6286669" lon="10.7037533"><ele>126.0</ele><time>2026-05-03T15:33:22.561Z</time></trkpt><trkpt lat="43.6287923" lon="10.703721"><ele>125.25</ele><time>2026-05-03T15:33:23.561Z</time></trkpt><trkpt lat="43.628927" lon="10.7036647"><ele>124.5</ele><time>2026-05-03T15:33:24.561Z</time></trkpt><trkpt lat="43.6290679" lon="10.7036059"><ele>123.75</ele><time>2026-05-03T15:33:25.561Z</time></trkpt><trkpt lat="43.6291963" lon="10.7035515"><ele>123.0</ele><time>2026-05-03T15:33:26.56Z</time></trkpt><trkpt lat="43.6293191" lon="10.7034963"><ele>123.0</ele><time>2026-05-03T15:33:27.561Z</time></trkpt><trkpt lat="43.6294285" lon="10.7034062"><ele>123.0</ele><time>2026-05-03T15:33:28.561Z</time></trkpt><trkpt lat="43.6295208" lon="10.7033128"><ele>123.0</ele><time>2026-05-03T15:33:29.56Z</time></trkpt><trkpt lat="43.6295915" lon="10.703207"><ele>123.0</ele><time>2026-05-03T15:33:30.561Z</time></trkpt><trkpt lat="43.6296466" lon="10.7030798"><ele>123.60000000000001</ele><time>2026-05-03T15:33:31.56Z</time></trkpt><trkpt lat="43.6296824" lon="10.7029358"><ele>124.20000000000002</ele><time>2026-05-03T15:33:32.56Z</time></trkpt><trkpt lat="43.6297023" lon="10.7027845"><ele>124.8</ele><time>2026-05-03T15:33:33.561Z</time></trkpt><trkpt lat="43.6297113" lon="10.7026284"><ele>125.4</ele><time>2026-05-03T15:33:34.561Z</time></trkpt><trkpt lat="43.6297097" lon="10.7024726"><ele>126.0</ele><time>2026-05-03T15:33:35.561Z</time></trkpt><trkpt lat="43.6296748" lon="10.7021423"><ele>127.0</ele><time>2026-05-03T15:33:37.56Z</time></trkpt><trkpt lat="43.6296623" lon="10.701988"><ele>128.0</ele><time>2026-05-03T15:33:38.56Z</time></trkpt><trkpt lat="43.629651" lon="10.7018427"><ele>129.0</ele><time>2026-05-03T15:33:39.561Z</time></trkpt><trkpt lat="43.6296536" lon="10.7017055"><ele>130.0</ele><time>2026-05-03T15:33:40.561Z</time></trkpt><trkpt lat="43.6296659" lon="10.7015723"><ele>131.0</ele><time>2026-05-03T15:33:41.561Z</time></trkpt><trkpt lat="43.6296949" lon="10.7014455"><ele>131.16666666666666</ele><time>2026-05-03T15:33:42.561Z</time></trkpt><trkpt lat="43.6297246" lon="10.7013198"><ele>131.33333333333331</ele><time>2026-05-03T15:33:43.561Z</time></trkpt><trkpt lat="43.6297536" lon="10.7012177"><ele>131.5</ele><time>2026-05-03T15:33:44.56Z</time></trkpt><trkpt lat="43.6297972" lon="10.7011381"><ele>131.66666666666666</ele><time>2026-05-03T15:33:45.561Z</time></trkpt><trkpt lat="43.6298555" lon="10.7010565"><ele>131.83333333333334</ele><time>2026-05-03T15:33:46.561Z</time></trkpt><trkpt lat="43.6299256" lon="10.7009666"><ele>132.0</ele><time>2026-05-03T15:33:47.56Z</time></trkpt><trkpt lat="43.6300022" lon="10.7008722"><ele>131.0</ele><time>2026-05-03T15:33:48.561Z</time></trkpt><trkpt lat="43.630076" lon="10.7007461"><ele>130.0</ele><time>2026-05-03T15:33:49.561Z</time></trkpt><trkpt lat="43.6301611" lon="10.7006144"><ele>129.0</ele><time>2026-05-03T15:33:50.561Z</time></trkpt><trkpt lat="43.6302436" lon="10.7004656"><ele>128.0</ele><time>2026-05-03T15:33:51.56Z</time></trkpt><trkpt lat="43.6303354" lon="10.7003194"><ele>125.0</ele><time>2026-05-03T15:33:52.562Z</time></trkpt><trkpt lat="43.6304295" lon="10.700212"><ele>122.0</ele><time>2026-05-03T15:33:53.561Z</time></trkpt><trkpt lat="43.6305178" lon="10.7001074"><ele>119.0</ele><time>2026-05-03T15:33:54.56Z</time></trkpt><trkpt lat="43.6306161" lon="10.6999886"><ele>116.0</ele><time>2026-05-03T15:33:55.561Z</time></trkpt><trkpt lat="43.6307382" lon="10.6999412"><ele>116.0</ele><time>2026-05-03T15:33:56.561Z</time></trkpt><trkpt lat="43.6308591" lon="10.6998833"><ele>116.0</ele><time>2026-05-03T15:33:57.561Z</time></trkpt><trkpt lat="43.6309857" lon="10.6998232"><ele>116.0</ele><time>2026-05-03T15:33:58.561Z</time></trkpt><trkpt lat="43.6311063" lon="10.6997618"><ele>116.0</ele><time>2026-05-03T15:33:59.561Z</time></trkpt><trkpt lat="43.6312312" lon="10.6996925"><ele>113.25</ele><time>2026-05-03T15:34:00.561Z</time></trkpt><trkpt lat="43.6313422" lon="10.6995928"><ele>110.5</ele><time>2026-05-03T15:34:01.56Z</time></trkpt><trkpt lat="43.6314484" lon="10.6994656"><ele>107.75</ele><time>2026-05-03T15:34:02.56Z</time></trkpt><trkpt lat="43.631541" lon="10.6993456"><ele>105.0</ele><time>2026-05-03T15:34:03.562Z</time></trkpt><trkpt lat="43.6316419" lon="10.6992234"><ele>105.0</ele><time>2026-05-03T15:34:04.562Z</time></trkpt><trkpt lat="43.6317545" lon="10.6991251"><ele>105.0</ele><time>2026-05-03T15:34:05.561Z</time></trkpt><trkpt lat="43.6318803" lon="10.6990405"><ele>105.0</ele><time>2026-05-03T15:34:06.561Z</time></trkpt><trkpt lat="43.6320079" lon="10.6989424"><ele>105.0</ele><time>2026-05-03T15:34:07.561Z</time></trkpt><trkpt lat="43.6322474" lon="10.6987047"><ele>103.0</ele><time>2026-05-03T15:34:09.561Z</time></trkpt><trkpt lat="43.6323708" lon="10.6985851"><ele>101.0</ele><time>2026-05-03T15:34:10.561Z</time></trkpt><trkpt lat="43.6324924" lon="10.6984708"><ele>99.0</ele><time>2026-05-03T15:34:11.56Z</time></trkpt><trkpt lat="43.6325999" lon="10.6983641"><ele>97.0</ele><time>2026-05-03T15:34:12.561Z</time></trkpt><trkpt lat="43.6326912" lon="10.6982592"><ele>97.0</ele><time>2026-05-03T15:34:13.561Z</time></trkpt><trkpt lat="43.6327762" lon="10.6981615"><ele>97.0</ele><time>2026-05-03T15:34:14.56Z</time></trkpt><trkpt lat="43.6328517" lon="10.6980556"><ele>97.0</ele><time>2026-05-03T15:34:15.56Z</time></trkpt><trkpt lat="43.6329204" lon="10.6979423"><ele>97.0</ele><time>2026-05-03T15:34:16.561Z</time></trkpt><trkpt lat="43.6329739" lon="10.6978327"><ele>97.0</ele><time>2026-05-03T15:34:17.562Z</time></trkpt><trkpt lat="43.6330079" lon="10.697738"><ele>96.19999999999999</ele><time>2026-05-03T15:34:18.561Z</time></trkpt><trkpt lat="43.6330524" lon="10.6976551"><ele>95.4</ele><time>2026-05-03T15:34:19.561Z</time></trkpt><trkpt lat="43.6330984" lon="10.6975625"><ele>94.6</ele><time>2026-05-03T15:34:20.561Z</time></trkpt><trkpt lat="43.6331544" lon="10.6974571"><ele>93.80000000000001</ele><time>2026-05-03T15:34:21.56Z</time></trkpt><trkpt lat="43.6332226" lon="10.697341"><ele>93.0</ele><time>2026-05-03T15:34:22.561Z</time></trkpt><trkpt lat="43.6332956" lon="10.697203"><ele>93.0</ele><time>2026-05-03T15:34:23.562Z</time></trkpt><trkpt lat="43.6333738" lon="10.6970676"><ele>93.0</ele><time>2026-05-03T15:34:24.561Z</time></trkpt><trkpt lat="43.6334472" lon="10.6969333"><ele>93.0</ele><time>2026-05-03T15:34:25.562Z</time></trkpt><trkpt lat="43.6335133" lon="10.6968124"><ele>93.0</ele><time>2026-05-03T15:34:26.561Z</time></trkpt><trkpt lat="43.633573" lon="10.6966945"><ele>93.0</ele><time>2026-05-03T15:34:27.561Z</time></trkpt><trkpt lat="43.6336359" lon="10.6965811"><ele>93.0</ele><time>2026-05-03T15:34:28.561Z</time></trkpt><trkpt lat="43.6337004" lon="10.6964595"><ele>93.0</ele><time>2026-05-03T15:34:29.561Z</time></trkpt><trkpt lat="43.6337664" lon="10.6963282"><ele>93.0</ele><time>2026-05-03T15:34:30.561Z</time></trkpt><trkpt lat="43.6338273" lon="10.6961868"><ele>93.0</ele><time>2026-05-03T15:34:31.561Z</time></trkpt><trkpt lat="43.6338807" lon="10.6960515"><ele>95.66666666666667</ele><time>2026-05-03T15:34:32.56Z</time></trkpt><trkpt lat="43.633931" lon="10.6959307"><ele>98.33333333333334</ele><time>2026-05-03T15:34:33.561Z</time></trkpt><trkpt lat="43.6339751" lon="10.6958254"><ele>101.0</ele><time>2026-05-03T15:34:34.56Z</time></trkpt><trkpt lat="43.634013" lon="10.6957261"><ele>103.66666666666667</ele><time>2026-05-03T15:34:35.561Z</time></trkpt><trkpt lat="43.6340385" lon="10.6956355"><ele>106.33333333333334</ele><time>2026-05-03T15:34:36.561Z</time></trkpt><trkpt lat="43.634061" lon="10.6955476"><ele>109.0</ele><time>2026-05-03T15:34:37.561Z</time></trkpt><trkpt lat="43.6340988" lon="10.6953819"><ele>109.00000000000001</ele><time>2026-05-03T15:34:39.561Z</time></trkpt><trkpt lat="43.6341094" lon="10.6952878"><ele>109.0</ele><time>2026-05-03T15:34:40.561Z</time></trkpt><trkpt lat="43.6341065" lon="10.6951806"><ele>109.0</ele><time>2026-05-03T15:34:41.561Z</time></trkpt><trkpt lat="43.6340884" lon="10.6950725"><ele>109.0</ele><time>2026-05-03T15:34:42.561Z</time></trkpt><trkpt lat="43.6340631" lon="10.6949663"><ele>109.00000000000001</ele><time>2026-05-03T15:34:43.561Z</time></trkpt><trkpt lat="43.6340437" lon="10.6948651"><ele>109.0</ele><time>2026-05-03T15:34:44.56Z</time></trkpt><trkpt lat="43.6340334" lon="10.6947597"><ele>108.83333333333334</ele><time>2026-05-03T15:34:45.561Z</time></trkpt><trkpt lat="43.6340208" lon="10.6946605"><ele>108.66666666666667</ele><time>2026-05-03T15:34:46.561Z</time></trkpt><trkpt lat="43.6340211" lon="10.694553"><ele>108.5</ele><time>2026-05-03T15:34:47.561Z</time></trkpt><trkpt lat="43.6340224" lon="10.6944427"><ele>108.33333333333334</ele><time>2026-05-03T15:34:48.561Z</time></trkpt><trkpt lat="43.6340308" lon="10.6943338"><ele>108.16666666666667</ele><time>2026-05-03T15:34:49.562Z</time></trkpt><trkpt lat="43.6340472" lon="10.6942318"><ele>108.0</ele><time>2026-05-03T15:34:50.561Z</time></trkpt><trkpt lat="43.6340737" lon="10.6941367"><ele>108.5</ele><time>2026-05-03T15:34:51.56Z</time></trkpt><trkpt lat="43.6341073" lon="10.6940575"><ele>109.0</ele><time>2026-05-03T15:34:52.56Z</time></trkpt><trkpt lat="43.6341506" lon="10.6939925"><ele>109.5</ele><time>2026-05-03T15:34:53.56Z</time></trkpt><trkpt lat="43.6342159" lon="10.693939"><ele>110.0</ele><time>2026-05-03T15:34:54.56Z</time></trkpt><trkpt lat="43.6342977" lon="10.693908"><ele>110.5</ele><time>2026-05-03T15:34:55.56Z</time></trkpt><trkpt lat="43.6343893" lon="10.6938841"><ele>111.0</ele><time>2026-05-03T15:34:56.561Z</time></trkpt><trkpt lat="43.6344913" lon="10.6938639"><ele>111.0</ele><time>2026-05-03T15:34:57.56Z</time></trkpt><trkpt lat="43.634593" lon="10.6938388"><ele>111.0</ele><time>2026-05-03T15:34:58.559Z</time></trkpt><trkpt lat="43.6346894" lon="10.6938209"><ele>111.0</ele><time>2026-05-03T15:34:59.56Z</time></trkpt><trkpt lat="43.6347751" lon="10.6937994"><ele>111.0</ele><time>2026-05-03T15:35:00.56Z</time></trkpt><trkpt lat="43.6348508" lon="10.693781"><ele>111.0</ele><time>2026-05-03T15:35:01.56Z</time></trkpt><trkpt lat="43.6349195" lon="10.6937589"><ele>111.0</ele><time>2026-05-03T15:35:02.56Z</time></trkpt><trkpt lat="43.6349871" lon="10.6937405"><ele>111.0</ele><time>2026-05-03T15:35:03.561Z</time></trkpt><trkpt lat="43.6350877" lon="10.6937263"><ele>111.0</ele><time>2026-05-03T15:35:05.56Z</time></trkpt><trkpt lat="43.6351687" lon="10.69369"><ele>111.0</ele><time>2026-05-03T15:35:07.559Z</time></trkpt><trkpt lat="43.6352703" lon="10.6936052"><ele>111.0</ele><time>2026-05-03T15:35:09.56Z</time></trkpt><trkpt lat="43.6353503" lon="10.6935386"><ele>111.0</ele><time>2026-05-03T15:35:10.56Z</time></trkpt><trkpt lat="43.6354238" lon="10.6934595"><ele>109.25</ele><time>2026-05-03T15:35:11.56Z</time></trkpt><trkpt lat="43.6355084" lon="10.6933904"><ele>107.5</ele><time>2026-05-03T15:35:12.561Z</time></trkpt><trkpt lat="43.6356196" lon="10.6933575"><ele>105.75</ele><time>2026-05-03T15:35:13.561Z</time></trkpt><trkpt lat="43.6357302" lon="10.6933184"><ele>104.0</ele><time>2026-05-03T15:35:14.562Z</time></trkpt><trkpt lat="43.635854" lon="10.6932732"><ele>104.0</ele><time>2026-05-03T15:35:15.56Z</time></trkpt><trkpt lat="43.6359661" lon="10.6932043"><ele>104.0</ele><time>2026-05-03T15:35:16.559Z</time></trkpt><trkpt lat="43.6360823" lon="10.6931218"><ele>104.0</ele><time>2026-05-03T15:35:17.56Z</time></trkpt><trkpt lat="43.6361992" lon="10.6930198"><ele>104.0</ele><time>2026-05-03T15:35:18.56Z</time></trkpt><trkpt lat="43.6363195" lon="10.6929162"><ele>101.75</ele><time>2026-05-03T15:35:19.56Z</time></trkpt><trkpt lat="43.6364343" lon="10.6928145"><ele>99.5</ele><time>2026-05-03T15:35:20.56Z</time></trkpt><trkpt lat="43.6365456" lon="10.6927098"><ele>97.25</ele><time>2026-05-03T15:35:21.56Z</time></trkpt><trkpt lat="43.6366571" lon="10.6926128"><ele>95.0</ele><time>2026-05-03T15:35:22.56Z</time></trkpt><trkpt lat="43.6367607" lon="10.6925252"><ele>95.0</ele><time>2026-05-03T15:35:23.56Z</time></trkpt><trkpt lat="43.6368584" lon="10.6924324"><ele>95.0</ele><time>2026-05-03T15:35:24.56Z</time></trkpt><trkpt lat="43.636949" lon="10.6923377"><ele>95.0</ele><time>2026-05-03T15:35:25.56Z</time></trkpt><trkpt lat="43.637034" lon="10.6922398"><ele>95.0</ele><time>2026-05-03T15:35:26.56Z</time></trkpt><trkpt lat="43.6371106" lon="10.6921472"><ele>95.0</ele><time>2026-05-03T15:35:27.56Z</time></trkpt><trkpt lat="43.6371895" lon="10.692046"><ele>92.75</ele><time>2026-05-03T15:35:28.56Z</time></trkpt><trkpt lat="43.6372806" lon="10.6919521"><ele>90.5</ele><time>2026-05-03T15:35:29.56Z</time></trkpt><trkpt lat="43.6373646" lon="10.6918441"><ele>88.25</ele><time>2026-05-03T15:35:30.56Z</time></trkpt><trkpt lat="43.6374392" lon="10.6917125"><ele>86.0</ele><time>2026-05-03T15:35:31.559Z</time></trkpt><trkpt lat="43.6375081" lon="10.691575"><ele>86.0</ele><time>2026-05-03T15:35:32.56Z</time></trkpt><trkpt lat="43.6375787" lon="10.6914281"><ele>86.0</ele><time>2026-05-03T15:35:33.559Z</time></trkpt><trkpt lat="43.6376587" lon="10.6912834"><ele>86.0</ele><time>2026-05-03T15:35:34.56Z</time></trkpt><trkpt lat="43.6377557" lon="10.6911513"><ele>86.0</ele><time>2026-05-03T15:35:35.559Z</time></trkpt><trkpt lat="43.6378744" lon="10.6910449"><ele>84.5</ele><time>2026-05-03T15:35:36.56Z</time></trkpt><trkpt lat="43.6380083" lon="10.6909716"><ele>83.0</ele><time>2026-05-03T15:35:37.56Z</time></trkpt><trkpt lat="43.6381344" lon="10.6909199"><ele>81.5</ele><time>2026-05-03T15:35:38.56Z</time></trkpt><trkpt lat="43.6382648" lon="10.69086"><ele>80.0</ele><time>2026-05-03T15:35:39.559Z</time></trkpt><trkpt lat="43.6383987" lon="10.6907795"><ele>80.0</ele><time>2026-05-03T15:35:40.56Z</time></trkpt><trkpt lat="43.6385318" lon="10.6906777"><ele>80.0</ele><time>2026-05-03T15:35:41.559Z</time></trkpt><trkpt lat="43.6386719" lon="10.6905612"><ele>80.0</ele><time>2026-05-03T15:35:42.56Z</time></trkpt><trkpt lat="43.6388128" lon="10.6904509"><ele>78.33333333333334</ele><time>2026-05-03T15:35:43.56Z</time></trkpt><trkpt lat="43.6389468" lon="10.6903405"><ele>76.66666666666667</ele><time>2026-05-03T15:35:44.56Z</time></trkpt><trkpt lat="43.6390787" lon="10.6902375"><ele>75.0</ele><time>2026-05-03T15:35:45.56Z</time></trkpt><trkpt lat="43.639205" lon="10.6901277"><ele>73.0</ele><time>2026-05-03T15:35:46.56Z</time></trkpt><trkpt lat="43.6393305" lon="10.690004"><ele>71.0</ele><time>2026-05-03T15:35:47.56Z</time></trkpt><trkpt lat="43.6394496" lon="10.6898834"><ele>69.0</ele><time>2026-05-03T15:35:48.56Z</time></trkpt><trkpt lat="43.6395668" lon="10.6897507"><ele>69.0</ele><time>2026-05-03T15:35:49.561Z</time></trkpt><trkpt lat="43.6396842" lon="10.6896234"><ele>69.0</ele><time>2026-05-03T15:35:50.56Z</time></trkpt><trkpt lat="43.6397921" lon="10.6894992"><ele>69.0</ele><time>2026-05-03T15:35:51.56Z</time></trkpt><trkpt lat="43.6398992" lon="10.6893653"><ele>69.0</ele><time>2026-05-03T15:35:52.561Z</time></trkpt><trkpt lat="43.6400168" lon="10.6892321"><ele>68.33333333333333</ele><time>2026-05-03T15:35:53.561Z</time></trkpt><trkpt lat="43.640139" lon="10.6891072"><ele>67.66666666666666</ele><time>2026-05-03T15:35:54.561Z</time></trkpt><trkpt lat="43.6402686" lon="10.6889837"><ele>67.0</ele><time>2026-05-03T15:35:55.559Z</time></trkpt><trkpt lat="43.6404037" lon="10.6888634"><ele>67.0</ele><time>2026-05-03T15:35:56.56Z</time></trkpt><trkpt lat="43.6405415" lon="10.6887349"><ele>67.0</ele><time>2026-05-03T15:35:57.56Z</time></trkpt><trkpt lat="43.6406772" lon="10.6885955"><ele>67.0</ele><time>2026-05-03T15:35:58.56Z</time></trkpt><trkpt lat="43.6408159" lon="10.6884533"><ele>67.0</ele><time>2026-05-03T15:35:59.561Z</time></trkpt><trkpt lat="43.6409599" lon="10.6883026"><ele>67.0</ele><time>2026-05-03T15:36:00.56Z</time></trkpt><trkpt lat="43.6411022" lon="10.6881625"><ele>67.0</ele><time>2026-05-03T15:36:01.56Z</time></trkpt><trkpt lat="43.6412377" lon="10.6880253"><ele>67.33333333333333</ele><time>2026-05-03T15:36:02.56Z</time></trkpt><trkpt lat="43.6413729" lon="10.6878899"><ele>67.66666666666667</ele><time>2026-05-03T15:36:03.561Z</time></trkpt><trkpt lat="43.6415088" lon="10.687763"><ele>68.0</ele><time>2026-05-03T15:36:04.561Z</time></trkpt><trkpt lat="43.6416524" lon="10.6876424"><ele>68.0</ele><time>2026-05-03T15:36:05.561Z</time></trkpt><trkpt lat="43.6418028" lon="10.6875274"><ele>68.0</ele><time>2026-05-03T15:36:06.559Z</time></trkpt><trkpt lat="43.6419484" lon="10.6874092"><ele>68.0</ele><time>2026-05-03T15:36:07.561Z</time></trkpt><trkpt lat="43.6421054" lon="10.687292"><ele>68.0</ele><time>2026-05-03T15:36:08.562Z</time></trkpt><trkpt lat="43.6422507" lon="10.6871624"><ele>68.0</ele><time>2026-05-03T15:36:09.56Z</time></trkpt><trkpt lat="43.6423965" lon="10.6870414"><ele>68.0</ele><time>2026-05-03T15:36:10.56Z</time></trkpt><trkpt lat="43.6425368" lon="10.6869378"><ele>67.25</ele><time>2026-05-03T15:36:11.561Z</time></trkpt><trkpt lat="43.6426738" lon="10.6868588"><ele>66.5</ele><time>2026-05-03T15:36:12.563Z</time></trkpt><trkpt lat="43.6427994" lon="10.6868019"><ele>65.75</ele><time>2026-05-03T15:36:13.561Z</time></trkpt><trkpt lat="43.6429272" lon="10.6867892"><ele>65.0</ele><time>2026-05-03T15:36:14.559Z</time></trkpt><trkpt lat="43.6430497" lon="10.6868107"><ele>64.5</ele><time>2026-05-03T15:36:15.56Z</time></trkpt><trkpt lat="43.643178" lon="10.6868359"><ele>64.0</ele><time>2026-05-03T15:36:16.56Z</time></trkpt><trkpt lat="43.6433107" lon="10.6868681"><ele>63.5</ele><time>2026-05-03T15:36:17.56Z</time></trkpt><trkpt lat="43.6434527" lon="10.6869037"><ele>63.0</ele><time>2026-05-03T15:36:18.561Z</time></trkpt><trkpt lat="43.6435908" lon="10.6869319"><ele>60.75</ele><time>2026-05-03T15:36:19.561Z</time></trkpt><trkpt lat="43.6437208" lon="10.6869583"><ele>58.5</ele><time>2026-05-03T15:36:20.561Z</time></trkpt><trkpt lat="43.6438455" lon="10.6869892"><ele>56.25</ele><time>2026-05-03T15:36:21.559Z</time></trkpt><trkpt lat="43.6439634" lon="10.6870287"><ele>54.0</ele><time>2026-05-03T15:36:22.562Z</time></trkpt><trkpt lat="43.6440856" lon="10.6870507"><ele>54.0</ele><time>2026-05-03T15:36:23.56Z</time></trkpt><trkpt lat="43.6442076" lon="10.687057"><ele>54.0</ele><time>2026-05-03T15:36:24.56Z</time></trkpt><trkpt lat="43.6443285" lon="10.6870294"><ele>54.0</ele><time>2026-05-03T15:36:25.56Z</time></trkpt><trkpt lat="43.6444597" lon="10.6869647"><ele>54.0</ele><time>2026-05-03T15:36:26.561Z</time></trkpt><trkpt lat="43.6445987" lon="10.6868756"><ele>54.66666666666667</ele><time>2026-05-03T15:36:27.559Z</time></trkpt><trkpt lat="43.644746" lon="10.686801"><ele>55.333333333333336</ele><time>2026-05-03T15:36:28.561Z</time></trkpt><trkpt lat="43.6448928" lon="10.6867386"><ele>56.0</ele><time>2026-05-03T15:36:29.561Z</time></trkpt><trkpt lat="43.6450515" lon="10.686724"><ele>56.0</ele><time>2026-05-03T15:36:30.562Z</time></trkpt><trkpt lat="43.6452001" lon="10.6867258"><ele>56.0</ele><time>2026-05-03T15:36:31.56Z</time></trkpt><trkpt lat="43.6453437" lon="10.6867532"><ele>56.0</ele><time>2026-05-03T15:36:32.561Z</time></trkpt><trkpt lat="43.6454809" lon="10.6867981"><ele>56.0</ele><time>2026-05-03T15:36:33.561Z</time></trkpt><trkpt lat="43.6456127" lon="10.6868154"><ele>55.5</ele><time>2026-05-03T15:36:34.562Z</time></trkpt><trkpt lat="43.6457366" lon="10.6868056"><ele>55.0</ele><time>2026-05-03T15:36:35.56Z</time></trkpt><trkpt lat="43.6458578" lon="10.6867524"><ele>54.5</ele><time>2026-05-03T15:36:36.561Z</time></trkpt><trkpt lat="43.6459799" lon="10.6866622"><ele>54.0</ele><time>2026-05-03T15:36:37.56Z</time></trkpt><trkpt lat="43.6461159" lon="10.6865469"><ele>54.66666666666667</ele><time>2026-05-03T15:36:38.562Z</time></trkpt><trkpt lat="43.6462652" lon="10.6863846"><ele>55.333333333333336</ele><time>2026-05-03T15:36:39.561Z</time></trkpt><trkpt lat="43.6464434" lon="10.6862252"><ele>56.0</ele><time>2026-05-03T15:36:40.561Z</time></trkpt><trkpt lat="43.6466218" lon="10.6860629"><ele>53.0</ele><time>2026-05-03T15:36:41.561Z</time></trkpt><trkpt lat="43.6467942" lon="10.6858921"><ele>50.0</ele><time>2026-05-03T15:36:42.561Z</time></trkpt><trkpt lat="43.646963" lon="10.6857404"><ele>47.0</ele><time>2026-05-03T15:36:43.562Z</time></trkpt><trkpt lat="43.6471221" lon="10.6855857"><ele>47.0</ele><time>2026-05-03T15:36:44.561Z</time></trkpt><trkpt lat="43.6472768" lon="10.6854437"><ele>47.0</ele><time>2026-05-03T15:36:45.56Z</time></trkpt><trkpt lat="43.6474223" lon="10.6853135"><ele>47.0</ele><time>2026-05-03T15:36:46.56Z</time></trkpt><trkpt lat="43.6475655" lon="10.685181"><ele>44.666666666666664</ele><time>2026-05-03T15:36:47.561Z</time></trkpt><trkpt lat="43.6477049" lon="10.6850564"><ele>42.333333333333336</ele><time>2026-05-03T15:36:48.561Z</time></trkpt><trkpt lat="43.6478359" lon="10.6849328"><ele>40.0</ele><time>2026-05-03T15:36:49.56Z</time></trkpt><trkpt lat="43.6479563" lon="10.684813"><ele>40.0</ele><time>2026-05-03T15:36:50.561Z</time></trkpt><trkpt lat="43.6481964" lon="10.6845915"><ele>40.0</ele><time>2026-05-03T15:36:52.561Z</time></trkpt><trkpt lat="43.6483021" lon="10.6844932"><ele>40.0</ele><time>2026-05-03T15:36:53.56Z</time></trkpt><trkpt lat="43.6484032" lon="10.6843974"><ele>38.6</ele><time>2026-05-03T15:36:54.56Z</time></trkpt><trkpt lat="43.6484933" lon="10.6843053"><ele>37.2</ele><time>2026-05-03T15:36:55.561Z</time></trkpt><trkpt lat="43.6485755" lon="10.6842077"><ele>35.8</ele><time>2026-05-03T15:36:56.561Z</time></trkpt><trkpt lat="43.6486439" lon="10.6841063"><ele>34.4</ele><time>2026-05-03T15:36:57.56Z</time></trkpt><trkpt lat="43.648702" lon="10.6840015"><ele>33.0</ele><time>2026-05-03T15:36:58.562Z</time></trkpt><trkpt lat="43.6487481" lon="10.6838798"><ele>31.599999999999998</ele><time>2026-05-03T15:36:59.56Z</time></trkpt><trkpt lat="43.6487931" lon="10.683756"><ele>30.199999999999996</ele><time>2026-05-03T15:37:00.561Z</time></trkpt><trkpt lat="43.6488383" lon="10.6836234"><ele>28.8</ele><time>2026-05-03T15:37:01.561Z</time></trkpt><trkpt lat="43.6488909" lon="10.6834965"><ele>27.4</ele><time>2026-05-03T15:37:02.561Z</time></trkpt><trkpt lat="43.6489589" lon="10.6833729"><ele>26.0</ele><time>2026-05-03T15:37:03.561Z</time></trkpt><trkpt lat="43.6490511" lon="10.683259"><ele>25.666666666666664</ele><time>2026-05-03T15:37:04.561Z</time></trkpt><trkpt lat="43.649167" lon="10.683154"><ele>25.333333333333336</ele><time>2026-05-03T15:37:05.56Z</time></trkpt><trkpt lat="43.649322" lon="10.6830886"><ele>25.0</ele><time>2026-05-03T15:37:06.56Z</time></trkpt><trkpt lat="43.6494924" lon="10.6830137"><ele>25.0</ele><time>2026-05-03T15:37:07.561Z</time></trkpt><trkpt lat="43.6496635" lon="10.6829165"><ele>25.0</ele><time>2026-05-03T15:37:08.562Z</time></trkpt><trkpt lat="43.6498252" lon="10.6828014"><ele>25.0</ele><time>2026-05-03T15:37:09.56Z</time></trkpt><trkpt lat="43.6499786" lon="10.6826854"><ele>24.666666666666668</ele><time>2026-05-03T15:37:10.561Z</time></trkpt><trkpt lat="43.6501224" lon="10.6825844"><ele>24.333333333333336</ele><time>2026-05-03T15:37:11.561Z</time></trkpt><trkpt lat="43.6502636" lon="10.6824923"><ele>24.0</ele><time>2026-05-03T15:37:12.561Z</time></trkpt><trkpt lat="43.6504042" lon="10.6824017"><ele>24.666666666666664</ele><time>2026-05-03T15:37:13.561Z</time></trkpt><trkpt lat="43.6505453" lon="10.6822919"><ele>25.333333333333332</ele><time>2026-05-03T15:37:14.561Z</time></trkpt><trkpt lat="43.6506812" lon="10.6821668"><ele>26.0</ele><time>2026-05-03T15:37:15.561Z</time></trkpt><trkpt lat="43.6508109" lon="10.6820255"><ele>24.666666666666664</ele><time>2026-05-03T15:37:16.56Z</time></trkpt><trkpt lat="43.650935" lon="10.68187"><ele>23.333333333333332</ele><time>2026-05-03T15:37:17.56Z</time></trkpt><trkpt lat="43.6510581" lon="10.6817108"><ele>22.0</ele><time>2026-05-03T15:37:18.562Z</time></trkpt><trkpt lat="43.6511944" lon="10.6815632"><ele>22.0</ele><time>2026-05-03T15:37:19.561Z</time></trkpt><trkpt lat="43.6513561" lon="10.6814233"><ele>22.0</ele><time>2026-05-03T15:37:20.561Z</time></trkpt><trkpt lat="43.6515091" lon="10.6812804"><ele>22.0</ele><time>2026-05-03T15:37:21.56Z</time></trkpt><trkpt lat="43.6516436" lon="10.68112"><ele>21.666666666666664</ele><time>2026-05-03T15:37:22.56Z</time></trkpt><trkpt lat="43.6517602" lon="10.6809352"><ele>21.333333333333332</ele><time>2026-05-03T15:37:23.56Z</time></trkpt><trkpt lat="43.651864" lon="10.6807105"><ele>21.0</ele><time>2026-05-03T15:37:24.56Z</time></trkpt><trkpt lat="43.6519807" lon="10.6804587"><ele>20.666666666666668</ele><time>2026-05-03T15:37:25.56Z</time></trkpt><trkpt lat="43.6521039" lon="10.6802353"><ele>20.333333333333336</ele><time>2026-05-03T15:37:26.559Z</time></trkpt><trkpt lat="43.652222" lon="10.6800206"><ele>20.0</ele><time>2026-05-03T15:37:27.561Z</time></trkpt><trkpt lat="43.6523249" lon="10.6798148"><ele>20.0</ele><time>2026-05-03T15:37:28.56Z</time></trkpt><trkpt lat="43.6524167" lon="10.6796227"><ele>20.0</ele><time>2026-05-03T15:37:29.56Z</time></trkpt><trkpt lat="43.6525114" lon="10.6794573"><ele>20.0</ele><time>2026-05-03T15:37:30.561Z</time></trkpt><trkpt lat="43.65262" lon="10.6793219"><ele>19.666666666666668</ele><time>2026-05-03T15:37:31.56Z</time></trkpt><trkpt lat="43.6527469" lon="10.6792206"><ele>19.333333333333332</ele><time>2026-05-03T15:37:32.56Z</time></trkpt><trkpt lat="43.6528894" lon="10.6791419"><ele>19.0</ele><time>2026-05-03T15:37:33.56Z</time></trkpt><trkpt lat="43.6530514" lon="10.6790827"><ele>19.666666666666664</ele><time>2026-05-03T15:37:34.56Z</time></trkpt><trkpt lat="43.6532277" lon="10.6790326"><ele>20.333333333333332</ele><time>2026-05-03T15:37:35.559Z</time></trkpt><trkpt lat="43.6534177" lon="10.6789888"><ele>21.0</ele><time>2026-05-03T15:37:36.56Z</time></trkpt><trkpt lat="43.6536017" lon="10.6789473"><ele>21.333333333333332</ele><time>2026-05-03T15:37:37.561Z</time></trkpt><trkpt lat="43.6537704" lon="10.6788907"><ele>21.666666666666664</ele><time>2026-05-03T15:37:38.559Z</time></trkpt><trkpt lat="43.6539161" lon="10.6788483"><ele>22.0</ele><time>2026-05-03T15:37:39.561Z</time></trkpt><trkpt lat="43.6540497" lon="10.6787063"><ele>22.0</ele><time>2026-05-03T15:37:40.562Z</time></trkpt><trkpt lat="43.6541541" lon="10.6785365"><ele>22.0</ele><time>2026-05-03T15:37:41.56Z</time></trkpt><trkpt lat="43.6542581" lon="10.6783546"><ele>22.0</ele><time>2026-05-03T15:37:42.559Z</time></trkpt><trkpt lat="43.6543481" lon="10.6781607"><ele>22.0</ele><time>2026-05-03T15:37:43.56Z</time></trkpt><trkpt lat="43.6544176" lon="10.677975"><ele>22.0</ele><time>2026-05-03T15:37:44.561Z</time></trkpt><trkpt lat="43.6544593" lon="10.6777906"><ele>22.0</ele><time>2026-05-03T15:37:45.56Z</time></trkpt><trkpt lat="43.654461" lon="10.6775737"><ele>22.0</ele><time>2026-05-03T15:37:46.561Z</time></trkpt><trkpt lat="43.654446" lon="10.6773244"><ele>21.333333333333332</ele><time>2026-05-03T15:37:47.561Z</time></trkpt><trkpt lat="43.6544295" lon="10.6770537"><ele>20.666666666666668</ele><time>2026-05-03T15:37:48.561Z</time></trkpt><trkpt lat="43.6544173" lon="10.676775"><ele>20.0</ele><time>2026-05-03T15:37:49.56Z</time></trkpt><trkpt lat="43.6544209" lon="10.6764983"><ele>20.0</ele><time>2026-05-03T15:37:50.561Z</time></trkpt><trkpt lat="43.6544392" lon="10.6762382"><ele>20.0</ele><time>2026-05-03T15:37:51.56Z</time></trkpt><trkpt lat="43.6544568" lon="10.675987"><ele>20.0</ele><time>2026-05-03T15:37:52.56Z</time></trkpt><trkpt lat="43.6544801" lon="10.6757595"><ele>20.0</ele><time>2026-05-03T15:37:53.561Z</time></trkpt><trkpt lat="43.6545" lon="10.6755538"><ele>20.0</ele><time>2026-05-03T15:37:54.559Z</time></trkpt><trkpt lat="43.6545105" lon="10.6753662"><ele>20.0</ele><time>2026-05-03T15:37:55.559Z</time></trkpt><trkpt lat="43.6545017" lon="10.6751926"><ele>20.0</ele><time>2026-05-03T15:37:56.561Z</time></trkpt><trkpt lat="43.6544766" lon="10.6750339"><ele>20.0</ele><time>2026-05-03T15:37:57.56Z</time></trkpt><trkpt lat="43.6544609" lon="10.6748823"><ele>20.0</ele><time>2026-05-03T15:37:58.561Z</time></trkpt><trkpt lat="43.6544821" lon="10.6747221"><ele>20.0</ele><time>2026-05-03T15:37:59.559Z</time></trkpt><trkpt lat="43.6545238" lon="10.6745478"><ele>20.0</ele><time>2026-05-03T15:38:00.561Z</time></trkpt><trkpt lat="43.6545791" lon="10.6743629"><ele>19.0</ele><time>2026-05-03T15:38:01.559Z</time></trkpt><trkpt lat="43.6546516" lon="10.6741356"><ele>18.0</ele><time>2026-05-03T15:38:02.559Z</time></trkpt><trkpt lat="43.6547201" lon="10.6739079"><ele>17.0</ele><time>2026-05-03T15:38:03.56Z</time></trkpt><trkpt lat="43.6547917" lon="10.6736775"><ele>17.0</ele><time>2026-05-03T15:38:04.56Z</time></trkpt><trkpt lat="43.6548571" lon="10.6734489"><ele>17.0</ele><time>2026-05-03T15:38:05.559Z</time></trkpt><trkpt lat="43.6549091" lon="10.6732107"><ele>17.0</ele><time>2026-05-03T15:38:06.56Z</time></trkpt><trkpt lat="43.6549527" lon="10.6729728"><ele>17.0</ele><time>2026-05-03T15:38:07.561Z</time></trkpt><trkpt lat="43.6549876" lon="10.6727359"><ele>17.0</ele><time>2026-05-03T15:38:08.561Z</time></trkpt><trkpt lat="43.6550307" lon="10.6724983"><ele>17.0</ele><time>2026-05-03T15:38:09.561Z</time></trkpt><trkpt lat="43.6550737" lon="10.6722619"><ele>17.0</ele><time>2026-05-03T15:38:10.56Z</time></trkpt><trkpt lat="43.6551181" lon="10.672029"><ele>17.0</ele><time>2026-05-03T15:38:11.56Z</time></trkpt><trkpt lat="43.6551558" lon="10.671797"><ele>17.0</ele><time>2026-05-03T15:38:12.561Z</time></trkpt><trkpt lat="43.6551954" lon="10.6715695"><ele>17.0</ele><time>2026-05-03T15:38:13.562Z</time></trkpt><trkpt lat="43.6552356" lon="10.6713358"><ele>17.0</ele><time>2026-05-03T15:38:14.56Z</time></trkpt><trkpt lat="43.6552794" lon="10.671092"><ele>17.0</ele><time>2026-05-03T15:38:15.561Z</time></trkpt><trkpt lat="43.6553208" lon="10.6708482"><ele>17.0</ele><time>2026-05-03T15:38:16.561Z</time></trkpt><trkpt lat="43.6553638" lon="10.6706074"><ele>17.0</ele><time>2026-05-03T15:38:17.559Z</time></trkpt><trkpt lat="43.655403" lon="10.6703811"><ele>17.0</ele><time>2026-05-03T15:38:18.561Z</time></trkpt><trkpt lat="43.6554334" lon="10.6701675"><ele>16.75</ele><time>2026-05-03T15:38:19.561Z</time></trkpt><trkpt lat="43.6554629" lon="10.6699723"><ele>16.5</ele><time>2026-05-03T15:38:20.559Z</time></trkpt><trkpt lat="43.6554922" lon="10.6697914"><ele>16.25</ele><time>2026-05-03T15:38:21.56Z</time></trkpt><trkpt lat="43.6555185" lon="10.6696194"><ele>16.0</ele><time>2026-05-03T15:38:22.559Z</time></trkpt><trkpt lat="43.6555426" lon="10.6694796"><ele>16.2</ele><time>2026-05-03T15:38:23.56Z</time></trkpt><trkpt lat="43.6555745" lon="10.6693628"><ele>16.400000000000002</ele><time>2026-05-03T15:38:24.562Z</time></trkpt><trkpt lat="43.6556012" lon="10.6692789"><ele>16.6</ele><time>2026-05-03T15:38:25.56Z</time></trkpt><trkpt lat="43.6556715" lon="10.6691971"><ele>16.8</ele><time>2026-05-03T15:38:27.559Z</time></trkpt><trkpt lat="43.655775" lon="10.66919"><ele>17.0</ele><time>2026-05-03T15:38:29.559Z</time></trkpt><trkpt lat="43.6558934" lon="10.6692511"><ele>17.0</ele><time>2026-05-03T15:38:31.559Z</time></trkpt><trkpt lat="43.6559979" lon="10.6692697"><ele>17.0</ele><time>2026-05-03T15:38:32.559Z</time></trkpt><trkpt lat="43.6561263" lon="10.6692812"><ele>17.0</ele><time>2026-05-03T15:38:33.56Z</time></trkpt><trkpt lat="43.6562561" lon="10.6692995"><ele>17.0</ele><time>2026-05-03T15:38:34.56Z</time></trkpt><trkpt lat="43.6564014" lon="10.6693022"><ele>16.333333333333336</ele><time>2026-05-03T15:38:35.56Z</time></trkpt><trkpt lat="43.6565518" lon="10.6693107"><ele>15.666666666666668</ele><time>2026-05-03T15:38:36.56Z</time></trkpt><trkpt lat="43.6567146" lon="10.6693162"><ele>15.0</ele><time>2026-05-03T15:38:37.56Z</time></trkpt><trkpt lat="43.656879" lon="10.6693221"><ele>15.333333333333332</ele><time>2026-05-03T15:38:38.561Z</time></trkpt><trkpt lat="43.6570344" lon="10.6693365"><ele>15.666666666666666</ele><time>2026-05-03T15:38:39.561Z</time></trkpt><trkpt lat="43.6571839" lon="10.6693815"><ele>16.0</ele><time>2026-05-03T15:38:40.56Z</time></trkpt><trkpt lat="43.6573246" lon="10.6694538"><ele>16.0</ele><time>2026-05-03T15:38:41.561Z</time></trkpt><trkpt lat="43.657449" lon="10.6695515"><ele>16.0</ele><time>2026-05-03T15:38:42.56Z</time></trkpt><trkpt lat="43.6575721" lon="10.6696444"><ele>16.0</ele><time>2026-05-03T15:38:43.56Z</time></trkpt><trkpt lat="43.657689" lon="10.6697246"><ele>16.0</ele><time>2026-05-03T15:38:44.56Z</time></trkpt><trkpt lat="43.6578159" lon="10.6697928"><ele>16.0</ele><time>2026-05-03T15:38:45.56Z</time></trkpt><trkpt lat="43.657953" lon="10.669811"><ele>16.0</ele><time>2026-05-03T15:38:46.561Z</time></trkpt><trkpt lat="43.6581088" lon="10.6698219"><ele>16.0</ele><time>2026-05-03T15:38:47.56Z</time></trkpt><trkpt lat="43.6582826" lon="10.6698452"><ele>16.0</ele><time>2026-05-03T15:38:48.561Z</time></trkpt><trkpt lat="43.6584417" lon="10.6698663"><ele>16.0</ele><time>2026-05-03T15:38:49.56Z</time></trkpt><trkpt lat="43.6586038" lon="10.6698633"><ele>16.0</ele><time>2026-05-03T15:38:50.561Z</time></trkpt><trkpt lat="43.6587752" lon="10.6698345"><ele>15.666666666666666</ele><time>2026-05-03T15:38:51.561Z</time></trkpt><trkpt lat="43.6589554" lon="10.6698189"><ele>15.333333333333332</ele><time>2026-05-03T15:38:52.56Z</time></trkpt><trkpt lat="43.659146" lon="10.6697981"><ele>15.0</ele><time>2026-05-03T15:38:53.559Z</time></trkpt><trkpt lat="43.6593546" lon="10.6697788"><ele>15.0</ele><time>2026-05-03T15:38:54.56Z</time></trkpt><trkpt lat="43.6595539" lon="10.6697654"><ele>15.0</ele><time>2026-05-03T15:38:55.562Z</time></trkpt><trkpt lat="43.6597665" lon="10.6697703"><ele>15.0</ele><time>2026-05-03T15:38:56.56Z</time></trkpt><trkpt lat="43.659994" lon="10.6697898"><ele>15.0</ele><time>2026-05-03T15:38:57.56Z</time></trkpt><trkpt lat="43.6602301" lon="10.6697996"><ele>15.0</ele><time>2026-05-03T15:38:58.56Z</time></trkpt><trkpt lat="43.6604458" lon="10.669796"><ele>14.666666666666668</ele><time>2026-05-03T15:38:59.56Z</time></trkpt><trkpt lat="43.6606531" lon="10.6697888"><ele>14.333333333333334</ele><time>2026-05-03T15:39:00.559Z</time></trkpt><trkpt lat="43.6608441" lon="10.6697713"><ele>14.0</ele><time>2026-05-03T15:39:01.56Z</time></trkpt><trkpt lat="43.6610241" lon="10.669733"><ele>14.0</ele><time>2026-05-03T15:39:02.56Z</time></trkpt><trkpt lat="43.6611921" lon="10.6696776"><ele>14.0</ele><time>2026-05-03T15:39:03.56Z</time></trkpt><trkpt lat="43.6613493" lon="10.6696116"><ele>14.0</ele><time>2026-05-03T15:39:04.559Z</time></trkpt><trkpt lat="43.6615116" lon="10.669529"><ele>14.0</ele><time>2026-05-03T15:39:05.562Z</time></trkpt><trkpt lat="43.6616863" lon="10.6694546"><ele>14.0</ele><time>2026-05-03T15:39:06.559Z</time></trkpt><trkpt lat="43.6618487" lon="10.6693845"><ele>14.0</ele><time>2026-05-03T15:39:07.56Z</time></trkpt><trkpt lat="43.6620042" lon="10.6693212"><ele>14.500000000000002</ele><time>2026-05-03T15:39:08.56Z</time></trkpt><trkpt lat="43.6621305" lon="10.6692657"><ele>15.0</ele><time>2026-05-03T15:39:09.559Z</time></trkpt><trkpt lat="43.6622273" lon="10.6692288"><ele>15.5</ele><time>2026-05-03T15:39:10.56Z</time></trkpt><trkpt lat="43.6622954" lon="10.6692149"><ele>16.0</ele><time>2026-05-03T15:39:11.56Z</time></trkpt><trkpt lat="43.6623641" lon="10.6692193"><ele>16.5</ele><time>2026-05-03T15:39:13.56Z</time></trkpt><trkpt lat="43.6624375" lon="10.6692057"><ele>17.0</ele><time>2026-05-03T15:39:21.559Z</time></trkpt><trkpt lat="43.6624984" lon="10.669158"><ele>17.0</ele><time>2026-05-03T15:39:22.561Z</time></trkpt><trkpt lat="43.6625664" lon="10.6690661"><ele>17.0</ele><time>2026-05-03T15:39:23.56Z</time></trkpt><trkpt lat="43.662644" lon="10.6689685"><ele>17.0</ele><time>2026-05-03T15:39:24.56Z</time></trkpt><trkpt lat="43.6627474" lon="10.6687995"><ele>17.0</ele><time>2026-05-03T15:39:25.56Z</time></trkpt><trkpt lat="43.6629676" lon="10.6684591"><ele>17.0</ele><time>2026-05-03T15:39:27.561Z</time></trkpt><trkpt lat="43.663088" lon="10.668284"><ele>17.0</ele><time>2026-05-03T15:39:28.56Z</time></trkpt><trkpt lat="43.663196" lon="10.668115"><ele>17.0</ele><time>2026-05-03T15:39:29.56Z</time></trkpt><trkpt lat="43.6632882" lon="10.6679326"><ele>17.0</ele><time>2026-05-03T15:39:30.559Z</time></trkpt><trkpt lat="43.6633646" lon="10.6677282"><ele>17.0</ele><time>2026-05-03T15:39:31.561Z</time></trkpt><trkpt lat="43.663417" lon="10.6675105"><ele>17.0</ele><time>2026-05-03T15:39:32.56Z</time></trkpt><trkpt lat="43.6634618" lon="10.667278"><ele>17.0</ele><time>2026-05-03T15:39:33.561Z</time></trkpt><trkpt lat="43.6635044" lon="10.6670338"><ele>17.0</ele><time>2026-05-03T15:39:34.561Z</time></trkpt><trkpt lat="43.6635472" lon="10.6667782"><ele>17.0</ele><time>2026-05-03T15:39:35.561Z</time></trkpt><trkpt lat="43.66359" lon="10.6665166"><ele>16.333333333333336</ele><time>2026-05-03T15:39:36.56Z</time></trkpt><trkpt lat="43.6636344" lon="10.6662606"><ele>15.666666666666668</ele><time>2026-05-03T15:39:37.56Z</time></trkpt><trkpt lat="43.6636947" lon="10.666019"><ele>15.0</ele><time>2026-05-03T15:39:38.559Z</time></trkpt><trkpt lat="43.6637308" lon="10.6657674"><ele>15.0</ele><time>2026-05-03T15:39:39.56Z</time></trkpt><trkpt lat="43.6637712" lon="10.6655354"><ele>15.0</ele><time>2026-05-03T15:39:40.56Z</time></trkpt><trkpt lat="43.6637975" lon="10.6653197"><ele>15.0</ele><time>2026-05-03T15:39:41.56Z</time></trkpt><trkpt lat="43.6638387" lon="10.6650943"><ele>15.0</ele><time>2026-05-03T15:39:42.56Z</time></trkpt><trkpt lat="43.6638799" lon="10.664859"><ele>15.0</ele><time>2026-05-03T15:39:43.56Z</time></trkpt><trkpt lat="43.6639258" lon="10.6646168"><ele>15.0</ele><time>2026-05-03T15:39:44.559Z</time></trkpt><trkpt lat="43.663972" lon="10.6643596"><ele>14.333333333333332</ele><time>2026-05-03T15:39:45.56Z</time></trkpt><trkpt lat="43.664013" lon="10.6640996"><ele>13.666666666666666</ele><time>2026-05-03T15:39:46.56Z</time></trkpt><trkpt lat="43.6640666" lon="10.6638468"><ele>13.0</ele><time>2026-05-03T15:39:47.561Z</time></trkpt><trkpt lat="43.6641067" lon="10.663588"><ele>13.0</ele><time>2026-05-03T15:39:48.56Z</time></trkpt><trkpt lat="43.6641482" lon="10.6633426"><ele>13.0</ele><time>2026-05-03T15:39:49.56Z</time></trkpt><trkpt lat="43.6641949" lon="10.6630965"><ele>13.0</ele><time>2026-05-03T15:39:50.559Z</time></trkpt><trkpt lat="43.6642399" lon="10.6628677"><ele>13.666666666666666</ele><time>2026-05-03T15:39:51.56Z</time></trkpt><trkpt lat="43.6642849" lon="10.6626567"><ele>14.333333333333332</ele><time>2026-05-03T15:39:52.561Z</time></trkpt><trkpt lat="43.6643129" lon="10.6624416"><ele>15.0</ele><time>2026-05-03T15:39:53.56Z</time></trkpt><trkpt lat="43.6643479" lon="10.6622225"><ele>15.0</ele><time>2026-05-03T15:39:54.56Z</time></trkpt><trkpt lat="43.6643926" lon="10.6620364"><ele>15.0</ele><time>2026-05-03T15:39:55.559Z</time></trkpt><trkpt lat="43.6644333" lon="10.6618391"><ele>15.0</ele><time>2026-05-03T15:39:56.561Z</time></trkpt><trkpt lat="43.6644641" lon="10.6616445"><ele>15.0</ele><time>2026-05-03T15:39:57.56Z</time></trkpt><trkpt lat="43.6644981" lon="10.6614536"><ele>15.0</ele><time>2026-05-03T15:39:58.559Z</time></trkpt><trkpt lat="43.6645281" lon="10.6612752"><ele>15.0</ele><time>2026-05-03T15:39:59.56Z</time></trkpt><trkpt lat="43.6645555" lon="10.6611133"><ele>15.0</ele><time>2026-05-03T15:40:00.561Z</time></trkpt><trkpt lat="43.664581" lon="10.6609506"><ele>15.0</ele><time>2026-05-03T15:40:01.561Z</time></trkpt><trkpt lat="43.664611" lon="10.6607923"><ele>14.8</ele><time>2026-05-03T15:40:02.559Z</time></trkpt><trkpt lat="43.6646358" lon="10.6606386"><ele>14.6</ele><time>2026-05-03T15:40:03.56Z</time></trkpt><trkpt lat="43.6646599" lon="10.6604959"><ele>14.399999999999999</ele><time>2026-05-03T15:40:04.561Z</time></trkpt><trkpt lat="43.6646832" lon="10.6603585"><ele>14.2</ele><time>2026-05-03T15:40:05.562Z</time></trkpt><trkpt lat="43.6647037" lon="10.6602315"><ele>14.0</ele><time>2026-05-03T15:40:06.561Z</time></trkpt><trkpt lat="43.6647229" lon="10.6601004"><ele>14.000000000000002</ele><time>2026-05-03T15:40:07.561Z</time></trkpt><trkpt lat="43.6647456" lon="10.6599707"><ele>14.0</ele><time>2026-05-03T15:40:08.56Z</time></trkpt><trkpt lat="43.664769" lon="10.659842"><ele>14.0</ele><time>2026-05-03T15:40:09.561Z</time></trkpt><trkpt lat="43.6647938" lon="10.6597172"><ele>14.0</ele><time>2026-05-03T15:40:10.56Z</time></trkpt><trkpt lat="43.6648168" lon="10.6596083"><ele>14.000000000000002</ele><time>2026-05-03T15:40:11.56Z</time></trkpt><trkpt lat="43.6648373" lon="10.6595085"><ele>14.0</ele><time>2026-05-03T15:40:12.561Z</time></trkpt><trkpt lat="43.6648528" lon="10.6594095"><ele>14.166666666666668</ele><time>2026-05-03T15:40:13.56Z</time></trkpt><trkpt lat="43.664874" lon="10.6593196"><ele>14.333333333333334</ele><time>2026-05-03T15:40:14.561Z</time></trkpt><trkpt lat="43.6648925" lon="10.6592183"><ele>14.5</ele><time>2026-05-03T15:40:15.561Z</time></trkpt><trkpt lat="43.6649228" lon="10.6590199"><ele>14.666666666666668</ele><time>2026-05-03T15:40:17.559Z</time></trkpt><trkpt lat="43.6649404" lon="10.6589236"><ele>14.833333333333334</ele><time>2026-05-03T15:40:18.56Z</time></trkpt><trkpt lat="43.6649523" lon="10.6588224"><ele>15.0</ele><time>2026-05-03T15:40:19.562Z</time></trkpt><trkpt lat="43.6649596" lon="10.6587315"><ele>14.833333333333334</ele><time>2026-05-03T15:40:20.56Z</time></trkpt><trkpt lat="43.6649847" lon="10.6585733"><ele>14.666666666666668</ele><time>2026-05-03T15:40:22.559Z</time></trkpt><trkpt lat="43.6650128" lon="10.6584869"><ele>14.5</ele><time>2026-05-03T15:40:23.56Z</time></trkpt><trkpt lat="43.6650404" lon="10.6583826"><ele>14.333333333333334</ele><time>2026-05-03T15:40:24.56Z</time></trkpt><trkpt lat="43.6650642" lon="10.6582693"><ele>14.166666666666668</ele><time>2026-05-03T15:40:25.561Z</time></trkpt><trkpt lat="43.6650804" lon="10.6581587"><ele>14.0</ele><time>2026-05-03T15:40:26.56Z</time></trkpt><trkpt lat="43.6650924" lon="10.6580524"><ele>14.0</ele><time>2026-05-03T15:40:27.56Z</time></trkpt><trkpt lat="43.6651114" lon="10.6579399"><ele>13.999999999999998</ele><time>2026-05-03T15:40:28.559Z</time></trkpt><trkpt lat="43.6651475" lon="10.6578163"><ele>13.999999999999998</ele><time>2026-05-03T15:40:29.56Z</time></trkpt><trkpt lat="43.6651885" lon="10.6576763"><ele>14.0</ele><time>2026-05-03T15:40:30.56Z</time></trkpt><trkpt lat="43.6652305" lon="10.6575088"><ele>14.0</ele><time>2026-05-03T15:40:31.56Z</time></trkpt><trkpt lat="43.6652621" lon="10.6573164"><ele>14.0</ele><time>2026-05-03T15:40:32.559Z</time></trkpt><trkpt lat="43.6652937" lon="10.6571062"><ele>14.0</ele><time>2026-05-03T15:40:33.56Z</time></trkpt><trkpt lat="43.6653271" lon="10.6568732"><ele>14.0</ele><time>2026-05-03T15:40:34.559Z</time></trkpt><trkpt lat="43.6653661" lon="10.6566372"><ele>14.0</ele><time>2026-05-03T15:40:35.559Z</time></trkpt><trkpt lat="43.6654023" lon="10.656413"><ele>14.0</ele><time>2026-05-03T15:40:36.561Z</time></trkpt><trkpt lat="43.6654448" lon="10.6562061"><ele>14.0</ele><time>2026-05-03T15:40:37.559Z</time></trkpt><trkpt lat="43.665502" lon="10.65603"><ele>14.0</ele><time>2026-05-03T15:40:38.56Z</time></trkpt><trkpt lat="43.6655779" lon="10.655896"><ele>13.999999999999998</ele><time>2026-05-03T15:40:39.56Z</time></trkpt><trkpt lat="43.6656625" lon="10.6557967"><ele>13.999999999999998</ele><time>2026-05-03T15:40:40.56Z</time></trkpt><trkpt lat="43.6657564" lon="10.6557463"><ele>14.0</ele><time>2026-05-03T15:40:41.56Z</time></trkpt><trkpt lat="43.6658624" lon="10.6557402"><ele>14.0</ele><time>2026-05-03T15:40:42.561Z</time></trkpt><trkpt lat="43.6659664" lon="10.6557761"><ele>14.0</ele><time>2026-05-03T15:40:43.56Z</time></trkpt><trkpt lat="43.6660693" lon="10.6558282"><ele>13.999999999999998</ele><time>2026-05-03T15:40:44.561Z</time></trkpt><trkpt lat="43.6661734" lon="10.6558567"><ele>13.999999999999998</ele><time>2026-05-03T15:40:45.559Z</time></trkpt><trkpt lat="43.666283" lon="10.6558534"><ele>14.0</ele><time>2026-05-03T15:40:46.56Z</time></trkpt><trkpt lat="43.6663926" lon="10.6558055"><ele>14.0</ele><time>2026-05-03T15:40:47.56Z</time></trkpt><trkpt lat="43.6665099" lon="10.6557342"><ele>14.0</ele><time>2026-05-03T15:40:48.56Z</time></trkpt><trkpt lat="43.6666423" lon="10.6556868"><ele>14.0</ele><time>2026-05-03T15:40:49.56Z</time></trkpt><trkpt lat="43.6667883" lon="10.6556809"><ele>14.0</ele><time>2026-05-03T15:40:50.56Z</time></trkpt><trkpt lat="43.6669589" lon="10.655702"><ele>14.0</ele><time>2026-05-03T15:40:51.56Z</time></trkpt><trkpt lat="43.6671577" lon="10.6557255"><ele>14.0</ele><time>2026-05-03T15:40:52.56Z</time></trkpt><trkpt lat="43.6673644" lon="10.6557514"><ele>14.0</ele><time>2026-05-03T15:40:53.56Z</time></trkpt><trkpt lat="43.6675877" lon="10.6557816"><ele>14.0</ele><time>2026-05-03T15:40:54.56Z</time></trkpt><trkpt lat="43.667831" lon="10.65581"><ele>14.0</ele><time>2026-05-03T15:40:55.56Z</time></trkpt><trkpt lat="43.6680904" lon="10.6558382"><ele>14.0</ele><time>2026-05-03T15:40:56.561Z</time></trkpt><trkpt lat="43.6683587" lon="10.6558698"><ele>14.0</ele><time>2026-05-03T15:40:57.559Z</time></trkpt><trkpt lat="43.6686152" lon="10.6559038"><ele>14.0</ele><time>2026-05-03T15:40:58.56Z</time></trkpt><trkpt lat="43.6688692" lon="10.6559344"><ele>14.0</ele><time>2026-05-03T15:40:59.56Z</time></trkpt><trkpt lat="43.6691272" lon="10.6559716"><ele>14.0</ele><time>2026-05-03T15:41:00.561Z</time></trkpt><trkpt lat="43.6693882" lon="10.6560172"><ele>14.0</ele><time>2026-05-03T15:41:01.56Z</time></trkpt><trkpt lat="43.6696465" lon="10.6560334"><ele>13.5</ele><time>2026-05-03T15:41:02.559Z</time></trkpt><trkpt lat="43.6698985" lon="10.6560273"><ele>13.0</ele><time>2026-05-03T15:41:03.56Z</time></trkpt><trkpt lat="43.6701454" lon="10.655994"><ele>14.0</ele><time>2026-05-03T15:41:04.559Z</time></trkpt><trkpt lat="43.6703911" lon="10.6559243"><ele>15.0</ele><time>2026-05-03T15:41:05.56Z</time></trkpt><trkpt lat="43.6706153" lon="10.6558314"><ele>15.0</ele><time>2026-05-03T15:41:06.56Z</time></trkpt><trkpt lat="43.6708297" lon="10.6556846"><ele>15.0</ele><time>2026-05-03T15:41:07.561Z</time></trkpt><trkpt lat="43.671032" lon="10.6555106"><ele>15.0</ele><time>2026-05-03T15:41:08.56Z</time></trkpt><trkpt lat="43.6712201" lon="10.6553042"><ele>15.0</ele><time>2026-05-03T15:41:09.559Z</time></trkpt><trkpt lat="43.6713976" lon="10.6550741"><ele>15.0</ele><time>2026-05-03T15:41:10.56Z</time></trkpt><trkpt lat="43.6715668" lon="10.6548258"><ele>15.0</ele><time>2026-05-03T15:41:11.561Z</time></trkpt><trkpt lat="43.6717089" lon="10.6545614"><ele>14.0</ele><time>2026-05-03T15:41:12.562Z</time></trkpt><trkpt lat="43.6718317" lon="10.6542791"><ele>13.0</ele><time>2026-05-03T15:41:13.56Z</time></trkpt><trkpt lat="43.6719245" lon="10.6539707"><ele>13.5</ele><time>2026-05-03T15:41:14.562Z</time></trkpt><trkpt lat="43.6719952" lon="10.6536442"><ele>14.0</ele><time>2026-05-03T15:41:15.561Z</time></trkpt><trkpt lat="43.6720507" lon="10.6533109"><ele>14.0</ele><time>2026-05-03T15:41:16.559Z</time></trkpt><trkpt lat="43.6720899" lon="10.6529729"><ele>14.0</ele><time>2026-05-03T15:41:17.559Z</time></trkpt><trkpt lat="43.6721141" lon="10.6526291"><ele>13.5</ele><time>2026-05-03T15:41:18.56Z</time></trkpt><trkpt lat="43.6721285" lon="10.6522989"><ele>13.0</ele><time>2026-05-03T15:41:19.56Z</time></trkpt><trkpt lat="43.6721373" lon="10.6519898"><ele>13.0</ele><time>2026-05-03T15:41:20.56Z</time></trkpt><trkpt lat="43.6721446" lon="10.651704"><ele>13.0</ele><time>2026-05-03T15:41:21.56Z</time></trkpt><trkpt lat="43.6721537" lon="10.6514425"><ele>13.0</ele><time>2026-05-03T15:41:22.56Z</time></trkpt><trkpt lat="43.6721704" lon="10.6512104"><ele>13.0</ele><time>2026-05-03T15:41:23.56Z</time></trkpt><trkpt lat="43.6721923" lon="10.6509989"><ele>13.0</ele><time>2026-05-03T15:41:24.56Z</time></trkpt><trkpt lat="43.6722272" lon="10.650814"><ele>13.0</ele><time>2026-05-03T15:41:25.56Z</time></trkpt><trkpt lat="43.6722795" lon="10.6506588"><ele>13.0</ele><time>2026-05-03T15:41:26.559Z</time></trkpt><trkpt lat="43.6723384" lon="10.6505376"><ele>13.0</ele><time>2026-05-03T15:41:27.56Z</time></trkpt><trkpt lat="43.6723782" lon="10.6504082"><ele>13.0</ele><time>2026-05-03T15:41:28.56Z</time></trkpt><trkpt lat="43.6723861" lon="10.6502683"><ele>13.0</ele><time>2026-05-03T15:41:29.561Z</time></trkpt><trkpt lat="43.6723613" lon="10.6501259"><ele>13.0</ele><time>2026-05-03T15:41:30.561Z</time></trkpt><trkpt lat="43.6723214" lon="10.6499682"><ele>13.0</ele><time>2026-05-03T15:41:31.561Z</time></trkpt><trkpt lat="43.6722882" lon="10.6497855"><ele>13.333333333333332</ele><time>2026-05-03T15:41:32.56Z</time></trkpt><trkpt lat="43.6722639" lon="10.6495947"><ele>13.666666666666668</ele><time>2026-05-03T15:41:33.559Z</time></trkpt><trkpt lat="43.6723162" lon="10.6493459"><ele>14.0</ele><time>2026-05-03T15:41:34.56Z</time></trkpt><trkpt lat="43.6723718" lon="10.6491012"><ele>14.0</ele><time>2026-05-03T15:41:35.561Z</time></trkpt><trkpt lat="43.6724415" lon="10.6488576"><ele>14.0</ele><time>2026-05-03T15:41:36.56Z</time></trkpt><trkpt lat="43.6725147" lon="10.6486192"><ele>14.0</ele><time>2026-05-03T15:41:37.56Z</time></trkpt><trkpt lat="43.6725976" lon="10.6484031"><ele>14.333333333333334</ele><time>2026-05-03T15:41:38.56Z</time></trkpt><trkpt lat="43.6726861" lon="10.6482006"><ele>14.666666666666668</ele><time>2026-05-03T15:41:39.56Z</time></trkpt><trkpt lat="43.6727866" lon="10.6480084"><ele>15.0</ele><time>2026-05-03T15:41:40.56Z</time></trkpt><trkpt lat="43.6728957" lon="10.6478272"><ele>14.333333333333332</ele><time>2026-05-03T15:41:41.56Z</time></trkpt><trkpt lat="43.6729968" lon="10.6476286"><ele>13.666666666666666</ele><time>2026-05-03T15:41:42.56Z</time></trkpt><trkpt lat="43.6731362" lon="10.6474357"><ele>13.0</ele><time>2026-05-03T15:41:43.56Z</time></trkpt><trkpt lat="43.6732989" lon="10.64724"><ele>13.0</ele><time>2026-05-03T15:41:44.56Z</time></trkpt><trkpt lat="43.6734803" lon="10.6470421"><ele>13.0</ele><time>2026-05-03T15:41:45.559Z</time></trkpt><trkpt lat="43.6736611" lon="10.6468371"><ele>12.5</ele><time>2026-05-03T15:41:46.561Z</time></trkpt><trkpt lat="43.6738465" lon="10.6466125"><ele>12.0</ele><time>2026-05-03T15:41:47.56Z</time></trkpt><trkpt lat="43.674038" lon="10.6463766"><ele>12.0</ele><time>2026-05-03T15:41:48.56Z</time></trkpt><trkpt lat="43.6742326" lon="10.6461505"><ele>12.0</ele><time>2026-05-03T15:41:49.559Z</time></trkpt><trkpt lat="43.6744201" lon="10.6459279"><ele>13.0</ele><time>2026-05-03T15:41:50.56Z</time></trkpt><trkpt lat="43.6745977" lon="10.6457088"><ele>14.0</ele><time>2026-05-03T15:41:51.56Z</time></trkpt><trkpt lat="43.6747614" lon="10.6455044"><ele>13.333333333333334</ele><time>2026-05-03T15:41:52.559Z</time></trkpt><trkpt lat="43.6749107" lon="10.6452918"><ele>12.666666666666668</ele><time>2026-05-03T15:41:53.56Z</time></trkpt><trkpt lat="43.6750402" lon="10.6450715"><ele>12.0</ele><time>2026-05-03T15:41:54.559Z</time></trkpt><trkpt lat="43.6751487" lon="10.6448501"><ele>12.0</ele><time>2026-05-03T15:41:55.561Z</time></trkpt><trkpt lat="43.675245" lon="10.6446429"><ele>12.0</ele><time>2026-05-03T15:41:56.56Z</time></trkpt><trkpt lat="43.6753286" lon="10.6444729"><ele>12.0</ele><time>2026-05-03T15:41:57.561Z</time></trkpt><trkpt lat="43.6754136" lon="10.6443347"><ele>12.25</ele><time>2026-05-03T15:41:58.56Z</time></trkpt><trkpt lat="43.6755065" lon="10.6442204"><ele>12.5</ele><time>2026-05-03T15:41:59.56Z</time></trkpt><trkpt lat="43.6756063" lon="10.6441197"><ele>12.75</ele><time>2026-05-03T15:42:00.56Z</time></trkpt><trkpt lat="43.6756925" lon="10.6439985"><ele>13.0</ele><time>2026-05-03T15:42:01.56Z</time></trkpt><trkpt lat="43.6757616" lon="10.6438473"><ele>13.0</ele><time>2026-05-03T15:42:02.561Z</time></trkpt><trkpt lat="43.6758255" lon="10.6436779"><ele>13.0</ele><time>2026-05-03T15:42:03.56Z</time></trkpt><trkpt lat="43.6759191" lon="10.6435159"><ele>13.0</ele><time>2026-05-03T15:42:04.559Z</time></trkpt><trkpt lat="43.6760441" lon="10.6433496"><ele>13.666666666666666</ele><time>2026-05-03T15:42:05.559Z</time></trkpt><trkpt lat="43.676195" lon="10.6431855"><ele>14.333333333333332</ele><time>2026-05-03T15:42:06.561Z</time></trkpt><trkpt lat="43.6763418" lon="10.6430103"><ele>15.0</ele><time>2026-05-03T15:42:07.559Z</time></trkpt><trkpt lat="43.6764893" lon="10.6428126"><ele>16.666666666666668</ele><time>2026-05-03T15:42:08.56Z</time></trkpt><trkpt lat="43.6766184" lon="10.6426039"><ele>18.333333333333336</ele><time>2026-05-03T15:42:09.56Z</time></trkpt><trkpt lat="43.6767222" lon="10.6423887"><ele>20.0</ele><time>2026-05-03T15:42:10.561Z</time></trkpt><trkpt lat="43.6768145" lon="10.6421823"><ele>20.0</ele><time>2026-05-03T15:42:11.56Z</time></trkpt><trkpt lat="43.6769016" lon="10.64197"><ele>20.0</ele><time>2026-05-03T15:42:12.56Z</time></trkpt><trkpt lat="43.6769807" lon="10.6417269"><ele>20.0</ele><time>2026-05-03T15:42:13.56Z</time></trkpt><trkpt lat="43.6770609" lon="10.6414722"><ele>19.333333333333336</ele><time>2026-05-03T15:42:14.56Z</time></trkpt><trkpt lat="43.6771256" lon="10.6412102"><ele>18.666666666666668</ele><time>2026-05-03T15:42:15.56Z</time></trkpt><trkpt lat="43.6771735" lon="10.640949"><ele>18.0</ele><time>2026-05-03T15:42:16.559Z</time></trkpt><trkpt lat="43.6771962" lon="10.6406958"><ele>17.666666666666668</ele><time>2026-05-03T15:42:17.561Z</time></trkpt><trkpt lat="43.6772066" lon="10.6404566"><ele>17.333333333333336</ele><time>2026-05-03T15:42:18.56Z</time></trkpt><trkpt lat="43.6772123" lon="10.6402265"><ele>17.0</ele><time>2026-05-03T15:42:19.56Z</time></trkpt><trkpt lat="43.6772041" lon="10.6399904"><ele>16.666666666666668</ele><time>2026-05-03T15:42:20.56Z</time></trkpt><trkpt lat="43.6771887" lon="10.6397589"><ele>16.333333333333332</ele><time>2026-05-03T15:42:21.56Z</time></trkpt><trkpt lat="43.6771677" lon="10.6395284"><ele>16.0</ele><time>2026-05-03T15:42:22.56Z</time></trkpt><trkpt lat="43.6771435" lon="10.6392942"><ele>16.0</ele><time>2026-05-03T15:42:23.559Z</time></trkpt><trkpt lat="43.6771128" lon="10.6390512"><ele>16.0</ele><time>2026-05-03T15:42:24.56Z</time></trkpt><trkpt lat="43.6770787" lon="10.6388021"><ele>16.0</ele><time>2026-05-03T15:42:25.559Z</time></trkpt><trkpt lat="43.6770061" lon="10.6382839"><ele>15.333333333333332</ele><time>2026-05-03T15:42:27.56Z</time></trkpt><trkpt lat="43.6769685" lon="10.6380015"><ele>14.666666666666668</ele><time>2026-05-03T15:42:28.559Z</time></trkpt><trkpt lat="43.6769332" lon="10.6377309"><ele>14.0</ele><time>2026-05-03T15:42:29.56Z</time></trkpt><trkpt lat="43.6768961" lon="10.6374606"><ele>14.0</ele><time>2026-05-03T15:42:30.56Z</time></trkpt><trkpt lat="43.6768602" lon="10.6371948"><ele>14.0</ele><time>2026-05-03T15:42:31.56Z</time></trkpt><trkpt lat="43.6768256" lon="10.6369249"><ele>14.0</ele><time>2026-05-03T15:42:32.56Z</time></trkpt><trkpt lat="43.6767886" lon="10.6366542"><ele>13.666666666666668</ele><time>2026-05-03T15:42:33.559Z</time></trkpt><trkpt lat="43.6767493" lon="10.6363762"><ele>13.333333333333332</ele><time>2026-05-03T15:42:34.56Z</time></trkpt><trkpt lat="43.6767092" lon="10.6360988"><ele>13.0</ele><time>2026-05-03T15:42:35.56Z</time></trkpt><trkpt lat="43.6766683" lon="10.6358175"><ele>13.0</ele><time>2026-05-03T15:42:36.56Z</time></trkpt><trkpt lat="43.6766345" lon="10.6355274"><ele>13.0</ele><time>2026-05-03T15:42:37.559Z</time></trkpt><trkpt lat="43.6766006" lon="10.6352466"><ele>13.0</ele><time>2026-05-03T15:42:38.559Z</time></trkpt><trkpt lat="43.6765663" lon="10.6349635"><ele>12.666666666666666</ele><time>2026-05-03T15:42:39.56Z</time></trkpt><trkpt lat="43.6765402" lon="10.6346818"><ele>12.333333333333332</ele><time>2026-05-03T15:42:40.56Z</time></trkpt><trkpt lat="43.6765272" lon="10.6344077"><ele>12.0</ele><time>2026-05-03T15:42:41.559Z</time></trkpt><trkpt lat="43.6765292" lon="10.6341469"><ele>11.666666666666666</ele><time>2026-05-03T15:42:42.559Z</time></trkpt><trkpt lat="43.6765522" lon="10.6338882"><ele>11.333333333333332</ele><time>2026-05-03T15:42:43.56Z</time></trkpt><trkpt lat="43.6765882" lon="10.6336455"><ele>11.0</ele><time>2026-05-03T15:42:44.56Z</time></trkpt><trkpt lat="43.6766405" lon="10.6334169"><ele>11.0</ele><time>2026-05-03T15:42:45.56Z</time></trkpt><trkpt lat="43.6767136" lon="10.6332016"><ele>11.0</ele><time>2026-05-03T15:42:46.56Z</time></trkpt><trkpt lat="43.6768065" lon="10.6330047"><ele>11.0</ele><time>2026-05-03T15:42:47.561Z</time></trkpt><trkpt lat="43.6769083" lon="10.6328231"><ele>11.5</ele><time>2026-05-03T15:42:48.56Z</time></trkpt><trkpt lat="43.6770157" lon="10.6326668"><ele>12.0</ele><time>2026-05-03T15:42:49.561Z</time></trkpt><trkpt lat="43.6771237" lon="10.6325311"><ele>12.5</ele><time>2026-05-03T15:42:50.559Z</time></trkpt><trkpt lat="43.6772381" lon="10.6324144"><ele>13.0</ele><time>2026-05-03T15:42:51.56Z</time></trkpt><trkpt lat="43.6773591" lon="10.6323076"><ele>13.0</ele><time>2026-05-03T15:42:52.56Z</time></trkpt><trkpt lat="43.6774905" lon="10.6322189"><ele>13.0</ele><time>2026-05-03T15:42:53.559Z</time></trkpt><trkpt lat="43.6776215" lon="10.6321489"><ele>13.0</ele><time>2026-05-03T15:42:54.559Z</time></trkpt><trkpt lat="43.6777581" lon="10.6320955"><ele>13.0</ele><time>2026-05-03T15:42:55.559Z</time></trkpt><trkpt lat="43.6778934" lon="10.6320692"><ele>13.0</ele><time>2026-05-03T15:42:56.56Z</time></trkpt><trkpt lat="43.678028" lon="10.6320542"><ele>13.0</ele><time>2026-05-03T15:42:57.559Z</time></trkpt><trkpt lat="43.678152" lon="10.6320613"><ele>13.0</ele><time>2026-05-03T15:42:58.56Z</time></trkpt><trkpt lat="43.6782755" lon="10.6320766"><ele>13.0</ele><time>2026-05-03T15:42:59.56Z</time></trkpt><trkpt lat="43.6783896" lon="10.6320997"><ele>13.0</ele><time>2026-05-03T15:43:00.56Z</time></trkpt><trkpt lat="43.6785008" lon="10.6321338"><ele>13.0</ele><time>2026-05-03T15:43:01.56Z</time></trkpt><trkpt lat="43.6786008" lon="10.6321728"><ele>13.0</ele><time>2026-05-03T15:43:02.56Z</time></trkpt><trkpt lat="43.6786953" lon="10.6322253"><ele>13.0</ele><time>2026-05-03T15:43:03.56Z</time></trkpt><trkpt lat="43.6787812" lon="10.6322871"><ele>13.0</ele><time>2026-05-03T15:43:04.56Z</time></trkpt><trkpt lat="43.6788598" lon="10.6323668"><ele>13.333333333333332</ele><time>2026-05-03T15:43:05.561Z</time></trkpt><trkpt lat="43.6789247" lon="10.632458"><ele>13.666666666666666</ele><time>2026-05-03T15:43:06.559Z</time></trkpt><trkpt lat="43.6789748" lon="10.6325581"><ele>14.0</ele><time>2026-05-03T15:43:07.56Z</time></trkpt><trkpt lat="43.6790248" lon="10.6326555"><ele>14.333333333333332</ele><time>2026-05-03T15:43:08.56Z</time></trkpt><trkpt lat="43.6790821" lon="10.6327282"><ele>14.666666666666666</ele><time>2026-05-03T15:43:09.56Z</time></trkpt><trkpt lat="43.6791581" lon="10.6327708"><ele>15.0</ele><time>2026-05-03T15:43:10.56Z</time></trkpt><trkpt lat="43.679243" lon="10.6327693"><ele>15.0</ele><time>2026-05-03T15:43:11.56Z</time></trkpt><trkpt lat="43.6793159" lon="10.6327218"><ele>15.0</ele><time>2026-05-03T15:43:12.56Z</time></trkpt><trkpt lat="43.6793729" lon="10.6326373"><ele>15.0</ele><time>2026-05-03T15:43:13.56Z</time></trkpt><trkpt lat="43.6794108" lon="10.6325111"><ele>15.0</ele><time>2026-05-03T15:43:14.56Z</time></trkpt><trkpt lat="43.6794552" lon="10.6323527"><ele>15.0</ele><time>2026-05-03T15:43:15.56Z</time></trkpt><trkpt lat="43.6795245" lon="10.6321924"><ele>16.0</ele><time>2026-05-03T15:43:16.559Z</time></trkpt><trkpt lat="43.6796181" lon="10.6320163"><ele>17.0</ele><time>2026-05-03T15:43:17.559Z</time></trkpt><trkpt lat="43.6797291" lon="10.6318176"><ele>18.0</ele><time>2026-05-03T15:43:18.56Z</time></trkpt><trkpt lat="43.6798562" lon="10.6315897"><ele>15.666666666666666</ele><time>2026-05-03T15:43:19.56Z</time></trkpt><trkpt lat="43.6799776" lon="10.6313528"><ele>13.333333333333332</ele><time>2026-05-03T15:43:20.559Z</time></trkpt><trkpt lat="43.6801156" lon="10.6310936"><ele>11.0</ele><time>2026-05-03T15:43:21.559Z</time></trkpt><trkpt lat="43.6802585" lon="10.6308298"><ele>13.5</ele><time>2026-05-03T15:43:22.56Z</time></trkpt><trkpt lat="43.6803969" lon="10.6305692"><ele>16.0</ele><time>2026-05-03T15:43:23.56Z</time></trkpt><trkpt lat="43.6805327" lon="10.6303203"><ele>16.333333333333332</ele><time>2026-05-03T15:43:24.559Z</time></trkpt><trkpt lat="43.680665" lon="10.6300744"><ele>16.666666666666668</ele><time>2026-05-03T15:43:25.561Z</time></trkpt><trkpt lat="43.6807948" lon="10.6298305"><ele>17.0</ele><time>2026-05-03T15:43:26.559Z</time></trkpt><trkpt lat="43.6809246" lon="10.6295906"><ele>16.666666666666668</ele><time>2026-05-03T15:43:27.56Z</time></trkpt><trkpt lat="43.6810515" lon="10.6293489"><ele>16.333333333333332</ele><time>2026-05-03T15:43:28.559Z</time></trkpt><trkpt lat="43.6811846" lon="10.629103"><ele>16.0</ele><time>2026-05-03T15:43:29.559Z</time></trkpt><trkpt lat="43.6813186" lon="10.6288597"><ele>16.666666666666664</ele><time>2026-05-03T15:43:30.56Z</time></trkpt><trkpt lat="43.6814441" lon="10.6286162"><ele>17.333333333333332</ele><time>2026-05-03T15:43:31.559Z</time></trkpt><trkpt lat="43.6815786" lon="10.628379"><ele>18.0</ele><time>2026-05-03T15:43:32.559Z</time></trkpt><trkpt lat="43.6817121" lon="10.6281307"><ele>18.0</ele><time>2026-05-03T15:43:33.562Z</time></trkpt><trkpt lat="43.6818439" lon="10.6278866"><ele>18.0</ele><time>2026-05-03T15:43:34.56Z</time></trkpt><trkpt lat="43.6819868" lon="10.6276393"><ele>18.0</ele><time>2026-05-03T15:43:35.56Z</time></trkpt><trkpt lat="43.6822525" lon="10.6271671"><ele>22.0</ele><time>2026-05-03T15:43:37.56Z</time></trkpt><trkpt lat="43.6823828" lon="10.6269397"><ele>26.0</ele><time>2026-05-03T15:43:38.561Z</time></trkpt><trkpt lat="43.6824977" lon="10.6267202"><ele>30.0</ele><time>2026-05-03T15:43:39.56Z</time></trkpt><trkpt lat="43.6826093" lon="10.6265178"><ele>30.0</ele><time>2026-05-03T15:43:40.56Z</time></trkpt><trkpt lat="43.6827214" lon="10.6263236"><ele>30.0</ele><time>2026-05-03T15:43:41.559Z</time></trkpt><trkpt lat="43.6828177" lon="10.6261522"><ele>30.0</ele><time>2026-05-03T15:43:42.56Z</time></trkpt><trkpt lat="43.6829058" lon="10.6259956"><ele>30.0</ele><time>2026-05-03T15:43:43.56Z</time></trkpt><trkpt lat="43.682981" lon="10.6258599"><ele>30.0</ele><time>2026-05-03T15:43:44.559Z</time></trkpt><trkpt lat="43.683049" lon="10.6257489"><ele>30.0</ele><time>2026-05-03T15:43:45.559Z</time></trkpt><trkpt lat="43.6831222" lon="10.6256427"><ele>30.0</ele><time>2026-05-03T15:43:46.559Z</time></trkpt><trkpt lat="43.6831923" lon="10.6255544"><ele>30.0</ele><time>2026-05-03T15:43:47.56Z</time></trkpt><trkpt lat="43.6832631" lon="10.6254784"><ele>30.0</ele><time>2026-05-03T15:43:48.56Z</time></trkpt><trkpt lat="43.6833368" lon="10.6254128"><ele>30.0</ele><time>2026-05-03T15:43:49.559Z</time></trkpt><trkpt lat="43.6834123" lon="10.6253523"><ele>30.0</ele><time>2026-05-03T15:43:50.559Z</time></trkpt><trkpt lat="43.6835027" lon="10.6252973"><ele>30.0</ele><time>2026-05-03T15:43:51.561Z</time></trkpt><trkpt lat="43.6836053" lon="10.6252565"><ele>30.0</ele><time>2026-05-03T15:43:52.559Z</time></trkpt><trkpt lat="43.6837199" lon="10.6252128"><ele>27.25</ele><time>2026-05-03T15:43:53.56Z</time></trkpt><trkpt lat="43.6838448" lon="10.6251778"><ele>24.5</ele><time>2026-05-03T15:43:54.56Z</time></trkpt><trkpt lat="43.6839748" lon="10.6251751"><ele>21.75</ele><time>2026-05-03T15:43:55.56Z</time></trkpt><trkpt lat="43.6841003" lon="10.6251866"><ele>19.0</ele><time>2026-05-03T15:43:56.561Z</time></trkpt><trkpt lat="43.6842305" lon="10.6251803"><ele>19.0</ele><time>2026-05-03T15:43:57.56Z</time></trkpt><trkpt lat="43.6843611" lon="10.6251646"><ele>19.0</ele><time>2026-05-03T15:43:58.559Z</time></trkpt><trkpt lat="43.6844952" lon="10.6251416"><ele>19.0</ele><time>2026-05-03T15:43:59.559Z</time></trkpt><trkpt lat="43.6846329" lon="10.6251228"><ele>19.0</ele><time>2026-05-03T15:44:00.559Z</time></trkpt><trkpt lat="43.6847747" lon="10.6251047"><ele>18.0</ele><time>2026-05-03T15:44:01.56Z</time></trkpt><trkpt lat="43.6849188" lon="10.6250634"><ele>17.0</ele><time>2026-05-03T15:44:02.56Z</time></trkpt><trkpt lat="43.6850619" lon="10.6250484"><ele>16.0</ele><time>2026-05-03T15:44:03.561Z</time></trkpt><trkpt lat="43.6852034" lon="10.6250224"><ele>15.0</ele><time>2026-05-03T15:44:04.56Z</time></trkpt><trkpt lat="43.6853478" lon="10.6250004"><ele>14.5</ele><time>2026-05-03T15:44:05.56Z</time></trkpt><trkpt lat="43.6854942" lon="10.6249797"><ele>14.0</ele><time>2026-05-03T15:44:06.56Z</time></trkpt><trkpt lat="43.6856094" lon="10.6249075"><ele>13.5</ele><time>2026-05-03T15:44:07.559Z</time></trkpt><trkpt lat="43.6857378" lon="10.6248784"><ele>13.0</ele><time>2026-05-03T15:44:08.559Z</time></trkpt><trkpt lat="43.6858666" lon="10.6248735"><ele>13.0</ele><time>2026-05-03T15:44:09.56Z</time></trkpt><trkpt lat="43.6859937" lon="10.6248616"><ele>13.0</ele><time>2026-05-03T15:44:10.56Z</time></trkpt><trkpt lat="43.6861245" lon="10.6248526"><ele>13.0</ele><time>2026-05-03T15:44:11.561Z</time></trkpt><trkpt lat="43.6862536" lon="10.6248383"><ele>13.0</ele><time>2026-05-03T15:44:12.559Z</time></trkpt><trkpt lat="43.6863887" lon="10.6248142"><ele>13.25</ele><time>2026-05-03T15:44:13.559Z</time></trkpt><trkpt lat="43.6865235" lon="10.624793"><ele>13.5</ele><time>2026-05-03T15:44:14.56Z</time></trkpt><trkpt lat="43.6866585" lon="10.6247711"><ele>13.75</ele><time>2026-05-03T15:44:15.56Z</time></trkpt><trkpt lat="43.6867948" lon="10.6247509"><ele>14.0</ele><time>2026-05-03T15:44:16.56Z</time></trkpt><trkpt lat="43.6869256" lon="10.6247343"><ele>13.5</ele><time>2026-05-03T15:44:17.558Z</time></trkpt><trkpt lat="43.6870502" lon="10.6247116"><ele>13.0</ele><time>2026-05-03T15:44:18.56Z</time></trkpt><trkpt lat="43.6871701" lon="10.6246909"><ele>12.5</ele><time>2026-05-03T15:44:19.56Z</time></trkpt><trkpt lat="43.6872889" lon="10.624675"><ele>12.0</ele><time>2026-05-03T15:44:20.56Z</time></trkpt><trkpt lat="43.6874098" lon="10.624656"><ele>12.0</ele><time>2026-05-03T15:44:21.56Z</time></trkpt><trkpt lat="43.6875362" lon="10.624637"><ele>12.0</ele><time>2026-05-03T15:44:22.56Z</time></trkpt><trkpt lat="43.687667" lon="10.6246189"><ele>12.0</ele><time>2026-05-03T15:44:23.56Z</time></trkpt><trkpt lat="43.6878045" lon="10.6245961"><ele>12.0</ele><time>2026-05-03T15:44:24.559Z</time></trkpt><trkpt lat="43.6879393" lon="10.6245643"><ele>11.5</ele><time>2026-05-03T15:44:25.56Z</time></trkpt><trkpt lat="43.6880714" lon="10.6245361"><ele>11.0</ele><time>2026-05-03T15:44:26.559Z</time></trkpt><trkpt lat="43.6882008" lon="10.6245191"><ele>10.5</ele><time>2026-05-03T15:44:27.56Z</time></trkpt><trkpt lat="43.6883368" lon="10.6244998"><ele>10.0</ele><time>2026-05-03T15:44:28.56Z</time></trkpt><trkpt lat="43.6884781" lon="10.6244832"><ele>10.666666666666668</ele><time>2026-05-03T15:44:29.559Z</time></trkpt><trkpt lat="43.688635" lon="10.6244398"><ele>11.333333333333334</ele><time>2026-05-03T15:44:30.559Z</time></trkpt><trkpt lat="43.6887801" lon="10.6244171"><ele>12.0</ele><time>2026-05-03T15:44:31.559Z</time></trkpt><trkpt lat="43.6889213" lon="10.6243762"><ele>12.0</ele><time>2026-05-03T15:44:32.56Z</time></trkpt><trkpt lat="43.689058" lon="10.6243352"><ele>12.0</ele><time>2026-05-03T15:44:33.559Z</time></trkpt><trkpt lat="43.6891824" lon="10.6242932"><ele>12.0</ele><time>2026-05-03T15:44:34.559Z</time></trkpt><trkpt lat="43.68931" lon="10.6242431"><ele>12.0</ele><time>2026-05-03T15:44:35.56Z</time></trkpt><trkpt lat="43.6894399" lon="10.6241956"><ele>12.0</ele><time>2026-05-03T15:44:36.56Z</time></trkpt><trkpt lat="43.6895689" lon="10.624151"><ele>12.0</ele><time>2026-05-03T15:44:37.561Z</time></trkpt><trkpt lat="43.6896977" lon="10.6241087"><ele>12.0</ele><time>2026-05-03T15:44:38.559Z</time></trkpt><trkpt lat="43.689824" lon="10.624061"><ele>12.0</ele><time>2026-05-03T15:44:39.56Z</time></trkpt><trkpt lat="43.6899586" lon="10.6240097"><ele>12.0</ele><time>2026-05-03T15:44:40.558Z</time></trkpt><trkpt lat="43.6900908" lon="10.6239755"><ele>12.0</ele><time>2026-05-03T15:44:41.56Z</time></trkpt><trkpt lat="43.6902243" lon="10.6239239"><ele>12.0</ele><time>2026-05-03T15:44:42.56Z</time></trkpt><trkpt lat="43.6903568" lon="10.6238726"><ele>12.0</ele><time>2026-05-03T15:44:43.56Z</time></trkpt><trkpt lat="43.6904954" lon="10.6238255"><ele>12.0</ele><time>2026-05-03T15:44:44.56Z</time></trkpt><trkpt lat="43.6906343" lon="10.6237784"><ele>12.0</ele><time>2026-05-03T15:44:45.561Z</time></trkpt><trkpt lat="43.6907784" lon="10.6237308"><ele>12.0</ele><time>2026-05-03T15:44:46.561Z</time></trkpt><trkpt lat="43.690915" lon="10.6236843"><ele>12.0</ele><time>2026-05-03T15:44:47.561Z</time></trkpt><trkpt lat="43.6910433" lon="10.6236395"><ele>12.25</ele><time>2026-05-03T15:44:48.56Z</time></trkpt><trkpt lat="43.6911653" lon="10.6236009"><ele>12.5</ele><time>2026-05-03T15:44:49.559Z</time></trkpt><trkpt lat="43.6912887" lon="10.6235628"><ele>12.75</ele><time>2026-05-03T15:44:50.558Z</time></trkpt><trkpt lat="43.6914128" lon="10.623514"><ele>13.0</ele><time>2026-05-03T15:44:51.558Z</time></trkpt><trkpt lat="43.6915446" lon="10.6234642"><ele>13.0</ele><time>2026-05-03T15:44:52.561Z</time></trkpt><trkpt lat="43.6916888" lon="10.6234131"><ele>13.0</ele><time>2026-05-03T15:44:53.56Z</time></trkpt><trkpt lat="43.6918424" lon="10.6233529"><ele>13.0</ele><time>2026-05-03T15:44:54.56Z</time></trkpt><trkpt lat="43.6920053" lon="10.6232893"><ele>12.666666666666666</ele><time>2026-05-03T15:44:55.559Z</time></trkpt><trkpt lat="43.6921775" lon="10.6232212"><ele>12.333333333333332</ele><time>2026-05-03T15:44:56.56Z</time></trkpt><trkpt lat="43.692353" lon="10.6231556"><ele>12.0</ele><time>2026-05-03T15:44:57.559Z</time></trkpt><trkpt lat="43.6925287" lon="10.6231026"><ele>12.0</ele><time>2026-05-03T15:44:58.559Z</time></trkpt><trkpt lat="43.6926944" lon="10.623045"><ele>12.0</ele><time>2026-05-03T15:44:59.559Z</time></trkpt><trkpt lat="43.6928499" lon="10.6229924"><ele>12.0</ele><time>2026-05-03T15:45:00.559Z</time></trkpt><trkpt lat="43.6930019" lon="10.622938"><ele>12.333333333333332</ele><time>2026-05-03T15:45:01.559Z</time></trkpt><trkpt lat="43.6931426" lon="10.6228898"><ele>12.666666666666666</ele><time>2026-05-03T15:45:02.56Z</time></trkpt><trkpt lat="43.6932769" lon="10.6228412"><ele>13.0</ele><time>2026-05-03T15:45:03.56Z</time></trkpt><trkpt lat="43.693518" lon="10.6227615"><ele>12.5</ele><time>2026-05-03T15:45:05.559Z</time></trkpt><trkpt lat="43.6936304" lon="10.622726"><ele>12.0</ele><time>2026-05-03T15:45:06.56Z</time></trkpt><trkpt lat="43.6937507" lon="10.6226826"><ele>11.5</ele><time>2026-05-03T15:45:07.558Z</time></trkpt><trkpt lat="43.6938823" lon="10.6226358"><ele>11.0</ele><time>2026-05-03T15:45:08.561Z</time></trkpt><trkpt lat="43.6940159" lon="10.6225839"><ele>11.0</ele><time>2026-05-03T15:45:09.559Z</time></trkpt><trkpt lat="43.6941605" lon="10.6225315"><ele>11.0</ele><time>2026-05-03T15:45:10.56Z</time></trkpt><trkpt lat="43.6942998" lon="10.6224819"><ele>11.0</ele><time>2026-05-03T15:45:11.56Z</time></trkpt><trkpt lat="43.694442" lon="10.6224285"><ele>11.0</ele><time>2026-05-03T15:45:12.56Z</time></trkpt><trkpt lat="43.6945699" lon="10.6223811"><ele>11.5</ele><time>2026-05-03T15:45:13.56Z</time></trkpt><trkpt lat="43.6946992" lon="10.6223362"><ele>12.0</ele><time>2026-05-03T15:45:14.558Z</time></trkpt><trkpt lat="43.6948253" lon="10.6222945"><ele>12.5</ele><time>2026-05-03T15:45:15.559Z</time></trkpt><trkpt lat="43.6949509" lon="10.6222542"><ele>13.0</ele><time>2026-05-03T15:45:16.56Z</time></trkpt><trkpt lat="43.6950724" lon="10.6222074"><ele>13.0</ele><time>2026-05-03T15:45:17.559Z</time></trkpt><trkpt lat="43.6952002" lon="10.6221641"><ele>13.0</ele><time>2026-05-03T15:45:18.559Z</time></trkpt><trkpt lat="43.6953338" lon="10.6221148"><ele>13.0</ele><time>2026-05-03T15:45:19.56Z</time></trkpt><trkpt lat="43.6954739" lon="10.6220682"><ele>13.0</ele><time>2026-05-03T15:45:20.559Z</time></trkpt><trkpt lat="43.6956096" lon="10.622028"><ele>12.75</ele><time>2026-05-03T15:45:21.56Z</time></trkpt><trkpt lat="43.6957442" lon="10.6219859"><ele>12.5</ele><time>2026-05-03T15:45:22.561Z</time></trkpt><trkpt lat="43.6958808" lon="10.6219448"><ele>12.25</ele><time>2026-05-03T15:45:23.56Z</time></trkpt><trkpt lat="43.6960166" lon="10.621904"><ele>12.0</ele><time>2026-05-03T15:45:24.561Z</time></trkpt><trkpt lat="43.6961484" lon="10.6218627"><ele>12.5</ele><time>2026-05-03T15:45:25.56Z</time></trkpt><trkpt lat="43.6962771" lon="10.6218249"><ele>13.0</ele><time>2026-05-03T15:45:26.559Z</time></trkpt><trkpt lat="43.6964085" lon="10.6217866"><ele>13.5</ele><time>2026-05-03T15:45:27.559Z</time></trkpt><trkpt lat="43.6965431" lon="10.6217504"><ele>14.0</ele><time>2026-05-03T15:45:28.56Z</time></trkpt><trkpt lat="43.6966747" lon="10.6217147"><ele>14.0</ele><time>2026-05-03T15:45:29.56Z</time></trkpt><trkpt lat="43.6968054" lon="10.6216781"><ele>14.0</ele><time>2026-05-03T15:45:30.56Z</time></trkpt><trkpt lat="43.6969256" lon="10.621648"><ele>14.0</ele><time>2026-05-03T15:45:31.559Z</time></trkpt><trkpt lat="43.697037" lon="10.6216266"><ele>14.0</ele><time>2026-05-03T15:45:32.56Z</time></trkpt><trkpt lat="43.6971568" lon="10.6215935"><ele>13.75</ele><time>2026-05-03T15:45:33.56Z</time></trkpt><trkpt lat="43.6972755" lon="10.6215549"><ele>13.5</ele><time>2026-05-03T15:45:34.559Z</time></trkpt><trkpt lat="43.6974015" lon="10.6215154"><ele>13.25</ele><time>2026-05-03T15:45:35.56Z</time></trkpt><trkpt lat="43.6975282" lon="10.6214856"><ele>13.0</ele><time>2026-05-03T15:45:36.56Z</time></trkpt><trkpt lat="43.6976612" lon="10.6214507"><ele>13.0</ele><time>2026-05-03T15:45:37.561Z</time></trkpt><trkpt lat="43.6977989" lon="10.6214072"><ele>13.0</ele><time>2026-05-03T15:45:38.56Z</time></trkpt><trkpt lat="43.6979371" lon="10.6213658"><ele>13.0</ele><time>2026-05-03T15:45:39.56Z</time></trkpt><trkpt lat="43.6980692" lon="10.6213299"><ele>13.0</ele><time>2026-05-03T15:45:40.559Z</time></trkpt><trkpt lat="43.6982022" lon="10.6212912"><ele>13.0</ele><time>2026-05-03T15:45:41.559Z</time></trkpt><trkpt lat="43.6983319" lon="10.6212572"><ele>13.0</ele><time>2026-05-03T15:45:42.559Z</time></trkpt><trkpt lat="43.6984626" lon="10.6212176"><ele>13.0</ele><time>2026-05-03T15:45:43.558Z</time></trkpt><trkpt lat="43.6985807" lon="10.6211823"><ele>13.0</ele><time>2026-05-03T15:45:44.559Z</time></trkpt><trkpt lat="43.6987034" lon="10.6211388"><ele>13.0</ele><time>2026-05-03T15:45:45.56Z</time></trkpt><trkpt lat="43.6988321" lon="10.6210925"><ele>13.0</ele><time>2026-05-03T15:45:46.559Z</time></trkpt><trkpt lat="43.6989654" lon="10.6210493"><ele>13.0</ele><time>2026-05-03T15:45:47.56Z</time></trkpt><trkpt lat="43.6990839" lon="10.6209973"><ele>13.0</ele><time>2026-05-03T15:45:48.559Z</time></trkpt><trkpt lat="43.699208" lon="10.6209435"><ele>13.0</ele><time>2026-05-03T15:45:49.56Z</time></trkpt><trkpt lat="43.6993244" lon="10.6209063"><ele>13.0</ele><time>2026-05-03T15:45:50.56Z</time></trkpt><trkpt lat="43.6994488" lon="10.6208606"><ele>13.0</ele><time>2026-05-03T15:45:51.56Z</time></trkpt><trkpt lat="43.6995668" lon="10.6208128"><ele>13.0</ele><time>2026-05-03T15:45:52.56Z</time></trkpt><trkpt lat="43.6996846" lon="10.6207622"><ele>13.0</ele><time>2026-05-03T15:45:53.559Z</time></trkpt><trkpt lat="43.6997961" lon="10.6207134"><ele>13.0</ele><time>2026-05-03T15:45:54.56Z</time></trkpt><trkpt lat="43.6999141" lon="10.6206712"><ele>13.0</ele><time>2026-05-03T15:45:55.558Z</time></trkpt><trkpt lat="43.700032" lon="10.6206263"><ele>13.0</ele><time>2026-05-03T15:45:56.559Z</time></trkpt><trkpt lat="43.7001511" lon="10.6205812"><ele>12.5</ele><time>2026-05-03T15:45:57.56Z</time></trkpt><trkpt lat="43.7002669" lon="10.620532"><ele>12.0</ele><time>2026-05-03T15:45:58.558Z</time></trkpt><trkpt lat="43.7003784" lon="10.6204823"><ele>11.5</ele><time>2026-05-03T15:45:59.56Z</time></trkpt><trkpt lat="43.7004878" lon="10.6204366"><ele>11.0</ele><time>2026-05-03T15:46:00.558Z</time></trkpt><trkpt lat="43.7005945" lon="10.6203889"><ele>11.0</ele><time>2026-05-03T15:46:01.559Z</time></trkpt><trkpt lat="43.7007008" lon="10.6203468"><ele>11.0</ele><time>2026-05-03T15:46:02.561Z</time></trkpt><trkpt lat="43.7007969" lon="10.6203085"><ele>11.0</ele><time>2026-05-03T15:46:03.559Z</time></trkpt><trkpt lat="43.7008937" lon="10.6202693"><ele>11.0</ele><time>2026-05-03T15:46:04.56Z</time></trkpt><trkpt lat="43.7009911" lon="10.6202258"><ele>11.0</ele><time>2026-05-03T15:46:05.56Z</time></trkpt><trkpt lat="43.7010874" lon="10.6201872"><ele>11.25</ele><time>2026-05-03T15:46:06.559Z</time></trkpt><trkpt lat="43.7011875" lon="10.6201532"><ele>11.5</ele><time>2026-05-03T15:46:07.558Z</time></trkpt><trkpt lat="43.7012956" lon="10.6201015"><ele>11.75</ele><time>2026-05-03T15:46:08.559Z</time></trkpt><trkpt lat="43.7014076" lon="10.6200499"><ele>12.0</ele><time>2026-05-03T15:46:09.558Z</time></trkpt><trkpt lat="43.7015259" lon="10.6199983"><ele>12.0</ele><time>2026-05-03T15:46:10.559Z</time></trkpt><trkpt lat="43.7016439" lon="10.6199539"><ele>12.0</ele><time>2026-05-03T15:46:11.56Z</time></trkpt><trkpt lat="43.7017726" lon="10.619907"><ele>12.0</ele><time>2026-05-03T15:46:12.559Z</time></trkpt><trkpt lat="43.7018991" lon="10.6198548"><ele>12.0</ele><time>2026-05-03T15:46:13.56Z</time></trkpt><trkpt lat="43.7020331" lon="10.6197953"><ele>11.5</ele><time>2026-05-03T15:46:14.56Z</time></trkpt><trkpt lat="43.7021687" lon="10.6197389"><ele>11.0</ele><time>2026-05-03T15:46:15.56Z</time></trkpt><trkpt lat="43.7022884" lon="10.61969"><ele>10.5</ele><time>2026-05-03T15:46:16.56Z</time></trkpt><trkpt lat="43.7024029" lon="10.6196402"><ele>10.0</ele><time>2026-05-03T15:46:17.56Z</time></trkpt><trkpt lat="43.7025043" lon="10.6195814"><ele>10.0</ele><time>2026-05-03T15:46:18.559Z</time></trkpt><trkpt lat="43.7025778" lon="10.619541"><ele>10.0</ele><time>2026-05-03T15:46:19.559Z</time></trkpt><trkpt lat="43.7026418" lon="10.619498"><ele>10.0</ele><time>2026-05-03T15:46:20.558Z</time></trkpt><trkpt lat="43.7026898" lon="10.6194244"><ele>12.0</ele><time>2026-05-03T15:46:22.56Z</time></trkpt></trkseg></trk></gpx>